<?xml version='1.0' encoding='UTF-8'?><gpx version="1.1" creator="JPX - https://github.com/jenetics/jpx" xmlns="http://www.topografix.com/GPX/1/1"><trk><trkseg><trkpt lat="44.8202267" lon="8.057555"><ele>161.0</ele><time>2026-04-19T06:37:15.919Z</time></trkpt><trkpt lat="44.820195" lon="8.0574317"><ele>161.0</ele><time>2026-04-19T06:38:58.919Z</time></trkpt><trkpt lat="44.8201817" lon="8.0573167"><ele>161.0</ele><time>2026-04-19T06:39:00.919Z</time></trkpt><trkpt lat="44.8201567" lon="8.0571817"><ele>161.0</ele><time>2026-04-19T06:39:02.919Z</time></trkpt><trkpt lat="44.82013" lon="8.0570133"><ele>161.0</ele><time>2026-04-19T06:39:04.919Z</time></trkpt><trkpt lat="44.8201133" lon="8.0569083"><ele>161.0</ele><time>2026-04-19T06:39:05.919Z</time></trkpt><trkpt lat="44.82009" lon="8.0568233"><ele>161.0</ele><time>2026-04-19T06:39:06.919Z</time></trkpt><trkpt lat="44.8200483" lon="8.05675"><ele>161.0</ele><time>2026-04-19T06:39:07.919Z</time></trkpt><trkpt lat="44.8199933" lon="8.0566783"><ele>161.0</ele><time>2026-04-19T06:39:08.92Z</time></trkpt><trkpt lat="44.819935" lon="8.0565933"><ele>161.0</ele><time>2026-04-19T06:39:09.92Z</time></trkpt><trkpt lat="44.8198767" lon="8.056495"><ele>161.0</ele><time>2026-04-19T06:39:10.921Z</time></trkpt><trkpt lat="44.8198283" lon="8.0563933"><ele>161.16666666666666</ele><time>2026-04-19T06:39:11.92Z</time></trkpt><trkpt lat="44.8197883" lon="8.0562933"><ele>161.33333333333331</ele><time>2026-04-19T06:39:12.921Z</time></trkpt><trkpt lat="44.819755" lon="8.0561967"><ele>161.5</ele><time>2026-04-19T06:39:13.92Z</time></trkpt><trkpt lat="44.8197233" lon="8.0561017"><ele>161.66666666666666</ele><time>2026-04-19T06:39:14.921Z</time></trkpt><trkpt lat="44.819675" lon="8.0559917"><ele>161.83333333333334</ele><time>2026-04-19T06:39:15.921Z</time></trkpt><trkpt lat="44.819625" lon="8.0558683"><ele>162.0</ele><time>2026-04-19T06:39:16.92Z</time></trkpt><trkpt lat="44.8195783" lon="8.0557417"><ele>161.8</ele><time>2026-04-19T06:39:17.921Z</time></trkpt><trkpt lat="44.8195233" lon="8.0556067"><ele>161.6</ele><time>2026-04-19T06:39:18.921Z</time></trkpt><trkpt lat="44.8194667" lon="8.0554733"><ele>161.4</ele><time>2026-04-19T06:39:19.921Z</time></trkpt><trkpt lat="44.8194017" lon="8.055345"><ele>161.20000000000002</ele><time>2026-04-19T06:39:20.92Z</time></trkpt><trkpt lat="44.8193383" lon="8.0552117"><ele>161.0</ele><time>2026-04-19T06:39:21.921Z</time></trkpt><trkpt lat="44.8192733" lon="8.0550733"><ele>161.0</ele><time>2026-04-19T06:39:22.921Z</time></trkpt><trkpt lat="44.8192083" lon="8.0549317"><ele>161.0</ele><time>2026-04-19T06:39:23.921Z</time></trkpt><trkpt lat="44.819155" lon="8.054795"><ele>161.0</ele><time>2026-04-19T06:39:24.921Z</time></trkpt><trkpt lat="44.8191083" lon="8.054655"><ele>161.0</ele><time>2026-04-19T06:39:25.92Z</time></trkpt><trkpt lat="44.8190617" lon="8.0545083"><ele>161.0</ele><time>2026-04-19T06:39:26.92Z</time></trkpt><trkpt lat="44.8190167" lon="8.05436"><ele>161.0</ele><time>2026-04-19T06:39:27.92Z</time></trkpt><trkpt lat="44.818975" lon="8.0542083"><ele>161.0</ele><time>2026-04-19T06:39:28.92Z</time></trkpt><trkpt lat="44.8189417" lon="8.0540667"><ele>161.0</ele><time>2026-04-19T06:39:29.921Z</time></trkpt><trkpt lat="44.81891" lon="8.053935"><ele>161.0</ele><time>2026-04-19T06:39:30.921Z</time></trkpt><trkpt lat="44.81888" lon="8.053805"><ele>161.4</ele><time>2026-04-19T06:39:31.921Z</time></trkpt><trkpt lat="44.8188517" lon="8.05367"><ele>161.8</ele><time>2026-04-19T06:39:32.921Z</time></trkpt><trkpt lat="44.8188317" lon="8.0535383"><ele>162.20000000000002</ele><time>2026-04-19T06:39:33.92Z</time></trkpt><trkpt lat="44.8188067" lon="8.0534017"><ele>162.60000000000002</ele><time>2026-04-19T06:39:34.921Z</time></trkpt><trkpt lat="44.8187917" lon="8.053255"><ele>163.0</ele><time>2026-04-19T06:39:35.921Z</time></trkpt><trkpt lat="44.8187917" lon="8.0530867"><ele>163.5</ele><time>2026-04-19T06:39:36.921Z</time></trkpt><trkpt lat="44.8187967" lon="8.052925"><ele>164.0</ele><time>2026-04-19T06:39:37.92Z</time></trkpt><trkpt lat="44.8188133" lon="8.0527533"><ele>164.5</ele><time>2026-04-19T06:39:38.92Z</time></trkpt><trkpt lat="44.8188283" lon="8.0525833"><ele>165.0</ele><time>2026-04-19T06:39:39.921Z</time></trkpt><trkpt lat="44.8188433" lon="8.0524083"><ele>165.4</ele><time>2026-04-19T06:39:40.921Z</time></trkpt><trkpt lat="44.818855" lon="8.052235"><ele>165.8</ele><time>2026-04-19T06:39:41.92Z</time></trkpt><trkpt lat="44.8188633" lon="8.052075"><ele>166.2</ele><time>2026-04-19T06:39:42.92Z</time></trkpt><trkpt lat="44.8188683" lon="8.051925"><ele>166.6</ele><time>2026-04-19T06:39:43.92Z</time></trkpt><trkpt lat="44.8188767" lon="8.0517817"><ele>167.0</ele><time>2026-04-19T06:39:44.921Z</time></trkpt><trkpt lat="44.8188833" lon="8.0516317"><ele>167.39999999999998</ele><time>2026-04-19T06:39:45.92Z</time></trkpt><trkpt lat="44.8188783" lon="8.0514967"><ele>167.79999999999998</ele><time>2026-04-19T06:39:46.921Z</time></trkpt><trkpt lat="44.81887" lon="8.0513617"><ele>168.2</ele><time>2026-04-19T06:39:47.921Z</time></trkpt><trkpt lat="44.8188617" lon="8.05122"><ele>168.6</ele><time>2026-04-19T06:39:48.92Z</time></trkpt><trkpt lat="44.818845" lon="8.0510917"><ele>169.0</ele><time>2026-04-19T06:39:49.921Z</time></trkpt><trkpt lat="44.8188083" lon="8.0509933"><ele>169.0</ele><time>2026-04-19T06:39:50.92Z</time></trkpt><trkpt lat="44.818745" lon="8.0509217"><ele>169.0</ele><time>2026-04-19T06:39:51.921Z</time></trkpt><trkpt lat="44.81866" lon="8.0508867"><ele>169.0</ele><time>2026-04-19T06:39:52.921Z</time></trkpt><trkpt lat="44.8185583" lon="8.0509083"><ele>169.0</ele><time>2026-04-19T06:39:53.92Z</time></trkpt><trkpt lat="44.8184583" lon="8.0509717"><ele>169.0</ele><time>2026-04-19T06:39:54.92Z</time></trkpt><trkpt lat="44.8183533" lon="8.0510417"><ele>168.2</ele><time>2026-04-19T06:39:55.92Z</time></trkpt><trkpt lat="44.81825" lon="8.0511033"><ele>167.39999999999998</ele><time>2026-04-19T06:39:56.921Z</time></trkpt><trkpt lat="44.8181517" lon="8.0511617"><ele>166.6</ele><time>2026-04-19T06:39:57.92Z</time></trkpt><trkpt lat="44.8180533" lon="8.0512217"><ele>165.8</ele><time>2026-04-19T06:39:58.92Z</time></trkpt><trkpt lat="44.8179517" lon="8.05128"><ele>165.0</ele><time>2026-04-19T06:39:59.92Z</time></trkpt><trkpt lat="44.8178483" lon="8.051345"><ele>165.0</ele><time>2026-04-19T06:40:00.92Z</time></trkpt><trkpt lat="44.8177483" lon="8.0514067"><ele>165.0</ele><time>2026-04-19T06:40:01.92Z</time></trkpt><trkpt lat="44.8176533" lon="8.051465"><ele>165.0</ele><time>2026-04-19T06:40:02.92Z</time></trkpt><trkpt lat="44.817565" lon="8.0515183"><ele>165.0</ele><time>2026-04-19T06:40:03.921Z</time></trkpt><trkpt lat="44.8174822" lon="8.0515628"><ele>165.0</ele><time>2026-04-19T06:40:04.921Z</time></trkpt><trkpt lat="44.8174102" lon="8.0515921"><ele>165.0</ele><time>2026-04-19T06:40:05.92Z</time></trkpt><trkpt lat="44.8173476" lon="8.0516288"><ele>165.0</ele><time>2026-04-19T06:40:06.92Z</time></trkpt><trkpt lat="44.8173097" lon="8.051756"><ele>165.0</ele><time>2026-04-19T06:40:08.921Z</time></trkpt><trkpt lat="44.8173378" lon="8.0518583"><ele>165.0</ele><time>2026-04-19T06:40:09.921Z</time></trkpt><trkpt lat="44.8173836" lon="8.051998"><ele>165.0</ele><time>2026-04-19T06:40:10.92Z</time></trkpt><trkpt lat="44.8174342" lon="8.0521647"><ele>165.0</ele><time>2026-04-19T06:40:11.921Z</time></trkpt><trkpt lat="44.8174823" lon="8.0523417"><ele>165.0</ele><time>2026-04-19T06:40:12.92Z</time></trkpt><trkpt lat="44.8175234" lon="8.0525131"><ele>165.0</ele><time>2026-04-19T06:40:13.92Z</time></trkpt><trkpt lat="44.8175666" lon="8.0526787"><ele>165.0</ele><time>2026-04-19T06:40:14.92Z</time></trkpt><trkpt lat="44.8176054" lon="8.0528407"><ele>165.0</ele><time>2026-04-19T06:40:15.921Z</time></trkpt><trkpt lat="44.8176378" lon="8.0529969"><ele>165.0</ele><time>2026-04-19T06:40:16.921Z</time></trkpt><trkpt lat="44.8176675" lon="8.0531632"><ele>165.0</ele><time>2026-04-19T06:40:17.92Z</time></trkpt><trkpt lat="44.8177032" lon="8.0533414"><ele>165.0</ele><time>2026-04-19T06:40:18.92Z</time></trkpt><trkpt lat="44.8177364" lon="8.0535159"><ele>164.5</ele><time>2026-04-19T06:40:19.921Z</time></trkpt><trkpt lat="44.8177736" lon="8.0536842"><ele>164.0</ele><time>2026-04-19T06:40:20.921Z</time></trkpt><trkpt lat="44.8178106" lon="8.053848"><ele>163.5</ele><time>2026-04-19T06:40:21.92Z</time></trkpt><trkpt lat="44.8178458" lon="8.0540085"><ele>163.0</ele><time>2026-04-19T06:40:22.92Z</time></trkpt><trkpt lat="44.8178806" lon="8.0541659"><ele>162.0</ele><time>2026-04-19T06:40:23.92Z</time></trkpt><trkpt lat="44.8179172" lon="8.0543221"><ele>161.0</ele><time>2026-04-19T06:40:24.92Z</time></trkpt><trkpt lat="44.817969" lon="8.0544773"><ele>160.0</ele><time>2026-04-19T06:40:25.921Z</time></trkpt><trkpt lat="44.8180193" lon="8.0546361"><ele>159.0</ele><time>2026-04-19T06:40:26.92Z</time></trkpt><trkpt lat="44.8180801" lon="8.0548054"><ele>159.5</ele><time>2026-04-19T06:40:27.921Z</time></trkpt><trkpt lat="44.818144" lon="8.0549818"><ele>160.0</ele><time>2026-04-19T06:40:28.92Z</time></trkpt><trkpt lat="44.8182198" lon="8.0551623"><ele>160.5</ele><time>2026-04-19T06:40:29.921Z</time></trkpt><trkpt lat="44.8182933" lon="8.0553271"><ele>161.0</ele><time>2026-04-19T06:40:30.92Z</time></trkpt><trkpt lat="44.8183677" lon="8.0554784"><ele>161.0</ele><time>2026-04-19T06:40:31.921Z</time></trkpt><trkpt lat="44.8184418" lon="8.0556303"><ele>161.0</ele><time>2026-04-19T06:40:32.92Z</time></trkpt><trkpt lat="44.8185146" lon="8.0557813"><ele>161.0</ele><time>2026-04-19T06:40:33.921Z</time></trkpt><trkpt lat="44.8185892" lon="8.0559365"><ele>161.0</ele><time>2026-04-19T06:40:34.92Z</time></trkpt><trkpt lat="44.8186742" lon="8.056095"><ele>160.75</ele><time>2026-04-19T06:40:35.921Z</time></trkpt><trkpt lat="44.8187619" lon="8.0562436"><ele>160.5</ele><time>2026-04-19T06:40:36.92Z</time></trkpt><trkpt lat="44.818849" lon="8.0563878"><ele>160.25</ele><time>2026-04-19T06:40:37.92Z</time></trkpt><trkpt lat="44.8189368" lon="8.0565378"><ele>160.0</ele><time>2026-04-19T06:40:38.921Z</time></trkpt><trkpt lat="44.8190289" lon="8.0566883"><ele>159.75</ele><time>2026-04-19T06:40:39.921Z</time></trkpt><trkpt lat="44.8191183" lon="8.056828"><ele>159.5</ele><time>2026-04-19T06:40:40.92Z</time></trkpt><trkpt lat="44.819211" lon="8.0569706"><ele>159.25</ele><time>2026-04-19T06:40:41.921Z</time></trkpt><trkpt lat="44.8193011" lon="8.0571259"><ele>159.0</ele><time>2026-04-19T06:40:42.92Z</time></trkpt><trkpt lat="44.819388" lon="8.0572775"><ele>159.5</ele><time>2026-04-19T06:40:43.92Z</time></trkpt><trkpt lat="44.8194703" lon="8.0574153"><ele>160.0</ele><time>2026-04-19T06:40:44.921Z</time></trkpt><trkpt lat="44.8195512" lon="8.0575518"><ele>160.5</ele><time>2026-04-19T06:40:45.921Z</time></trkpt><trkpt lat="44.8196248" lon="8.0576878"><ele>161.0</ele><time>2026-04-19T06:40:46.92Z</time></trkpt><trkpt lat="44.8196984" lon="8.0578193"><ele>161.0</ele><time>2026-04-19T06:40:47.92Z</time></trkpt><trkpt lat="44.8197775" lon="8.057951"><ele>161.0</ele><time>2026-04-19T06:40:48.92Z</time></trkpt><trkpt lat="44.8198578" lon="8.0580755"><ele>161.0</ele><time>2026-04-19T06:40:49.921Z</time></trkpt><trkpt lat="44.8199325" lon="8.0582028"><ele>161.0</ele><time>2026-04-19T06:40:50.92Z</time></trkpt><trkpt lat="44.8199997" lon="8.058322"><ele>160.83333333333331</ele><time>2026-04-19T06:40:51.92Z</time></trkpt><trkpt lat="44.8200701" lon="8.0584306"><ele>160.66666666666666</ele><time>2026-04-19T06:40:52.92Z</time></trkpt><trkpt lat="44.820145" lon="8.0585236"><ele>160.5</ele><time>2026-04-19T06:40:53.92Z</time></trkpt><trkpt lat="44.820215" lon="8.0585865"><ele>160.33333333333334</ele><time>2026-04-19T06:40:54.921Z</time></trkpt><trkpt lat="44.8202742" lon="8.0586421"><ele>160.16666666666669</ele><time>2026-04-19T06:40:55.921Z</time></trkpt><trkpt lat="44.8203225" lon="8.0587483"><ele>160.0</ele><time>2026-04-19T06:40:57.921Z</time></trkpt><trkpt lat="44.8202762" lon="8.0588745"><ele>160.0</ele><time>2026-04-19T06:40:59.92Z</time></trkpt><trkpt lat="44.8202193" lon="8.0589583"><ele>160.0</ele><time>2026-04-19T06:41:00.92Z</time></trkpt><trkpt lat="44.8201461" lon="8.0590581"><ele>160.0</ele><time>2026-04-19T06:41:01.92Z</time></trkpt><trkpt lat="44.8200729" lon="8.0591709"><ele>160.0</ele><time>2026-04-19T06:41:02.92Z</time></trkpt><trkpt lat="44.8199976" lon="8.0592906"><ele>160.0</ele><time>2026-04-19T06:41:03.92Z</time></trkpt><trkpt lat="44.8199227" lon="8.0594112"><ele>159.25</ele><time>2026-04-19T06:41:04.92Z</time></trkpt><trkpt lat="44.819848" lon="8.0595374"><ele>158.5</ele><time>2026-04-19T06:41:05.921Z</time></trkpt><trkpt lat="44.8197739" lon="8.0596631"><ele>157.75</ele><time>2026-04-19T06:41:06.921Z</time></trkpt><trkpt lat="44.819702" lon="8.0597835"><ele>157.0</ele><time>2026-04-19T06:41:07.921Z</time></trkpt><trkpt lat="44.8196329" lon="8.0598996"><ele>157.2</ele><time>2026-04-19T06:41:08.92Z</time></trkpt><trkpt lat="44.8195658" lon="8.0600124"><ele>157.39999999999998</ele><time>2026-04-19T06:41:09.92Z</time></trkpt><trkpt lat="44.8195013" lon="8.0601279"><ele>157.60000000000002</ele><time>2026-04-19T06:41:10.921Z</time></trkpt><trkpt lat="44.8194401" lon="8.0602531"><ele>157.8</ele><time>2026-04-19T06:41:11.92Z</time></trkpt><trkpt lat="44.8193821" lon="8.0603707"><ele>158.0</ele><time>2026-04-19T06:41:12.92Z</time></trkpt><trkpt lat="44.8193152" lon="8.0604919"><ele>158.0</ele><time>2026-04-19T06:41:13.92Z</time></trkpt><trkpt lat="44.8192475" lon="8.0606163"><ele>158.0</ele><time>2026-04-19T06:41:14.92Z</time></trkpt><trkpt lat="44.8191788" lon="8.0607353"><ele>158.0</ele><time>2026-04-19T06:41:15.921Z</time></trkpt><trkpt lat="44.8191176" lon="8.0608468"><ele>158.0</ele><time>2026-04-19T06:41:16.92Z</time></trkpt><trkpt lat="44.8190557" lon="8.0609622"><ele>158.0</ele><time>2026-04-19T06:41:17.92Z</time></trkpt><trkpt lat="44.8190009" lon="8.0610699"><ele>158.0</ele><time>2026-04-19T06:41:18.92Z</time></trkpt><trkpt lat="44.8189628" lon="8.0611726"><ele>158.0</ele><time>2026-04-19T06:41:19.92Z</time></trkpt><trkpt lat="44.8189481" lon="8.0612787"><ele>158.0</ele><time>2026-04-19T06:41:20.92Z</time></trkpt><trkpt lat="44.8189549" lon="8.0613944"><ele>158.0</ele><time>2026-04-19T06:41:21.921Z</time></trkpt><trkpt lat="44.8189852" lon="8.0614991"><ele>158.0</ele><time>2026-04-19T06:41:22.921Z</time></trkpt><trkpt lat="44.8190265" lon="8.0615906"><ele>158.0</ele><time>2026-04-19T06:41:23.92Z</time></trkpt><trkpt lat="44.8190633" lon="8.0616671"><ele>157.6</ele><time>2026-04-19T06:41:24.921Z</time></trkpt><trkpt lat="44.8190508" lon="8.0618225"><ele>157.20000000000002</ele><time>2026-04-19T06:41:26.92Z</time></trkpt><trkpt lat="44.8190032" lon="8.061913"><ele>156.8</ele><time>2026-04-19T06:41:27.921Z</time></trkpt><trkpt lat="44.818936" lon="8.0620253"><ele>156.4</ele><time>2026-04-19T06:41:28.92Z</time></trkpt><trkpt lat="44.818858" lon="8.0621516"><ele>156.0</ele><time>2026-04-19T06:41:29.92Z</time></trkpt><trkpt lat="44.8187829" lon="8.0622705"><ele>156.0</ele><time>2026-04-19T06:41:30.92Z</time></trkpt><trkpt lat="44.818716" lon="8.0623845"><ele>156.0</ele><time>2026-04-19T06:41:31.92Z</time></trkpt><trkpt lat="44.8186512" lon="8.0624969"><ele>156.0</ele><time>2026-04-19T06:41:32.92Z</time></trkpt><trkpt lat="44.81859" lon="8.0626117"><ele>156.0</ele><time>2026-04-19T06:41:33.92Z</time></trkpt><trkpt lat="44.81852" lon="8.0627367"><ele>156.0</ele><time>2026-04-19T06:41:34.92Z</time></trkpt><trkpt lat="44.81845" lon="8.06286"><ele>156.0</ele><time>2026-04-19T06:41:35.92Z</time></trkpt><trkpt lat="44.8183767" lon="8.06298"><ele>156.0</ele><time>2026-04-19T06:41:36.92Z</time></trkpt><trkpt lat="44.818315" lon="8.0630967"><ele>156.0</ele><time>2026-04-19T06:41:37.92Z</time></trkpt><trkpt lat="44.8182433" lon="8.063205"><ele>156.0</ele><time>2026-04-19T06:41:38.92Z</time></trkpt><trkpt lat="44.8181817" lon="8.0633033"><ele>156.0</ele><time>2026-04-19T06:41:39.92Z</time></trkpt><trkpt lat="44.81812" lon="8.0634067"><ele>156.0</ele><time>2026-04-19T06:41:40.921Z</time></trkpt><trkpt lat="44.8180617" lon="8.0635067"><ele>156.0</ele><time>2026-04-19T06:41:41.92Z</time></trkpt><trkpt lat="44.8180067" lon="8.0636067"><ele>156.0</ele><time>2026-04-19T06:41:42.921Z</time></trkpt><trkpt lat="44.8179617" lon="8.0637"><ele>156.0</ele><time>2026-04-19T06:41:43.92Z</time></trkpt><trkpt lat="44.8179167" lon="8.0637967"><ele>156.0</ele><time>2026-04-19T06:41:44.92Z</time></trkpt><trkpt lat="44.8178767" lon="8.0638717"><ele>156.0</ele><time>2026-04-19T06:41:45.92Z</time></trkpt><trkpt lat="44.8178317" lon="8.06396"><ele>156.0</ele><time>2026-04-19T06:41:46.92Z</time></trkpt><trkpt lat="44.8177833" lon="8.0640417"><ele>156.0</ele><time>2026-04-19T06:41:47.921Z</time></trkpt><trkpt lat="44.8177417" lon="8.0641283"><ele>156.0</ele><time>2026-04-19T06:41:48.92Z</time></trkpt><trkpt lat="44.817705" lon="8.0642083"><ele>156.0</ele><time>2026-04-19T06:41:49.921Z</time></trkpt><trkpt lat="44.81767" lon="8.064345"><ele>156.0</ele><time>2026-04-19T06:41:51.921Z</time></trkpt><trkpt lat="44.8177033" lon="8.0644483"><ele>156.0</ele><time>2026-04-19T06:41:53.92Z</time></trkpt><trkpt lat="44.817755" lon="8.064505"><ele>156.5</ele><time>2026-04-19T06:41:54.92Z</time></trkpt><trkpt lat="44.817845" lon="8.0645633"><ele>157.0</ele><time>2026-04-19T06:41:55.921Z</time></trkpt><trkpt lat="44.8179533" lon="8.0646117"><ele>157.5</ele><time>2026-04-19T06:41:56.921Z</time></trkpt><trkpt lat="44.8180717" lon="8.064645"><ele>158.0</ele><time>2026-04-19T06:41:57.92Z</time></trkpt><trkpt lat="44.81819" lon="8.06466"><ele>158.0</ele><time>2026-04-19T06:41:58.921Z</time></trkpt><trkpt lat="44.8183233" lon="8.0646583"><ele>158.0</ele><time>2026-04-19T06:41:59.92Z</time></trkpt><trkpt lat="44.8184617" lon="8.0646433"><ele>158.0</ele><time>2026-04-19T06:42:00.921Z</time></trkpt><trkpt lat="44.8186" lon="8.0646233"><ele>158.0</ele><time>2026-04-19T06:42:01.92Z</time></trkpt><trkpt lat="44.8187367" lon="8.064605"><ele>158.0</ele><time>2026-04-19T06:42:02.921Z</time></trkpt><trkpt lat="44.8188617" lon="8.0645867"><ele>158.0</ele><time>2026-04-19T06:42:03.92Z</time></trkpt><trkpt lat="44.8189833" lon="8.0645733"><ele>158.0</ele><time>2026-04-19T06:42:04.92Z</time></trkpt><trkpt lat="44.819095" lon="8.0645567"><ele>158.0</ele><time>2026-04-19T06:42:05.92Z</time></trkpt><trkpt lat="44.8191983" lon="8.0645467"><ele>158.0</ele><time>2026-04-19T06:42:06.92Z</time></trkpt><trkpt lat="44.8192917" lon="8.064545"><ele>158.0</ele><time>2026-04-19T06:42:07.921Z</time></trkpt><trkpt lat="44.8193667" lon="8.0645417"><ele>158.0</ele><time>2026-04-19T06:42:08.92Z</time></trkpt><trkpt lat="44.81946" lon="8.0645883"><ele>158.0</ele><time>2026-04-19T06:42:10.92Z</time></trkpt><trkpt lat="44.8195" lon="8.0646883"><ele>158.0</ele><time>2026-04-19T06:42:12.92Z</time></trkpt><trkpt lat="44.8194783" lon="8.0648267"><ele>158.0</ele><time>2026-04-19T06:42:14.92Z</time></trkpt><trkpt lat="44.819405" lon="8.064965"><ele>158.20000000000002</ele><time>2026-04-19T06:42:16.92Z</time></trkpt><trkpt lat="44.8193317" lon="8.06512"><ele>158.4</ele><time>2026-04-19T06:42:18.921Z</time></trkpt><trkpt lat="44.8192933" lon="8.065205"><ele>158.60000000000002</ele><time>2026-04-19T06:42:19.921Z</time></trkpt><trkpt lat="44.8192567" lon="8.0652833"><ele>158.8</ele><time>2026-04-19T06:42:20.92Z</time></trkpt><trkpt lat="44.8191917" lon="8.0654283"><ele>159.0</ele><time>2026-04-19T06:42:22.921Z</time></trkpt><trkpt lat="44.8191233" lon="8.0655467"><ele>159.0</ele><time>2026-04-19T06:42:24.921Z</time></trkpt><trkpt lat="44.8190283" lon="8.0655933"><ele>159.0</ele><time>2026-04-19T06:42:26.92Z</time></trkpt><trkpt lat="44.8189583" lon="8.0656117"><ele>159.0</ele><time>2026-04-19T06:42:27.921Z</time></trkpt><trkpt lat="44.8188733" lon="8.0656317"><ele>159.0</ele><time>2026-04-19T06:42:28.92Z</time></trkpt><trkpt lat="44.8187867" lon="8.0656433"><ele>159.0</ele><time>2026-04-19T06:42:29.92Z</time></trkpt><trkpt lat="44.8187033" lon="8.06566"><ele>159.0</ele><time>2026-04-19T06:42:30.92Z</time></trkpt><trkpt lat="44.8186367" lon="8.0656783"><ele>159.0</ele><time>2026-04-19T06:42:31.92Z</time></trkpt><trkpt lat="44.81855" lon="8.0657083"><ele>159.0</ele><time>2026-04-19T06:42:33.92Z</time></trkpt><trkpt lat="44.8184817" lon="8.06572"><ele>159.0</ele><time>2026-04-19T06:42:35.92Z</time></trkpt><trkpt lat="44.8184083" lon="8.06575"><ele>159.0</ele><time>2026-04-19T06:42:37.921Z</time></trkpt><trkpt lat="44.8183317" lon="8.0658033"><ele>159.0</ele><time>2026-04-19T06:42:40.92Z</time></trkpt><trkpt lat="44.8183317" lon="8.0658983"><ele>159.0</ele><time>2026-04-19T06:42:42.92Z</time></trkpt><trkpt lat="44.8183783" lon="8.0660133"><ele>160.2</ele><time>2026-04-19T06:42:44.921Z</time></trkpt><trkpt lat="44.8184517" lon="8.06613"><ele>161.4</ele><time>2026-04-19T06:42:46.921Z</time></trkpt><trkpt lat="44.81852" lon="8.06627"><ele>162.6</ele><time>2026-04-19T06:42:48.92Z</time></trkpt><trkpt lat="44.8186133" lon="8.0663767"><ele>163.8</ele><time>2026-04-19T06:42:50.921Z</time></trkpt><trkpt lat="44.818695" lon="8.0664317"><ele>165.0</ele><time>2026-04-19T06:42:52.92Z</time></trkpt><trkpt lat="44.8187683" lon="8.066485"><ele>165.0</ele><time>2026-04-19T06:42:54.921Z</time></trkpt><trkpt lat="44.818825" lon="8.0665583"><ele>165.0</ele><time>2026-04-19T06:42:55.92Z</time></trkpt><trkpt lat="44.8189117" lon="8.0666783"><ele>165.0</ele><time>2026-04-19T06:42:57.92Z</time></trkpt><trkpt lat="44.818985" lon="8.06681"><ele>165.0</ele><time>2026-04-19T06:42:59.92Z</time></trkpt><trkpt lat="44.8190183" lon="8.0668983"><ele>165.0</ele><time>2026-04-19T06:43:00.92Z</time></trkpt><trkpt lat="44.81906" lon="8.0669917"><ele>167.5</ele><time>2026-04-19T06:43:01.921Z</time></trkpt><trkpt lat="44.8191" lon="8.0670833"><ele>170.0</ele><time>2026-04-19T06:43:02.921Z</time></trkpt><trkpt lat="44.819135" lon="8.0671733"><ele>172.5</ele><time>2026-04-19T06:43:03.92Z</time></trkpt><trkpt lat="44.81918" lon="8.0672917"><ele>175.0</ele><time>2026-04-19T06:43:04.92Z</time></trkpt><trkpt lat="44.8192233" lon="8.0673933"><ele>177.5</ele><time>2026-04-19T06:43:05.92Z</time></trkpt><trkpt lat="44.81926" lon="8.0675033"><ele>180.0</ele><time>2026-04-19T06:43:06.92Z</time></trkpt><trkpt lat="44.8192917" lon="8.0675867"><ele>179.8</ele><time>2026-04-19T06:43:07.92Z</time></trkpt><trkpt lat="44.8193417" lon="8.0677233"><ele>179.6</ele><time>2026-04-19T06:43:09.92Z</time></trkpt><trkpt lat="44.81934" lon="8.0678467"><ele>179.39999999999998</ele><time>2026-04-19T06:43:11.921Z</time></trkpt><trkpt lat="44.81926" lon="8.0678817"><ele>179.2</ele><time>2026-04-19T06:43:14.921Z</time></trkpt><trkpt lat="44.81914" lon="8.067865"><ele>179.0</ele><time>2026-04-19T06:43:16.92Z</time></trkpt><trkpt lat="44.8190517" lon="8.0678667"><ele>183.0</ele><time>2026-04-19T06:43:17.92Z</time></trkpt><trkpt lat="44.81894" lon="8.067875"><ele>187.0</ele><time>2026-04-19T06:43:18.921Z</time></trkpt><trkpt lat="44.8188233" lon="8.0678817"><ele>191.0</ele><time>2026-04-19T06:43:19.921Z</time></trkpt><trkpt lat="44.818705" lon="8.0678683"><ele>195.0</ele><time>2026-04-19T06:43:20.921Z</time></trkpt><trkpt lat="44.8185817" lon="8.067855"><ele>197.8</ele><time>2026-04-19T06:43:21.92Z</time></trkpt><trkpt lat="44.81847" lon="8.0678433"><ele>200.6</ele><time>2026-04-19T06:43:22.92Z</time></trkpt><trkpt lat="44.8183667" lon="8.0678333"><ele>203.39999999999998</ele><time>2026-04-19T06:43:23.92Z</time></trkpt><trkpt lat="44.8182733" lon="8.0678383"><ele>206.2</ele><time>2026-04-19T06:43:24.92Z</time></trkpt><trkpt lat="44.818185" lon="8.06784"><ele>209.0</ele><time>2026-04-19T06:43:25.92Z</time></trkpt><trkpt lat="44.8180867" lon="8.0678583"><ele>209.0</ele><time>2026-04-19T06:43:26.92Z</time></trkpt><trkpt lat="44.817995" lon="8.0678883"><ele>209.0</ele><time>2026-04-19T06:43:27.921Z</time></trkpt><trkpt lat="44.8179" lon="8.06792"><ele>209.0</ele><time>2026-04-19T06:43:28.92Z</time></trkpt><trkpt lat="44.8178067" lon="8.067935"><ele>209.0</ele><time>2026-04-19T06:43:29.92Z</time></trkpt><trkpt lat="44.81772" lon="8.06794"><ele>209.0</ele><time>2026-04-19T06:43:30.921Z</time></trkpt><trkpt lat="44.8176283" lon="8.0679417"><ele>209.79999999999998</ele><time>2026-04-19T06:43:31.92Z</time></trkpt><trkpt lat="44.817525" lon="8.067955"><ele>210.6</ele><time>2026-04-19T06:43:32.921Z</time></trkpt><trkpt lat="44.817435" lon="8.0679917"><ele>211.4</ele><time>2026-04-19T06:43:33.92Z</time></trkpt><trkpt lat="44.8173383" lon="8.06806"><ele>212.2</ele><time>2026-04-19T06:43:34.921Z</time></trkpt><trkpt lat="44.8172467" lon="8.06815"><ele>213.0</ele><time>2026-04-19T06:43:35.921Z</time></trkpt><trkpt lat="44.81716" lon="8.0682483"><ele>213.2</ele><time>2026-04-19T06:43:36.921Z</time></trkpt><trkpt lat="44.817075" lon="8.0683483"><ele>213.4</ele><time>2026-04-19T06:43:37.921Z</time></trkpt><trkpt lat="44.817" lon="8.06845"><ele>213.59999999999997</ele><time>2026-04-19T06:43:38.92Z</time></trkpt><trkpt lat="44.8169317" lon="8.0685467"><ele>213.79999999999998</ele><time>2026-04-19T06:43:39.92Z</time></trkpt><trkpt lat="44.8168517" lon="8.06865"><ele>214.0</ele><time>2026-04-19T06:43:40.92Z</time></trkpt><trkpt lat="44.816765" lon="8.068755"><ele>215.5</ele><time>2026-04-19T06:43:41.921Z</time></trkpt><trkpt lat="44.81668" lon="8.0688733"><ele>217.0</ele><time>2026-04-19T06:43:42.92Z</time></trkpt><trkpt lat="44.8166033" lon="8.0689817"><ele>218.5</ele><time>2026-04-19T06:43:43.92Z</time></trkpt><trkpt lat="44.8165233" lon="8.0691083"><ele>220.0</ele><time>2026-04-19T06:43:44.921Z</time></trkpt><trkpt lat="44.8164467" lon="8.0692333"><ele>220.75</ele><time>2026-04-19T06:43:45.92Z</time></trkpt><trkpt lat="44.8163833" lon="8.0693667"><ele>221.5</ele><time>2026-04-19T06:43:46.921Z</time></trkpt><trkpt lat="44.8163233" lon="8.0694967"><ele>222.25</ele><time>2026-04-19T06:43:47.92Z</time></trkpt><trkpt lat="44.8162667" lon="8.0696417"><ele>223.0</ele><time>2026-04-19T06:43:48.921Z</time></trkpt><trkpt lat="44.81622" lon="8.069785"><ele>223.0</ele><time>2026-04-19T06:43:49.92Z</time></trkpt><trkpt lat="44.8161833" lon="8.06993"><ele>223.0</ele><time>2026-04-19T06:43:50.921Z</time></trkpt><trkpt lat="44.8161467" lon="8.0700617"><ele>223.0</ele><time>2026-04-19T06:43:51.92Z</time></trkpt><trkpt lat="44.8161183" lon="8.0701717"><ele>223.0</ele><time>2026-04-19T06:43:52.921Z</time></trkpt><trkpt lat="44.8160767" lon="8.07028"><ele>223.0</ele><time>2026-04-19T06:43:53.92Z</time></trkpt><trkpt lat="44.8160167" lon="8.0703867"><ele>224.33333333333331</ele><time>2026-04-19T06:43:54.92Z</time></trkpt><trkpt lat="44.815945" lon="8.0704783"><ele>225.66666666666666</ele><time>2026-04-19T06:43:55.92Z</time></trkpt><trkpt lat="44.8158717" lon="8.07056"><ele>227.0</ele><time>2026-04-19T06:43:56.92Z</time></trkpt><trkpt lat="44.8158117" lon="8.0706367"><ele>228.33333333333331</ele><time>2026-04-19T06:43:57.921Z</time></trkpt><trkpt lat="44.815755" lon="8.070725"><ele>229.66666666666666</ele><time>2026-04-19T06:43:58.921Z</time></trkpt><trkpt lat="44.8157033" lon="8.07082"><ele>231.0</ele><time>2026-04-19T06:43:59.921Z</time></trkpt><trkpt lat="44.8156567" lon="8.07092"><ele>232.66666666666666</ele><time>2026-04-19T06:44:00.921Z</time></trkpt><trkpt lat="44.8156017" lon="8.0710283"><ele>234.33333333333331</ele><time>2026-04-19T06:44:01.921Z</time></trkpt><trkpt lat="44.8155533" lon="8.0711317"><ele>236.0</ele><time>2026-04-19T06:44:02.921Z</time></trkpt><trkpt lat="44.8155117" lon="8.0712333"><ele>237.66666666666666</ele><time>2026-04-19T06:44:03.92Z</time></trkpt><trkpt lat="44.8154633" lon="8.071335"><ele>239.33333333333331</ele><time>2026-04-19T06:44:04.921Z</time></trkpt><trkpt lat="44.8154133" lon="8.071435"><ele>241.0</ele><time>2026-04-19T06:44:05.92Z</time></trkpt><trkpt lat="44.8153667" lon="8.07153"><ele>241.20000000000002</ele><time>2026-04-19T06:44:06.921Z</time></trkpt><trkpt lat="44.81531" lon="8.0716283"><ele>241.40000000000003</ele><time>2026-04-19T06:44:07.921Z</time></trkpt><trkpt lat="44.8152417" lon="8.0717283"><ele>241.6</ele><time>2026-04-19T06:44:08.92Z</time></trkpt><trkpt lat="44.8151717" lon="8.0718083"><ele>241.8</ele><time>2026-04-19T06:44:09.921Z</time></trkpt><trkpt lat="44.815085" lon="8.07187"><ele>242.0</ele><time>2026-04-19T06:44:10.92Z</time></trkpt><trkpt lat="44.815" lon="8.0719233"><ele>241.0</ele><time>2026-04-19T06:44:11.921Z</time></trkpt><trkpt lat="44.814915" lon="8.0719783"><ele>240.0</ele><time>2026-04-19T06:44:12.921Z</time></trkpt><trkpt lat="44.8148267" lon="8.07204"><ele>239.0</ele><time>2026-04-19T06:44:13.92Z</time></trkpt><trkpt lat="44.8147467" lon="8.0721067"><ele>238.0</ele><time>2026-04-19T06:44:14.92Z</time></trkpt><trkpt lat="44.8146733" lon="8.07218"><ele>237.0</ele><time>2026-04-19T06:44:15.921Z</time></trkpt><trkpt lat="44.8146083" lon="8.0722583"><ele>237.0</ele><time>2026-04-19T06:44:16.921Z</time></trkpt><trkpt lat="44.8145467" lon="8.0723283"><ele>237.0</ele><time>2026-04-19T06:44:17.92Z</time></trkpt><trkpt lat="44.814475" lon="8.0724067"><ele>237.0</ele><time>2026-04-19T06:44:18.92Z</time></trkpt><trkpt lat="44.8144" lon="8.07249"><ele>237.0</ele><time>2026-04-19T06:44:19.921Z</time></trkpt><trkpt lat="44.81432" lon="8.0725717"><ele>237.0</ele><time>2026-04-19T06:44:20.92Z</time></trkpt><trkpt lat="44.8142367" lon="8.0726383"><ele>236.6</ele><time>2026-04-19T06:44:21.921Z</time></trkpt><trkpt lat="44.8141667" lon="8.0727083"><ele>236.2</ele><time>2026-04-19T06:44:22.921Z</time></trkpt><trkpt lat="44.8140867" lon="8.072775"><ele>235.8</ele><time>2026-04-19T06:44:23.92Z</time></trkpt><trkpt lat="44.8139983" lon="8.0728367"><ele>235.4</ele><time>2026-04-19T06:44:24.921Z</time></trkpt><trkpt lat="44.81391" lon="8.0728917"><ele>235.0</ele><time>2026-04-19T06:44:25.92Z</time></trkpt><trkpt lat="44.8138117" lon="8.0729383"><ele>235.0</ele><time>2026-04-19T06:44:26.92Z</time></trkpt><trkpt lat="44.8137167" lon="8.072985"><ele>235.0</ele><time>2026-04-19T06:44:27.92Z</time></trkpt><trkpt lat="44.8136233" lon="8.0730333"><ele>235.0</ele><time>2026-04-19T06:44:28.921Z</time></trkpt><trkpt lat="44.8135233" lon="8.0730883"><ele>235.0</ele><time>2026-04-19T06:44:29.92Z</time></trkpt><trkpt lat="44.81343" lon="8.0731283"><ele>235.0</ele><time>2026-04-19T06:44:30.92Z</time></trkpt><trkpt lat="44.813325" lon="8.073165"><ele>233.25</ele><time>2026-04-19T06:44:31.92Z</time></trkpt><trkpt lat="44.8132183" lon="8.0731983"><ele>231.5</ele><time>2026-04-19T06:44:32.92Z</time></trkpt><trkpt lat="44.8131067" lon="8.0732367"><ele>229.75</ele><time>2026-04-19T06:44:33.921Z</time></trkpt><trkpt lat="44.812995" lon="8.0732817"><ele>228.0</ele><time>2026-04-19T06:44:34.92Z</time></trkpt><trkpt lat="44.8128883" lon="8.07334"><ele>228.0</ele><time>2026-04-19T06:44:35.92Z</time></trkpt><trkpt lat="44.8127883" lon="8.07341"><ele>228.0</ele><time>2026-04-19T06:44:36.92Z</time></trkpt><trkpt lat="44.8126933" lon="8.0734717"><ele>228.0</ele><time>2026-04-19T06:44:37.921Z</time></trkpt><trkpt lat="44.8126017" lon="8.0735233"><ele>228.0</ele><time>2026-04-19T06:44:38.92Z</time></trkpt><trkpt lat="44.81251" lon="8.0735617"><ele>228.0</ele><time>2026-04-19T06:44:39.921Z</time></trkpt><trkpt lat="44.8124317" lon="8.07358"><ele>228.0</ele><time>2026-04-19T06:44:40.92Z</time></trkpt><trkpt lat="44.8123683" lon="8.0735867"><ele>228.0</ele><time>2026-04-19T06:44:41.92Z</time></trkpt><trkpt lat="44.8122717" lon="8.0735517"><ele>228.0</ele><time>2026-04-19T06:44:43.92Z</time></trkpt><trkpt lat="44.8121483" lon="8.07354"><ele>228.0</ele><time>2026-04-19T06:44:45.921Z</time></trkpt><trkpt lat="44.8120633" lon="8.073535"><ele>228.0</ele><time>2026-04-19T06:44:46.921Z</time></trkpt><trkpt lat="44.8119633" lon="8.07353"><ele>228.0</ele><time>2026-04-19T06:44:47.92Z</time></trkpt><trkpt lat="44.811855" lon="8.0735317"><ele>228.0</ele><time>2026-04-19T06:44:48.92Z</time></trkpt><trkpt lat="44.8117517" lon="8.0735317"><ele>228.0</ele><time>2026-04-19T06:44:49.92Z</time></trkpt><trkpt lat="44.8116533" lon="8.0735433"><ele>228.0</ele><time>2026-04-19T06:44:50.92Z</time></trkpt><trkpt lat="44.811559" lon="8.0735533"><ele>228.0</ele><time>2026-04-19T06:44:51.92Z</time></trkpt><trkpt lat="44.8114706" lon="8.0735708"><ele>229.0</ele><time>2026-04-19T06:44:52.92Z</time></trkpt><trkpt lat="44.8113792" lon="8.0736013"><ele>230.0</ele><time>2026-04-19T06:44:53.92Z</time></trkpt><trkpt lat="44.8112822" lon="8.0736457"><ele>231.0</ele><time>2026-04-19T06:44:54.921Z</time></trkpt><trkpt lat="44.8111823" lon="8.0737032"><ele>232.0</ele><time>2026-04-19T06:44:55.921Z</time></trkpt><trkpt lat="44.8110852" lon="8.0737559"><ele>233.0</ele><time>2026-04-19T06:44:56.92Z</time></trkpt><trkpt lat="44.8109984" lon="8.0737992"><ele>234.16666666666669</ele><time>2026-04-19T06:44:57.921Z</time></trkpt><trkpt lat="44.8109138" lon="8.0738367"><ele>235.33333333333334</ele><time>2026-04-19T06:44:58.92Z</time></trkpt><trkpt lat="44.8108315" lon="8.073872"><ele>236.5</ele><time>2026-04-19T06:44:59.921Z</time></trkpt><trkpt lat="44.8107455" lon="8.073902"><ele>237.66666666666669</ele><time>2026-04-19T06:45:00.921Z</time></trkpt><trkpt lat="44.8106578" lon="8.0739312"><ele>238.83333333333334</ele><time>2026-04-19T06:45:01.92Z</time></trkpt><trkpt lat="44.8105671" lon="8.073962"><ele>240.0</ele><time>2026-04-19T06:45:02.92Z</time></trkpt><trkpt lat="44.8104731" lon="8.0739913"><ele>240.0</ele><time>2026-04-19T06:45:03.92Z</time></trkpt><trkpt lat="44.810378" lon="8.0740222"><ele>240.0</ele><time>2026-04-19T06:45:04.921Z</time></trkpt><trkpt lat="44.8102849" lon="8.0740453"><ele>240.0</ele><time>2026-04-19T06:45:05.92Z</time></trkpt><trkpt lat="44.8101983" lon="8.0740567"><ele>240.0</ele><time>2026-04-19T06:45:06.92Z</time></trkpt><trkpt lat="44.8101131" lon="8.0740633"><ele>240.0</ele><time>2026-04-19T06:45:07.921Z</time></trkpt><trkpt lat="44.8100208" lon="8.0740623"><ele>240.6</ele><time>2026-04-19T06:45:08.92Z</time></trkpt><trkpt lat="44.8099199" lon="8.0740452"><ele>241.2</ele><time>2026-04-19T06:45:09.921Z</time></trkpt><trkpt lat="44.809815" lon="8.0740136"><ele>241.8</ele><time>2026-04-19T06:45:10.92Z</time></trkpt><trkpt lat="44.80971" lon="8.0739862"><ele>242.4</ele><time>2026-04-19T06:45:11.921Z</time></trkpt><trkpt lat="44.8096062" lon="8.0739658"><ele>243.0</ele><time>2026-04-19T06:45:12.92Z</time></trkpt><trkpt lat="44.8095133" lon="8.0739637"><ele>243.0</ele><time>2026-04-19T06:45:13.921Z</time></trkpt><trkpt lat="44.8094356" lon="8.0739856"><ele>243.0</ele><time>2026-04-19T06:45:14.92Z</time></trkpt><trkpt lat="44.809366" lon="8.0740272"><ele>243.0</ele><time>2026-04-19T06:45:15.921Z</time></trkpt><trkpt lat="44.8092985" lon="8.0740943"><ele>243.0</ele><time>2026-04-19T06:45:16.921Z</time></trkpt><trkpt lat="44.8092325" lon="8.0741725"><ele>243.0</ele><time>2026-04-19T06:45:17.92Z</time></trkpt><trkpt lat="44.8091649" lon="8.0742542"><ele>243.0</ele><time>2026-04-19T06:45:18.921Z</time></trkpt><trkpt lat="44.8090927" lon="8.0743438"><ele>243.0</ele><time>2026-04-19T06:45:19.92Z</time></trkpt><trkpt lat="44.8090195" lon="8.0744409"><ele>243.0</ele><time>2026-04-19T06:45:20.92Z</time></trkpt><trkpt lat="44.8089518" lon="8.0745326"><ele>243.0</ele><time>2026-04-19T06:45:21.921Z</time></trkpt><trkpt lat="44.8088938" lon="8.0746309"><ele>243.0</ele><time>2026-04-19T06:45:22.921Z</time></trkpt><trkpt lat="44.8088389" lon="8.0747412"><ele>243.0</ele><time>2026-04-19T06:45:23.92Z</time></trkpt><trkpt lat="44.8087855" lon="8.0748599"><ele>244.0</ele><time>2026-04-19T06:45:24.921Z</time></trkpt><trkpt lat="44.8087321" lon="8.074993"><ele>245.0</ele><time>2026-04-19T06:45:25.92Z</time></trkpt><trkpt lat="44.8086828" lon="8.0751207"><ele>246.0</ele><time>2026-04-19T06:45:26.92Z</time></trkpt><trkpt lat="44.8086363" lon="8.0752377"><ele>247.0</ele><time>2026-04-19T06:45:27.92Z</time></trkpt><trkpt lat="44.808581" lon="8.0753498"><ele>248.0</ele><time>2026-04-19T06:45:28.921Z</time></trkpt><trkpt lat="44.8085163" lon="8.0754631"><ele>248.0</ele><time>2026-04-19T06:45:29.92Z</time></trkpt><trkpt lat="44.8084362" lon="8.0755845"><ele>248.0</ele><time>2026-04-19T06:45:30.921Z</time></trkpt><trkpt lat="44.8083612" lon="8.0757024"><ele>248.0</ele><time>2026-04-19T06:45:31.92Z</time></trkpt><trkpt lat="44.8083007" lon="8.0758315"><ele>248.0</ele><time>2026-04-19T06:45:32.92Z</time></trkpt><trkpt lat="44.8082457" lon="8.0759768"><ele>248.0</ele><time>2026-04-19T06:45:33.921Z</time></trkpt><trkpt lat="44.8081916" lon="8.0761254"><ele>248.0</ele><time>2026-04-19T06:45:34.92Z</time></trkpt><trkpt lat="44.8081395" lon="8.0762718"><ele>248.0</ele><time>2026-04-19T06:45:35.92Z</time></trkpt><trkpt lat="44.8080873" lon="8.0764231"><ele>248.0</ele><time>2026-04-19T06:45:36.921Z</time></trkpt><trkpt lat="44.8080351" lon="8.0765743"><ele>248.0</ele><time>2026-04-19T06:45:37.92Z</time></trkpt><trkpt lat="44.807976" lon="8.0767179"><ele>248.0</ele><time>2026-04-19T06:45:38.921Z</time></trkpt><trkpt lat="44.8079154" lon="8.0768531"><ele>248.0</ele><time>2026-04-19T06:45:39.92Z</time></trkpt><trkpt lat="44.8078502" lon="8.076996"><ele>248.0</ele><time>2026-04-19T06:45:40.921Z</time></trkpt><trkpt lat="44.8077856" lon="8.0771455"><ele>248.0</ele><time>2026-04-19T06:45:41.92Z</time></trkpt><trkpt lat="44.8077197" lon="8.077291"><ele>248.0</ele><time>2026-04-19T06:45:42.921Z</time></trkpt><trkpt lat="44.8076598" lon="8.0774371"><ele>248.0</ele><time>2026-04-19T06:45:43.921Z</time></trkpt><trkpt lat="44.8076038" lon="8.0775821"><ele>248.0</ele><time>2026-04-19T06:45:44.92Z</time></trkpt><trkpt lat="44.8075528" lon="8.0777237"><ele>249.60000000000002</ele><time>2026-04-19T06:45:45.921Z</time></trkpt><trkpt lat="44.8075088" lon="8.0778682"><ele>251.20000000000002</ele><time>2026-04-19T06:45:46.921Z</time></trkpt><trkpt lat="44.8074714" lon="8.0780061"><ele>252.8</ele><time>2026-04-19T06:45:47.92Z</time></trkpt><trkpt lat="44.8074315" lon="8.0781363"><ele>254.4</ele><time>2026-04-19T06:45:48.92Z</time></trkpt><trkpt lat="44.8074004" lon="8.0782486"><ele>256.0</ele><time>2026-04-19T06:45:49.92Z</time></trkpt><trkpt lat="44.8073741" lon="8.0783515"><ele>256.2</ele><time>2026-04-19T06:45:50.92Z</time></trkpt><trkpt lat="44.8073526" lon="8.0784439"><ele>256.40000000000003</ele><time>2026-04-19T06:45:51.921Z</time></trkpt><trkpt lat="44.8073364" lon="8.0785319"><ele>256.6</ele><time>2026-04-19T06:45:52.92Z</time></trkpt><trkpt lat="44.8073236" lon="8.0786741"><ele>256.8</ele><time>2026-04-19T06:45:54.92Z</time></trkpt><trkpt lat="44.8073761" lon="8.0787329"><ele>257.0</ele><time>2026-04-19T06:45:56.92Z</time></trkpt><trkpt lat="44.8075251" lon="8.078711"><ele>257.0</ele><time>2026-04-19T06:45:58.921Z</time></trkpt><trkpt lat="44.8076263" lon="8.0787008"><ele>257.0</ele><time>2026-04-19T06:45:59.92Z</time></trkpt><trkpt lat="44.8077382" lon="8.0786982"><ele>257.0</ele><time>2026-04-19T06:46:00.921Z</time></trkpt><trkpt lat="44.8078513" lon="8.0786974"><ele>257.0</ele><time>2026-04-19T06:46:01.92Z</time></trkpt><trkpt lat="44.8079577" lon="8.0786967"><ele>257.0</ele><time>2026-04-19T06:46:02.92Z</time></trkpt><trkpt lat="44.8080598" lon="8.0786912"><ele>255.2</ele><time>2026-04-19T06:46:03.921Z</time></trkpt><trkpt lat="44.8081553" lon="8.0786831"><ele>253.39999999999998</ele><time>2026-04-19T06:46:04.921Z</time></trkpt><trkpt lat="44.8082515" lon="8.0786754"><ele>251.60000000000002</ele><time>2026-04-19T06:46:05.92Z</time></trkpt><trkpt lat="44.8083454" lon="8.0786698"><ele>249.8</ele><time>2026-04-19T06:46:06.92Z</time></trkpt><trkpt lat="44.8084413" lon="8.0786625"><ele>248.0</ele><time>2026-04-19T06:46:07.92Z</time></trkpt><trkpt lat="44.8085415" lon="8.0786687"><ele>248.0</ele><time>2026-04-19T06:46:08.921Z</time></trkpt><trkpt lat="44.8086442" lon="8.078703"><ele>248.0</ele><time>2026-04-19T06:46:09.921Z</time></trkpt><trkpt lat="44.8087435" lon="8.0787627"><ele>248.0</ele><time>2026-04-19T06:46:10.92Z</time></trkpt><trkpt lat="44.8088335" lon="8.0788317"><ele>248.0</ele><time>2026-04-19T06:46:11.921Z</time></trkpt><trkpt lat="44.8089057" lon="8.0789099"><ele>248.0</ele><time>2026-04-19T06:46:12.92Z</time></trkpt><trkpt lat="44.8089736" lon="8.0789886"><ele>248.0</ele><time>2026-04-19T06:46:13.921Z</time></trkpt><trkpt lat="44.8090405" lon="8.0790662"><ele>248.0</ele><time>2026-04-19T06:46:14.921Z</time></trkpt><trkpt lat="44.8091112" lon="8.0791487"><ele>248.0</ele><time>2026-04-19T06:46:15.92Z</time></trkpt><trkpt lat="44.8091855" lon="8.0792154"><ele>248.0</ele><time>2026-04-19T06:46:16.921Z</time></trkpt><trkpt lat="44.8092623" lon="8.0792713"><ele>248.0</ele><time>2026-04-19T06:46:17.92Z</time></trkpt><trkpt lat="44.8093509" lon="8.0793299"><ele>246.8</ele><time>2026-04-19T06:46:18.92Z</time></trkpt><trkpt lat="44.8094365" lon="8.0793905"><ele>245.60000000000002</ele><time>2026-04-19T06:46:19.921Z</time></trkpt><trkpt lat="44.8095177" lon="8.0794487"><ele>244.39999999999998</ele><time>2026-04-19T06:46:20.921Z</time></trkpt><trkpt lat="44.809595" lon="8.0795"><ele>243.2</ele><time>2026-04-19T06:46:21.921Z</time></trkpt><trkpt lat="44.80968" lon="8.0795533"><ele>242.0</ele><time>2026-04-19T06:46:22.92Z</time></trkpt><trkpt lat="44.8097733" lon="8.07959"><ele>242.0</ele><time>2026-04-19T06:46:23.921Z</time></trkpt><trkpt lat="44.80987" lon="8.079625"><ele>242.0</ele><time>2026-04-19T06:46:24.92Z</time></trkpt><trkpt lat="44.80997" lon="8.0796617"><ele>242.0</ele><time>2026-04-19T06:46:25.92Z</time></trkpt><trkpt lat="44.8100633" lon="8.0797017"><ele>242.0</ele><time>2026-04-19T06:46:26.92Z</time></trkpt><trkpt lat="44.8101517" lon="8.0797567"><ele>242.0</ele><time>2026-04-19T06:46:27.92Z</time></trkpt><trkpt lat="44.8102233" lon="8.07982"><ele>238.39999999999998</ele><time>2026-04-19T06:46:28.921Z</time></trkpt><trkpt lat="44.81031" lon="8.07989"><ele>234.79999999999998</ele><time>2026-04-19T06:46:30.92Z</time></trkpt><trkpt lat="44.81037" lon="8.07978"><ele>231.2</ele><time>2026-04-19T06:46:33.921Z</time></trkpt><trkpt lat="44.81037" lon="8.0796617"><ele>227.6</ele><time>2026-04-19T06:46:34.92Z</time></trkpt><trkpt lat="44.8103717" lon="8.0795183"><ele>224.0</ele><time>2026-04-19T06:46:35.921Z</time></trkpt><trkpt lat="44.8103767" lon="8.07935"><ele>224.0</ele><time>2026-04-19T06:46:36.921Z</time></trkpt><trkpt lat="44.8103867" lon="8.07916"><ele>224.0</ele><time>2026-04-19T06:46:37.921Z</time></trkpt><trkpt lat="44.8104117" lon="8.078985"><ele>224.0</ele><time>2026-04-19T06:46:38.92Z</time></trkpt><trkpt lat="44.8104467" lon="8.078815"><ele>224.0</ele><time>2026-04-19T06:46:39.921Z</time></trkpt><trkpt lat="44.8104917" lon="8.0786683"><ele>224.6</ele><time>2026-04-19T06:46:40.921Z</time></trkpt><trkpt lat="44.8105683" lon="8.0785383"><ele>225.2</ele><time>2026-04-19T06:46:41.92Z</time></trkpt><trkpt lat="44.81065" lon="8.078415"><ele>225.79999999999998</ele><time>2026-04-19T06:46:42.921Z</time></trkpt><trkpt lat="44.8107283" lon="8.0783083"><ele>226.39999999999998</ele><time>2026-04-19T06:46:43.92Z</time></trkpt><trkpt lat="44.8107883" lon="8.0782083"><ele>227.0</ele><time>2026-04-19T06:46:44.92Z</time></trkpt><trkpt lat="44.8108483" lon="8.0781167"><ele>227.00000000000003</ele><time>2026-04-19T06:46:45.92Z</time></trkpt><trkpt lat="44.810905" lon="8.0780317"><ele>227.0</ele><time>2026-04-19T06:46:46.921Z</time></trkpt><trkpt lat="44.81097" lon="8.0779533"><ele>227.0</ele><time>2026-04-19T06:46:47.921Z</time></trkpt><trkpt lat="44.8110383" lon="8.0778933"><ele>227.0</ele><time>2026-04-19T06:46:48.921Z</time></trkpt><trkpt lat="44.8111183" lon="8.0778533"><ele>227.00000000000003</ele><time>2026-04-19T06:46:49.921Z</time></trkpt><trkpt lat="44.8112033" lon="8.07784"><ele>227.0</ele><time>2026-04-19T06:46:50.92Z</time></trkpt><trkpt lat="44.8113067" lon="8.0778233"><ele>226.5</ele><time>2026-04-19T06:46:51.921Z</time></trkpt><trkpt lat="44.8114067" lon="8.07781"><ele>226.0</ele><time>2026-04-19T06:46:52.92Z</time></trkpt><trkpt lat="44.81152" lon="8.0777967"><ele>225.5</ele><time>2026-04-19T06:46:53.92Z</time></trkpt><trkpt lat="44.81164" lon="8.0778017"><ele>225.0</ele><time>2026-04-19T06:46:54.92Z</time></trkpt><trkpt lat="44.8117733" lon="8.077815"><ele>224.0</ele><time>2026-04-19T06:46:55.921Z</time></trkpt><trkpt lat="44.8119083" lon="8.0778383"><ele>223.0</ele><time>2026-04-19T06:46:56.92Z</time></trkpt><trkpt lat="44.8120433" lon="8.0778683"><ele>222.0</ele><time>2026-04-19T06:46:57.921Z</time></trkpt><trkpt lat="44.8121667" lon="8.0779033"><ele>221.0</ele><time>2026-04-19T06:46:58.92Z</time></trkpt><trkpt lat="44.8122917" lon="8.0779317"><ele>221.0</ele><time>2026-04-19T06:46:59.92Z</time></trkpt><trkpt lat="44.812415" lon="8.0779617"><ele>221.0</ele><time>2026-04-19T06:47:00.92Z</time></trkpt><trkpt lat="44.8125283" lon="8.07798"><ele>221.0</ele><time>2026-04-19T06:47:01.92Z</time></trkpt><trkpt lat="44.812645" lon="8.077985"><ele>221.0</ele><time>2026-04-19T06:47:02.921Z</time></trkpt><trkpt lat="44.8127667" lon="8.0779983"><ele>221.0</ele><time>2026-04-19T06:47:03.92Z</time></trkpt><trkpt lat="44.8128983" lon="8.0780233"><ele>221.0</ele><time>2026-04-19T06:47:04.92Z</time></trkpt><trkpt lat="44.813035" lon="8.0780567"><ele>221.0</ele><time>2026-04-19T06:47:05.92Z</time></trkpt><trkpt lat="44.8131717" lon="8.0780917"><ele>221.0</ele><time>2026-04-19T06:47:06.92Z</time></trkpt><trkpt lat="44.8133033" lon="8.0781217"><ele>221.0</ele><time>2026-04-19T06:47:07.92Z</time></trkpt><trkpt lat="44.8134367" lon="8.0781383"><ele>221.0</ele><time>2026-04-19T06:47:08.92Z</time></trkpt><trkpt lat="44.8135683" lon="8.078155"><ele>221.0</ele><time>2026-04-19T06:47:09.92Z</time></trkpt><trkpt lat="44.8136967" lon="8.078175"><ele>221.0</ele><time>2026-04-19T06:47:10.92Z</time></trkpt><trkpt lat="44.8138183" lon="8.0781933"><ele>220.75</ele><time>2026-04-19T06:47:11.92Z</time></trkpt><trkpt lat="44.8139417" lon="8.0782167"><ele>220.5</ele><time>2026-04-19T06:47:12.921Z</time></trkpt><trkpt lat="44.8140633" lon="8.0782483"><ele>220.25</ele><time>2026-04-19T06:47:13.92Z</time></trkpt><trkpt lat="44.8141817" lon="8.078305"><ele>220.0</ele><time>2026-04-19T06:47:14.921Z</time></trkpt><trkpt lat="44.8143033" lon="8.078375"><ele>224.75</ele><time>2026-04-19T06:47:15.92Z</time></trkpt><trkpt lat="44.8144183" lon="8.0784617"><ele>229.5</ele><time>2026-04-19T06:47:16.92Z</time></trkpt><trkpt lat="44.8145233" lon="8.0785633"><ele>234.25</ele><time>2026-04-19T06:47:17.921Z</time></trkpt><trkpt lat="44.81462" lon="8.07867"><ele>239.0</ele><time>2026-04-19T06:47:18.92Z</time></trkpt><trkpt lat="44.8147033" lon="8.0787583"><ele>239.00000000000003</ele><time>2026-04-19T06:47:19.92Z</time></trkpt><trkpt lat="44.814775" lon="8.07884"><ele>239.0</ele><time>2026-04-19T06:47:20.92Z</time></trkpt><trkpt lat="44.8148383" lon="8.0789117"><ele>239.0</ele><time>2026-04-19T06:47:21.921Z</time></trkpt><trkpt lat="44.814905" lon="8.0789817"><ele>239.0</ele><time>2026-04-19T06:47:22.921Z</time></trkpt><trkpt lat="44.8149733" lon="8.0790467"><ele>239.00000000000003</ele><time>2026-04-19T06:47:23.92Z</time></trkpt><trkpt lat="44.8150483" lon="8.0791117"><ele>239.0</ele><time>2026-04-19T06:47:24.921Z</time></trkpt><trkpt lat="44.8151183" lon="8.0791683"><ele>237.0</ele><time>2026-04-19T06:47:25.92Z</time></trkpt><trkpt lat="44.8151917" lon="8.0792233"><ele>234.99999999999997</ele><time>2026-04-19T06:47:26.92Z</time></trkpt><trkpt lat="44.8152733" lon="8.0792667"><ele>232.99999999999997</ele><time>2026-04-19T06:47:27.92Z</time></trkpt><trkpt lat="44.8153667" lon="8.0793117"><ele>231.0</ele><time>2026-04-19T06:47:28.921Z</time></trkpt><trkpt lat="44.815455" lon="8.07936"><ele>229.0</ele><time>2026-04-19T06:47:29.921Z</time></trkpt><trkpt lat="44.8155467" lon="8.0794067"><ele>229.0</ele><time>2026-04-19T06:47:30.92Z</time></trkpt><trkpt lat="44.8156317" lon="8.0794617"><ele>228.99999999999997</ele><time>2026-04-19T06:47:31.92Z</time></trkpt><trkpt lat="44.81571" lon="8.0795583"><ele>228.99999999999997</ele><time>2026-04-19T06:47:32.92Z</time></trkpt><trkpt lat="44.815785" lon="8.079665"><ele>229.0</ele><time>2026-04-19T06:47:33.921Z</time></trkpt><trkpt lat="44.815855" lon="8.079795"><ele>229.0</ele><time>2026-04-19T06:47:34.921Z</time></trkpt><trkpt lat="44.8159267" lon="8.079925"><ele>227.5</ele><time>2026-04-19T06:47:35.92Z</time></trkpt><trkpt lat="44.81601" lon="8.080055"><ele>226.0</ele><time>2026-04-19T06:47:36.921Z</time></trkpt><trkpt lat="44.8161033" lon="8.08019"><ele>224.5</ele><time>2026-04-19T06:47:37.92Z</time></trkpt><trkpt lat="44.8162117" lon="8.0803117"><ele>223.0</ele><time>2026-04-19T06:47:38.921Z</time></trkpt><trkpt lat="44.8163317" lon="8.0804117"><ele>223.0</ele><time>2026-04-19T06:47:39.92Z</time></trkpt><trkpt lat="44.8164517" lon="8.08048"><ele>223.0</ele><time>2026-04-19T06:47:40.92Z</time></trkpt><trkpt lat="44.8165717" lon="8.0805183"><ele>223.0</ele><time>2026-04-19T06:47:41.92Z</time></trkpt><trkpt lat="44.8166833" lon="8.0805383"><ele>223.0</ele><time>2026-04-19T06:47:42.92Z</time></trkpt><trkpt lat="44.8167883" lon="8.0805533"><ele>221.2</ele><time>2026-04-19T06:47:43.921Z</time></trkpt><trkpt lat="44.8168883" lon="8.080575"><ele>219.4</ele><time>2026-04-19T06:47:44.921Z</time></trkpt><trkpt lat="44.8169867" lon="8.0805867"><ele>217.59999999999997</ele><time>2026-04-19T06:47:45.921Z</time></trkpt><trkpt lat="44.8170767" lon="8.0806067"><ele>215.79999999999998</ele><time>2026-04-19T06:47:46.92Z</time></trkpt><trkpt lat="44.817165" lon="8.0806133"><ele>214.0</ele><time>2026-04-19T06:47:47.921Z</time></trkpt><trkpt lat="44.8172567" lon="8.0806083"><ele>214.0</ele><time>2026-04-19T06:47:48.921Z</time></trkpt><trkpt lat="44.8173267" lon="8.0806317"><ele>213.99999999999997</ele><time>2026-04-19T06:47:49.921Z</time></trkpt><trkpt lat="44.8173933" lon="8.0806517"><ele>213.99999999999997</ele><time>2026-04-19T06:47:50.92Z</time></trkpt><trkpt lat="44.8174817" lon="8.0806967"><ele>214.0</ele><time>2026-04-19T06:47:51.92Z</time></trkpt><trkpt lat="44.8175867" lon="8.08074"><ele>214.0</ele><time>2026-04-19T06:47:52.92Z</time></trkpt><trkpt lat="44.817705" lon="8.0807567"><ele>215.5</ele><time>2026-04-19T06:47:53.921Z</time></trkpt><trkpt lat="44.817825" lon="8.0807467"><ele>217.0</ele><time>2026-04-19T06:47:54.92Z</time></trkpt><trkpt lat="44.817945" lon="8.0807233"><ele>218.5</ele><time>2026-04-19T06:47:55.92Z</time></trkpt><trkpt lat="44.818065" lon="8.0806883"><ele>220.0</ele><time>2026-04-19T06:47:56.92Z</time></trkpt><trkpt lat="44.818195" lon="8.0806383"><ele>220.0</ele><time>2026-04-19T06:47:57.92Z</time></trkpt><trkpt lat="44.818315" lon="8.08058"><ele>220.0</ele><time>2026-04-19T06:47:58.92Z</time></trkpt><trkpt lat="44.818435" lon="8.0805083"><ele>220.0</ele><time>2026-04-19T06:47:59.92Z</time></trkpt><trkpt lat="44.8185467" lon="8.0803933"><ele>220.0</ele><time>2026-04-19T06:48:00.92Z</time></trkpt><trkpt lat="44.8186483" lon="8.080275"><ele>220.75</ele><time>2026-04-19T06:48:01.921Z</time></trkpt><trkpt lat="44.8187433" lon="8.0801633"><ele>221.5</ele><time>2026-04-19T06:48:02.92Z</time></trkpt><trkpt lat="44.818845" lon="8.0800583"><ele>222.25</ele><time>2026-04-19T06:48:03.921Z</time></trkpt><trkpt lat="44.8189483" lon="8.0799617"><ele>223.0</ele><time>2026-04-19T06:48:04.921Z</time></trkpt><trkpt lat="44.81905" lon="8.0798717"><ele>222.99999999999997</ele><time>2026-04-19T06:48:05.92Z</time></trkpt><trkpt lat="44.8191417" lon="8.0798017"><ele>223.0</ele><time>2026-04-19T06:48:06.921Z</time></trkpt><trkpt lat="44.8192183" lon="8.079745"><ele>223.0</ele><time>2026-04-19T06:48:07.92Z</time></trkpt><trkpt lat="44.8192933" lon="8.0797033"><ele>223.0</ele><time>2026-04-19T06:48:08.92Z</time></trkpt><trkpt lat="44.8193767" lon="8.0796917"><ele>222.99999999999997</ele><time>2026-04-19T06:48:09.92Z</time></trkpt><trkpt lat="44.819465" lon="8.0797133"><ele>223.0</ele><time>2026-04-19T06:48:10.92Z</time></trkpt><trkpt lat="44.8195583" lon="8.079715"><ele>224.60000000000002</ele><time>2026-04-19T06:48:11.92Z</time></trkpt><trkpt lat="44.8196533" lon="8.079675"><ele>226.20000000000002</ele><time>2026-04-19T06:48:12.92Z</time></trkpt><trkpt lat="44.8197517" lon="8.0796067"><ele>227.8</ele><time>2026-04-19T06:48:13.921Z</time></trkpt><trkpt lat="44.8198417" lon="8.0795383"><ele>229.4</ele><time>2026-04-19T06:48:14.92Z</time></trkpt><trkpt lat="44.81992" lon="8.0794683"><ele>231.0</ele><time>2026-04-19T06:48:15.921Z</time></trkpt><trkpt lat="44.819995" lon="8.0794167"><ele>231.0</ele><time>2026-04-19T06:48:16.92Z</time></trkpt><trkpt lat="44.8200617" lon="8.0793633"><ele>231.0</ele><time>2026-04-19T06:48:17.921Z</time></trkpt><trkpt lat="44.820125" lon="8.079315"><ele>231.0</ele><time>2026-04-19T06:48:18.92Z</time></trkpt><trkpt lat="44.8201883" lon="8.07927"><ele>231.0</ele><time>2026-04-19T06:48:19.92Z</time></trkpt><trkpt lat="44.820265" lon="8.079235"><ele>231.0</ele><time>2026-04-19T06:48:20.92Z</time></trkpt><trkpt lat="44.8203517" lon="8.0792083"><ele>231.0</ele><time>2026-04-19T06:48:21.92Z</time></trkpt><trkpt lat="44.8204483" lon="8.079195"><ele>229.5</ele><time>2026-04-19T06:48:22.92Z</time></trkpt><trkpt lat="44.8205483" lon="8.0792033"><ele>228.0</ele><time>2026-04-19T06:48:23.92Z</time></trkpt><trkpt lat="44.8206533" lon="8.0792317"><ele>226.5</ele><time>2026-04-19T06:48:24.921Z</time></trkpt><trkpt lat="44.8207733" lon="8.079275"><ele>225.0</ele><time>2026-04-19T06:48:25.92Z</time></trkpt><trkpt lat="44.8208967" lon="8.0793233"><ele>224.25</ele><time>2026-04-19T06:48:26.92Z</time></trkpt><trkpt lat="44.8210283" lon="8.0793533"><ele>223.5</ele><time>2026-04-19T06:48:27.92Z</time></trkpt><trkpt lat="44.82116" lon="8.0793767"><ele>222.75</ele><time>2026-04-19T06:48:28.92Z</time></trkpt><trkpt lat="44.8212933" lon="8.07939"><ele>222.0</ele><time>2026-04-19T06:48:29.921Z</time></trkpt><trkpt lat="44.821425" lon="8.0793833"><ele>222.0</ele><time>2026-04-19T06:48:30.92Z</time></trkpt><trkpt lat="44.8215483" lon="8.079375"><ele>222.0</ele><time>2026-04-19T06:48:31.92Z</time></trkpt><trkpt lat="44.8216683" lon="8.0793617"><ele>222.0</ele><time>2026-04-19T06:48:32.921Z</time></trkpt><trkpt lat="44.8217933" lon="8.0793483"><ele>222.0</ele><time>2026-04-19T06:48:33.92Z</time></trkpt><trkpt lat="44.8219133" lon="8.0793283"><ele>222.25</ele><time>2026-04-19T06:48:34.921Z</time></trkpt><trkpt lat="44.8220283" lon="8.0792883"><ele>222.5</ele><time>2026-04-19T06:48:35.921Z</time></trkpt><trkpt lat="44.8221333" lon="8.0792433"><ele>222.75</ele><time>2026-04-19T06:48:36.92Z</time></trkpt><trkpt lat="44.8222383" lon="8.0791783"><ele>223.0</ele><time>2026-04-19T06:48:37.921Z</time></trkpt><trkpt lat="44.8223567" lon="8.079105"><ele>223.0</ele><time>2026-04-19T06:48:38.92Z</time></trkpt><trkpt lat="44.8224633" lon="8.0790383"><ele>223.0</ele><time>2026-04-19T06:48:39.921Z</time></trkpt><trkpt lat="44.82256" lon="8.0789833"><ele>223.0</ele><time>2026-04-19T06:48:40.92Z</time></trkpt><trkpt lat="44.8226651" lon="8.0789333"><ele>223.0</ele><time>2026-04-19T06:48:41.92Z</time></trkpt><trkpt lat="44.8227658" lon="8.0788883"><ele>223.0</ele><time>2026-04-19T06:48:42.92Z</time></trkpt><trkpt lat="44.8228605" lon="8.0788465"><ele>223.0</ele><time>2026-04-19T06:48:43.921Z</time></trkpt><trkpt lat="44.8229642" lon="8.0788078"><ele>223.0</ele><time>2026-04-19T06:48:44.921Z</time></trkpt><trkpt lat="44.8230714" lon="8.0787755"><ele>223.0</ele><time>2026-04-19T06:48:45.92Z</time></trkpt><trkpt lat="44.8231792" lon="8.0787485"><ele>223.0</ele><time>2026-04-19T06:48:46.921Z</time></trkpt><trkpt lat="44.823288" lon="8.0787323"><ele>223.0</ele><time>2026-04-19T06:48:47.921Z</time></trkpt><trkpt lat="44.8233982" lon="8.0787084"><ele>222.16666666666666</ele><time>2026-04-19T06:48:48.92Z</time></trkpt><trkpt lat="44.8235063" lon="8.0786791"><ele>221.33333333333331</ele><time>2026-04-19T06:48:49.92Z</time></trkpt><trkpt lat="44.8235973" lon="8.0786404"><ele>220.5</ele><time>2026-04-19T06:48:50.92Z</time></trkpt><trkpt lat="44.8236755" lon="8.0785932"><ele>219.66666666666669</ele><time>2026-04-19T06:48:51.92Z</time></trkpt><trkpt lat="44.8237428" lon="8.0785375"><ele>218.83333333333334</ele><time>2026-04-19T06:48:52.92Z</time></trkpt><trkpt lat="44.8238013" lon="8.078465"><ele>218.0</ele><time>2026-04-19T06:48:53.92Z</time></trkpt><trkpt lat="44.8238489" lon="8.0783755"><ele>218.00000000000003</ele><time>2026-04-19T06:48:54.92Z</time></trkpt><trkpt lat="44.8238827" lon="8.0782767"><ele>218.0</ele><time>2026-04-19T06:48:55.92Z</time></trkpt><trkpt lat="44.8239" lon="8.0781683"><ele>218.0</ele><time>2026-04-19T06:48:56.921Z</time></trkpt><trkpt lat="44.82391" lon="8.0780481"><ele>218.0</ele><time>2026-04-19T06:48:57.922Z</time></trkpt><trkpt lat="44.8239161" lon="8.0779308"><ele>218.00000000000003</ele><time>2026-04-19T06:48:58.921Z</time></trkpt><trkpt lat="44.8239287" lon="8.0778221"><ele>218.0</ele><time>2026-04-19T06:48:59.921Z</time></trkpt><trkpt lat="44.823942" lon="8.0777259"><ele>216.8</ele><time>2026-04-19T06:49:00.921Z</time></trkpt><trkpt lat="44.823997" lon="8.0776161"><ele>215.60000000000002</ele><time>2026-04-19T06:49:02.921Z</time></trkpt><trkpt lat="44.8241263" lon="8.0776661"><ele>214.39999999999998</ele><time>2026-04-19T06:49:04.921Z</time></trkpt><trkpt lat="44.8242218" lon="8.0777275"><ele>213.2</ele><time>2026-04-19T06:49:05.921Z</time></trkpt><trkpt lat="44.8243259" lon="8.0777828"><ele>212.0</ele><time>2026-04-19T06:49:06.921Z</time></trkpt><trkpt lat="44.8244315" lon="8.0778231"><ele>209.83333333333334</ele><time>2026-04-19T06:49:07.922Z</time></trkpt><trkpt lat="44.824527" lon="8.0778581"><ele>207.66666666666669</ele><time>2026-04-19T06:49:08.921Z</time></trkpt><trkpt lat="44.8246128" lon="8.0778844"><ele>205.5</ele><time>2026-04-19T06:49:09.922Z</time></trkpt><trkpt lat="44.824698" lon="8.0778994"><ele>203.33333333333331</ele><time>2026-04-19T06:49:10.922Z</time></trkpt><trkpt lat="44.8247772" lon="8.0778989"><ele>201.16666666666666</ele><time>2026-04-19T06:49:11.921Z</time></trkpt><trkpt lat="44.8248444" lon="8.0778796"><ele>199.0</ele><time>2026-04-19T06:49:12.922Z</time></trkpt><trkpt lat="44.8249075" lon="8.077836"><ele>199.0</ele><time>2026-04-19T06:49:13.921Z</time></trkpt><trkpt lat="44.8249739" lon="8.0777745"><ele>199.0</ele><time>2026-04-19T06:49:14.921Z</time></trkpt><trkpt lat="44.8250447" lon="8.0776971"><ele>199.0</ele><time>2026-04-19T06:49:15.921Z</time></trkpt><trkpt lat="44.8251202" lon="8.0776042"><ele>199.0</ele><time>2026-04-19T06:49:16.922Z</time></trkpt><trkpt lat="44.8252038" lon="8.0775034"><ele>199.0</ele><time>2026-04-19T06:49:17.922Z</time></trkpt><trkpt lat="44.8252958" lon="8.0774099"><ele>195.39999999999998</ele><time>2026-04-19T06:49:18.921Z</time></trkpt><trkpt lat="44.8253895" lon="8.0773279"><ele>191.8</ele><time>2026-04-19T06:49:19.922Z</time></trkpt><trkpt lat="44.825478" lon="8.0772639"><ele>188.2</ele><time>2026-04-19T06:49:20.922Z</time></trkpt><trkpt lat="44.8255643" lon="8.0772138"><ele>184.60000000000002</ele><time>2026-04-19T06:49:21.921Z</time></trkpt><trkpt lat="44.8256541" lon="8.0771803"><ele>181.0</ele><time>2026-04-19T06:49:22.921Z</time></trkpt><trkpt lat="44.82575" lon="8.0771535"><ele>181.0</ele><time>2026-04-19T06:49:23.922Z</time></trkpt><trkpt lat="44.825852" lon="8.0771298"><ele>181.0</ele><time>2026-04-19T06:49:24.921Z</time></trkpt><trkpt lat="44.825964" lon="8.077109"><ele>181.0</ele><time>2026-04-19T06:49:25.921Z</time></trkpt><trkpt lat="44.8260769" lon="8.077086"><ele>181.0</ele><time>2026-04-19T06:49:26.922Z</time></trkpt><trkpt lat="44.826193" lon="8.0770646"><ele>181.0</ele><time>2026-04-19T06:49:27.921Z</time></trkpt><trkpt lat="44.8263095" lon="8.0770471"><ele>178.0</ele><time>2026-04-19T06:49:28.921Z</time></trkpt><trkpt lat="44.8264278" lon="8.0770289"><ele>175.0</ele><time>2026-04-19T06:49:29.921Z</time></trkpt><trkpt lat="44.8265383" lon="8.0770017"><ele>172.0</ele><time>2026-04-19T06:49:30.922Z</time></trkpt><trkpt lat="44.826655" lon="8.07698"><ele>169.0</ele><time>2026-04-19T06:49:31.922Z</time></trkpt><trkpt lat="44.8267733" lon="8.0769733"><ele>168.0</ele><time>2026-04-19T06:49:32.921Z</time></trkpt><trkpt lat="44.8268967" lon="8.0769717"><ele>167.0</ele><time>2026-04-19T06:49:33.921Z</time></trkpt><trkpt lat="44.8270183" lon="8.0769767"><ele>166.0</ele><time>2026-04-19T06:49:34.922Z</time></trkpt><trkpt lat="44.82714" lon="8.0769633"><ele>165.0</ele><time>2026-04-19T06:49:35.922Z</time></trkpt><trkpt lat="44.827265" lon="8.0769267"><ele>165.0</ele><time>2026-04-19T06:49:36.921Z</time></trkpt><trkpt lat="44.82739" lon="8.0768983"><ele>165.0</ele><time>2026-04-19T06:49:37.922Z</time></trkpt><trkpt lat="44.8274883" lon="8.0768917"><ele>165.0</ele><time>2026-04-19T06:49:38.922Z</time></trkpt><trkpt lat="44.827565" lon="8.0768933"><ele>165.0</ele><time>2026-04-19T06:49:39.921Z</time></trkpt><trkpt lat="44.8276533" lon="8.0768983"><ele>165.0</ele><time>2026-04-19T06:49:41.921Z</time></trkpt><trkpt lat="44.8277367" lon="8.0769817"><ele>164.5</ele><time>2026-04-19T06:49:43.922Z</time></trkpt><trkpt lat="44.8277833" lon="8.0770883"><ele>164.0</ele><time>2026-04-19T06:49:44.921Z</time></trkpt><trkpt lat="44.8278267" lon="8.0771967"><ele>163.5</ele><time>2026-04-19T06:49:45.921Z</time></trkpt><trkpt lat="44.8278683" lon="8.0773067"><ele>163.0</ele><time>2026-04-19T06:49:46.921Z</time></trkpt><trkpt lat="44.8279033" lon="8.0774"><ele>162.5</ele><time>2026-04-19T06:49:47.922Z</time></trkpt><trkpt lat="44.8279517" lon="8.077485"><ele>162.0</ele><time>2026-04-19T06:49:49.922Z</time></trkpt><trkpt lat="44.8280217" lon="8.0774567"><ele>161.0</ele><time>2026-04-19T06:49:51.921Z</time></trkpt><trkpt lat="44.8280767" lon="8.0773917"><ele>160.0</ele><time>2026-04-19T06:49:52.922Z</time></trkpt><trkpt lat="44.8281467" lon="8.07729"><ele>159.0</ele><time>2026-04-19T06:49:53.922Z</time></trkpt><trkpt lat="44.8282383" lon="8.0771683"><ele>158.0</ele><time>2026-04-19T06:49:54.921Z</time></trkpt><trkpt lat="44.8283433" lon="8.0770517"><ele>157.0</ele><time>2026-04-19T06:49:55.921Z</time></trkpt><trkpt lat="44.8284767" lon="8.0769517"><ele>156.25</ele><time>2026-04-19T06:49:56.921Z</time></trkpt><trkpt lat="44.828615" lon="8.07687"><ele>155.5</ele><time>2026-04-19T06:49:57.922Z</time></trkpt><trkpt lat="44.82874" lon="8.0767933"><ele>154.75</ele><time>2026-04-19T06:49:58.921Z</time></trkpt><trkpt lat="44.8288633" lon="8.07672"><ele>154.0</ele><time>2026-04-19T06:49:59.922Z</time></trkpt><trkpt lat="44.8289883" lon="8.0766333"><ele>153.66666666666669</ele><time>2026-04-19T06:50:00.921Z</time></trkpt><trkpt lat="44.829125" lon="8.0765483"><ele>153.33333333333334</ele><time>2026-04-19T06:50:01.921Z</time></trkpt><trkpt lat="44.82927" lon="8.0764683"><ele>153.0</ele><time>2026-04-19T06:50:02.921Z</time></trkpt><trkpt lat="44.8294183" lon="8.0763883"><ele>152.66666666666666</ele><time>2026-04-19T06:50:03.921Z</time></trkpt><trkpt lat="44.8295667" lon="8.0763033"><ele>152.33333333333331</ele><time>2026-04-19T06:50:04.922Z</time></trkpt><trkpt lat="44.8297067" lon="8.0762217"><ele>152.0</ele><time>2026-04-19T06:50:05.922Z</time></trkpt><trkpt lat="44.8298417" lon="8.0761417"><ele>152.0</ele><time>2026-04-19T06:50:06.921Z</time></trkpt><trkpt lat="44.8299733" lon="8.076065"><ele>152.0</ele><time>2026-04-19T06:50:07.921Z</time></trkpt><trkpt lat="44.8301083" lon="8.0759833"><ele>152.0</ele><time>2026-04-19T06:50:08.921Z</time></trkpt><trkpt lat="44.8302467" lon="8.0759"><ele>152.0</ele><time>2026-04-19T06:50:09.922Z</time></trkpt><trkpt lat="44.83038" lon="8.075815"><ele>152.25</ele><time>2026-04-19T06:50:10.922Z</time></trkpt><trkpt lat="44.8305124" lon="8.075731"><ele>152.5</ele><time>2026-04-19T06:50:11.922Z</time></trkpt><trkpt lat="44.8306422" lon="8.0756549"><ele>152.75</ele><time>2026-04-19T06:50:12.922Z</time></trkpt><trkpt lat="44.8307744" lon="8.0755785"><ele>153.0</ele><time>2026-04-19T06:50:13.921Z</time></trkpt><trkpt lat="44.8309118" lon="8.0754993"><ele>153.0</ele><time>2026-04-19T06:50:14.921Z</time></trkpt><trkpt lat="44.8310457" lon="8.0754159"><ele>153.0</ele><time>2026-04-19T06:50:15.921Z</time></trkpt><trkpt lat="44.8311791" lon="8.0753326"><ele>153.0</ele><time>2026-04-19T06:50:16.921Z</time></trkpt><trkpt lat="44.8313066" lon="8.0752557"><ele>153.0</ele><time>2026-04-19T06:50:17.921Z</time></trkpt><trkpt lat="44.8314204" lon="8.0751873"><ele>153.0</ele><time>2026-04-19T06:50:18.921Z</time></trkpt><trkpt lat="44.8315155" lon="8.0751307"><ele>153.0</ele><time>2026-04-19T06:50:19.922Z</time></trkpt><trkpt lat="44.8315979" lon="8.0750807"><ele>153.0</ele><time>2026-04-19T06:50:20.921Z</time></trkpt><trkpt lat="44.8316708" lon="8.0750301"><ele>153.0</ele><time>2026-04-19T06:50:21.922Z</time></trkpt><trkpt lat="44.8317332" lon="8.0749841"><ele>153.0</ele><time>2026-04-19T06:50:22.922Z</time></trkpt><trkpt lat="44.8318084" lon="8.0749547"><ele>153.0</ele><time>2026-04-19T06:50:24.921Z</time></trkpt><trkpt lat="44.831781" lon="8.075054"><ele>153.0</ele><time>2026-04-19T06:50:27.922Z</time></trkpt><trkpt lat="44.8317297" lon="8.0751121"><ele>153.0</ele><time>2026-04-19T06:50:28.921Z</time></trkpt><trkpt lat="44.8316771" lon="8.0751941"><ele>153.0</ele><time>2026-04-19T06:50:29.922Z</time></trkpt><trkpt lat="44.8316378" lon="8.0752941"><ele>153.0</ele><time>2026-04-19T06:50:30.921Z</time></trkpt><trkpt lat="44.8316249" lon="8.0753952"><ele>153.0</ele><time>2026-04-19T06:50:31.922Z</time></trkpt><trkpt lat="44.831634" lon="8.0754888"><ele>153.0</ele><time>2026-04-19T06:50:32.922Z</time></trkpt><trkpt lat="44.8316623" lon="8.0755763"><ele>153.0</ele><time>2026-04-19T06:50:33.921Z</time></trkpt><trkpt lat="44.8317144" lon="8.0756447"><ele>153.0</ele><time>2026-04-19T06:50:34.921Z</time></trkpt><trkpt lat="44.8317902" lon="8.0757082"><ele>153.0</ele><time>2026-04-19T06:50:35.921Z</time></trkpt><trkpt lat="44.8318814" lon="8.0757616"><ele>153.0</ele><time>2026-04-19T06:50:36.921Z</time></trkpt><trkpt lat="44.8319764" lon="8.0758196"><ele>153.0</ele><time>2026-04-19T06:50:37.922Z</time></trkpt><trkpt lat="44.8320636" lon="8.0758913"><ele>153.0</ele><time>2026-04-19T06:50:38.921Z</time></trkpt><trkpt lat="44.8321481" lon="8.0759676"><ele>153.5</ele><time>2026-04-19T06:50:39.922Z</time></trkpt><trkpt lat="44.8322422" lon="8.0760462"><ele>154.0</ele><time>2026-04-19T06:50:40.921Z</time></trkpt><trkpt lat="44.8323393" lon="8.0761346"><ele>154.5</ele><time>2026-04-19T06:50:41.922Z</time></trkpt><trkpt lat="44.8324393" lon="8.0762226"><ele>155.0</ele><time>2026-04-19T06:50:42.921Z</time></trkpt><trkpt lat="44.8325318" lon="8.076312"><ele>155.0</ele><time>2026-04-19T06:50:43.921Z</time></trkpt><trkpt lat="44.8326212" lon="8.0764056"><ele>155.0</ele><time>2026-04-19T06:50:44.921Z</time></trkpt><trkpt lat="44.8327052" lon="8.076508"><ele>155.0</ele><time>2026-04-19T06:50:45.921Z</time></trkpt><trkpt lat="44.8327961" lon="8.0766016"><ele>155.0</ele><time>2026-04-19T06:50:46.921Z</time></trkpt><trkpt lat="44.8328985" lon="8.0766819"><ele>154.4</ele><time>2026-04-19T06:50:47.921Z</time></trkpt><trkpt lat="44.8330062" lon="8.076756"><ele>153.8</ele><time>2026-04-19T06:50:48.921Z</time></trkpt><trkpt lat="44.8331147" lon="8.0768262"><ele>153.2</ele><time>2026-04-19T06:50:49.922Z</time></trkpt><trkpt lat="44.8332149" lon="8.0768888"><ele>152.6</ele><time>2026-04-19T06:50:50.922Z</time></trkpt><trkpt lat="44.833305" lon="8.0769488"><ele>152.0</ele><time>2026-04-19T06:50:51.921Z</time></trkpt><trkpt lat="44.8333954" lon="8.0770072"><ele>151.6</ele><time>2026-04-19T06:50:52.921Z</time></trkpt><trkpt lat="44.833501" lon="8.0770495"><ele>151.2</ele><time>2026-04-19T06:50:53.921Z</time></trkpt><trkpt lat="44.8336096" lon="8.0770744"><ele>150.8</ele><time>2026-04-19T06:50:54.921Z</time></trkpt><trkpt lat="44.8337026" lon="8.0770797"><ele>150.4</ele><time>2026-04-19T06:50:55.922Z</time></trkpt><trkpt lat="44.8337804" lon="8.0770732"><ele>150.0</ele><time>2026-04-19T06:50:56.922Z</time></trkpt><trkpt lat="44.8338824" lon="8.0770632"><ele>150.0</ele><time>2026-04-19T06:50:58.921Z</time></trkpt><trkpt lat="44.8339967" lon="8.0770608"><ele>150.0</ele><time>2026-04-19T06:51:19.922Z</time></trkpt><trkpt lat="44.8340752" lon="8.0770798"><ele>150.0</ele><time>2026-04-19T06:51:22.921Z</time></trkpt><trkpt lat="44.8341663" lon="8.0771386"><ele>150.0</ele><time>2026-04-19T06:51:25.922Z</time></trkpt><trkpt lat="44.8342423" lon="8.0771579"><ele>150.0</ele><time>2026-04-19T06:51:27.922Z</time></trkpt><trkpt lat="44.8342957" lon="8.0771051"><ele>150.0</ele><time>2026-04-19T06:51:29.921Z</time></trkpt><trkpt lat="44.834354" lon="8.0770253"><ele>150.4</ele><time>2026-04-19T06:51:31.922Z</time></trkpt><trkpt lat="44.8344355" lon="8.0769334"><ele>150.8</ele><time>2026-04-19T06:51:33.922Z</time></trkpt><trkpt lat="44.834501" lon="8.0768761"><ele>151.2</ele><time>2026-04-19T06:51:34.921Z</time></trkpt><trkpt lat="44.8345861" lon="8.0768031"><ele>151.6</ele><time>2026-04-19T06:51:35.922Z</time></trkpt><trkpt lat="44.8346788" lon="8.0767293"><ele>152.0</ele><time>2026-04-19T06:51:36.922Z</time></trkpt><trkpt lat="44.8347669" lon="8.076671"><ele>152.0</ele><time>2026-04-19T06:51:37.921Z</time></trkpt><trkpt lat="44.8348516" lon="8.0766278"><ele>152.0</ele><time>2026-04-19T06:51:38.921Z</time></trkpt><trkpt lat="44.8349467" lon="8.0765945"><ele>152.0</ele><time>2026-04-19T06:51:39.921Z</time></trkpt><trkpt lat="44.8350491" lon="8.076571"><ele>152.0</ele><time>2026-04-19T06:51:40.921Z</time></trkpt><trkpt lat="44.8351517" lon="8.0765467"><ele>152.0</ele><time>2026-04-19T06:51:41.921Z</time></trkpt><trkpt lat="44.8352467" lon="8.0765283"><ele>151.83333333333331</ele><time>2026-04-19T06:51:42.921Z</time></trkpt><trkpt lat="44.8353333" lon="8.0765117"><ele>151.66666666666666</ele><time>2026-04-19T06:51:43.922Z</time></trkpt><trkpt lat="44.83542" lon="8.0764967"><ele>151.5</ele><time>2026-04-19T06:51:44.921Z</time></trkpt><trkpt lat="44.8354933" lon="8.076495"><ele>151.33333333333334</ele><time>2026-04-19T06:51:45.921Z</time></trkpt><trkpt lat="44.8355717" lon="8.076505"><ele>151.16666666666669</ele><time>2026-04-19T06:51:46.921Z</time></trkpt><trkpt lat="44.83564" lon="8.076515"><ele>151.0</ele><time>2026-04-19T06:51:47.921Z</time></trkpt><trkpt lat="44.83571" lon="8.07652"><ele>151.0</ele><time>2026-04-19T06:51:48.921Z</time></trkpt><trkpt lat="44.8357867" lon="8.0764967"><ele>151.0</ele><time>2026-04-19T06:51:49.921Z</time></trkpt><trkpt lat="44.8358783" lon="8.076465"><ele>151.0</ele><time>2026-04-19T06:51:50.921Z</time></trkpt><trkpt lat="44.8359883" lon="8.0764383"><ele>151.0</ele><time>2026-04-19T06:51:51.922Z</time></trkpt><trkpt lat="44.836095" lon="8.0764417"><ele>151.0</ele><time>2026-04-19T06:51:52.921Z</time></trkpt><trkpt lat="44.8362" lon="8.0764633"><ele>150.75</ele><time>2026-04-19T06:51:53.922Z</time></trkpt><trkpt lat="44.8363083" lon="8.076505"><ele>150.5</ele><time>2026-04-19T06:51:54.922Z</time></trkpt><trkpt lat="44.8364117" lon="8.0765533"><ele>150.25</ele><time>2026-04-19T06:51:55.922Z</time></trkpt><trkpt lat="44.8365233" lon="8.0765983"><ele>150.0</ele><time>2026-04-19T06:51:56.921Z</time></trkpt><trkpt lat="44.8366383" lon="8.0766317"><ele>149.75</ele><time>2026-04-19T06:51:57.922Z</time></trkpt><trkpt lat="44.8367517" lon="8.0766817"><ele>149.5</ele><time>2026-04-19T06:51:58.921Z</time></trkpt><trkpt lat="44.83688" lon="8.076725"><ele>149.25</ele><time>2026-04-19T06:51:59.921Z</time></trkpt><trkpt lat="44.8370017" lon="8.07678"><ele>149.0</ele><time>2026-04-19T06:52:00.922Z</time></trkpt><trkpt lat="44.83711" lon="8.0768183"><ele>148.5</ele><time>2026-04-19T06:52:01.922Z</time></trkpt><trkpt lat="44.83722" lon="8.07686"><ele>148.0</ele><time>2026-04-19T06:52:02.922Z</time></trkpt><trkpt lat="44.83734" lon="8.076885"><ele>147.5</ele><time>2026-04-19T06:52:03.922Z</time></trkpt><trkpt lat="44.837465" lon="8.076905"><ele>147.0</ele><time>2026-04-19T06:52:04.921Z</time></trkpt><trkpt lat="44.8375933" lon="8.0769167"><ele>147.5</ele><time>2026-04-19T06:52:05.921Z</time></trkpt><trkpt lat="44.8377317" lon="8.0769317"><ele>148.0</ele><time>2026-04-19T06:52:06.921Z</time></trkpt><trkpt lat="44.8378517" lon="8.0769483"><ele>148.5</ele><time>2026-04-19T06:52:07.922Z</time></trkpt><trkpt lat="44.837975" lon="8.0769767"><ele>149.0</ele><time>2026-04-19T06:52:08.921Z</time></trkpt><trkpt lat="44.8381017" lon="8.0770183"><ele>149.0</ele><time>2026-04-19T06:52:09.921Z</time></trkpt><trkpt lat="44.838235" lon="8.0770833"><ele>149.0</ele><time>2026-04-19T06:52:10.921Z</time></trkpt><trkpt lat="44.838375" lon="8.0771617"><ele>149.0</ele><time>2026-04-19T06:52:11.921Z</time></trkpt><trkpt lat="44.8385117" lon="8.0772433"><ele>149.0</ele><time>2026-04-19T06:52:12.921Z</time></trkpt><trkpt lat="44.8386333" lon="8.0773133"><ele>149.0</ele><time>2026-04-19T06:52:13.921Z</time></trkpt><trkpt lat="44.8387583" lon="8.0773783"><ele>149.0</ele><time>2026-04-19T06:52:14.921Z</time></trkpt><trkpt lat="44.8388867" lon="8.0774317"><ele>149.0</ele><time>2026-04-19T06:52:15.922Z</time></trkpt><trkpt lat="44.8390283" lon="8.0774883"><ele>149.0</ele><time>2026-04-19T06:52:16.921Z</time></trkpt><trkpt lat="44.8391667" lon="8.077565"><ele>148.5</ele><time>2026-04-19T06:52:17.922Z</time></trkpt><trkpt lat="44.8392933" lon="8.0776433"><ele>148.0</ele><time>2026-04-19T06:52:18.921Z</time></trkpt><trkpt lat="44.83941" lon="8.0777183"><ele>147.5</ele><time>2026-04-19T06:52:19.921Z</time></trkpt><trkpt lat="44.83952" lon="8.077795"><ele>147.0</ele><time>2026-04-19T06:52:20.921Z</time></trkpt><trkpt lat="44.839625" lon="8.0778767"><ele>146.75</ele><time>2026-04-19T06:52:21.922Z</time></trkpt><trkpt lat="44.839725" lon="8.077965"><ele>146.5</ele><time>2026-04-19T06:52:22.921Z</time></trkpt><trkpt lat="44.8398167" lon="8.0780467"><ele>146.25</ele><time>2026-04-19T06:52:23.922Z</time></trkpt><trkpt lat="44.8399083" lon="8.078145"><ele>146.0</ele><time>2026-04-19T06:52:24.921Z</time></trkpt><trkpt lat="44.8400033" lon="8.0782417"><ele>146.5</ele><time>2026-04-19T06:52:25.922Z</time></trkpt><trkpt lat="44.8400983" lon="8.0783533"><ele>147.0</ele><time>2026-04-19T06:52:26.922Z</time></trkpt><trkpt lat="44.8401883" lon="8.0784433"><ele>147.5</ele><time>2026-04-19T06:52:27.921Z</time></trkpt><trkpt lat="44.840275" lon="8.0785267"><ele>148.0</ele><time>2026-04-19T06:52:28.922Z</time></trkpt><trkpt lat="44.8403633" lon="8.0786283"><ele>148.4</ele><time>2026-04-19T06:52:29.921Z</time></trkpt><trkpt lat="44.840445" lon="8.0787283"><ele>148.8</ele><time>2026-04-19T06:52:30.921Z</time></trkpt><trkpt lat="44.840535" lon="8.0788233"><ele>149.2</ele><time>2026-04-19T06:52:31.922Z</time></trkpt><trkpt lat="44.840625" lon="8.07892"><ele>149.6</ele><time>2026-04-19T06:52:32.921Z</time></trkpt><trkpt lat="44.8406983" lon="8.0790217"><ele>150.0</ele><time>2026-04-19T06:52:33.922Z</time></trkpt><trkpt lat="44.840765" lon="8.0791367"><ele>150.2</ele><time>2026-04-19T06:52:34.922Z</time></trkpt><trkpt lat="44.8408317" lon="8.079245"><ele>150.4</ele><time>2026-04-19T06:52:35.922Z</time></trkpt><trkpt lat="44.8409" lon="8.0793517"><ele>150.6</ele><time>2026-04-19T06:52:36.922Z</time></trkpt><trkpt lat="44.8409733" lon="8.07945"><ele>150.8</ele><time>2026-04-19T06:52:37.922Z</time></trkpt><trkpt lat="44.84105" lon="8.0795417"><ele>151.0</ele><time>2026-04-19T06:52:38.922Z</time></trkpt><trkpt lat="44.8411233" lon="8.079625"><ele>151.16666666666669</ele><time>2026-04-19T06:52:39.922Z</time></trkpt><trkpt lat="44.841185" lon="8.07971"><ele>151.33333333333334</ele><time>2026-04-19T06:52:40.921Z</time></trkpt><trkpt lat="44.8412333" lon="8.079785"><ele>151.5</ele><time>2026-04-19T06:52:41.922Z</time></trkpt><trkpt lat="44.841275" lon="8.0798667"><ele>151.66666666666666</ele><time>2026-04-19T06:52:42.921Z</time></trkpt><trkpt lat="44.8413183" lon="8.079965"><ele>151.83333333333331</ele><time>2026-04-19T06:52:43.922Z</time></trkpt><trkpt lat="44.841355" lon="8.080085"><ele>152.0</ele><time>2026-04-19T06:52:44.921Z</time></trkpt><trkpt lat="44.8413983" lon="8.0802067"><ele>152.0</ele><time>2026-04-19T06:52:45.922Z</time></trkpt><trkpt lat="44.84145" lon="8.0803267"><ele>152.0</ele><time>2026-04-19T06:52:46.922Z</time></trkpt><trkpt lat="44.8415067" lon="8.0804433"><ele>152.0</ele><time>2026-04-19T06:52:47.921Z</time></trkpt><trkpt lat="44.8415583" lon="8.0805567"><ele>152.0</ele><time>2026-04-19T06:52:48.921Z</time></trkpt><trkpt lat="44.841615" lon="8.0806683"><ele>152.0</ele><time>2026-04-19T06:52:49.921Z</time></trkpt><trkpt lat="44.841675" lon="8.0807817"><ele>152.0</ele><time>2026-04-19T06:52:50.921Z</time></trkpt><trkpt lat="44.84174" lon="8.0808967"><ele>152.0</ele><time>2026-04-19T06:52:51.921Z</time></trkpt><trkpt lat="44.8418" lon="8.08101"><ele>152.0</ele><time>2026-04-19T06:52:52.922Z</time></trkpt><trkpt lat="44.8418467" lon="8.0811017"><ele>152.0</ele><time>2026-04-19T06:52:53.921Z</time></trkpt><trkpt lat="44.8418783" lon="8.0811833"><ele>152.0</ele><time>2026-04-19T06:52:54.922Z</time></trkpt><trkpt lat="44.8419183" lon="8.081295"><ele>152.0</ele><time>2026-04-19T06:52:56.922Z</time></trkpt><trkpt lat="44.84188" lon="8.0813783"><ele>152.0</ele><time>2026-04-19T06:52:58.921Z</time></trkpt><trkpt lat="44.8418183" lon="8.081435"><ele>152.0</ele><time>2026-04-19T06:52:59.921Z</time></trkpt><trkpt lat="44.841755" lon="8.0815117"><ele>152.0</ele><time>2026-04-19T06:53:00.922Z</time></trkpt><trkpt lat="44.8417017" lon="8.0816233"><ele>152.0</ele><time>2026-04-19T06:53:01.921Z</time></trkpt><trkpt lat="44.8416717" lon="8.0817383"><ele>152.0</ele><time>2026-04-19T06:53:02.921Z</time></trkpt><trkpt lat="44.8416567" lon="8.0818317"><ele>152.0</ele><time>2026-04-19T06:53:03.922Z</time></trkpt><trkpt lat="44.8417183" lon="8.0818567"><ele>152.2</ele><time>2026-04-19T06:53:07.921Z</time></trkpt><trkpt lat="44.84176" lon="8.0817583"><ele>152.39999999999998</ele><time>2026-04-19T06:53:08.921Z</time></trkpt><trkpt lat="44.8418233" lon="8.0816467"><ele>152.60000000000002</ele><time>2026-04-19T06:53:09.922Z</time></trkpt><trkpt lat="44.84191" lon="8.0815433"><ele>152.8</ele><time>2026-04-19T06:53:10.922Z</time></trkpt><trkpt lat="44.8420217" lon="8.0814267"><ele>153.0</ele><time>2026-04-19T06:53:11.921Z</time></trkpt><trkpt lat="44.8421367" lon="8.0813233"><ele>151.75</ele><time>2026-04-19T06:53:12.921Z</time></trkpt><trkpt lat="44.8422633" lon="8.0812167"><ele>150.5</ele><time>2026-04-19T06:53:13.921Z</time></trkpt><trkpt lat="44.8423917" lon="8.08111"><ele>149.25</ele><time>2026-04-19T06:53:14.922Z</time></trkpt><trkpt lat="44.8425167" lon="8.0809967"><ele>148.0</ele><time>2026-04-19T06:53:15.922Z</time></trkpt><trkpt lat="44.8426367" lon="8.080865"><ele>147.75</ele><time>2026-04-19T06:53:16.922Z</time></trkpt><trkpt lat="44.842735" lon="8.080715"><ele>147.5</ele><time>2026-04-19T06:53:17.922Z</time></trkpt><trkpt lat="44.842825" lon="8.080545"><ele>147.25</ele><time>2026-04-19T06:53:18.922Z</time></trkpt><trkpt lat="44.8429033" lon="8.0803733"><ele>147.0</ele><time>2026-04-19T06:53:19.921Z</time></trkpt><trkpt lat="44.842975" lon="8.080185"><ele>147.0</ele><time>2026-04-19T06:53:20.921Z</time></trkpt><trkpt lat="44.8430433" lon="8.0799967"><ele>147.0</ele><time>2026-04-19T06:53:21.921Z</time></trkpt><trkpt lat="44.8431067" lon="8.0798167"><ele>147.0</ele><time>2026-04-19T06:53:22.921Z</time></trkpt><trkpt lat="44.8431667" lon="8.0796517"><ele>147.0</ele><time>2026-04-19T06:53:23.921Z</time></trkpt><trkpt lat="44.84322" lon="8.0794867"><ele>148.0</ele><time>2026-04-19T06:53:24.921Z</time></trkpt><trkpt lat="44.843275" lon="8.0793167"><ele>149.0</ele><time>2026-04-19T06:53:25.921Z</time></trkpt><trkpt lat="44.8433433" lon="8.079135"><ele>150.0</ele><time>2026-04-19T06:53:26.921Z</time></trkpt><trkpt lat="44.8434067" lon="8.0789567"><ele>151.0</ele><time>2026-04-19T06:53:27.922Z</time></trkpt><trkpt lat="44.8434667" lon="8.078785"><ele>151.25</ele><time>2026-04-19T06:53:28.921Z</time></trkpt><trkpt lat="44.8435167" lon="8.0786167"><ele>151.5</ele><time>2026-04-19T06:53:29.921Z</time></trkpt><trkpt lat="44.8435633" lon="8.0784583"><ele>151.75</ele><time>2026-04-19T06:53:30.921Z</time></trkpt><trkpt lat="44.843605" lon="8.0783133"><ele>152.0</ele><time>2026-04-19T06:53:31.921Z</time></trkpt><trkpt lat="44.84364" lon="8.07817"><ele>152.0</ele><time>2026-04-19T06:53:32.922Z</time></trkpt><trkpt lat="44.8436483" lon="8.0780233"><ele>152.0</ele><time>2026-04-19T06:53:33.922Z</time></trkpt><trkpt lat="44.8436217" lon="8.0778867"><ele>152.0</ele><time>2026-04-19T06:53:34.921Z</time></trkpt><trkpt lat="44.8435933" lon="8.0777567"><ele>152.0</ele><time>2026-04-19T06:53:35.922Z</time></trkpt><trkpt lat="44.84358" lon="8.077645"><ele>152.0</ele><time>2026-04-19T06:53:36.922Z</time></trkpt><trkpt lat="44.8435933" lon="8.0775433"><ele>152.0</ele><time>2026-04-19T06:53:37.922Z</time></trkpt><trkpt lat="44.8436383" lon="8.0774683"><ele>152.0</ele><time>2026-04-19T06:53:38.922Z</time></trkpt><trkpt lat="44.8437083" lon="8.07743"><ele>152.0</ele><time>2026-04-19T06:53:39.922Z</time></trkpt><trkpt lat="44.8438" lon="8.0774217"><ele>152.0</ele><time>2026-04-19T06:53:40.921Z</time></trkpt><trkpt lat="44.8439083" lon="8.0774467"><ele>152.0</ele><time>2026-04-19T06:53:41.922Z</time></trkpt><trkpt lat="44.8440183" lon="8.077525"><ele>152.0</ele><time>2026-04-19T06:53:42.922Z</time></trkpt><trkpt lat="44.8441267" lon="8.0776417"><ele>152.0</ele><time>2026-04-19T06:53:43.922Z</time></trkpt><trkpt lat="44.8442333" lon="8.0777717"><ele>152.0</ele><time>2026-04-19T06:53:44.921Z</time></trkpt><trkpt lat="44.8443417" lon="8.0779017"><ele>152.0</ele><time>2026-04-19T06:53:45.921Z</time></trkpt><trkpt lat="44.8444567" lon="8.0780333"><ele>151.5</ele><time>2026-04-19T06:53:46.921Z</time></trkpt><trkpt lat="44.84457" lon="8.0781617"><ele>151.0</ele><time>2026-04-19T06:53:47.922Z</time></trkpt><trkpt lat="44.8446817" lon="8.078295"><ele>150.5</ele><time>2026-04-19T06:53:48.921Z</time></trkpt><trkpt lat="44.8447933" lon="8.0784317"><ele>150.0</ele><time>2026-04-19T06:53:49.922Z</time></trkpt><trkpt lat="44.84491" lon="8.07857"><ele>150.0</ele><time>2026-04-19T06:53:50.921Z</time></trkpt><trkpt lat="44.84503" lon="8.078705"><ele>150.0</ele><time>2026-04-19T06:53:51.922Z</time></trkpt><trkpt lat="44.845155" lon="8.0788483"><ele>150.0</ele><time>2026-04-19T06:53:52.921Z</time></trkpt><trkpt lat="44.8452767" lon="8.0789933"><ele>150.33333333333334</ele><time>2026-04-19T06:53:53.921Z</time></trkpt><trkpt lat="44.8454017" lon="8.07914"><ele>150.66666666666669</ele><time>2026-04-19T06:53:54.921Z</time></trkpt><trkpt lat="44.84552" lon="8.0792783"><ele>151.0</ele><time>2026-04-19T06:53:55.921Z</time></trkpt><trkpt lat="44.845635" lon="8.0794183"><ele>151.0</ele><time>2026-04-19T06:53:56.921Z</time></trkpt><trkpt lat="44.84575" lon="8.0795533"><ele>151.0</ele><time>2026-04-19T06:53:57.921Z</time></trkpt><trkpt lat="44.8458683" lon="8.0796833"><ele>151.0</ele><time>2026-04-19T06:53:58.922Z</time></trkpt><trkpt lat="44.845985" lon="8.079825"><ele>151.0</ele><time>2026-04-19T06:53:59.921Z</time></trkpt><trkpt lat="44.8461017" lon="8.0799617"><ele>151.0</ele><time>2026-04-19T06:54:00.922Z</time></trkpt><trkpt lat="44.84622" lon="8.0801017"><ele>151.0</ele><time>2026-04-19T06:54:01.922Z</time></trkpt><trkpt lat="44.8463383" lon="8.0802467"><ele>151.0</ele><time>2026-04-19T06:54:02.921Z</time></trkpt><trkpt lat="44.84646" lon="8.0803967"><ele>151.0</ele><time>2026-04-19T06:54:03.921Z</time></trkpt><trkpt lat="44.8465767" lon="8.0805317"><ele>151.0</ele><time>2026-04-19T06:54:04.922Z</time></trkpt><trkpt lat="44.8467" lon="8.0806767"><ele>150.33333333333334</ele><time>2026-04-19T06:54:05.922Z</time></trkpt><trkpt lat="44.84682" lon="8.0808167"><ele>149.66666666666666</ele><time>2026-04-19T06:54:06.921Z</time></trkpt><trkpt lat="44.84693" lon="8.08095"><ele>149.0</ele><time>2026-04-19T06:54:07.921Z</time></trkpt><trkpt lat="44.8470383" lon="8.0810967"><ele>149.0</ele><time>2026-04-19T06:54:08.921Z</time></trkpt><trkpt lat="44.8471567" lon="8.0812533"><ele>149.0</ele><time>2026-04-19T06:54:09.921Z</time></trkpt><trkpt lat="44.84727" lon="8.08142"><ele>149.0</ele><time>2026-04-19T06:54:10.921Z</time></trkpt><trkpt lat="44.8473767" lon="8.08157"><ele>148.33333333333331</ele><time>2026-04-19T06:54:11.922Z</time></trkpt><trkpt lat="44.84748" lon="8.0817333"><ele>147.66666666666666</ele><time>2026-04-19T06:54:12.922Z</time></trkpt><trkpt lat="44.8475917" lon="8.0818983"><ele>147.0</ele><time>2026-04-19T06:54:13.922Z</time></trkpt><trkpt lat="44.8477" lon="8.0820683"><ele>148.66666666666666</ele><time>2026-04-19T06:54:14.921Z</time></trkpt><trkpt lat="44.8477983" lon="8.08224"><ele>150.33333333333331</ele><time>2026-04-19T06:54:15.921Z</time></trkpt><trkpt lat="44.8478917" lon="8.0824117"><ele>152.0</ele><time>2026-04-19T06:54:16.921Z</time></trkpt><trkpt lat="44.84798" lon="8.0825867"><ele>152.0</ele><time>2026-04-19T06:54:17.921Z</time></trkpt><trkpt lat="44.84807" lon="8.0827667"><ele>152.0</ele><time>2026-04-19T06:54:18.921Z</time></trkpt><trkpt lat="44.8481567" lon="8.0829433"><ele>152.0</ele><time>2026-04-19T06:54:19.922Z</time></trkpt><trkpt lat="44.8482417" lon="8.0831333"><ele>151.66666666666666</ele><time>2026-04-19T06:54:20.922Z</time></trkpt><trkpt lat="44.848325" lon="8.0833217"><ele>151.33333333333334</ele><time>2026-04-19T06:54:21.922Z</time></trkpt><trkpt lat="44.8484083" lon="8.0835117"><ele>151.0</ele><time>2026-04-19T06:54:22.921Z</time></trkpt><trkpt lat="44.8484833" lon="8.0837117"><ele>151.5</ele><time>2026-04-19T06:54:23.921Z</time></trkpt><trkpt lat="44.8485583" lon="8.0838933"><ele>152.0</ele><time>2026-04-19T06:54:24.921Z</time></trkpt><trkpt lat="44.8486233" lon="8.0840667"><ele>152.5</ele><time>2026-04-19T06:54:25.922Z</time></trkpt><trkpt lat="44.8486917" lon="8.0842467"><ele>153.0</ele><time>2026-04-19T06:54:26.922Z</time></trkpt><trkpt lat="44.8487583" lon="8.0844367"><ele>153.0</ele><time>2026-04-19T06:54:27.921Z</time></trkpt><trkpt lat="44.8488233" lon="8.084615"><ele>153.0</ele><time>2026-04-19T06:54:28.922Z</time></trkpt><trkpt lat="44.8488883" lon="8.084795"><ele>153.0</ele><time>2026-04-19T06:54:29.922Z</time></trkpt><trkpt lat="44.8489517" lon="8.084965"><ele>153.0</ele><time>2026-04-19T06:54:30.922Z</time></trkpt><trkpt lat="44.8490117" lon="8.0851333"><ele>152.5</ele><time>2026-04-19T06:54:31.922Z</time></trkpt><trkpt lat="44.84908" lon="8.0853017"><ele>152.0</ele><time>2026-04-19T06:54:32.921Z</time></trkpt><trkpt lat="44.849145" lon="8.085475"><ele>151.5</ele><time>2026-04-19T06:54:33.921Z</time></trkpt><trkpt lat="44.8492067" lon="8.08565"><ele>151.0</ele><time>2026-04-19T06:54:34.921Z</time></trkpt><trkpt lat="44.8492683" lon="8.0858183"><ele>153.0</ele><time>2026-04-19T06:54:35.922Z</time></trkpt><trkpt lat="44.8493367" lon="8.0859867"><ele>155.0</ele><time>2026-04-19T06:54:36.921Z</time></trkpt><trkpt lat="44.8494033" lon="8.0861517"><ele>157.0</ele><time>2026-04-19T06:54:37.922Z</time></trkpt><trkpt lat="44.8494633" lon="8.0863117"><ele>159.0</ele><time>2026-04-19T06:54:38.921Z</time></trkpt><trkpt lat="44.8495267" lon="8.0864833"><ele>158.25</ele><time>2026-04-19T06:54:39.922Z</time></trkpt><trkpt lat="44.849595" lon="8.08666"><ele>157.5</ele><time>2026-04-19T06:54:40.921Z</time></trkpt><trkpt lat="44.84966" lon="8.08684"><ele>156.75</ele><time>2026-04-19T06:54:41.921Z</time></trkpt><trkpt lat="44.8497279" lon="8.0870205"><ele>156.0</ele><time>2026-04-19T06:54:42.922Z</time></trkpt><trkpt lat="44.849796" lon="8.087202"><ele>156.0</ele><time>2026-04-19T06:54:43.922Z</time></trkpt><trkpt lat="44.8498642" lon="8.08738"><ele>156.0</ele><time>2026-04-19T06:54:44.922Z</time></trkpt><trkpt lat="44.8499272" lon="8.0875497"><ele>156.0</ele><time>2026-04-19T06:54:45.921Z</time></trkpt><trkpt lat="44.8499893" lon="8.0877143"><ele>156.0</ele><time>2026-04-19T06:54:46.921Z</time></trkpt><trkpt lat="44.8500495" lon="8.0878792"><ele>155.25</ele><time>2026-04-19T06:54:47.921Z</time></trkpt><trkpt lat="44.8501133" lon="8.0880518"><ele>154.5</ele><time>2026-04-19T06:54:48.922Z</time></trkpt><trkpt lat="44.8501785" lon="8.0882274"><ele>153.75</ele><time>2026-04-19T06:54:49.922Z</time></trkpt><trkpt lat="44.850247" lon="8.0884024"><ele>153.0</ele><time>2026-04-19T06:54:50.921Z</time></trkpt><trkpt lat="44.8503127" lon="8.0885679"><ele>153.0</ele><time>2026-04-19T06:54:51.922Z</time></trkpt><trkpt lat="44.850376" lon="8.0887229"><ele>153.0</ele><time>2026-04-19T06:54:52.922Z</time></trkpt><trkpt lat="44.8504377" lon="8.0888773"><ele>153.0</ele><time>2026-04-19T06:54:53.922Z</time></trkpt><trkpt lat="44.8504988" lon="8.0890279"><ele>153.0</ele><time>2026-04-19T06:54:54.922Z</time></trkpt><trkpt lat="44.8505581" lon="8.0891832"><ele>151.75</ele><time>2026-04-19T06:54:55.921Z</time></trkpt><trkpt lat="44.8506233" lon="8.0893431"><ele>150.5</ele><time>2026-04-19T06:54:56.921Z</time></trkpt><trkpt lat="44.8506827" lon="8.0894913"><ele>149.25</ele><time>2026-04-19T06:54:57.922Z</time></trkpt><trkpt lat="44.8507376" lon="8.0896318"><ele>148.0</ele><time>2026-04-19T06:54:58.922Z</time></trkpt><trkpt lat="44.8507887" lon="8.089764"><ele>148.0</ele><time>2026-04-19T06:54:59.922Z</time></trkpt><trkpt lat="44.8508377" lon="8.089887"><ele>148.0</ele><time>2026-04-19T06:55:00.922Z</time></trkpt><trkpt lat="44.8508791" lon="8.0900034"><ele>148.0</ele><time>2026-04-19T06:55:01.921Z</time></trkpt><trkpt lat="44.850915" lon="8.090099"><ele>148.0</ele><time>2026-04-19T06:55:02.922Z</time></trkpt><trkpt lat="44.8509466" lon="8.0901767"><ele>148.0</ele><time>2026-04-19T06:55:03.921Z</time></trkpt><trkpt lat="44.850998" lon="8.0902601"><ele>148.0</ele><time>2026-04-19T06:55:05.921Z</time></trkpt><trkpt lat="44.8510651" lon="8.0902159"><ele>148.4</ele><time>2026-04-19T06:55:07.921Z</time></trkpt><trkpt lat="44.8511219" lon="8.0901385"><ele>148.8</ele><time>2026-04-19T06:55:08.922Z</time></trkpt><trkpt lat="44.8511903" lon="8.0900326"><ele>149.2</ele><time>2026-04-19T06:55:09.921Z</time></trkpt><trkpt lat="44.8512602" lon="8.0899119"><ele>149.6</ele><time>2026-04-19T06:55:10.922Z</time></trkpt><trkpt lat="44.8513204" lon="8.0897829"><ele>150.0</ele><time>2026-04-19T06:55:11.921Z</time></trkpt><trkpt lat="44.8513761" lon="8.0896533"><ele>150.4</ele><time>2026-04-19T06:55:12.921Z</time></trkpt><trkpt lat="44.8514206" lon="8.0895197"><ele>150.8</ele><time>2026-04-19T06:55:13.921Z</time></trkpt><trkpt lat="44.851449" lon="8.0893927"><ele>151.2</ele><time>2026-04-19T06:55:14.921Z</time></trkpt><trkpt lat="44.8514597" lon="8.0892677"><ele>151.6</ele><time>2026-04-19T06:55:15.922Z</time></trkpt><trkpt lat="44.8514653" lon="8.0891294"><ele>152.0</ele><time>2026-04-19T06:55:16.921Z</time></trkpt><trkpt lat="44.8514735" lon="8.08897"><ele>152.6</ele><time>2026-04-19T06:55:17.922Z</time></trkpt><trkpt lat="44.8514742" lon="8.0888059"><ele>153.2</ele><time>2026-04-19T06:55:18.922Z</time></trkpt><trkpt lat="44.8514725" lon="8.0886417"><ele>153.8</ele><time>2026-04-19T06:55:19.921Z</time></trkpt><trkpt lat="44.8514673" lon="8.0884913"><ele>154.4</ele><time>2026-04-19T06:55:20.922Z</time></trkpt><trkpt lat="44.8514585" lon="8.0883433"><ele>155.0</ele><time>2026-04-19T06:55:21.921Z</time></trkpt><trkpt lat="44.85145" lon="8.088195"><ele>155.75</ele><time>2026-04-19T06:55:22.921Z</time></trkpt><trkpt lat="44.8514433" lon="8.08805"><ele>156.5</ele><time>2026-04-19T06:55:23.922Z</time></trkpt><trkpt lat="44.8514333" lon="8.0878933"><ele>157.25</ele><time>2026-04-19T06:55:24.922Z</time></trkpt><trkpt lat="44.8514183" lon="8.087725"><ele>158.0</ele><time>2026-04-19T06:55:25.921Z</time></trkpt><trkpt lat="44.851405" lon="8.08756"><ele>158.25</ele><time>2026-04-19T06:55:26.922Z</time></trkpt><trkpt lat="44.8513817" lon="8.0873983"><ele>158.5</ele><time>2026-04-19T06:55:27.921Z</time></trkpt><trkpt lat="44.8513517" lon="8.0872333"><ele>158.75</ele><time>2026-04-19T06:55:28.922Z</time></trkpt><trkpt lat="44.8513167" lon="8.0870733"><ele>159.0</ele><time>2026-04-19T06:55:29.922Z</time></trkpt><trkpt lat="44.8512717" lon="8.0869183"><ele>159.0</ele><time>2026-04-19T06:55:30.921Z</time></trkpt><trkpt lat="44.85122" lon="8.0867567"><ele>159.0</ele><time>2026-04-19T06:55:31.922Z</time></trkpt><trkpt lat="44.851165" lon="8.0865867"><ele>159.0</ele><time>2026-04-19T06:55:32.922Z</time></trkpt><trkpt lat="44.8511167" lon="8.0864367"><ele>159.0</ele><time>2026-04-19T06:55:33.921Z</time></trkpt><trkpt lat="44.8510733" lon="8.0862983"><ele>158.6</ele><time>2026-04-19T06:55:34.921Z</time></trkpt><trkpt lat="44.8510167" lon="8.08615"><ele>158.2</ele><time>2026-04-19T06:55:35.922Z</time></trkpt><trkpt lat="44.8509683" lon="8.08602"><ele>157.79999999999998</ele><time>2026-04-19T06:55:36.921Z</time></trkpt><trkpt lat="44.850915" lon="8.0858933"><ele>157.4</ele><time>2026-04-19T06:55:37.921Z</time></trkpt><trkpt lat="44.8508617" lon="8.0857733"><ele>157.0</ele><time>2026-04-19T06:55:38.921Z</time></trkpt><trkpt lat="44.8508067" lon="8.0856517"><ele>158.39999999999998</ele><time>2026-04-19T06:55:39.922Z</time></trkpt><trkpt lat="44.850745" lon="8.0855367"><ele>159.79999999999998</ele><time>2026-04-19T06:55:40.922Z</time></trkpt><trkpt lat="44.8506833" lon="8.0854033"><ele>161.2</ele><time>2026-04-19T06:55:41.921Z</time></trkpt><trkpt lat="44.8506217" lon="8.0852667"><ele>162.6</ele><time>2026-04-19T06:55:42.921Z</time></trkpt><trkpt lat="44.8505667" lon="8.08512"><ele>164.0</ele><time>2026-04-19T06:55:43.921Z</time></trkpt><trkpt lat="44.8505133" lon="8.084975"><ele>163.75</ele><time>2026-04-19T06:55:44.921Z</time></trkpt><trkpt lat="44.8504467" lon="8.0848333"><ele>163.5</ele><time>2026-04-19T06:55:45.922Z</time></trkpt><trkpt lat="44.8503817" lon="8.084695"><ele>163.25</ele><time>2026-04-19T06:55:46.922Z</time></trkpt><trkpt lat="44.8503067" lon="8.0845533"><ele>163.0</ele><time>2026-04-19T06:55:47.921Z</time></trkpt><trkpt lat="44.8502367" lon="8.084405"><ele>163.0</ele><time>2026-04-19T06:55:48.922Z</time></trkpt><trkpt lat="44.8501767" lon="8.0842517"><ele>163.0</ele><time>2026-04-19T06:55:49.921Z</time></trkpt><trkpt lat="44.8501033" lon="8.08409"><ele>163.0</ele><time>2026-04-19T06:55:50.922Z</time></trkpt><trkpt lat="44.8500317" lon="8.0839233"><ele>163.0</ele><time>2026-04-19T06:55:51.921Z</time></trkpt><trkpt lat="44.8499683" lon="8.0837533"><ele>163.5</ele><time>2026-04-19T06:55:52.921Z</time></trkpt><trkpt lat="44.8499217" lon="8.0835917"><ele>164.0</ele><time>2026-04-19T06:55:53.921Z</time></trkpt><trkpt lat="44.8498867" lon="8.083435"><ele>164.5</ele><time>2026-04-19T06:55:54.921Z</time></trkpt><trkpt lat="44.8498717" lon="8.0832617"><ele>165.0</ele><time>2026-04-19T06:55:55.922Z</time></trkpt><trkpt lat="44.8498667" lon="8.0830967"><ele>165.75</ele><time>2026-04-19T06:55:56.921Z</time></trkpt><trkpt lat="44.849865" lon="8.08294"><ele>166.5</ele><time>2026-04-19T06:55:57.922Z</time></trkpt><trkpt lat="44.849855" lon="8.0827817"><ele>167.25</ele><time>2026-04-19T06:55:58.921Z</time></trkpt><trkpt lat="44.84985" lon="8.08262"><ele>168.0</ele><time>2026-04-19T06:55:59.921Z</time></trkpt><trkpt lat="44.8498383" lon="8.08245"><ele>168.25</ele><time>2026-04-19T06:56:00.921Z</time></trkpt><trkpt lat="44.8498267" lon="8.082265"><ele>168.5</ele><time>2026-04-19T06:56:01.922Z</time></trkpt><trkpt lat="44.84981" lon="8.0820783"><ele>168.75</ele><time>2026-04-19T06:56:02.922Z</time></trkpt><trkpt lat="44.8497933" lon="8.0819033"><ele>169.0</ele><time>2026-04-19T06:56:03.921Z</time></trkpt><trkpt lat="44.8497717" lon="8.08175"><ele>169.0</ele><time>2026-04-19T06:56:04.922Z</time></trkpt><trkpt lat="44.849755" lon="8.081605"><ele>169.0</ele><time>2026-04-19T06:56:05.922Z</time></trkpt><trkpt lat="44.84971" lon="8.0814617"><ele>169.0</ele><time>2026-04-19T06:56:06.922Z</time></trkpt><trkpt lat="44.84964" lon="8.081315"><ele>169.0</ele><time>2026-04-19T06:56:07.921Z</time></trkpt><trkpt lat="44.849555" lon="8.0811633"><ele>169.33333333333334</ele><time>2026-04-19T06:56:08.921Z</time></trkpt><trkpt lat="44.8494667" lon="8.0809917"><ele>169.66666666666666</ele><time>2026-04-19T06:56:09.922Z</time></trkpt><trkpt lat="44.849375" lon="8.080805"><ele>170.0</ele><time>2026-04-19T06:56:10.921Z</time></trkpt><trkpt lat="44.849285" lon="8.0806333"><ele>170.75</ele><time>2026-04-19T06:56:11.922Z</time></trkpt><trkpt lat="44.8492" lon="8.0804683"><ele>171.5</ele><time>2026-04-19T06:56:12.922Z</time></trkpt><trkpt lat="44.849105" lon="8.080305"><ele>172.25</ele><time>2026-04-19T06:56:13.922Z</time></trkpt><trkpt lat="44.8490267" lon="8.0801433"><ele>173.0</ele><time>2026-04-19T06:56:14.922Z</time></trkpt><trkpt lat="44.8489567" lon="8.079975"><ele>172.75</ele><time>2026-04-19T06:56:15.922Z</time></trkpt><trkpt lat="44.848895" lon="8.0798133"><ele>172.5</ele><time>2026-04-19T06:56:16.921Z</time></trkpt><trkpt lat="44.8488267" lon="8.0796633"><ele>172.25</ele><time>2026-04-19T06:56:17.921Z</time></trkpt><trkpt lat="44.8487533" lon="8.0795067"><ele>172.0</ele><time>2026-04-19T06:56:18.922Z</time></trkpt><trkpt lat="44.8486733" lon="8.0793633"><ele>172.0</ele><time>2026-04-19T06:56:19.922Z</time></trkpt><trkpt lat="44.8485883" lon="8.079225"><ele>172.0</ele><time>2026-04-19T06:56:20.921Z</time></trkpt><trkpt lat="44.8485017" lon="8.0790933"><ele>172.0</ele><time>2026-04-19T06:56:21.921Z</time></trkpt><trkpt lat="44.8484317" lon="8.0789667"><ele>172.0</ele><time>2026-04-19T06:56:22.921Z</time></trkpt><trkpt lat="44.84839" lon="8.0788483"><ele>172.0</ele><time>2026-04-19T06:56:23.921Z</time></trkpt><trkpt lat="44.84838" lon="8.0787167"><ele>172.0</ele><time>2026-04-19T06:56:24.921Z</time></trkpt><trkpt lat="44.8483967" lon="8.0785817"><ele>172.0</ele><time>2026-04-19T06:56:25.922Z</time></trkpt><trkpt lat="44.8484433" lon="8.078445"><ele>172.0</ele><time>2026-04-19T06:56:26.922Z</time></trkpt><trkpt lat="44.8485033" lon="8.078295"><ele>172.0</ele><time>2026-04-19T06:56:27.922Z</time></trkpt><trkpt lat="44.8485767" lon="8.0781383"><ele>172.0</ele><time>2026-04-19T06:56:28.921Z</time></trkpt><trkpt lat="44.84865" lon="8.077975"><ele>172.0</ele><time>2026-04-19T06:56:29.921Z</time></trkpt><trkpt lat="44.8487133" lon="8.0778017"><ele>172.0</ele><time>2026-04-19T06:56:30.922Z</time></trkpt><trkpt lat="44.848775" lon="8.0776317"><ele>172.0</ele><time>2026-04-19T06:56:31.921Z</time></trkpt><trkpt lat="44.8488367" lon="8.0774683"><ele>172.75</ele><time>2026-04-19T06:56:32.922Z</time></trkpt><trkpt lat="44.8488867" lon="8.0773117"><ele>173.5</ele><time>2026-04-19T06:56:33.922Z</time></trkpt><trkpt lat="44.848935" lon="8.0771517"><ele>174.25</ele><time>2026-04-19T06:56:34.922Z</time></trkpt><trkpt lat="44.8489783" lon="8.07699"><ele>175.0</ele><time>2026-04-19T06:56:35.921Z</time></trkpt><trkpt lat="44.8490033" lon="8.076825"><ele>175.0</ele><time>2026-04-19T06:56:36.921Z</time></trkpt><trkpt lat="44.8490133" lon="8.076655"><ele>175.0</ele><time>2026-04-19T06:56:37.922Z</time></trkpt><trkpt lat="44.848995" lon="8.07647"><ele>175.0</ele><time>2026-04-19T06:56:38.921Z</time></trkpt><trkpt lat="44.8489633" lon="8.0762767"><ele>175.0</ele><time>2026-04-19T06:56:39.921Z</time></trkpt><trkpt lat="44.8489333" lon="8.0760783"><ele>175.75</ele><time>2026-04-19T06:56:40.921Z</time></trkpt><trkpt lat="44.8489017" lon="8.075885"><ele>176.5</ele><time>2026-04-19T06:56:41.922Z</time></trkpt><trkpt lat="44.8488733" lon="8.0757017"><ele>177.25</ele><time>2026-04-19T06:56:42.921Z</time></trkpt><trkpt lat="44.8488383" lon="8.0755283"><ele>178.0</ele><time>2026-04-19T06:56:43.921Z</time></trkpt><trkpt lat="44.848815" lon="8.07535"><ele>178.0</ele><time>2026-04-19T06:56:44.921Z</time></trkpt><trkpt lat="44.8487883" lon="8.0751783"><ele>178.0</ele><time>2026-04-19T06:56:45.921Z</time></trkpt><trkpt lat="44.8487817" lon="8.0750167"><ele>178.0</ele><time>2026-04-19T06:56:46.921Z</time></trkpt><trkpt lat="44.8487833" lon="8.0748367"><ele>178.0</ele><time>2026-04-19T06:56:47.922Z</time></trkpt><trkpt lat="44.8487983" lon="8.0746483"><ele>177.5</ele><time>2026-04-19T06:56:48.922Z</time></trkpt><trkpt lat="44.8488217" lon="8.0744583"><ele>177.0</ele><time>2026-04-19T06:56:49.922Z</time></trkpt><trkpt lat="44.848845" lon="8.07427"><ele>176.5</ele><time>2026-04-19T06:56:50.922Z</time></trkpt><trkpt lat="44.8488717" lon="8.0741033"><ele>176.0</ele><time>2026-04-19T06:56:51.923Z</time></trkpt><trkpt lat="44.84892" lon="8.0739333"><ele>176.0</ele><time>2026-04-19T06:56:52.922Z</time></trkpt><trkpt lat="44.8489867" lon="8.073765"><ele>176.0</ele><time>2026-04-19T06:56:53.922Z</time></trkpt><trkpt lat="44.8490683" lon="8.0735967"><ele>176.0</ele><time>2026-04-19T06:56:54.922Z</time></trkpt><trkpt lat="44.8491483" lon="8.07344"><ele>176.0</ele><time>2026-04-19T06:56:55.922Z</time></trkpt><trkpt lat="44.849225" lon="8.0732967"><ele>175.8</ele><time>2026-04-19T06:56:56.922Z</time></trkpt><trkpt lat="44.8492967" lon="8.0731633"><ele>175.60000000000002</ele><time>2026-04-19T06:56:57.923Z</time></trkpt><trkpt lat="44.84935" lon="8.0730417"><ele>175.4</ele><time>2026-04-19T06:56:58.923Z</time></trkpt><trkpt lat="44.8493817" lon="8.07294"><ele>175.2</ele><time>2026-04-19T06:56:59.923Z</time></trkpt><trkpt lat="44.849415" lon="8.072795"><ele>175.0</ele><time>2026-04-19T06:57:01.923Z</time></trkpt><trkpt lat="44.8494583" lon="8.0727117"><ele>175.0</ele><time>2026-04-19T06:57:04.923Z</time></trkpt><trkpt lat="44.8495617" lon="8.0727367"><ele>175.0</ele><time>2026-04-19T06:57:06.923Z</time></trkpt><trkpt lat="44.849655" lon="8.07278"><ele>175.0</ele><time>2026-04-19T06:57:07.923Z</time></trkpt><trkpt lat="44.849775" lon="8.0728367"><ele>175.0</ele><time>2026-04-19T06:57:08.923Z</time></trkpt><trkpt lat="44.8499017" lon="8.0729033"><ele>175.0</ele><time>2026-04-19T06:57:09.923Z</time></trkpt><trkpt lat="44.85005" lon="8.0729833"><ele>175.0</ele><time>2026-04-19T06:57:10.923Z</time></trkpt><trkpt lat="44.8501967" lon="8.0730667"><ele>175.0</ele><time>2026-04-19T06:57:11.923Z</time></trkpt><trkpt lat="44.8503533" lon="8.0731533"><ele>175.66666666666669</ele><time>2026-04-19T06:57:12.922Z</time></trkpt><trkpt lat="44.8505033" lon="8.0732517"><ele>176.33333333333334</ele><time>2026-04-19T06:57:13.922Z</time></trkpt><trkpt lat="44.850655" lon="8.0733467"><ele>177.0</ele><time>2026-04-19T06:57:14.923Z</time></trkpt><trkpt lat="44.8508067" lon="8.0734367"><ele>177.0</ele><time>2026-04-19T06:57:15.922Z</time></trkpt><trkpt lat="44.8509583" lon="8.0735033"><ele>177.0</ele><time>2026-04-19T06:57:16.923Z</time></trkpt><trkpt lat="44.8511167" lon="8.0735567"><ele>177.0</ele><time>2026-04-19T06:57:17.922Z</time></trkpt><trkpt lat="44.8512767" lon="8.073575"><ele>177.0</ele><time>2026-04-19T06:57:18.922Z</time></trkpt><trkpt lat="44.8514333" lon="8.0735833"><ele>177.0</ele><time>2026-04-19T06:57:19.923Z</time></trkpt><trkpt lat="44.851595" lon="8.0735883"><ele>177.0</ele><time>2026-04-19T06:57:20.922Z</time></trkpt><trkpt lat="44.8517567" lon="8.0735783"><ele>177.66666666666666</ele><time>2026-04-19T06:57:21.923Z</time></trkpt><trkpt lat="44.85192" lon="8.0735783"><ele>178.33333333333331</ele><time>2026-04-19T06:57:22.923Z</time></trkpt><trkpt lat="44.85208" lon="8.0735767"><ele>179.0</ele><time>2026-04-19T06:57:23.922Z</time></trkpt><trkpt lat="44.85225" lon="8.07358"><ele>179.0</ele><time>2026-04-19T06:57:24.922Z</time></trkpt><trkpt lat="44.85241" lon="8.073585"><ele>179.0</ele><time>2026-04-19T06:57:25.923Z</time></trkpt><trkpt lat="44.8525733" lon="8.0735933"><ele>179.0</ele><time>2026-04-19T06:57:26.922Z</time></trkpt><trkpt lat="44.8527417" lon="8.0735983"><ele>179.33333333333331</ele><time>2026-04-19T06:57:27.922Z</time></trkpt><trkpt lat="44.85291" lon="8.0736133"><ele>179.66666666666666</ele><time>2026-04-19T06:57:28.922Z</time></trkpt><trkpt lat="44.8530783" lon="8.0736267"><ele>180.0</ele><time>2026-04-19T06:57:29.922Z</time></trkpt><trkpt lat="44.85324" lon="8.073635"><ele>180.0</ele><time>2026-04-19T06:57:30.922Z</time></trkpt><trkpt lat="44.8534017" lon="8.0736433"><ele>180.0</ele><time>2026-04-19T06:57:31.923Z</time></trkpt><trkpt lat="44.8535567" lon="8.0736433"><ele>180.0</ele><time>2026-04-19T06:57:32.923Z</time></trkpt><trkpt lat="44.853715" lon="8.0736633"><ele>181.66666666666666</ele><time>2026-04-19T06:57:33.922Z</time></trkpt><trkpt lat="44.8538733" lon="8.0737017"><ele>183.33333333333331</ele><time>2026-04-19T06:57:34.922Z</time></trkpt><trkpt lat="44.854025" lon="8.0737733"><ele>185.0</ele><time>2026-04-19T06:57:35.923Z</time></trkpt><trkpt lat="44.854175" lon="8.0738633"><ele>186.33333333333331</ele><time>2026-04-19T06:57:36.923Z</time></trkpt><trkpt lat="44.8543283" lon="8.07395"><ele>187.66666666666666</ele><time>2026-04-19T06:57:37.923Z</time></trkpt><trkpt lat="44.854465" lon="8.0740267"><ele>189.0</ele><time>2026-04-19T06:57:38.922Z</time></trkpt><trkpt lat="44.8546117" lon="8.074075"><ele>189.0</ele><time>2026-04-19T06:57:39.923Z</time></trkpt><trkpt lat="44.8547467" lon="8.0740617"><ele>189.0</ele><time>2026-04-19T06:57:40.922Z</time></trkpt><trkpt lat="44.8548733" lon="8.07399"><ele>189.0</ele><time>2026-04-19T06:57:41.922Z</time></trkpt><trkpt lat="44.8549883" lon="8.07387"><ele>189.0</ele><time>2026-04-19T06:57:42.922Z</time></trkpt><trkpt lat="44.8551033" lon="8.0737283"><ele>189.33333333333334</ele><time>2026-04-19T06:57:43.923Z</time></trkpt><trkpt lat="44.8552267" lon="8.07358"><ele>189.66666666666669</ele><time>2026-04-19T06:57:44.922Z</time></trkpt><trkpt lat="44.8553467" lon="8.0734383"><ele>190.0</ele><time>2026-04-19T06:57:45.923Z</time></trkpt><trkpt lat="44.855465" lon="8.073315"><ele>190.5</ele><time>2026-04-19T06:57:46.923Z</time></trkpt><trkpt lat="44.8555883" lon="8.07321"><ele>191.0</ele><time>2026-04-19T06:57:47.922Z</time></trkpt><trkpt lat="44.8557217" lon="8.073145"><ele>191.5</ele><time>2026-04-19T06:57:48.923Z</time></trkpt><trkpt lat="44.855865" lon="8.073135"><ele>192.0</ele><time>2026-04-19T06:57:49.922Z</time></trkpt><trkpt lat="44.8560083" lon="8.0731867"><ele>192.25</ele><time>2026-04-19T06:57:50.922Z</time></trkpt><trkpt lat="44.8561517" lon="8.0732483"><ele>192.5</ele><time>2026-04-19T06:57:51.922Z</time></trkpt><trkpt lat="44.85628" lon="8.0733133"><ele>192.75</ele><time>2026-04-19T06:57:52.922Z</time></trkpt><trkpt lat="44.8564083" lon="8.0734067"><ele>193.0</ele><time>2026-04-19T06:57:53.923Z</time></trkpt><trkpt lat="44.85652" lon="8.0735233"><ele>192.25</ele><time>2026-04-19T06:57:54.922Z</time></trkpt><trkpt lat="44.8566383" lon="8.0736483"><ele>191.5</ele><time>2026-04-19T06:57:55.923Z</time></trkpt><trkpt lat="44.8567483" lon="8.07377"><ele>190.75</ele><time>2026-04-19T06:57:56.922Z</time></trkpt><trkpt lat="44.85687" lon="8.0738833"><ele>190.0</ele><time>2026-04-19T06:57:57.923Z</time></trkpt><trkpt lat="44.856995" lon="8.0739767"><ele>190.0</ele><time>2026-04-19T06:57:58.923Z</time></trkpt><trkpt lat="44.857115" lon="8.074055"><ele>190.0</ele><time>2026-04-19T06:57:59.923Z</time></trkpt><trkpt lat="44.857245" lon="8.074135"><ele>190.0</ele><time>2026-04-19T06:58:00.922Z</time></trkpt><trkpt lat="44.8573783" lon="8.0742167"><ele>190.0</ele><time>2026-04-19T06:58:01.923Z</time></trkpt><trkpt lat="44.8575067" lon="8.0742867"><ele>187.75</ele><time>2026-04-19T06:58:02.922Z</time></trkpt><trkpt lat="44.8576367" lon="8.07436"><ele>185.5</ele><time>2026-04-19T06:58:03.923Z</time></trkpt><trkpt lat="44.8577667" lon="8.07444"><ele>183.25</ele><time>2026-04-19T06:58:04.923Z</time></trkpt><trkpt lat="44.8579017" lon="8.074515"><ele>181.0</ele><time>2026-04-19T06:58:05.922Z</time></trkpt><trkpt lat="44.8580417" lon="8.0745967"><ele>181.0</ele><time>2026-04-19T06:58:06.923Z</time></trkpt><trkpt lat="44.8581783" lon="8.0746717"><ele>181.0</ele><time>2026-04-19T06:58:07.923Z</time></trkpt><trkpt lat="44.8583133" lon="8.0747533"><ele>181.0</ele><time>2026-04-19T06:58:08.922Z</time></trkpt><trkpt lat="44.8584467" lon="8.0748417"><ele>181.0</ele><time>2026-04-19T06:58:09.922Z</time></trkpt><trkpt lat="44.85859" lon="8.0749183"><ele>179.0</ele><time>2026-04-19T06:58:10.922Z</time></trkpt><trkpt lat="44.8587317" lon="8.0749667"><ele>177.0</ele><time>2026-04-19T06:58:11.923Z</time></trkpt><trkpt lat="44.8588767" lon="8.07499"><ele>175.0</ele><time>2026-04-19T06:58:12.923Z</time></trkpt><trkpt lat="44.859015" lon="8.0750083"><ele>173.0</ele><time>2026-04-19T06:58:13.923Z</time></trkpt><trkpt lat="44.859155" lon="8.0750317"><ele>172.25</ele><time>2026-04-19T06:58:14.923Z</time></trkpt><trkpt lat="44.8592983" lon="8.0750567"><ele>171.5</ele><time>2026-04-19T06:58:15.922Z</time></trkpt><trkpt lat="44.8594333" lon="8.0750733"><ele>170.75</ele><time>2026-04-19T06:58:16.923Z</time></trkpt><trkpt lat="44.8595683" lon="8.0751"><ele>170.0</ele><time>2026-04-19T06:58:17.923Z</time></trkpt><trkpt lat="44.859715" lon="8.0751183"><ele>170.0</ele><time>2026-04-19T06:58:18.922Z</time></trkpt><trkpt lat="44.8598667" lon="8.0751417"><ele>170.0</ele><time>2026-04-19T06:58:19.922Z</time></trkpt><trkpt lat="44.860015" lon="8.0751617"><ele>170.0</ele><time>2026-04-19T06:58:20.923Z</time></trkpt><trkpt lat="44.8601667" lon="8.07519"><ele>170.25</ele><time>2026-04-19T06:58:21.923Z</time></trkpt><trkpt lat="44.8603217" lon="8.0752083"><ele>170.5</ele><time>2026-04-19T06:58:22.922Z</time></trkpt><trkpt lat="44.8604717" lon="8.075215"><ele>170.75</ele><time>2026-04-19T06:58:23.923Z</time></trkpt><trkpt lat="44.860615" lon="8.0752"><ele>171.0</ele><time>2026-04-19T06:58:24.923Z</time></trkpt><trkpt lat="44.860755" lon="8.075165"><ele>171.0</ele><time>2026-04-19T06:58:25.922Z</time></trkpt><trkpt lat="44.8608867" lon="8.0751167"><ele>171.0</ele><time>2026-04-19T06:58:26.922Z</time></trkpt><trkpt lat="44.8610283" lon="8.0750583"><ele>171.0</ele><time>2026-04-19T06:58:27.923Z</time></trkpt><trkpt lat="44.8611617" lon="8.0749933"><ele>171.0</ele><time>2026-04-19T06:58:28.923Z</time></trkpt><trkpt lat="44.86129" lon="8.0749383"><ele>172.20000000000002</ele><time>2026-04-19T06:58:29.922Z</time></trkpt><trkpt lat="44.8614133" lon="8.07488"><ele>173.4</ele><time>2026-04-19T06:58:30.922Z</time></trkpt><trkpt lat="44.8615167" lon="8.0748183"><ele>174.6</ele><time>2026-04-19T06:58:31.922Z</time></trkpt><trkpt lat="44.8616038" lon="8.0747487"><ele>175.8</ele><time>2026-04-19T06:58:32.923Z</time></trkpt><trkpt lat="44.8616759" lon="8.0746782"><ele>177.0</ele><time>2026-04-19T06:58:33.923Z</time></trkpt><trkpt lat="44.8617352" lon="8.0746148"><ele>178.6</ele><time>2026-04-19T06:58:34.922Z</time></trkpt><trkpt lat="44.8618214" lon="8.0745372"><ele>180.2</ele><time>2026-04-19T06:58:36.923Z</time></trkpt><trkpt lat="44.8618875" lon="8.0745715"><ele>181.8</ele><time>2026-04-19T06:58:38.923Z</time></trkpt><trkpt lat="44.8619639" lon="8.0746885"><ele>183.4</ele><time>2026-04-19T06:58:40.922Z</time></trkpt><trkpt lat="44.8620371" lon="8.0747917"><ele>185.0</ele><time>2026-04-19T06:58:42.922Z</time></trkpt><trkpt lat="44.8621035" lon="8.074931"><ele>186.0</ele><time>2026-04-19T06:58:44.923Z</time></trkpt><trkpt lat="44.8621878" lon="8.0750102"><ele>187.0</ele><time>2026-04-19T06:58:46.922Z</time></trkpt><trkpt lat="44.8622861" lon="8.0750188"><ele>188.0</ele><time>2026-04-19T06:58:48.922Z</time></trkpt><trkpt lat="44.8623641" lon="8.0750112"><ele>189.0</ele><time>2026-04-19T06:58:50.923Z</time></trkpt><trkpt lat="44.8624467" lon="8.0750059"><ele>190.0</ele><time>2026-04-19T06:58:56.923Z</time></trkpt><trkpt lat="44.8624145" lon="8.0751191"><ele>191.0</ele><time>2026-04-19T06:59:01.922Z</time></trkpt><trkpt lat="44.862343" lon="8.0751804"><ele>191.0</ele><time>2026-04-19T06:59:02.923Z</time></trkpt><trkpt lat="44.8622503" lon="8.0752651"><ele>191.0</ele><time>2026-04-19T06:59:03.923Z</time></trkpt><trkpt lat="44.8621672" lon="8.0753534"><ele>191.0</ele><time>2026-04-19T06:59:04.923Z</time></trkpt><trkpt lat="44.8621047" lon="8.0754474"><ele>191.0</ele><time>2026-04-19T06:59:05.923Z</time></trkpt><trkpt lat="44.8620548" lon="8.0755442"><ele>191.0</ele><time>2026-04-19T06:59:06.922Z</time></trkpt><trkpt lat="44.8620139" lon="8.0756439"><ele>191.0</ele><time>2026-04-19T06:59:07.922Z</time></trkpt><trkpt lat="44.8619766" lon="8.0757399"><ele>191.0</ele><time>2026-04-19T06:59:08.923Z</time></trkpt><trkpt lat="44.8619446" lon="8.075825"><ele>191.0</ele><time>2026-04-19T06:59:09.922Z</time></trkpt><trkpt lat="44.8619063" lon="8.0759731"><ele>191.0</ele><time>2026-04-19T06:59:11.922Z</time></trkpt><trkpt lat="44.8619131" lon="8.0760867"><ele>191.0</ele><time>2026-04-19T06:59:13.922Z</time></trkpt><trkpt lat="44.8619817" lon="8.076155"><ele>191.0</ele><time>2026-04-19T06:59:26.922Z</time></trkpt><trkpt lat="44.8620483" lon="8.0761983"><ele>191.0</ele><time>2026-04-19T06:59:28.922Z</time></trkpt><trkpt lat="44.86211" lon="8.076235"><ele>191.0</ele><time>2026-04-19T06:59:29.922Z</time></trkpt><trkpt lat="44.86218" lon="8.0762783"><ele>191.0</ele><time>2026-04-19T06:59:30.922Z</time></trkpt><trkpt lat="44.862255" lon="8.0763183"><ele>191.0</ele><time>2026-04-19T06:59:31.922Z</time></trkpt><trkpt lat="44.8623267" lon="8.0763617"><ele>191.0</ele><time>2026-04-19T06:59:32.923Z</time></trkpt><trkpt lat="44.8624233" lon="8.0764417"><ele>191.0</ele><time>2026-04-19T06:59:34.922Z</time></trkpt><trkpt lat="44.862435" lon="8.0766133"><ele>191.0</ele><time>2026-04-19T06:59:36.923Z</time></trkpt><trkpt lat="44.862405" lon="8.0767417"><ele>191.0</ele><time>2026-04-19T06:59:37.922Z</time></trkpt><trkpt lat="44.862365" lon="8.0768867"><ele>191.0</ele><time>2026-04-19T06:59:38.922Z</time></trkpt><trkpt lat="44.8623317" lon="8.0770267"><ele>191.0</ele><time>2026-04-19T06:59:39.923Z</time></trkpt><trkpt lat="44.8623083" lon="8.0771533"><ele>191.0</ele><time>2026-04-19T06:59:40.922Z</time></trkpt><trkpt lat="44.8622967" lon="8.0772733"><ele>191.0</ele><time>2026-04-19T06:59:41.922Z</time></trkpt><trkpt lat="44.8623017" lon="8.0773767"><ele>191.0</ele><time>2026-04-19T06:59:42.923Z</time></trkpt><trkpt lat="44.8623267" lon="8.07748"><ele>191.0</ele><time>2026-04-19T06:59:43.923Z</time></trkpt><trkpt lat="44.862365" lon="8.0775717"><ele>191.0</ele><time>2026-04-19T06:59:44.923Z</time></trkpt><trkpt lat="44.862395" lon="8.077655"><ele>191.0</ele><time>2026-04-19T06:59:45.923Z</time></trkpt><trkpt lat="44.8624133" lon="8.0777617"><ele>191.0</ele><time>2026-04-19T06:59:46.922Z</time></trkpt><trkpt lat="44.8624083" lon="8.077875"><ele>191.25</ele><time>2026-04-19T06:59:47.923Z</time></trkpt><trkpt lat="44.8623833" lon="8.07801"><ele>191.5</ele><time>2026-04-19T06:59:48.923Z</time></trkpt><trkpt lat="44.8623583" lon="8.0781667"><ele>191.75</ele><time>2026-04-19T06:59:49.922Z</time></trkpt><trkpt lat="44.8623267" lon="8.0783417"><ele>192.0</ele><time>2026-04-19T06:59:50.923Z</time></trkpt><trkpt lat="44.8622833" lon="8.0785367"><ele>192.0</ele><time>2026-04-19T06:59:51.922Z</time></trkpt><trkpt lat="44.8622417" lon="8.0787233"><ele>192.0</ele><time>2026-04-19T06:59:52.922Z</time></trkpt><trkpt lat="44.8622033" lon="8.0789067"><ele>192.0</ele><time>2026-04-19T06:59:53.922Z</time></trkpt><trkpt lat="44.8621683" lon="8.0790917"><ele>192.0</ele><time>2026-04-19T06:59:54.922Z</time></trkpt><trkpt lat="44.862125" lon="8.0792717"><ele>191.5</ele><time>2026-04-19T06:59:55.923Z</time></trkpt><trkpt lat="44.86209" lon="8.0794483"><ele>191.0</ele><time>2026-04-19T06:59:56.923Z</time></trkpt><trkpt lat="44.8620533" lon="8.07962"><ele>190.5</ele><time>2026-04-19T06:59:57.922Z</time></trkpt><trkpt lat="44.8620117" lon="8.0797867"><ele>190.0</ele><time>2026-04-19T06:59:58.922Z</time></trkpt><trkpt lat="44.861975" lon="8.079965"><ele>189.75</ele><time>2026-04-19T06:59:59.923Z</time></trkpt><trkpt lat="44.8619383" lon="8.0801367"><ele>189.5</ele><time>2026-04-19T07:00:00.922Z</time></trkpt><trkpt lat="44.8618933" lon="8.0803133"><ele>189.25</ele><time>2026-04-19T07:00:01.922Z</time></trkpt><trkpt lat="44.861855" lon="8.0804933"><ele>189.0</ele><time>2026-04-19T07:00:02.923Z</time></trkpt><trkpt lat="44.8618183" lon="8.0806733"><ele>188.75</ele><time>2026-04-19T07:00:03.922Z</time></trkpt><trkpt lat="44.8617933" lon="8.0808583"><ele>188.5</ele><time>2026-04-19T07:00:04.922Z</time></trkpt><trkpt lat="44.8617783" lon="8.0810433"><ele>188.25</ele><time>2026-04-19T07:00:05.923Z</time></trkpt><trkpt lat="44.86177" lon="8.08124"><ele>188.0</ele><time>2026-04-19T07:00:06.922Z</time></trkpt><trkpt lat="44.8617633" lon="8.08143"><ele>188.75</ele><time>2026-04-19T07:00:07.923Z</time></trkpt><trkpt lat="44.8617583" lon="8.08162"><ele>189.5</ele><time>2026-04-19T07:00:08.922Z</time></trkpt><trkpt lat="44.8617533" lon="8.0818083"><ele>190.25</ele><time>2026-04-19T07:00:09.922Z</time></trkpt><trkpt lat="44.8617483" lon="8.0819783"><ele>191.0</ele><time>2026-04-19T07:00:10.923Z</time></trkpt><trkpt lat="44.86175" lon="8.0821467"><ele>191.0</ele><time>2026-04-19T07:00:11.922Z</time></trkpt><trkpt lat="44.8617483" lon="8.0822883"><ele>191.0</ele><time>2026-04-19T07:00:12.923Z</time></trkpt><trkpt lat="44.861745" lon="8.0824033"><ele>191.0</ele><time>2026-04-19T07:00:13.922Z</time></trkpt><trkpt lat="44.8617417" lon="8.0825"><ele>191.0</ele><time>2026-04-19T07:00:14.923Z</time></trkpt><trkpt lat="44.861735" lon="8.0826033"><ele>191.0</ele><time>2026-04-19T07:00:16.923Z</time></trkpt><trkpt lat="44.8617667" lon="8.0827183"><ele>191.0</ele><time>2026-04-19T07:00:19.922Z</time></trkpt><trkpt lat="44.861875" lon="8.0827817"><ele>191.0</ele><time>2026-04-19T07:00:21.923Z</time></trkpt><trkpt lat="44.8619417" lon="8.0828383"><ele>191.0</ele><time>2026-04-19T07:00:22.922Z</time></trkpt><trkpt lat="44.8620167" lon="8.0829317"><ele>191.0</ele><time>2026-04-19T07:00:23.922Z</time></trkpt><trkpt lat="44.862085" lon="8.08304"><ele>191.0</ele><time>2026-04-19T07:00:24.922Z</time></trkpt><trkpt lat="44.8621467" lon="8.0831733"><ele>191.0</ele><time>2026-04-19T07:00:25.923Z</time></trkpt><trkpt lat="44.8622083" lon="8.0833133"><ele>190.60000000000002</ele><time>2026-04-19T07:00:26.922Z</time></trkpt><trkpt lat="44.8622933" lon="8.0834383"><ele>190.2</ele><time>2026-04-19T07:00:27.923Z</time></trkpt><trkpt lat="44.86238" lon="8.0835433"><ele>189.8</ele><time>2026-04-19T07:00:28.922Z</time></trkpt><trkpt lat="44.8624533" lon="8.0836317"><ele>189.39999999999998</ele><time>2026-04-19T07:00:29.922Z</time></trkpt><trkpt lat="44.862515" lon="8.0837217"><ele>189.0</ele><time>2026-04-19T07:00:30.923Z</time></trkpt><trkpt lat="44.8625583" lon="8.0837933"><ele>189.0</ele><time>2026-04-19T07:00:31.923Z</time></trkpt><trkpt lat="44.8625683" lon="8.0839317"><ele>189.0</ele><time>2026-04-19T07:00:33.923Z</time></trkpt><trkpt lat="44.8625383" lon="8.0840267"><ele>189.0</ele><time>2026-04-19T07:00:34.923Z</time></trkpt><trkpt lat="44.8624867" lon="8.0841433"><ele>189.0</ele><time>2026-04-19T07:00:35.922Z</time></trkpt><trkpt lat="44.8624183" lon="8.0842567"><ele>189.0</ele><time>2026-04-19T07:00:36.922Z</time></trkpt><trkpt lat="44.8623317" lon="8.0843617"><ele>188.25</ele><time>2026-04-19T07:00:37.923Z</time></trkpt><trkpt lat="44.8622117" lon="8.0844683"><ele>187.5</ele><time>2026-04-19T07:00:38.922Z</time></trkpt><trkpt lat="44.8620833" lon="8.084565"><ele>186.75</ele><time>2026-04-19T07:00:39.923Z</time></trkpt><trkpt lat="44.86198" lon="8.084675"><ele>186.0</ele><time>2026-04-19T07:00:40.923Z</time></trkpt><trkpt lat="44.8618917" lon="8.0848567"><ele>185.0</ele><time>2026-04-19T07:00:41.922Z</time></trkpt><trkpt lat="44.8618033" lon="8.08505"><ele>184.0</ele><time>2026-04-19T07:00:42.923Z</time></trkpt><trkpt lat="44.8617" lon="8.0852783"><ele>183.0</ele><time>2026-04-19T07:00:43.922Z</time></trkpt><trkpt lat="44.86158" lon="8.0855"><ele>181.0</ele><time>2026-04-19T07:00:44.922Z</time></trkpt><trkpt lat="44.8614733" lon="8.0857033"><ele>179.0</ele><time>2026-04-19T07:00:45.922Z</time></trkpt><trkpt lat="44.8613717" lon="8.08589"><ele>177.0</ele><time>2026-04-19T07:00:46.922Z</time></trkpt><trkpt lat="44.861265" lon="8.08608"><ele>176.33333333333334</ele><time>2026-04-19T07:00:47.922Z</time></trkpt><trkpt lat="44.86116" lon="8.086275"><ele>175.66666666666669</ele><time>2026-04-19T07:00:48.922Z</time></trkpt><trkpt lat="44.861065" lon="8.08645"><ele>175.0</ele><time>2026-04-19T07:00:49.923Z</time></trkpt><trkpt lat="44.8609767" lon="8.0866167"><ele>174.6</ele><time>2026-04-19T07:00:50.923Z</time></trkpt><trkpt lat="44.8609017" lon="8.0867483"><ele>174.2</ele><time>2026-04-19T07:00:51.922Z</time></trkpt><trkpt lat="44.8608417" lon="8.0868633"><ele>173.8</ele><time>2026-04-19T07:00:52.923Z</time></trkpt><trkpt lat="44.8608067" lon="8.0869567"><ele>173.4</ele><time>2026-04-19T07:00:53.922Z</time></trkpt><trkpt lat="44.8608033" lon="8.0870533"><ele>173.0</ele><time>2026-04-19T07:00:55.922Z</time></trkpt><trkpt lat="44.8608883" lon="8.0870767"><ele>172.8</ele><time>2026-04-19T07:00:57.922Z</time></trkpt><trkpt lat="44.860955" lon="8.08707"><ele>172.60000000000002</ele><time>2026-04-19T07:00:58.923Z</time></trkpt><trkpt lat="44.861045" lon="8.0870617"><ele>172.39999999999998</ele><time>2026-04-19T07:00:59.923Z</time></trkpt><trkpt lat="44.8611517" lon="8.0870717"><ele>172.2</ele><time>2026-04-19T07:01:00.923Z</time></trkpt><trkpt lat="44.8612783" lon="8.0870817"><ele>172.0</ele><time>2026-04-19T07:01:01.923Z</time></trkpt><trkpt lat="44.8614167" lon="8.0871117"><ele>172.0</ele><time>2026-04-19T07:01:02.923Z</time></trkpt><trkpt lat="44.861565" lon="8.08716"><ele>172.0</ele><time>2026-04-19T07:01:03.923Z</time></trkpt><trkpt lat="44.8617133" lon="8.087225"><ele>172.0</ele><time>2026-04-19T07:01:04.923Z</time></trkpt><trkpt lat="44.8618617" lon="8.087295"><ele>171.66666666666669</ele><time>2026-04-19T07:01:05.922Z</time></trkpt><trkpt lat="44.8620083" lon="8.0873667"><ele>171.33333333333334</ele><time>2026-04-19T07:01:06.922Z</time></trkpt><trkpt lat="44.8621533" lon="8.0874333"><ele>171.0</ele><time>2026-04-19T07:01:07.923Z</time></trkpt><trkpt lat="44.8622983" lon="8.087495"><ele>171.0</ele><time>2026-04-19T07:01:08.922Z</time></trkpt><trkpt lat="44.8624417" lon="8.0875533"><ele>171.0</ele><time>2026-04-19T07:01:09.923Z</time></trkpt><trkpt lat="44.8625867" lon="8.087615"><ele>171.0</ele><time>2026-04-19T07:01:10.923Z</time></trkpt><trkpt lat="44.8627267" lon="8.087665"><ele>171.0</ele><time>2026-04-19T07:01:11.923Z</time></trkpt><trkpt lat="44.8628767" lon="8.0877067"><ele>172.0</ele><time>2026-04-19T07:01:12.923Z</time></trkpt><trkpt lat="44.863025" lon="8.0877517"><ele>173.0</ele><time>2026-04-19T07:01:13.922Z</time></trkpt><trkpt lat="44.8631583" lon="8.087795"><ele>174.0</ele><time>2026-04-19T07:01:14.923Z</time></trkpt><trkpt lat="44.8632917" lon="8.0878317"><ele>175.0</ele><time>2026-04-19T07:01:15.923Z</time></trkpt><trkpt lat="44.8634233" lon="8.0878583"><ele>175.0</ele><time>2026-04-19T07:01:16.923Z</time></trkpt><trkpt lat="44.86355" lon="8.0878733"><ele>175.0</ele><time>2026-04-19T07:01:17.923Z</time></trkpt><trkpt lat="44.8636617" lon="8.0878783"><ele>175.0</ele><time>2026-04-19T07:01:18.922Z</time></trkpt><trkpt lat="44.863765" lon="8.087895"><ele>175.0</ele><time>2026-04-19T07:01:19.923Z</time></trkpt><trkpt lat="44.8638533" lon="8.0879033"><ele>175.0</ele><time>2026-04-19T07:01:20.923Z</time></trkpt><trkpt lat="44.8639233" lon="8.087915"><ele>175.0</ele><time>2026-04-19T07:01:21.922Z</time></trkpt><trkpt lat="44.8640167" lon="8.0880183"><ele>175.0</ele><time>2026-04-19T07:01:23.923Z</time></trkpt><trkpt lat="44.86401" lon="8.0882117"><ele>175.0</ele><time>2026-04-19T07:01:25.922Z</time></trkpt><trkpt lat="44.8639833" lon="8.0883683"><ele>175.0</ele><time>2026-04-19T07:01:26.923Z</time></trkpt><trkpt lat="44.8639617" lon="8.088545"><ele>174.8</ele><time>2026-04-19T07:01:27.922Z</time></trkpt><trkpt lat="44.8639483" lon="8.0887433"><ele>174.6</ele><time>2026-04-19T07:01:28.922Z</time></trkpt><trkpt lat="44.8639383" lon="8.0889167"><ele>174.39999999999998</ele><time>2026-04-19T07:01:29.922Z</time></trkpt><trkpt lat="44.863925" lon="8.0890567"><ele>174.2</ele><time>2026-04-19T07:01:30.923Z</time></trkpt><trkpt lat="44.863925" lon="8.08916"><ele>174.0</ele><time>2026-04-19T07:01:31.922Z</time></trkpt><trkpt lat="44.8639783" lon="8.0892417"><ele>174.0</ele><time>2026-04-19T07:01:33.922Z</time></trkpt><trkpt lat="44.8640933" lon="8.0891517"><ele>174.0</ele><time>2026-04-19T07:01:35.923Z</time></trkpt><trkpt lat="44.8641667" lon="8.0890417"><ele>174.0</ele><time>2026-04-19T07:01:36.922Z</time></trkpt><trkpt lat="44.8642567" lon="8.0889317"><ele>174.0</ele><time>2026-04-19T07:01:37.922Z</time></trkpt><trkpt lat="44.8643517" lon="8.08884"><ele>174.0</ele><time>2026-04-19T07:01:38.922Z</time></trkpt><trkpt lat="44.8644417" lon="8.0887817"><ele>174.0</ele><time>2026-04-19T07:01:39.923Z</time></trkpt><trkpt lat="44.864525" lon="8.0887633"><ele>174.0</ele><time>2026-04-19T07:01:40.922Z</time></trkpt><trkpt lat="44.8645983" lon="8.0887967"><ele>174.0</ele><time>2026-04-19T07:01:41.923Z</time></trkpt><trkpt lat="44.8646867" lon="8.0888817"><ele>174.0</ele><time>2026-04-19T07:01:42.923Z</time></trkpt><trkpt lat="44.8647833" lon="8.0889967"><ele>173.75</ele><time>2026-04-19T07:01:43.923Z</time></trkpt><trkpt lat="44.8648883" lon="8.0891183"><ele>173.5</ele><time>2026-04-19T07:01:44.923Z</time></trkpt><trkpt lat="44.8649917" lon="8.0892467"><ele>173.25</ele><time>2026-04-19T07:01:45.922Z</time></trkpt><trkpt lat="44.8650933" lon="8.08936"><ele>173.0</ele><time>2026-04-19T07:01:46.922Z</time></trkpt><trkpt lat="44.865195" lon="8.0894633"><ele>173.75</ele><time>2026-04-19T07:01:47.922Z</time></trkpt><trkpt lat="44.8652967" lon="8.0895733"><ele>174.5</ele><time>2026-04-19T07:01:48.923Z</time></trkpt><trkpt lat="44.865415" lon="8.0896883"><ele>175.25</ele><time>2026-04-19T07:01:49.922Z</time></trkpt><trkpt lat="44.8655283" lon="8.0898033"><ele>176.0</ele><time>2026-04-19T07:01:50.923Z</time></trkpt><trkpt lat="44.8656367" lon="8.0899167"><ele>175.25</ele><time>2026-04-19T07:01:51.923Z</time></trkpt><trkpt lat="44.8657583" lon="8.0900167"><ele>174.5</ele><time>2026-04-19T07:01:52.922Z</time></trkpt><trkpt lat="44.8658767" lon="8.0901383"><ele>173.75</ele><time>2026-04-19T07:01:53.922Z</time></trkpt><trkpt lat="44.8659833" lon="8.0902733"><ele>173.0</ele><time>2026-04-19T07:01:54.923Z</time></trkpt><trkpt lat="44.8660967" lon="8.0904033"><ele>173.0</ele><time>2026-04-19T07:01:55.922Z</time></trkpt><trkpt lat="44.8662133" lon="8.0905183"><ele>173.0</ele><time>2026-04-19T07:01:56.923Z</time></trkpt><trkpt lat="44.8663233" lon="8.09063"><ele>173.0</ele><time>2026-04-19T07:01:57.922Z</time></trkpt><trkpt lat="44.8664333" lon="8.0907217"><ele>173.0</ele><time>2026-04-19T07:01:58.923Z</time></trkpt><trkpt lat="44.8665467" lon="8.0907867"><ele>172.5</ele><time>2026-04-19T07:01:59.923Z</time></trkpt><trkpt lat="44.8666733" lon="8.0908333"><ele>172.0</ele><time>2026-04-19T07:02:00.923Z</time></trkpt><trkpt lat="44.8668033" lon="8.090875"><ele>171.5</ele><time>2026-04-19T07:02:01.922Z</time></trkpt><trkpt lat="44.8669317" lon="8.0909167"><ele>171.0</ele><time>2026-04-19T07:02:02.923Z</time></trkpt><trkpt lat="44.8670533" lon="8.09096"><ele>172.0</ele><time>2026-04-19T07:02:03.922Z</time></trkpt><trkpt lat="44.8671817" lon="8.0910067"><ele>173.0</ele><time>2026-04-19T07:02:04.922Z</time></trkpt><trkpt lat="44.867305" lon="8.0910467"><ele>174.0</ele><time>2026-04-19T07:02:05.923Z</time></trkpt><trkpt lat="44.8674117" lon="8.0910733"><ele>175.0</ele><time>2026-04-19T07:02:06.922Z</time></trkpt><trkpt lat="44.8674983" lon="8.091085"><ele>175.0</ele><time>2026-04-19T07:02:07.922Z</time></trkpt><trkpt lat="44.8675683" lon="8.0910817"><ele>175.0</ele><time>2026-04-19T07:02:08.922Z</time></trkpt><trkpt lat="44.8676883" lon="8.091095"><ele>175.0</ele><time>2026-04-19T07:02:10.923Z</time></trkpt><trkpt lat="44.8677817" lon="8.0911883"><ele>175.0</ele><time>2026-04-19T07:02:12.923Z</time></trkpt><trkpt lat="44.86781" lon="8.09127"><ele>175.0</ele><time>2026-04-19T07:02:13.922Z</time></trkpt><trkpt lat="44.8678517" lon="8.09145"><ele>173.83333333333334</ele><time>2026-04-19T07:02:15.922Z</time></trkpt><trkpt lat="44.8678833" lon="8.0915483"><ele>172.66666666666669</ele><time>2026-04-19T07:02:16.923Z</time></trkpt><trkpt lat="44.8679333" lon="8.09164"><ele>171.5</ele><time>2026-04-19T07:02:17.923Z</time></trkpt><trkpt lat="44.8679967" lon="8.0917267"><ele>170.33333333333334</ele><time>2026-04-19T07:02:18.923Z</time></trkpt><trkpt lat="44.8680633" lon="8.0917933"><ele>169.16666666666666</ele><time>2026-04-19T07:02:19.922Z</time></trkpt><trkpt lat="44.86815" lon="8.091845"><ele>168.0</ele><time>2026-04-19T07:02:20.923Z</time></trkpt><trkpt lat="44.8682483" lon="8.0918933"><ele>168.0</ele><time>2026-04-19T07:02:21.922Z</time></trkpt><trkpt lat="44.868375" lon="8.0919483"><ele>168.0</ele><time>2026-04-19T07:02:22.922Z</time></trkpt><trkpt lat="44.8685067" lon="8.0920117"><ele>168.0</ele><time>2026-04-19T07:02:23.922Z</time></trkpt><trkpt lat="44.868625" lon="8.0920783"><ele>168.0</ele><time>2026-04-19T07:02:24.922Z</time></trkpt><trkpt lat="44.8687383" lon="8.0921533"><ele>165.75</ele><time>2026-04-19T07:02:25.923Z</time></trkpt><trkpt lat="44.8688217" lon="8.0922433"><ele>163.5</ele><time>2026-04-19T07:02:26.922Z</time></trkpt><trkpt lat="44.8688933" lon="8.092325"><ele>161.25</ele><time>2026-04-19T07:02:27.922Z</time></trkpt><trkpt lat="44.8690033" lon="8.0923733"><ele>159.0</ele><time>2026-04-19T07:02:29.923Z</time></trkpt><trkpt lat="44.8691467" lon="8.092325"><ele>159.0</ele><time>2026-04-19T07:02:31.923Z</time></trkpt><trkpt lat="44.8692733" lon="8.0922367"><ele>159.0</ele><time>2026-04-19T07:02:32.922Z</time></trkpt><trkpt lat="44.8694133" lon="8.092155"><ele>159.0</ele><time>2026-04-19T07:02:33.923Z</time></trkpt><trkpt lat="44.86956" lon="8.092075"><ele>159.0</ele><time>2026-04-19T07:02:34.923Z</time></trkpt><trkpt lat="44.8697" lon="8.0920083"><ele>159.0</ele><time>2026-04-19T07:02:35.922Z</time></trkpt><trkpt lat="44.8698367" lon="8.0919517"><ele>159.0</ele><time>2026-04-19T07:02:36.922Z</time></trkpt><trkpt lat="44.8699783" lon="8.09189"><ele>159.0</ele><time>2026-04-19T07:02:37.923Z</time></trkpt><trkpt lat="44.8701117" lon="8.0918333"><ele>160.5</ele><time>2026-04-19T07:02:38.922Z</time></trkpt><trkpt lat="44.8702417" lon="8.09176"><ele>162.0</ele><time>2026-04-19T07:02:39.923Z</time></trkpt><trkpt lat="44.8703783" lon="8.0917"><ele>163.5</ele><time>2026-04-19T07:02:40.923Z</time></trkpt><trkpt lat="44.8705233" lon="8.0916567"><ele>165.0</ele><time>2026-04-19T07:02:41.923Z</time></trkpt><trkpt lat="44.8706633" lon="8.09161"><ele>165.6</ele><time>2026-04-19T07:02:42.922Z</time></trkpt><trkpt lat="44.870785" lon="8.091565"><ele>166.2</ele><time>2026-04-19T07:02:43.922Z</time></trkpt><trkpt lat="44.870895" lon="8.0915267"><ele>166.8</ele><time>2026-04-19T07:02:44.923Z</time></trkpt><trkpt lat="44.870995" lon="8.0915"><ele>167.4</ele><time>2026-04-19T07:02:45.923Z</time></trkpt><trkpt lat="44.8710683" lon="8.0915"><ele>168.0</ele><time>2026-04-19T07:02:46.922Z</time></trkpt><trkpt lat="44.8711717" lon="8.0915283"><ele>168.0</ele><time>2026-04-19T07:02:48.922Z</time></trkpt><trkpt lat="44.8712417" lon="8.0915233"><ele>168.0</ele><time>2026-04-19T07:02:49.922Z</time></trkpt><trkpt lat="44.8713267" lon="8.0915117"><ele>168.0</ele><time>2026-04-19T07:02:50.923Z</time></trkpt><trkpt lat="44.8714083" lon="8.0914967"><ele>168.0</ele><time>2026-04-19T07:02:51.923Z</time></trkpt><trkpt lat="44.871475" lon="8.0914917"><ele>168.0</ele><time>2026-04-19T07:02:52.922Z</time></trkpt><trkpt lat="44.8716233" lon="8.0915667"><ele>167.75</ele><time>2026-04-19T07:02:54.922Z</time></trkpt><trkpt lat="44.8716933" lon="8.0916783"><ele>167.5</ele><time>2026-04-19T07:02:55.923Z</time></trkpt><trkpt lat="44.871755" lon="8.091825"><ele>167.25</ele><time>2026-04-19T07:02:56.923Z</time></trkpt><trkpt lat="44.871815" lon="8.09197"><ele>167.0</ele><time>2026-04-19T07:02:57.922Z</time></trkpt><trkpt lat="44.8718767" lon="8.0920883"><ele>167.0</ele><time>2026-04-19T07:02:58.922Z</time></trkpt><trkpt lat="44.871955" lon="8.092175"><ele>167.0</ele><time>2026-04-19T07:02:59.923Z</time></trkpt><trkpt lat="44.872045" lon="8.0922367"><ele>167.0</ele><time>2026-04-19T07:03:00.923Z</time></trkpt><trkpt lat="44.87214" lon="8.092265"><ele>167.0</ele><time>2026-04-19T07:03:01.923Z</time></trkpt><trkpt lat="44.8722517" lon="8.0922567"><ele>167.0</ele><time>2026-04-19T07:03:02.923Z</time></trkpt><trkpt lat="44.8723683" lon="8.0922183"><ele>167.0</ele><time>2026-04-19T07:03:03.923Z</time></trkpt><trkpt lat="44.8725" lon="8.0921833"><ele>167.0</ele><time>2026-04-19T07:03:04.922Z</time></trkpt><trkpt lat="44.872645" lon="8.092145"><ele>167.0</ele><time>2026-04-19T07:03:05.923Z</time></trkpt><trkpt lat="44.872785" lon="8.09212"><ele>167.0</ele><time>2026-04-19T07:03:06.922Z</time></trkpt><trkpt lat="44.87293" lon="8.0920917"><ele>166.75</ele><time>2026-04-19T07:03:07.922Z</time></trkpt><trkpt lat="44.8730667" lon="8.092065"><ele>166.5</ele><time>2026-04-19T07:03:08.923Z</time></trkpt><trkpt lat="44.8732033" lon="8.0920417"><ele>166.25</ele><time>2026-04-19T07:03:09.923Z</time></trkpt><trkpt lat="44.8733317" lon="8.0920233"><ele>166.0</ele><time>2026-04-19T07:03:10.923Z</time></trkpt><trkpt lat="44.8734517" lon="8.0920033"><ele>166.0</ele><time>2026-04-19T07:03:11.922Z</time></trkpt><trkpt lat="44.8735663" lon="8.0919821"><ele>166.0</ele><time>2026-04-19T07:03:12.922Z</time></trkpt><trkpt lat="44.8736767" lon="8.0919655"><ele>166.0</ele><time>2026-04-19T07:03:13.923Z</time></trkpt><trkpt lat="44.8737845" lon="8.0919468"><ele>166.0</ele><time>2026-04-19T07:03:14.923Z</time></trkpt><trkpt lat="44.8738914" lon="8.0919283"><ele>166.0</ele><time>2026-04-19T07:03:15.923Z</time></trkpt><trkpt lat="44.873991" lon="8.0919114"><ele>166.0</ele><time>2026-04-19T07:03:16.923Z</time></trkpt><trkpt lat="44.8740816" lon="8.0918962"><ele>166.0</ele><time>2026-04-19T07:03:17.923Z</time></trkpt><trkpt lat="44.8741675" lon="8.0918758"><ele>166.0</ele><time>2026-04-19T07:03:18.923Z</time></trkpt><trkpt lat="44.8742581" lon="8.0918611"><ele>166.0</ele><time>2026-04-19T07:03:19.923Z</time></trkpt><trkpt lat="44.8743499" lon="8.0918456"><ele>166.0</ele><time>2026-04-19T07:03:20.923Z</time></trkpt><trkpt lat="44.8744442" lon="8.091828"><ele>166.20000000000002</ele><time>2026-04-19T07:03:21.922Z</time></trkpt><trkpt lat="44.8745411" lon="8.0918083"><ele>166.4</ele><time>2026-04-19T07:03:22.922Z</time></trkpt><trkpt lat="44.874649" lon="8.091784"><ele>166.6</ele><time>2026-04-19T07:03:23.923Z</time></trkpt><trkpt lat="44.8747693" lon="8.0917616"><ele>166.8</ele><time>2026-04-19T07:03:24.923Z</time></trkpt><trkpt lat="44.8748862" lon="8.0917393"><ele>167.0</ele><time>2026-04-19T07:03:25.923Z</time></trkpt><trkpt lat="44.8749936" lon="8.0917202"><ele>167.0</ele><time>2026-04-19T07:03:26.922Z</time></trkpt><trkpt lat="44.8750911" lon="8.0916907"><ele>167.0</ele><time>2026-04-19T07:03:27.922Z</time></trkpt><trkpt lat="44.875186" lon="8.0916336"><ele>167.0</ele><time>2026-04-19T07:03:28.923Z</time></trkpt><trkpt lat="44.8752745" lon="8.0915462"><ele>167.0</ele><time>2026-04-19T07:03:29.922Z</time></trkpt><trkpt lat="44.8753556" lon="8.0914469"><ele>167.0</ele><time>2026-04-19T07:03:30.922Z</time></trkpt><trkpt lat="44.8754264" lon="8.0913593"><ele>166.39999999999998</ele><time>2026-04-19T07:03:31.923Z</time></trkpt><trkpt lat="44.8754826" lon="8.091285"><ele>165.79999999999998</ele><time>2026-04-19T07:03:32.922Z</time></trkpt><trkpt lat="44.8755555" lon="8.0911939"><ele>165.2</ele><time>2026-04-19T07:03:34.922Z</time></trkpt><trkpt lat="44.8756219" lon="8.0911671"><ele>164.6</ele><time>2026-04-19T07:03:36.922Z</time></trkpt><trkpt lat="44.8757182" lon="8.091122"><ele>164.0</ele><time>2026-04-19T07:03:38.923Z</time></trkpt><trkpt lat="44.875779" lon="8.0909689"><ele>164.0</ele><time>2026-04-19T07:03:40.923Z</time></trkpt><trkpt lat="44.8758098" lon="8.0908459"><ele>164.0</ele><time>2026-04-19T07:03:41.923Z</time></trkpt><trkpt lat="44.8758466" lon="8.090694"><ele>164.0</ele><time>2026-04-19T07:03:42.922Z</time></trkpt><trkpt lat="44.875882" lon="8.090523"><ele>164.0</ele><time>2026-04-19T07:03:43.922Z</time></trkpt><trkpt lat="44.8759152" lon="8.0903296"><ele>166.5</ele><time>2026-04-19T07:03:44.923Z</time></trkpt><trkpt lat="44.8759416" lon="8.0901355"><ele>169.0</ele><time>2026-04-19T07:03:45.923Z</time></trkpt><trkpt lat="44.8759768" lon="8.0899465"><ele>171.5</ele><time>2026-04-19T07:03:46.922Z</time></trkpt><trkpt lat="44.8760202" lon="8.0897458"><ele>174.0</ele><time>2026-04-19T07:03:47.922Z</time></trkpt><trkpt lat="44.8760719" lon="8.0895269"><ele>175.0</ele><time>2026-04-19T07:03:48.923Z</time></trkpt><trkpt lat="44.8761275" lon="8.0893049"><ele>176.0</ele><time>2026-04-19T07:03:49.922Z</time></trkpt><trkpt lat="44.8761806" lon="8.0890912"><ele>177.0</ele><time>2026-04-19T07:03:50.922Z</time></trkpt><trkpt lat="44.8762285" lon="8.0888831"><ele>175.25</ele><time>2026-04-19T07:03:51.923Z</time></trkpt><trkpt lat="44.8762676" lon="8.0886885"><ele>173.5</ele><time>2026-04-19T07:03:52.922Z</time></trkpt><trkpt lat="44.8762999" lon="8.0884946"><ele>171.75</ele><time>2026-04-19T07:03:53.922Z</time></trkpt><trkpt lat="44.87633" lon="8.0882855"><ele>170.0</ele><time>2026-04-19T07:03:54.922Z</time></trkpt><trkpt lat="44.876341" lon="8.0880607"><ele>170.0</ele><time>2026-04-19T07:03:55.923Z</time></trkpt><trkpt lat="44.876346" lon="8.0878268"><ele>170.0</ele><time>2026-04-19T07:03:56.923Z</time></trkpt><trkpt lat="44.8763465" lon="8.0875955"><ele>170.0</ele><time>2026-04-19T07:03:57.922Z</time></trkpt><trkpt lat="44.8763483" lon="8.0873765"><ele>171.0</ele><time>2026-04-19T07:03:58.923Z</time></trkpt><trkpt lat="44.8763491" lon="8.0871553"><ele>172.0</ele><time>2026-04-19T07:03:59.922Z</time></trkpt><trkpt lat="44.876343" lon="8.0869338"><ele>173.0</ele><time>2026-04-19T07:04:00.923Z</time></trkpt><trkpt lat="44.8763382" lon="8.0867122"><ele>172.66666666666666</ele><time>2026-04-19T07:04:01.923Z</time></trkpt><trkpt lat="44.8763356" lon="8.0864983"><ele>172.33333333333334</ele><time>2026-04-19T07:04:02.922Z</time></trkpt><trkpt lat="44.8763325" lon="8.0862827"><ele>172.0</ele><time>2026-04-19T07:04:03.923Z</time></trkpt><trkpt lat="44.8763343" lon="8.0860646"><ele>172.0</ele><time>2026-04-19T07:04:04.922Z</time></trkpt><trkpt lat="44.8763369" lon="8.0858549"><ele>172.0</ele><time>2026-04-19T07:04:05.922Z</time></trkpt><trkpt lat="44.8763378" lon="8.0856477"><ele>172.0</ele><time>2026-04-19T07:04:06.923Z</time></trkpt><trkpt lat="44.8763383" lon="8.085429"><ele>172.0</ele><time>2026-04-19T07:04:07.923Z</time></trkpt><trkpt lat="44.8763217" lon="8.0852106"><ele>172.0</ele><time>2026-04-19T07:04:08.922Z</time></trkpt><trkpt lat="44.8763036" lon="8.0849971"><ele>172.0</ele><time>2026-04-19T07:04:09.922Z</time></trkpt><trkpt lat="44.8762964" lon="8.0847977"><ele>172.0</ele><time>2026-04-19T07:04:10.922Z</time></trkpt><trkpt lat="44.8763054" lon="8.0846095"><ele>172.0</ele><time>2026-04-19T07:04:11.922Z</time></trkpt><trkpt lat="44.8763383" lon="8.0844129"><ele>172.0</ele><time>2026-04-19T07:04:12.923Z</time></trkpt><trkpt lat="44.8763796" lon="8.0842104"><ele>172.0</ele><time>2026-04-19T07:04:13.922Z</time></trkpt><trkpt lat="44.8764241" lon="8.0840164"><ele>172.0</ele><time>2026-04-19T07:04:14.922Z</time></trkpt><trkpt lat="44.8764697" lon="8.0838256"><ele>172.25</ele><time>2026-04-19T07:04:15.922Z</time></trkpt><trkpt lat="44.8765151" lon="8.0836635"><ele>172.5</ele><time>2026-04-19T07:04:16.922Z</time></trkpt><trkpt lat="44.8765656" lon="8.0835147"><ele>172.75</ele><time>2026-04-19T07:04:17.922Z</time></trkpt><trkpt lat="44.8766208" lon="8.0833789"><ele>173.0</ele><time>2026-04-19T07:04:18.923Z</time></trkpt><trkpt lat="44.8766516" lon="8.0832436"><ele>173.75</ele><time>2026-04-19T07:04:19.922Z</time></trkpt><trkpt lat="44.8766597" lon="8.0830815"><ele>174.5</ele><time>2026-04-19T07:04:20.923Z</time></trkpt><trkpt lat="44.8766627" lon="8.0829037"><ele>175.25</ele><time>2026-04-19T07:04:21.922Z</time></trkpt><trkpt lat="44.8766711" lon="8.0827375"><ele>176.0</ele><time>2026-04-19T07:04:22.922Z</time></trkpt><trkpt lat="44.8766875" lon="8.0825846"><ele>176.0</ele><time>2026-04-19T07:04:23.923Z</time></trkpt><trkpt lat="44.8766975" lon="8.0824392"><ele>176.0</ele><time>2026-04-19T07:04:24.922Z</time></trkpt><trkpt lat="44.8767104" lon="8.0823051"><ele>176.0</ele><time>2026-04-19T07:04:25.922Z</time></trkpt><trkpt lat="44.87673" lon="8.0821913"><ele>176.0</ele><time>2026-04-19T07:04:26.923Z</time></trkpt><trkpt lat="44.8767452" lon="8.0820897"><ele>176.0</ele><time>2026-04-19T07:04:27.923Z</time></trkpt><trkpt lat="44.8767127" lon="8.0819844"><ele>176.0</ele><time>2026-04-19T07:04:29.923Z</time></trkpt><trkpt lat="44.8765891" lon="8.0819037"><ele>177.4</ele><time>2026-04-19T07:04:31.923Z</time></trkpt><trkpt lat="44.8765017" lon="8.0818468"><ele>178.8</ele><time>2026-04-19T07:04:32.924Z</time></trkpt><trkpt lat="44.8764245" lon="8.0817748"><ele>180.20000000000002</ele><time>2026-04-19T07:04:33.924Z</time></trkpt><trkpt lat="44.8763593" lon="8.0816817"><ele>181.60000000000002</ele><time>2026-04-19T07:04:34.924Z</time></trkpt><trkpt lat="44.8763008" lon="8.0815853"><ele>183.0</ele><time>2026-04-19T07:04:35.923Z</time></trkpt><trkpt lat="44.8762498" lon="8.0814994"><ele>183.60000000000002</ele><time>2026-04-19T07:04:36.923Z</time></trkpt><trkpt lat="44.8762089" lon="8.0814156"><ele>184.20000000000002</ele><time>2026-04-19T07:04:37.923Z</time></trkpt><trkpt lat="44.8761754" lon="8.0813064"><ele>184.8</ele><time>2026-04-19T07:04:38.924Z</time></trkpt><trkpt lat="44.8761486" lon="8.081172"><ele>185.4</ele><time>2026-04-19T07:04:39.924Z</time></trkpt><trkpt lat="44.8761229" lon="8.0810289"><ele>186.0</ele><time>2026-04-19T07:04:40.923Z</time></trkpt><trkpt lat="44.8760953" lon="8.0808935"><ele>186.0</ele><time>2026-04-19T07:04:41.924Z</time></trkpt><trkpt lat="44.8760636" lon="8.0807662"><ele>186.0</ele><time>2026-04-19T07:04:42.923Z</time></trkpt><trkpt lat="44.8760396" lon="8.0806381"><ele>186.0</ele><time>2026-04-19T07:04:43.923Z</time></trkpt><trkpt lat="44.876018" lon="8.0805131"><ele>186.0</ele><time>2026-04-19T07:04:44.923Z</time></trkpt><trkpt lat="44.8760031" lon="8.0803924"><ele>186.0</ele><time>2026-04-19T07:04:45.924Z</time></trkpt><trkpt lat="44.875989" lon="8.0802718"><ele>186.16666666666666</ele><time>2026-04-19T07:04:46.923Z</time></trkpt><trkpt lat="44.8759747" lon="8.0801545"><ele>186.33333333333334</ele><time>2026-04-19T07:04:47.924Z</time></trkpt><trkpt lat="44.8759675" lon="8.0800302"><ele>186.5</ele><time>2026-04-19T07:04:48.923Z</time></trkpt><trkpt lat="44.87596" lon="8.079895"><ele>186.66666666666669</ele><time>2026-04-19T07:04:49.923Z</time></trkpt><trkpt lat="44.8759517" lon="8.0797683"><ele>186.83333333333334</ele><time>2026-04-19T07:04:50.923Z</time></trkpt><trkpt lat="44.8759417" lon="8.079665"><ele>187.0</ele><time>2026-04-19T07:04:51.923Z</time></trkpt><trkpt lat="44.87594" lon="8.0795583"><ele>189.66666666666669</ele><time>2026-04-19T07:04:52.924Z</time></trkpt><trkpt lat="44.8759233" lon="8.0794483"><ele>192.33333333333334</ele><time>2026-04-19T07:04:53.924Z</time></trkpt><trkpt lat="44.875915" lon="8.0793333"><ele>195.0</ele><time>2026-04-19T07:04:54.923Z</time></trkpt><trkpt lat="44.87591" lon="8.0792167"><ele>197.66666666666669</ele><time>2026-04-19T07:04:55.924Z</time></trkpt><trkpt lat="44.8759033" lon="8.0790833"><ele>200.33333333333334</ele><time>2026-04-19T07:04:56.923Z</time></trkpt><trkpt lat="44.8759033" lon="8.078955"><ele>203.0</ele><time>2026-04-19T07:04:57.924Z</time></trkpt><trkpt lat="44.875915" lon="8.0788167"><ele>204.2</ele><time>2026-04-19T07:04:58.923Z</time></trkpt><trkpt lat="44.8759233" lon="8.0786783"><ele>205.4</ele><time>2026-04-19T07:04:59.923Z</time></trkpt><trkpt lat="44.87593" lon="8.0785317"><ele>206.6</ele><time>2026-04-19T07:05:00.923Z</time></trkpt><trkpt lat="44.875935" lon="8.0784"><ele>207.79999999999998</ele><time>2026-04-19T07:05:01.924Z</time></trkpt><trkpt lat="44.8759367" lon="8.0782867"><ele>209.0</ele><time>2026-04-19T07:05:02.923Z</time></trkpt><trkpt lat="44.8759383" lon="8.0781783"><ele>210.00000000000003</ele><time>2026-04-19T07:05:03.924Z</time></trkpt><trkpt lat="44.8759283" lon="8.0780717"><ele>211.0</ele><time>2026-04-19T07:05:04.923Z</time></trkpt><trkpt lat="44.87592" lon="8.077975"><ele>212.0</ele><time>2026-04-19T07:05:05.923Z</time></trkpt><trkpt lat="44.875875" lon="8.0778183"><ele>213.0</ele><time>2026-04-19T07:05:07.923Z</time></trkpt><trkpt lat="44.8758367" lon="8.0777417"><ele>214.00000000000003</ele><time>2026-04-19T07:05:08.924Z</time></trkpt><trkpt lat="44.8757967" lon="8.0776717"><ele>215.0</ele><time>2026-04-19T07:05:09.923Z</time></trkpt><trkpt lat="44.8757133" lon="8.0776"><ele>215.00000000000003</ele><time>2026-04-19T07:05:11.923Z</time></trkpt><trkpt lat="44.87565" lon="8.07755"><ele>215.0</ele><time>2026-04-19T07:05:13.923Z</time></trkpt><trkpt lat="44.875625" lon="8.077425"><ele>215.0</ele><time>2026-04-19T07:05:16.923Z</time></trkpt><trkpt lat="44.8756717" lon="8.0772933"><ele>215.0</ele><time>2026-04-19T07:05:18.924Z</time></trkpt><trkpt lat="44.8757217" lon="8.0771733"><ele>215.00000000000003</ele><time>2026-04-19T07:05:20.923Z</time></trkpt><trkpt lat="44.8757067" lon="8.0770767"><ele>215.0</ele><time>2026-04-19T07:05:23.923Z</time></trkpt><trkpt lat="44.8756217" lon="8.0771517"><ele>215.8</ele><time>2026-04-19T07:05:26.923Z</time></trkpt><trkpt lat="44.8755517" lon="8.0772817"><ele>216.6</ele><time>2026-04-19T07:05:28.923Z</time></trkpt><trkpt lat="44.8754867" lon="8.0773267"><ele>217.39999999999998</ele><time>2026-04-19T07:05:30.924Z</time></trkpt><trkpt lat="44.87541" lon="8.0772683"><ele>218.2</ele><time>2026-04-19T07:05:33.924Z</time></trkpt><trkpt lat="44.8753283" lon="8.0771683"><ele>219.0</ele><time>2026-04-19T07:05:36.923Z</time></trkpt><trkpt lat="44.8752217" lon="8.077065"><ele>219.0</ele><time>2026-04-19T07:05:38.924Z</time></trkpt><trkpt lat="44.875165" lon="8.077015"><ele>219.0</ele><time>2026-04-19T07:05:39.923Z</time></trkpt><trkpt lat="44.8751167" lon="8.0769567"><ele>219.0</ele><time>2026-04-19T07:05:40.924Z</time></trkpt><trkpt lat="44.8750317" lon="8.076805"><ele>219.0</ele><time>2026-04-19T07:05:42.924Z</time></trkpt><trkpt lat="44.874985" lon="8.0766983"><ele>219.0</ele><time>2026-04-19T07:05:43.923Z</time></trkpt><trkpt lat="44.8749417" lon="8.076585"><ele>219.0</ele><time>2026-04-19T07:05:44.924Z</time></trkpt><trkpt lat="44.8749067" lon="8.07647"><ele>216.83333333333334</ele><time>2026-04-19T07:05:45.923Z</time></trkpt><trkpt lat="44.8748683" lon="8.0763733"><ele>214.66666666666669</ele><time>2026-04-19T07:05:46.923Z</time></trkpt><trkpt lat="44.8748317" lon="8.07628"><ele>212.5</ele><time>2026-04-19T07:05:47.923Z</time></trkpt><trkpt lat="44.87479" lon="8.076195"><ele>210.33333333333334</ele><time>2026-04-19T07:05:48.923Z</time></trkpt><trkpt lat="44.8747567" lon="8.076085"><ele>208.16666666666669</ele><time>2026-04-19T07:05:49.923Z</time></trkpt><trkpt lat="44.8747283" lon="8.075965"><ele>206.0</ele><time>2026-04-19T07:05:50.924Z</time></trkpt><trkpt lat="44.874705" lon="8.0758517"><ele>204.83333333333334</ele><time>2026-04-19T07:05:51.924Z</time></trkpt><trkpt lat="44.874685" lon="8.07574"><ele>203.66666666666669</ele><time>2026-04-19T07:05:52.924Z</time></trkpt><trkpt lat="44.8746683" lon="8.0756267"><ele>202.5</ele><time>2026-04-19T07:05:53.924Z</time></trkpt><trkpt lat="44.87465" lon="8.075515"><ele>201.33333333333331</ele><time>2026-04-19T07:05:54.924Z</time></trkpt><trkpt lat="44.8746317" lon="8.0754017"><ele>200.16666666666666</ele><time>2026-04-19T07:05:55.924Z</time></trkpt><trkpt lat="44.87461" lon="8.0752917"><ele>199.0</ele><time>2026-04-19T07:05:56.923Z</time></trkpt><trkpt lat="44.8745883" lon="8.0751917"><ele>198.99999999999997</ele><time>2026-04-19T07:05:57.923Z</time></trkpt><trkpt lat="44.87457" lon="8.0750983"><ele>199.0</ele><time>2026-04-19T07:05:58.923Z</time></trkpt><trkpt lat="44.8745233" lon="8.0749867"><ele>199.0</ele><time>2026-04-19T07:06:00.924Z</time></trkpt><trkpt lat="44.8744433" lon="8.0750733"><ele>199.0</ele><time>2026-04-19T07:06:03.924Z</time></trkpt><trkpt lat="44.8743933" lon="8.075215"><ele>198.99999999999997</ele><time>2026-04-19T07:06:05.923Z</time></trkpt><trkpt lat="44.87436" lon="8.0752917"><ele>199.0</ele><time>2026-04-19T07:06:06.923Z</time></trkpt><trkpt lat="44.8743217" lon="8.07537"><ele>198.99999999999997</ele><time>2026-04-19T07:06:07.923Z</time></trkpt><trkpt lat="44.874275" lon="8.0754533"><ele>199.0</ele><time>2026-04-19T07:06:08.924Z</time></trkpt><trkpt lat="44.8742167" lon="8.075535"><ele>199.0</ele><time>2026-04-19T07:06:09.923Z</time></trkpt><trkpt lat="44.8741617" lon="8.075605"><ele>199.0</ele><time>2026-04-19T07:06:10.924Z</time></trkpt><trkpt lat="44.8741" lon="8.075675"><ele>198.99999999999997</ele><time>2026-04-19T07:06:11.924Z</time></trkpt><trkpt lat="44.8740433" lon="8.0757667"><ele>199.0</ele><time>2026-04-19T07:06:12.924Z</time></trkpt><trkpt lat="44.873985" lon="8.0758767"><ele>199.0</ele><time>2026-04-19T07:06:13.923Z</time></trkpt><trkpt lat="44.87392" lon="8.07598"><ele>199.0</ele><time>2026-04-19T07:06:14.923Z</time></trkpt><trkpt lat="44.873855" lon="8.0760733"><ele>199.0</ele><time>2026-04-19T07:06:15.924Z</time></trkpt><trkpt lat="44.87378" lon="8.0761567"><ele>199.0</ele><time>2026-04-19T07:06:16.924Z</time></trkpt><trkpt lat="44.873685" lon="8.0762383"><ele>199.0</ele><time>2026-04-19T07:06:17.923Z</time></trkpt><trkpt lat="44.8735783" lon="8.076315"><ele>199.0</ele><time>2026-04-19T07:06:18.923Z</time></trkpt><trkpt lat="44.87347" lon="8.0763883"><ele>199.0</ele><time>2026-04-19T07:06:19.923Z</time></trkpt><trkpt lat="44.873365" lon="8.0764533"><ele>199.0</ele><time>2026-04-19T07:06:20.924Z</time></trkpt><trkpt lat="44.8732667" lon="8.07651"><ele>199.0</ele><time>2026-04-19T07:06:21.923Z</time></trkpt><trkpt lat="44.873165" lon="8.07655"><ele>199.0</ele><time>2026-04-19T07:06:22.923Z</time></trkpt><trkpt lat="44.87307" lon="8.0765767"><ele>199.33333333333331</ele><time>2026-04-19T07:06:23.923Z</time></trkpt><trkpt lat="44.8729767" lon="8.076595"><ele>199.66666666666666</ele><time>2026-04-19T07:06:24.923Z</time></trkpt><trkpt lat="44.8728917" lon="8.0766317"><ele>200.0</ele><time>2026-04-19T07:06:25.924Z</time></trkpt><trkpt lat="44.8728133" lon="8.0766533"><ele>200.33333333333331</ele><time>2026-04-19T07:06:26.923Z</time></trkpt><trkpt lat="44.8727383" lon="8.0766467"><ele>200.66666666666666</ele><time>2026-04-19T07:06:27.923Z</time></trkpt><trkpt lat="44.8726483" lon="8.0766067"><ele>201.0</ele><time>2026-04-19T07:06:28.924Z</time></trkpt><trkpt lat="44.8725383" lon="8.0765667"><ele>201.0</ele><time>2026-04-19T07:06:29.923Z</time></trkpt><trkpt lat="44.8724233" lon="8.0765383"><ele>201.0</ele><time>2026-04-19T07:06:30.924Z</time></trkpt><trkpt lat="44.8723083" lon="8.0765183"><ele>201.0</ele><time>2026-04-19T07:06:31.924Z</time></trkpt><trkpt lat="44.8721967" lon="8.076495"><ele>201.0</ele><time>2026-04-19T07:06:32.924Z</time></trkpt><trkpt lat="44.872085" lon="8.07648"><ele>201.0</ele><time>2026-04-19T07:06:33.924Z</time></trkpt><trkpt lat="44.87198" lon="8.0764733"><ele>201.0</ele><time>2026-04-19T07:06:34.923Z</time></trkpt><trkpt lat="44.8718867" lon="8.0764717"><ele>201.0</ele><time>2026-04-19T07:06:35.924Z</time></trkpt><trkpt lat="44.8717967" lon="8.07649"><ele>201.0</ele><time>2026-04-19T07:06:36.924Z</time></trkpt><trkpt lat="44.8717017" lon="8.076525"><ele>201.0</ele><time>2026-04-19T07:06:37.924Z</time></trkpt><trkpt lat="44.8716017" lon="8.0765683"><ele>200.8</ele><time>2026-04-19T07:06:38.923Z</time></trkpt><trkpt lat="44.8715033" lon="8.0766033"><ele>200.60000000000002</ele><time>2026-04-19T07:06:39.923Z</time></trkpt><trkpt lat="44.8714067" lon="8.0766183"><ele>200.4</ele><time>2026-04-19T07:06:40.923Z</time></trkpt><trkpt lat="44.8713117" lon="8.076625"><ele>200.2</ele><time>2026-04-19T07:06:41.924Z</time></trkpt><trkpt lat="44.8712117" lon="8.0766167"><ele>200.0</ele><time>2026-04-19T07:06:42.923Z</time></trkpt><trkpt lat="44.871105" lon="8.0765933"><ele>200.0</ele><time>2026-04-19T07:06:43.924Z</time></trkpt><trkpt lat="44.870995" lon="8.0765683"><ele>200.0</ele><time>2026-04-19T07:06:44.923Z</time></trkpt><trkpt lat="44.8708817" lon="8.07655"><ele>200.0</ele><time>2026-04-19T07:06:45.923Z</time></trkpt><trkpt lat="44.8707767" lon="8.0765417"><ele>200.0</ele><time>2026-04-19T07:06:46.924Z</time></trkpt><trkpt lat="44.870675" lon="8.07654"><ele>200.0</ele><time>2026-04-19T07:06:47.924Z</time></trkpt><trkpt lat="44.8705717" lon="8.076545"><ele>199.50000000000003</ele><time>2026-04-19T07:06:48.924Z</time></trkpt><trkpt lat="44.8704733" lon="8.0765483"><ele>199.0</ele><time>2026-04-19T07:06:49.924Z</time></trkpt><trkpt lat="44.8703883" lon="8.0765733"><ele>198.5</ele><time>2026-04-19T07:06:50.923Z</time></trkpt><trkpt lat="44.8703217" lon="8.0766067"><ele>198.0</ele><time>2026-04-19T07:06:51.923Z</time></trkpt><trkpt lat="44.8702417" lon="8.076625"><ele>197.50000000000003</ele><time>2026-04-19T07:06:53.924Z</time></trkpt><trkpt lat="44.8701917" lon="8.0765"><ele>197.0</ele><time>2026-04-19T07:06:56.923Z</time></trkpt><trkpt lat="44.87018" lon="8.0763317"><ele>197.00000000000003</ele><time>2026-04-19T07:06:58.923Z</time></trkpt><trkpt lat="44.870175" lon="8.0762417"><ele>197.0</ele><time>2026-04-19T07:06:59.924Z</time></trkpt><trkpt lat="44.87016" lon="8.07613"><ele>197.0</ele><time>2026-04-19T07:07:00.924Z</time></trkpt><trkpt lat="44.8701517" lon="8.0760067"><ele>197.0</ele><time>2026-04-19T07:07:01.923Z</time></trkpt><trkpt lat="44.8701467" lon="8.0758967"><ele>197.00000000000003</ele><time>2026-04-19T07:07:02.923Z</time></trkpt><trkpt lat="44.8701433" lon="8.0758"><ele>197.0</ele><time>2026-04-19T07:07:03.924Z</time></trkpt><trkpt lat="44.8701583" lon="8.07568"><ele>197.39999999999998</ele><time>2026-04-19T07:07:05.924Z</time></trkpt><trkpt lat="44.87021" lon="8.0755967"><ele>197.79999999999998</ele><time>2026-04-19T07:07:07.923Z</time></trkpt><trkpt lat="44.8702967" lon="8.07552"><ele>198.2</ele><time>2026-04-19T07:07:09.923Z</time></trkpt><trkpt lat="44.870385" lon="8.0754917"><ele>198.6</ele><time>2026-04-19T07:07:11.924Z</time></trkpt><trkpt lat="44.8705283" lon="8.0755183"><ele>199.0</ele><time>2026-04-19T07:07:13.923Z</time></trkpt><trkpt lat="44.8706317" lon="8.0755167"><ele>199.0</ele><time>2026-04-19T07:07:14.923Z</time></trkpt><trkpt lat="44.8707483" lon="8.0754983"><ele>199.0</ele><time>2026-04-19T07:07:15.923Z</time></trkpt><trkpt lat="44.8708683" lon="8.0755"><ele>199.0</ele><time>2026-04-19T07:07:16.924Z</time></trkpt><trkpt lat="44.8709767" lon="8.0755217"><ele>199.0</ele><time>2026-04-19T07:07:17.924Z</time></trkpt><trkpt lat="44.8710917" lon="8.0755317"><ele>200.79999999999998</ele><time>2026-04-19T07:07:18.924Z</time></trkpt><trkpt lat="44.8711917" lon="8.0755183"><ele>202.6</ele><time>2026-04-19T07:07:19.923Z</time></trkpt><trkpt lat="44.87129" lon="8.07549"><ele>204.4</ele><time>2026-04-19T07:07:20.924Z</time></trkpt><trkpt lat="44.8713867" lon="8.075455"><ele>206.2</ele><time>2026-04-19T07:07:21.924Z</time></trkpt><trkpt lat="44.8714883" lon="8.075425"><ele>208.0</ele><time>2026-04-19T07:07:22.924Z</time></trkpt><trkpt lat="44.8715883" lon="8.0753733"><ele>208.0</ele><time>2026-04-19T07:07:23.923Z</time></trkpt><trkpt lat="44.8716817" lon="8.0752917"><ele>208.0</ele><time>2026-04-19T07:07:24.924Z</time></trkpt><trkpt lat="44.8717733" lon="8.0751867"><ele>208.0</ele><time>2026-04-19T07:07:25.923Z</time></trkpt><trkpt lat="44.871865" lon="8.0750733"><ele>208.0</ele><time>2026-04-19T07:07:26.923Z</time></trkpt><trkpt lat="44.871955" lon="8.074965"><ele>209.0</ele><time>2026-04-19T07:07:27.924Z</time></trkpt><trkpt lat="44.8720467" lon="8.0748683"><ele>210.0</ele><time>2026-04-19T07:07:28.924Z</time></trkpt><trkpt lat="44.872135" lon="8.07478"><ele>211.0</ele><time>2026-04-19T07:07:29.923Z</time></trkpt><trkpt lat="44.8722183" lon="8.0747083"><ele>212.0</ele><time>2026-04-19T07:07:30.923Z</time></trkpt><trkpt lat="44.872305" lon="8.07466"><ele>213.0</ele><time>2026-04-19T07:07:31.923Z</time></trkpt><trkpt lat="44.8723933" lon="8.074625"><ele>213.0</ele><time>2026-04-19T07:07:32.923Z</time></trkpt><trkpt lat="44.8724833" lon="8.07457"><ele>213.0</ele><time>2026-04-19T07:07:33.924Z</time></trkpt><trkpt lat="44.872585" lon="8.0744667"><ele>213.0</ele><time>2026-04-19T07:07:34.923Z</time></trkpt><trkpt lat="44.8726867" lon="8.0743533"><ele>213.0</ele><time>2026-04-19T07:07:35.923Z</time></trkpt><trkpt lat="44.872775" lon="8.0742467"><ele>214.4</ele><time>2026-04-19T07:07:36.923Z</time></trkpt><trkpt lat="44.872855" lon="8.0741367"><ele>215.8</ele><time>2026-04-19T07:07:37.923Z</time></trkpt><trkpt lat="44.8729283" lon="8.074015"><ele>217.2</ele><time>2026-04-19T07:07:38.924Z</time></trkpt><trkpt lat="44.872995" lon="8.0738867"><ele>218.6</ele><time>2026-04-19T07:07:39.923Z</time></trkpt><trkpt lat="44.873055" lon="8.0737583"><ele>220.0</ele><time>2026-04-19T07:07:40.924Z</time></trkpt><trkpt lat="44.8731083" lon="8.073625"><ele>220.33333333333331</ele><time>2026-04-19T07:07:41.924Z</time></trkpt><trkpt lat="44.8731617" lon="8.0735117"><ele>220.66666666666666</ele><time>2026-04-19T07:07:42.923Z</time></trkpt><trkpt lat="44.8732267" lon="8.0734183"><ele>221.0</ele><time>2026-04-19T07:07:43.923Z</time></trkpt><trkpt lat="44.8732917" lon="8.073335"><ele>221.33333333333331</ele><time>2026-04-19T07:07:44.923Z</time></trkpt><trkpt lat="44.873365" lon="8.0732683"><ele>221.66666666666666</ele><time>2026-04-19T07:07:45.924Z</time></trkpt><trkpt lat="44.8734383" lon="8.0732083"><ele>222.0</ele><time>2026-04-19T07:07:46.923Z</time></trkpt><trkpt lat="44.8735217" lon="8.0731633"><ele>222.83333333333334</ele><time>2026-04-19T07:07:47.923Z</time></trkpt><trkpt lat="44.8736033" lon="8.0731283"><ele>223.66666666666669</ele><time>2026-04-19T07:07:48.924Z</time></trkpt><trkpt lat="44.8736917" lon="8.0730933"><ele>224.5</ele><time>2026-04-19T07:07:49.924Z</time></trkpt><trkpt lat="44.8737717" lon="8.0730567"><ele>225.33333333333334</ele><time>2026-04-19T07:07:50.924Z</time></trkpt><trkpt lat="44.873855" lon="8.0729967"><ele>226.16666666666669</ele><time>2026-04-19T07:07:51.924Z</time></trkpt><trkpt lat="44.8739267" lon="8.0729317"><ele>227.0</ele><time>2026-04-19T07:07:52.923Z</time></trkpt><trkpt lat="44.874" lon="8.07285"><ele>227.0</ele><time>2026-04-19T07:07:53.924Z</time></trkpt><trkpt lat="44.8740817" lon="8.0727567"><ele>227.0</ele><time>2026-04-19T07:07:54.923Z</time></trkpt><trkpt lat="44.8741717" lon="8.0726567"><ele>227.0</ele><time>2026-04-19T07:07:55.923Z</time></trkpt><trkpt lat="44.87425" lon="8.0725667"><ele>227.0</ele><time>2026-04-19T07:07:56.924Z</time></trkpt><trkpt lat="44.8743167" lon="8.072485"><ele>227.0</ele><time>2026-04-19T07:07:57.924Z</time></trkpt><trkpt lat="44.8743833" lon="8.07242"><ele>226.83333333333334</ele><time>2026-04-19T07:07:58.924Z</time></trkpt><trkpt lat="44.874455" lon="8.0723733"><ele>226.66666666666669</ele><time>2026-04-19T07:07:59.923Z</time></trkpt><trkpt lat="44.8745183" lon="8.07235"><ele>226.5</ele><time>2026-04-19T07:08:00.923Z</time></trkpt><trkpt lat="44.8746" lon="8.07234"><ele>226.33333333333331</ele><time>2026-04-19T07:08:01.923Z</time></trkpt><trkpt lat="44.8746867" lon="8.072355"><ele>226.16666666666666</ele><time>2026-04-19T07:08:02.924Z</time></trkpt><trkpt lat="44.8747667" lon="8.0723583"><ele>226.0</ele><time>2026-04-19T07:08:03.923Z</time></trkpt><trkpt lat="44.8748617" lon="8.07233"><ele>226.0</ele><time>2026-04-19T07:08:04.924Z</time></trkpt><trkpt lat="44.8749383" lon="8.0722717"><ele>226.00000000000003</ele><time>2026-04-19T07:08:05.924Z</time></trkpt><trkpt lat="44.8750067" lon="8.0721867"><ele>226.00000000000003</ele><time>2026-04-19T07:08:06.923Z</time></trkpt><trkpt lat="44.8750733" lon="8.0720767"><ele>226.0</ele><time>2026-04-19T07:08:07.924Z</time></trkpt><trkpt lat="44.8751483" lon="8.07197"><ele>226.0</ele><time>2026-04-19T07:08:08.923Z</time></trkpt><trkpt lat="44.8752267" lon="8.0718683"><ele>225.33333333333331</ele><time>2026-04-19T07:08:09.923Z</time></trkpt><trkpt lat="44.8752933" lon="8.071775"><ele>224.66666666666666</ele><time>2026-04-19T07:08:10.923Z</time></trkpt><trkpt lat="44.8753583" lon="8.0716867"><ele>224.0</ele><time>2026-04-19T07:08:11.923Z</time></trkpt><trkpt lat="44.8754267" lon="8.0716067"><ele>223.33333333333331</ele><time>2026-04-19T07:08:12.923Z</time></trkpt><trkpt lat="44.8755017" lon="8.0715367"><ele>222.66666666666666</ele><time>2026-04-19T07:08:13.923Z</time></trkpt><trkpt lat="44.87557" lon="8.0714667"><ele>222.0</ele><time>2026-04-19T07:08:14.923Z</time></trkpt><trkpt lat="44.8756283" lon="8.0713933"><ele>223.5</ele><time>2026-04-19T07:08:15.924Z</time></trkpt><trkpt lat="44.8756817" lon="8.071285"><ele>225.0</ele><time>2026-04-19T07:08:16.923Z</time></trkpt><trkpt lat="44.8757367" lon="8.0711833"><ele>226.5</ele><time>2026-04-19T07:08:17.923Z</time></trkpt><trkpt lat="44.8757817" lon="8.071105"><ele>228.0</ele><time>2026-04-19T07:08:18.924Z</time></trkpt><trkpt lat="44.87583" lon="8.0710233"><ele>229.5</ele><time>2026-04-19T07:08:19.924Z</time></trkpt><trkpt lat="44.875875" lon="8.0709383"><ele>231.0</ele><time>2026-04-19T07:08:20.924Z</time></trkpt><trkpt lat="44.8759233" lon="8.0708583"><ele>230.57142857142856</ele><time>2026-04-19T07:08:21.924Z</time></trkpt><trkpt lat="44.87597" lon="8.0707783"><ele>230.14285714285714</ele><time>2026-04-19T07:08:22.924Z</time></trkpt><trkpt lat="44.876015" lon="8.070705"><ele>229.71428571428572</ele><time>2026-04-19T07:08:23.923Z</time></trkpt><trkpt lat="44.876065" lon="8.070615"><ele>229.28571428571428</ele><time>2026-04-19T07:08:24.923Z</time></trkpt><trkpt lat="44.876115" lon="8.0705383"><ele>228.85714285714283</ele><time>2026-04-19T07:08:25.923Z</time></trkpt><trkpt lat="44.8761683" lon="8.070455"><ele>228.42857142857142</ele><time>2026-04-19T07:08:26.924Z</time></trkpt><trkpt lat="44.876215" lon="8.0703817"><ele>228.0</ele><time>2026-04-19T07:08:27.924Z</time></trkpt><trkpt lat="44.876265" lon="8.070305"><ele>228.0</ele><time>2026-04-19T07:08:28.923Z</time></trkpt><trkpt lat="44.87631" lon="8.0702183"><ele>228.0</ele><time>2026-04-19T07:08:29.923Z</time></trkpt><trkpt lat="44.8763567" lon="8.0701067"><ele>228.0</ele><time>2026-04-19T07:08:30.923Z</time></trkpt><trkpt lat="44.8764067" lon="8.0699667"><ele>228.0</ele><time>2026-04-19T07:08:31.924Z</time></trkpt><trkpt lat="44.8764667" lon="8.0698217"><ele>228.0</ele><time>2026-04-19T07:08:32.923Z</time></trkpt><trkpt lat="44.8765467" lon="8.06967"><ele>229.25</ele><time>2026-04-19T07:08:33.923Z</time></trkpt><trkpt lat="44.8766167" lon="8.0695383"><ele>230.5</ele><time>2026-04-19T07:08:34.923Z</time></trkpt><trkpt lat="44.8766767" lon="8.069405"><ele>231.75</ele><time>2026-04-19T07:08:35.923Z</time></trkpt><trkpt lat="44.876735" lon="8.0692617"><ele>233.0</ele><time>2026-04-19T07:08:36.923Z</time></trkpt><trkpt lat="44.8767817" lon="8.0691133"><ele>231.8</ele><time>2026-04-19T07:08:37.924Z</time></trkpt><trkpt lat="44.8768317" lon="8.0689717"><ele>230.60000000000002</ele><time>2026-04-19T07:08:38.923Z</time></trkpt><trkpt lat="44.8768717" lon="8.0688383"><ele>229.39999999999998</ele><time>2026-04-19T07:08:39.923Z</time></trkpt><trkpt lat="44.8769072" lon="8.0687125"><ele>228.2</ele><time>2026-04-19T07:08:40.924Z</time></trkpt><trkpt lat="44.8769456" lon="8.0685699"><ele>227.0</ele><time>2026-04-19T07:08:41.924Z</time></trkpt><trkpt lat="44.876981" lon="8.0684173"><ele>229.25</ele><time>2026-04-19T07:08:42.924Z</time></trkpt><trkpt lat="44.8770212" lon="8.0682582"><ele>231.5</ele><time>2026-04-19T07:08:43.923Z</time></trkpt><trkpt lat="44.8770668" lon="8.0680984"><ele>233.75</ele><time>2026-04-19T07:08:44.923Z</time></trkpt><trkpt lat="44.8771062" lon="8.0679419"><ele>236.0</ele><time>2026-04-19T07:08:45.923Z</time></trkpt><trkpt lat="44.8771426" lon="8.0677942"><ele>236.0</ele><time>2026-04-19T07:08:46.924Z</time></trkpt><trkpt lat="44.8771726" lon="8.0676539"><ele>236.00000000000003</ele><time>2026-04-19T07:08:47.924Z</time></trkpt><trkpt lat="44.8772114" lon="8.0675157"><ele>236.00000000000003</ele><time>2026-04-19T07:08:48.924Z</time></trkpt><trkpt lat="44.87724" lon="8.0673797"><ele>236.0</ele><time>2026-04-19T07:08:49.923Z</time></trkpt><trkpt lat="44.8772586" lon="8.0672419"><ele>236.0</ele><time>2026-04-19T07:08:50.924Z</time></trkpt><trkpt lat="44.8772763" lon="8.0670992"><ele>238.0</ele><time>2026-04-19T07:08:51.923Z</time></trkpt><trkpt lat="44.8772871" lon="8.0669417"><ele>240.00000000000003</ele><time>2026-04-19T07:08:52.923Z</time></trkpt><trkpt lat="44.8772926" lon="8.0667846"><ele>242.00000000000003</ele><time>2026-04-19T07:08:53.924Z</time></trkpt><trkpt lat="44.8772859" lon="8.066637"><ele>244.0</ele><time>2026-04-19T07:08:54.923Z</time></trkpt><trkpt lat="44.8772711" lon="8.0664935"><ele>246.0</ele><time>2026-04-19T07:08:55.923Z</time></trkpt><trkpt lat="44.8772584" lon="8.0663589"><ele>248.0</ele><time>2026-04-19T07:08:56.923Z</time></trkpt><trkpt lat="44.8772411" lon="8.0662466"><ele>250.0</ele><time>2026-04-19T07:08:57.923Z</time></trkpt><trkpt lat="44.8772259" lon="8.0661537"><ele>252.0</ele><time>2026-04-19T07:08:58.924Z</time></trkpt><trkpt lat="44.8772206" lon="8.0660582"><ele>254.0</ele><time>2026-04-19T07:08:59.923Z</time></trkpt><trkpt lat="44.8772285" lon="8.0659638"><ele>256.0</ele><time>2026-04-19T07:09:00.924Z</time></trkpt><trkpt lat="44.8772538" lon="8.0658515"><ele>258.0</ele><time>2026-04-19T07:09:01.924Z</time></trkpt><trkpt lat="44.8772869" lon="8.0657268"><ele>258.8</ele><time>2026-04-19T07:09:02.924Z</time></trkpt><trkpt lat="44.8773274" lon="8.065581"><ele>259.6</ele><time>2026-04-19T07:09:03.924Z</time></trkpt><trkpt lat="44.8773724" lon="8.0654328"><ele>260.4</ele><time>2026-04-19T07:09:04.924Z</time></trkpt><trkpt lat="44.8774198" lon="8.0652911"><ele>261.2</ele><time>2026-04-19T07:09:05.924Z</time></trkpt><trkpt lat="44.8774652" lon="8.0651629"><ele>262.0</ele><time>2026-04-19T07:09:06.924Z</time></trkpt><trkpt lat="44.8774982" lon="8.0650335"><ele>260.4</ele><time>2026-04-19T07:09:07.924Z</time></trkpt><trkpt lat="44.8775272" lon="8.0649045"><ele>258.79999999999995</ele><time>2026-04-19T07:09:08.923Z</time></trkpt><trkpt lat="44.8775561" lon="8.0647721"><ele>257.2</ele><time>2026-04-19T07:09:09.924Z</time></trkpt><trkpt lat="44.8775936" lon="8.0646463"><ele>255.6</ele><time>2026-04-19T07:09:10.923Z</time></trkpt><trkpt lat="44.8776435" lon="8.0645355"><ele>254.0</ele><time>2026-04-19T07:09:11.923Z</time></trkpt><trkpt lat="44.8777006" lon="8.0644321"><ele>253.50000000000003</ele><time>2026-04-19T07:09:12.924Z</time></trkpt><trkpt lat="44.8777548" lon="8.0643368"><ele>253.0</ele><time>2026-04-19T07:09:13.924Z</time></trkpt><trkpt lat="44.87781" lon="8.0642555"><ele>252.5</ele><time>2026-04-19T07:09:14.924Z</time></trkpt><trkpt lat="44.8778649" lon="8.064168"><ele>252.0</ele><time>2026-04-19T07:09:15.924Z</time></trkpt><trkpt lat="44.8779051" lon="8.064075"><ele>251.50000000000003</ele><time>2026-04-19T07:09:16.924Z</time></trkpt><trkpt lat="44.8779225" lon="8.0639781"><ele>251.0</ele><time>2026-04-19T07:09:17.923Z</time></trkpt><trkpt lat="44.877922" lon="8.0638693"><ele>250.16666666666669</ele><time>2026-04-19T07:09:18.924Z</time></trkpt><trkpt lat="44.8779193" lon="8.0637509"><ele>249.33333333333334</ele><time>2026-04-19T07:09:19.923Z</time></trkpt><trkpt lat="44.8779233" lon="8.0636221"><ele>248.5</ele><time>2026-04-19T07:09:20.924Z</time></trkpt><trkpt lat="44.8779277" lon="8.0634922"><ele>247.66666666666669</ele><time>2026-04-19T07:09:21.924Z</time></trkpt><trkpt lat="44.8779333" lon="8.0633638"><ele>246.83333333333334</ele><time>2026-04-19T07:09:22.924Z</time></trkpt><trkpt lat="44.877936" lon="8.0632386"><ele>246.0</ele><time>2026-04-19T07:09:23.923Z</time></trkpt><trkpt lat="44.8779348" lon="8.0631065"><ele>244.60000000000002</ele><time>2026-04-19T07:09:24.923Z</time></trkpt><trkpt lat="44.8779248" lon="8.0629865"><ele>243.20000000000002</ele><time>2026-04-19T07:09:25.923Z</time></trkpt><trkpt lat="44.8779075" lon="8.062871"><ele>241.79999999999998</ele><time>2026-04-19T07:09:26.924Z</time></trkpt><trkpt lat="44.8778797" lon="8.0627557"><ele>240.39999999999998</ele><time>2026-04-19T07:09:27.924Z</time></trkpt><trkpt lat="44.8778433" lon="8.0626283"><ele>239.0</ele><time>2026-04-19T07:09:28.924Z</time></trkpt><trkpt lat="44.8778033" lon="8.0624883"><ele>237.75</ele><time>2026-04-19T07:09:29.924Z</time></trkpt><trkpt lat="44.877755" lon="8.0623317"><ele>236.5</ele><time>2026-04-19T07:09:30.923Z</time></trkpt><trkpt lat="44.8776983" lon="8.062175"><ele>235.25</ele><time>2026-04-19T07:09:31.923Z</time></trkpt><trkpt lat="44.8776283" lon="8.062025"><ele>234.0</ele><time>2026-04-19T07:09:32.924Z</time></trkpt><trkpt lat="44.8775567" lon="8.0618633"><ele>238.6</ele><time>2026-04-19T07:09:33.923Z</time></trkpt><trkpt lat="44.8774917" lon="8.061715"><ele>243.2</ele><time>2026-04-19T07:09:34.923Z</time></trkpt><trkpt lat="44.8774383" lon="8.0615733"><ele>247.79999999999998</ele><time>2026-04-19T07:09:35.924Z</time></trkpt><trkpt lat="44.8774067" lon="8.0614383"><ele>252.39999999999998</ele><time>2026-04-19T07:09:36.924Z</time></trkpt><trkpt lat="44.8773933" lon="8.0612883"><ele>257.0</ele><time>2026-04-19T07:09:37.924Z</time></trkpt><trkpt lat="44.8773867" lon="8.0611383"><ele>257.0</ele><time>2026-04-19T07:09:38.924Z</time></trkpt><trkpt lat="44.877385" lon="8.060975"><ele>257.0</ele><time>2026-04-19T07:09:39.924Z</time></trkpt><trkpt lat="44.8773783" lon="8.0608183"><ele>257.0</ele><time>2026-04-19T07:09:40.923Z</time></trkpt><trkpt lat="44.8773767" lon="8.0606717"><ele>257.0</ele><time>2026-04-19T07:09:41.924Z</time></trkpt><trkpt lat="44.8773783" lon="8.060525"><ele>257.0</ele><time>2026-04-19T07:09:42.924Z</time></trkpt><trkpt lat="44.877385" lon="8.0603833"><ele>256.6</ele><time>2026-04-19T07:09:43.923Z</time></trkpt><trkpt lat="44.8773967" lon="8.06024"><ele>256.2</ele><time>2026-04-19T07:09:44.924Z</time></trkpt><trkpt lat="44.8774183" lon="8.06009"><ele>255.8</ele><time>2026-04-19T07:09:45.924Z</time></trkpt><trkpt lat="44.8774567" lon="8.059945"><ele>255.4</ele><time>2026-04-19T07:09:46.923Z</time></trkpt><trkpt lat="44.8775167" lon="8.05982"><ele>255.0</ele><time>2026-04-19T07:09:47.923Z</time></trkpt><trkpt lat="44.877585" lon="8.0596983"><ele>253.0</ele><time>2026-04-19T07:09:48.924Z</time></trkpt><trkpt lat="44.877665" lon="8.0595883"><ele>251.0</ele><time>2026-04-19T07:09:49.924Z</time></trkpt><trkpt lat="44.8777317" lon="8.0594917"><ele>249.0</ele><time>2026-04-19T07:09:50.923Z</time></trkpt><trkpt lat="44.877775" lon="8.059385"><ele>247.0</ele><time>2026-04-19T07:09:51.924Z</time></trkpt><trkpt lat="44.87781" lon="8.0592583"><ele>245.0</ele><time>2026-04-19T07:09:52.924Z</time></trkpt><trkpt lat="44.8778383" lon="8.0591233"><ele>246.6</ele><time>2026-04-19T07:09:53.924Z</time></trkpt><trkpt lat="44.8778633" lon="8.0589817"><ele>248.2</ele><time>2026-04-19T07:09:54.923Z</time></trkpt><trkpt lat="44.8778917" lon="8.0588467"><ele>249.8</ele><time>2026-04-19T07:09:55.924Z</time></trkpt><trkpt lat="44.8779183" lon="8.058725"><ele>251.4</ele><time>2026-04-19T07:09:56.924Z</time></trkpt><trkpt lat="44.87795" lon="8.0585933"><ele>253.0</ele><time>2026-04-19T07:09:57.923Z</time></trkpt><trkpt lat="44.8779717" lon="8.0584467"><ele>255.0</ele><time>2026-04-19T07:09:58.923Z</time></trkpt><trkpt lat="44.8779917" lon="8.0582817"><ele>257.0</ele><time>2026-04-19T07:09:59.924Z</time></trkpt><trkpt lat="44.8780217" lon="8.0581267"><ele>259.0</ele><time>2026-04-19T07:10:00.923Z</time></trkpt><trkpt lat="44.8780583" lon="8.0579767"><ele>261.0</ele><time>2026-04-19T07:10:01.923Z</time></trkpt><trkpt lat="44.8781083" lon="8.0578417"><ele>261.0</ele><time>2026-04-19T07:10:02.924Z</time></trkpt><trkpt lat="44.8781617" lon="8.0577083"><ele>261.0</ele><time>2026-04-19T07:10:03.923Z</time></trkpt><trkpt lat="44.8782183" lon="8.0575817"><ele>261.0</ele><time>2026-04-19T07:10:04.923Z</time></trkpt><trkpt lat="44.8782733" lon="8.05746"><ele>261.0</ele><time>2026-04-19T07:10:05.923Z</time></trkpt><trkpt lat="44.87832" lon="8.0573333"><ele>261.0</ele><time>2026-04-19T07:10:06.924Z</time></trkpt><trkpt lat="44.8783717" lon="8.0571983"><ele>261.0</ele><time>2026-04-19T07:10:07.924Z</time></trkpt><trkpt lat="44.87842" lon="8.0570533"><ele>261.0</ele><time>2026-04-19T07:10:08.923Z</time></trkpt><trkpt lat="44.8784583" lon="8.0568967"><ele>261.0</ele><time>2026-04-19T07:10:09.924Z</time></trkpt><trkpt lat="44.8784983" lon="8.0567367"><ele>261.0</ele><time>2026-04-19T07:10:10.924Z</time></trkpt><trkpt lat="44.8785367" lon="8.0565867"><ele>261.0</ele><time>2026-04-19T07:10:11.924Z</time></trkpt><trkpt lat="44.878585" lon="8.0564367"><ele>261.0</ele><time>2026-04-19T07:10:12.924Z</time></trkpt><trkpt lat="44.8786383" lon="8.0562783"><ele>261.0</ele><time>2026-04-19T07:10:13.924Z</time></trkpt><trkpt lat="44.878685" lon="8.0561083"><ele>261.0</ele><time>2026-04-19T07:10:14.923Z</time></trkpt><trkpt lat="44.8787333" lon="8.0559633"><ele>261.0</ele><time>2026-04-19T07:10:15.924Z</time></trkpt><trkpt lat="44.8787917" lon="8.055825"><ele>261.0</ele><time>2026-04-19T07:10:16.924Z</time></trkpt><trkpt lat="44.878855" lon="8.0556983"><ele>261.0</ele><time>2026-04-19T07:10:17.923Z</time></trkpt><trkpt lat="44.87894" lon="8.0555717"><ele>261.0</ele><time>2026-04-19T07:10:18.924Z</time></trkpt><trkpt lat="44.879021" lon="8.0554437"><ele>261.40000000000003</ele><time>2026-04-19T07:10:19.923Z</time></trkpt><trkpt lat="44.8790973" lon="8.0553271"><ele>261.8</ele><time>2026-04-19T07:10:20.924Z</time></trkpt><trkpt lat="44.8791686" lon="8.0552165"><ele>262.20000000000005</ele><time>2026-04-19T07:10:21.924Z</time></trkpt><trkpt lat="44.8792402" lon="8.0551078"><ele>262.6</ele><time>2026-04-19T07:10:22.924Z</time></trkpt><trkpt lat="44.8793154" lon="8.0549982"><ele>263.0</ele><time>2026-04-19T07:10:23.923Z</time></trkpt><trkpt lat="44.8793844" lon="8.054901"><ele>264.33333333333337</ele><time>2026-04-19T07:10:24.924Z</time></trkpt><trkpt lat="44.8794418" lon="8.0548145"><ele>265.6666666666667</ele><time>2026-04-19T07:10:25.924Z</time></trkpt><trkpt lat="44.8794936" lon="8.0547384"><ele>267.0</ele><time>2026-04-19T07:10:26.923Z</time></trkpt><trkpt lat="44.8795777" lon="8.0546445"><ele>268.3333333333333</ele><time>2026-04-19T07:10:28.924Z</time></trkpt><trkpt lat="44.8796285" lon="8.0545891"><ele>269.66666666666663</ele><time>2026-04-19T07:10:30.923Z</time></trkpt><trkpt lat="44.8797062" lon="8.0545818"><ele>271.0</ele><time>2026-04-19T07:10:32.924Z</time></trkpt><trkpt lat="44.8798111" lon="8.0546018"><ele>271.0</ele><time>2026-04-19T07:10:34.924Z</time></trkpt><trkpt lat="44.8799393" lon="8.0545836"><ele>271.0</ele><time>2026-04-19T07:10:36.923Z</time></trkpt><trkpt lat="44.8800087" lon="8.0545577"><ele>271.0</ele><time>2026-04-19T07:10:37.923Z</time></trkpt><trkpt lat="44.8800794" lon="8.0545248"><ele>271.0</ele><time>2026-04-19T07:10:38.923Z</time></trkpt><trkpt lat="44.8801564" lon="8.0544919"><ele>271.0</ele><time>2026-04-19T07:10:39.924Z</time></trkpt><trkpt lat="44.880238" lon="8.0544765"><ele>271.0</ele><time>2026-04-19T07:10:40.924Z</time></trkpt><trkpt lat="44.8803145" lon="8.0545001"><ele>270.0</ele><time>2026-04-19T07:10:41.924Z</time></trkpt><trkpt lat="44.8803823" lon="8.0545619"><ele>269.0</ele><time>2026-04-19T07:10:42.923Z</time></trkpt><trkpt lat="44.8804448" lon="8.0546603"><ele>268.0</ele><time>2026-04-19T07:10:43.923Z</time></trkpt><trkpt lat="44.880493" lon="8.054777"><ele>267.0</ele><time>2026-04-19T07:10:44.924Z</time></trkpt><trkpt lat="44.8805315" lon="8.0549064"><ele>266.0</ele><time>2026-04-19T07:10:45.924Z</time></trkpt><trkpt lat="44.8805573" lon="8.055041"><ele>266.0</ele><time>2026-04-19T07:10:46.924Z</time></trkpt><trkpt lat="44.8805789" lon="8.0551853"><ele>266.0</ele><time>2026-04-19T07:10:47.923Z</time></trkpt><trkpt lat="44.880591" lon="8.0553328"><ele>266.0</ele><time>2026-04-19T07:10:48.924Z</time></trkpt><trkpt lat="44.8805992" lon="8.0554864"><ele>266.0</ele><time>2026-04-19T07:10:49.923Z</time></trkpt><trkpt lat="44.8806069" lon="8.0556459"><ele>266.0</ele><time>2026-04-19T07:10:50.923Z</time></trkpt><trkpt lat="44.8806155" lon="8.0557978"><ele>267.2</ele><time>2026-04-19T07:10:51.923Z</time></trkpt><trkpt lat="44.8806232" lon="8.0559499"><ele>268.40000000000003</ele><time>2026-04-19T07:10:52.924Z</time></trkpt><trkpt lat="44.8806331" lon="8.0561053"><ele>269.6</ele><time>2026-04-19T07:10:53.923Z</time></trkpt><trkpt lat="44.8806442" lon="8.0562609"><ele>270.8</ele><time>2026-04-19T07:10:54.924Z</time></trkpt><trkpt lat="44.8806587" lon="8.0564062"><ele>272.0</ele><time>2026-04-19T07:10:55.923Z</time></trkpt><trkpt lat="44.880671" lon="8.0565403"><ele>272.0</ele><time>2026-04-19T07:10:56.923Z</time></trkpt><trkpt lat="44.8806954" lon="8.0566572"><ele>272.0</ele><time>2026-04-19T07:10:57.923Z</time></trkpt><trkpt lat="44.8807317" lon="8.0567623"><ele>272.0</ele><time>2026-04-19T07:10:58.923Z</time></trkpt><trkpt lat="44.8807629" lon="8.0568454"><ele>272.0</ele><time>2026-04-19T07:10:59.923Z</time></trkpt><trkpt lat="44.8807824" lon="8.0570219"><ele>272.0</ele><time>2026-04-19T07:11:01.923Z</time></trkpt><trkpt lat="44.8807744" lon="8.0571419"><ele>272.0</ele><time>2026-04-19T07:11:02.923Z</time></trkpt><trkpt lat="44.8807666" lon="8.0572873"><ele>271.2</ele><time>2026-04-19T07:11:03.923Z</time></trkpt><trkpt lat="44.8807581" lon="8.0574525"><ele>270.4</ele><time>2026-04-19T07:11:04.924Z</time></trkpt><trkpt lat="44.8807433" lon="8.0576194"><ele>269.6</ele><time>2026-04-19T07:11:05.923Z</time></trkpt><trkpt lat="44.8807252" lon="8.0577724"><ele>268.8</ele><time>2026-04-19T07:11:06.923Z</time></trkpt><trkpt lat="44.8807148" lon="8.0579031"><ele>268.0</ele><time>2026-04-19T07:11:07.924Z</time></trkpt><trkpt lat="44.8807062" lon="8.0580154"><ele>268.0</ele><time>2026-04-19T07:11:08.924Z</time></trkpt><trkpt lat="44.8806931" lon="8.0581074"><ele>268.0</ele><time>2026-04-19T07:11:09.923Z</time></trkpt><trkpt lat="44.8806644" lon="8.0582405"><ele>268.0</ele><time>2026-04-19T07:11:11.924Z</time></trkpt><trkpt lat="44.8806006" lon="8.0582879"><ele>268.0</ele><time>2026-04-19T07:11:14.924Z</time></trkpt><trkpt lat="44.8805341" lon="8.0582488"><ele>268.0</ele><time>2026-04-19T07:11:16.924Z</time></trkpt><trkpt lat="44.8804168" lon="8.0582084"><ele>268.0</ele><time>2026-04-19T07:11:18.924Z</time></trkpt><trkpt lat="44.8803488" lon="8.0582007"><ele>268.0</ele><time>2026-04-19T07:11:19.924Z</time></trkpt><trkpt lat="44.8802783" lon="8.0582045"><ele>268.0</ele><time>2026-04-19T07:11:20.924Z</time></trkpt><trkpt lat="44.8802071" lon="8.0582189"><ele>268.0</ele><time>2026-04-19T07:11:21.924Z</time></trkpt><trkpt lat="44.8801404" lon="8.0582519"><ele>268.0</ele><time>2026-04-19T07:11:22.924Z</time></trkpt><trkpt lat="44.880079" lon="8.0582849"><ele>268.0</ele><time>2026-04-19T07:11:23.923Z</time></trkpt><trkpt lat="44.8800174" lon="8.0583233"><ele>268.0</ele><time>2026-04-19T07:11:24.923Z</time></trkpt><trkpt lat="44.8799503" lon="8.0583802"><ele>268.0</ele><time>2026-04-19T07:11:25.923Z</time></trkpt><trkpt lat="44.8798873" lon="8.0584365"><ele>265.7142857142857</ele><time>2026-04-19T07:11:26.923Z</time></trkpt><trkpt lat="44.879827" lon="8.0584897"><ele>263.42857142857144</ele><time>2026-04-19T07:11:27.923Z</time></trkpt><trkpt lat="44.8797676" lon="8.0585329"><ele>261.1428571428571</ele><time>2026-04-19T07:11:28.923Z</time></trkpt><trkpt lat="44.8797107" lon="8.0585759"><ele>258.8571428571429</ele><time>2026-04-19T07:11:29.924Z</time></trkpt><trkpt lat="44.8796544" lon="8.0586269"><ele>256.57142857142856</ele><time>2026-04-19T07:11:30.923Z</time></trkpt><trkpt lat="44.8795969" lon="8.058686"><ele>254.28571428571428</ele><time>2026-04-19T07:11:31.924Z</time></trkpt><trkpt lat="44.8795429" lon="8.0587484"><ele>252.0</ele><time>2026-04-19T07:11:32.924Z</time></trkpt><trkpt lat="44.8794885" lon="8.0588184"><ele>252.0</ele><time>2026-04-19T07:11:33.924Z</time></trkpt><trkpt lat="44.8794361" lon="8.0588844"><ele>252.0</ele><time>2026-04-19T07:11:34.923Z</time></trkpt><trkpt lat="44.8793742" lon="8.0589351"><ele>252.0</ele><time>2026-04-19T07:11:35.924Z</time></trkpt><trkpt lat="44.8792759" lon="8.0589393"><ele>252.0</ele><time>2026-04-19T07:11:37.924Z</time></trkpt><trkpt lat="44.8792241" lon="8.0588557"><ele>252.0</ele><time>2026-04-19T07:11:39.923Z</time></trkpt><trkpt lat="44.8792149" lon="8.0587481"><ele>252.0</ele><time>2026-04-19T07:11:41.924Z</time></trkpt><trkpt lat="44.8792363" lon="8.0586217"><ele>252.0</ele><time>2026-04-19T07:11:43.924Z</time></trkpt><trkpt lat="44.8792658" lon="8.0584429"><ele>252.0</ele><time>2026-04-19T07:11:45.923Z</time></trkpt><trkpt lat="44.8792795" lon="8.0583398"><ele>252.0</ele><time>2026-04-19T07:11:46.923Z</time></trkpt><trkpt lat="44.8792905" lon="8.0582346"><ele>252.0</ele><time>2026-04-19T07:11:47.923Z</time></trkpt><trkpt lat="44.87929" lon="8.058125"><ele>252.0</ele><time>2026-04-19T07:11:48.923Z</time></trkpt><trkpt lat="44.8792567" lon="8.0579717"><ele>249.0</ele><time>2026-04-19T07:11:50.923Z</time></trkpt><trkpt lat="44.8791483" lon="8.057955"><ele>246.0</ele><time>2026-04-19T07:11:52.924Z</time></trkpt><trkpt lat="44.879045" lon="8.05802"><ele>243.0</ele><time>2026-04-19T07:11:54.923Z</time></trkpt><trkpt lat="44.87899" lon="8.058135"><ele>240.0</ele><time>2026-04-19T07:11:55.923Z</time></trkpt><trkpt lat="44.8789433" lon="8.0582467"><ele>237.0</ele><time>2026-04-19T07:11:56.923Z</time></trkpt><trkpt lat="44.8789017" lon="8.0583733"><ele>236.39999999999998</ele><time>2026-04-19T07:11:57.923Z</time></trkpt><trkpt lat="44.8788617" lon="8.0585167"><ele>235.79999999999998</ele><time>2026-04-19T07:11:58.923Z</time></trkpt><trkpt lat="44.87884" lon="8.0586583"><ele>235.2</ele><time>2026-04-19T07:11:59.923Z</time></trkpt><trkpt lat="44.8788317" lon="8.0587933"><ele>234.6</ele><time>2026-04-19T07:12:00.923Z</time></trkpt><trkpt lat="44.8788317" lon="8.0589183"><ele>234.0</ele><time>2026-04-19T07:12:01.923Z</time></trkpt><trkpt lat="44.87883" lon="8.0590367"><ele>232.79999999999998</ele><time>2026-04-19T07:12:02.924Z</time></trkpt><trkpt lat="44.8788133" lon="8.0591483"><ele>231.59999999999997</ele><time>2026-04-19T07:12:03.924Z</time></trkpt><trkpt lat="44.87878" lon="8.05927"><ele>230.4</ele><time>2026-04-19T07:12:04.924Z</time></trkpt><trkpt lat="44.8787467" lon="8.0593933"><ele>229.2</ele><time>2026-04-19T07:12:05.924Z</time></trkpt><trkpt lat="44.878735" lon="8.0595367"><ele>228.0</ele><time>2026-04-19T07:12:06.923Z</time></trkpt><trkpt lat="44.878725" lon="8.0596867"><ele>228.0</ele><time>2026-04-19T07:12:07.924Z</time></trkpt><trkpt lat="44.8786917" lon="8.05984"><ele>228.0</ele><time>2026-04-19T07:12:08.924Z</time></trkpt><trkpt lat="44.8786483" lon="8.0599917"><ele>228.0</ele><time>2026-04-19T07:12:09.923Z</time></trkpt><trkpt lat="44.8786067" lon="8.060115"><ele>228.0</ele><time>2026-04-19T07:12:10.923Z</time></trkpt><trkpt lat="44.8785733" lon="8.060255"><ele>228.0</ele><time>2026-04-19T07:12:11.923Z</time></trkpt><trkpt lat="44.87854" lon="8.060395"><ele>228.16666666666666</ele><time>2026-04-19T07:12:12.923Z</time></trkpt><trkpt lat="44.8785067" lon="8.0605267"><ele>228.33333333333331</ele><time>2026-04-19T07:12:13.924Z</time></trkpt><trkpt lat="44.87847" lon="8.0606383"><ele>228.5</ele><time>2026-04-19T07:12:14.924Z</time></trkpt><trkpt lat="44.878435" lon="8.060745"><ele>228.66666666666666</ele><time>2026-04-19T07:12:15.924Z</time></trkpt><trkpt lat="44.878415" lon="8.0608633"><ele>228.83333333333331</ele><time>2026-04-19T07:12:16.923Z</time></trkpt><trkpt lat="44.8784283" lon="8.0609583"><ele>229.0</ele><time>2026-04-19T07:12:17.923Z</time></trkpt><trkpt lat="44.8784583" lon="8.0610483"><ele>228.6</ele><time>2026-04-19T07:12:18.923Z</time></trkpt><trkpt lat="44.8784933" lon="8.0611383"><ele>228.2</ele><time>2026-04-19T07:12:19.923Z</time></trkpt><trkpt lat="44.8785217" lon="8.06124"><ele>227.79999999999998</ele><time>2026-04-19T07:12:20.923Z</time></trkpt><trkpt lat="44.8785517" lon="8.0613567"><ele>227.39999999999998</ele><time>2026-04-19T07:12:21.923Z</time></trkpt><trkpt lat="44.8785767" lon="8.0615083"><ele>227.0</ele><time>2026-04-19T07:12:22.923Z</time></trkpt><trkpt lat="44.8786133" lon="8.061655"><ele>227.0</ele><time>2026-04-19T07:12:23.923Z</time></trkpt><trkpt lat="44.87866" lon="8.061805"><ele>227.0</ele><time>2026-04-19T07:12:24.924Z</time></trkpt><trkpt lat="44.878715" lon="8.0619433"><ele>227.0</ele><time>2026-04-19T07:12:25.923Z</time></trkpt><trkpt lat="44.8787733" lon="8.0620717"><ele>227.0</ele><time>2026-04-19T07:12:26.923Z</time></trkpt><trkpt lat="44.8788333" lon="8.062205"><ele>227.0</ele><time>2026-04-19T07:12:27.924Z</time></trkpt><trkpt lat="44.8788633" lon="8.0623467"><ele>226.16666666666669</ele><time>2026-04-19T07:12:28.924Z</time></trkpt><trkpt lat="44.8788817" lon="8.0624883"><ele>225.33333333333334</ele><time>2026-04-19T07:12:29.923Z</time></trkpt><trkpt lat="44.8788817" lon="8.062635"><ele>224.5</ele><time>2026-04-19T07:12:30.923Z</time></trkpt><trkpt lat="44.8788717" lon="8.0627533"><ele>223.66666666666669</ele><time>2026-04-19T07:12:31.923Z</time></trkpt><trkpt lat="44.8788833" lon="8.0628483"><ele>222.83333333333334</ele><time>2026-04-19T07:12:32.924Z</time></trkpt><trkpt lat="44.8789083" lon="8.0629483"><ele>222.0</ele><time>2026-04-19T07:12:33.924Z</time></trkpt><trkpt lat="44.8789467" lon="8.0630467"><ele>222.0</ele><time>2026-04-19T07:12:34.923Z</time></trkpt><trkpt lat="44.879" lon="8.0631717"><ele>222.0</ele><time>2026-04-19T07:12:35.924Z</time></trkpt><trkpt lat="44.8790667" lon="8.0633"><ele>222.0</ele><time>2026-04-19T07:12:36.923Z</time></trkpt><trkpt lat="44.8791233" lon="8.0634167"><ele>222.0</ele><time>2026-04-19T07:12:37.923Z</time></trkpt><trkpt lat="44.8791667" lon="8.0635317"><ele>222.0</ele><time>2026-04-19T07:12:38.924Z</time></trkpt><trkpt lat="44.8791817" lon="8.0636467"><ele>222.16666666666666</ele><time>2026-04-19T07:12:39.923Z</time></trkpt><trkpt lat="44.8791783" lon="8.0637433"><ele>222.33333333333331</ele><time>2026-04-19T07:12:40.924Z</time></trkpt><trkpt lat="44.8791267" lon="8.063875"><ele>222.5</ele><time>2026-04-19T07:12:42.924Z</time></trkpt><trkpt lat="44.879115" lon="8.063975"><ele>222.66666666666666</ele><time>2026-04-19T07:12:44.924Z</time></trkpt><trkpt lat="44.8791167" lon="8.0640717"><ele>222.83333333333331</ele><time>2026-04-19T07:12:46.924Z</time></trkpt><trkpt lat="44.8791517" lon="8.06417"><ele>223.0</ele><time>2026-04-19T07:12:48.923Z</time></trkpt><trkpt lat="44.879205" lon="8.0643133"><ele>223.0</ele><time>2026-04-19T07:12:50.924Z</time></trkpt><trkpt lat="44.8792217" lon="8.06441"><ele>223.0</ele><time>2026-04-19T07:12:51.924Z</time></trkpt><trkpt lat="44.879225" lon="8.0645367"><ele>223.0</ele><time>2026-04-19T07:12:52.923Z</time></trkpt><trkpt lat="44.879225" lon="8.06468"><ele>223.0</ele><time>2026-04-19T07:12:53.924Z</time></trkpt><trkpt lat="44.8792217" lon="8.064825"><ele>223.0</ele><time>2026-04-19T07:12:54.924Z</time></trkpt><trkpt lat="44.879215" lon="8.06497"><ele>222.99999999999997</ele><time>2026-04-19T07:12:55.923Z</time></trkpt><trkpt lat="44.879205" lon="8.0650933"><ele>223.0</ele><time>2026-04-19T07:12:56.924Z</time></trkpt><trkpt lat="44.879175" lon="8.0652017"><ele>223.0</ele><time>2026-04-19T07:12:57.924Z</time></trkpt><trkpt lat="44.8791283" lon="8.0652967"><ele>223.0</ele><time>2026-04-19T07:12:58.923Z</time></trkpt><trkpt lat="44.8790583" lon="8.0653817"><ele>222.99999999999997</ele><time>2026-04-19T07:12:59.923Z</time></trkpt><trkpt lat="44.879" lon="8.0654733"><ele>223.0</ele><time>2026-04-19T07:13:00.923Z</time></trkpt><trkpt lat="44.8789583" lon="8.0655883"><ele>223.0</ele><time>2026-04-19T07:13:01.923Z</time></trkpt><trkpt lat="44.87893" lon="8.0657167"><ele>223.0</ele><time>2026-04-19T07:13:02.924Z</time></trkpt><trkpt lat="44.8789033" lon="8.0658517"><ele>223.0</ele><time>2026-04-19T07:13:03.924Z</time></trkpt><trkpt lat="44.8788783" lon="8.0659783"><ele>223.0</ele><time>2026-04-19T07:13:04.924Z</time></trkpt><trkpt lat="44.878845" lon="8.0661067"><ele>223.0</ele><time>2026-04-19T07:13:05.923Z</time></trkpt><trkpt lat="44.8788167" lon="8.066235"><ele>222.2</ele><time>2026-04-19T07:13:06.923Z</time></trkpt><trkpt lat="44.8788" lon="8.06634"><ele>221.4</ele><time>2026-04-19T07:13:07.923Z</time></trkpt><trkpt lat="44.8787933" lon="8.0664867"><ele>220.59999999999997</ele><time>2026-04-19T07:13:09.923Z</time></trkpt><trkpt lat="44.8788883" lon="8.0665417"><ele>219.79999999999998</ele><time>2026-04-19T07:13:13.924Z</time></trkpt><trkpt lat="44.878985" lon="8.0665983"><ele>219.0</ele><time>2026-04-19T07:13:15.923Z</time></trkpt><trkpt lat="44.8790517" lon="8.0666267"><ele>218.5</ele><time>2026-04-19T07:13:16.924Z</time></trkpt><trkpt lat="44.8791267" lon="8.066655"><ele>218.0</ele><time>2026-04-19T07:13:17.923Z</time></trkpt><trkpt lat="44.8792083" lon="8.06668"><ele>217.5</ele><time>2026-04-19T07:13:18.923Z</time></trkpt><trkpt lat="44.8792867" lon="8.0667133"><ele>217.0</ele><time>2026-04-19T07:13:19.923Z</time></trkpt><trkpt lat="44.8793617" lon="8.0667533"><ele>216.5</ele><time>2026-04-19T07:13:20.923Z</time></trkpt><trkpt lat="44.87944" lon="8.066805"><ele>216.0</ele><time>2026-04-19T07:13:21.923Z</time></trkpt><trkpt lat="44.8795083" lon="8.0668767"><ele>218.60000000000002</ele><time>2026-04-19T07:13:22.924Z</time></trkpt><trkpt lat="44.8796117" lon="8.0669667"><ele>221.20000000000002</ele><time>2026-04-19T07:13:23.923Z</time></trkpt><trkpt lat="44.8796933" lon="8.0670383"><ele>223.79999999999998</ele><time>2026-04-19T07:13:24.923Z</time></trkpt><trkpt lat="44.8797733" lon="8.067095"><ele>226.39999999999998</ele><time>2026-04-19T07:13:25.924Z</time></trkpt><trkpt lat="44.87986" lon="8.067145"><ele>229.0</ele><time>2026-04-19T07:13:26.923Z</time></trkpt><trkpt lat="44.8799433" lon="8.0671817"><ele>228.99999999999997</ele><time>2026-04-19T07:13:27.923Z</time></trkpt><trkpt lat="44.8800333" lon="8.0672133"><ele>229.0</ele><time>2026-04-19T07:13:28.924Z</time></trkpt><trkpt lat="44.8801217" lon="8.0672367"><ele>229.0</ele><time>2026-04-19T07:13:29.924Z</time></trkpt><trkpt lat="44.88021" lon="8.0672517"><ele>229.0</ele><time>2026-04-19T07:13:30.923Z</time></trkpt><trkpt lat="44.8802917" lon="8.06726"><ele>228.99999999999997</ele><time>2026-04-19T07:13:31.924Z</time></trkpt><trkpt lat="44.880365" lon="8.0672583"><ele>229.0</ele><time>2026-04-19T07:13:32.924Z</time></trkpt><trkpt lat="44.8804333" lon="8.06725"><ele>229.16666666666666</ele><time>2026-04-19T07:13:33.924Z</time></trkpt><trkpt lat="44.8805017" lon="8.0672283"><ele>229.33333333333331</ele><time>2026-04-19T07:13:34.923Z</time></trkpt><trkpt lat="44.8805617" lon="8.0671933"><ele>229.5</ele><time>2026-04-19T07:13:35.923Z</time></trkpt><trkpt lat="44.8806367" lon="8.0671233"><ele>229.66666666666669</ele><time>2026-04-19T07:13:36.923Z</time></trkpt><trkpt lat="44.8807067" lon="8.06704"><ele>229.83333333333334</ele><time>2026-04-19T07:13:37.925Z</time></trkpt><trkpt lat="44.8807717" lon="8.0669517"><ele>230.0</ele><time>2026-04-19T07:13:38.924Z</time></trkpt><trkpt lat="44.8808267" lon="8.0668867"><ele>230.00000000000003</ele><time>2026-04-19T07:13:39.925Z</time></trkpt><trkpt lat="44.880875" lon="8.0668033"><ele>230.0</ele><time>2026-04-19T07:13:40.924Z</time></trkpt><trkpt lat="44.8809217" lon="8.0666917"><ele>230.0</ele><time>2026-04-19T07:13:41.924Z</time></trkpt><trkpt lat="44.88096" lon="8.0665867"><ele>230.0</ele><time>2026-04-19T07:13:42.925Z</time></trkpt><trkpt lat="44.880985" lon="8.06648"><ele>230.00000000000003</ele><time>2026-04-19T07:13:43.924Z</time></trkpt><trkpt lat="44.8810017" lon="8.0663767"><ele>230.0</ele><time>2026-04-19T07:13:44.925Z</time></trkpt><trkpt lat="44.8810183" lon="8.0662667"><ele>232.83333333333334</ele><time>2026-04-19T07:13:45.924Z</time></trkpt><trkpt lat="44.88101" lon="8.06615"><ele>235.66666666666669</ele><time>2026-04-19T07:13:46.925Z</time></trkpt><trkpt lat="44.8809883" lon="8.0660383"><ele>238.5</ele><time>2026-04-19T07:13:47.924Z</time></trkpt><trkpt lat="44.88096" lon="8.0659183"><ele>241.33333333333331</ele><time>2026-04-19T07:13:48.925Z</time></trkpt><trkpt lat="44.8809467" lon="8.0658233"><ele>244.16666666666666</ele><time>2026-04-19T07:13:49.924Z</time></trkpt><trkpt lat="44.8809717" lon="8.065725"><ele>247.0</ele><time>2026-04-19T07:13:51.925Z</time></trkpt><trkpt lat="44.8810767" lon="8.0657883"><ele>246.99999999999997</ele><time>2026-04-19T07:13:53.924Z</time></trkpt><trkpt lat="44.8811433" lon="8.0658467"><ele>247.0</ele><time>2026-04-19T07:13:54.925Z</time></trkpt><trkpt lat="44.88122" lon="8.0659217"><ele>247.0</ele><time>2026-04-19T07:13:55.924Z</time></trkpt><trkpt lat="44.8813" lon="8.06601"><ele>247.0</ele><time>2026-04-19T07:13:56.924Z</time></trkpt><trkpt lat="44.8813567" lon="8.0660867"><ele>246.99999999999997</ele><time>2026-04-19T07:13:57.924Z</time></trkpt><trkpt lat="44.8814183" lon="8.0661517"><ele>247.0</ele><time>2026-04-19T07:13:58.924Z</time></trkpt><trkpt lat="44.8814717" lon="8.0662267"><ele>247.0</ele><time>2026-04-19T07:13:59.924Z</time></trkpt><trkpt lat="44.88152" lon="8.0663067"><ele>247.0</ele><time>2026-04-19T07:14:00.924Z</time></trkpt><trkpt lat="44.8815517" lon="8.0663983"><ele>247.0</ele><time>2026-04-19T07:14:01.924Z</time></trkpt><trkpt lat="44.8815883" lon="8.066485"><ele>247.0</ele><time>2026-04-19T07:14:02.925Z</time></trkpt><trkpt lat="44.88164" lon="8.06662"><ele>247.0</ele><time>2026-04-19T07:14:04.924Z</time></trkpt><trkpt lat="44.8817567" lon="8.066675"><ele>245.8</ele><time>2026-04-19T07:14:06.924Z</time></trkpt><trkpt lat="44.8818267" lon="8.0666767"><ele>244.6</ele><time>2026-04-19T07:14:08.925Z</time></trkpt><trkpt lat="44.8818567" lon="8.0667917"><ele>243.40000000000003</ele><time>2026-04-19T07:14:14.924Z</time></trkpt><trkpt lat="44.8818483" lon="8.0669317"><ele>242.20000000000002</ele><time>2026-04-19T07:14:16.924Z</time></trkpt><trkpt lat="44.8818533" lon="8.0670683"><ele>241.0</ele><time>2026-04-19T07:14:18.925Z</time></trkpt><trkpt lat="44.8818717" lon="8.0672233"><ele>240.99999999999997</ele><time>2026-04-19T07:14:20.925Z</time></trkpt><trkpt lat="44.8818783" lon="8.0673117"><ele>241.0</ele><time>2026-04-19T07:14:21.925Z</time></trkpt><trkpt lat="44.8818933" lon="8.0674017"><ele>241.0</ele><time>2026-04-19T07:14:22.924Z</time></trkpt><trkpt lat="44.8819317" lon="8.06749"><ele>241.0</ele><time>2026-04-19T07:14:23.925Z</time></trkpt><trkpt lat="44.8820233" lon="8.067645"><ele>240.99999999999997</ele><time>2026-04-19T07:14:25.925Z</time></trkpt><trkpt lat="44.88208" lon="8.0677133"><ele>241.0</ele><time>2026-04-19T07:14:26.925Z</time></trkpt><trkpt lat="44.8821333" lon="8.0677883"><ele>239.83333333333331</ele><time>2026-04-19T07:14:27.925Z</time></trkpt><trkpt lat="44.8822" lon="8.0678783"><ele>238.66666666666666</ele><time>2026-04-19T07:14:28.924Z</time></trkpt><trkpt lat="44.8822617" lon="8.067965"><ele>237.5</ele><time>2026-04-19T07:14:29.924Z</time></trkpt><trkpt lat="44.8823217" lon="8.0680517"><ele>236.33333333333331</ele><time>2026-04-19T07:14:30.924Z</time></trkpt><trkpt lat="44.8823767" lon="8.0681467"><ele>235.16666666666666</ele><time>2026-04-19T07:14:31.925Z</time></trkpt><trkpt lat="44.882425" lon="8.0682467"><ele>234.0</ele><time>2026-04-19T07:14:32.924Z</time></trkpt><trkpt lat="44.8824583" lon="8.068375"><ele>234.0</ele><time>2026-04-19T07:14:33.924Z</time></trkpt><trkpt lat="44.8824783" lon="8.068525"><ele>233.99999999999997</ele><time>2026-04-19T07:14:34.924Z</time></trkpt><trkpt lat="44.882495" lon="8.0686667"><ele>233.99999999999997</ele><time>2026-04-19T07:14:35.925Z</time></trkpt><trkpt lat="44.8825133" lon="8.0687933"><ele>234.0</ele><time>2026-04-19T07:14:36.924Z</time></trkpt><trkpt lat="44.8825383" lon="8.0689333"><ele>234.0</ele><time>2026-04-19T07:14:37.925Z</time></trkpt><trkpt lat="44.88257" lon="8.0690583"><ele>234.0</ele><time>2026-04-19T07:14:38.925Z</time></trkpt><trkpt lat="44.8825983" lon="8.0691817"><ele>234.0</ele><time>2026-04-19T07:14:39.925Z</time></trkpt><trkpt lat="44.8826083" lon="8.0693017"><ele>234.0</ele><time>2026-04-19T07:14:40.924Z</time></trkpt><trkpt lat="44.8826" lon="8.0694117"><ele>234.0</ele><time>2026-04-19T07:14:41.925Z</time></trkpt><trkpt lat="44.8825917" lon="8.06951"><ele>234.0</ele><time>2026-04-19T07:14:42.924Z</time></trkpt><trkpt lat="44.8825733" lon="8.0696117"><ele>234.0</ele><time>2026-04-19T07:14:43.924Z</time></trkpt><trkpt lat="44.8825483" lon="8.0697117"><ele>234.0</ele><time>2026-04-19T07:14:44.924Z</time></trkpt><trkpt lat="44.8825017" lon="8.0697983"><ele>234.0</ele><time>2026-04-19T07:14:45.925Z</time></trkpt><trkpt lat="44.8824533" lon="8.0698917"><ele>234.0</ele><time>2026-04-19T07:14:46.924Z</time></trkpt><trkpt lat="44.8824167" lon="8.0699867"><ele>234.0</ele><time>2026-04-19T07:14:47.925Z</time></trkpt><trkpt lat="44.8823917" lon="8.070075"><ele>234.0</ele><time>2026-04-19T07:14:48.925Z</time></trkpt><trkpt lat="44.8824283" lon="8.070205"><ele>234.0</ele><time>2026-04-19T07:14:50.924Z</time></trkpt><trkpt lat="44.8825167" lon="8.0703183"><ele>233.83333333333334</ele><time>2026-04-19T07:14:52.925Z</time></trkpt><trkpt lat="44.8825817" lon="8.0703633"><ele>233.66666666666669</ele><time>2026-04-19T07:14:53.925Z</time></trkpt><trkpt lat="44.8826467" lon="8.0703867"><ele>233.5</ele><time>2026-04-19T07:14:54.924Z</time></trkpt><trkpt lat="44.8827167" lon="8.0703967"><ele>233.33333333333334</ele><time>2026-04-19T07:14:55.924Z</time></trkpt><trkpt lat="44.8828017" lon="8.07035"><ele>233.16666666666669</ele><time>2026-04-19T07:14:56.925Z</time></trkpt><trkpt lat="44.8829067" lon="8.0702717"><ele>233.0</ele><time>2026-04-19T07:14:57.924Z</time></trkpt><trkpt lat="44.883" lon="8.0702033"><ele>229.66666666666669</ele><time>2026-04-19T07:14:58.925Z</time></trkpt><trkpt lat="44.8830967" lon="8.0701667"><ele>226.33333333333334</ele><time>2026-04-19T07:14:59.925Z</time></trkpt><trkpt lat="44.8831767" lon="8.07014"><ele>223.0</ele><time>2026-04-19T07:15:00.924Z</time></trkpt><trkpt lat="44.883255" lon="8.0701267"><ele>219.66666666666669</ele><time>2026-04-19T07:15:01.925Z</time></trkpt><trkpt lat="44.88333" lon="8.0701467"><ele>216.33333333333334</ele><time>2026-04-19T07:15:02.925Z</time></trkpt><trkpt lat="44.8834017" lon="8.0701833"><ele>213.0</ele><time>2026-04-19T07:15:03.925Z</time></trkpt><trkpt lat="44.8834783" lon="8.07027"><ele>213.0</ele><time>2026-04-19T07:15:04.925Z</time></trkpt><trkpt lat="44.8835583" lon="8.0703617"><ele>213.0</ele><time>2026-04-19T07:15:05.924Z</time></trkpt><trkpt lat="44.8836417" lon="8.0704483"><ele>213.0</ele><time>2026-04-19T07:15:06.925Z</time></trkpt><trkpt lat="44.88373" lon="8.0705367"><ele>213.0</ele><time>2026-04-19T07:15:07.924Z</time></trkpt><trkpt lat="44.8838133" lon="8.0706083"><ele>213.0</ele><time>2026-04-19T07:15:08.925Z</time></trkpt><trkpt lat="44.8838867" lon="8.070685"><ele>213.0</ele><time>2026-04-19T07:15:09.925Z</time></trkpt><trkpt lat="44.8839617" lon="8.0707667"><ele>213.0</ele><time>2026-04-19T07:15:10.924Z</time></trkpt><trkpt lat="44.8840167" lon="8.0708833"><ele>213.0</ele><time>2026-04-19T07:15:11.925Z</time></trkpt><trkpt lat="44.8840633" lon="8.0710017"><ele>213.0</ele><time>2026-04-19T07:15:12.925Z</time></trkpt><trkpt lat="44.884115" lon="8.0711083"><ele>213.0</ele><time>2026-04-19T07:15:13.924Z</time></trkpt><trkpt lat="44.8841633" lon="8.0712167"><ele>213.4</ele><time>2026-04-19T07:15:14.925Z</time></trkpt><trkpt lat="44.8842233" lon="8.0713233"><ele>213.8</ele><time>2026-04-19T07:15:15.924Z</time></trkpt><trkpt lat="44.88427" lon="8.0714317"><ele>214.2</ele><time>2026-04-19T07:15:16.925Z</time></trkpt><trkpt lat="44.88432" lon="8.071545"><ele>214.6</ele><time>2026-04-19T07:15:17.924Z</time></trkpt><trkpt lat="44.8843733" lon="8.0716667"><ele>215.0</ele><time>2026-04-19T07:15:18.925Z</time></trkpt><trkpt lat="44.8844333" lon="8.0717733"><ele>215.00000000000003</ele><time>2026-04-19T07:15:19.924Z</time></trkpt><trkpt lat="44.8844933" lon="8.07186"><ele>215.0</ele><time>2026-04-19T07:15:20.924Z</time></trkpt><trkpt lat="44.8845617" lon="8.0719267"><ele>215.0</ele><time>2026-04-19T07:15:21.924Z</time></trkpt><trkpt lat="44.8846333" lon="8.0719983"><ele>215.0</ele><time>2026-04-19T07:15:22.925Z</time></trkpt><trkpt lat="44.8847133" lon="8.0720833"><ele>215.00000000000003</ele><time>2026-04-19T07:15:23.925Z</time></trkpt><trkpt lat="44.8847717" lon="8.0721683"><ele>215.0</ele><time>2026-04-19T07:15:24.925Z</time></trkpt><trkpt lat="44.884825" lon="8.0722583"><ele>215.0</ele><time>2026-04-19T07:15:25.925Z</time></trkpt><trkpt lat="44.8848783" lon="8.072345"><ele>215.0</ele><time>2026-04-19T07:15:26.924Z</time></trkpt><trkpt lat="44.884925" lon="8.0724217"><ele>215.0</ele><time>2026-04-19T07:15:27.924Z</time></trkpt><trkpt lat="44.8850133" lon="8.0725233"><ele>215.0</ele><time>2026-04-19T07:15:29.925Z</time></trkpt><trkpt lat="44.8851033" lon="8.0726283"><ele>215.0</ele><time>2026-04-19T07:15:31.924Z</time></trkpt><trkpt lat="44.8851583" lon="8.072685"><ele>216.50000000000003</ele><time>2026-04-19T07:15:32.925Z</time></trkpt><trkpt lat="44.8852183" lon="8.0727417"><ele>218.0</ele><time>2026-04-19T07:15:33.925Z</time></trkpt><trkpt lat="44.885275" lon="8.0727983"><ele>219.5</ele><time>2026-04-19T07:15:34.925Z</time></trkpt><trkpt lat="44.8853333" lon="8.0728733"><ele>221.0</ele><time>2026-04-19T07:15:35.924Z</time></trkpt><trkpt lat="44.8853917" lon="8.0729667"><ele>222.50000000000003</ele><time>2026-04-19T07:15:36.925Z</time></trkpt><trkpt lat="44.8854517" lon="8.0730617"><ele>224.0</ele><time>2026-04-19T07:15:37.924Z</time></trkpt><trkpt lat="44.8855167" lon="8.0731767"><ele>221.79999999999998</ele><time>2026-04-19T07:15:38.924Z</time></trkpt><trkpt lat="44.885585" lon="8.073285"><ele>219.59999999999997</ele><time>2026-04-19T07:15:39.924Z</time></trkpt><trkpt lat="44.8856467" lon="8.0734033"><ele>217.4</ele><time>2026-04-19T07:15:40.925Z</time></trkpt><trkpt lat="44.8857067" lon="8.0735317"><ele>215.2</ele><time>2026-04-19T07:15:41.925Z</time></trkpt><trkpt lat="44.8857617" lon="8.0736933"><ele>213.0</ele><time>2026-04-19T07:15:42.924Z</time></trkpt><trkpt lat="44.8858117" lon="8.0738433"><ele>213.0</ele><time>2026-04-19T07:15:43.924Z</time></trkpt><trkpt lat="44.8858467" lon="8.073945"><ele>213.0</ele><time>2026-04-19T07:15:44.924Z</time></trkpt><trkpt lat="44.8858817" lon="8.0740267"><ele>213.0</ele><time>2026-04-19T07:15:45.924Z</time></trkpt><trkpt lat="44.8858367" lon="8.07413"><ele>213.0</ele><time>2026-04-19T07:15:58.924Z</time></trkpt><trkpt lat="44.8858217" lon="8.0743067"><ele>213.0</ele><time>2026-04-19T07:16:00.924Z</time></trkpt><trkpt lat="44.88581" lon="8.0744083"><ele>213.0</ele><time>2026-04-19T07:16:01.925Z</time></trkpt><trkpt lat="44.8857983" lon="8.0745067"><ele>212.28571428571428</ele><time>2026-04-19T07:16:02.925Z</time></trkpt><trkpt lat="44.8857783" lon="8.0746133"><ele>211.57142857142856</ele><time>2026-04-19T07:16:03.925Z</time></trkpt><trkpt lat="44.8857417" lon="8.074715"><ele>210.85714285714283</ele><time>2026-04-19T07:16:04.925Z</time></trkpt><trkpt lat="44.8857133" lon="8.0748083"><ele>210.14285714285714</ele><time>2026-04-19T07:16:05.924Z</time></trkpt><trkpt lat="44.8856933" lon="8.074895"><ele>209.42857142857144</ele><time>2026-04-19T07:16:06.924Z</time></trkpt><trkpt lat="44.885665" lon="8.0749817"><ele>208.7142857142857</ele><time>2026-04-19T07:16:07.924Z</time></trkpt><trkpt lat="44.88562" lon="8.0750567"><ele>208.0</ele><time>2026-04-19T07:16:08.925Z</time></trkpt><trkpt lat="44.8855633" lon="8.07511"><ele>207.49999999999997</ele><time>2026-04-19T07:16:09.925Z</time></trkpt><trkpt lat="44.8854917" lon="8.0751417"><ele>207.0</ele><time>2026-04-19T07:16:10.924Z</time></trkpt><trkpt lat="44.8854183" lon="8.075175"><ele>206.5</ele><time>2026-04-19T07:16:11.925Z</time></trkpt><trkpt lat="44.8853417" lon="8.0752067"><ele>206.0</ele><time>2026-04-19T07:16:12.925Z</time></trkpt><trkpt lat="44.8852667" lon="8.0752383"><ele>205.49999999999997</ele><time>2026-04-19T07:16:13.924Z</time></trkpt><trkpt lat="44.885195" lon="8.0752683"><ele>205.0</ele><time>2026-04-19T07:16:14.924Z</time></trkpt><trkpt lat="44.8851283" lon="8.075305"><ele>201.6</ele><time>2026-04-19T07:16:15.924Z</time></trkpt><trkpt lat="44.8850717" lon="8.07536"><ele>198.2</ele><time>2026-04-19T07:16:16.924Z</time></trkpt><trkpt lat="44.8849667" lon="8.0754467"><ele>194.8</ele><time>2026-04-19T07:16:18.925Z</time></trkpt><trkpt lat="44.8848733" lon="8.0754817"><ele>191.4</ele><time>2026-04-19T07:16:20.924Z</time></trkpt><trkpt lat="44.884835" lon="8.0755983"><ele>188.0</ele><time>2026-04-19T07:16:22.925Z</time></trkpt><trkpt lat="44.88489" lon="8.075785"><ele>187.60000000000002</ele><time>2026-04-19T07:16:24.924Z</time></trkpt><trkpt lat="44.8849367" lon="8.0759067"><ele>187.20000000000002</ele><time>2026-04-19T07:16:25.924Z</time></trkpt><trkpt lat="44.884975" lon="8.0760283"><ele>186.8</ele><time>2026-04-19T07:16:26.924Z</time></trkpt><trkpt lat="44.8850067" lon="8.0761417"><ele>186.4</ele><time>2026-04-19T07:16:27.924Z</time></trkpt><trkpt lat="44.8850283" lon="8.0762383"><ele>186.0</ele><time>2026-04-19T07:16:28.925Z</time></trkpt><trkpt lat="44.8850533" lon="8.07641"><ele>186.0</ele><time>2026-04-19T07:16:30.924Z</time></trkpt><trkpt lat="44.88507" lon="8.076585"><ele>186.0</ele><time>2026-04-19T07:16:32.925Z</time></trkpt><trkpt lat="44.8850817" lon="8.0766833"><ele>186.0</ele><time>2026-04-19T07:16:33.925Z</time></trkpt><trkpt lat="44.8851117" lon="8.0768433"><ele>186.0</ele><time>2026-04-19T07:16:35.924Z</time></trkpt><trkpt lat="44.8851433" lon="8.0769417"><ele>186.0</ele><time>2026-04-19T07:16:37.924Z</time></trkpt><trkpt lat="44.8851917" lon="8.077015"><ele>187.4</ele><time>2026-04-19T07:16:39.925Z</time></trkpt><trkpt lat="44.8851933" lon="8.07711"><ele>188.8</ele><time>2026-04-19T07:16:42.925Z</time></trkpt><trkpt lat="44.8852033" lon="8.0772467"><ele>190.20000000000002</ele><time>2026-04-19T07:16:45.924Z</time></trkpt><trkpt lat="44.885235" lon="8.0774233"><ele>191.60000000000002</ele><time>2026-04-19T07:16:47.925Z</time></trkpt><trkpt lat="44.8852583" lon="8.07755"><ele>193.0</ele><time>2026-04-19T07:16:48.924Z</time></trkpt><trkpt lat="44.8852883" lon="8.0776717"><ele>192.99999999999997</ele><time>2026-04-19T07:16:49.924Z</time></trkpt><trkpt lat="44.8853233" lon="8.077805"><ele>193.0</ele><time>2026-04-19T07:16:50.925Z</time></trkpt><trkpt lat="44.88535" lon="8.0779233"><ele>193.0</ele><time>2026-04-19T07:16:51.924Z</time></trkpt><trkpt lat="44.8853783" lon="8.0780367"><ele>193.0</ele><time>2026-04-19T07:16:52.925Z</time></trkpt><trkpt lat="44.8854067" lon="8.078155"><ele>192.99999999999997</ele><time>2026-04-19T07:16:53.924Z</time></trkpt><trkpt lat="44.8854317" lon="8.0782617"><ele>193.0</ele><time>2026-04-19T07:16:54.924Z</time></trkpt><trkpt lat="44.8854517" lon="8.0783567"><ele>191.60000000000002</ele><time>2026-04-19T07:16:55.925Z</time></trkpt><trkpt lat="44.8854967" lon="8.078485"><ele>190.20000000000002</ele><time>2026-04-19T07:16:57.924Z</time></trkpt><trkpt lat="44.885615" lon="8.078505"><ele>188.8</ele><time>2026-04-19T07:17:07.924Z</time></trkpt><trkpt lat="44.8856833" lon="8.0784833"><ele>187.4</ele><time>2026-04-19T07:17:09.925Z</time></trkpt><trkpt lat="44.8858017" lon="8.0784217"><ele>186.0</ele><time>2026-04-19T07:17:11.924Z</time></trkpt><trkpt lat="44.8858633" lon="8.078395"><ele>190.4</ele><time>2026-04-19T07:17:12.925Z</time></trkpt><trkpt lat="44.88597" lon="8.0783967"><ele>194.8</ele><time>2026-04-19T07:17:26.924Z</time></trkpt><trkpt lat="44.8860067" lon="8.0785033"><ele>199.20000000000002</ele><time>2026-04-19T07:17:28.924Z</time></trkpt><trkpt lat="44.8860433" lon="8.0786533"><ele>203.60000000000002</ele><time>2026-04-19T07:17:30.924Z</time></trkpt><trkpt lat="44.88607" lon="8.0788083"><ele>208.0</ele><time>2026-04-19T07:17:32.925Z</time></trkpt><trkpt lat="44.8860967" lon="8.078905"><ele>207.99999999999997</ele><time>2026-04-19T07:17:33.924Z</time></trkpt><trkpt lat="44.886125" lon="8.079"><ele>208.0</ele><time>2026-04-19T07:17:34.924Z</time></trkpt><trkpt lat="44.8861483" lon="8.0790883"><ele>208.0</ele><time>2026-04-19T07:17:35.925Z</time></trkpt><trkpt lat="44.88619" lon="8.0792283"><ele>208.0</ele><time>2026-04-19T07:17:37.924Z</time></trkpt><trkpt lat="44.886215" lon="8.0793217"><ele>207.99999999999997</ele><time>2026-04-19T07:17:39.924Z</time></trkpt><trkpt lat="44.8862533" lon="8.0794067"><ele>208.0</ele><time>2026-04-19T07:17:59.925Z</time></trkpt><trkpt lat="44.8862733" lon="8.0795633"><ele>206.2</ele><time>2026-04-19T07:18:01.924Z</time></trkpt><trkpt lat="44.8862917" lon="8.0797017"><ele>204.4</ele><time>2026-04-19T07:18:03.924Z</time></trkpt><trkpt lat="44.8863083" lon="8.0798467"><ele>202.6</ele><time>2026-04-19T07:18:05.925Z</time></trkpt><trkpt lat="44.886325" lon="8.0799883"><ele>200.79999999999998</ele><time>2026-04-19T07:18:07.925Z</time></trkpt><trkpt lat="44.8863583" lon="8.0801383"><ele>199.0</ele><time>2026-04-19T07:18:09.924Z</time></trkpt><trkpt lat="44.8863933" lon="8.080245"><ele>198.66666666666666</ele><time>2026-04-19T07:18:11.925Z</time></trkpt><trkpt lat="44.88644" lon="8.0803483"><ele>198.33333333333331</ele><time>2026-04-19T07:18:13.925Z</time></trkpt><trkpt lat="44.886485" lon="8.0804583"><ele>198.0</ele><time>2026-04-19T07:18:15.925Z</time></trkpt><trkpt lat="44.8865383" lon="8.08056"><ele>197.66666666666669</ele><time>2026-04-19T07:18:17.925Z</time></trkpt><trkpt lat="44.8866033" lon="8.0806417"><ele>197.33333333333334</ele><time>2026-04-19T07:18:19.924Z</time></trkpt><trkpt lat="44.886685" lon="8.080705"><ele>197.0</ele><time>2026-04-19T07:18:21.925Z</time></trkpt><trkpt lat="44.8867617" lon="8.0807333"><ele>196.66666666666669</ele><time>2026-04-19T07:18:23.925Z</time></trkpt><trkpt lat="44.8867933" lon="8.08082"><ele>196.33333333333334</ele><time>2026-04-19T07:18:32.925Z</time></trkpt><trkpt lat="44.886795" lon="8.0809317"><ele>196.0</ele><time>2026-04-19T07:19:51.924Z</time></trkpt><trkpt lat="44.8867817" lon="8.0810933"><ele>195.66666666666669</ele><time>2026-04-19T07:19:53.924Z</time></trkpt><trkpt lat="44.88676" lon="8.0811983"><ele>195.33333333333334</ele><time>2026-04-19T07:19:54.925Z</time></trkpt><trkpt lat="44.8867367" lon="8.081295"><ele>195.0</ele><time>2026-04-19T07:19:55.924Z</time></trkpt><trkpt lat="44.8867183" lon="8.0813817"><ele>195.0</ele><time>2026-04-19T07:19:56.925Z</time></trkpt><trkpt lat="44.8867033" lon="8.08147"><ele>195.0</ele><time>2026-04-19T07:19:57.925Z</time></trkpt><trkpt lat="44.88667" lon="8.08164"><ele>195.0</ele><time>2026-04-19T07:19:59.925Z</time></trkpt><trkpt lat="44.8866517" lon="8.0817917"><ele>195.0</ele><time>2026-04-19T07:20:01.925Z</time></trkpt><trkpt lat="44.886625" lon="8.0819067"><ele>195.0</ele><time>2026-04-19T07:20:14.924Z</time></trkpt><trkpt lat="44.8866867" lon="8.0819667"><ele>194.66666666666666</ele><time>2026-04-19T07:20:16.924Z</time></trkpt><trkpt lat="44.8867383" lon="8.0820483"><ele>194.33333333333331</ele><time>2026-04-19T07:20:18.924Z</time></trkpt><trkpt lat="44.8867567" lon="8.0821667"><ele>194.0</ele><time>2026-04-19T07:20:20.924Z</time></trkpt><trkpt lat="44.8867267" lon="8.0823383"><ele>193.66666666666666</ele><time>2026-04-19T07:20:22.925Z</time></trkpt><trkpt lat="44.886705" lon="8.0824417"><ele>193.33333333333331</ele><time>2026-04-19T07:20:23.924Z</time></trkpt><trkpt lat="44.8866867" lon="8.0825417"><ele>193.0</ele><time>2026-04-19T07:20:24.924Z</time></trkpt><trkpt lat="44.8866733" lon="8.0826383"><ele>192.83333333333331</ele><time>2026-04-19T07:20:25.924Z</time></trkpt><trkpt lat="44.8866583" lon="8.0827433"><ele>192.66666666666666</ele><time>2026-04-19T07:20:26.925Z</time></trkpt><trkpt lat="44.88665" lon="8.0828367"><ele>192.5</ele><time>2026-04-19T07:20:27.925Z</time></trkpt><trkpt lat="44.8866567" lon="8.08294"><ele>192.33333333333331</ele><time>2026-04-19T07:20:28.924Z</time></trkpt><trkpt lat="44.8866733" lon="8.0830367"><ele>192.16666666666666</ele><time>2026-04-19T07:20:29.924Z</time></trkpt><trkpt lat="44.8866933" lon="8.0831417"><ele>192.0</ele><time>2026-04-19T07:20:30.925Z</time></trkpt><trkpt lat="44.8867267" lon="8.0832567"><ele>186.6</ele><time>2026-04-19T07:20:31.925Z</time></trkpt><trkpt lat="44.8867617" lon="8.0833733"><ele>181.2</ele><time>2026-04-19T07:20:32.924Z</time></trkpt><trkpt lat="44.886805" lon="8.0835117"><ele>175.8</ele><time>2026-04-19T07:20:33.924Z</time></trkpt><trkpt lat="44.8868533" lon="8.0836483"><ele>170.4</ele><time>2026-04-19T07:20:34.924Z</time></trkpt><trkpt lat="44.8869117" lon="8.0837933"><ele>165.0</ele><time>2026-04-19T07:20:35.924Z</time></trkpt><trkpt lat="44.8869583" lon="8.083935"><ele>165.0</ele><time>2026-04-19T07:20:36.924Z</time></trkpt><trkpt lat="44.8869933" lon="8.0840767"><ele>165.0</ele><time>2026-04-19T07:20:37.925Z</time></trkpt><trkpt lat="44.8870217" lon="8.0842117"><ele>165.0</ele><time>2026-04-19T07:20:38.924Z</time></trkpt><trkpt lat="44.88705" lon="8.08433"><ele>165.0</ele><time>2026-04-19T07:20:39.924Z</time></trkpt><trkpt lat="44.887065" lon="8.0844517"><ele>165.0</ele><time>2026-04-19T07:20:40.925Z</time></trkpt><trkpt lat="44.8870733" lon="8.0845717"><ele>165.16666666666666</ele><time>2026-04-19T07:20:41.924Z</time></trkpt><trkpt lat="44.8870733" lon="8.08469"><ele>165.33333333333334</ele><time>2026-04-19T07:20:42.925Z</time></trkpt><trkpt lat="44.8870633" lon="8.0847967"><ele>165.5</ele><time>2026-04-19T07:20:43.925Z</time></trkpt><trkpt lat="44.88704" lon="8.0849217"><ele>165.66666666666669</ele><time>2026-04-19T07:20:44.924Z</time></trkpt><trkpt lat="44.8870083" lon="8.0850533"><ele>165.83333333333334</ele><time>2026-04-19T07:20:45.925Z</time></trkpt><trkpt lat="44.886975" lon="8.085185"><ele>166.0</ele><time>2026-04-19T07:20:46.925Z</time></trkpt><trkpt lat="44.8869517" lon="8.0853033"><ele>166.0</ele><time>2026-04-19T07:20:47.924Z</time></trkpt><trkpt lat="44.886945" lon="8.08542"><ele>166.0</ele><time>2026-04-19T07:20:48.924Z</time></trkpt><trkpt lat="44.88696" lon="8.085525"><ele>166.0</ele><time>2026-04-19T07:20:49.924Z</time></trkpt><trkpt lat="44.886975" lon="8.0856283"><ele>166.0</ele><time>2026-04-19T07:20:50.924Z</time></trkpt><trkpt lat="44.8869867" lon="8.085735"><ele>166.0</ele><time>2026-04-19T07:20:51.925Z</time></trkpt><trkpt lat="44.8869933" lon="8.0858483"><ele>166.0</ele><time>2026-04-19T07:20:52.924Z</time></trkpt><trkpt lat="44.887005" lon="8.0859767"><ele>166.0</ele><time>2026-04-19T07:20:53.925Z</time></trkpt><trkpt lat="44.88703" lon="8.0860967"><ele>166.0</ele><time>2026-04-19T07:20:54.925Z</time></trkpt><trkpt lat="44.88707" lon="8.0862083"><ele>166.0</ele><time>2026-04-19T07:20:55.925Z</time></trkpt><trkpt lat="44.8871167" lon="8.0863"><ele>166.0</ele><time>2026-04-19T07:20:56.924Z</time></trkpt><trkpt lat="44.887165" lon="8.0863883"><ele>166.0</ele><time>2026-04-19T07:20:57.924Z</time></trkpt><trkpt lat="44.88722" lon="8.08647"><ele>166.0</ele><time>2026-04-19T07:20:58.924Z</time></trkpt><trkpt lat="44.8872833" lon="8.0865333"><ele>166.0</ele><time>2026-04-19T07:20:59.924Z</time></trkpt><trkpt lat="44.88736" lon="8.0865817"><ele>166.0</ele><time>2026-04-19T07:21:00.924Z</time></trkpt><trkpt lat="44.8874533" lon="8.0866117"><ele>166.0</ele><time>2026-04-19T07:21:01.925Z</time></trkpt><trkpt lat="44.8875417" lon="8.086665"><ele>166.0</ele><time>2026-04-19T07:21:02.924Z</time></trkpt><trkpt lat="44.8876183" lon="8.0867283"><ele>166.0</ele><time>2026-04-19T07:21:03.924Z</time></trkpt><trkpt lat="44.8876783" lon="8.0868117"><ele>166.0</ele><time>2026-04-19T07:21:04.925Z</time></trkpt><trkpt lat="44.8877283" lon="8.08691"><ele>166.5</ele><time>2026-04-19T07:21:05.924Z</time></trkpt><trkpt lat="44.8877683" lon="8.0870133"><ele>167.0</ele><time>2026-04-19T07:21:06.925Z</time></trkpt><trkpt lat="44.8877933" lon="8.0871317"><ele>167.5</ele><time>2026-04-19T07:21:07.924Z</time></trkpt><trkpt lat="44.8878017" lon="8.087255"><ele>168.0</ele><time>2026-04-19T07:21:08.924Z</time></trkpt><trkpt lat="44.887805" lon="8.0873667"><ele>168.5</ele><time>2026-04-19T07:21:09.924Z</time></trkpt><trkpt lat="44.8878067" lon="8.087475"><ele>169.0</ele><time>2026-04-19T07:21:10.924Z</time></trkpt><trkpt lat="44.8878283" lon="8.08759"><ele>169.0</ele><time>2026-04-19T07:21:11.925Z</time></trkpt><trkpt lat="44.8878783" lon="8.08769"><ele>169.0</ele><time>2026-04-19T07:21:12.924Z</time></trkpt><trkpt lat="44.8879267" lon="8.0877667"><ele>169.0</ele><time>2026-04-19T07:21:13.925Z</time></trkpt><trkpt lat="44.8879983" lon="8.0878067"><ele>169.0</ele><time>2026-04-19T07:21:14.925Z</time></trkpt><trkpt lat="44.8880867" lon="8.0878183"><ele>169.0</ele><time>2026-04-19T07:21:15.925Z</time></trkpt><trkpt lat="44.88818" lon="8.0878167"><ele>169.0</ele><time>2026-04-19T07:21:16.924Z</time></trkpt><trkpt lat="44.8882983" lon="8.0878317"><ele>169.0</ele><time>2026-04-19T07:21:17.924Z</time></trkpt><trkpt lat="44.8884083" lon="8.087855"><ele>169.0</ele><time>2026-04-19T07:21:18.925Z</time></trkpt><trkpt lat="44.8885133" lon="8.0878967"><ele>169.0</ele><time>2026-04-19T07:21:19.925Z</time></trkpt><trkpt lat="44.8886167" lon="8.08794"><ele>169.0</ele><time>2026-04-19T07:21:20.924Z</time></trkpt><trkpt lat="44.88872" lon="8.0879583"><ele>169.0</ele><time>2026-04-19T07:21:21.925Z</time></trkpt><trkpt lat="44.8888217" lon="8.0879617"><ele>172.2</ele><time>2026-04-19T07:21:22.925Z</time></trkpt><trkpt lat="44.8889183" lon="8.08796"><ele>175.39999999999998</ele><time>2026-04-19T07:21:23.924Z</time></trkpt><trkpt lat="44.8890217" lon="8.087965"><ele>178.6</ele><time>2026-04-19T07:21:24.924Z</time></trkpt><trkpt lat="44.8891317" lon="8.0879717"><ele>181.8</ele><time>2026-04-19T07:21:25.924Z</time></trkpt><trkpt lat="44.8892433" lon="8.0879733"><ele>185.0</ele><time>2026-04-19T07:21:26.924Z</time></trkpt><trkpt lat="44.8893617" lon="8.0879717"><ele>188.8</ele><time>2026-04-19T07:21:27.924Z</time></trkpt><trkpt lat="44.8894817" lon="8.0879717"><ele>192.6</ele><time>2026-04-19T07:21:28.924Z</time></trkpt><trkpt lat="44.8895983" lon="8.0879783"><ele>196.39999999999998</ele><time>2026-04-19T07:21:29.924Z</time></trkpt><trkpt lat="44.8897017" lon="8.087975"><ele>200.2</ele><time>2026-04-19T07:21:30.924Z</time></trkpt><trkpt lat="44.8898033" lon="8.08795"><ele>204.0</ele><time>2026-04-19T07:21:31.924Z</time></trkpt><trkpt lat="44.8899017" lon="8.087925"><ele>204.0</ele><time>2026-04-19T07:21:32.925Z</time></trkpt><trkpt lat="44.8900017" lon="8.0879167"><ele>204.0</ele><time>2026-04-19T07:21:33.924Z</time></trkpt><trkpt lat="44.890105" lon="8.087945"><ele>204.0</ele><time>2026-04-19T07:21:34.924Z</time></trkpt><trkpt lat="44.89021" lon="8.08798"><ele>204.0</ele><time>2026-04-19T07:21:35.924Z</time></trkpt><trkpt lat="44.8902883" lon="8.08802"><ele>204.0</ele><time>2026-04-19T07:21:36.924Z</time></trkpt><trkpt lat="44.89036" lon="8.088035"><ele>206.5</ele><time>2026-04-19T07:21:37.924Z</time></trkpt><trkpt lat="44.8904317" lon="8.088035"><ele>209.0</ele><time>2026-04-19T07:21:38.925Z</time></trkpt><trkpt lat="44.89052" lon="8.0880333"><ele>211.5</ele><time>2026-04-19T07:21:39.924Z</time></trkpt><trkpt lat="44.8906033" lon="8.088035"><ele>214.0</ele><time>2026-04-19T07:21:40.924Z</time></trkpt><trkpt lat="44.890685" lon="8.08805"><ele>216.5</ele><time>2026-04-19T07:21:41.925Z</time></trkpt><trkpt lat="44.89076" lon="8.08806"><ele>219.0</ele><time>2026-04-19T07:21:42.924Z</time></trkpt><trkpt lat="44.8908283" lon="8.0881083"><ele>219.0</ele><time>2026-04-19T07:21:43.925Z</time></trkpt><trkpt lat="44.89091" lon="8.0881917"><ele>218.99999999999997</ele><time>2026-04-19T07:21:44.924Z</time></trkpt><trkpt lat="44.8909917" lon="8.0882717"><ele>218.99999999999997</ele><time>2026-04-19T07:21:45.924Z</time></trkpt><trkpt lat="44.89107" lon="8.0883317"><ele>219.0</ele><time>2026-04-19T07:21:46.924Z</time></trkpt><trkpt lat="44.8911517" lon="8.0883733"><ele>219.0</ele><time>2026-04-19T07:21:47.925Z</time></trkpt><trkpt lat="44.8912667" lon="8.088345"><ele>218.33333333333334</ele><time>2026-04-19T07:21:49.924Z</time></trkpt><trkpt lat="44.891325" lon="8.0882967"><ele>217.66666666666669</ele><time>2026-04-19T07:21:51.924Z</time></trkpt><trkpt lat="44.8914133" lon="8.0882933"><ele>217.0</ele><time>2026-04-19T07:21:54.924Z</time></trkpt><trkpt lat="44.8914933" lon="8.088215"><ele>216.33333333333334</ele><time>2026-04-19T07:21:57.925Z</time></trkpt><trkpt lat="44.891555" lon="8.0881383"><ele>215.66666666666669</ele><time>2026-04-19T07:21:59.924Z</time></trkpt><trkpt lat="44.8916567" lon="8.0880667"><ele>215.0</ele><time>2026-04-19T07:22:01.925Z</time></trkpt><trkpt lat="44.8917583" lon="8.0881133"><ele>214.66666666666669</ele><time>2026-04-19T07:22:03.925Z</time></trkpt><trkpt lat="44.8917683" lon="8.0882567"><ele>214.33333333333334</ele><time>2026-04-19T07:22:05.925Z</time></trkpt><trkpt lat="44.8916933" lon="8.0883867"><ele>214.0</ele><time>2026-04-19T07:22:07.924Z</time></trkpt><trkpt lat="44.8916517" lon="8.08846"><ele>213.66666666666669</ele><time>2026-04-19T07:22:08.925Z</time></trkpt><trkpt lat="44.891605" lon="8.0885383"><ele>213.33333333333334</ele><time>2026-04-19T07:22:09.925Z</time></trkpt><trkpt lat="44.8915567" lon="8.0886183"><ele>213.0</ele><time>2026-04-19T07:22:10.924Z</time></trkpt><trkpt lat="44.89152" lon="8.0886933"><ele>213.0</ele><time>2026-04-19T07:22:11.925Z</time></trkpt><trkpt lat="44.8914833" lon="8.0887717"><ele>213.0</ele><time>2026-04-19T07:22:12.925Z</time></trkpt><trkpt lat="44.8914583" lon="8.0888583"><ele>213.0</ele><time>2026-04-19T07:22:13.924Z</time></trkpt><trkpt lat="44.89143" lon="8.0890083"><ele>213.0</ele><time>2026-04-19T07:22:15.925Z</time></trkpt><trkpt lat="44.8914183" lon="8.0890983"><ele>213.0</ele><time>2026-04-19T07:22:17.924Z</time></trkpt><trkpt lat="44.8914917" lon="8.0890133"><ele>213.0</ele><time>2026-04-19T07:22:21.925Z</time></trkpt><trkpt lat="44.89157" lon="8.0888833"><ele>213.0</ele><time>2026-04-19T07:22:23.924Z</time></trkpt><trkpt lat="44.8916533" lon="8.088815"><ele>213.0</ele><time>2026-04-19T07:22:25.925Z</time></trkpt><trkpt lat="44.8917117" lon="8.0887733"><ele>213.0</ele><time>2026-04-19T07:22:26.924Z</time></trkpt><trkpt lat="44.8917683" lon="8.0887233"><ele>213.0</ele><time>2026-04-19T07:22:27.924Z</time></trkpt><trkpt lat="44.8918383" lon="8.08867"><ele>213.0</ele><time>2026-04-19T07:22:28.925Z</time></trkpt><trkpt lat="44.8919083" lon="8.0886017"><ele>213.0</ele><time>2026-04-19T07:22:29.924Z</time></trkpt><trkpt lat="44.8919817" lon="8.08854"><ele>210.5</ele><time>2026-04-19T07:22:30.925Z</time></trkpt><trkpt lat="44.8920533" lon="8.0885"><ele>208.0</ele><time>2026-04-19T07:22:31.924Z</time></trkpt><trkpt lat="44.8921267" lon="8.0884683"><ele>205.5</ele><time>2026-04-19T07:22:32.925Z</time></trkpt><trkpt lat="44.8922033" lon="8.0884567"><ele>203.0</ele><time>2026-04-19T07:22:33.924Z</time></trkpt><trkpt lat="44.892285" lon="8.0884567"><ele>200.5</ele><time>2026-04-19T07:22:34.924Z</time></trkpt><trkpt lat="44.8923717" lon="8.088465"><ele>198.0</ele><time>2026-04-19T07:22:35.925Z</time></trkpt><trkpt lat="44.8924617" lon="8.0884867"><ele>198.0</ele><time>2026-04-19T07:22:36.925Z</time></trkpt><trkpt lat="44.8925617" lon="8.0885017"><ele>198.0</ele><time>2026-04-19T07:22:37.924Z</time></trkpt><trkpt lat="44.89266" lon="8.0885233"><ele>198.0</ele><time>2026-04-19T07:22:38.924Z</time></trkpt><trkpt lat="44.89275" lon="8.088565"><ele>198.0</ele><time>2026-04-19T07:22:39.925Z</time></trkpt><trkpt lat="44.8928483" lon="8.0886433"><ele>198.0</ele><time>2026-04-19T07:22:40.924Z</time></trkpt><trkpt lat="44.892945" lon="8.0887167"><ele>195.4</ele><time>2026-04-19T07:22:41.924Z</time></trkpt><trkpt lat="44.89304" lon="8.0888017"><ele>192.8</ele><time>2026-04-19T07:22:42.924Z</time></trkpt><trkpt lat="44.8931317" lon="8.0888633"><ele>190.2</ele><time>2026-04-19T07:22:43.925Z</time></trkpt><trkpt lat="44.89322" lon="8.0889067"><ele>187.6</ele><time>2026-04-19T07:22:44.925Z</time></trkpt><trkpt lat="44.893315" lon="8.0889267"><ele>185.0</ele><time>2026-04-19T07:22:45.925Z</time></trkpt><trkpt lat="44.8934017" lon="8.0889133"><ele>182.83333333333331</ele><time>2026-04-19T07:22:46.925Z</time></trkpt><trkpt lat="44.8934733" lon="8.0888733"><ele>180.66666666666666</ele><time>2026-04-19T07:22:47.925Z</time></trkpt><trkpt lat="44.8935583" lon="8.0887983"><ele>178.5</ele><time>2026-04-19T07:22:48.925Z</time></trkpt><trkpt lat="44.8936267" lon="8.0887217"><ele>176.33333333333334</ele><time>2026-04-19T07:22:49.925Z</time></trkpt><trkpt lat="44.8937033" lon="8.0886567"><ele>174.16666666666669</ele><time>2026-04-19T07:22:50.924Z</time></trkpt><trkpt lat="44.893785" lon="8.088605"><ele>172.0</ele><time>2026-04-19T07:22:51.924Z</time></trkpt><trkpt lat="44.8938733" lon="8.0885767"><ele>172.0</ele><time>2026-04-19T07:22:52.924Z</time></trkpt><trkpt lat="44.89397" lon="8.0885617"><ele>172.0</ele><time>2026-04-19T07:22:53.924Z</time></trkpt><trkpt lat="44.894055" lon="8.0885633"><ele>172.0</ele><time>2026-04-19T07:22:54.925Z</time></trkpt><trkpt lat="44.894135" lon="8.0885633"><ele>172.0</ele><time>2026-04-19T07:22:55.924Z</time></trkpt><trkpt lat="44.89422" lon="8.088565"><ele>172.0</ele><time>2026-04-19T07:22:56.925Z</time></trkpt><trkpt lat="44.8942983" lon="8.0886083"><ele>172.0</ele><time>2026-04-19T07:22:57.925Z</time></trkpt><trkpt lat="44.894375" lon="8.08866"><ele>172.0</ele><time>2026-04-19T07:22:58.924Z</time></trkpt><trkpt lat="44.8944433" lon="8.088685"><ele>172.0</ele><time>2026-04-19T07:22:59.925Z</time></trkpt><trkpt lat="44.89452" lon="8.088665"><ele>172.0</ele><time>2026-04-19T07:23:00.924Z</time></trkpt><trkpt lat="44.894595" lon="8.0886167"><ele>172.0</ele><time>2026-04-19T07:23:01.924Z</time></trkpt><trkpt lat="44.8946683" lon="8.0885467"><ele>172.0</ele><time>2026-04-19T07:23:02.924Z</time></trkpt><trkpt lat="44.89474" lon="8.0884833"><ele>172.0</ele><time>2026-04-19T07:23:03.924Z</time></trkpt><trkpt lat="44.8948183" lon="8.0884367"><ele>172.0</ele><time>2026-04-19T07:23:04.925Z</time></trkpt><trkpt lat="44.8948883" lon="8.0883967"><ele>172.0</ele><time>2026-04-19T07:23:05.924Z</time></trkpt><trkpt lat="44.8949933" lon="8.0883733"><ele>172.0</ele><time>2026-04-19T07:23:07.925Z</time></trkpt><trkpt lat="44.895075" lon="8.0883783"><ele>172.0</ele><time>2026-04-19T07:23:09.924Z</time></trkpt><trkpt lat="44.8951333" lon="8.0883417"><ele>172.0</ele><time>2026-04-19T07:23:11.924Z</time></trkpt><trkpt lat="44.895205" lon="8.0882317"><ele>172.0</ele><time>2026-04-19T07:23:13.925Z</time></trkpt><trkpt lat="44.8952567" lon="8.0881517"><ele>172.66666666666669</ele><time>2026-04-19T07:23:14.924Z</time></trkpt><trkpt lat="44.8953067" lon="8.0880617"><ele>173.33333333333334</ele><time>2026-04-19T07:23:15.924Z</time></trkpt><trkpt lat="44.8953617" lon="8.087975"><ele>174.0</ele><time>2026-04-19T07:23:16.924Z</time></trkpt><trkpt lat="44.8954117" lon="8.087885"><ele>174.66666666666666</ele><time>2026-04-19T07:23:17.925Z</time></trkpt><trkpt lat="44.8954783" lon="8.08778"><ele>175.33333333333331</ele><time>2026-04-19T07:23:18.924Z</time></trkpt><trkpt lat="44.89554" lon="8.0876883"><ele>176.0</ele><time>2026-04-19T07:23:19.925Z</time></trkpt><trkpt lat="44.895615" lon="8.087575"><ele>176.0</ele><time>2026-04-19T07:23:20.925Z</time></trkpt><trkpt lat="44.895685" lon="8.0874467"><ele>176.0</ele><time>2026-04-19T07:23:21.924Z</time></trkpt><trkpt lat="44.89575" lon="8.0873083"><ele>176.0</ele><time>2026-04-19T07:23:22.924Z</time></trkpt><trkpt lat="44.89581" lon="8.0871617"><ele>176.0</ele><time>2026-04-19T07:23:23.924Z</time></trkpt><trkpt lat="44.8958667" lon="8.0870117"><ele>176.0</ele><time>2026-04-19T07:23:24.924Z</time></trkpt><trkpt lat="44.89592" lon="8.0868717"><ele>176.0</ele><time>2026-04-19T07:23:25.924Z</time></trkpt><trkpt lat="44.8959683" lon="8.0867417"><ele>176.0</ele><time>2026-04-19T07:23:26.924Z</time></trkpt><trkpt lat="44.8960233" lon="8.086615"><ele>176.0</ele><time>2026-04-19T07:23:27.924Z</time></trkpt><trkpt lat="44.8960783" lon="8.08648"><ele>176.0</ele><time>2026-04-19T07:23:28.925Z</time></trkpt><trkpt lat="44.89614" lon="8.0863533"><ele>178.0</ele><time>2026-04-19T07:23:29.924Z</time></trkpt><trkpt lat="44.8962" lon="8.08623"><ele>180.0</ele><time>2026-04-19T07:23:30.925Z</time></trkpt><trkpt lat="44.8962533" lon="8.0861067"><ele>182.0</ele><time>2026-04-19T07:23:31.924Z</time></trkpt><trkpt lat="44.89629" lon="8.0859767"><ele>184.0</ele><time>2026-04-19T07:23:32.924Z</time></trkpt><trkpt lat="44.8963133" lon="8.085825"><ele>186.0</ele><time>2026-04-19T07:23:33.924Z</time></trkpt><trkpt lat="44.8963183" lon="8.08566"><ele>186.25</ele><time>2026-04-19T07:23:34.925Z</time></trkpt><trkpt lat="44.8963183" lon="8.085485"><ele>186.5</ele><time>2026-04-19T07:23:35.924Z</time></trkpt><trkpt lat="44.8963" lon="8.0852967"><ele>186.75</ele><time>2026-04-19T07:23:36.925Z</time></trkpt><trkpt lat="44.8962767" lon="8.085115"><ele>187.0</ele><time>2026-04-19T07:23:37.925Z</time></trkpt><trkpt lat="44.8962633" lon="8.0849317"><ele>185.75</ele><time>2026-04-19T07:23:38.925Z</time></trkpt><trkpt lat="44.8962533" lon="8.0847533"><ele>184.5</ele><time>2026-04-19T07:23:39.925Z</time></trkpt><trkpt lat="44.8962517" lon="8.0845633"><ele>183.25</ele><time>2026-04-19T07:23:40.925Z</time></trkpt><trkpt lat="44.89625" lon="8.0844033"><ele>182.0</ele><time>2026-04-19T07:23:41.924Z</time></trkpt><trkpt lat="44.8962467" lon="8.084255"><ele>182.0</ele><time>2026-04-19T07:23:42.924Z</time></trkpt><trkpt lat="44.896245" lon="8.0841467"><ele>182.0</ele><time>2026-04-19T07:23:43.924Z</time></trkpt><trkpt lat="44.8962533" lon="8.0840367"><ele>182.0</ele><time>2026-04-19T07:23:44.924Z</time></trkpt><trkpt lat="44.8962983" lon="8.0838983"><ele>182.0</ele><time>2026-04-19T07:23:46.925Z</time></trkpt><trkpt lat="44.8964033" lon="8.0837733"><ele>182.0</ele><time>2026-04-19T07:23:48.925Z</time></trkpt><trkpt lat="44.8964767" lon="8.0837133"><ele>182.33333333333331</ele><time>2026-04-19T07:23:49.924Z</time></trkpt><trkpt lat="44.896545" lon="8.0836583"><ele>182.66666666666666</ele><time>2026-04-19T07:23:50.924Z</time></trkpt><trkpt lat="44.8965967" lon="8.083605"><ele>183.0</ele><time>2026-04-19T07:23:51.924Z</time></trkpt><trkpt lat="44.8966733" lon="8.0835933"><ele>183.33333333333334</ele><time>2026-04-19T07:23:54.925Z</time></trkpt><trkpt lat="44.8967883" lon="8.0836433"><ele>183.66666666666669</ele><time>2026-04-19T07:23:56.924Z</time></trkpt><trkpt lat="44.8968767" lon="8.0836867"><ele>184.0</ele><time>2026-04-19T07:23:57.925Z</time></trkpt><trkpt lat="44.8969667" lon="8.0837167"><ele>179.6</ele><time>2026-04-19T07:23:58.925Z</time></trkpt><trkpt lat="44.8970533" lon="8.0837517"><ele>175.2</ele><time>2026-04-19T07:23:59.925Z</time></trkpt><trkpt lat="44.8971333" lon="8.0837933"><ele>170.79999999999998</ele><time>2026-04-19T07:24:00.925Z</time></trkpt><trkpt lat="44.8972133" lon="8.08385"><ele>166.39999999999998</ele><time>2026-04-19T07:24:01.924Z</time></trkpt><trkpt lat="44.897295" lon="8.0839133"><ele>162.0</ele><time>2026-04-19T07:24:02.924Z</time></trkpt><trkpt lat="44.8973817" lon="8.0839817"><ele>162.0</ele><time>2026-04-19T07:24:03.925Z</time></trkpt><trkpt lat="44.8974633" lon="8.0840567"><ele>162.0</ele><time>2026-04-19T07:24:04.924Z</time></trkpt><trkpt lat="44.8975333" lon="8.084145"><ele>162.0</ele><time>2026-04-19T07:24:05.924Z</time></trkpt><trkpt lat="44.8975983" lon="8.0842533"><ele>162.0</ele><time>2026-04-19T07:24:06.924Z</time></trkpt><trkpt lat="44.897665" lon="8.0843567"><ele>162.0</ele><time>2026-04-19T07:24:07.925Z</time></trkpt><trkpt lat="44.897735" lon="8.084455"><ele>160.33333333333334</ele><time>2026-04-19T07:24:08.925Z</time></trkpt><trkpt lat="44.8978017" lon="8.08454"><ele>158.66666666666666</ele><time>2026-04-19T07:24:09.925Z</time></trkpt><trkpt lat="44.8978617" lon="8.0846183"><ele>157.0</ele><time>2026-04-19T07:24:10.925Z</time></trkpt><trkpt lat="44.8979217" lon="8.0846817"><ele>155.33333333333331</ele><time>2026-04-19T07:24:11.924Z</time></trkpt><trkpt lat="44.8980267" lon="8.084735"><ele>153.66666666666666</ele><time>2026-04-19T07:24:13.924Z</time></trkpt><trkpt lat="44.898105" lon="8.0847233"><ele>152.0</ele><time>2026-04-19T07:24:15.925Z</time></trkpt><trkpt lat="44.8982433" lon="8.0846333"><ele>152.0</ele><time>2026-04-19T07:24:17.924Z</time></trkpt><trkpt lat="44.898355" lon="8.0845483"><ele>152.0</ele><time>2026-04-19T07:24:18.924Z</time></trkpt><trkpt lat="44.8984817" lon="8.0844467"><ele>152.0</ele><time>2026-04-19T07:24:19.924Z</time></trkpt><trkpt lat="44.8986133" lon="8.08434"><ele>152.0</ele><time>2026-04-19T07:24:20.924Z</time></trkpt><trkpt lat="44.8987317" lon="8.084235"><ele>151.2</ele><time>2026-04-19T07:24:21.924Z</time></trkpt><trkpt lat="44.8988383" lon="8.0841433"><ele>150.39999999999998</ele><time>2026-04-19T07:24:22.924Z</time></trkpt><trkpt lat="44.8989183" lon="8.084055"><ele>149.60000000000002</ele><time>2026-04-19T07:24:23.925Z</time></trkpt><trkpt lat="44.89897" lon="8.0839667"><ele>148.8</ele><time>2026-04-19T07:24:24.925Z</time></trkpt><trkpt lat="44.898995" lon="8.0838617"><ele>148.0</ele><time>2026-04-19T07:24:25.924Z</time></trkpt><trkpt lat="44.89898" lon="8.0837283"><ele>148.0</ele><time>2026-04-19T07:24:26.924Z</time></trkpt><trkpt lat="44.8989517" lon="8.083565"><ele>148.0</ele><time>2026-04-19T07:24:27.924Z</time></trkpt><trkpt lat="44.8989233" lon="8.0834133"><ele>148.0</ele><time>2026-04-19T07:24:28.924Z</time></trkpt><trkpt lat="44.8988883" lon="8.0832633"><ele>148.0</ele><time>2026-04-19T07:24:29.924Z</time></trkpt><trkpt lat="44.8988517" lon="8.0831167"><ele>147.8</ele><time>2026-04-19T07:24:30.925Z</time></trkpt><trkpt lat="44.898825" lon="8.0829567"><ele>147.60000000000002</ele><time>2026-04-19T07:24:31.924Z</time></trkpt><trkpt lat="44.8987933" lon="8.0828167"><ele>147.39999999999998</ele><time>2026-04-19T07:24:32.925Z</time></trkpt><trkpt lat="44.898755" lon="8.0826717"><ele>147.2</ele><time>2026-04-19T07:24:33.924Z</time></trkpt><trkpt lat="44.8987" lon="8.0825367"><ele>147.0</ele><time>2026-04-19T07:24:34.924Z</time></trkpt><trkpt lat="44.8986467" lon="8.082405"><ele>146.79999999999998</ele><time>2026-04-19T07:24:35.925Z</time></trkpt><trkpt lat="44.8985817" lon="8.0822883"><ele>146.6</ele><time>2026-04-19T07:24:36.925Z</time></trkpt><trkpt lat="44.898525" lon="8.0821967"><ele>146.39999999999998</ele><time>2026-04-19T07:24:37.924Z</time></trkpt><trkpt lat="44.8984567" lon="8.082135"><ele>146.2</ele><time>2026-04-19T07:24:38.925Z</time></trkpt><trkpt lat="44.89837" lon="8.0821133"><ele>146.0</ele><time>2026-04-19T07:24:39.925Z</time></trkpt><trkpt lat="44.89827" lon="8.08211"><ele>146.4</ele><time>2026-04-19T07:24:40.925Z</time></trkpt><trkpt lat="44.89818" lon="8.0820867"><ele>146.8</ele><time>2026-04-19T07:24:41.925Z</time></trkpt><trkpt lat="44.898105" lon="8.0820383"><ele>147.20000000000002</ele><time>2026-04-19T07:24:42.925Z</time></trkpt><trkpt lat="44.898045" lon="8.0819533"><ele>147.6</ele><time>2026-04-19T07:24:43.925Z</time></trkpt><trkpt lat="44.8979983" lon="8.0818317"><ele>148.0</ele><time>2026-04-19T07:24:44.925Z</time></trkpt><trkpt lat="44.8979633" lon="8.0816833"><ele>148.0</ele><time>2026-04-19T07:24:45.925Z</time></trkpt><trkpt lat="44.8979367" lon="8.0815433"><ele>148.0</ele><time>2026-04-19T07:24:46.924Z</time></trkpt><trkpt lat="44.8979083" lon="8.0814083"><ele>148.0</ele><time>2026-04-19T07:24:47.924Z</time></trkpt><trkpt lat="44.897875" lon="8.0812683"><ele>148.0</ele><time>2026-04-19T07:24:48.925Z</time></trkpt><trkpt lat="44.8978467" lon="8.0811083"><ele>148.0</ele><time>2026-04-19T07:24:49.925Z</time></trkpt><trkpt lat="44.8978317" lon="8.0809467"><ele>148.0</ele><time>2026-04-19T07:24:50.925Z</time></trkpt><trkpt lat="44.89782" lon="8.0807817"><ele>148.0</ele><time>2026-04-19T07:24:51.924Z</time></trkpt><trkpt lat="44.8978067" lon="8.08061"><ele>148.0</ele><time>2026-04-19T07:24:52.924Z</time></trkpt><trkpt lat="44.897785" lon="8.0804483"><ele>148.0</ele><time>2026-04-19T07:24:53.924Z</time></trkpt><trkpt lat="44.89777" lon="8.0803"><ele>148.4</ele><time>2026-04-19T07:24:54.924Z</time></trkpt><trkpt lat="44.8977683" lon="8.0801733"><ele>148.8</ele><time>2026-04-19T07:24:55.925Z</time></trkpt><trkpt lat="44.8977517" lon="8.08004"><ele>149.2</ele><time>2026-04-19T07:24:56.924Z</time></trkpt><trkpt lat="44.8977317" lon="8.0799033"><ele>149.6</ele><time>2026-04-19T07:24:57.925Z</time></trkpt><trkpt lat="44.8977183" lon="8.0797633"><ele>150.0</ele><time>2026-04-19T07:24:58.924Z</time></trkpt><trkpt lat="44.8977183" lon="8.079625"><ele>150.0</ele><time>2026-04-19T07:24:59.924Z</time></trkpt><trkpt lat="44.897745" lon="8.07947"><ele>150.0</ele><time>2026-04-19T07:25:00.925Z</time></trkpt><trkpt lat="44.8977767" lon="8.0793317"><ele>150.0</ele><time>2026-04-19T07:25:01.925Z</time></trkpt><trkpt lat="44.897815" lon="8.0791833"><ele>150.0</ele><time>2026-04-19T07:25:02.925Z</time></trkpt><trkpt lat="44.8978417" lon="8.0790267"><ele>150.0</ele><time>2026-04-19T07:25:03.925Z</time></trkpt><trkpt lat="44.8978567" lon="8.0788783"><ele>150.2</ele><time>2026-04-19T07:25:04.925Z</time></trkpt><trkpt lat="44.8978767" lon="8.07872"><ele>150.4</ele><time>2026-04-19T07:25:05.925Z</time></trkpt><trkpt lat="44.8978967" lon="8.0785783"><ele>150.6</ele><time>2026-04-19T07:25:06.924Z</time></trkpt><trkpt lat="44.897925" lon="8.0784383"><ele>150.8</ele><time>2026-04-19T07:25:07.924Z</time></trkpt><trkpt lat="44.89796" lon="8.0783033"><ele>151.0</ele><time>2026-04-19T07:25:08.924Z</time></trkpt><trkpt lat="44.8979833" lon="8.0781917"><ele>151.0</ele><time>2026-04-19T07:25:09.924Z</time></trkpt><trkpt lat="44.89801" lon="8.078085"><ele>151.0</ele><time>2026-04-19T07:25:10.924Z</time></trkpt><trkpt lat="44.898035" lon="8.077975"><ele>151.0</ele><time>2026-04-19T07:25:11.924Z</time></trkpt><trkpt lat="44.8980483" lon="8.077855"><ele>151.0</ele><time>2026-04-19T07:25:12.924Z</time></trkpt><trkpt lat="44.8980583" lon="8.07773"><ele>151.0</ele><time>2026-04-19T07:25:13.925Z</time></trkpt><trkpt lat="44.89806" lon="8.0776167"><ele>151.0</ele><time>2026-04-19T07:25:14.925Z</time></trkpt><trkpt lat="44.8980533" lon="8.0774867"><ele>151.0</ele><time>2026-04-19T07:25:15.924Z</time></trkpt><trkpt lat="44.898045" lon="8.0773517"><ele>151.0</ele><time>2026-04-19T07:25:16.925Z</time></trkpt><trkpt lat="44.8980333" lon="8.077205"><ele>151.0</ele><time>2026-04-19T07:25:17.925Z</time></trkpt><trkpt lat="44.8980233" lon="8.077055"><ele>151.0</ele><time>2026-04-19T07:25:18.925Z</time></trkpt><trkpt lat="44.898015" lon="8.07691"><ele>151.0</ele><time>2026-04-19T07:25:19.924Z</time></trkpt><trkpt lat="44.8980083" lon="8.0767633"><ele>151.0</ele><time>2026-04-19T07:25:20.924Z</time></trkpt><trkpt lat="44.8980033" lon="8.0766233"><ele>151.0</ele><time>2026-04-19T07:25:21.924Z</time></trkpt><trkpt lat="44.8979967" lon="8.0764883"><ele>151.0</ele><time>2026-04-19T07:25:22.924Z</time></trkpt><trkpt lat="44.8979933" lon="8.0763583"><ele>151.0</ele><time>2026-04-19T07:25:23.925Z</time></trkpt><trkpt lat="44.8979967" lon="8.076215"><ele>151.0</ele><time>2026-04-19T07:25:24.925Z</time></trkpt><trkpt lat="44.898" lon="8.0760617"><ele>151.0</ele><time>2026-04-19T07:25:25.924Z</time></trkpt><trkpt lat="44.8980217" lon="8.0758983"><ele>151.0</ele><time>2026-04-19T07:25:26.924Z</time></trkpt><trkpt lat="44.8980417" lon="8.0757383"><ele>151.0</ele><time>2026-04-19T07:25:27.925Z</time></trkpt><trkpt lat="44.8980667" lon="8.0756067"><ele>151.0</ele><time>2026-04-19T07:25:28.924Z</time></trkpt><trkpt lat="44.8980717" lon="8.0754817"><ele>151.0</ele><time>2026-04-19T07:25:29.924Z</time></trkpt><trkpt lat="44.89806" lon="8.0753767"><ele>151.0</ele><time>2026-04-19T07:25:30.925Z</time></trkpt><trkpt lat="44.898015" lon="8.075295"><ele>151.0</ele><time>2026-04-19T07:25:31.925Z</time></trkpt><trkpt lat="44.8979367" lon="8.075215"><ele>151.0</ele><time>2026-04-19T07:25:32.924Z</time></trkpt><trkpt lat="44.89783" lon="8.0751317"><ele>151.0</ele><time>2026-04-19T07:25:33.924Z</time></trkpt><trkpt lat="44.8977183" lon="8.07505"><ele>151.0</ele><time>2026-04-19T07:25:34.924Z</time></trkpt><trkpt lat="44.8976117" lon="8.0749733"><ele>152.0</ele><time>2026-04-19T07:25:35.925Z</time></trkpt><trkpt lat="44.89752" lon="8.0749117"><ele>153.0</ele><time>2026-04-19T07:25:36.924Z</time></trkpt><trkpt lat="44.8974417" lon="8.07486"><ele>154.0</ele><time>2026-04-19T07:25:37.925Z</time></trkpt><trkpt lat="44.897385" lon="8.0748067"><ele>155.0</ele><time>2026-04-19T07:25:38.924Z</time></trkpt><trkpt lat="44.8973367" lon="8.07474"><ele>156.0</ele><time>2026-04-19T07:25:39.924Z</time></trkpt><trkpt lat="44.8973067" lon="8.0746467"><ele>157.0</ele><time>2026-04-19T07:25:40.924Z</time></trkpt><trkpt lat="44.8973017" lon="8.0745367"><ele>157.0</ele><time>2026-04-19T07:25:41.924Z</time></trkpt><trkpt lat="44.8973117" lon="8.0744033"><ele>157.0</ele><time>2026-04-19T07:25:42.924Z</time></trkpt><trkpt lat="44.89734" lon="8.0742483"><ele>157.0</ele><time>2026-04-19T07:25:43.925Z</time></trkpt><trkpt lat="44.8973633" lon="8.0740567"><ele>157.0</ele><time>2026-04-19T07:25:44.925Z</time></trkpt><trkpt lat="44.8973867" lon="8.073835"><ele>156.75</ele><time>2026-04-19T07:25:45.924Z</time></trkpt><trkpt lat="44.8974" lon="8.0736383"><ele>156.5</ele><time>2026-04-19T07:25:46.924Z</time></trkpt><trkpt lat="44.8974183" lon="8.073445"><ele>156.25</ele><time>2026-04-19T07:25:47.924Z</time></trkpt><trkpt lat="44.89744" lon="8.073265"><ele>156.0</ele><time>2026-04-19T07:25:48.924Z</time></trkpt><trkpt lat="44.89746" lon="8.07309"><ele>157.75</ele><time>2026-04-19T07:25:49.924Z</time></trkpt><trkpt lat="44.8974867" lon="8.07291"><ele>159.5</ele><time>2026-04-19T07:25:50.924Z</time></trkpt><trkpt lat="44.8975233" lon="8.0727317"><ele>161.25</ele><time>2026-04-19T07:25:51.924Z</time></trkpt><trkpt lat="44.897565" lon="8.0725783"><ele>163.0</ele><time>2026-04-19T07:25:52.924Z</time></trkpt><trkpt lat="44.8976283" lon="8.0724233"><ele>159.25</ele><time>2026-04-19T07:25:53.924Z</time></trkpt><trkpt lat="44.8977" lon="8.0723"><ele>155.5</ele><time>2026-04-19T07:25:54.925Z</time></trkpt><trkpt lat="44.8977867" lon="8.072185"><ele>151.75</ele><time>2026-04-19T07:25:55.925Z</time></trkpt><trkpt lat="44.8978583" lon="8.0720683"><ele>148.0</ele><time>2026-04-19T07:25:56.924Z</time></trkpt><trkpt lat="44.8979267" lon="8.0719283"><ele>148.0</ele><time>2026-04-19T07:25:57.925Z</time></trkpt><trkpt lat="44.8979833" lon="8.0717733"><ele>148.0</ele><time>2026-04-19T07:25:58.924Z</time></trkpt><trkpt lat="44.8980417" lon="8.07162"><ele>148.0</ele><time>2026-04-19T07:25:59.924Z</time></trkpt><trkpt lat="44.8980783" lon="8.0714667"><ele>148.0</ele><time>2026-04-19T07:26:00.925Z</time></trkpt><trkpt lat="44.8981083" lon="8.0713133"><ele>148.20000000000002</ele><time>2026-04-19T07:26:01.924Z</time></trkpt><trkpt lat="44.89812" lon="8.0711583"><ele>148.4</ele><time>2026-04-19T07:26:02.924Z</time></trkpt><trkpt lat="44.8981167" lon="8.071015"><ele>148.60000000000002</ele><time>2026-04-19T07:26:03.924Z</time></trkpt><trkpt lat="44.89811" lon="8.0708567"><ele>148.8</ele><time>2026-04-19T07:26:04.924Z</time></trkpt><trkpt lat="44.898085" lon="8.0706967"><ele>149.0</ele><time>2026-04-19T07:26:05.924Z</time></trkpt><trkpt lat="44.89805" lon="8.070535"><ele>149.0</ele><time>2026-04-19T07:26:06.924Z</time></trkpt><trkpt lat="44.898015" lon="8.070385"><ele>149.0</ele><time>2026-04-19T07:26:07.925Z</time></trkpt><trkpt lat="44.8979717" lon="8.0702283"><ele>149.0</ele><time>2026-04-19T07:26:08.925Z</time></trkpt><trkpt lat="44.8979333" lon="8.0700467"><ele>149.0</ele><time>2026-04-19T07:26:09.925Z</time></trkpt><trkpt lat="44.8979" lon="8.0698767"><ele>149.6</ele><time>2026-04-19T07:26:10.924Z</time></trkpt><trkpt lat="44.89788" lon="8.0697"><ele>150.2</ele><time>2026-04-19T07:26:11.924Z</time></trkpt><trkpt lat="44.8978567" lon="8.069545"><ele>150.79999999999998</ele><time>2026-04-19T07:26:12.925Z</time></trkpt><trkpt lat="44.897835" lon="8.0694017"><ele>151.4</ele><time>2026-04-19T07:26:13.924Z</time></trkpt><trkpt lat="44.8978083" lon="8.0692617"><ele>152.0</ele><time>2026-04-19T07:26:14.924Z</time></trkpt><trkpt lat="44.89779" lon="8.0691267"><ele>152.2</ele><time>2026-04-19T07:26:15.925Z</time></trkpt><trkpt lat="44.8977233" lon="8.0689933"><ele>152.39999999999998</ele><time>2026-04-19T07:26:16.924Z</time></trkpt><trkpt lat="44.897705" lon="8.0688767"><ele>152.60000000000002</ele><time>2026-04-19T07:26:17.924Z</time></trkpt><trkpt lat="44.8976833" lon="8.068745"><ele>152.8</ele><time>2026-04-19T07:26:18.924Z</time></trkpt><trkpt lat="44.897665" lon="8.0686317"><ele>153.0</ele><time>2026-04-19T07:26:19.925Z</time></trkpt><trkpt lat="44.89764" lon="8.06853"><ele>153.0</ele><time>2026-04-19T07:26:20.924Z</time></trkpt><trkpt lat="44.8976133" lon="8.0683633"><ele>153.0</ele><time>2026-04-19T07:26:22.924Z</time></trkpt><trkpt lat="44.8975833" lon="8.0682517"><ele>153.0</ele><time>2026-04-19T07:26:24.924Z</time></trkpt><trkpt lat="44.8975233" lon="8.0682067"><ele>153.0</ele><time>2026-04-19T07:26:26.924Z</time></trkpt><trkpt lat="44.8974367" lon="8.0682167"><ele>153.0</ele><time>2026-04-19T07:26:28.924Z</time></trkpt><trkpt lat="44.89737" lon="8.0682433"><ele>153.0</ele><time>2026-04-19T07:26:29.924Z</time></trkpt><trkpt lat="44.8973" lon="8.0682667"><ele>153.66666666666666</ele><time>2026-04-19T07:26:30.924Z</time></trkpt><trkpt lat="44.8972283" lon="8.0682883"><ele>154.33333333333334</ele><time>2026-04-19T07:26:31.924Z</time></trkpt><trkpt lat="44.8971117" lon="8.0683033"><ele>155.0</ele><time>2026-04-19T07:26:33.925Z</time></trkpt><trkpt lat="44.89704" lon="8.0683"><ele>155.66666666666669</ele><time>2026-04-19T07:26:34.925Z</time></trkpt><trkpt lat="44.8969633" lon="8.0682717"><ele>156.33333333333334</ele><time>2026-04-19T07:26:35.925Z</time></trkpt><trkpt lat="44.89689" lon="8.068225"><ele>157.0</ele><time>2026-04-19T07:26:36.925Z</time></trkpt><trkpt lat="44.896835" lon="8.0681767"><ele>157.4</ele><time>2026-04-19T07:26:37.924Z</time></trkpt><trkpt lat="44.89677" lon="8.06804"><ele>157.79999999999998</ele><time>2026-04-19T07:26:39.925Z</time></trkpt><trkpt lat="44.8967617" lon="8.067915"><ele>158.2</ele><time>2026-04-19T07:26:40.924Z</time></trkpt><trkpt lat="44.8967533" lon="8.067785"><ele>158.6</ele><time>2026-04-19T07:26:41.925Z</time></trkpt><trkpt lat="44.8967717" lon="8.0676317"><ele>159.0</ele><time>2026-04-19T07:26:42.924Z</time></trkpt><trkpt lat="44.8967867" lon="8.067475"><ele>159.6</ele><time>2026-04-19T07:26:43.924Z</time></trkpt><trkpt lat="44.8968" lon="8.067315"><ele>160.2</ele><time>2026-04-19T07:26:44.924Z</time></trkpt><trkpt lat="44.8968083" lon="8.0671767"><ele>160.79999999999998</ele><time>2026-04-19T07:26:45.925Z</time></trkpt><trkpt lat="44.8968033" lon="8.0670333"><ele>161.4</ele><time>2026-04-19T07:26:46.924Z</time></trkpt><trkpt lat="44.89679" lon="8.0668867"><ele>162.0</ele><time>2026-04-19T07:26:47.926Z</time></trkpt><trkpt lat="44.8967667" lon="8.066755"><ele>165.2</ele><time>2026-04-19T07:26:48.925Z</time></trkpt><trkpt lat="44.8967333" lon="8.066625"><ele>168.39999999999998</ele><time>2026-04-19T07:26:49.926Z</time></trkpt><trkpt lat="44.896705" lon="8.0665067"><ele>171.60000000000002</ele><time>2026-04-19T07:26:50.926Z</time></trkpt><trkpt lat="44.89666" lon="8.0664067"><ele>174.8</ele><time>2026-04-19T07:26:51.926Z</time></trkpt><trkpt lat="44.896555" lon="8.0663333"><ele>178.0</ele><time>2026-04-19T07:26:53.925Z</time></trkpt><trkpt lat="44.8964617" lon="8.066395"><ele>178.0</ele><time>2026-04-19T07:26:55.926Z</time></trkpt><trkpt lat="44.89643" lon="8.06648"><ele>178.0</ele><time>2026-04-19T07:26:56.925Z</time></trkpt><trkpt lat="44.8964083" lon="8.0665967"><ele>178.0</ele><time>2026-04-19T07:26:57.925Z</time></trkpt><trkpt lat="44.8963917" lon="8.0667567"><ele>178.0</ele><time>2026-04-19T07:26:58.926Z</time></trkpt><trkpt lat="44.896375" lon="8.066905"><ele>178.0</ele><time>2026-04-19T07:26:59.926Z</time></trkpt><trkpt lat="44.8963483" lon="8.0670317"><ele>179.0</ele><time>2026-04-19T07:27:00.926Z</time></trkpt><trkpt lat="44.8962967" lon="8.06716"><ele>180.0</ele><time>2026-04-19T07:27:01.926Z</time></trkpt><trkpt lat="44.8962417" lon="8.0672733"><ele>181.0</ele><time>2026-04-19T07:27:02.925Z</time></trkpt><trkpt lat="44.896185" lon="8.0673483"><ele>182.0</ele><time>2026-04-19T07:27:03.925Z</time></trkpt><trkpt lat="44.8961233" lon="8.0674067"><ele>183.0</ele><time>2026-04-19T07:27:04.925Z</time></trkpt><trkpt lat="44.89604" lon="8.06744"><ele>184.0</ele><time>2026-04-19T07:27:05.926Z</time></trkpt><trkpt lat="44.8959483" lon="8.0674583"><ele>187.66666666666669</ele><time>2026-04-19T07:27:06.925Z</time></trkpt><trkpt lat="44.8958567" lon="8.0674717"><ele>191.33333333333334</ele><time>2026-04-19T07:27:07.926Z</time></trkpt><trkpt lat="44.8957667" lon="8.0674783"><ele>195.0</ele><time>2026-04-19T07:27:08.926Z</time></trkpt><trkpt lat="44.8956717" lon="8.0674883"><ele>198.66666666666669</ele><time>2026-04-19T07:27:09.926Z</time></trkpt><trkpt lat="44.8955883" lon="8.06752"><ele>202.33333333333334</ele><time>2026-04-19T07:27:10.926Z</time></trkpt><trkpt lat="44.8955183" lon="8.0675667"><ele>206.0</ele><time>2026-04-19T07:27:11.926Z</time></trkpt><trkpt lat="44.895465" lon="8.0676183"><ele>206.0</ele><time>2026-04-19T07:27:12.925Z</time></trkpt><trkpt lat="44.89537" lon="8.0677317"><ele>206.0</ele><time>2026-04-19T07:27:14.926Z</time></trkpt><trkpt lat="44.8953183" lon="8.0677967"><ele>206.0</ele><time>2026-04-19T07:27:15.926Z</time></trkpt><trkpt lat="44.895255" lon="8.06788"><ele>206.0</ele><time>2026-04-19T07:27:16.926Z</time></trkpt><trkpt lat="44.8951917" lon="8.0679767"><ele>206.0</ele><time>2026-04-19T07:27:17.925Z</time></trkpt><trkpt lat="44.8951267" lon="8.0680867"><ele>205.4</ele><time>2026-04-19T07:27:18.926Z</time></trkpt><trkpt lat="44.8950667" lon="8.068215"><ele>204.8</ele><time>2026-04-19T07:27:19.926Z</time></trkpt><trkpt lat="44.8950117" lon="8.068345"><ele>204.20000000000002</ele><time>2026-04-19T07:27:20.925Z</time></trkpt><trkpt lat="44.894975" lon="8.0684617"><ele>203.60000000000002</ele><time>2026-04-19T07:27:21.925Z</time></trkpt><trkpt lat="44.8949367" lon="8.06856"><ele>203.0</ele><time>2026-04-19T07:27:22.925Z</time></trkpt><trkpt lat="44.8948917" lon="8.0686467"><ele>204.83333333333334</ele><time>2026-04-19T07:27:23.925Z</time></trkpt><trkpt lat="44.894835" lon="8.0686967"><ele>206.66666666666669</ele><time>2026-04-19T07:27:24.925Z</time></trkpt><trkpt lat="44.8947567" lon="8.0687333"><ele>208.5</ele><time>2026-04-19T07:27:25.925Z</time></trkpt><trkpt lat="44.8946967" lon="8.0687617"><ele>210.33333333333331</ele><time>2026-04-19T07:27:26.926Z</time></trkpt><trkpt lat="44.8945867" lon="8.068805"><ele>212.16666666666666</ele><time>2026-04-19T07:27:28.925Z</time></trkpt><trkpt lat="44.8944967" lon="8.0688417"><ele>214.0</ele><time>2026-04-19T07:27:30.925Z</time></trkpt><trkpt lat="44.8943983" lon="8.0688967"><ele>214.0</ele><time>2026-04-19T07:27:32.925Z</time></trkpt><trkpt lat="44.8943067" lon="8.0689633"><ele>213.99999999999997</ele><time>2026-04-19T07:27:34.926Z</time></trkpt><trkpt lat="44.8942267" lon="8.0688983"><ele>213.99999999999997</ele><time>2026-04-19T07:27:38.925Z</time></trkpt><trkpt lat="44.89417" lon="8.06881"><ele>214.0</ele><time>2026-04-19T07:27:40.925Z</time></trkpt><trkpt lat="44.8941067" lon="8.0687167"><ele>214.0</ele><time>2026-04-19T07:27:42.925Z</time></trkpt><trkpt lat="44.8940283" lon="8.068605"><ele>214.0</ele><time>2026-04-19T07:27:44.926Z</time></trkpt><trkpt lat="44.8939683" lon="8.0685017"><ele>213.99999999999997</ele><time>2026-04-19T07:27:46.926Z</time></trkpt><trkpt lat="44.8939117" lon="8.068395"><ele>213.99999999999997</ele><time>2026-04-19T07:27:48.925Z</time></trkpt><trkpt lat="44.893875" lon="8.0682333"><ele>214.0</ele><time>2026-04-19T07:28:04.925Z</time></trkpt><trkpt lat="44.8938617" lon="8.0681383"><ele>214.0</ele><time>2026-04-19T07:28:05.925Z</time></trkpt><trkpt lat="44.89384" lon="8.0680017"><ele>213.2</ele><time>2026-04-19T07:28:06.925Z</time></trkpt><trkpt lat="44.8938133" lon="8.0678533"><ele>212.39999999999998</ele><time>2026-04-19T07:28:07.926Z</time></trkpt><trkpt lat="44.89378" lon="8.067695"><ele>211.6</ele><time>2026-04-19T07:28:08.925Z</time></trkpt><trkpt lat="44.8937433" lon="8.0675483"><ele>210.8</ele><time>2026-04-19T07:28:09.925Z</time></trkpt><trkpt lat="44.8937217" lon="8.0674317"><ele>210.0</ele><time>2026-04-19T07:28:10.925Z</time></trkpt><trkpt lat="44.8937083" lon="8.06733"><ele>210.0</ele><time>2026-04-19T07:28:11.925Z</time></trkpt><trkpt lat="44.8936883" lon="8.0672433"><ele>210.0</ele><time>2026-04-19T07:28:12.925Z</time></trkpt><trkpt lat="44.8936467" lon="8.0671583"><ele>210.0</ele><time>2026-04-19T07:28:14.925Z</time></trkpt><trkpt lat="44.8936133" lon="8.0672467"><ele>210.0</ele><time>2026-04-19T07:28:17.925Z</time></trkpt><trkpt lat="44.8936267" lon="8.067335"><ele>210.0</ele><time>2026-04-19T07:28:18.926Z</time></trkpt><trkpt lat="44.893645" lon="8.0674533"><ele>210.0</ele><time>2026-04-19T07:28:19.926Z</time></trkpt><trkpt lat="44.8936717" lon="8.067585"><ele>210.0</ele><time>2026-04-19T07:28:20.926Z</time></trkpt><trkpt lat="44.893705" lon="8.06776"><ele>210.0</ele><time>2026-04-19T07:28:21.925Z</time></trkpt><trkpt lat="44.8937417" lon="8.06795"><ele>210.0</ele><time>2026-04-19T07:28:22.925Z</time></trkpt><trkpt lat="44.8937683" lon="8.0681317"><ele>210.0</ele><time>2026-04-19T07:28:23.926Z</time></trkpt><trkpt lat="44.89379" lon="8.0682883"><ele>210.66666666666666</ele><time>2026-04-19T07:28:24.926Z</time></trkpt><trkpt lat="44.8938167" lon="8.0684317"><ele>211.33333333333331</ele><time>2026-04-19T07:28:25.926Z</time></trkpt><trkpt lat="44.89385" lon="8.0685417"><ele>212.0</ele><time>2026-04-19T07:28:26.926Z</time></trkpt><trkpt lat="44.8939083" lon="8.0686417"><ele>212.66666666666666</ele><time>2026-04-19T07:28:27.926Z</time></trkpt><trkpt lat="44.89396" lon="8.06873"><ele>213.33333333333331</ele><time>2026-04-19T07:28:28.926Z</time></trkpt><trkpt lat="44.8940133" lon="8.0688117"><ele>214.0</ele><time>2026-04-19T07:28:29.926Z</time></trkpt><trkpt lat="44.894045" lon="8.0689"><ele>214.0</ele><time>2026-04-19T07:28:30.925Z</time></trkpt><trkpt lat="44.8940067" lon="8.0690683"><ele>213.99999999999997</ele><time>2026-04-19T07:28:32.925Z</time></trkpt><trkpt lat="44.8939467" lon="8.0691733"><ele>213.99999999999997</ele><time>2026-04-19T07:28:33.926Z</time></trkpt><trkpt lat="44.8938633" lon="8.069265"><ele>214.0</ele><time>2026-04-19T07:28:34.925Z</time></trkpt><trkpt lat="44.8937783" lon="8.0693183"><ele>214.0</ele><time>2026-04-19T07:28:35.926Z</time></trkpt><trkpt lat="44.8937033" lon="8.0693633"><ele>214.2</ele><time>2026-04-19T07:28:36.926Z</time></trkpt><trkpt lat="44.8936283" lon="8.0694067"><ele>214.39999999999998</ele><time>2026-04-19T07:28:37.925Z</time></trkpt><trkpt lat="44.89356" lon="8.0694767"><ele>214.6</ele><time>2026-04-19T07:28:38.926Z</time></trkpt><trkpt lat="44.89351" lon="8.0695717"><ele>214.8</ele><time>2026-04-19T07:28:39.925Z</time></trkpt><trkpt lat="44.8934917" lon="8.0697233"><ele>215.0</ele><time>2026-04-19T07:28:40.925Z</time></trkpt><trkpt lat="44.89347" lon="8.0698783"><ele>214.6</ele><time>2026-04-19T07:28:41.925Z</time></trkpt><trkpt lat="44.8934517" lon="8.0700133"><ele>214.2</ele><time>2026-04-19T07:28:42.925Z</time></trkpt><trkpt lat="44.8934433" lon="8.070135"><ele>213.8</ele><time>2026-04-19T07:28:43.926Z</time></trkpt><trkpt lat="44.893505" lon="8.0702317"><ele>213.4</ele><time>2026-04-19T07:28:45.925Z</time></trkpt><trkpt lat="44.89363" lon="8.070225"><ele>213.0</ele><time>2026-04-19T07:28:47.925Z</time></trkpt><trkpt lat="44.8937133" lon="8.070235"><ele>213.0</ele><time>2026-04-19T07:28:49.925Z</time></trkpt><trkpt lat="44.8937" lon="8.0703483"><ele>213.0</ele><time>2026-04-19T07:28:51.925Z</time></trkpt><trkpt lat="44.8936467" lon="8.0704317"><ele>213.0</ele><time>2026-04-19T07:28:52.926Z</time></trkpt><trkpt lat="44.8935717" lon="8.07056"><ele>213.0</ele><time>2026-04-19T07:28:53.925Z</time></trkpt><trkpt lat="44.8935" lon="8.0706933"><ele>213.0</ele><time>2026-04-19T07:28:54.926Z</time></trkpt><trkpt lat="44.8934417" lon="8.0708067"><ele>210.16666666666666</ele><time>2026-04-19T07:28:55.926Z</time></trkpt><trkpt lat="44.8933917" lon="8.0708783"><ele>207.33333333333331</ele><time>2026-04-19T07:28:56.925Z</time></trkpt><trkpt lat="44.8933083" lon="8.07087"><ele>204.5</ele><time>2026-04-19T07:28:58.926Z</time></trkpt><trkpt lat="44.8932417" lon="8.0707633"><ele>201.66666666666666</ele><time>2026-04-19T07:29:00.926Z</time></trkpt><trkpt lat="44.893205" lon="8.0706883"><ele>198.83333333333331</ele><time>2026-04-19T07:29:01.925Z</time></trkpt><trkpt lat="44.893165" lon="8.0706033"><ele>196.0</ele><time>2026-04-19T07:29:02.925Z</time></trkpt><trkpt lat="44.8931283" lon="8.070525"><ele>196.0</ele><time>2026-04-19T07:29:03.925Z</time></trkpt><trkpt lat="44.8930683" lon="8.07039"><ele>196.0</ele><time>2026-04-19T07:29:05.925Z</time></trkpt><trkpt lat="44.89298" lon="8.0703"><ele>196.0</ele><time>2026-04-19T07:29:07.925Z</time></trkpt><trkpt lat="44.8928883" lon="8.0702033"><ele>196.0</ele><time>2026-04-19T07:29:09.926Z</time></trkpt><trkpt lat="44.8928883" lon="8.0700033"><ele>195.66666666666666</ele><time>2026-04-19T07:29:11.926Z</time></trkpt><trkpt lat="44.8929017" lon="8.069875"><ele>195.33333333333331</ele><time>2026-04-19T07:29:12.926Z</time></trkpt><trkpt lat="44.8929217" lon="8.0697467"><ele>195.0</ele><time>2026-04-19T07:29:13.925Z</time></trkpt><trkpt lat="44.8929333" lon="8.0696233"><ele>194.66666666666669</ele><time>2026-04-19T07:29:14.925Z</time></trkpt><trkpt lat="44.8929367" lon="8.0695117"><ele>194.33333333333334</ele><time>2026-04-19T07:29:15.925Z</time></trkpt><trkpt lat="44.8929233" lon="8.0694183"><ele>194.0</ele><time>2026-04-19T07:29:16.925Z</time></trkpt><trkpt lat="44.8929" lon="8.0693283"><ele>194.0</ele><time>2026-04-19T07:29:17.925Z</time></trkpt><trkpt lat="44.8928767" lon="8.0692433"><ele>194.0</ele><time>2026-04-19T07:29:18.925Z</time></trkpt><trkpt lat="44.8928533" lon="8.0691533"><ele>194.0</ele><time>2026-04-19T07:29:19.925Z</time></trkpt><trkpt lat="44.8928317" lon="8.069045"><ele>194.0</ele><time>2026-04-19T07:29:20.925Z</time></trkpt><trkpt lat="44.8928133" lon="8.0689317"><ele>194.0</ele><time>2026-04-19T07:29:21.926Z</time></trkpt><trkpt lat="44.8927933" lon="8.06883"><ele>194.0</ele><time>2026-04-19T07:29:22.925Z</time></trkpt><trkpt lat="44.8927667" lon="8.0687367"><ele>194.0</ele><time>2026-04-19T07:29:23.926Z</time></trkpt><trkpt lat="44.89272" lon="8.0686433"><ele>194.83333333333334</ele><time>2026-04-19T07:29:24.925Z</time></trkpt><trkpt lat="44.8926783" lon="8.06855"><ele>195.66666666666669</ele><time>2026-04-19T07:29:25.925Z</time></trkpt><trkpt lat="44.892635" lon="8.0684683"><ele>196.5</ele><time>2026-04-19T07:29:26.925Z</time></trkpt><trkpt lat="44.89258" lon="8.068395"><ele>197.33333333333331</ele><time>2026-04-19T07:29:27.925Z</time></trkpt><trkpt lat="44.8925267" lon="8.068275"><ele>198.16666666666666</ele><time>2026-04-19T07:29:29.926Z</time></trkpt><trkpt lat="44.892585" lon="8.0681767"><ele>199.0</ele><time>2026-04-19T07:29:31.925Z</time></trkpt><trkpt lat="44.8926667" lon="8.06811"><ele>200.2</ele><time>2026-04-19T07:29:33.925Z</time></trkpt><trkpt lat="44.8926867" lon="8.0680183"><ele>201.39999999999998</ele><time>2026-04-19T07:29:34.925Z</time></trkpt><trkpt lat="44.8926967" lon="8.0679133"><ele>202.6</ele><time>2026-04-19T07:29:35.926Z</time></trkpt><trkpt lat="44.8927" lon="8.0678217"><ele>203.8</ele><time>2026-04-19T07:29:36.926Z</time></trkpt><trkpt lat="44.8926767" lon="8.0676517"><ele>205.0</ele><time>2026-04-19T07:29:38.926Z</time></trkpt><trkpt lat="44.8926217" lon="8.067495"><ele>204.2857142857143</ele><time>2026-04-19T07:29:40.926Z</time></trkpt><trkpt lat="44.8926133" lon="8.067395"><ele>203.57142857142856</ele><time>2026-04-19T07:29:41.925Z</time></trkpt><trkpt lat="44.89261" lon="8.0672967"><ele>202.85714285714286</ele><time>2026-04-19T07:29:42.925Z</time></trkpt><trkpt lat="44.892595" lon="8.0672"><ele>202.14285714285717</ele><time>2026-04-19T07:29:43.925Z</time></trkpt><trkpt lat="44.8925733" lon="8.0670933"><ele>201.42857142857144</ele><time>2026-04-19T07:29:44.925Z</time></trkpt><trkpt lat="44.892545" lon="8.06699"><ele>200.71428571428572</ele><time>2026-04-19T07:29:45.926Z</time></trkpt><trkpt lat="44.8925117" lon="8.0669117"><ele>200.0</ele><time>2026-04-19T07:29:46.926Z</time></trkpt><trkpt lat="44.8924717" lon="8.0668317"><ele>200.00000000000003</ele><time>2026-04-19T07:29:47.926Z</time></trkpt><trkpt lat="44.892425" lon="8.066765"><ele>200.0</ele><time>2026-04-19T07:29:48.925Z</time></trkpt><trkpt lat="44.8923783" lon="8.0666883"><ele>200.0</ele><time>2026-04-19T07:29:49.925Z</time></trkpt><trkpt lat="44.8923433" lon="8.06661"><ele>200.0</ele><time>2026-04-19T07:29:50.925Z</time></trkpt><trkpt lat="44.8923167" lon="8.0665233"><ele>200.0</ele><time>2026-04-19T07:29:51.926Z</time></trkpt><trkpt lat="44.8922767" lon="8.0664183"><ele>200.00000000000003</ele><time>2026-04-19T07:29:52.925Z</time></trkpt><trkpt lat="44.89225" lon="8.06632"><ele>200.0</ele><time>2026-04-19T07:29:53.926Z</time></trkpt><trkpt lat="44.89223" lon="8.0662033"><ele>200.33333333333334</ele><time>2026-04-19T07:29:54.926Z</time></trkpt><trkpt lat="44.8922133" lon="8.0660767"><ele>200.66666666666669</ele><time>2026-04-19T07:29:55.925Z</time></trkpt><trkpt lat="44.892195" lon="8.0659667"><ele>201.0</ele><time>2026-04-19T07:29:56.925Z</time></trkpt><trkpt lat="44.89217" lon="8.065855"><ele>201.33333333333331</ele><time>2026-04-19T07:29:57.926Z</time></trkpt><trkpt lat="44.8921417" lon="8.0657667"><ele>201.66666666666666</ele><time>2026-04-19T07:29:58.925Z</time></trkpt><trkpt lat="44.892025" lon="8.06571"><ele>202.0</ele><time>2026-04-19T07:30:00.926Z</time></trkpt><trkpt lat="44.89193" lon="8.06573"><ele>203.33333333333331</ele><time>2026-04-19T07:30:02.925Z</time></trkpt><trkpt lat="44.8918917" lon="8.065625"><ele>204.66666666666666</ele><time>2026-04-19T07:30:04.926Z</time></trkpt><trkpt lat="44.8919317" lon="8.0654383"><ele>206.0</ele><time>2026-04-19T07:30:06.925Z</time></trkpt><trkpt lat="44.8919533" lon="8.0653517"><ele>207.33333333333331</ele><time>2026-04-19T07:30:07.925Z</time></trkpt><trkpt lat="44.8919667" lon="8.0652567"><ele>208.66666666666666</ele><time>2026-04-19T07:30:08.926Z</time></trkpt><trkpt lat="44.8919633" lon="8.06515"><ele>210.0</ele><time>2026-04-19T07:30:09.926Z</time></trkpt><trkpt lat="44.89194" lon="8.0650283"><ele>210.5</ele><time>2026-04-19T07:30:10.926Z</time></trkpt><trkpt lat="44.8919133" lon="8.0649183"><ele>211.0</ele><time>2026-04-19T07:30:11.925Z</time></trkpt><trkpt lat="44.8919" lon="8.064815"><ele>211.5</ele><time>2026-04-19T07:30:12.925Z</time></trkpt><trkpt lat="44.8918983" lon="8.064705"><ele>212.0</ele><time>2026-04-19T07:30:13.926Z</time></trkpt><trkpt lat="44.8919033" lon="8.0646017"><ele>212.5</ele><time>2026-04-19T07:30:14.925Z</time></trkpt><trkpt lat="44.8919083" lon="8.0644917"><ele>213.0</ele><time>2026-04-19T07:30:15.925Z</time></trkpt><trkpt lat="44.891915" lon="8.0643767"><ele>213.0</ele><time>2026-04-19T07:30:16.925Z</time></trkpt><trkpt lat="44.8919117" lon="8.06426"><ele>213.0</ele><time>2026-04-19T07:30:17.926Z</time></trkpt><trkpt lat="44.8919083" lon="8.064145"><ele>213.0</ele><time>2026-04-19T07:30:18.926Z</time></trkpt><trkpt lat="44.8918967" lon="8.0640117"><ele>213.0</ele><time>2026-04-19T07:30:19.925Z</time></trkpt><trkpt lat="44.891895" lon="8.0638883"><ele>213.0</ele><time>2026-04-19T07:30:20.926Z</time></trkpt><trkpt lat="44.8919017" lon="8.0637667"><ele>213.0</ele><time>2026-04-19T07:30:21.925Z</time></trkpt><trkpt lat="44.8919" lon="8.063635"><ele>212.66666666666666</ele><time>2026-04-19T07:30:22.925Z</time></trkpt><trkpt lat="44.89188" lon="8.0635183"><ele>212.33333333333331</ele><time>2026-04-19T07:30:23.926Z</time></trkpt><trkpt lat="44.8918617" lon="8.0634117"><ele>212.0</ele><time>2026-04-19T07:30:24.925Z</time></trkpt><trkpt lat="44.8918267" lon="8.0633083"><ele>211.66666666666666</ele><time>2026-04-19T07:30:25.925Z</time></trkpt><trkpt lat="44.8917967" lon="8.063195"><ele>211.33333333333331</ele><time>2026-04-19T07:30:26.926Z</time></trkpt><trkpt lat="44.8917667" lon="8.0630833"><ele>211.0</ele><time>2026-04-19T07:30:27.926Z</time></trkpt><trkpt lat="44.891735" lon="8.062985"><ele>211.28571428571428</ele><time>2026-04-19T07:30:28.926Z</time></trkpt><trkpt lat="44.8916967" lon="8.0628867"><ele>211.57142857142858</ele><time>2026-04-19T07:30:29.925Z</time></trkpt><trkpt lat="44.8916617" lon="8.06279"><ele>211.85714285714283</ele><time>2026-04-19T07:30:30.926Z</time></trkpt><trkpt lat="44.891635" lon="8.0627"><ele>212.14285714285714</ele><time>2026-04-19T07:30:31.926Z</time></trkpt><trkpt lat="44.8916" lon="8.0626183"><ele>212.42857142857142</ele><time>2026-04-19T07:30:32.925Z</time></trkpt><trkpt lat="44.8915583" lon="8.0625317"><ele>212.7142857142857</ele><time>2026-04-19T07:30:33.925Z</time></trkpt><trkpt lat="44.8915233" lon="8.0624333"><ele>213.0</ele><time>2026-04-19T07:30:34.926Z</time></trkpt><trkpt lat="44.8914867" lon="8.06234"><ele>213.0</ele><time>2026-04-19T07:30:35.925Z</time></trkpt><trkpt lat="44.8914433" lon="8.062235"><ele>213.0</ele><time>2026-04-19T07:30:36.925Z</time></trkpt><trkpt lat="44.891415" lon="8.0621233"><ele>213.0</ele><time>2026-04-19T07:30:37.925Z</time></trkpt><trkpt lat="44.891385" lon="8.0620217"><ele>213.0</ele><time>2026-04-19T07:30:38.925Z</time></trkpt><trkpt lat="44.8913617" lon="8.0619217"><ele>213.0</ele><time>2026-04-19T07:30:39.925Z</time></trkpt><trkpt lat="44.8913367" lon="8.0618133"><ele>213.0</ele><time>2026-04-19T07:30:40.925Z</time></trkpt><trkpt lat="44.8913083" lon="8.06168"><ele>214.83333333333334</ele><time>2026-04-19T07:30:41.925Z</time></trkpt><trkpt lat="44.8912833" lon="8.061565"><ele>216.66666666666669</ele><time>2026-04-19T07:30:42.925Z</time></trkpt><trkpt lat="44.8912683" lon="8.0614533"><ele>218.5</ele><time>2026-04-19T07:30:43.926Z</time></trkpt><trkpt lat="44.8912417" lon="8.061355"><ele>220.33333333333334</ele><time>2026-04-19T07:30:44.926Z</time></trkpt><trkpt lat="44.89121" lon="8.061265"><ele>222.16666666666669</ele><time>2026-04-19T07:30:45.926Z</time></trkpt><trkpt lat="44.8911817" lon="8.061175"><ele>224.0</ele><time>2026-04-19T07:30:46.925Z</time></trkpt><trkpt lat="44.8911267" lon="8.0610917"><ele>224.00000000000003</ele><time>2026-04-19T07:30:47.925Z</time></trkpt><trkpt lat="44.89109" lon="8.061"><ele>224.0</ele><time>2026-04-19T07:30:48.926Z</time></trkpt><trkpt lat="44.8910533" lon="8.060885"><ele>224.0</ele><time>2026-04-19T07:30:49.926Z</time></trkpt><trkpt lat="44.891025" lon="8.0607717"><ele>224.0</ele><time>2026-04-19T07:30:50.926Z</time></trkpt><trkpt lat="44.890995" lon="8.0606767"><ele>224.00000000000003</ele><time>2026-04-19T07:30:51.926Z</time></trkpt><trkpt lat="44.890935" lon="8.0605633"><ele>224.0</ele><time>2026-04-19T07:30:52.925Z</time></trkpt><trkpt lat="44.890875" lon="8.0604517"><ele>223.66666666666669</ele><time>2026-04-19T07:30:53.926Z</time></trkpt><trkpt lat="44.890815" lon="8.0603567"><ele>223.33333333333334</ele><time>2026-04-19T07:30:54.926Z</time></trkpt><trkpt lat="44.8907533" lon="8.060265"><ele>223.0</ele><time>2026-04-19T07:30:55.925Z</time></trkpt><trkpt lat="44.8906983" lon="8.060185"><ele>222.66666666666669</ele><time>2026-04-19T07:30:56.926Z</time></trkpt><trkpt lat="44.8906533" lon="8.0601"><ele>222.33333333333334</ele><time>2026-04-19T07:30:57.926Z</time></trkpt><trkpt lat="44.890615" lon="8.0600167"><ele>222.0</ele><time>2026-04-19T07:30:58.925Z</time></trkpt><trkpt lat="44.8905817" lon="8.05992"><ele>222.0</ele><time>2026-04-19T07:30:59.925Z</time></trkpt><trkpt lat="44.8905471" lon="8.0598329"><ele>222.0</ele><time>2026-04-19T07:31:00.925Z</time></trkpt><trkpt lat="44.8905233" lon="8.0597378"><ele>222.0</ele><time>2026-04-19T07:31:01.925Z</time></trkpt><trkpt lat="44.8904937" lon="8.0596361"><ele>222.0</ele><time>2026-04-19T07:31:02.925Z</time></trkpt><trkpt lat="44.8904667" lon="8.0595302"><ele>222.0</ele><time>2026-04-19T07:31:03.926Z</time></trkpt><trkpt lat="44.8904364" lon="8.0594176"><ele>222.0</ele><time>2026-04-19T07:31:04.925Z</time></trkpt><trkpt lat="44.8904032" lon="8.0593122"><ele>222.0</ele><time>2026-04-19T07:31:05.925Z</time></trkpt><trkpt lat="44.8903659" lon="8.0592147"><ele>222.0</ele><time>2026-04-19T07:31:06.926Z</time></trkpt><trkpt lat="44.8903229" lon="8.0591171"><ele>222.0</ele><time>2026-04-19T07:31:07.925Z</time></trkpt><trkpt lat="44.890276" lon="8.0590171"><ele>222.0</ele><time>2026-04-19T07:31:08.925Z</time></trkpt><trkpt lat="44.8902248" lon="8.0589273"><ele>222.0</ele><time>2026-04-19T07:31:09.925Z</time></trkpt><trkpt lat="44.8901737" lon="8.0588402"><ele>222.0</ele><time>2026-04-19T07:31:10.926Z</time></trkpt><trkpt lat="44.8901175" lon="8.0587499"><ele>222.33333333333334</ele><time>2026-04-19T07:31:11.925Z</time></trkpt><trkpt lat="44.890058" lon="8.0586519"><ele>222.66666666666669</ele><time>2026-04-19T07:31:12.926Z</time></trkpt><trkpt lat="44.8900034" lon="8.0585516"><ele>223.0</ele><time>2026-04-19T07:31:13.925Z</time></trkpt><trkpt lat="44.8899498" lon="8.0584583"><ele>223.33333333333334</ele><time>2026-04-19T07:31:14.925Z</time></trkpt><trkpt lat="44.8899001" lon="8.0583645"><ele>223.66666666666669</ele><time>2026-04-19T07:31:15.926Z</time></trkpt><trkpt lat="44.889846" lon="8.0582728"><ele>224.0</ele><time>2026-04-19T07:31:16.926Z</time></trkpt><trkpt lat="44.8897907" lon="8.0581915"><ele>224.00000000000003</ele><time>2026-04-19T07:31:17.926Z</time></trkpt><trkpt lat="44.8897091" lon="8.0580974"><ele>224.0</ele><time>2026-04-19T07:31:19.925Z</time></trkpt><trkpt lat="44.8896245" lon="8.0580935"><ele>224.0</ele><time>2026-04-19T07:31:21.925Z</time></trkpt><trkpt lat="44.8895553" lon="8.058073"><ele>224.0</ele><time>2026-04-19T07:31:23.925Z</time></trkpt><trkpt lat="44.8895121" lon="8.0579858"><ele>224.00000000000003</ele><time>2026-04-19T07:31:25.925Z</time></trkpt><trkpt lat="44.8894864" lon="8.0578573"><ele>224.0</ele><time>2026-04-19T07:31:27.926Z</time></trkpt><trkpt lat="44.8894096" lon="8.0576977"><ele>224.00000000000003</ele><time>2026-04-19T07:31:29.926Z</time></trkpt><trkpt lat="44.88936" lon="8.057601"><ele>224.0</ele><time>2026-04-19T07:31:30.925Z</time></trkpt><trkpt lat="44.889305" lon="8.0575095"><ele>224.0</ele><time>2026-04-19T07:31:31.926Z</time></trkpt><trkpt lat="44.8892473" lon="8.0574171"><ele>224.0</ele><time>2026-04-19T07:31:32.925Z</time></trkpt><trkpt lat="44.8891816" lon="8.0573437"><ele>224.00000000000003</ele><time>2026-04-19T07:31:33.925Z</time></trkpt><trkpt lat="44.889113" lon="8.0572807"><ele>224.0</ele><time>2026-04-19T07:31:34.926Z</time></trkpt><trkpt lat="44.8890406" lon="8.057213"><ele>224.2</ele><time>2026-04-19T07:31:35.926Z</time></trkpt><trkpt lat="44.8889589" lon="8.0571477"><ele>224.39999999999998</ele><time>2026-04-19T07:31:36.925Z</time></trkpt><trkpt lat="44.8888823" lon="8.0570859"><ele>224.6</ele><time>2026-04-19T07:31:37.926Z</time></trkpt><trkpt lat="44.888809" lon="8.0570183"><ele>224.8</ele><time>2026-04-19T07:31:38.925Z</time></trkpt><trkpt lat="44.8887263" lon="8.0569372"><ele>225.0</ele><time>2026-04-19T07:31:39.925Z</time></trkpt><trkpt lat="44.8886372" lon="8.0568416"><ele>225.0</ele><time>2026-04-19T07:31:40.926Z</time></trkpt><trkpt lat="44.8885622" lon="8.056729"><ele>225.0</ele><time>2026-04-19T07:31:41.926Z</time></trkpt><trkpt lat="44.8885001" lon="8.0566225"><ele>225.0</ele><time>2026-04-19T07:31:42.926Z</time></trkpt><trkpt lat="44.8884518" lon="8.0565198"><ele>225.0</ele><time>2026-04-19T07:31:43.925Z</time></trkpt><trkpt lat="44.8884147" lon="8.0564266"><ele>225.0</ele><time>2026-04-19T07:31:44.926Z</time></trkpt><trkpt lat="44.8883749" lon="8.0563476"><ele>225.0</ele><time>2026-04-19T07:31:45.926Z</time></trkpt><trkpt lat="44.8882909" lon="8.0562588"><ele>224.8</ele><time>2026-04-19T07:31:47.926Z</time></trkpt><trkpt lat="44.8881733" lon="8.0562617"><ele>224.6</ele><time>2026-04-19T07:31:49.925Z</time></trkpt><trkpt lat="44.8880667" lon="8.0561967"><ele>224.39999999999998</ele><time>2026-04-19T07:31:51.926Z</time></trkpt><trkpt lat="44.8880233" lon="8.0561317"><ele>224.2</ele><time>2026-04-19T07:31:52.926Z</time></trkpt><trkpt lat="44.8879633" lon="8.055985"><ele>224.0</ele><time>2026-04-19T07:31:54.925Z</time></trkpt><trkpt lat="44.8879367" lon="8.0559017"><ele>224.00000000000003</ele><time>2026-04-19T07:31:55.926Z</time></trkpt><trkpt lat="44.8879117" lon="8.0558183"><ele>224.0</ele><time>2026-04-19T07:31:56.926Z</time></trkpt><trkpt lat="44.8878933" lon="8.0557317"><ele>224.0</ele><time>2026-04-19T07:31:57.925Z</time></trkpt><trkpt lat="44.8878567" lon="8.0556383"><ele>224.0</ele><time>2026-04-19T07:31:58.925Z</time></trkpt><trkpt lat="44.8878117" lon="8.0555467"><ele>224.00000000000003</ele><time>2026-04-19T07:31:59.925Z</time></trkpt><trkpt lat="44.887765" lon="8.0554517"><ele>224.0</ele><time>2026-04-19T07:32:00.925Z</time></trkpt><trkpt lat="44.8877" lon="8.0553417"><ele>224.00000000000003</ele><time>2026-04-19T07:32:01.926Z</time></trkpt><trkpt lat="44.8876417" lon="8.0552517"><ele>224.0</ele><time>2026-04-19T07:32:02.926Z</time></trkpt><trkpt lat="44.887585" lon="8.0551767"><ele>224.0</ele><time>2026-04-19T07:32:03.925Z</time></trkpt><trkpt lat="44.88752" lon="8.0551017"><ele>224.0</ele><time>2026-04-19T07:32:04.926Z</time></trkpt><trkpt lat="44.887445" lon="8.0550333"><ele>224.00000000000003</ele><time>2026-04-19T07:32:05.926Z</time></trkpt><trkpt lat="44.8873633" lon="8.0549417"><ele>224.0</ele><time>2026-04-19T07:32:06.926Z</time></trkpt><trkpt lat="44.8872817" lon="8.0548567"><ele>227.2</ele><time>2026-04-19T07:32:07.925Z</time></trkpt><trkpt lat="44.887205" lon="8.0547717"><ele>230.39999999999998</ele><time>2026-04-19T07:32:08.925Z</time></trkpt><trkpt lat="44.8871267" lon="8.054665"><ele>233.6</ele><time>2026-04-19T07:32:09.926Z</time></trkpt><trkpt lat="44.88705" lon="8.0545883"><ele>236.8</ele><time>2026-04-19T07:32:10.925Z</time></trkpt><trkpt lat="44.8869783" lon="8.054505"><ele>240.0</ele><time>2026-04-19T07:32:11.926Z</time></trkpt><trkpt lat="44.8869183" lon="8.0544267"><ele>240.0</ele><time>2026-04-19T07:32:12.925Z</time></trkpt><trkpt lat="44.8868733" lon="8.0543567"><ele>240.0</ele><time>2026-04-19T07:32:13.926Z</time></trkpt><trkpt lat="44.8867933" lon="8.0542417"><ele>240.0</ele><time>2026-04-19T07:32:15.926Z</time></trkpt><trkpt lat="44.8867333" lon="8.0540817"><ele>240.0</ele><time>2026-04-19T07:32:17.926Z</time></trkpt><trkpt lat="44.8867083" lon="8.053985"><ele>240.0</ele><time>2026-04-19T07:32:18.925Z</time></trkpt><trkpt lat="44.88668" lon="8.05389"><ele>240.0</ele><time>2026-04-19T07:32:19.925Z</time></trkpt><trkpt lat="44.88666" lon="8.05378"><ele>240.0</ele><time>2026-04-19T07:32:20.926Z</time></trkpt><trkpt lat="44.88663" lon="8.0536633"><ele>240.0</ele><time>2026-04-19T07:32:21.925Z</time></trkpt><trkpt lat="44.8866" lon="8.0535583"><ele>240.0</ele><time>2026-04-19T07:32:22.925Z</time></trkpt><trkpt lat="44.8865517" lon="8.0534817"><ele>240.0</ele><time>2026-04-19T07:32:23.925Z</time></trkpt><trkpt lat="44.8864633" lon="8.0533683"><ele>240.0</ele><time>2026-04-19T07:32:25.925Z</time></trkpt><trkpt lat="44.88642" lon="8.0532333"><ele>240.16666666666666</ele><time>2026-04-19T07:32:27.925Z</time></trkpt><trkpt lat="44.8863883" lon="8.05311"><ele>240.33333333333331</ele><time>2026-04-19T07:32:30.925Z</time></trkpt><trkpt lat="44.8864617" lon="8.0531533"><ele>240.5</ele><time>2026-04-19T07:32:36.925Z</time></trkpt><trkpt lat="44.8865233" lon="8.0532317"><ele>240.66666666666666</ele><time>2026-04-19T07:32:38.925Z</time></trkpt><trkpt lat="44.88661" lon="8.0532517"><ele>240.83333333333331</ele><time>2026-04-19T07:32:40.925Z</time></trkpt><trkpt lat="44.8866983" lon="8.0532167"><ele>241.0</ele><time>2026-04-19T07:32:42.926Z</time></trkpt><trkpt lat="44.886785" lon="8.0531217"><ele>241.0</ele><time>2026-04-19T07:32:44.925Z</time></trkpt><trkpt lat="44.886855" lon="8.05299"><ele>241.0</ele><time>2026-04-19T07:32:46.925Z</time></trkpt><trkpt lat="44.8869167" lon="8.052865"><ele>241.0</ele><time>2026-04-19T07:32:48.925Z</time></trkpt><trkpt lat="44.886985" lon="8.052715"><ele>241.0</ele><time>2026-04-19T07:32:50.926Z</time></trkpt><trkpt lat="44.88704" lon="8.0525583"><ele>240.99999999999997</ele><time>2026-04-19T07:32:52.925Z</time></trkpt><trkpt lat="44.8870683" lon="8.0524733"><ele>241.0</ele><time>2026-04-19T07:32:53.925Z</time></trkpt><trkpt lat="44.8871" lon="8.0523733"><ele>241.0</ele><time>2026-04-19T07:32:54.926Z</time></trkpt><trkpt lat="44.887135" lon="8.0522867"><ele>241.0</ele><time>2026-04-19T07:32:55.926Z</time></trkpt><trkpt lat="44.8871817" lon="8.0521817"><ele>240.99999999999997</ele><time>2026-04-19T07:32:56.925Z</time></trkpt><trkpt lat="44.887225" lon="8.05209"><ele>241.0</ele><time>2026-04-19T07:32:57.926Z</time></trkpt><trkpt lat="44.8872617" lon="8.0519883"><ele>239.33333333333331</ele><time>2026-04-19T07:32:58.926Z</time></trkpt><trkpt lat="44.887295" lon="8.0518817"><ele>237.66666666666666</ele><time>2026-04-19T07:32:59.926Z</time></trkpt><trkpt lat="44.887315" lon="8.0517617"><ele>236.0</ele><time>2026-04-19T07:33:00.925Z</time></trkpt><trkpt lat="44.8873283" lon="8.05163"><ele>234.33333333333331</ele><time>2026-04-19T07:33:01.925Z</time></trkpt><trkpt lat="44.887335" lon="8.0515083"><ele>232.66666666666666</ele><time>2026-04-19T07:33:02.926Z</time></trkpt><trkpt lat="44.887335" lon="8.0513867"><ele>231.0</ele><time>2026-04-19T07:33:03.925Z</time></trkpt><trkpt lat="44.8873367" lon="8.0512833"><ele>229.0</ele><time>2026-04-19T07:33:04.926Z</time></trkpt><trkpt lat="44.88735" lon="8.0511933"><ele>227.0</ele><time>2026-04-19T07:33:05.926Z</time></trkpt><trkpt lat="44.8873933" lon="8.0510933"><ele>225.0</ele><time>2026-04-19T07:33:06.925Z</time></trkpt><trkpt lat="44.8874383" lon="8.0509917"><ele>223.0</ele><time>2026-04-19T07:33:07.925Z</time></trkpt><trkpt lat="44.8874767" lon="8.0508967"><ele>221.0</ele><time>2026-04-19T07:33:08.925Z</time></trkpt><trkpt lat="44.8875183" lon="8.0507967"><ele>219.0</ele><time>2026-04-19T07:33:09.925Z</time></trkpt><trkpt lat="44.8875517" lon="8.0507017"><ele>220.16666666666666</ele><time>2026-04-19T07:33:10.925Z</time></trkpt><trkpt lat="44.887595" lon="8.0505933"><ele>221.33333333333331</ele><time>2026-04-19T07:33:11.925Z</time></trkpt><trkpt lat="44.8876483" lon="8.0504883"><ele>222.5</ele><time>2026-04-19T07:33:12.925Z</time></trkpt><trkpt lat="44.887705" lon="8.0503967"><ele>223.66666666666666</ele><time>2026-04-19T07:33:13.925Z</time></trkpt><trkpt lat="44.8877717" lon="8.0503167"><ele>224.83333333333331</ele><time>2026-04-19T07:33:14.925Z</time></trkpt><trkpt lat="44.8878183" lon="8.0502233"><ele>226.0</ele><time>2026-04-19T07:33:15.925Z</time></trkpt><trkpt lat="44.8878617" lon="8.0501283"><ele>225.99999999999997</ele><time>2026-04-19T07:33:16.926Z</time></trkpt><trkpt lat="44.8879083" lon="8.0500483"><ele>226.0</ele><time>2026-04-19T07:33:17.925Z</time></trkpt><trkpt lat="44.8879533" lon="8.0499583"><ele>226.0</ele><time>2026-04-19T07:33:18.926Z</time></trkpt><trkpt lat="44.8880025" lon="8.0498679"><ele>226.0</ele><time>2026-04-19T07:33:19.926Z</time></trkpt><trkpt lat="44.8880392" lon="8.049769"><ele>225.99999999999997</ele><time>2026-04-19T07:33:20.925Z</time></trkpt><trkpt lat="44.8880703" lon="8.0496658"><ele>226.0</ele><time>2026-04-19T07:33:21.926Z</time></trkpt><trkpt lat="44.8880977" lon="8.0495604"><ele>223.66666666666666</ele><time>2026-04-19T07:33:22.926Z</time></trkpt><trkpt lat="44.888132" lon="8.0494526"><ele>221.33333333333331</ele><time>2026-04-19T07:33:23.926Z</time></trkpt><trkpt lat="44.8881584" lon="8.0493493"><ele>219.0</ele><time>2026-04-19T07:33:24.925Z</time></trkpt><trkpt lat="44.8881794" lon="8.0492381"><ele>216.66666666666669</ele><time>2026-04-19T07:33:25.925Z</time></trkpt><trkpt lat="44.8882017" lon="8.0491208"><ele>214.33333333333334</ele><time>2026-04-19T07:33:26.925Z</time></trkpt><trkpt lat="44.8882284" lon="8.0490045"><ele>212.0</ele><time>2026-04-19T07:33:27.925Z</time></trkpt><trkpt lat="44.8882502" lon="8.0488904"><ele>210.85714285714286</ele><time>2026-04-19T07:33:28.926Z</time></trkpt><trkpt lat="44.8882791" lon="8.0487933"><ele>209.7142857142857</ele><time>2026-04-19T07:33:29.926Z</time></trkpt><trkpt lat="44.8883056" lon="8.0487034"><ele>208.57142857142856</ele><time>2026-04-19T07:33:30.926Z</time></trkpt><trkpt lat="44.8883349" lon="8.0486205"><ele>207.42857142857144</ele><time>2026-04-19T07:33:31.926Z</time></trkpt><trkpt lat="44.8883684" lon="8.0485398"><ele>206.28571428571428</ele><time>2026-04-19T07:33:32.925Z</time></trkpt><trkpt lat="44.8884124" lon="8.0484624"><ele>205.14285714285714</ele><time>2026-04-19T07:33:33.925Z</time></trkpt><trkpt lat="44.8884663" lon="8.0483815"><ele>204.0</ele><time>2026-04-19T07:33:34.925Z</time></trkpt><trkpt lat="44.8885192" lon="8.0482939"><ele>201.83333333333334</ele><time>2026-04-19T07:33:35.925Z</time></trkpt><trkpt lat="44.888569" lon="8.0482035"><ele>199.66666666666666</ele><time>2026-04-19T07:33:36.925Z</time></trkpt><trkpt lat="44.8886169" lon="8.0481071"><ele>197.5</ele><time>2026-04-19T07:33:37.926Z</time></trkpt><trkpt lat="44.8886673" lon="8.0480066"><ele>195.33333333333331</ele><time>2026-04-19T07:33:38.926Z</time></trkpt><trkpt lat="44.8887155" lon="8.047899"><ele>193.16666666666666</ele><time>2026-04-19T07:33:39.925Z</time></trkpt><trkpt lat="44.8887553" lon="8.0478033"><ele>191.0</ele><time>2026-04-19T07:33:40.926Z</time></trkpt><trkpt lat="44.8887974" lon="8.0476683"><ele>191.0</ele><time>2026-04-19T07:33:42.926Z</time></trkpt><trkpt lat="44.8888054" lon="8.0475539"><ele>191.0</ele><time>2026-04-19T07:33:45.925Z</time></trkpt><trkpt lat="44.8887831" lon="8.0474413"><ele>191.0</ele><time>2026-04-19T07:33:48.926Z</time></trkpt><trkpt lat="44.8887054" lon="8.0473369"><ele>191.0</ele><time>2026-04-19T07:33:50.926Z</time></trkpt><trkpt lat="44.8886388" lon="8.0472903"><ele>191.0</ele><time>2026-04-19T07:33:51.925Z</time></trkpt><trkpt lat="44.8885713" lon="8.0472422"><ele>191.0</ele><time>2026-04-19T07:33:52.926Z</time></trkpt><trkpt lat="44.8885143" lon="8.0471695"><ele>192.0</ele><time>2026-04-19T07:33:53.925Z</time></trkpt><trkpt lat="44.8884646" lon="8.047073"><ele>193.0</ele><time>2026-04-19T07:33:54.926Z</time></trkpt><trkpt lat="44.8884198" lon="8.0469678"><ele>194.0</ele><time>2026-04-19T07:33:55.926Z</time></trkpt><trkpt lat="44.8883871" lon="8.0468528"><ele>195.0</ele><time>2026-04-19T07:33:56.926Z</time></trkpt><trkpt lat="44.8883592" lon="8.0467383"><ele>196.00000000000003</ele><time>2026-04-19T07:33:57.926Z</time></trkpt><trkpt lat="44.8883354" lon="8.0466335"><ele>197.0</ele><time>2026-04-19T07:33:58.925Z</time></trkpt><trkpt lat="44.8883117" lon="8.0465333"><ele>200.39999999999998</ele><time>2026-04-19T07:33:59.925Z</time></trkpt><trkpt lat="44.88822" lon="8.0464033"><ele>203.79999999999998</ele><time>2026-04-19T07:34:01.925Z</time></trkpt><trkpt lat="44.8881567" lon="8.046335"><ele>207.2</ele><time>2026-04-19T07:34:02.925Z</time></trkpt><trkpt lat="44.8880933" lon="8.04625"><ele>210.6</ele><time>2026-04-19T07:34:03.925Z</time></trkpt><trkpt lat="44.888025" lon="8.04617"><ele>214.0</ele><time>2026-04-19T07:34:04.925Z</time></trkpt><trkpt lat="44.88796" lon="8.0461067"><ele>213.99999999999997</ele><time>2026-04-19T07:34:05.925Z</time></trkpt><trkpt lat="44.8878833" lon="8.0460467"><ele>214.0</ele><time>2026-04-19T07:34:06.926Z</time></trkpt><trkpt lat="44.88781" lon="8.046"><ele>214.0</ele><time>2026-04-19T07:34:07.926Z</time></trkpt><trkpt lat="44.8877267" lon="8.04598"><ele>214.0</ele><time>2026-04-19T07:34:08.925Z</time></trkpt><trkpt lat="44.88764" lon="8.045955"><ele>213.99999999999997</ele><time>2026-04-19T07:34:09.925Z</time></trkpt><trkpt lat="44.887555" lon="8.0459183"><ele>214.0</ele><time>2026-04-19T07:34:10.926Z</time></trkpt><trkpt lat="44.8874733" lon="8.0458717"><ele>215.33333333333331</ele><time>2026-04-19T07:34:11.926Z</time></trkpt><trkpt lat="44.8873917" lon="8.0458117"><ele>216.66666666666666</ele><time>2026-04-19T07:34:12.926Z</time></trkpt><trkpt lat="44.8873167" lon="8.045745"><ele>218.0</ele><time>2026-04-19T07:34:13.925Z</time></trkpt><trkpt lat="44.8872533" lon="8.0456817"><ele>219.33333333333331</ele><time>2026-04-19T07:34:14.926Z</time></trkpt><trkpt lat="44.8872" lon="8.0456233"><ele>220.66666666666666</ele><time>2026-04-19T07:34:15.925Z</time></trkpt><trkpt lat="44.8871467" lon="8.04556"><ele>222.0</ele><time>2026-04-19T07:34:16.926Z</time></trkpt><trkpt lat="44.8870867" lon="8.0455017"><ele>222.0</ele><time>2026-04-19T07:34:17.925Z</time></trkpt><trkpt lat="44.8870283" lon="8.04543"><ele>222.0</ele><time>2026-04-19T07:34:18.926Z</time></trkpt><trkpt lat="44.8869833" lon="8.045345"><ele>222.0</ele><time>2026-04-19T07:34:19.925Z</time></trkpt><trkpt lat="44.8869333" lon="8.0452567"><ele>222.0</ele><time>2026-04-19T07:34:20.926Z</time></trkpt><trkpt lat="44.8868917" lon="8.045175"><ele>222.0</ele><time>2026-04-19T07:34:21.925Z</time></trkpt><trkpt lat="44.8868033" lon="8.0450867"><ele>222.0</ele><time>2026-04-19T07:34:23.925Z</time></trkpt><trkpt lat="44.8866933" lon="8.0450167"><ele>220.39999999999998</ele><time>2026-04-19T07:34:25.925Z</time></trkpt><trkpt lat="44.8866183" lon="8.0449067"><ele>218.79999999999998</ele><time>2026-04-19T07:34:27.926Z</time></trkpt><trkpt lat="44.8865717" lon="8.044725"><ele>217.2</ele><time>2026-04-19T07:34:29.925Z</time></trkpt><trkpt lat="44.8865433" lon="8.04462"><ele>215.6</ele><time>2026-04-19T07:34:30.926Z</time></trkpt><trkpt lat="44.8865067" lon="8.04453"><ele>214.0</ele><time>2026-04-19T07:34:31.926Z</time></trkpt><trkpt lat="44.8864583" lon="8.0444483"><ele>214.0</ele><time>2026-04-19T07:34:32.925Z</time></trkpt><trkpt lat="44.8863917" lon="8.044375"><ele>213.99999999999997</ele><time>2026-04-19T07:34:33.925Z</time></trkpt><trkpt lat="44.8863" lon="8.0443333"><ele>213.99999999999997</ele><time>2026-04-19T07:34:34.925Z</time></trkpt><trkpt lat="44.8862117" lon="8.0443133"><ele>214.0</ele><time>2026-04-19T07:34:35.925Z</time></trkpt><trkpt lat="44.8861133" lon="8.0442917"><ele>214.0</ele><time>2026-04-19T07:34:36.926Z</time></trkpt><trkpt lat="44.886025" lon="8.04427"><ele>213.99999999999997</ele><time>2026-04-19T07:34:37.926Z</time></trkpt><trkpt lat="44.8859367" lon="8.0442483"><ele>214.0</ele><time>2026-04-19T07:34:38.925Z</time></trkpt><trkpt lat="44.8858583" lon="8.044215"><ele>214.0</ele><time>2026-04-19T07:34:39.925Z</time></trkpt><trkpt lat="44.8857833" lon="8.044165"><ele>214.0</ele><time>2026-04-19T07:34:40.925Z</time></trkpt><trkpt lat="44.8857283" lon="8.0441133"><ele>213.99999999999997</ele><time>2026-04-19T07:34:41.926Z</time></trkpt><trkpt lat="44.885655" lon="8.0440167"><ele>214.0</ele><time>2026-04-19T07:34:43.925Z</time></trkpt><trkpt lat="44.8855817" lon="8.04409"><ele>212.33333333333331</ele><time>2026-04-19T07:34:47.925Z</time></trkpt><trkpt lat="44.8855517" lon="8.0442133"><ele>210.66666666666666</ele><time>2026-04-19T07:34:49.926Z</time></trkpt><trkpt lat="44.8855183" lon="8.0443117"><ele>209.0</ele><time>2026-04-19T07:34:51.925Z</time></trkpt><trkpt lat="44.88551" lon="8.0444133"><ele>207.33333333333331</ele><time>2026-04-19T07:34:53.925Z</time></trkpt><trkpt lat="44.8855783" lon="8.0444917"><ele>205.66666666666666</ele><time>2026-04-19T07:34:56.926Z</time></trkpt><trkpt lat="44.8856617" lon="8.0445783"><ele>204.0</ele><time>2026-04-19T07:34:58.926Z</time></trkpt><trkpt lat="44.8857583" lon="8.0446867"><ele>204.0</ele><time>2026-04-19T07:35:00.925Z</time></trkpt><trkpt lat="44.8858367" lon="8.04481"><ele>204.0</ele><time>2026-04-19T07:35:02.925Z</time></trkpt><trkpt lat="44.8858867" lon="8.0449417"><ele>204.0</ele><time>2026-04-19T07:35:04.926Z</time></trkpt><trkpt lat="44.8858967" lon="8.0450717"><ele>204.0</ele><time>2026-04-19T07:35:06.925Z</time></trkpt><trkpt lat="44.8859167" lon="8.04518"><ele>204.0</ele><time>2026-04-19T07:35:08.926Z</time></trkpt><trkpt lat="44.88591" lon="8.0453083"><ele>205.66666666666666</ele><time>2026-04-19T07:35:10.926Z</time></trkpt><trkpt lat="44.8858783" lon="8.04546"><ele>207.33333333333331</ele><time>2026-04-19T07:35:42.926Z</time></trkpt><trkpt lat="44.885825" lon="8.0455567"><ele>209.0</ele><time>2026-04-19T07:35:44.926Z</time></trkpt><trkpt lat="44.8857533" lon="8.0456783"><ele>210.66666666666666</ele><time>2026-04-19T07:35:46.926Z</time></trkpt><trkpt lat="44.8857033" lon="8.04574"><ele>212.33333333333331</ele><time>2026-04-19T07:35:47.926Z</time></trkpt><trkpt lat="44.8856517" lon="8.0458017"><ele>214.0</ele><time>2026-04-19T07:35:48.926Z</time></trkpt><trkpt lat="44.8856017" lon="8.0458583"><ele>213.99999999999997</ele><time>2026-04-19T07:35:49.925Z</time></trkpt><trkpt lat="44.88554" lon="8.0459317"><ele>214.0</ele><time>2026-04-19T07:35:50.926Z</time></trkpt><trkpt lat="44.8854733" lon="8.045995"><ele>214.0</ele><time>2026-04-19T07:35:51.925Z</time></trkpt><trkpt lat="44.88541" lon="8.0460317"><ele>214.0</ele><time>2026-04-19T07:35:52.926Z</time></trkpt><trkpt lat="44.885345" lon="8.0460533"><ele>213.99999999999997</ele><time>2026-04-19T07:35:53.926Z</time></trkpt><trkpt lat="44.885235" lon="8.0461"><ele>214.0</ele><time>2026-04-19T07:35:55.926Z</time></trkpt><trkpt lat="44.8851533" lon="8.0461967"><ele>217.33333333333331</ele><time>2026-04-19T07:35:57.925Z</time></trkpt><trkpt lat="44.8850917" lon="8.0462867"><ele>220.66666666666666</ele><time>2026-04-19T07:35:59.926Z</time></trkpt><trkpt lat="44.885025" lon="8.0463233"><ele>224.0</ele><time>2026-04-19T07:36:01.926Z</time></trkpt><trkpt lat="44.88499" lon="8.0462167"><ele>227.33333333333331</ele><time>2026-04-19T07:36:05.925Z</time></trkpt><trkpt lat="44.8850067" lon="8.04611"><ele>230.66666666666666</ele><time>2026-04-19T07:36:07.925Z</time></trkpt><trkpt lat="44.8850383" lon="8.0459833"><ele>234.0</ele><time>2026-04-19T07:36:10.925Z</time></trkpt><trkpt lat="44.88499" lon="8.0459"><ele>234.0</ele><time>2026-04-19T07:36:13.926Z</time></trkpt><trkpt lat="44.8849033" lon="8.04591"><ele>234.0</ele><time>2026-04-19T07:36:15.925Z</time></trkpt><trkpt lat="44.8848283" lon="8.0459583"><ele>234.0</ele><time>2026-04-19T07:36:18.926Z</time></trkpt><trkpt lat="44.8847783" lon="8.04603"><ele>234.0</ele><time>2026-04-19T07:36:22.926Z</time></trkpt><trkpt lat="44.8847183" lon="8.0460717"><ele>234.0</ele><time>2026-04-19T07:36:24.925Z</time></trkpt><trkpt lat="44.8846683" lon="8.0461583"><ele>234.0</ele><time>2026-04-19T07:36:26.926Z</time></trkpt><trkpt lat="44.8846156" lon="8.046256"><ele>234.0</ele><time>2026-04-19T07:36:28.926Z</time></trkpt><trkpt lat="44.8845272" lon="8.0463144"><ele>234.0</ele><time>2026-04-19T07:36:30.925Z</time></trkpt><trkpt lat="44.8844369" lon="8.0463633"><ele>234.0</ele><time>2026-04-19T07:36:32.925Z</time></trkpt><trkpt lat="44.8843738" lon="8.0464004"><ele>234.0</ele><time>2026-04-19T07:36:33.925Z</time></trkpt><trkpt lat="44.8843032" lon="8.0464417"><ele>234.0</ele><time>2026-04-19T07:36:34.926Z</time></trkpt><trkpt lat="44.8842338" lon="8.0464814"><ele>234.0</ele><time>2026-04-19T07:36:35.925Z</time></trkpt><trkpt lat="44.8841691" lon="8.0465197"><ele>249.0</ele><time>2026-04-19T07:36:37.925Z</time></trkpt></trkseg><trkseg><trkpt lat="44.9003217" lon="7.991435"><ele>252.0</ele><time>2026-04-19T09:01:00.357Z</time></trkpt><trkpt lat="44.900225" lon="7.9913567"><ele>252.0</ele><time>2026-04-19T09:01:01.358Z</time></trkpt><trkpt lat="44.90014" lon="7.991315"><ele>252.0</ele><time>2026-04-19T09:01:03.918Z</time></trkpt><trkpt lat="44.90023" lon="7.9912433"><ele>252.0</ele><time>2026-04-19T09:01:33.919Z</time></trkpt><trkpt lat="44.9002817" lon="7.9911833"><ele>252.0</ele><time>2026-04-19T09:01:34.919Z</time></trkpt><trkpt lat="44.9003367" lon="7.9911217"><ele>252.0</ele><time>2026-04-19T09:01:35.919Z</time></trkpt><trkpt lat="44.900405" lon="7.991035"><ele>252.0</ele><time>2026-04-19T09:01:36.919Z</time></trkpt><trkpt lat="44.900485" lon="7.99092"><ele>252.0</ele><time>2026-04-19T09:01:37.919Z</time></trkpt><trkpt lat="44.900565" lon="7.9908267"><ele>252.0</ele><time>2026-04-19T09:01:38.918Z</time></trkpt><trkpt lat="44.9006467" lon="7.9907433"><ele>252.0</ele><time>2026-04-19T09:01:39.918Z</time></trkpt><trkpt lat="44.900725" lon="7.9906433"><ele>252.0</ele><time>2026-04-19T09:01:40.919Z</time></trkpt><trkpt lat="44.9007933" lon="7.9905433"><ele>251.39999999999998</ele><time>2026-04-19T09:01:41.919Z</time></trkpt><trkpt lat="44.9008683" lon="7.9904533"><ele>250.79999999999998</ele><time>2026-04-19T09:01:42.919Z</time></trkpt><trkpt lat="44.9009367" lon="7.9903533"><ele>250.2</ele><time>2026-04-19T09:01:43.919Z</time></trkpt><trkpt lat="44.9009967" lon="7.9902567"><ele>249.6</ele><time>2026-04-19T09:01:44.919Z</time></trkpt><trkpt lat="44.9010467" lon="7.9901667"><ele>249.0</ele><time>2026-04-19T09:01:45.919Z</time></trkpt><trkpt lat="44.9010967" lon="7.9900767"><ele>247.16666666666666</ele><time>2026-04-19T09:01:46.918Z</time></trkpt><trkpt lat="44.9011367" lon="7.98998"><ele>245.33333333333331</ele><time>2026-04-19T09:01:47.919Z</time></trkpt><trkpt lat="44.9011683" lon="7.989885"><ele>243.5</ele><time>2026-04-19T09:01:48.918Z</time></trkpt><trkpt lat="44.90122" lon="7.98977"><ele>241.66666666666666</ele><time>2026-04-19T09:01:50.919Z</time></trkpt><trkpt lat="44.901285" lon="7.989795"><ele>239.83333333333331</ele><time>2026-04-19T09:01:54.919Z</time></trkpt><trkpt lat="44.9012917" lon="7.9899117"><ele>238.0</ele><time>2026-04-19T09:01:57.918Z</time></trkpt><trkpt lat="44.9013167" lon="7.9900017"><ele>237.99999999999997</ele><time>2026-04-19T09:02:00.919Z</time></trkpt><trkpt lat="44.9013833" lon="7.9900583"><ele>238.0</ele><time>2026-04-19T09:02:03.918Z</time></trkpt><trkpt lat="44.9014583" lon="7.9900917"><ele>238.0</ele><time>2026-04-19T09:02:06.919Z</time></trkpt><trkpt lat="44.901515" lon="7.9900333"><ele>238.0</ele><time>2026-04-19T09:02:09.918Z</time></trkpt><trkpt lat="44.901565" lon="7.9899517"><ele>237.99999999999997</ele><time>2026-04-19T09:02:11.918Z</time></trkpt><trkpt lat="44.9015983" lon="7.9898267"><ele>238.0</ele><time>2026-04-19T09:02:13.918Z</time></trkpt><trkpt lat="44.90162" lon="7.9897317"><ele>237.99999999999997</ele><time>2026-04-19T09:02:15.919Z</time></trkpt><trkpt lat="44.9016233" lon="7.9895967"><ele>238.0</ele><time>2026-04-19T09:02:18.918Z</time></trkpt><trkpt lat="44.90164" lon="7.98949"><ele>238.0</ele><time>2026-04-19T09:02:22.919Z</time></trkpt><trkpt lat="44.9017033" lon="7.9894417"><ele>238.0</ele><time>2026-04-19T09:02:28.918Z</time></trkpt><trkpt lat="44.90178" lon="7.9894233"><ele>237.99999999999997</ele><time>2026-04-19T09:02:30.918Z</time></trkpt><trkpt lat="44.9018817" lon="7.9893667"><ele>238.0</ele><time>2026-04-19T09:02:32.919Z</time></trkpt><trkpt lat="44.9019567" lon="7.989295"><ele>236.0</ele><time>2026-04-19T09:02:34.919Z</time></trkpt><trkpt lat="44.9020033" lon="7.989235"><ele>234.0</ele><time>2026-04-19T09:02:35.919Z</time></trkpt><trkpt lat="44.90204" lon="7.98916"><ele>232.0</ele><time>2026-04-19T09:02:36.919Z</time></trkpt><trkpt lat="44.9020783" lon="7.9890733"><ele>230.0</ele><time>2026-04-19T09:02:37.919Z</time></trkpt><trkpt lat="44.9021217" lon="7.9889833"><ele>228.0</ele><time>2026-04-19T09:02:38.918Z</time></trkpt><trkpt lat="44.902165" lon="7.988885"><ele>226.0</ele><time>2026-04-19T09:02:39.919Z</time></trkpt><trkpt lat="44.9022" lon="7.9887983"><ele>224.0</ele><time>2026-04-19T09:02:40.918Z</time></trkpt><trkpt lat="44.902245" lon="7.988685"><ele>224.00000000000003</ele><time>2026-04-19T09:02:42.919Z</time></trkpt><trkpt lat="44.9022667" lon="7.988585"><ele>224.0</ele><time>2026-04-19T09:02:46.918Z</time></trkpt><trkpt lat="44.9022133" lon="7.98852"><ele>224.0</ele><time>2026-04-19T09:02:48.918Z</time></trkpt><trkpt lat="44.9021617" lon="7.9884433"><ele>224.0</ele><time>2026-04-19T09:02:50.919Z</time></trkpt><trkpt lat="44.90216" lon="7.9882983"><ele>224.00000000000003</ele><time>2026-04-19T09:02:52.918Z</time></trkpt><trkpt lat="44.9022" lon="7.9881983"><ele>224.0</ele><time>2026-04-19T09:02:54.918Z</time></trkpt><trkpt lat="44.90226" lon="7.9881467"><ele>223.66666666666669</ele><time>2026-04-19T09:02:57.918Z</time></trkpt><trkpt lat="44.90232" lon="7.98811"><ele>223.33333333333334</ele><time>2026-04-19T09:03:00.919Z</time></trkpt><trkpt lat="44.9024017" lon="7.9881"><ele>223.0</ele><time>2026-04-19T09:03:04.918Z</time></trkpt><trkpt lat="44.90247" lon="7.98812"><ele>222.66666666666669</ele><time>2026-04-19T09:03:08.919Z</time></trkpt><trkpt lat="44.9025283" lon="7.9881667"><ele>222.33333333333334</ele><time>2026-04-19T09:03:11.919Z</time></trkpt><trkpt lat="44.90261" lon="7.9881867"><ele>222.0</ele><time>2026-04-19T09:03:15.918Z</time></trkpt><trkpt lat="44.9026917" lon="7.98822"><ele>217.33333333333334</ele><time>2026-04-19T09:03:18.919Z</time></trkpt><trkpt lat="44.9027567" lon="7.9883017"><ele>212.66666666666669</ele><time>2026-04-19T09:03:21.918Z</time></trkpt><trkpt lat="44.90281" lon="7.988405"><ele>208.0</ele><time>2026-04-19T09:03:24.918Z</time></trkpt><trkpt lat="44.9028717" lon="7.9885367"><ele>203.33333333333334</ele><time>2026-04-19T09:03:31.918Z</time></trkpt><trkpt lat="44.9029367" lon="7.9885333"><ele>198.66666666666669</ele><time>2026-04-19T09:03:35.919Z</time></trkpt><trkpt lat="44.9029817" lon="7.9884683"><ele>194.0</ele><time>2026-04-19T09:03:39.919Z</time></trkpt><trkpt lat="44.9030083" lon="7.9883667"><ele>194.00000000000003</ele><time>2026-04-19T09:03:57.919Z</time></trkpt><trkpt lat="44.9030367" lon="7.9882817"><ele>194.0</ele><time>2026-04-19T09:04:00.918Z</time></trkpt><trkpt lat="44.9030617" lon="7.988195"><ele>194.0</ele><time>2026-04-19T09:04:03.919Z</time></trkpt><trkpt lat="44.9030567" lon="7.9880933"><ele>194.0</ele><time>2026-04-19T09:04:07.918Z</time></trkpt><trkpt lat="44.9030467" lon="7.98797"><ele>194.00000000000003</ele><time>2026-04-19T09:04:16.919Z</time></trkpt><trkpt lat="44.9030483" lon="7.9878433"><ele>194.0</ele><time>2026-04-19T09:04:19.919Z</time></trkpt><trkpt lat="44.9030633" lon="7.987705"><ele>194.00000000000003</ele><time>2026-04-19T09:04:22.919Z</time></trkpt><trkpt lat="44.90307" lon="7.9875867"><ele>194.0</ele><time>2026-04-19T09:04:26.919Z</time></trkpt><trkpt lat="44.9030283" lon="7.9874917"><ele>194.0</ele><time>2026-04-19T09:04:29.918Z</time></trkpt><trkpt lat="44.9029817" lon="7.9873867"><ele>194.0</ele><time>2026-04-19T09:04:32.919Z</time></trkpt><trkpt lat="44.9029383" lon="7.9873133"><ele>194.00000000000003</ele><time>2026-04-19T09:04:34.918Z</time></trkpt><trkpt lat="44.902885" lon="7.9872283"><ele>194.0</ele><time>2026-04-19T09:04:36.918Z</time></trkpt><trkpt lat="44.902785" lon="7.9871117"><ele>194.16666666666669</ele><time>2026-04-19T09:04:38.919Z</time></trkpt><trkpt lat="44.9027233" lon="7.9870333"><ele>194.33333333333334</ele><time>2026-04-19T09:04:39.919Z</time></trkpt><trkpt lat="44.9026667" lon="7.9869483"><ele>194.5</ele><time>2026-04-19T09:04:40.919Z</time></trkpt><trkpt lat="44.9026083" lon="7.9868583"><ele>194.66666666666669</ele><time>2026-04-19T09:04:41.918Z</time></trkpt><trkpt lat="44.9025483" lon="7.9867633"><ele>194.83333333333334</ele><time>2026-04-19T09:04:42.919Z</time></trkpt><trkpt lat="44.902485" lon="7.9866783"><ele>195.0</ele><time>2026-04-19T09:04:43.918Z</time></trkpt><trkpt lat="44.9024133" lon="7.9865983"><ele>195.0</ele><time>2026-04-19T09:04:44.918Z</time></trkpt><trkpt lat="44.9023217" lon="7.986535"><ele>195.0</ele><time>2026-04-19T09:04:45.919Z</time></trkpt><trkpt lat="44.9022283" lon="7.9864833"><ele>195.0</ele><time>2026-04-19T09:04:46.919Z</time></trkpt><trkpt lat="44.902125" lon="7.98642"><ele>195.0</ele><time>2026-04-19T09:04:47.918Z</time></trkpt><trkpt lat="44.9020167" lon="7.9863583"><ele>195.0</ele><time>2026-04-19T09:04:48.918Z</time></trkpt><trkpt lat="44.9019117" lon="7.9862917"><ele>195.0</ele><time>2026-04-19T09:04:49.918Z</time></trkpt><trkpt lat="44.9018033" lon="7.9862167"><ele>195.0</ele><time>2026-04-19T09:04:50.919Z</time></trkpt><trkpt lat="44.9017117" lon="7.9861333"><ele>195.0</ele><time>2026-04-19T09:04:51.918Z</time></trkpt><trkpt lat="44.901615" lon="7.986055"><ele>195.0</ele><time>2026-04-19T09:04:52.919Z</time></trkpt><trkpt lat="44.9015167" lon="7.9859917"><ele>195.0</ele><time>2026-04-19T09:04:53.919Z</time></trkpt><trkpt lat="44.9014183" lon="7.9859233"><ele>194.75</ele><time>2026-04-19T09:04:54.918Z</time></trkpt><trkpt lat="44.90131" lon="7.9858583"><ele>194.5</ele><time>2026-04-19T09:04:55.918Z</time></trkpt><trkpt lat="44.9011917" lon="7.9858117"><ele>194.25</ele><time>2026-04-19T09:04:56.918Z</time></trkpt><trkpt lat="44.9010667" lon="7.985755"><ele>194.0</ele><time>2026-04-19T09:04:57.918Z</time></trkpt><trkpt lat="44.9009417" lon="7.98568"><ele>196.5</ele><time>2026-04-19T09:04:58.919Z</time></trkpt><trkpt lat="44.9008067" lon="7.985605"><ele>199.0</ele><time>2026-04-19T09:04:59.918Z</time></trkpt><trkpt lat="44.9006717" lon="7.9855317"><ele>201.5</ele><time>2026-04-19T09:05:00.919Z</time></trkpt><trkpt lat="44.9005533" lon="7.9854567"><ele>204.0</ele><time>2026-04-19T09:05:01.919Z</time></trkpt><trkpt lat="44.9004467" lon="7.9853983"><ele>204.0</ele><time>2026-04-19T09:05:02.918Z</time></trkpt><trkpt lat="44.9003383" lon="7.98536"><ele>204.0</ele><time>2026-04-19T09:05:03.918Z</time></trkpt><trkpt lat="44.9002367" lon="7.9853383"><ele>204.0</ele><time>2026-04-19T09:05:04.918Z</time></trkpt><trkpt lat="44.9001183" lon="7.98532"><ele>204.0</ele><time>2026-04-19T09:05:05.919Z</time></trkpt><trkpt lat="44.899995" lon="7.9853117"><ele>203.79999999999998</ele><time>2026-04-19T09:05:06.918Z</time></trkpt><trkpt lat="44.8998817" lon="7.9853017"><ele>203.6</ele><time>2026-04-19T09:05:07.918Z</time></trkpt><trkpt lat="44.89978" lon="7.9852733"><ele>203.4</ele><time>2026-04-19T09:05:08.919Z</time></trkpt><trkpt lat="44.8996883" lon="7.985245"><ele>203.2</ele><time>2026-04-19T09:05:09.918Z</time></trkpt><trkpt lat="44.8995983" lon="7.98521"><ele>203.0</ele><time>2026-04-19T09:05:10.918Z</time></trkpt><trkpt lat="44.8995017" lon="7.9851633"><ele>203.0</ele><time>2026-04-19T09:05:11.918Z</time></trkpt><trkpt lat="44.89939" lon="7.9851067"><ele>203.0</ele><time>2026-04-19T09:05:12.919Z</time></trkpt><trkpt lat="44.8992567" lon="7.9850333"><ele>203.0</ele><time>2026-04-19T09:05:13.918Z</time></trkpt><trkpt lat="44.8991133" lon="7.98496"><ele>203.0</ele><time>2026-04-19T09:05:14.918Z</time></trkpt><trkpt lat="44.89898" lon="7.9848883"><ele>202.25</ele><time>2026-04-19T09:05:15.919Z</time></trkpt><trkpt lat="44.8988533" lon="7.98482"><ele>201.5</ele><time>2026-04-19T09:05:16.919Z</time></trkpt><trkpt lat="44.89875" lon="7.9847417"><ele>200.75</ele><time>2026-04-19T09:05:17.918Z</time></trkpt><trkpt lat="44.898655" lon="7.9846617"><ele>200.0</ele><time>2026-04-19T09:05:18.918Z</time></trkpt><trkpt lat="44.8985767" lon="7.98456"><ele>200.00000000000003</ele><time>2026-04-19T09:05:19.918Z</time></trkpt><trkpt lat="44.8985067" lon="7.9844517"><ele>200.0</ele><time>2026-04-19T09:05:20.919Z</time></trkpt><trkpt lat="44.8984383" lon="7.9843583"><ele>200.0</ele><time>2026-04-19T09:05:21.919Z</time></trkpt><trkpt lat="44.898365" lon="7.9842883"><ele>200.0</ele><time>2026-04-19T09:05:22.919Z</time></trkpt><trkpt lat="44.898295" lon="7.984235"><ele>200.00000000000003</ele><time>2026-04-19T09:05:23.918Z</time></trkpt><trkpt lat="44.898235" lon="7.9842"><ele>200.0</ele><time>2026-04-19T09:05:24.918Z</time></trkpt><trkpt lat="44.8981417" lon="7.98413"><ele>200.4</ele><time>2026-04-19T09:05:26.918Z</time></trkpt><trkpt lat="44.8982033" lon="7.9840267"><ele>200.8</ele><time>2026-04-19T09:05:29.918Z</time></trkpt><trkpt lat="44.8982767" lon="7.9839817"><ele>201.2</ele><time>2026-04-19T09:05:30.919Z</time></trkpt><trkpt lat="44.89838" lon="7.98392"><ele>201.6</ele><time>2026-04-19T09:05:31.918Z</time></trkpt><trkpt lat="44.8984883" lon="7.9838383"><ele>202.0</ele><time>2026-04-19T09:05:32.919Z</time></trkpt><trkpt lat="44.8985917" lon="7.9837367"><ele>200.25</ele><time>2026-04-19T09:05:33.918Z</time></trkpt><trkpt lat="44.89869" lon="7.9835967"><ele>198.5</ele><time>2026-04-19T09:05:34.919Z</time></trkpt><trkpt lat="44.8987717" lon="7.9834417"><ele>196.75</ele><time>2026-04-19T09:05:35.919Z</time></trkpt><trkpt lat="44.89885" lon="7.98327"><ele>195.0</ele><time>2026-04-19T09:05:36.918Z</time></trkpt><trkpt lat="44.8989333" lon="7.9830967"><ele>194.33333333333331</ele><time>2026-04-19T09:05:37.918Z</time></trkpt><trkpt lat="44.8990133" lon="7.9829067"><ele>193.66666666666666</ele><time>2026-04-19T09:05:38.918Z</time></trkpt><trkpt lat="44.8991" lon="7.9827167"><ele>193.0</ele><time>2026-04-19T09:05:39.919Z</time></trkpt><trkpt lat="44.8991817" lon="7.98252"><ele>192.66666666666666</ele><time>2026-04-19T09:05:40.918Z</time></trkpt><trkpt lat="44.8992617" lon="7.98232"><ele>192.33333333333331</ele><time>2026-04-19T09:05:41.919Z</time></trkpt><trkpt lat="44.8993383" lon="7.98212"><ele>192.0</ele><time>2026-04-19T09:05:42.918Z</time></trkpt><trkpt lat="44.8994117" lon="7.9819317"><ele>192.0</ele><time>2026-04-19T09:05:43.919Z</time></trkpt><trkpt lat="44.8994783" lon="7.9817517"><ele>192.0</ele><time>2026-04-19T09:05:44.919Z</time></trkpt><trkpt lat="44.8995483" lon="7.9815717"><ele>192.0</ele><time>2026-04-19T09:05:45.919Z</time></trkpt><trkpt lat="44.8996217" lon="7.9813983"><ele>192.0</ele><time>2026-04-19T09:05:46.918Z</time></trkpt><trkpt lat="44.8996933" lon="7.98123"><ele>193.5</ele><time>2026-04-19T09:05:47.918Z</time></trkpt><trkpt lat="44.8997533" lon="7.9810667"><ele>195.0</ele><time>2026-04-19T09:05:48.918Z</time></trkpt><trkpt lat="44.899815" lon="7.9809117"><ele>196.5</ele><time>2026-04-19T09:05:49.919Z</time></trkpt><trkpt lat="44.899875" lon="7.9807783"><ele>198.0</ele><time>2026-04-19T09:05:50.918Z</time></trkpt><trkpt lat="44.8999217" lon="7.980655"><ele>198.4</ele><time>2026-04-19T09:05:51.918Z</time></trkpt><trkpt lat="44.8999583" lon="7.98055"><ele>198.8</ele><time>2026-04-19T09:05:52.918Z</time></trkpt><trkpt lat="44.900005" lon="7.9804117"><ele>199.2</ele><time>2026-04-19T09:05:54.918Z</time></trkpt><trkpt lat="44.9000233" lon="7.9803167"><ele>199.6</ele><time>2026-04-19T09:05:56.918Z</time></trkpt><trkpt lat="44.89997" lon="7.9801767"><ele>200.0</ele><time>2026-04-19T09:05:58.919Z</time></trkpt><trkpt lat="44.8999117" lon="7.9800717"><ele>200.75</ele><time>2026-04-19T09:05:59.918Z</time></trkpt><trkpt lat="44.8998317" lon="7.9799617"><ele>201.5</ele><time>2026-04-19T09:06:00.919Z</time></trkpt><trkpt lat="44.8997217" lon="7.97987"><ele>202.25</ele><time>2026-04-19T09:06:01.918Z</time></trkpt><trkpt lat="44.8995967" lon="7.9797983"><ele>203.0</ele><time>2026-04-19T09:06:02.918Z</time></trkpt><trkpt lat="44.8994667" lon="7.979735"><ele>203.0</ele><time>2026-04-19T09:06:03.918Z</time></trkpt><trkpt lat="44.899335" lon="7.9796883"><ele>203.0</ele><time>2026-04-19T09:06:04.918Z</time></trkpt><trkpt lat="44.8992067" lon="7.9796533"><ele>203.0</ele><time>2026-04-19T09:06:05.918Z</time></trkpt><trkpt lat="44.8990933" lon="7.97963"><ele>203.0</ele><time>2026-04-19T09:06:06.918Z</time></trkpt><trkpt lat="44.8989917" lon="7.97964"><ele>202.0</ele><time>2026-04-19T09:06:07.919Z</time></trkpt><trkpt lat="44.8989117" lon="7.9797"><ele>201.0</ele><time>2026-04-19T09:06:08.918Z</time></trkpt><trkpt lat="44.8988317" lon="7.9797817"><ele>200.0</ele><time>2026-04-19T09:06:09.918Z</time></trkpt><trkpt lat="44.8987483" lon="7.9798567"><ele>199.0</ele><time>2026-04-19T09:06:10.919Z</time></trkpt><trkpt lat="44.8986483" lon="7.9799283"><ele>198.0</ele><time>2026-04-19T09:06:11.919Z</time></trkpt><trkpt lat="44.898545" lon="7.9799783"><ele>198.0</ele><time>2026-04-19T09:06:12.919Z</time></trkpt><trkpt lat="44.8984233" lon="7.980015"><ele>198.0</ele><time>2026-04-19T09:06:13.919Z</time></trkpt><trkpt lat="44.8982967" lon="7.9800383"><ele>198.0</ele><time>2026-04-19T09:06:14.919Z</time></trkpt><trkpt lat="44.8981717" lon="7.9800533"><ele>198.0</ele><time>2026-04-19T09:06:15.919Z</time></trkpt><trkpt lat="44.898045" lon="7.9800583"><ele>197.5</ele><time>2026-04-19T09:06:16.919Z</time></trkpt><trkpt lat="44.89792" lon="7.980065"><ele>197.0</ele><time>2026-04-19T09:06:17.918Z</time></trkpt><trkpt lat="44.8977733" lon="7.9800733"><ele>196.5</ele><time>2026-04-19T09:06:18.919Z</time></trkpt><trkpt lat="44.8976267" lon="7.98009"><ele>196.0</ele><time>2026-04-19T09:06:19.918Z</time></trkpt><trkpt lat="44.8974883" lon="7.980105"><ele>196.0</ele><time>2026-04-19T09:06:20.919Z</time></trkpt><trkpt lat="44.8973617" lon="7.9801283"><ele>196.0</ele><time>2026-04-19T09:06:21.919Z</time></trkpt><trkpt lat="44.89724" lon="7.9801517"><ele>196.0</ele><time>2026-04-19T09:06:22.918Z</time></trkpt><trkpt lat="44.8971133" lon="7.98018"><ele>196.0</ele><time>2026-04-19T09:06:23.919Z</time></trkpt><trkpt lat="44.896985" lon="7.9802033"><ele>196.0</ele><time>2026-04-19T09:06:24.919Z</time></trkpt><trkpt lat="44.89687" lon="7.98022"><ele>196.0</ele><time>2026-04-19T09:06:25.918Z</time></trkpt><trkpt lat="44.89677" lon="7.9802267"><ele>196.0</ele><time>2026-04-19T09:06:26.918Z</time></trkpt><trkpt lat="44.8966783" lon="7.9802183"><ele>196.0</ele><time>2026-04-19T09:06:27.919Z</time></trkpt><trkpt lat="44.89659" lon="7.9802017"><ele>196.0</ele><time>2026-04-19T09:06:28.919Z</time></trkpt><trkpt lat="44.89651" lon="7.9801383"><ele>195.99999999999997</ele><time>2026-04-19T09:06:29.919Z</time></trkpt><trkpt lat="44.8964383" lon="7.98006"><ele>196.0</ele><time>2026-04-19T09:06:30.918Z</time></trkpt><trkpt lat="44.8963833" lon="7.9799583"><ele>196.0</ele><time>2026-04-19T09:06:31.918Z</time></trkpt><trkpt lat="44.8963483" lon="7.9798533"><ele>196.0</ele><time>2026-04-19T09:06:32.919Z</time></trkpt><trkpt lat="44.8963183" lon="7.9797567"><ele>195.99999999999997</ele><time>2026-04-19T09:06:33.919Z</time></trkpt><trkpt lat="44.8962833" lon="7.9796617"><ele>196.0</ele><time>2026-04-19T09:06:34.918Z</time></trkpt><trkpt lat="44.8962517" lon="7.97956"><ele>197.49999999999997</ele><time>2026-04-19T09:06:35.918Z</time></trkpt><trkpt lat="44.896215" lon="7.9794583"><ele>199.0</ele><time>2026-04-19T09:06:36.919Z</time></trkpt><trkpt lat="44.8961767" lon="7.979365"><ele>200.5</ele><time>2026-04-19T09:06:37.918Z</time></trkpt><trkpt lat="44.8961417" lon="7.979265"><ele>202.0</ele><time>2026-04-19T09:06:38.918Z</time></trkpt><trkpt lat="44.8961" lon="7.97918"><ele>203.49999999999997</ele><time>2026-04-19T09:06:39.918Z</time></trkpt><trkpt lat="44.896055" lon="7.9790933"><ele>205.0</ele><time>2026-04-19T09:06:40.918Z</time></trkpt><trkpt lat="44.8960083" lon="7.9789967"><ele>205.0</ele><time>2026-04-19T09:06:41.918Z</time></trkpt><trkpt lat="44.895955" lon="7.9789033"><ele>205.0</ele><time>2026-04-19T09:06:42.919Z</time></trkpt><trkpt lat="44.8959067" lon="7.978805"><ele>205.0</ele><time>2026-04-19T09:06:43.918Z</time></trkpt><trkpt lat="44.8958467" lon="7.9786983"><ele>205.0</ele><time>2026-04-19T09:06:44.918Z</time></trkpt><trkpt lat="44.8957917" lon="7.97858"><ele>205.0</ele><time>2026-04-19T09:06:45.918Z</time></trkpt><trkpt lat="44.8957433" lon="7.978455"><ele>205.6</ele><time>2026-04-19T09:06:46.919Z</time></trkpt><trkpt lat="44.89569" lon="7.97834"><ele>206.2</ele><time>2026-04-19T09:06:47.919Z</time></trkpt><trkpt lat="44.8956367" lon="7.9782117"><ele>206.8</ele><time>2026-04-19T09:06:48.918Z</time></trkpt><trkpt lat="44.89558" lon="7.978075"><ele>207.4</ele><time>2026-04-19T09:06:49.918Z</time></trkpt><trkpt lat="44.8955267" lon="7.9779383"><ele>208.0</ele><time>2026-04-19T09:06:50.919Z</time></trkpt><trkpt lat="44.8954717" lon="7.9778083"><ele>208.0</ele><time>2026-04-19T09:06:51.919Z</time></trkpt><trkpt lat="44.895415" lon="7.977685"><ele>208.0</ele><time>2026-04-19T09:06:52.919Z</time></trkpt><trkpt lat="44.8953617" lon="7.9775617"><ele>208.0</ele><time>2026-04-19T09:06:53.919Z</time></trkpt><trkpt lat="44.8953083" lon="7.977445"><ele>208.0</ele><time>2026-04-19T09:06:54.918Z</time></trkpt><trkpt lat="44.8952517" lon="7.9773333"><ele>208.0</ele><time>2026-04-19T09:06:55.919Z</time></trkpt><trkpt lat="44.8951867" lon="7.9772217"><ele>207.60000000000002</ele><time>2026-04-19T09:06:56.919Z</time></trkpt><trkpt lat="44.8951333" lon="7.9770917"><ele>207.20000000000002</ele><time>2026-04-19T09:06:57.918Z</time></trkpt><trkpt lat="44.89509" lon="7.9769633"><ele>206.8</ele><time>2026-04-19T09:06:58.918Z</time></trkpt><trkpt lat="44.8950467" lon="7.9768433"><ele>206.4</ele><time>2026-04-19T09:06:59.919Z</time></trkpt><trkpt lat="44.8949867" lon="7.9767233"><ele>206.0</ele><time>2026-04-19T09:07:00.919Z</time></trkpt><trkpt lat="44.894895" lon="7.9766167"><ele>207.75</ele><time>2026-04-19T09:07:01.919Z</time></trkpt><trkpt lat="44.89479" lon="7.97652"><ele>209.5</ele><time>2026-04-19T09:07:02.918Z</time></trkpt><trkpt lat="44.89468" lon="7.9764367"><ele>211.25</ele><time>2026-04-19T09:07:03.918Z</time></trkpt><trkpt lat="44.894575" lon="7.97636"><ele>213.0</ele><time>2026-04-19T09:07:04.918Z</time></trkpt><trkpt lat="44.8944717" lon="7.9762967"><ele>213.0</ele><time>2026-04-19T09:07:05.919Z</time></trkpt><trkpt lat="44.894375" lon="7.976235"><ele>213.0</ele><time>2026-04-19T09:07:06.918Z</time></trkpt><trkpt lat="44.8942833" lon="7.976175"><ele>213.0</ele><time>2026-04-19T09:07:07.918Z</time></trkpt><trkpt lat="44.8941983" lon="7.976115"><ele>213.0</ele><time>2026-04-19T09:07:08.919Z</time></trkpt><trkpt lat="44.8941333" lon="7.97607"><ele>213.0</ele><time>2026-04-19T09:07:09.918Z</time></trkpt><trkpt lat="44.894075" lon="7.97603"><ele>213.0</ele><time>2026-04-19T09:07:10.919Z</time></trkpt><trkpt lat="44.8939717" lon="7.97598"><ele>211.66666666666666</ele><time>2026-04-19T09:07:12.918Z</time></trkpt><trkpt lat="44.8938733" lon="7.975945"><ele>210.33333333333331</ele><time>2026-04-19T09:07:14.918Z</time></trkpt><trkpt lat="44.893795" lon="7.9759"><ele>209.0</ele><time>2026-04-19T09:07:15.918Z</time></trkpt><trkpt lat="44.8937217" lon="7.9758583"><ele>207.66666666666666</ele><time>2026-04-19T09:07:16.918Z</time></trkpt><trkpt lat="44.8936417" lon="7.9758033"><ele>206.33333333333331</ele><time>2026-04-19T09:07:17.918Z</time></trkpt><trkpt lat="44.893565" lon="7.9757433"><ele>205.0</ele><time>2026-04-19T09:07:18.918Z</time></trkpt><trkpt lat="44.8934983" lon="7.975685"><ele>204.99999999999997</ele><time>2026-04-19T09:07:19.918Z</time></trkpt><trkpt lat="44.8934367" lon="7.97563"><ele>205.0</ele><time>2026-04-19T09:07:20.918Z</time></trkpt><trkpt lat="44.8933717" lon="7.9755717"><ele>205.0</ele><time>2026-04-19T09:07:21.918Z</time></trkpt><trkpt lat="44.893305" lon="7.97552"><ele>205.0</ele><time>2026-04-19T09:07:22.919Z</time></trkpt><trkpt lat="44.89324" lon="7.9754683"><ele>204.99999999999997</ele><time>2026-04-19T09:07:23.918Z</time></trkpt><trkpt lat="44.893165" lon="7.975415"><ele>205.0</ele><time>2026-04-19T09:07:24.919Z</time></trkpt><trkpt lat="44.8930983" lon="7.975375"><ele>205.99999999999997</ele><time>2026-04-19T09:07:25.918Z</time></trkpt><trkpt lat="44.8930367" lon="7.9753383"><ele>207.0</ele><time>2026-04-19T09:07:26.918Z</time></trkpt><trkpt lat="44.892925" lon="7.9752617"><ele>208.0</ele><time>2026-04-19T09:07:28.918Z</time></trkpt><trkpt lat="44.892865" lon="7.97523"><ele>209.0</ele><time>2026-04-19T09:07:29.918Z</time></trkpt><trkpt lat="44.8928017" lon="7.97519"><ele>209.99999999999997</ele><time>2026-04-19T09:07:30.919Z</time></trkpt><trkpt lat="44.8927283" lon="7.9751467"><ele>211.0</ele><time>2026-04-19T09:07:31.918Z</time></trkpt><trkpt lat="44.8926517" lon="7.9750933"><ele>212.49999999999997</ele><time>2026-04-19T09:07:32.919Z</time></trkpt><trkpt lat="44.892565" lon="7.97505"><ele>214.0</ele><time>2026-04-19T09:07:33.918Z</time></trkpt><trkpt lat="44.8924867" lon="7.975015"><ele>215.5</ele><time>2026-04-19T09:07:34.918Z</time></trkpt><trkpt lat="44.8924133" lon="7.97498"><ele>217.0</ele><time>2026-04-19T09:07:35.919Z</time></trkpt><trkpt lat="44.89234" lon="7.97494"><ele>218.49999999999997</ele><time>2026-04-19T09:07:36.919Z</time></trkpt><trkpt lat="44.8922667" lon="7.9749017"><ele>220.0</ele><time>2026-04-19T09:07:37.918Z</time></trkpt><trkpt lat="44.8921883" lon="7.9748533"><ele>220.16666666666666</ele><time>2026-04-19T09:07:38.919Z</time></trkpt><trkpt lat="44.89212" lon="7.97482"><ele>220.33333333333331</ele><time>2026-04-19T09:07:39.919Z</time></trkpt><trkpt lat="44.8920083" lon="7.9747583"><ele>220.5</ele><time>2026-04-19T09:07:41.918Z</time></trkpt><trkpt lat="44.8919467" lon="7.9747117"><ele>220.66666666666669</ele><time>2026-04-19T09:07:42.918Z</time></trkpt><trkpt lat="44.8918783" lon="7.9746767"><ele>220.83333333333334</ele><time>2026-04-19T09:07:43.918Z</time></trkpt><trkpt lat="44.8918067" lon="7.9746233"><ele>221.0</ele><time>2026-04-19T09:07:44.918Z</time></trkpt><trkpt lat="44.891745" lon="7.9745633"><ele>221.0</ele><time>2026-04-19T09:07:45.918Z</time></trkpt><trkpt lat="44.8916917" lon="7.9745083"><ele>221.00000000000003</ele><time>2026-04-19T09:07:46.919Z</time></trkpt><trkpt lat="44.891635" lon="7.97438"><ele>221.00000000000003</ele><time>2026-04-19T09:07:48.919Z</time></trkpt><trkpt lat="44.89164" lon="7.9742833"><ele>221.0</ele><time>2026-04-19T09:07:50.919Z</time></trkpt><trkpt lat="44.8917067" lon="7.9741867"><ele>221.0</ele><time>2026-04-19T09:07:52.918Z</time></trkpt><trkpt lat="44.891815" lon="7.97405"><ele>224.20000000000002</ele><time>2026-04-19T09:07:54.919Z</time></trkpt><trkpt lat="44.8918933" lon="7.9739817"><ele>227.40000000000003</ele><time>2026-04-19T09:07:55.919Z</time></trkpt><trkpt lat="44.89198" lon="7.973895"><ele>230.6</ele><time>2026-04-19T09:07:56.919Z</time></trkpt><trkpt lat="44.89207" lon="7.9738117"><ele>233.8</ele><time>2026-04-19T09:07:57.919Z</time></trkpt><trkpt lat="44.89216" lon="7.9737317"><ele>237.0</ele><time>2026-04-19T09:07:58.919Z</time></trkpt><trkpt lat="44.8922583" lon="7.9736283"><ele>237.0</ele><time>2026-04-19T09:07:59.919Z</time></trkpt><trkpt lat="44.8923567" lon="7.973525"><ele>237.0</ele><time>2026-04-19T09:08:00.918Z</time></trkpt><trkpt lat="44.8924333" lon="7.9734317"><ele>237.0</ele><time>2026-04-19T09:08:01.918Z</time></trkpt><trkpt lat="44.892495" lon="7.9733733"><ele>237.0</ele><time>2026-04-19T09:08:02.918Z</time></trkpt><trkpt lat="44.8925883" lon="7.973345"><ele>237.0</ele><time>2026-04-19T09:08:04.918Z</time></trkpt><trkpt lat="44.892655" lon="7.9733133"><ele>240.0</ele><time>2026-04-19T09:08:06.919Z</time></trkpt><trkpt lat="44.892675" lon="7.973175"><ele>243.0</ele><time>2026-04-19T09:08:08.919Z</time></trkpt><trkpt lat="44.8927383" lon="7.9730417"><ele>246.0</ele><time>2026-04-19T09:08:10.918Z</time></trkpt><trkpt lat="44.8927933" lon="7.97299"><ele>249.0</ele><time>2026-04-19T09:08:11.918Z</time></trkpt><trkpt lat="44.8928517" lon="7.9729467"><ele>252.0</ele><time>2026-04-19T09:08:12.919Z</time></trkpt><trkpt lat="44.8929117" lon="7.9728917"><ele>255.0</ele><time>2026-04-19T09:08:13.918Z</time></trkpt><trkpt lat="44.89296" lon="7.9728267"><ele>255.0</ele><time>2026-04-19T09:08:14.919Z</time></trkpt><trkpt lat="44.8930133" lon="7.9726933"><ele>255.0</ele><time>2026-04-19T09:08:16.919Z</time></trkpt><trkpt lat="44.8930167" lon="7.9726033"><ele>255.0</ele><time>2026-04-19T09:08:17.919Z</time></trkpt><trkpt lat="44.89301" lon="7.9724817"><ele>255.0</ele><time>2026-04-19T09:08:18.918Z</time></trkpt><trkpt lat="44.892985" lon="7.9723467"><ele>255.0</ele><time>2026-04-19T09:08:19.919Z</time></trkpt><trkpt lat="44.892965" lon="7.9721867"><ele>255.75</ele><time>2026-04-19T09:08:20.918Z</time></trkpt><trkpt lat="44.8929617" lon="7.972035"><ele>256.5</ele><time>2026-04-19T09:08:21.918Z</time></trkpt><trkpt lat="44.8929733" lon="7.9718767"><ele>257.25</ele><time>2026-04-19T09:08:22.919Z</time></trkpt><trkpt lat="44.892995" lon="7.9717117"><ele>258.0</ele><time>2026-04-19T09:08:23.919Z</time></trkpt><trkpt lat="44.89302" lon="7.9715383"><ele>258.6</ele><time>2026-04-19T09:08:24.918Z</time></trkpt><trkpt lat="44.89303" lon="7.9713833"><ele>259.20000000000005</ele><time>2026-04-19T09:08:25.918Z</time></trkpt><trkpt lat="44.8930333" lon="7.9712433"><ele>259.8</ele><time>2026-04-19T09:08:26.918Z</time></trkpt><trkpt lat="44.8930217" lon="7.9711033"><ele>260.40000000000003</ele><time>2026-04-19T09:08:27.919Z</time></trkpt><trkpt lat="44.8929967" lon="7.9709733"><ele>261.0</ele><time>2026-04-19T09:08:28.919Z</time></trkpt><trkpt lat="44.892965" lon="7.9708417"><ele>261.2</ele><time>2026-04-19T09:08:29.918Z</time></trkpt><trkpt lat="44.8929333" lon="7.9707067"><ele>261.40000000000003</ele><time>2026-04-19T09:08:30.918Z</time></trkpt><trkpt lat="44.8928967" lon="7.97057"><ele>261.6</ele><time>2026-04-19T09:08:31.918Z</time></trkpt><trkpt lat="44.892865" lon="7.9704367"><ele>261.8</ele><time>2026-04-19T09:08:32.918Z</time></trkpt><trkpt lat="44.8928283" lon="7.9703033"><ele>262.0</ele><time>2026-04-19T09:08:33.918Z</time></trkpt><trkpt lat="44.8927867" lon="7.970175"><ele>262.0</ele><time>2026-04-19T09:08:34.919Z</time></trkpt><trkpt lat="44.8927383" lon="7.9700583"><ele>262.0</ele><time>2026-04-19T09:08:35.919Z</time></trkpt><trkpt lat="44.89269" lon="7.9699583"><ele>262.0</ele><time>2026-04-19T09:08:36.919Z</time></trkpt><trkpt lat="44.89264" lon="7.9698867"><ele>262.0</ele><time>2026-04-19T09:08:37.919Z</time></trkpt><trkpt lat="44.8925267" lon="7.969825"><ele>262.0</ele><time>2026-04-19T09:08:39.918Z</time></trkpt><trkpt lat="44.8924583" lon="7.969805"><ele>262.0</ele><time>2026-04-19T09:08:40.918Z</time></trkpt><trkpt lat="44.89239" lon="7.9697767"><ele>263.0</ele><time>2026-04-19T09:08:41.918Z</time></trkpt><trkpt lat="44.8923233" lon="7.96975"><ele>264.0</ele><time>2026-04-19T09:08:42.918Z</time></trkpt><trkpt lat="44.892255" lon="7.9697133"><ele>265.0</ele><time>2026-04-19T09:08:43.918Z</time></trkpt><trkpt lat="44.89218" lon="7.9696683"><ele>266.0</ele><time>2026-04-19T09:08:44.919Z</time></trkpt><trkpt lat="44.8921033" lon="7.9696067"><ele>267.0</ele><time>2026-04-19T09:08:45.919Z</time></trkpt><trkpt lat="44.8920317" lon="7.9695417"><ele>268.0</ele><time>2026-04-19T09:08:46.918Z</time></trkpt><trkpt lat="44.8919567" lon="7.9694667"><ele>268.0</ele><time>2026-04-19T09:08:47.919Z</time></trkpt><trkpt lat="44.8918817" lon="7.9693833"><ele>268.0</ele><time>2026-04-19T09:08:48.918Z</time></trkpt><trkpt lat="44.891815" lon="7.9692967"><ele>268.0</ele><time>2026-04-19T09:08:49.918Z</time></trkpt><trkpt lat="44.8917567" lon="7.9692167"><ele>268.0</ele><time>2026-04-19T09:08:50.919Z</time></trkpt><trkpt lat="44.8916967" lon="7.96914"><ele>268.0</ele><time>2026-04-19T09:08:51.919Z</time></trkpt><trkpt lat="44.891635" lon="7.9690967"><ele>268.0</ele><time>2026-04-19T09:08:52.918Z</time></trkpt><trkpt lat="44.891565" lon="7.96908"><ele>267.8</ele><time>2026-04-19T09:08:53.918Z</time></trkpt><trkpt lat="44.891485" lon="7.969085"><ele>267.6</ele><time>2026-04-19T09:08:54.919Z</time></trkpt><trkpt lat="44.891395" lon="7.9691033"><ele>267.4</ele><time>2026-04-19T09:08:55.918Z</time></trkpt><trkpt lat="44.8913033" lon="7.96912"><ele>267.2</ele><time>2026-04-19T09:08:56.918Z</time></trkpt><trkpt lat="44.8912117" lon="7.96915"><ele>267.0</ele><time>2026-04-19T09:08:57.918Z</time></trkpt><trkpt lat="44.8911117" lon="7.9691917"><ele>266.4</ele><time>2026-04-19T09:08:58.918Z</time></trkpt><trkpt lat="44.8910017" lon="7.9692383"><ele>265.79999999999995</ele><time>2026-04-19T09:08:59.918Z</time></trkpt><trkpt lat="44.89089" lon="7.9692767"><ele>265.2</ele><time>2026-04-19T09:09:00.919Z</time></trkpt><trkpt lat="44.890785" lon="7.96932"><ele>264.59999999999997</ele><time>2026-04-19T09:09:01.919Z</time></trkpt><trkpt lat="44.8906917" lon="7.969355"><ele>264.0</ele><time>2026-04-19T09:09:02.919Z</time></trkpt><trkpt lat="44.89061" lon="7.9694067"><ele>264.0</ele><time>2026-04-19T09:09:03.918Z</time></trkpt><trkpt lat="44.8905333" lon="7.9694667"><ele>264.0</ele><time>2026-04-19T09:09:04.919Z</time></trkpt><trkpt lat="44.8904633" lon="7.9695233"><ele>264.0</ele><time>2026-04-19T09:09:05.919Z</time></trkpt><trkpt lat="44.8903933" lon="7.9695783"><ele>264.0</ele><time>2026-04-19T09:09:06.919Z</time></trkpt><trkpt lat="44.89031" lon="7.96965"><ele>264.0</ele><time>2026-04-19T09:09:07.919Z</time></trkpt><trkpt lat="44.8902117" lon="7.9697267"><ele>264.0</ele><time>2026-04-19T09:09:08.918Z</time></trkpt><trkpt lat="44.8901083" lon="7.9697867"><ele>264.0</ele><time>2026-04-19T09:09:09.918Z</time></trkpt><trkpt lat="44.8900033" lon="7.9698483"><ele>264.0</ele><time>2026-04-19T09:09:10.918Z</time></trkpt><trkpt lat="44.8899083" lon="7.9698967"><ele>264.0</ele><time>2026-04-19T09:09:11.918Z</time></trkpt><trkpt lat="44.88981" lon="7.9699517"><ele>264.0</ele><time>2026-04-19T09:09:12.919Z</time></trkpt><trkpt lat="44.8896917" lon="7.9699983"><ele>263.4</ele><time>2026-04-19T09:09:13.919Z</time></trkpt><trkpt lat="44.889575" lon="7.9700383"><ele>262.79999999999995</ele><time>2026-04-19T09:09:14.918Z</time></trkpt><trkpt lat="44.8894683" lon="7.9700733"><ele>262.20000000000005</ele><time>2026-04-19T09:09:15.918Z</time></trkpt><trkpt lat="44.8893733" lon="7.970105"><ele>261.6</ele><time>2026-04-19T09:09:16.919Z</time></trkpt><trkpt lat="44.8892933" lon="7.9701317"><ele>261.0</ele><time>2026-04-19T09:09:17.918Z</time></trkpt><trkpt lat="44.8892217" lon="7.970165"><ele>264.0</ele><time>2026-04-19T09:09:18.919Z</time></trkpt><trkpt lat="44.8891583" lon="7.9702"><ele>267.0</ele><time>2026-04-19T09:09:19.919Z</time></trkpt><trkpt lat="44.8890783" lon="7.9702533"><ele>270.0</ele><time>2026-04-19T09:09:20.918Z</time></trkpt><trkpt lat="44.8889883" lon="7.97032"><ele>273.0</ele><time>2026-04-19T09:09:21.919Z</time></trkpt><trkpt lat="44.8888983" lon="7.9703983"><ele>276.0</ele><time>2026-04-19T09:09:22.919Z</time></trkpt><trkpt lat="44.8888067" lon="7.9704683"><ele>276.0</ele><time>2026-04-19T09:09:23.919Z</time></trkpt><trkpt lat="44.888725" lon="7.9705333"><ele>276.0</ele><time>2026-04-19T09:09:24.919Z</time></trkpt><trkpt lat="44.8886433" lon="7.970585"><ele>276.0</ele><time>2026-04-19T09:09:25.919Z</time></trkpt><trkpt lat="44.88857" lon="7.9706383"><ele>276.0</ele><time>2026-04-19T09:09:26.919Z</time></trkpt><trkpt lat="44.8885117" lon="7.9706933"><ele>276.0</ele><time>2026-04-19T09:09:27.919Z</time></trkpt><trkpt lat="44.8884117" lon="7.9707683"><ele>276.0</ele><time>2026-04-19T09:09:29.919Z</time></trkpt><trkpt lat="44.8883383" lon="7.97075"><ele>277.8</ele><time>2026-04-19T09:09:31.919Z</time></trkpt><trkpt lat="44.8882933" lon="7.9705983"><ele>279.6</ele><time>2026-04-19T09:09:33.918Z</time></trkpt><trkpt lat="44.888265" lon="7.97047"><ele>281.4</ele><time>2026-04-19T09:09:34.919Z</time></trkpt><trkpt lat="44.8882333" lon="7.970315"><ele>283.2</ele><time>2026-04-19T09:09:35.918Z</time></trkpt><trkpt lat="44.8882033" lon="7.970175"><ele>285.0</ele><time>2026-04-19T09:09:36.918Z</time></trkpt><trkpt lat="44.8881633" lon="7.9700117"><ele>285.25</ele><time>2026-04-19T09:09:37.919Z</time></trkpt><trkpt lat="44.888125" lon="7.96985"><ele>285.5</ele><time>2026-04-19T09:09:38.919Z</time></trkpt><trkpt lat="44.8880783" lon="7.9696917"><ele>285.75</ele><time>2026-04-19T09:09:39.918Z</time></trkpt><trkpt lat="44.888025" lon="7.9695467"><ele>286.0</ele><time>2026-04-19T09:09:40.918Z</time></trkpt><trkpt lat="44.8879617" lon="7.9694067"><ele>286.0</ele><time>2026-04-19T09:09:41.918Z</time></trkpt><trkpt lat="44.887885" lon="7.9692717"><ele>286.0</ele><time>2026-04-19T09:09:42.918Z</time></trkpt><trkpt lat="44.8878067" lon="7.9691533"><ele>286.0</ele><time>2026-04-19T09:09:43.919Z</time></trkpt><trkpt lat="44.8877217" lon="7.969045"><ele>286.0</ele><time>2026-04-19T09:09:44.918Z</time></trkpt><trkpt lat="44.887645" lon="7.9689483"><ele>284.8</ele><time>2026-04-19T09:09:45.918Z</time></trkpt><trkpt lat="44.8875567" lon="7.968855"><ele>283.6</ele><time>2026-04-19T09:09:46.918Z</time></trkpt><trkpt lat="44.8874733" lon="7.9687667"><ele>282.4</ele><time>2026-04-19T09:09:47.918Z</time></trkpt><trkpt lat="44.8873883" lon="7.96868"><ele>281.2</ele><time>2026-04-19T09:09:48.919Z</time></trkpt><trkpt lat="44.8873067" lon="7.9686"><ele>280.0</ele><time>2026-04-19T09:09:49.919Z</time></trkpt><trkpt lat="44.8872233" lon="7.96852"><ele>280.0</ele><time>2026-04-19T09:09:50.918Z</time></trkpt><trkpt lat="44.8871333" lon="7.9684317"><ele>280.0</ele><time>2026-04-19T09:09:51.918Z</time></trkpt><trkpt lat="44.8870417" lon="7.9683617"><ele>280.0</ele><time>2026-04-19T09:09:52.918Z</time></trkpt><trkpt lat="44.8869367" lon="7.9683117"><ele>280.0</ele><time>2026-04-19T09:09:53.919Z</time></trkpt><trkpt lat="44.8868317" lon="7.968265"><ele>280.0</ele><time>2026-04-19T09:09:54.919Z</time></trkpt><trkpt lat="44.8867333" lon="7.9682217"><ele>281.4</ele><time>2026-04-19T09:09:55.919Z</time></trkpt><trkpt lat="44.8866367" lon="7.9681783"><ele>282.8</ele><time>2026-04-19T09:09:56.918Z</time></trkpt><trkpt lat="44.8865467" lon="7.9681283"><ele>284.2</ele><time>2026-04-19T09:09:57.919Z</time></trkpt><trkpt lat="44.88646" lon="7.9680933"><ele>285.6</ele><time>2026-04-19T09:09:58.918Z</time></trkpt><trkpt lat="44.8863683" lon="7.9680533"><ele>287.0</ele><time>2026-04-19T09:09:59.918Z</time></trkpt><trkpt lat="44.8862717" lon="7.9680033"><ele>287.0</ele><time>2026-04-19T09:10:00.918Z</time></trkpt><trkpt lat="44.8861717" lon="7.96794"><ele>287.0</ele><time>2026-04-19T09:10:01.919Z</time></trkpt><trkpt lat="44.886085" lon="7.9678683"><ele>287.0</ele><time>2026-04-19T09:10:02.918Z</time></trkpt><trkpt lat="44.886015" lon="7.96778"><ele>287.0</ele><time>2026-04-19T09:10:03.919Z</time></trkpt><trkpt lat="44.8859633" lon="7.9676733"><ele>287.0</ele><time>2026-04-19T09:10:04.918Z</time></trkpt><trkpt lat="44.8859217" lon="7.96756"><ele>286.2</ele><time>2026-04-19T09:10:05.919Z</time></trkpt><trkpt lat="44.8858967" lon="7.9674467"><ele>285.4</ele><time>2026-04-19T09:10:06.919Z</time></trkpt><trkpt lat="44.8858767" lon="7.9673283"><ele>284.6</ele><time>2026-04-19T09:10:07.919Z</time></trkpt><trkpt lat="44.8858483" lon="7.967205"><ele>283.8</ele><time>2026-04-19T09:10:08.918Z</time></trkpt><trkpt lat="44.885815" lon="7.9670733"><ele>283.0</ele><time>2026-04-19T09:10:09.919Z</time></trkpt><trkpt lat="44.885765" lon="7.9669467"><ele>283.0</ele><time>2026-04-19T09:10:10.918Z</time></trkpt><trkpt lat="44.8857083" lon="7.9668217"><ele>283.0</ele><time>2026-04-19T09:10:11.918Z</time></trkpt><trkpt lat="44.8856433" lon="7.9667183"><ele>283.0</ele><time>2026-04-19T09:10:12.918Z</time></trkpt><trkpt lat="44.885585" lon="7.966625"><ele>283.0</ele><time>2026-04-19T09:10:13.919Z</time></trkpt><trkpt lat="44.885535" lon="7.96652"><ele>283.0</ele><time>2026-04-19T09:10:14.919Z</time></trkpt><trkpt lat="44.8855017" lon="7.9664033"><ele>283.5</ele><time>2026-04-19T09:10:15.919Z</time></trkpt><trkpt lat="44.885495" lon="7.9662933"><ele>284.0</ele><time>2026-04-19T09:10:16.919Z</time></trkpt><trkpt lat="44.885505" lon="7.9661833"><ele>284.5</ele><time>2026-04-19T09:10:17.919Z</time></trkpt><trkpt lat="44.8855167" lon="7.9660767"><ele>285.0</ele><time>2026-04-19T09:10:18.919Z</time></trkpt><trkpt lat="44.8855167" lon="7.9659817"><ele>285.5</ele><time>2026-04-19T09:10:19.918Z</time></trkpt><trkpt lat="44.8854967" lon="7.9658933"><ele>286.0</ele><time>2026-04-19T09:10:20.918Z</time></trkpt><trkpt lat="44.8854083" lon="7.96575"><ele>284.66666666666663</ele><time>2026-04-19T09:10:22.918Z</time></trkpt><trkpt lat="44.8853383" lon="7.96568"><ele>283.3333333333333</ele><time>2026-04-19T09:10:23.918Z</time></trkpt><trkpt lat="44.8852633" lon="7.9656"><ele>282.0</ele><time>2026-04-19T09:10:24.918Z</time></trkpt><trkpt lat="44.8851967" lon="7.9655233"><ele>280.6666666666667</ele><time>2026-04-19T09:10:25.919Z</time></trkpt><trkpt lat="44.8851233" lon="7.9654517"><ele>279.33333333333337</ele><time>2026-04-19T09:10:26.918Z</time></trkpt><trkpt lat="44.88504" lon="7.9654117"><ele>278.0</ele><time>2026-04-19T09:10:27.919Z</time></trkpt><trkpt lat="44.884945" lon="7.9653767"><ele>278.0</ele><time>2026-04-19T09:10:28.918Z</time></trkpt><trkpt lat="44.884845" lon="7.96536"><ele>278.0</ele><time>2026-04-19T09:10:29.918Z</time></trkpt><trkpt lat="44.8847367" lon="7.965365"><ele>278.0</ele><time>2026-04-19T09:10:30.918Z</time></trkpt><trkpt lat="44.8846333" lon="7.9654033"><ele>278.0</ele><time>2026-04-19T09:10:31.918Z</time></trkpt><trkpt lat="44.8845333" lon="7.9654483"><ele>278.0</ele><time>2026-04-19T09:10:32.919Z</time></trkpt><trkpt lat="44.8844333" lon="7.965485"><ele>278.0</ele><time>2026-04-19T09:10:33.918Z</time></trkpt><trkpt lat="44.8843233" lon="7.96552"><ele>278.0</ele><time>2026-04-19T09:10:34.919Z</time></trkpt><trkpt lat="44.884205" lon="7.96553"><ele>278.0</ele><time>2026-04-19T09:10:35.919Z</time></trkpt><trkpt lat="44.8840933" lon="7.9655317"><ele>278.0</ele><time>2026-04-19T09:10:36.918Z</time></trkpt><trkpt lat="44.8839733" lon="7.9655183"><ele>277.0</ele><time>2026-04-19T09:10:37.918Z</time></trkpt><trkpt lat="44.8838483" lon="7.96549"><ele>276.0</ele><time>2026-04-19T09:10:38.918Z</time></trkpt><trkpt lat="44.8837217" lon="7.9654617"><ele>275.0</ele><time>2026-04-19T09:10:39.918Z</time></trkpt><trkpt lat="44.883595" lon="7.965445"><ele>274.0</ele><time>2026-04-19T09:10:40.919Z</time></trkpt><trkpt lat="44.8834617" lon="7.9654183"><ele>277.0</ele><time>2026-04-19T09:10:41.919Z</time></trkpt><trkpt lat="44.8833133" lon="7.9653917"><ele>280.0</ele><time>2026-04-19T09:10:42.918Z</time></trkpt><trkpt lat="44.88317" lon="7.96538"><ele>283.0</ele><time>2026-04-19T09:10:43.919Z</time></trkpt><trkpt lat="44.88303" lon="7.9653917"><ele>286.0</ele><time>2026-04-19T09:10:44.919Z</time></trkpt><trkpt lat="44.8829" lon="7.9653983"><ele>286.0</ele><time>2026-04-19T09:10:45.918Z</time></trkpt><trkpt lat="44.882775" lon="7.96541"><ele>286.0</ele><time>2026-04-19T09:10:46.918Z</time></trkpt><trkpt lat="44.88264" lon="7.9654133"><ele>286.0</ele><time>2026-04-19T09:10:47.918Z</time></trkpt><trkpt lat="44.8825017" lon="7.9654217"><ele>286.0</ele><time>2026-04-19T09:10:48.918Z</time></trkpt><trkpt lat="44.8823583" lon="7.9654433"><ele>287.5</ele><time>2026-04-19T09:10:49.918Z</time></trkpt><trkpt lat="44.8822183" lon="7.9654733"><ele>289.0</ele><time>2026-04-19T09:10:50.918Z</time></trkpt><trkpt lat="44.8820933" lon="7.965505"><ele>290.5</ele><time>2026-04-19T09:10:51.919Z</time></trkpt><trkpt lat="44.8819683" lon="7.96554"><ele>292.0</ele><time>2026-04-19T09:10:52.918Z</time></trkpt><trkpt lat="44.8818467" lon="7.9655633"><ele>291.5</ele><time>2026-04-19T09:10:53.919Z</time></trkpt><trkpt lat="44.8817217" lon="7.9655767"><ele>291.0</ele><time>2026-04-19T09:10:54.918Z</time></trkpt><trkpt lat="44.8815917" lon="7.96558"><ele>290.5</ele><time>2026-04-19T09:10:55.919Z</time></trkpt><trkpt lat="44.8814533" lon="7.965585"><ele>290.0</ele><time>2026-04-19T09:10:56.918Z</time></trkpt><trkpt lat="44.881305" lon="7.9655933"><ele>290.0</ele><time>2026-04-19T09:10:57.918Z</time></trkpt><trkpt lat="44.8811667" lon="7.9656017"><ele>290.0</ele><time>2026-04-19T09:10:58.919Z</time></trkpt><trkpt lat="44.8810283" lon="7.965615"><ele>290.0</ele><time>2026-04-19T09:10:59.919Z</time></trkpt><trkpt lat="44.8808917" lon="7.9656333"><ele>290.0</ele><time>2026-04-19T09:11:00.919Z</time></trkpt><trkpt lat="44.88075" lon="7.9656617"><ele>289.5</ele><time>2026-04-19T09:11:01.918Z</time></trkpt><trkpt lat="44.8806117" lon="7.96568"><ele>289.0</ele><time>2026-04-19T09:11:02.919Z</time></trkpt><trkpt lat="44.8804833" lon="7.9656967"><ele>288.5</ele><time>2026-04-19T09:11:03.919Z</time></trkpt><trkpt lat="44.8803633" lon="7.9657317"><ele>288.0</ele><time>2026-04-19T09:11:04.918Z</time></trkpt><trkpt lat="44.8802383" lon="7.9657767"><ele>288.0</ele><time>2026-04-19T09:11:05.918Z</time></trkpt><trkpt lat="44.88012" lon="7.9658383"><ele>288.0</ele><time>2026-04-19T09:11:06.918Z</time></trkpt><trkpt lat="44.879995" lon="7.96592"><ele>288.0</ele><time>2026-04-19T09:11:07.918Z</time></trkpt><trkpt lat="44.879875" lon="7.965995"><ele>288.0</ele><time>2026-04-19T09:11:08.919Z</time></trkpt><trkpt lat="44.8797533" lon="7.966055"><ele>288.0</ele><time>2026-04-19T09:11:09.918Z</time></trkpt><trkpt lat="44.87963" lon="7.966105"><ele>288.0</ele><time>2026-04-19T09:11:10.919Z</time></trkpt><trkpt lat="44.87951" lon="7.9661633"><ele>288.0</ele><time>2026-04-19T09:11:11.919Z</time></trkpt><trkpt lat="44.8793867" lon="7.9662333"><ele>288.0</ele><time>2026-04-19T09:11:12.919Z</time></trkpt><trkpt lat="44.8792767" lon="7.9663133"><ele>289.25</ele><time>2026-04-19T09:11:13.919Z</time></trkpt><trkpt lat="44.8791683" lon="7.9664233"><ele>290.5</ele><time>2026-04-19T09:11:14.919Z</time></trkpt><trkpt lat="44.8790583" lon="7.96651"><ele>291.75</ele><time>2026-04-19T09:11:15.918Z</time></trkpt><trkpt lat="44.87894" lon="7.9665683"><ele>293.0</ele><time>2026-04-19T09:11:16.918Z</time></trkpt><trkpt lat="44.8788067" lon="7.966615"><ele>293.0</ele><time>2026-04-19T09:11:17.918Z</time></trkpt><trkpt lat="44.878675" lon="7.9666567"><ele>293.0</ele><time>2026-04-19T09:11:18.919Z</time></trkpt><trkpt lat="44.87855" lon="7.9666967"><ele>293.0</ele><time>2026-04-19T09:11:19.919Z</time></trkpt><trkpt lat="44.8784367" lon="7.9667333"><ele>293.0</ele><time>2026-04-19T09:11:20.919Z</time></trkpt><trkpt lat="44.8783217" lon="7.9667633"><ele>292.75</ele><time>2026-04-19T09:11:21.918Z</time></trkpt><trkpt lat="44.8782083" lon="7.9668067"><ele>292.5</ele><time>2026-04-19T09:11:22.919Z</time></trkpt><trkpt lat="44.8780967" lon="7.9668367"><ele>292.25</ele><time>2026-04-19T09:11:23.919Z</time></trkpt><trkpt lat="44.877985" lon="7.9668683"><ele>292.0</ele><time>2026-04-19T09:11:24.919Z</time></trkpt><trkpt lat="44.8778783" lon="7.9669033"><ele>292.0</ele><time>2026-04-19T09:11:25.919Z</time></trkpt><trkpt lat="44.8777683" lon="7.96693"><ele>292.0</ele><time>2026-04-19T09:11:26.918Z</time></trkpt><trkpt lat="44.877655" lon="7.9669533"><ele>292.0</ele><time>2026-04-19T09:11:27.919Z</time></trkpt><trkpt lat="44.8775367" lon="7.9669717"><ele>292.0</ele><time>2026-04-19T09:11:28.918Z</time></trkpt><trkpt lat="44.8774217" lon="7.9669867"><ele>293.5</ele><time>2026-04-19T09:11:29.919Z</time></trkpt><trkpt lat="44.8772933" lon="7.9670017"><ele>295.0</ele><time>2026-04-19T09:11:30.918Z</time></trkpt><trkpt lat="44.87716" lon="7.9670083"><ele>296.5</ele><time>2026-04-19T09:11:31.919Z</time></trkpt><trkpt lat="44.8770217" lon="7.9670217"><ele>298.0</ele><time>2026-04-19T09:11:32.918Z</time></trkpt><trkpt lat="44.8768917" lon="7.967045"><ele>298.75</ele><time>2026-04-19T09:11:33.918Z</time></trkpt><trkpt lat="44.8767667" lon="7.967095"><ele>299.5</ele><time>2026-04-19T09:11:34.919Z</time></trkpt><trkpt lat="44.8766533" lon="7.9671733"><ele>300.25</ele><time>2026-04-19T09:11:35.919Z</time></trkpt><trkpt lat="44.8765383" lon="7.9672567"><ele>301.0</ele><time>2026-04-19T09:11:36.918Z</time></trkpt><trkpt lat="44.876425" lon="7.9673433"><ele>301.0</ele><time>2026-04-19T09:11:37.918Z</time></trkpt><trkpt lat="44.8763083" lon="7.9674333"><ele>301.0</ele><time>2026-04-19T09:11:38.919Z</time></trkpt><trkpt lat="44.87619" lon="7.967525"><ele>301.0</ele><time>2026-04-19T09:11:39.919Z</time></trkpt><trkpt lat="44.8760817" lon="7.9676167"><ele>301.0</ele><time>2026-04-19T09:11:40.918Z</time></trkpt><trkpt lat="44.8759783" lon="7.9677067"><ele>302.25</ele><time>2026-04-19T09:11:41.918Z</time></trkpt><trkpt lat="44.8758733" lon="7.96779"><ele>303.5</ele><time>2026-04-19T09:11:42.918Z</time></trkpt><trkpt lat="44.87577" lon="7.967875"><ele>304.75</ele><time>2026-04-19T09:11:43.919Z</time></trkpt><trkpt lat="44.8756717" lon="7.9679667"><ele>306.0</ele><time>2026-04-19T09:11:44.918Z</time></trkpt><trkpt lat="44.87557" lon="7.9680717"><ele>306.0</ele><time>2026-04-19T09:11:45.918Z</time></trkpt><trkpt lat="44.8754717" lon="7.9681817"><ele>306.0</ele><time>2026-04-19T09:11:46.918Z</time></trkpt><trkpt lat="44.8753783" lon="7.96829"><ele>306.0</ele><time>2026-04-19T09:11:47.918Z</time></trkpt><trkpt lat="44.875285" lon="7.9684017"><ele>306.0</ele><time>2026-04-19T09:11:48.918Z</time></trkpt><trkpt lat="44.875195" lon="7.96851"><ele>306.0</ele><time>2026-04-19T09:11:49.919Z</time></trkpt><trkpt lat="44.8751067" lon="7.9686217"><ele>306.0</ele><time>2026-04-19T09:11:50.919Z</time></trkpt><trkpt lat="44.8750217" lon="7.9687333"><ele>306.0</ele><time>2026-04-19T09:11:51.919Z</time></trkpt><trkpt lat="44.87493" lon="7.9688467"><ele>306.0</ele><time>2026-04-19T09:11:52.918Z</time></trkpt><trkpt lat="44.8748333" lon="7.96896"><ele>306.0</ele><time>2026-04-19T09:11:53.919Z</time></trkpt><trkpt lat="44.8747383" lon="7.9690667"><ele>306.0</ele><time>2026-04-19T09:11:54.918Z</time></trkpt><trkpt lat="44.874645" lon="7.9691567"><ele>306.0</ele><time>2026-04-19T09:11:55.918Z</time></trkpt><trkpt lat="44.874545" lon="7.969245"><ele>306.0</ele><time>2026-04-19T09:11:56.918Z</time></trkpt><trkpt lat="44.87446" lon="7.9693267"><ele>306.0</ele><time>2026-04-19T09:11:57.918Z</time></trkpt><trkpt lat="44.87438" lon="7.9694233"><ele>306.0</ele><time>2026-04-19T09:11:58.919Z</time></trkpt><trkpt lat="44.8743133" lon="7.96952"><ele>306.0</ele><time>2026-04-19T09:11:59.919Z</time></trkpt><trkpt lat="44.87425" lon="7.969615"><ele>306.0</ele><time>2026-04-19T09:12:00.919Z</time></trkpt><trkpt lat="44.8741817" lon="7.9697067"><ele>306.0</ele><time>2026-04-19T09:12:01.918Z</time></trkpt><trkpt lat="44.874115" lon="7.9697883"><ele>306.0</ele><time>2026-04-19T09:12:02.918Z</time></trkpt><trkpt lat="44.87404" lon="7.9698667"><ele>306.0</ele><time>2026-04-19T09:12:03.919Z</time></trkpt><trkpt lat="44.8739683" lon="7.9699533"><ele>306.0</ele><time>2026-04-19T09:12:04.919Z</time></trkpt><trkpt lat="44.873895" lon="7.970035"><ele>306.0</ele><time>2026-04-19T09:12:05.918Z</time></trkpt><trkpt lat="44.8738333" lon="7.9701133"><ele>306.0</ele><time>2026-04-19T09:12:06.919Z</time></trkpt><trkpt lat="44.8737833" lon="7.9701883"><ele>306.0</ele><time>2026-04-19T09:12:07.918Z</time></trkpt><trkpt lat="44.8737483" lon="7.97033"><ele>305.2</ele><time>2026-04-19T09:12:09.919Z</time></trkpt><trkpt lat="44.8737267" lon="7.9704483"><ele>304.40000000000003</ele><time>2026-04-19T09:12:11.918Z</time></trkpt><trkpt lat="44.87364" lon="7.9705467"><ele>303.6</ele><time>2026-04-19T09:12:13.919Z</time></trkpt><trkpt lat="44.8735667" lon="7.9705767"><ele>302.8</ele><time>2026-04-19T09:12:14.918Z</time></trkpt><trkpt lat="44.8734733" lon="7.970585"><ele>302.0</ele><time>2026-04-19T09:12:15.918Z</time></trkpt><trkpt lat="44.873385" lon="7.970585"><ele>303.8</ele><time>2026-04-19T09:12:16.918Z</time></trkpt><trkpt lat="44.8732933" lon="7.9705833"><ele>305.6</ele><time>2026-04-19T09:12:17.918Z</time></trkpt><trkpt lat="44.8732033" lon="7.9705767"><ele>307.40000000000003</ele><time>2026-04-19T09:12:18.919Z</time></trkpt><trkpt lat="44.873105" lon="7.9705833"><ele>309.2</ele><time>2026-04-19T09:12:19.919Z</time></trkpt><trkpt lat="44.8730033" lon="7.9705883"><ele>311.0</ele><time>2026-04-19T09:12:20.919Z</time></trkpt><trkpt lat="44.8728967" lon="7.9706083"><ele>311.0</ele><time>2026-04-19T09:12:21.918Z</time></trkpt><trkpt lat="44.872795" lon="7.97061"><ele>311.0</ele><time>2026-04-19T09:12:22.919Z</time></trkpt><trkpt lat="44.872695" lon="7.9706133"><ele>311.0</ele><time>2026-04-19T09:12:23.918Z</time></trkpt><trkpt lat="44.8725983" lon="7.970615"><ele>311.0</ele><time>2026-04-19T09:12:24.918Z</time></trkpt><trkpt lat="44.8725067" lon="7.9706167"><ele>311.0</ele><time>2026-04-19T09:12:25.918Z</time></trkpt><trkpt lat="44.872415" lon="7.9706083"><ele>311.40000000000003</ele><time>2026-04-19T09:12:26.918Z</time></trkpt><trkpt lat="44.8723283" lon="7.9706083"><ele>311.8</ele><time>2026-04-19T09:12:27.919Z</time></trkpt><trkpt lat="44.8722383" lon="7.9706067"><ele>312.20000000000005</ele><time>2026-04-19T09:12:28.918Z</time></trkpt><trkpt lat="44.87214" lon="7.9706067"><ele>312.6</ele><time>2026-04-19T09:12:29.919Z</time></trkpt><trkpt lat="44.8720433" lon="7.9706083"><ele>313.0</ele><time>2026-04-19T09:12:30.918Z</time></trkpt><trkpt lat="44.87195" lon="7.9706133"><ele>313.0</ele><time>2026-04-19T09:12:31.919Z</time></trkpt><trkpt lat="44.8718583" lon="7.970615"><ele>313.0</ele><time>2026-04-19T09:12:32.919Z</time></trkpt><trkpt lat="44.871775" lon="7.9706217"><ele>313.0</ele><time>2026-04-19T09:12:33.918Z</time></trkpt><trkpt lat="44.8716867" lon="7.9706217"><ele>313.0</ele><time>2026-04-19T09:12:34.919Z</time></trkpt><trkpt lat="44.87159" lon="7.970605"><ele>313.0</ele><time>2026-04-19T09:12:35.918Z</time></trkpt><trkpt lat="44.8714833" lon="7.97059"><ele>313.25</ele><time>2026-04-19T09:12:36.919Z</time></trkpt><trkpt lat="44.8713767" lon="7.9705567"><ele>313.5</ele><time>2026-04-19T09:12:37.918Z</time></trkpt><trkpt lat="44.8712717" lon="7.9705133"><ele>313.75</ele><time>2026-04-19T09:12:38.919Z</time></trkpt><trkpt lat="44.8711617" lon="7.9704617"><ele>314.0</ele><time>2026-04-19T09:12:39.919Z</time></trkpt><trkpt lat="44.8710517" lon="7.9704033"><ele>313.0</ele><time>2026-04-19T09:12:40.918Z</time></trkpt><trkpt lat="44.8709333" lon="7.9703417"><ele>312.0</ele><time>2026-04-19T09:12:41.918Z</time></trkpt><trkpt lat="44.8708117" lon="7.9702983"><ele>311.0</ele><time>2026-04-19T09:12:42.918Z</time></trkpt><trkpt lat="44.8706783" lon="7.970265"><ele>310.0</ele><time>2026-04-19T09:12:43.918Z</time></trkpt><trkpt lat="44.87055" lon="7.9702483"><ele>310.0</ele><time>2026-04-19T09:12:44.919Z</time></trkpt><trkpt lat="44.8704317" lon="7.9702333"><ele>310.0</ele><time>2026-04-19T09:12:45.919Z</time></trkpt><trkpt lat="44.8703217" lon="7.9702167"><ele>310.0</ele><time>2026-04-19T09:12:46.918Z</time></trkpt><trkpt lat="44.8702133" lon="7.9701933"><ele>310.0</ele><time>2026-04-19T09:12:47.919Z</time></trkpt><trkpt lat="44.87011" lon="7.9701817"><ele>310.0</ele><time>2026-04-19T09:12:48.918Z</time></trkpt><trkpt lat="44.87" lon="7.9701667"><ele>311.6</ele><time>2026-04-19T09:12:49.918Z</time></trkpt><trkpt lat="44.8698983" lon="7.9701617"><ele>313.2</ele><time>2026-04-19T09:12:50.918Z</time></trkpt><trkpt lat="44.8698083" lon="7.9701433"><ele>314.8</ele><time>2026-04-19T09:12:51.918Z</time></trkpt><trkpt lat="44.8697217" lon="7.97012"><ele>316.4</ele><time>2026-04-19T09:12:52.919Z</time></trkpt><trkpt lat="44.86963" lon="7.9701083"><ele>318.0</ele><time>2026-04-19T09:12:53.918Z</time></trkpt><trkpt lat="44.869535" lon="7.9700967"><ele>318.0</ele><time>2026-04-19T09:12:54.919Z</time></trkpt><trkpt lat="44.8694417" lon="7.97007"><ele>318.0</ele><time>2026-04-19T09:12:55.919Z</time></trkpt><trkpt lat="44.8693483" lon="7.97006"><ele>318.0</ele><time>2026-04-19T09:12:56.919Z</time></trkpt><trkpt lat="44.8692633" lon="7.97004"><ele>318.0</ele><time>2026-04-19T09:12:57.918Z</time></trkpt><trkpt lat="44.869185" lon="7.9700283"><ele>318.0</ele><time>2026-04-19T09:12:58.919Z</time></trkpt><trkpt lat="44.869115" lon="7.9700217"><ele>318.0</ele><time>2026-04-19T09:12:59.919Z</time></trkpt><trkpt lat="44.8690083" lon="7.969985"><ele>317.5</ele><time>2026-04-19T09:13:01.919Z</time></trkpt><trkpt lat="44.8689167" lon="7.96985"><ele>317.0</ele><time>2026-04-19T09:13:03.919Z</time></trkpt><trkpt lat="44.868875" lon="7.9697267"><ele>316.5</ele><time>2026-04-19T09:13:04.918Z</time></trkpt><trkpt lat="44.86884" lon="7.9695783"><ele>316.0</ele><time>2026-04-19T09:13:05.918Z</time></trkpt><trkpt lat="44.8687967" lon="7.9694167"><ele>316.0</ele><time>2026-04-19T09:13:06.919Z</time></trkpt><trkpt lat="44.8687617" lon="7.969255"><ele>316.0</ele><time>2026-04-19T09:13:07.919Z</time></trkpt><trkpt lat="44.8687233" lon="7.9690917"><ele>316.0</ele><time>2026-04-19T09:13:08.919Z</time></trkpt><trkpt lat="44.8686917" lon="7.9689267"><ele>316.0</ele><time>2026-04-19T09:13:09.918Z</time></trkpt><trkpt lat="44.868675" lon="7.968775"><ele>316.2</ele><time>2026-04-19T09:13:10.918Z</time></trkpt><trkpt lat="44.8686533" lon="7.968625"><ele>316.40000000000003</ele><time>2026-04-19T09:13:11.919Z</time></trkpt><trkpt lat="44.8686367" lon="7.9684767"><ele>316.6</ele><time>2026-04-19T09:13:12.919Z</time></trkpt><trkpt lat="44.8686217" lon="7.968325"><ele>316.8</ele><time>2026-04-19T09:13:13.918Z</time></trkpt><trkpt lat="44.8686117" lon="7.9681783"><ele>317.0</ele><time>2026-04-19T09:13:14.918Z</time></trkpt><trkpt lat="44.8685933" lon="7.9680283"><ele>317.2</ele><time>2026-04-19T09:13:15.919Z</time></trkpt><trkpt lat="44.8685867" lon="7.9678783"><ele>317.4</ele><time>2026-04-19T09:13:16.919Z</time></trkpt><trkpt lat="44.868585" lon="7.9677267"><ele>317.6</ele><time>2026-04-19T09:13:17.918Z</time></trkpt><trkpt lat="44.8685967" lon="7.9675817"><ele>317.8</ele><time>2026-04-19T09:13:18.919Z</time></trkpt><trkpt lat="44.86862" lon="7.9674367"><ele>318.0</ele><time>2026-04-19T09:13:19.919Z</time></trkpt><trkpt lat="44.8686433" lon="7.9672867"><ele>317.25</ele><time>2026-04-19T09:13:20.919Z</time></trkpt><trkpt lat="44.8686683" lon="7.967115"><ele>316.5</ele><time>2026-04-19T09:13:21.919Z</time></trkpt><trkpt lat="44.8686917" lon="7.9669517"><ele>315.75</ele><time>2026-04-19T09:13:22.919Z</time></trkpt><trkpt lat="44.86872" lon="7.96679"><ele>315.0</ele><time>2026-04-19T09:13:23.918Z</time></trkpt><trkpt lat="44.8687483" lon="7.96663"><ele>315.0</ele><time>2026-04-19T09:13:24.919Z</time></trkpt><trkpt lat="44.8687717" lon="7.96646"><ele>315.0</ele><time>2026-04-19T09:13:25.918Z</time></trkpt><trkpt lat="44.86877" lon="7.966285"><ele>315.0</ele><time>2026-04-19T09:13:26.919Z</time></trkpt><trkpt lat="44.8687333" lon="7.966095"><ele>315.0</ele><time>2026-04-19T09:13:27.919Z</time></trkpt><trkpt lat="44.86868" lon="7.965925"><ele>315.75</ele><time>2026-04-19T09:13:28.919Z</time></trkpt><trkpt lat="44.8686217" lon="7.9657667"><ele>316.5</ele><time>2026-04-19T09:13:29.919Z</time></trkpt><trkpt lat="44.86857" lon="7.965615"><ele>317.25</ele><time>2026-04-19T09:13:30.918Z</time></trkpt><trkpt lat="44.8685267" lon="7.965475"><ele>318.0</ele><time>2026-04-19T09:13:31.918Z</time></trkpt><trkpt lat="44.86849" lon="7.9653267"><ele>318.0</ele><time>2026-04-19T09:13:32.919Z</time></trkpt><trkpt lat="44.868465" lon="7.96518"><ele>318.0</ele><time>2026-04-19T09:13:33.919Z</time></trkpt><trkpt lat="44.8684517" lon="7.965025"><ele>318.0</ele><time>2026-04-19T09:13:34.919Z</time></trkpt><trkpt lat="44.8684383" lon="7.9648683"><ele>318.0</ele><time>2026-04-19T09:13:35.918Z</time></trkpt><trkpt lat="44.8684233" lon="7.9647167"><ele>318.0</ele><time>2026-04-19T09:13:36.918Z</time></trkpt><trkpt lat="44.868415" lon="7.9645817"><ele>318.8333333333333</ele><time>2026-04-19T09:13:37.919Z</time></trkpt><trkpt lat="44.8684067" lon="7.9644467"><ele>319.6666666666667</ele><time>2026-04-19T09:13:38.918Z</time></trkpt><trkpt lat="44.8684017" lon="7.9643283"><ele>320.5</ele><time>2026-04-19T09:13:39.918Z</time></trkpt><trkpt lat="44.8683983" lon="7.9642317"><ele>321.33333333333337</ele><time>2026-04-19T09:13:40.918Z</time></trkpt><trkpt lat="44.8683883" lon="7.9641"><ele>322.1666666666667</ele><time>2026-04-19T09:13:42.918Z</time></trkpt><trkpt lat="44.8683617" lon="7.96401"><ele>323.0</ele><time>2026-04-19T09:13:44.918Z</time></trkpt><trkpt lat="44.86827" lon="7.9638967"><ele>323.0</ele><time>2026-04-19T09:13:46.919Z</time></trkpt><trkpt lat="44.8682083" lon="7.96385"><ele>323.0</ele><time>2026-04-19T09:13:47.918Z</time></trkpt><trkpt lat="44.8681517" lon="7.963805"><ele>323.0</ele><time>2026-04-19T09:13:48.918Z</time></trkpt><trkpt lat="44.8680833" lon="7.96378"><ele>323.0</ele><time>2026-04-19T09:13:49.918Z</time></trkpt><trkpt lat="44.8680033" lon="7.9637667"><ele>323.0</ele><time>2026-04-19T09:13:50.919Z</time></trkpt><trkpt lat="44.8679117" lon="7.963765"><ele>323.0</ele><time>2026-04-19T09:13:51.918Z</time></trkpt><trkpt lat="44.86781" lon="7.9637817"><ele>323.0</ele><time>2026-04-19T09:13:52.919Z</time></trkpt><trkpt lat="44.867705" lon="7.9638167"><ele>323.0</ele><time>2026-04-19T09:13:53.919Z</time></trkpt><trkpt lat="44.8676017" lon="7.9638633"><ele>323.0</ele><time>2026-04-19T09:13:54.919Z</time></trkpt><trkpt lat="44.86749" lon="7.96391"><ele>323.0</ele><time>2026-04-19T09:13:55.918Z</time></trkpt><trkpt lat="44.8673783" lon="7.963955"><ele>323.0</ele><time>2026-04-19T09:13:56.918Z</time></trkpt><trkpt lat="44.86727" lon="7.963995"><ele>322.59999999999997</ele><time>2026-04-19T09:13:57.918Z</time></trkpt><trkpt lat="44.8671767" lon="7.96404"><ele>322.2</ele><time>2026-04-19T09:13:58.918Z</time></trkpt><trkpt lat="44.86708" lon="7.96408"><ele>321.8</ele><time>2026-04-19T09:13:59.918Z</time></trkpt><trkpt lat="44.8669767" lon="7.9641183"><ele>321.4</ele><time>2026-04-19T09:14:00.919Z</time></trkpt><trkpt lat="44.866875" lon="7.96416"><ele>321.0</ele><time>2026-04-19T09:14:01.919Z</time></trkpt><trkpt lat="44.86677" lon="7.9641967"><ele>318.2</ele><time>2026-04-19T09:14:02.919Z</time></trkpt><trkpt lat="44.8666683" lon="7.964235"><ele>315.40000000000003</ele><time>2026-04-19T09:14:03.918Z</time></trkpt><trkpt lat="44.8665717" lon="7.96426"><ele>312.6</ele><time>2026-04-19T09:14:04.918Z</time></trkpt><trkpt lat="44.8664833" lon="7.9642817"><ele>309.8</ele><time>2026-04-19T09:14:05.919Z</time></trkpt><trkpt lat="44.8664" lon="7.9643067"><ele>307.0</ele><time>2026-04-19T09:14:06.918Z</time></trkpt><trkpt lat="44.8663117" lon="7.96433"><ele>307.0</ele><time>2026-04-19T09:14:07.918Z</time></trkpt><trkpt lat="44.86622" lon="7.964355"><ele>307.0</ele><time>2026-04-19T09:14:08.919Z</time></trkpt><trkpt lat="44.8661333" lon="7.9643883"><ele>307.0</ele><time>2026-04-19T09:14:09.919Z</time></trkpt><trkpt lat="44.866045" lon="7.96443"><ele>307.0</ele><time>2026-04-19T09:14:10.918Z</time></trkpt><trkpt lat="44.8659583" lon="7.96448"><ele>307.0</ele><time>2026-04-19T09:14:11.919Z</time></trkpt><trkpt lat="44.865885" lon="7.96453"><ele>307.0</ele><time>2026-04-19T09:14:12.918Z</time></trkpt><trkpt lat="44.8658267" lon="7.96457"><ele>307.0</ele><time>2026-04-19T09:14:13.918Z</time></trkpt><trkpt lat="44.8657633" lon="7.9646283"><ele>307.0</ele><time>2026-04-19T09:14:15.919Z</time></trkpt><trkpt lat="44.86575" lon="7.9647633"><ele>307.0</ele><time>2026-04-19T09:14:20.919Z</time></trkpt><trkpt lat="44.8657517" lon="7.9648983"><ele>307.0</ele><time>2026-04-19T09:14:22.918Z</time></trkpt><trkpt lat="44.8657517" lon="7.9650633"><ele>306.0</ele><time>2026-04-19T09:14:24.918Z</time></trkpt><trkpt lat="44.8657467" lon="7.965155"><ele>305.0</ele><time>2026-04-19T09:14:25.918Z</time></trkpt><trkpt lat="44.8657267" lon="7.9653167"><ele>304.0</ele><time>2026-04-19T09:14:27.918Z</time></trkpt><trkpt lat="44.8657083" lon="7.965405"><ele>303.0</ele><time>2026-04-19T09:14:28.919Z</time></trkpt><trkpt lat="44.86569" lon="7.9654983"><ele>302.0</ele><time>2026-04-19T09:14:29.919Z</time></trkpt><trkpt lat="44.8656633" lon="7.9655967"><ele>301.0</ele><time>2026-04-19T09:14:30.919Z</time></trkpt><trkpt lat="44.8656267" lon="7.9656933"><ele>301.0</ele><time>2026-04-19T09:14:31.918Z</time></trkpt><trkpt lat="44.8655967" lon="7.965805"><ele>301.0</ele><time>2026-04-19T09:14:32.918Z</time></trkpt><trkpt lat="44.8655717" lon="7.9659183"><ele>301.0</ele><time>2026-04-19T09:14:33.919Z</time></trkpt><trkpt lat="44.86555" lon="7.9660333"><ele>301.0</ele><time>2026-04-19T09:14:34.919Z</time></trkpt><trkpt lat="44.8655383" lon="7.9661417"><ele>301.0</ele><time>2026-04-19T09:14:35.919Z</time></trkpt><trkpt lat="44.8655367" lon="7.966235"><ele>301.0</ele><time>2026-04-19T09:14:36.918Z</time></trkpt><trkpt lat="44.865505" lon="7.9663967"><ele>299.2</ele><time>2026-04-19T09:14:38.919Z</time></trkpt><trkpt lat="44.86547" lon="7.9665317"><ele>297.40000000000003</ele><time>2026-04-19T09:14:40.919Z</time></trkpt><trkpt lat="44.8654833" lon="7.9666583"><ele>295.6</ele><time>2026-04-19T09:14:42.918Z</time></trkpt><trkpt lat="44.86555" lon="7.9667667"><ele>293.8</ele><time>2026-04-19T09:14:44.918Z</time></trkpt><trkpt lat="44.8656117" lon="7.9668467"><ele>292.0</ele><time>2026-04-19T09:14:46.918Z</time></trkpt><trkpt lat="44.8656317" lon="7.9669783"><ele>290.0</ele><time>2026-04-19T09:14:48.919Z</time></trkpt><trkpt lat="44.8656033" lon="7.967145"><ele>288.0</ele><time>2026-04-19T09:14:50.918Z</time></trkpt><trkpt lat="44.8655367" lon="7.96729"><ele>286.0</ele><time>2026-04-19T09:14:52.918Z</time></trkpt><trkpt lat="44.865485" lon="7.9673517"><ele>284.0</ele><time>2026-04-19T09:14:53.918Z</time></trkpt><trkpt lat="44.8654283" lon="7.9674167"><ele>282.0</ele><time>2026-04-19T09:14:54.919Z</time></trkpt><trkpt lat="44.86534" lon="7.9675333"><ele>279.3333333333333</ele><time>2026-04-19T09:14:56.918Z</time></trkpt><trkpt lat="44.86529" lon="7.9675983"><ele>276.6666666666667</ele><time>2026-04-19T09:14:57.918Z</time></trkpt><trkpt lat="44.8652383" lon="7.9676533"><ele>274.0</ele><time>2026-04-19T09:14:58.918Z</time></trkpt><trkpt lat="44.8651533" lon="7.9677717"><ele>271.33333333333337</ele><time>2026-04-19T09:15:00.919Z</time></trkpt><trkpt lat="44.8651183" lon="7.9678867"><ele>268.6666666666667</ele><time>2026-04-19T09:15:02.919Z</time></trkpt><trkpt lat="44.8651817" lon="7.9679433"><ele>266.0</ele><time>2026-04-19T09:15:04.919Z</time></trkpt><trkpt lat="44.865305" lon="7.9678967"><ele>266.0</ele><time>2026-04-19T09:15:06.918Z</time></trkpt><trkpt lat="44.8653683" lon="7.96786"><ele>266.0</ele><time>2026-04-19T09:15:07.919Z</time></trkpt><trkpt lat="44.8654267" lon="7.967815"><ele>266.0</ele><time>2026-04-19T09:15:08.919Z</time></trkpt><trkpt lat="44.8655417" lon="7.9677317"><ele>266.0</ele><time>2026-04-19T09:15:10.918Z</time></trkpt><trkpt lat="44.8655983" lon="7.9676833"><ele>266.0</ele><time>2026-04-19T09:15:11.918Z</time></trkpt><trkpt lat="44.8656583" lon="7.9676433"><ele>266.0</ele><time>2026-04-19T09:15:12.919Z</time></trkpt><trkpt lat="44.8657183" lon="7.9676017"><ele>266.0</ele><time>2026-04-19T09:15:13.919Z</time></trkpt><trkpt lat="44.8657797" lon="7.9675633"><ele>266.0</ele><time>2026-04-19T09:15:14.919Z</time></trkpt><trkpt lat="44.8658482" lon="7.9675305"><ele>266.0</ele><time>2026-04-19T09:15:15.918Z</time></trkpt><trkpt lat="44.8659215" lon="7.967499"><ele>266.0</ele><time>2026-04-19T09:15:16.918Z</time></trkpt><trkpt lat="44.8659885" lon="7.96745"><ele>266.0</ele><time>2026-04-19T09:15:17.918Z</time></trkpt><trkpt lat="44.8660397" lon="7.967397"><ele>266.0</ele><time>2026-04-19T09:15:18.918Z</time></trkpt><trkpt lat="44.8661137" lon="7.9672685"><ele>266.6666666666667</ele><time>2026-04-19T09:15:20.918Z</time></trkpt><trkpt lat="44.8661805" lon="7.9671964"><ele>267.33333333333337</ele><time>2026-04-19T09:15:22.918Z</time></trkpt><trkpt lat="44.8662175" lon="7.967298"><ele>268.0</ele><time>2026-04-19T09:15:25.919Z</time></trkpt><trkpt lat="44.8661611" lon="7.9673941"><ele>268.6666666666667</ele><time>2026-04-19T09:15:26.919Z</time></trkpt><trkpt lat="44.8660955" lon="7.9674849"><ele>269.3333333333333</ele><time>2026-04-19T09:15:27.918Z</time></trkpt><trkpt lat="44.866035" lon="7.9675665"><ele>270.0</ele><time>2026-04-19T09:15:28.918Z</time></trkpt><trkpt lat="44.8659872" lon="7.9676504"><ele>270.0</ele><time>2026-04-19T09:15:29.918Z</time></trkpt><trkpt lat="44.8659501" lon="7.9677493"><ele>270.0</ele><time>2026-04-19T09:15:30.918Z</time></trkpt><trkpt lat="44.8659242" lon="7.9678503"><ele>270.0</ele><time>2026-04-19T09:15:31.918Z</time></trkpt><trkpt lat="44.8658936" lon="7.9679455"><ele>270.0</ele><time>2026-04-19T09:15:32.918Z</time></trkpt><trkpt lat="44.8658418" lon="7.968016"><ele>270.0</ele><time>2026-04-19T09:15:33.918Z</time></trkpt><trkpt lat="44.8657646" lon="7.9680663"><ele>270.0</ele><time>2026-04-19T09:15:34.918Z</time></trkpt><trkpt lat="44.8656887" lon="7.9681119"><ele>269.3333333333333</ele><time>2026-04-19T09:15:35.918Z</time></trkpt><trkpt lat="44.8656173" lon="7.9681656"><ele>268.6666666666667</ele><time>2026-04-19T09:15:36.919Z</time></trkpt><trkpt lat="44.8655566" lon="7.9682343"><ele>268.0</ele><time>2026-04-19T09:15:37.918Z</time></trkpt><trkpt lat="44.8655059" lon="7.9683106"><ele>267.33333333333337</ele><time>2026-04-19T09:15:38.919Z</time></trkpt><trkpt lat="44.8654743" lon="7.9683951"><ele>266.6666666666667</ele><time>2026-04-19T09:15:39.918Z</time></trkpt><trkpt lat="44.865437" lon="7.9685451"><ele>266.0</ele><time>2026-04-19T09:15:41.918Z</time></trkpt><trkpt lat="44.8653694" lon="7.968652"><ele>264.85714285714283</ele><time>2026-04-19T09:15:43.919Z</time></trkpt><trkpt lat="44.8653094" lon="7.9686986"><ele>263.7142857142857</ele><time>2026-04-19T09:15:44.919Z</time></trkpt><trkpt lat="44.8652389" lon="7.9687384"><ele>262.57142857142856</ele><time>2026-04-19T09:15:45.919Z</time></trkpt><trkpt lat="44.8651601" lon="7.9687795"><ele>261.42857142857144</ele><time>2026-04-19T09:15:46.918Z</time></trkpt><trkpt lat="44.865094" lon="7.9688183"><ele>260.2857142857143</ele><time>2026-04-19T09:15:47.918Z</time></trkpt><trkpt lat="44.8650394" lon="7.9688704"><ele>259.1428571428571</ele><time>2026-04-19T09:15:48.919Z</time></trkpt><trkpt lat="44.8649954" lon="7.9689351"><ele>258.0</ele><time>2026-04-19T09:15:49.919Z</time></trkpt><trkpt lat="44.8649055" lon="7.9690208"><ele>257.6</ele><time>2026-04-19T09:15:51.919Z</time></trkpt><trkpt lat="44.8647949" lon="7.9690041"><ele>257.20000000000005</ele><time>2026-04-19T09:15:53.919Z</time></trkpt><trkpt lat="44.8646724" lon="7.9689284"><ele>256.8</ele><time>2026-04-19T09:15:55.919Z</time></trkpt><trkpt lat="44.864606" lon="7.9688877"><ele>256.40000000000003</ele><time>2026-04-19T09:15:56.919Z</time></trkpt><trkpt lat="44.8645422" lon="7.9688573"><ele>256.0</ele><time>2026-04-19T09:15:57.918Z</time></trkpt><trkpt lat="44.8644784" lon="7.968841"><ele>256.0</ele><time>2026-04-19T09:15:58.918Z</time></trkpt><trkpt lat="44.8644158" lon="7.9688519"><ele>255.99999999999997</ele><time>2026-04-19T09:15:59.918Z</time></trkpt><trkpt lat="44.8643555" lon="7.9688927"><ele>256.0</ele><time>2026-04-19T09:16:00.918Z</time></trkpt><trkpt lat="44.8642973" lon="7.9689507"><ele>256.0</ele><time>2026-04-19T09:16:01.918Z</time></trkpt><trkpt lat="44.8642484" lon="7.9690187"><ele>255.99999999999997</ele><time>2026-04-19T09:16:02.919Z</time></trkpt><trkpt lat="44.8642124" lon="7.9691035"><ele>256.0</ele><time>2026-04-19T09:16:03.918Z</time></trkpt><trkpt lat="44.8641749" lon="7.9691948"><ele>256.0</ele><time>2026-04-19T09:16:04.919Z</time></trkpt><trkpt lat="44.8641338" lon="7.9692972"><ele>254.66666666666666</ele><time>2026-04-19T09:16:05.919Z</time></trkpt><trkpt lat="44.8640915" lon="7.9693953"><ele>253.33333333333331</ele><time>2026-04-19T09:16:06.919Z</time></trkpt><trkpt lat="44.8640522" lon="7.9694826"><ele>252.0</ele><time>2026-04-19T09:16:07.919Z</time></trkpt><trkpt lat="44.8640083" lon="7.9695752"><ele>250.66666666666669</ele><time>2026-04-19T09:16:08.918Z</time></trkpt><trkpt lat="44.8639616" lon="7.9696561"><ele>249.33333333333334</ele><time>2026-04-19T09:16:09.918Z</time></trkpt><trkpt lat="44.863911" lon="7.9697658"><ele>248.0</ele><time>2026-04-19T09:16:11.918Z</time></trkpt><trkpt lat="44.8638701" lon="7.9698563"><ele>248.00000000000003</ele><time>2026-04-19T09:16:14.918Z</time></trkpt><trkpt lat="44.8638003" lon="7.9698793"><ele>248.0</ele><time>2026-04-19T09:16:18.918Z</time></trkpt><trkpt lat="44.8637374" lon="7.9697717"><ele>248.0</ele><time>2026-04-19T09:16:20.918Z</time></trkpt><trkpt lat="44.8636964" lon="7.9696815"><ele>248.0</ele><time>2026-04-19T09:16:21.918Z</time></trkpt><trkpt lat="44.8636472" lon="7.9695722"><ele>248.00000000000003</ele><time>2026-04-19T09:16:22.919Z</time></trkpt><trkpt lat="44.8635943" lon="7.9694647"><ele>248.0</ele><time>2026-04-19T09:16:23.919Z</time></trkpt><trkpt lat="44.863533" lon="7.9693554"><ele>248.0</ele><time>2026-04-19T09:16:24.919Z</time></trkpt><trkpt lat="44.8634625" lon="7.9692403"><ele>248.0</ele><time>2026-04-19T09:16:25.918Z</time></trkpt><trkpt lat="44.8633911" lon="7.9691369"><ele>248.0</ele><time>2026-04-19T09:16:26.919Z</time></trkpt><trkpt lat="44.8633279" lon="7.9690454"><ele>248.0</ele><time>2026-04-19T09:16:27.918Z</time></trkpt><trkpt lat="44.8632749" lon="7.9689549"><ele>248.0</ele><time>2026-04-19T09:16:28.919Z</time></trkpt><trkpt lat="44.8632182" lon="7.9688597"><ele>248.0</ele><time>2026-04-19T09:16:29.919Z</time></trkpt><trkpt lat="44.8631465" lon="7.9687618"><ele>248.0</ele><time>2026-04-19T09:16:30.918Z</time></trkpt><trkpt lat="44.863059" lon="7.9686784"><ele>248.0</ele><time>2026-04-19T09:16:31.918Z</time></trkpt><trkpt lat="44.8629666" lon="7.9686016"><ele>248.0</ele><time>2026-04-19T09:16:32.918Z</time></trkpt><trkpt lat="44.8628613" lon="7.96854"><ele>248.0</ele><time>2026-04-19T09:16:33.918Z</time></trkpt><trkpt lat="44.8627398" lon="7.9684904"><ele>248.0</ele><time>2026-04-19T09:16:34.919Z</time></trkpt><trkpt lat="44.8626156" lon="7.9684356"><ele>248.0</ele><time>2026-04-19T09:16:35.919Z</time></trkpt><trkpt lat="44.8624924" lon="7.9683603"><ele>248.0</ele><time>2026-04-19T09:16:36.918Z</time></trkpt><trkpt lat="44.8623807" lon="7.968284"><ele>248.0</ele><time>2026-04-19T09:16:37.918Z</time></trkpt><trkpt lat="44.8622784" lon="7.9682058"><ele>248.60000000000002</ele><time>2026-04-19T09:16:38.918Z</time></trkpt><trkpt lat="44.8621815" lon="7.9681252"><ele>249.20000000000002</ele><time>2026-04-19T09:16:39.919Z</time></trkpt><trkpt lat="44.8620859" lon="7.9680603"><ele>249.8</ele><time>2026-04-19T09:16:40.918Z</time></trkpt><trkpt lat="44.8619954" lon="7.9679965"><ele>250.4</ele><time>2026-04-19T09:16:41.919Z</time></trkpt><trkpt lat="44.8619095" lon="7.967934"><ele>251.0</ele><time>2026-04-19T09:16:42.918Z</time></trkpt><trkpt lat="44.8618283" lon="7.9678655"><ele>251.83333333333334</ele><time>2026-04-19T09:16:43.918Z</time></trkpt><trkpt lat="44.8617536" lon="7.967806"><ele>252.66666666666669</ele><time>2026-04-19T09:16:44.919Z</time></trkpt><trkpt lat="44.8616778" lon="7.9677516"><ele>253.5</ele><time>2026-04-19T09:16:45.919Z</time></trkpt><trkpt lat="44.8616047" lon="7.9676966"><ele>254.33333333333331</ele><time>2026-04-19T09:16:46.919Z</time></trkpt><trkpt lat="44.8615307" lon="7.9676513"><ele>255.16666666666666</ele><time>2026-04-19T09:16:47.919Z</time></trkpt><trkpt lat="44.8614545" lon="7.9676111"><ele>256.0</ele><time>2026-04-19T09:16:48.919Z</time></trkpt><trkpt lat="44.8613812" lon="7.9675511"><ele>255.33333333333331</ele><time>2026-04-19T09:16:49.918Z</time></trkpt><trkpt lat="44.8613169" lon="7.9674745"><ele>254.66666666666666</ele><time>2026-04-19T09:16:50.918Z</time></trkpt><trkpt lat="44.8612603" lon="7.9673891"><ele>254.0</ele><time>2026-04-19T09:16:51.918Z</time></trkpt><trkpt lat="44.8612156" lon="7.9672893"><ele>253.33333333333331</ele><time>2026-04-19T09:16:52.918Z</time></trkpt><trkpt lat="44.8611743" lon="7.9671799"><ele>252.66666666666666</ele><time>2026-04-19T09:16:53.919Z</time></trkpt><trkpt lat="44.8611296" lon="7.9670741"><ele>252.0</ele><time>2026-04-19T09:16:54.919Z</time></trkpt><trkpt lat="44.8610829" lon="7.966979"><ele>252.0</ele><time>2026-04-19T09:16:55.919Z</time></trkpt><trkpt lat="44.8610305" lon="7.9668791"><ele>252.0</ele><time>2026-04-19T09:16:56.919Z</time></trkpt><trkpt lat="44.8609716" lon="7.966778"><ele>252.0</ele><time>2026-04-19T09:16:57.918Z</time></trkpt><trkpt lat="44.8609209" lon="7.9666759"><ele>252.0</ele><time>2026-04-19T09:16:58.918Z</time></trkpt><trkpt lat="44.8608713" lon="7.9665785"><ele>252.0</ele><time>2026-04-19T09:16:59.919Z</time></trkpt><trkpt lat="44.8608253" lon="7.9664984"><ele>252.0</ele><time>2026-04-19T09:17:00.918Z</time></trkpt><trkpt lat="44.860772" lon="7.9664359"><ele>252.33333333333334</ele><time>2026-04-19T09:17:01.918Z</time></trkpt><trkpt lat="44.8606765" lon="7.9663377"><ele>252.66666666666669</ele><time>2026-04-19T09:17:03.918Z</time></trkpt><trkpt lat="44.8606266" lon="7.9662741"><ele>253.0</ele><time>2026-04-19T09:17:04.918Z</time></trkpt><trkpt lat="44.8605721" lon="7.966204"><ele>253.33333333333334</ele><time>2026-04-19T09:17:05.919Z</time></trkpt><trkpt lat="44.8605035" lon="7.9661309"><ele>253.66666666666669</ele><time>2026-04-19T09:17:06.919Z</time></trkpt><trkpt lat="44.8604228" lon="7.9660586"><ele>254.0</ele><time>2026-04-19T09:17:07.918Z</time></trkpt><trkpt lat="44.8603311" lon="7.9659942"><ele>254.0</ele><time>2026-04-19T09:17:08.918Z</time></trkpt><trkpt lat="44.8602306" lon="7.9659299"><ele>253.99999999999997</ele><time>2026-04-19T09:17:09.918Z</time></trkpt><trkpt lat="44.8601289" lon="7.9658711"><ele>253.99999999999997</ele><time>2026-04-19T09:17:10.919Z</time></trkpt><trkpt lat="44.8600261" lon="7.9658269"><ele>254.0</ele><time>2026-04-19T09:17:11.918Z</time></trkpt><trkpt lat="44.85992" lon="7.9657915"><ele>254.0</ele><time>2026-04-19T09:17:12.918Z</time></trkpt><trkpt lat="44.8598172" lon="7.9657594"><ele>254.39999999999998</ele><time>2026-04-19T09:17:13.919Z</time></trkpt><trkpt lat="44.8597158" lon="7.9657313"><ele>254.79999999999998</ele><time>2026-04-19T09:17:14.918Z</time></trkpt><trkpt lat="44.85962" lon="7.9657169"><ele>255.20000000000002</ele><time>2026-04-19T09:17:15.919Z</time></trkpt><trkpt lat="44.8595316" lon="7.965722"><ele>255.60000000000002</ele><time>2026-04-19T09:17:16.918Z</time></trkpt><trkpt lat="44.8594399" lon="7.9657338"><ele>256.0</ele><time>2026-04-19T09:17:17.918Z</time></trkpt><trkpt lat="44.8593481" lon="7.9657436"><ele>256.40000000000003</ele><time>2026-04-19T09:17:18.919Z</time></trkpt><trkpt lat="44.8592528" lon="7.9657482"><ele>256.8</ele><time>2026-04-19T09:17:19.918Z</time></trkpt><trkpt lat="44.8591604" lon="7.9657394"><ele>257.20000000000005</ele><time>2026-04-19T09:17:20.919Z</time></trkpt><trkpt lat="44.8590635" lon="7.9657229"><ele>257.6</ele><time>2026-04-19T09:17:21.918Z</time></trkpt><trkpt lat="44.8589781" lon="7.9656986"><ele>258.0</ele><time>2026-04-19T09:17:22.919Z</time></trkpt><trkpt lat="44.8588926" lon="7.9656738"><ele>258.0</ele><time>2026-04-19T09:17:23.918Z</time></trkpt><trkpt lat="44.8588025" lon="7.9656467"><ele>258.0</ele><time>2026-04-19T09:17:24.919Z</time></trkpt><trkpt lat="44.8586986" lon="7.965606"><ele>258.0</ele><time>2026-04-19T09:17:25.918Z</time></trkpt><trkpt lat="44.858592" lon="7.9655483"><ele>258.0</ele><time>2026-04-19T09:17:26.919Z</time></trkpt><trkpt lat="44.8584836" lon="7.9654889"><ele>258.0</ele><time>2026-04-19T09:17:27.918Z</time></trkpt><trkpt lat="44.8583776" lon="7.9654221"><ele>258.6</ele><time>2026-04-19T09:17:28.918Z</time></trkpt><trkpt lat="44.8582801" lon="7.9653359"><ele>259.20000000000005</ele><time>2026-04-19T09:17:29.919Z</time></trkpt><trkpt lat="44.858201" lon="7.96524"><ele>259.8</ele><time>2026-04-19T09:17:30.918Z</time></trkpt><trkpt lat="44.8581275" lon="7.9651624"><ele>260.40000000000003</ele><time>2026-04-19T09:17:31.918Z</time></trkpt><trkpt lat="44.8580443" lon="7.9651018"><ele>261.0</ele><time>2026-04-19T09:17:32.919Z</time></trkpt><trkpt lat="44.85795" lon="7.965045"><ele>261.1666666666667</ele><time>2026-04-19T09:17:33.919Z</time></trkpt><trkpt lat="44.857865" lon="7.964995"><ele>261.3333333333333</ele><time>2026-04-19T09:17:34.919Z</time></trkpt><trkpt lat="44.8577833" lon="7.9649583"><ele>261.5</ele><time>2026-04-19T09:17:35.918Z</time></trkpt><trkpt lat="44.8576967" lon="7.96493"><ele>261.66666666666663</ele><time>2026-04-19T09:17:36.918Z</time></trkpt><trkpt lat="44.8576167" lon="7.9648967"><ele>261.8333333333333</ele><time>2026-04-19T09:17:37.919Z</time></trkpt><trkpt lat="44.85755" lon="7.9648717"><ele>262.0</ele><time>2026-04-19T09:17:38.918Z</time></trkpt><trkpt lat="44.85745" lon="7.964845"><ele>261.4</ele><time>2026-04-19T09:17:40.918Z</time></trkpt><trkpt lat="44.8573667" lon="7.964815"><ele>260.79999999999995</ele><time>2026-04-19T09:17:42.919Z</time></trkpt><trkpt lat="44.85726" lon="7.964755"><ele>260.2</ele><time>2026-04-19T09:17:44.919Z</time></trkpt><trkpt lat="44.857185" lon="7.9646917"><ele>259.59999999999997</ele><time>2026-04-19T09:17:45.918Z</time></trkpt><trkpt lat="44.8571133" lon="7.96464"><ele>259.0</ele><time>2026-04-19T09:17:46.918Z</time></trkpt><trkpt lat="44.8570417" lon="7.9645817"><ele>259.0</ele><time>2026-04-19T09:17:47.918Z</time></trkpt><trkpt lat="44.8569583" lon="7.9645283"><ele>259.0</ele><time>2026-04-19T09:17:48.918Z</time></trkpt><trkpt lat="44.8568683" lon="7.9644667"><ele>259.0</ele><time>2026-04-19T09:17:49.918Z</time></trkpt><trkpt lat="44.8567867" lon="7.9644033"><ele>259.0</ele><time>2026-04-19T09:17:50.919Z</time></trkpt><trkpt lat="44.8567133" lon="7.964365"><ele>259.0</ele><time>2026-04-19T09:17:51.918Z</time></trkpt><trkpt lat="44.8566367" lon="7.964335"><ele>259.0</ele><time>2026-04-19T09:17:52.918Z</time></trkpt><trkpt lat="44.85653" lon="7.9642917"><ele>258.25</ele><time>2026-04-19T09:17:54.918Z</time></trkpt><trkpt lat="44.8564433" lon="7.964215"><ele>257.5</ele><time>2026-04-19T09:17:56.918Z</time></trkpt><trkpt lat="44.8563567" lon="7.9641183"><ele>256.75</ele><time>2026-04-19T09:17:58.918Z</time></trkpt><trkpt lat="44.8562667" lon="7.9639883"><ele>256.0</ele><time>2026-04-19T09:18:00.919Z</time></trkpt><trkpt lat="44.8561833" lon="7.96388"><ele>255.99999999999997</ele><time>2026-04-19T09:18:02.918Z</time></trkpt><trkpt lat="44.85614" lon="7.9638117"><ele>256.0</ele><time>2026-04-19T09:18:03.919Z</time></trkpt><trkpt lat="44.85609" lon="7.9637267"><ele>256.0</ele><time>2026-04-19T09:18:04.919Z</time></trkpt><trkpt lat="44.85604" lon="7.963635"><ele>256.0</ele><time>2026-04-19T09:18:05.918Z</time></trkpt><trkpt lat="44.8559817" lon="7.963545"><ele>255.99999999999997</ele><time>2026-04-19T09:18:06.919Z</time></trkpt><trkpt lat="44.8559283" lon="7.9634583"><ele>256.0</ele><time>2026-04-19T09:18:07.918Z</time></trkpt><trkpt lat="44.8558783" lon="7.9633617"><ele>257.16666666666663</ele><time>2026-04-19T09:18:08.919Z</time></trkpt><trkpt lat="44.8558317" lon="7.963255"><ele>258.3333333333333</ele><time>2026-04-19T09:18:09.918Z</time></trkpt><trkpt lat="44.8557817" lon="7.9631433"><ele>259.5</ele><time>2026-04-19T09:18:10.918Z</time></trkpt><trkpt lat="44.855735" lon="7.9630533"><ele>260.6666666666667</ele><time>2026-04-19T09:18:11.918Z</time></trkpt><trkpt lat="44.8556917" lon="7.9629767"><ele>261.83333333333337</ele><time>2026-04-19T09:18:12.918Z</time></trkpt><trkpt lat="44.85564" lon="7.9629067"><ele>263.0</ele><time>2026-04-19T09:18:13.918Z</time></trkpt><trkpt lat="44.855575" lon="7.9628367"><ele>263.0</ele><time>2026-04-19T09:18:14.918Z</time></trkpt><trkpt lat="44.8555217" lon="7.9627783"><ele>263.0</ele><time>2026-04-19T09:18:15.918Z</time></trkpt><trkpt lat="44.8554633" lon="7.96274"><ele>263.0</ele><time>2026-04-19T09:18:16.919Z</time></trkpt><trkpt lat="44.85536" lon="7.9626767"><ele>263.0</ele><time>2026-04-19T09:18:18.918Z</time></trkpt><trkpt lat="44.8552683" lon="7.9626367"><ele>263.0</ele><time>2026-04-19T09:18:20.918Z</time></trkpt><trkpt lat="44.8551833" lon="7.96262"><ele>263.0</ele><time>2026-04-19T09:18:22.919Z</time></trkpt><trkpt lat="44.8550817" lon="7.9625867"><ele>263.4</ele><time>2026-04-19T09:18:24.919Z</time></trkpt><trkpt lat="44.85499" lon="7.9625433"><ele>263.8</ele><time>2026-04-19T09:18:26.918Z</time></trkpt><trkpt lat="44.8549067" lon="7.9624883"><ele>264.2</ele><time>2026-04-19T09:18:28.918Z</time></trkpt><trkpt lat="44.8548117" lon="7.96243"><ele>264.6</ele><time>2026-04-19T09:18:30.918Z</time></trkpt><trkpt lat="44.8547333" lon="7.9623683"><ele>265.0</ele><time>2026-04-19T09:18:32.919Z</time></trkpt><trkpt lat="44.8546467" lon="7.9622583"><ele>265.0</ele><time>2026-04-19T09:18:34.919Z</time></trkpt><trkpt lat="44.8545917" lon="7.9622033"><ele>265.0</ele><time>2026-04-19T09:18:35.918Z</time></trkpt><trkpt lat="44.8545" lon="7.9620983"><ele>265.0</ele><time>2026-04-19T09:18:37.918Z</time></trkpt><trkpt lat="44.8544267" lon="7.962025"><ele>265.0</ele><time>2026-04-19T09:18:39.919Z</time></trkpt><trkpt lat="44.854365" lon="7.9619817"><ele>265.0</ele><time>2026-04-19T09:18:42.919Z</time></trkpt><trkpt lat="44.8543067" lon="7.9619183"><ele>265.0</ele><time>2026-04-19T09:18:45.918Z</time></trkpt><trkpt lat="44.8542317" lon="7.9618717"><ele>264.8</ele><time>2026-04-19T09:18:47.918Z</time></trkpt><trkpt lat="44.85417" lon="7.96183"><ele>264.6</ele><time>2026-04-19T09:18:48.918Z</time></trkpt><trkpt lat="44.85406" lon="7.96178"><ele>264.4</ele><time>2026-04-19T09:18:50.918Z</time></trkpt><trkpt lat="44.8539467" lon="7.96176"><ele>264.2</ele><time>2026-04-19T09:18:52.918Z</time></trkpt><trkpt lat="44.8538467" lon="7.9617433"><ele>264.0</ele><time>2026-04-19T09:18:54.918Z</time></trkpt><trkpt lat="44.8537533" lon="7.9617133"><ele>263.8333333333333</ele><time>2026-04-19T09:18:56.919Z</time></trkpt><trkpt lat="44.8536517" lon="7.9616867"><ele>263.6666666666667</ele><time>2026-04-19T09:18:58.919Z</time></trkpt><trkpt lat="44.8535367" lon="7.9616917"><ele>263.5</ele><time>2026-04-19T09:19:00.918Z</time></trkpt><trkpt lat="44.85347" lon="7.9616867"><ele>263.33333333333337</ele><time>2026-04-19T09:19:01.919Z</time></trkpt><trkpt lat="44.853405" lon="7.96168"><ele>263.1666666666667</ele><time>2026-04-19T09:19:02.919Z</time></trkpt><trkpt lat="44.8533283" lon="7.961675"><ele>263.0</ele><time>2026-04-19T09:19:03.918Z</time></trkpt><trkpt lat="44.85326" lon="7.9616783"><ele>263.0</ele><time>2026-04-19T09:19:04.919Z</time></trkpt><trkpt lat="44.853195" lon="7.96168"><ele>263.0</ele><time>2026-04-19T09:19:05.918Z</time></trkpt><trkpt lat="44.8530917" lon="7.9616467"><ele>263.0</ele><time>2026-04-19T09:19:07.918Z</time></trkpt><trkpt lat="44.8530033" lon="7.9615733"><ele>263.0</ele><time>2026-04-19T09:19:09.919Z</time></trkpt><trkpt lat="44.85292" lon="7.961505"><ele>263.0</ele><time>2026-04-19T09:19:11.919Z</time></trkpt><trkpt lat="44.8528283" lon="7.9614167"><ele>263.0</ele><time>2026-04-19T09:19:13.918Z</time></trkpt><trkpt lat="44.852725" lon="7.9613433"><ele>263.0</ele><time>2026-04-19T09:19:15.918Z</time></trkpt><trkpt lat="44.852635" lon="7.9612883"><ele>263.0</ele><time>2026-04-19T09:19:17.918Z</time></trkpt><trkpt lat="44.85255" lon="7.9612467"><ele>263.0</ele><time>2026-04-19T09:19:19.918Z</time></trkpt><trkpt lat="44.8524383" lon="7.96116"><ele>263.0</ele><time>2026-04-19T09:19:21.918Z</time></trkpt><trkpt lat="44.8523667" lon="7.9611067"><ele>263.33333333333337</ele><time>2026-04-19T09:19:22.918Z</time></trkpt><trkpt lat="44.852305" lon="7.961065"><ele>263.6666666666667</ele><time>2026-04-19T09:19:23.918Z</time></trkpt><trkpt lat="44.8522333" lon="7.961015"><ele>264.0</ele><time>2026-04-19T09:19:24.919Z</time></trkpt><trkpt lat="44.852165" lon="7.9609633"><ele>264.3333333333333</ele><time>2026-04-19T09:19:25.919Z</time></trkpt><trkpt lat="44.8520967" lon="7.96092"><ele>264.66666666666663</ele><time>2026-04-19T09:19:26.918Z</time></trkpt><trkpt lat="44.8520283" lon="7.9608883"><ele>265.0</ele><time>2026-04-19T09:19:27.919Z</time></trkpt><trkpt lat="44.8519567" lon="7.9608433"><ele>265.0</ele><time>2026-04-19T09:19:28.918Z</time></trkpt><trkpt lat="44.8518867" lon="7.9608033"><ele>265.0</ele><time>2026-04-19T09:19:29.919Z</time></trkpt><trkpt lat="44.8518183" lon="7.9607667"><ele>265.0</ele><time>2026-04-19T09:19:30.919Z</time></trkpt><trkpt lat="44.8517583" lon="7.960735"><ele>265.0</ele><time>2026-04-19T09:19:31.918Z</time></trkpt><trkpt lat="44.85166" lon="7.9606767"><ele>265.0</ele><time>2026-04-19T09:19:33.919Z</time></trkpt><trkpt lat="44.851565" lon="7.9606033"><ele>265.0</ele><time>2026-04-19T09:19:35.918Z</time></trkpt><trkpt lat="44.851475" lon="7.96051"><ele>265.1428571428571</ele><time>2026-04-19T09:19:37.918Z</time></trkpt><trkpt lat="44.851385" lon="7.96043"><ele>265.2857142857143</ele><time>2026-04-19T09:19:39.919Z</time></trkpt><trkpt lat="44.851335" lon="7.9603717"><ele>265.42857142857144</ele><time>2026-04-19T09:19:40.919Z</time></trkpt><trkpt lat="44.8512767" lon="7.9603267"><ele>265.57142857142856</ele><time>2026-04-19T09:19:41.919Z</time></trkpt><trkpt lat="44.8512233" lon="7.9602617"><ele>265.7142857142857</ele><time>2026-04-19T09:19:42.919Z</time></trkpt><trkpt lat="44.8511717" lon="7.9602017"><ele>265.85714285714283</ele><time>2026-04-19T09:19:43.919Z</time></trkpt><trkpt lat="44.85112" lon="7.9601367"><ele>266.0</ele><time>2026-04-19T09:19:44.919Z</time></trkpt><trkpt lat="44.8510667" lon="7.9600667"><ele>267.2</ele><time>2026-04-19T09:19:45.919Z</time></trkpt><trkpt lat="44.8510167" lon="7.96"><ele>268.40000000000003</ele><time>2026-04-19T09:19:46.918Z</time></trkpt><trkpt lat="44.8509067" lon="7.95989"><ele>269.6</ele><time>2026-04-19T09:19:48.918Z</time></trkpt><trkpt lat="44.8508583" lon="7.9598283"><ele>270.8</ele><time>2026-04-19T09:19:49.918Z</time></trkpt><trkpt lat="44.85077" lon="7.9597417"><ele>272.0</ele><time>2026-04-19T09:19:51.919Z</time></trkpt><trkpt lat="44.850645" lon="7.9596867"><ele>272.0</ele><time>2026-04-19T09:19:53.919Z</time></trkpt><trkpt lat="44.8505733" lon="7.9596567"><ele>272.0</ele><time>2026-04-19T09:19:54.919Z</time></trkpt><trkpt lat="44.8505017" lon="7.95963"><ele>272.0</ele><time>2026-04-19T09:19:55.918Z</time></trkpt><trkpt lat="44.8504333" lon="7.9596133"><ele>272.0</ele><time>2026-04-19T09:19:56.919Z</time></trkpt><trkpt lat="44.85037" lon="7.9596083"><ele>272.0</ele><time>2026-04-19T09:19:57.918Z</time></trkpt><trkpt lat="44.85026" lon="7.959575"><ele>272.0</ele><time>2026-04-19T09:19:59.918Z</time></trkpt><trkpt lat="44.8501983" lon="7.9595517"><ele>272.0</ele><time>2026-04-19T09:20:00.919Z</time></trkpt><trkpt lat="44.850125" lon="7.9595383"><ele>272.0</ele><time>2026-04-19T09:20:01.918Z</time></trkpt><trkpt lat="44.8500433" lon="7.9595283"><ele>272.0</ele><time>2026-04-19T09:20:02.918Z</time></trkpt><trkpt lat="44.849965" lon="7.959515"><ele>272.0</ele><time>2026-04-19T09:20:03.919Z</time></trkpt><trkpt lat="44.84989" lon="7.9595033"><ele>272.0</ele><time>2026-04-19T09:20:04.918Z</time></trkpt><trkpt lat="44.8498183" lon="7.9594917"><ele>272.0</ele><time>2026-04-19T09:20:05.919Z</time></trkpt><trkpt lat="44.8497467" lon="7.959485"><ele>272.8</ele><time>2026-04-19T09:20:06.919Z</time></trkpt><trkpt lat="44.849675" lon="7.9594817"><ele>273.6</ele><time>2026-04-19T09:20:07.918Z</time></trkpt><trkpt lat="44.8495633" lon="7.9595217"><ele>274.40000000000003</ele><time>2026-04-19T09:20:09.918Z</time></trkpt><trkpt lat="44.849445" lon="7.9595733"><ele>275.2</ele><time>2026-04-19T09:20:11.918Z</time></trkpt><trkpt lat="44.849375" lon="7.95959"><ele>276.0</ele><time>2026-04-19T09:20:12.919Z</time></trkpt><trkpt lat="44.849305" lon="7.9595933"><ele>277.1666666666667</ele><time>2026-04-19T09:20:13.919Z</time></trkpt><trkpt lat="44.8492283" lon="7.9595783"><ele>278.3333333333333</ele><time>2026-04-19T09:20:14.919Z</time></trkpt><trkpt lat="44.8491517" lon="7.9595467"><ele>279.5</ele><time>2026-04-19T09:20:15.918Z</time></trkpt><trkpt lat="44.8490483" lon="7.95952"><ele>280.66666666666663</ele><time>2026-04-19T09:20:16.919Z</time></trkpt><trkpt lat="44.8489667" lon="7.959495"><ele>281.8333333333333</ele><time>2026-04-19T09:20:17.918Z</time></trkpt><trkpt lat="44.8488817" lon="7.9594567"><ele>283.0</ele><time>2026-04-19T09:20:18.918Z</time></trkpt><trkpt lat="44.8487967" lon="7.959425"><ele>283.0</ele><time>2026-04-19T09:20:19.919Z</time></trkpt><trkpt lat="44.8487217" lon="7.9594083"><ele>283.0</ele><time>2026-04-19T09:20:20.919Z</time></trkpt><trkpt lat="44.8486483" lon="7.95938"><ele>283.0</ele><time>2026-04-19T09:20:21.918Z</time></trkpt><trkpt lat="44.8485783" lon="7.959355"><ele>283.0</ele><time>2026-04-19T09:20:22.919Z</time></trkpt><trkpt lat="44.8485067" lon="7.9593383"><ele>283.0</ele><time>2026-04-19T09:20:23.919Z</time></trkpt><trkpt lat="44.8484283" lon="7.959335"><ele>283.0</ele><time>2026-04-19T09:20:24.919Z</time></trkpt><trkpt lat="44.8483583" lon="7.9593333"><ele>283.0</ele><time>2026-04-19T09:20:25.919Z</time></trkpt><trkpt lat="44.848295" lon="7.9593233"><ele>282.66666666666663</ele><time>2026-04-19T09:20:26.919Z</time></trkpt><trkpt lat="44.848195" lon="7.9593083"><ele>282.3333333333333</ele><time>2026-04-19T09:20:28.919Z</time></trkpt><trkpt lat="44.8481317" lon="7.9593"><ele>282.0</ele><time>2026-04-19T09:20:29.919Z</time></trkpt><trkpt lat="44.8480417" lon="7.9592917"><ele>281.6666666666667</ele><time>2026-04-19T09:20:30.918Z</time></trkpt><trkpt lat="44.8479533" lon="7.95929"><ele>281.33333333333337</ele><time>2026-04-19T09:20:31.918Z</time></trkpt><trkpt lat="44.8478533" lon="7.9592933"><ele>281.0</ele><time>2026-04-19T09:20:32.918Z</time></trkpt><trkpt lat="44.8477517" lon="7.9592967"><ele>281.0</ele><time>2026-04-19T09:20:33.918Z</time></trkpt><trkpt lat="44.8476683" lon="7.9592917"><ele>281.0</ele><time>2026-04-19T09:20:34.919Z</time></trkpt><trkpt lat="44.8475933" lon="7.9592867"><ele>281.0</ele><time>2026-04-19T09:20:35.919Z</time></trkpt><trkpt lat="44.847525" lon="7.9592817"><ele>281.0</ele><time>2026-04-19T09:20:36.919Z</time></trkpt><trkpt lat="44.8474583" lon="7.959275"><ele>281.0</ele><time>2026-04-19T09:20:37.919Z</time></trkpt><trkpt lat="44.8473433" lon="7.9592583"><ele>281.0</ele><time>2026-04-19T09:20:39.918Z</time></trkpt><trkpt lat="44.8472433" lon="7.9592017"><ele>281.40000000000003</ele><time>2026-04-19T09:20:48.919Z</time></trkpt><trkpt lat="44.8471417" lon="7.959175"><ele>281.8</ele><time>2026-04-19T09:20:51.918Z</time></trkpt><trkpt lat="44.847025" lon="7.9591583"><ele>282.20000000000005</ele><time>2026-04-19T09:20:53.919Z</time></trkpt><trkpt lat="44.8469483" lon="7.9591667"><ele>282.6</ele><time>2026-04-19T09:20:54.918Z</time></trkpt><trkpt lat="44.8468167" lon="7.9591867"><ele>283.0</ele><time>2026-04-19T09:20:56.919Z</time></trkpt><trkpt lat="44.8467417" lon="7.959215"><ele>284.2</ele><time>2026-04-19T09:20:57.918Z</time></trkpt><trkpt lat="44.8466417" lon="7.9592733"><ele>285.4</ele><time>2026-04-19T09:20:58.919Z</time></trkpt><trkpt lat="44.8465633" lon="7.9593467"><ele>286.59999999999997</ele><time>2026-04-19T09:20:59.918Z</time></trkpt><trkpt lat="44.8465067" lon="7.9594433"><ele>287.8</ele><time>2026-04-19T09:21:00.919Z</time></trkpt><trkpt lat="44.8464483" lon="7.9595633"><ele>289.0</ele><time>2026-04-19T09:21:01.919Z</time></trkpt><trkpt lat="44.846385" lon="7.9596917"><ele>289.0</ele><time>2026-04-19T09:21:02.918Z</time></trkpt><trkpt lat="44.8463217" lon="7.9597967"><ele>289.0</ele><time>2026-04-19T09:21:03.918Z</time></trkpt><trkpt lat="44.8462417" lon="7.9598683"><ele>289.0</ele><time>2026-04-19T09:21:04.919Z</time></trkpt><trkpt lat="44.84617" lon="7.9599433"><ele>289.0</ele><time>2026-04-19T09:21:05.919Z</time></trkpt><trkpt lat="44.8460883" lon="7.9600217"><ele>289.0</ele><time>2026-04-19T09:21:06.919Z</time></trkpt><trkpt lat="44.84601" lon="7.9601033"><ele>289.8</ele><time>2026-04-19T09:21:07.918Z</time></trkpt><trkpt lat="44.8459283" lon="7.9601667"><ele>290.59999999999997</ele><time>2026-04-19T09:21:08.919Z</time></trkpt><trkpt lat="44.8458417" lon="7.960195"><ele>291.4</ele><time>2026-04-19T09:21:09.918Z</time></trkpt><trkpt lat="44.8457467" lon="7.96023"><ele>292.2</ele><time>2026-04-19T09:21:10.918Z</time></trkpt><trkpt lat="44.84566" lon="7.9602733"><ele>293.0</ele><time>2026-04-19T09:21:11.918Z</time></trkpt><trkpt lat="44.8455833" lon="7.960315"><ele>293.0</ele><time>2026-04-19T09:21:12.918Z</time></trkpt><trkpt lat="44.8455033" lon="7.960365"><ele>293.0</ele><time>2026-04-19T09:21:13.918Z</time></trkpt><trkpt lat="44.8454283" lon="7.9604667"><ele>293.0</ele><time>2026-04-19T09:21:14.919Z</time></trkpt><trkpt lat="44.8453533" lon="7.9605733"><ele>293.0</ele><time>2026-04-19T09:21:15.918Z</time></trkpt><trkpt lat="44.845285" lon="7.9606817"><ele>293.0</ele><time>2026-04-19T09:21:16.918Z</time></trkpt><trkpt lat="44.8452167" lon="7.9607733"><ele>293.0</ele><time>2026-04-19T09:21:17.918Z</time></trkpt><trkpt lat="44.8451367" lon="7.96083"><ele>293.0</ele><time>2026-04-19T09:21:18.918Z</time></trkpt><trkpt lat="44.8450617" lon="7.960855"><ele>293.0</ele><time>2026-04-19T09:21:19.918Z</time></trkpt><trkpt lat="44.8449667" lon="7.960835"><ele>293.0</ele><time>2026-04-19T09:21:20.918Z</time></trkpt><trkpt lat="44.8448567" lon="7.9607867"><ele>293.0</ele><time>2026-04-19T09:21:21.919Z</time></trkpt><trkpt lat="44.8447517" lon="7.96075"><ele>292.2</ele><time>2026-04-19T09:21:22.918Z</time></trkpt><trkpt lat="44.8446567" lon="7.960675"><ele>291.4</ele><time>2026-04-19T09:21:23.919Z</time></trkpt><trkpt lat="44.84457" lon="7.960615"><ele>290.59999999999997</ele><time>2026-04-19T09:21:24.919Z</time></trkpt><trkpt lat="44.8444983" lon="7.960575"><ele>289.8</ele><time>2026-04-19T09:21:25.919Z</time></trkpt><trkpt lat="44.8444" lon="7.960595"><ele>289.0</ele><time>2026-04-19T09:21:27.918Z</time></trkpt><trkpt lat="44.8443283" lon="7.9605233"><ele>290.2</ele><time>2026-04-19T09:21:29.919Z</time></trkpt><trkpt lat="44.84429" lon="7.96045"><ele>291.4</ele><time>2026-04-19T09:21:30.918Z</time></trkpt><trkpt lat="44.8442417" lon="7.9603367"><ele>292.6</ele><time>2026-04-19T09:21:31.919Z</time></trkpt><trkpt lat="44.8441783" lon="7.960225"><ele>293.8</ele><time>2026-04-19T09:21:32.918Z</time></trkpt><trkpt lat="44.8441067" lon="7.9601083"><ele>295.0</ele><time>2026-04-19T09:21:33.919Z</time></trkpt><trkpt lat="44.844035" lon="7.9600067"><ele>295.0</ele><time>2026-04-19T09:21:34.918Z</time></trkpt><trkpt lat="44.8439717" lon="7.959895"><ele>295.0</ele><time>2026-04-19T09:21:35.919Z</time></trkpt><trkpt lat="44.843915" lon="7.9597833"><ele>295.0</ele><time>2026-04-19T09:21:36.918Z</time></trkpt><trkpt lat="44.8437767" lon="7.95955"><ele>295.0</ele><time>2026-04-19T09:21:38.919Z</time></trkpt><trkpt lat="44.843695" lon="7.9594267"><ele>295.0</ele><time>2026-04-19T09:21:39.919Z</time></trkpt><trkpt lat="44.8436183" lon="7.9593217"><ele>295.0</ele><time>2026-04-19T09:21:40.918Z</time></trkpt><trkpt lat="44.8435233" lon="7.9591217"><ele>295.0</ele><time>2026-04-19T09:21:42.919Z</time></trkpt><trkpt lat="44.8434717" lon="7.9589483"><ele>295.0</ele><time>2026-04-19T09:21:44.919Z</time></trkpt><trkpt lat="44.8434983" lon="7.9588317"><ele>296.2</ele><time>2026-04-19T09:21:46.919Z</time></trkpt><trkpt lat="44.843595" lon="7.95871"><ele>297.4</ele><time>2026-04-19T09:21:48.918Z</time></trkpt><trkpt lat="44.843645" lon="7.9586217"><ele>298.6</ele><time>2026-04-19T09:21:49.919Z</time></trkpt><trkpt lat="44.8437367" lon="7.9584983"><ele>299.8</ele><time>2026-04-19T09:21:51.919Z</time></trkpt><trkpt lat="44.8438317" lon="7.9585633"><ele>301.0</ele><time>2026-04-19T09:21:53.918Z</time></trkpt><trkpt lat="44.8439433" lon="7.958735"><ele>301.0</ele><time>2026-04-19T09:21:55.918Z</time></trkpt><trkpt lat="44.8440033" lon="7.9588267"><ele>301.0</ele><time>2026-04-19T09:21:56.919Z</time></trkpt><trkpt lat="44.8440717" lon="7.9589017"><ele>301.0</ele><time>2026-04-19T09:21:57.919Z</time></trkpt><trkpt lat="44.844225" lon="7.9590667"><ele>301.0</ele><time>2026-04-19T09:21:59.919Z</time></trkpt><trkpt lat="44.844395" lon="7.9591817"><ele>300.0</ele><time>2026-04-19T09:22:01.919Z</time></trkpt><trkpt lat="44.844565" lon="7.9592567"><ele>299.0</ele><time>2026-04-19T09:22:03.919Z</time></trkpt><trkpt lat="44.8446567" lon="7.9592867"><ele>298.0</ele><time>2026-04-19T09:22:04.918Z</time></trkpt><trkpt lat="44.8447383" lon="7.9593083"><ele>297.0</ele><time>2026-04-19T09:22:05.918Z</time></trkpt><trkpt lat="44.8448767" lon="7.9593017"><ele>297.0</ele><time>2026-04-19T09:22:07.918Z</time></trkpt><trkpt lat="44.84499" lon="7.9592517"><ele>297.0</ele><time>2026-04-19T09:22:09.919Z</time></trkpt><trkpt lat="44.84507" lon="7.9591817"><ele>297.0</ele><time>2026-04-19T09:22:11.919Z</time></trkpt><trkpt lat="44.8450983" lon="7.95905"><ele>297.0</ele><time>2026-04-19T09:22:13.918Z</time></trkpt><trkpt lat="44.8450383" lon="7.9588817"><ele>297.0</ele><time>2026-04-19T09:22:15.919Z</time></trkpt><trkpt lat="44.84485" lon="7.9586133"><ele>300.0</ele><time>2026-04-19T09:22:18.919Z</time></trkpt><trkpt lat="44.8447817" lon="7.9585083"><ele>303.0</ele><time>2026-04-19T09:22:19.918Z</time></trkpt><trkpt lat="44.844715" lon="7.9584267"><ele>306.0</ele><time>2026-04-19T09:22:20.918Z</time></trkpt><trkpt lat="44.8446683" lon="7.958355"><ele>309.0</ele><time>2026-04-19T09:22:21.919Z</time></trkpt><trkpt lat="44.8445967" lon="7.958195"><ele>312.0</ele><time>2026-04-19T09:22:23.918Z</time></trkpt><trkpt lat="44.8445367" lon="7.9579533"><ele>314.0</ele><time>2026-04-19T09:22:25.918Z</time></trkpt><trkpt lat="44.8445067" lon="7.9578217"><ele>316.0</ele><time>2026-04-19T09:22:26.919Z</time></trkpt><trkpt lat="44.8444917" lon="7.9577133"><ele>318.0</ele><time>2026-04-19T09:22:27.919Z</time></trkpt><trkpt lat="44.8444867" lon="7.9576"><ele>320.0</ele><time>2026-04-19T09:22:28.918Z</time></trkpt><trkpt lat="44.844495" lon="7.957375"><ele>322.0</ele><time>2026-04-19T09:22:30.918Z</time></trkpt><trkpt lat="44.8444933" lon="7.9571467"><ele>323.3333333333333</ele><time>2026-04-19T09:22:32.919Z</time></trkpt><trkpt lat="44.8443917" lon="7.956885"><ele>324.6666666666667</ele><time>2026-04-19T09:22:35.919Z</time></trkpt><trkpt lat="44.8443333" lon="7.9568"><ele>326.0</ele><time>2026-04-19T09:22:36.919Z</time></trkpt><trkpt lat="44.8442083" lon="7.9565917"><ele>332.33333333333337</ele><time>2026-04-19T09:22:38.919Z</time></trkpt><trkpt lat="44.8440667" lon="7.9563683"><ele>338.6666666666667</ele><time>2026-04-19T09:22:40.918Z</time></trkpt><trkpt lat="44.8439983" lon="7.9562617"><ele>345.0</ele><time>2026-04-19T09:22:41.919Z</time></trkpt><trkpt lat="44.84387" lon="7.9560317"><ele>346.0</ele><time>2026-04-19T09:22:43.918Z</time></trkpt><trkpt lat="44.84382" lon="7.95582"><ele>347.0</ele><time>2026-04-19T09:22:45.919Z</time></trkpt><trkpt lat="44.8437683" lon="7.9556583"><ele>348.0</ele><time>2026-04-19T09:22:47.918Z</time></trkpt><trkpt lat="44.8437367" lon="7.9555517"><ele>349.0</ele><time>2026-04-19T09:22:49.919Z</time></trkpt><trkpt lat="44.8436933" lon="7.9554733"><ele>350.0</ele><time>2026-04-19T09:22:52.918Z</time></trkpt><trkpt lat="44.8435533" lon="7.95548"><ele>350.0</ele><time>2026-04-19T09:22:55.918Z</time></trkpt><trkpt lat="44.8433883" lon="7.9555767"><ele>350.0</ele><time>2026-04-19T09:22:57.919Z</time></trkpt><trkpt lat="44.8431917" lon="7.9556733"><ele>350.0</ele><time>2026-04-19T09:22:59.919Z</time></trkpt><trkpt lat="44.84298" lon="7.9557767"><ele>350.0</ele><time>2026-04-19T09:23:01.918Z</time></trkpt><trkpt lat="44.842875" lon="7.95583"><ele>350.0</ele><time>2026-04-19T09:23:02.919Z</time></trkpt><trkpt lat="44.8427667" lon="7.955885"><ele>350.0</ele><time>2026-04-19T09:23:03.918Z</time></trkpt><trkpt lat="44.8426517" lon="7.9559433"><ele>350.0</ele><time>2026-04-19T09:23:04.919Z</time></trkpt><trkpt lat="44.8425283" lon="7.9560117"><ele>348.33333333333337</ele><time>2026-04-19T09:23:05.918Z</time></trkpt><trkpt lat="44.84227" lon="7.9561417"><ele>346.6666666666667</ele><time>2026-04-19T09:23:07.918Z</time></trkpt><trkpt lat="44.8421633" lon="7.956185"><ele>345.0</ele><time>2026-04-19T09:23:08.919Z</time></trkpt><trkpt lat="44.8420767" lon="7.9562217"><ele>345.0</ele><time>2026-04-19T09:23:09.919Z</time></trkpt><trkpt lat="44.84195" lon="7.9562867"><ele>345.0</ele><time>2026-04-19T09:23:11.919Z</time></trkpt><trkpt lat="44.8418867" lon="7.9563333"><ele>345.0</ele><time>2026-04-19T09:23:13.918Z</time></trkpt><trkpt lat="44.8419033" lon="7.9564833"><ele>345.0</ele><time>2026-04-19T09:23:17.919Z</time></trkpt><trkpt lat="44.8418767" lon="7.956745"><ele>344.6</ele><time>2026-04-19T09:23:20.919Z</time></trkpt><trkpt lat="44.8418567" lon="7.956835"><ele>344.2</ele><time>2026-04-19T09:23:21.918Z</time></trkpt><trkpt lat="44.8418283" lon="7.9569883"><ele>343.79999999999995</ele><time>2026-04-19T09:23:23.918Z</time></trkpt><trkpt lat="44.8418033" lon="7.95715"><ele>343.4</ele><time>2026-04-19T09:23:25.919Z</time></trkpt><trkpt lat="44.8417783" lon="7.9573017"><ele>343.0</ele><time>2026-04-19T09:23:27.919Z</time></trkpt><trkpt lat="44.8417483" lon="7.9574717"><ele>341.5</ele><time>2026-04-19T09:23:29.919Z</time></trkpt><trkpt lat="44.8417067" lon="7.957675"><ele>340.0</ele><time>2026-04-19T09:23:31.919Z</time></trkpt><trkpt lat="44.8416683" lon="7.9579133"><ele>338.5</ele><time>2026-04-19T09:23:33.919Z</time></trkpt><trkpt lat="44.84165" lon="7.9580367"><ele>337.0</ele><time>2026-04-19T09:23:34.918Z</time></trkpt><trkpt lat="44.8416267" lon="7.9581733"><ele>336.3333333333333</ele><time>2026-04-19T09:23:35.918Z</time></trkpt><trkpt lat="44.8415417" lon="7.9584383"><ele>335.6666666666667</ele><time>2026-04-19T09:23:37.919Z</time></trkpt><trkpt lat="44.84143" lon="7.95868"><ele>335.0</ele><time>2026-04-19T09:23:39.918Z</time></trkpt><trkpt lat="44.8413383" lon="7.9589383"><ele>335.33333333333337</ele><time>2026-04-19T09:23:41.918Z</time></trkpt><trkpt lat="44.8412917" lon="7.9592233"><ele>335.6666666666667</ele><time>2026-04-19T09:23:43.918Z</time></trkpt><trkpt lat="44.8413217" lon="7.9594917"><ele>336.0</ele><time>2026-04-19T09:23:45.919Z</time></trkpt><trkpt lat="44.84148" lon="7.9597433"><ele>336.0</ele><time>2026-04-19T09:23:47.918Z</time></trkpt><trkpt lat="44.8416567" lon="7.95998"><ele>336.0</ele><time>2026-04-19T09:23:49.919Z</time></trkpt><trkpt lat="44.841735" lon="7.9601067"><ele>336.0</ele><time>2026-04-19T09:23:50.919Z</time></trkpt><trkpt lat="44.8418017" lon="7.9602383"><ele>330.5</ele><time>2026-04-19T09:23:51.918Z</time></trkpt><trkpt lat="44.8418867" lon="7.9605367"><ele>325.0</ele><time>2026-04-19T09:23:53.918Z</time></trkpt><trkpt lat="44.8418833" lon="7.96088"><ele>328.66666666666663</ele><time>2026-04-19T09:23:55.919Z</time></trkpt><trkpt lat="44.841785" lon="7.96127"><ele>332.3333333333333</ele><time>2026-04-19T09:23:57.918Z</time></trkpt><trkpt lat="44.8417333" lon="7.9614583"><ele>336.0</ele><time>2026-04-19T09:23:58.919Z</time></trkpt><trkpt lat="44.8416917" lon="7.961645"><ele>335.3333333333333</ele><time>2026-04-19T09:23:59.918Z</time></trkpt><trkpt lat="44.8416533" lon="7.962005"><ele>334.66666666666663</ele><time>2026-04-19T09:24:01.918Z</time></trkpt><trkpt lat="44.8416717" lon="7.9621683"><ele>334.0</ele><time>2026-04-19T09:24:02.918Z</time></trkpt><trkpt lat="44.84172" lon="7.9622967"><ele>333.0</ele><time>2026-04-19T09:24:03.918Z</time></trkpt><trkpt lat="44.84191" lon="7.9625067"><ele>332.0</ele><time>2026-04-19T09:24:05.918Z</time></trkpt><trkpt lat="44.8421467" lon="7.9627067"><ele>332.0</ele><time>2026-04-19T09:24:07.918Z</time></trkpt><trkpt lat="44.8422617" lon="7.9627983"><ele>332.0</ele><time>2026-04-19T09:24:08.919Z</time></trkpt><trkpt lat="44.8423717" lon="7.9628867"><ele>332.0</ele><time>2026-04-19T09:24:09.919Z</time></trkpt><trkpt lat="44.8424867" lon="7.9629767"><ele>332.0</ele><time>2026-04-19T09:24:10.919Z</time></trkpt><trkpt lat="44.8426" lon="7.9630617"><ele>330.0</ele><time>2026-04-19T09:24:11.919Z</time></trkpt><trkpt lat="44.842915" lon="7.9632867"><ele>328.0</ele><time>2026-04-19T09:24:14.918Z</time></trkpt><trkpt lat="44.8431533" lon="7.9633767"><ele>326.3333333333333</ele><time>2026-04-19T09:24:16.919Z</time></trkpt><trkpt lat="44.8432783" lon="7.9633917"><ele>324.6666666666667</ele><time>2026-04-19T09:24:17.918Z</time></trkpt><trkpt lat="44.8435517" lon="7.9633367"><ele>323.0</ele><time>2026-04-19T09:24:19.918Z</time></trkpt><trkpt lat="44.843815" lon="7.9632417"><ele>326.6666666666667</ele><time>2026-04-19T09:24:21.918Z</time></trkpt><trkpt lat="44.84394" lon="7.963205"><ele>330.3333333333333</ele><time>2026-04-19T09:24:22.918Z</time></trkpt><trkpt lat="44.844195" lon="7.9631767"><ele>334.0</ele><time>2026-04-19T09:24:24.919Z</time></trkpt><trkpt lat="44.8444517" lon="7.963175"><ele>336.0</ele><time>2026-04-19T09:24:26.919Z</time></trkpt><trkpt lat="44.8446817" lon="7.9631617"><ele>338.0</ele><time>2026-04-19T09:24:28.919Z</time></trkpt><trkpt lat="44.844795" lon="7.9631417"><ele>340.0</ele><time>2026-04-19T09:24:29.919Z</time></trkpt><trkpt lat="44.8450117" lon="7.9630533"><ele>340.0</ele><time>2026-04-19T09:24:31.919Z</time></trkpt><trkpt lat="44.84511" lon="7.9630033"><ele>340.0</ele><time>2026-04-19T09:24:32.918Z</time></trkpt><trkpt lat="44.845305" lon="7.9629083"><ele>340.0</ele><time>2026-04-19T09:24:34.919Z</time></trkpt><trkpt lat="44.8453983" lon="7.9628633"><ele>340.0</ele><time>2026-04-19T09:24:35.919Z</time></trkpt><trkpt lat="44.8455633" lon="7.9628017"><ele>337.66666666666663</ele><time>2026-04-19T09:24:37.918Z</time></trkpt><trkpt lat="44.8457" lon="7.962865"><ele>335.3333333333333</ele><time>2026-04-19T09:24:39.918Z</time></trkpt><trkpt lat="44.8457683" lon="7.9631533"><ele>333.0</ele><time>2026-04-19T09:24:41.918Z</time></trkpt><trkpt lat="44.8457867" lon="7.96334"><ele>330.5</ele><time>2026-04-19T09:24:42.919Z</time></trkpt><trkpt lat="44.8458317" lon="7.9637167"><ele>328.0</ele><time>2026-04-19T09:24:44.919Z</time></trkpt><trkpt lat="44.845875" lon="7.9640583"><ele>326.0</ele><time>2026-04-19T09:24:46.918Z</time></trkpt><trkpt lat="44.8458883" lon="7.96423"><ele>324.0</ele><time>2026-04-19T09:24:47.918Z</time></trkpt><trkpt lat="44.8459133" lon="7.9645617"><ele>322.0</ele><time>2026-04-19T09:24:49.919Z</time></trkpt><trkpt lat="44.8459083" lon="7.9647233"><ele>322.0</ele><time>2026-04-19T09:24:50.918Z</time></trkpt><trkpt lat="44.8459133" lon="7.9648817"><ele>322.0</ele><time>2026-04-19T09:24:51.918Z</time></trkpt><trkpt lat="44.845895" lon="7.9651967"><ele>322.0</ele><time>2026-04-19T09:24:53.919Z</time></trkpt><trkpt lat="44.8458517" lon="7.9655383"><ele>318.0</ele><time>2026-04-19T09:24:55.919Z</time></trkpt><trkpt lat="44.8458333" lon="7.965705"><ele>314.0</ele><time>2026-04-19T09:24:56.919Z</time></trkpt><trkpt lat="44.8458083" lon="7.9660167"><ele>310.0</ele><time>2026-04-19T09:24:58.918Z</time></trkpt><trkpt lat="44.845925" lon="7.9664533"><ele>303.0</ele><time>2026-04-19T09:25:01.919Z</time></trkpt><trkpt lat="44.8459717" lon="7.9665933"><ele>296.0</ele><time>2026-04-19T09:25:02.919Z</time></trkpt><trkpt lat="44.8461383" lon="7.966975"><ele>289.0</ele><time>2026-04-19T09:25:05.918Z</time></trkpt><trkpt lat="44.8462167" lon="7.9671917"><ele>289.2</ele><time>2026-04-19T09:25:07.918Z</time></trkpt><trkpt lat="44.8462283" lon="7.9672933"><ele>289.4</ele><time>2026-04-19T09:25:08.919Z</time></trkpt><trkpt lat="44.846205" lon="7.9673767"><ele>289.6</ele><time>2026-04-19T09:25:09.918Z</time></trkpt><trkpt lat="44.846085" lon="7.967475"><ele>289.8</ele><time>2026-04-19T09:25:11.919Z</time></trkpt><trkpt lat="44.845925" lon="7.967465"><ele>290.0</ele><time>2026-04-19T09:25:13.918Z</time></trkpt><trkpt lat="44.8458317" lon="7.967415"><ele>290.0</ele><time>2026-04-19T09:25:14.919Z</time></trkpt><trkpt lat="44.845745" lon="7.967345"><ele>290.0</ele><time>2026-04-19T09:25:15.918Z</time></trkpt><trkpt lat="44.8456017" lon="7.9671217"><ele>290.0</ele><time>2026-04-19T09:25:17.918Z</time></trkpt><trkpt lat="44.8454617" lon="7.9668817"><ele>290.0</ele><time>2026-04-19T09:25:19.919Z</time></trkpt><trkpt lat="44.8453733" lon="7.9668033"><ele>290.0</ele><time>2026-04-19T09:25:20.919Z</time></trkpt><trkpt lat="44.84517" lon="7.9666767"><ele>290.0</ele><time>2026-04-19T09:25:22.919Z</time></trkpt><trkpt lat="44.844895" lon="7.9664817"><ele>288.25</ele><time>2026-04-19T09:25:25.919Z</time></trkpt><trkpt lat="44.8448217" lon="7.96643"><ele>286.5</ele><time>2026-04-19T09:25:26.918Z</time></trkpt><trkpt lat="44.8446783" lon="7.9664533"><ele>284.75</ele><time>2026-04-19T09:25:28.918Z</time></trkpt><trkpt lat="44.8445617" lon="7.9666133"><ele>283.0</ele><time>2026-04-19T09:25:30.919Z</time></trkpt><trkpt lat="44.844525" lon="7.9667517"><ele>278.5</ele><time>2026-04-19T09:25:31.918Z</time></trkpt><trkpt lat="44.8445283" lon="7.9671217"><ele>274.0</ele><time>2026-04-19T09:25:33.918Z</time></trkpt><trkpt lat="44.844535" lon="7.967565"><ele>271.0</ele><time>2026-04-19T09:25:35.918Z</time></trkpt><trkpt lat="44.8445183" lon="7.9677917"><ele>268.0</ele><time>2026-04-19T09:25:36.918Z</time></trkpt><trkpt lat="44.844475" lon="7.968215"><ele>270.66666666666663</ele><time>2026-04-19T09:25:38.918Z</time></trkpt><trkpt lat="44.8444683" lon="7.9685867"><ele>273.3333333333333</ele><time>2026-04-19T09:25:40.918Z</time></trkpt><trkpt lat="44.8444633" lon="7.9687467"><ele>276.0</ele><time>2026-04-19T09:25:41.918Z</time></trkpt><trkpt lat="44.8444583" lon="7.9688983"><ele>276.0</ele><time>2026-04-19T09:25:42.918Z</time></trkpt><trkpt lat="44.8444467" lon="7.9690283"><ele>276.0</ele><time>2026-04-19T09:25:43.918Z</time></trkpt><trkpt lat="44.844395" lon="7.9692217"><ele>276.0</ele><time>2026-04-19T09:25:45.918Z</time></trkpt><trkpt lat="44.84422" lon="7.96927"><ele>276.0</ele><time>2026-04-19T09:25:47.918Z</time></trkpt><trkpt lat="44.844105" lon="7.96925"><ele>276.0</ele><time>2026-04-19T09:25:48.918Z</time></trkpt><trkpt lat="44.8438333" lon="7.9691867"><ele>276.0</ele><time>2026-04-19T09:25:50.918Z</time></trkpt><trkpt lat="44.8435817" lon="7.969155"><ele>275.6666666666667</ele><time>2026-04-19T09:25:52.919Z</time></trkpt><trkpt lat="44.8433517" lon="7.969145"><ele>275.33333333333337</ele><time>2026-04-19T09:25:54.918Z</time></trkpt><trkpt lat="44.8432417" lon="7.96915"><ele>275.0</ele><time>2026-04-19T09:25:55.918Z</time></trkpt><trkpt lat="44.84305" lon="7.9692083"><ele>278.75</ele><time>2026-04-19T09:25:57.919Z</time></trkpt><trkpt lat="44.84297" lon="7.969255"><ele>282.5</ele><time>2026-04-19T09:25:58.918Z</time></trkpt><trkpt lat="44.84291" lon="7.9693133"><ele>286.25</ele><time>2026-04-19T09:25:59.919Z</time></trkpt><trkpt lat="44.8428533" lon="7.96952"><ele>290.0</ele><time>2026-04-19T09:26:01.919Z</time></trkpt><trkpt lat="44.842925" lon="7.9698033"><ele>290.0</ele><time>2026-04-19T09:26:03.918Z</time></trkpt><trkpt lat="44.842985" lon="7.96995"><ele>290.0</ele><time>2026-04-19T09:26:04.919Z</time></trkpt><trkpt lat="44.8430433" lon="7.9701067"><ele>290.0</ele><time>2026-04-19T09:26:05.918Z</time></trkpt><trkpt lat="44.8431633" lon="7.9704383"><ele>291.6666666666667</ele><time>2026-04-19T09:26:07.919Z</time></trkpt><trkpt lat="44.8432283" lon="7.97061"><ele>293.3333333333333</ele><time>2026-04-19T09:26:08.918Z</time></trkpt><trkpt lat="44.8433383" lon="7.9709417"><ele>295.0</ele><time>2026-04-19T09:26:10.919Z</time></trkpt><trkpt lat="44.8434217" lon="7.9712317"><ele>300.3333333333333</ele><time>2026-04-19T09:26:12.919Z</time></trkpt><trkpt lat="44.8435483" lon="7.97152"><ele>305.6666666666667</ele><time>2026-04-19T09:26:15.918Z</time></trkpt><trkpt lat="44.8436367" lon="7.9713667"><ele>311.0</ele><time>2026-04-19T09:26:18.918Z</time></trkpt><trkpt lat="44.8436067" lon="7.9712417"><ele>311.0</ele><time>2026-04-19T09:26:19.918Z</time></trkpt><trkpt lat="44.84357" lon="7.971095"><ele>311.0</ele><time>2026-04-19T09:26:20.918Z</time></trkpt><trkpt lat="44.8435433" lon="7.9709383"><ele>311.0</ele><time>2026-04-19T09:26:21.919Z</time></trkpt><trkpt lat="44.8435617" lon="7.9706883"><ele>311.0</ele><time>2026-04-19T09:26:23.919Z</time></trkpt><trkpt lat="44.8436733" lon="7.9707067"><ele>311.0</ele><time>2026-04-19T09:26:25.918Z</time></trkpt><trkpt lat="44.8437367" lon="7.9708083"><ele>311.0</ele><time>2026-04-19T09:26:26.919Z</time></trkpt><trkpt lat="44.8438517" lon="7.9710667"><ele>311.0</ele><time>2026-04-19T09:26:28.918Z</time></trkpt><trkpt lat="44.843915" lon="7.9713433"><ele>311.0</ele><time>2026-04-19T09:26:30.918Z</time></trkpt><trkpt lat="44.84389" lon="7.9716283"><ele>311.0</ele><time>2026-04-19T09:26:32.918Z</time></trkpt><trkpt lat="44.8438683" lon="7.971775"><ele>311.0</ele><time>2026-04-19T09:26:33.919Z</time></trkpt><trkpt lat="44.84385" lon="7.9719183"><ele>311.0</ele><time>2026-04-19T09:26:34.919Z</time></trkpt><trkpt lat="44.8438283" lon="7.9720467"><ele>311.40000000000003</ele><time>2026-04-19T09:26:35.919Z</time></trkpt><trkpt lat="44.8438" lon="7.9721583"><ele>311.8</ele><time>2026-04-19T09:26:36.918Z</time></trkpt><trkpt lat="44.843725" lon="7.972365"><ele>312.20000000000005</ele><time>2026-04-19T09:26:38.919Z</time></trkpt><trkpt lat="44.8436733" lon="7.97245"><ele>312.6</ele><time>2026-04-19T09:26:39.919Z</time></trkpt><trkpt lat="44.8436117" lon="7.9725167"><ele>313.0</ele><time>2026-04-19T09:26:40.918Z</time></trkpt><trkpt lat="44.84348" lon="7.972625"><ele>314.5</ele><time>2026-04-19T09:26:42.918Z</time></trkpt><trkpt lat="44.8433567" lon="7.9727233"><ele>316.0</ele><time>2026-04-19T09:26:44.918Z</time></trkpt><trkpt lat="44.8432983" lon="7.9727767"><ele>317.5</ele><time>2026-04-19T09:26:45.918Z</time></trkpt><trkpt lat="44.84314" lon="7.97287"><ele>319.0</ele><time>2026-04-19T09:26:47.919Z</time></trkpt><trkpt lat="44.8430483" lon="7.9728783"><ele>319.0</ele><time>2026-04-19T09:26:48.919Z</time></trkpt><trkpt lat="44.8429367" lon="7.97289"><ele>319.0</ele><time>2026-04-19T09:26:49.919Z</time></trkpt><trkpt lat="44.8427017" lon="7.97294"><ele>319.0</ele><time>2026-04-19T09:26:51.918Z</time></trkpt><trkpt lat="44.8425883" lon="7.9729617"><ele>320.0</ele><time>2026-04-19T09:26:52.918Z</time></trkpt><trkpt lat="44.8423583" lon="7.9729933"><ele>321.0</ele><time>2026-04-19T09:26:54.919Z</time></trkpt><trkpt lat="44.842125" lon="7.97305"><ele>321.0</ele><time>2026-04-19T09:26:56.918Z</time></trkpt><trkpt lat="44.841995" lon="7.97308"><ele>321.0</ele><time>2026-04-19T09:26:57.918Z</time></trkpt><trkpt lat="44.8418733" lon="7.973115"><ele>321.0</ele><time>2026-04-19T09:26:58.919Z</time></trkpt><trkpt lat="44.8417517" lon="7.9731583"><ele>321.0</ele><time>2026-04-19T09:26:59.918Z</time></trkpt><trkpt lat="44.841625" lon="7.9732283"><ele>322.0</ele><time>2026-04-19T09:27:00.919Z</time></trkpt><trkpt lat="44.8415017" lon="7.9733083"><ele>323.0</ele><time>2026-04-19T09:27:01.918Z</time></trkpt><trkpt lat="44.8412817" lon="7.9735"><ele>324.0</ele><time>2026-04-19T09:27:03.918Z</time></trkpt><trkpt lat="44.8410583" lon="7.9736417"><ele>327.0</ele><time>2026-04-19T09:27:05.919Z</time></trkpt><trkpt lat="44.8409417" lon="7.9736833"><ele>330.0</ele><time>2026-04-19T09:27:06.919Z</time></trkpt><trkpt lat="44.84081" lon="7.973705"><ele>333.0</ele><time>2026-04-19T09:27:07.919Z</time></trkpt><trkpt lat="44.84056" lon="7.97373"><ele>333.0</ele><time>2026-04-19T09:27:09.919Z</time></trkpt><trkpt lat="44.8402967" lon="7.97374"><ele>333.0</ele><time>2026-04-19T09:27:11.918Z</time></trkpt><trkpt lat="44.8401683" lon="7.9737583"><ele>333.0</ele><time>2026-04-19T09:27:12.918Z</time></trkpt><trkpt lat="44.8399033" lon="7.9737683"><ele>335.5</ele><time>2026-04-19T09:27:14.918Z</time></trkpt><trkpt lat="44.8396433" lon="7.9737717"><ele>338.0</ele><time>2026-04-19T09:27:16.918Z</time></trkpt><trkpt lat="44.83939" lon="7.97376"><ele>337.5</ele><time>2026-04-19T09:27:18.918Z</time></trkpt><trkpt lat="44.8392567" lon="7.97376"><ele>337.0</ele><time>2026-04-19T09:27:19.918Z</time></trkpt><trkpt lat="44.83912" lon="7.97375"><ele>336.5</ele><time>2026-04-19T09:27:20.919Z</time></trkpt><trkpt lat="44.8389833" lon="7.9737333"><ele>336.0</ele><time>2026-04-19T09:27:21.918Z</time></trkpt><trkpt lat="44.838705" lon="7.97369"><ele>337.5</ele><time>2026-04-19T09:27:23.918Z</time></trkpt><trkpt lat="44.8384467" lon="7.973645"><ele>339.0</ele><time>2026-04-19T09:27:25.919Z</time></trkpt><trkpt lat="44.8381783" lon="7.9736233"><ele>339.0</ele><time>2026-04-19T09:27:27.919Z</time></trkpt><trkpt lat="44.8380433" lon="7.973645"><ele>339.0</ele><time>2026-04-19T09:27:28.918Z</time></trkpt><trkpt lat="44.8379133" lon="7.973695"><ele>339.0</ele><time>2026-04-19T09:27:29.919Z</time></trkpt><trkpt lat="44.837655" lon="7.9738217"><ele>338.0</ele><time>2026-04-19T09:27:31.918Z</time></trkpt><trkpt lat="44.8374067" lon="7.9739633"><ele>337.0</ele><time>2026-04-19T09:27:33.919Z</time></trkpt><trkpt lat="44.83728" lon="7.97404"><ele>336.0</ele><time>2026-04-19T09:27:34.919Z</time></trkpt><trkpt lat="44.8370417" lon="7.9741967"><ele>336.0</ele><time>2026-04-19T09:27:36.918Z</time></trkpt><trkpt lat="44.8369233" lon="7.9742933"><ele>336.0</ele><time>2026-04-19T09:27:37.919Z</time></trkpt><trkpt lat="44.836815" lon="7.974385"><ele>336.0</ele><time>2026-04-19T09:27:38.919Z</time></trkpt><trkpt lat="44.8365933" lon="7.974595"><ele>340.3333333333333</ele><time>2026-04-19T09:27:40.918Z</time></trkpt><trkpt lat="44.8363683" lon="7.9748067"><ele>344.66666666666663</ele><time>2026-04-19T09:27:42.918Z</time></trkpt><trkpt lat="44.8362617" lon="7.9749083"><ele>349.0</ele><time>2026-04-19T09:27:43.918Z</time></trkpt><trkpt lat="44.83616" lon="7.9750083"><ele>351.5</ele><time>2026-04-19T09:27:44.918Z</time></trkpt><trkpt lat="44.8358633" lon="7.9753"><ele>354.0</ele><time>2026-04-19T09:27:47.918Z</time></trkpt><trkpt lat="44.8357617" lon="7.9754083"><ele>354.0</ele><time>2026-04-19T09:27:48.919Z</time></trkpt><trkpt lat="44.8355433" lon="7.975625"><ele>354.0</ele><time>2026-04-19T09:27:50.918Z</time></trkpt><trkpt lat="44.835435" lon="7.97573"><ele>354.0</ele><time>2026-04-19T09:27:51.918Z</time></trkpt><trkpt lat="44.8353217" lon="7.9758417"><ele>354.6666666666667</ele><time>2026-04-19T09:27:52.918Z</time></trkpt><trkpt lat="44.8351067" lon="7.9760933"><ele>355.33333333333337</ele><time>2026-04-19T09:27:54.919Z</time></trkpt><trkpt lat="44.8350133" lon="7.9762283"><ele>356.0</ele><time>2026-04-19T09:27:55.918Z</time></trkpt><trkpt lat="44.8348433" lon="7.9764767"><ele>351.5</ele><time>2026-04-19T09:27:57.918Z</time></trkpt><trkpt lat="44.8345733" lon="7.9767883"><ele>347.0</ele><time>2026-04-19T09:28:00.919Z</time></trkpt><trkpt lat="44.8344567" lon="7.9768733"><ele>350.5</ele><time>2026-04-19T09:28:01.918Z</time></trkpt><trkpt lat="44.8341933" lon="7.9769833"><ele>354.0</ele><time>2026-04-19T09:28:03.919Z</time></trkpt><trkpt lat="44.8339333" lon="7.9770617"><ele>354.0</ele><time>2026-04-19T09:28:05.918Z</time></trkpt><trkpt lat="44.8338" lon="7.9770867"><ele>354.0</ele><time>2026-04-19T09:28:06.918Z</time></trkpt><trkpt lat="44.8335383" lon="7.9770967"><ele>354.0</ele><time>2026-04-19T09:28:08.919Z</time></trkpt><trkpt lat="44.833305" lon="7.9770767"><ele>355.3333333333333</ele><time>2026-04-19T09:28:10.918Z</time></trkpt><trkpt lat="44.8331967" lon="7.9770667"><ele>356.66666666666663</ele><time>2026-04-19T09:28:11.919Z</time></trkpt><trkpt lat="44.8329833" lon="7.977065"><ele>358.0</ele><time>2026-04-19T09:28:13.918Z</time></trkpt><trkpt lat="44.8327667" lon="7.9770833"><ele>358.0</ele><time>2026-04-19T09:28:15.919Z</time></trkpt><trkpt lat="44.83266" lon="7.9770967"><ele>358.0</ele><time>2026-04-19T09:28:16.919Z</time></trkpt><trkpt lat="44.832425" lon="7.977115"><ele>358.0</ele><time>2026-04-19T09:28:18.919Z</time></trkpt><trkpt lat="44.8321733" lon="7.9770267"><ele>357.3333333333333</ele><time>2026-04-19T09:28:20.919Z</time></trkpt><trkpt lat="44.8319283" lon="7.976915"><ele>356.6666666666667</ele><time>2026-04-19T09:28:22.918Z</time></trkpt><trkpt lat="44.831805" lon="7.9769133"><ele>356.0</ele><time>2026-04-19T09:28:23.919Z</time></trkpt><trkpt lat="44.83169" lon="7.9769517"><ele>355.25</ele><time>2026-04-19T09:28:24.919Z</time></trkpt><trkpt lat="44.8315883" lon="7.9770383"><ele>354.5</ele><time>2026-04-19T09:28:25.918Z</time></trkpt><trkpt lat="44.8315067" lon="7.9771467"><ele>353.75</ele><time>2026-04-19T09:28:26.919Z</time></trkpt><trkpt lat="44.831445" lon="7.977265"><ele>353.0</ele><time>2026-04-19T09:28:27.918Z</time></trkpt><trkpt lat="44.8313167" lon="7.9774783"><ele>352.0</ele><time>2026-04-19T09:28:29.919Z</time></trkpt><trkpt lat="44.8311383" lon="7.977555"><ele>351.0</ele><time>2026-04-19T09:28:31.918Z</time></trkpt><trkpt lat="44.8309317" lon="7.977435"><ele>350.0</ele><time>2026-04-19T09:28:33.919Z</time></trkpt><trkpt lat="44.830825" lon="7.977325"><ele>350.0</ele><time>2026-04-19T09:28:34.919Z</time></trkpt><trkpt lat="44.8305883" lon="7.977125"><ele>350.0</ele><time>2026-04-19T09:28:36.919Z</time></trkpt><trkpt lat="44.830465" lon="7.9770517"><ele>350.0</ele><time>2026-04-19T09:28:37.919Z</time></trkpt><trkpt lat="44.8303383" lon="7.9769967"><ele>350.5</ele><time>2026-04-19T09:28:38.918Z</time></trkpt><trkpt lat="44.8300717" lon="7.9770217"><ele>351.0</ele><time>2026-04-19T09:28:40.919Z</time></trkpt><trkpt lat="44.8298033" lon="7.9771467"><ele>351.0</ele><time>2026-04-19T09:28:42.918Z</time></trkpt><trkpt lat="44.8296667" lon="7.9772033"><ele>351.0</ele><time>2026-04-19T09:28:43.919Z</time></trkpt><trkpt lat="44.8294083" lon="7.9773333"><ele>351.0</ele><time>2026-04-19T09:28:45.919Z</time></trkpt><trkpt lat="44.829215" lon="7.9775833"><ele>351.0</ele><time>2026-04-19T09:28:47.919Z</time></trkpt><trkpt lat="44.8291483" lon="7.977745"><ele>351.0</ele><time>2026-04-19T09:28:48.919Z</time></trkpt><trkpt lat="44.8291033" lon="7.9779217"><ele>351.0</ele><time>2026-04-19T09:28:49.918Z</time></trkpt><trkpt lat="44.8289967" lon="7.978395"><ele>351.0</ele><time>2026-04-19T09:28:52.919Z</time></trkpt><trkpt lat="44.82891" lon="7.9785083"><ele>351.0</ele><time>2026-04-19T09:28:53.918Z</time></trkpt><trkpt lat="44.8287233" lon="7.9786767"><ele>351.0</ele><time>2026-04-19T09:28:55.918Z</time></trkpt><trkpt lat="44.8285817" lon="7.9788783"><ele>351.0</ele><time>2026-04-19T09:28:57.918Z</time></trkpt><trkpt lat="44.8285367" lon="7.9789683"><ele>351.0</ele><time>2026-04-19T09:28:58.918Z</time></trkpt><trkpt lat="44.8284767" lon="7.979065"><ele>351.0</ele><time>2026-04-19T09:29:00.919Z</time></trkpt><trkpt lat="44.8284317" lon="7.97917"><ele>351.0</ele><time>2026-04-19T09:29:03.919Z</time></trkpt><trkpt lat="44.82844" lon="7.97929"><ele>351.0</ele><time>2026-04-19T09:29:05.919Z</time></trkpt><trkpt lat="44.8285067" lon="7.9794467"><ele>350.75</ele><time>2026-04-19T09:29:07.918Z</time></trkpt><trkpt lat="44.828555" lon="7.9795333"><ele>350.5</ele><time>2026-04-19T09:29:08.918Z</time></trkpt><trkpt lat="44.8286583" lon="7.9796983"><ele>350.25</ele><time>2026-04-19T09:29:10.918Z</time></trkpt><trkpt lat="44.8287717" lon="7.979885"><ele>350.0</ele><time>2026-04-19T09:29:12.918Z</time></trkpt><trkpt lat="44.8288217" lon="7.9799883"><ele>348.33333333333337</ele><time>2026-04-19T09:29:13.918Z</time></trkpt><trkpt lat="44.8288833" lon="7.9802333"><ele>346.6666666666667</ele><time>2026-04-19T09:29:15.918Z</time></trkpt><trkpt lat="44.8289333" lon="7.98051"><ele>345.0</ele><time>2026-04-19T09:29:17.918Z</time></trkpt><trkpt lat="44.8290233" lon="7.9807467"><ele>345.0</ele><time>2026-04-19T09:29:19.918Z</time></trkpt><trkpt lat="44.8291133" lon="7.9808467"><ele>345.0</ele><time>2026-04-19T09:29:20.919Z</time></trkpt><trkpt lat="44.82926" lon="7.9809617"><ele>345.0</ele><time>2026-04-19T09:29:22.918Z</time></trkpt><trkpt lat="44.829405" lon="7.98102"><ele>345.0</ele><time>2026-04-19T09:29:24.918Z</time></trkpt><trkpt lat="44.8295183" lon="7.9809933"><ele>344.6666666666667</ele><time>2026-04-19T09:29:26.919Z</time></trkpt><trkpt lat="44.8296667" lon="7.9808817"><ele>344.33333333333337</ele><time>2026-04-19T09:29:29.918Z</time></trkpt><trkpt lat="44.8298417" lon="7.9808667"><ele>344.0</ele><time>2026-04-19T09:29:32.918Z</time></trkpt><trkpt lat="44.8299183" lon="7.9809967"><ele>344.0</ele><time>2026-04-19T09:29:34.918Z</time></trkpt><trkpt lat="44.8300367" lon="7.9810867"><ele>344.0</ele><time>2026-04-19T09:29:36.918Z</time></trkpt><trkpt lat="44.83011" lon="7.9810967"><ele>344.0</ele><time>2026-04-19T09:29:37.918Z</time></trkpt><trkpt lat="44.8302467" lon="7.9809533"><ele>344.0</ele><time>2026-04-19T09:29:39.919Z</time></trkpt><trkpt lat="44.830325" lon="7.9807133"><ele>346.0</ele><time>2026-04-19T09:29:41.919Z</time></trkpt><trkpt lat="44.8303433" lon="7.9805983"><ele>348.0</ele><time>2026-04-19T09:29:42.919Z</time></trkpt><trkpt lat="44.830365" lon="7.9803967"><ele>350.0</ele><time>2026-04-19T09:29:44.918Z</time></trkpt><trkpt lat="44.83035" lon="7.9802933"><ele>352.0</ele><time>2026-04-19T09:29:46.918Z</time></trkpt><trkpt lat="44.8302817" lon="7.9804383"><ele>354.0</ele><time>2026-04-19T09:29:48.918Z</time></trkpt><trkpt lat="44.8302483" lon="7.980515"><ele>354.0</ele><time>2026-04-19T09:29:49.919Z</time></trkpt><trkpt lat="44.8301683" lon="7.9805167"><ele>354.0</ele><time>2026-04-19T09:29:51.919Z</time></trkpt><trkpt lat="44.8301317" lon="7.9803583"><ele>354.0</ele><time>2026-04-19T09:29:53.919Z</time></trkpt><trkpt lat="44.8301167" lon="7.9802667"><ele>354.0</ele><time>2026-04-19T09:29:54.918Z</time></trkpt><trkpt lat="44.8301017" lon="7.9801717"><ele>354.0</ele><time>2026-04-19T09:29:55.918Z</time></trkpt><trkpt lat="44.8300767" lon="7.9798833"><ele>350.2</ele><time>2026-04-19T09:29:58.919Z</time></trkpt><trkpt lat="44.8301167" lon="7.97972"><ele>346.4</ele><time>2026-04-19T09:30:00.919Z</time></trkpt><trkpt lat="44.8301867" lon="7.9795967"><ele>342.6</ele><time>2026-04-19T09:30:02.919Z</time></trkpt><trkpt lat="44.8302167" lon="7.9795183"><ele>338.8</ele><time>2026-04-19T09:30:03.919Z</time></trkpt><trkpt lat="44.8302417" lon="7.9793317"><ele>335.0</ele><time>2026-04-19T09:30:05.918Z</time></trkpt><trkpt lat="44.8303183" lon="7.9792033"><ele>331.75</ele><time>2026-04-19T09:30:07.919Z</time></trkpt><trkpt lat="44.8304917" lon="7.9790717"><ele>328.5</ele><time>2026-04-19T09:30:10.919Z</time></trkpt><trkpt lat="44.83062" lon="7.9790433"><ele>325.25</ele><time>2026-04-19T09:30:12.919Z</time></trkpt><trkpt lat="44.8307" lon="7.9790467"><ele>322.0</ele><time>2026-04-19T09:30:13.919Z</time></trkpt><trkpt lat="44.8308683" lon="7.9790667"><ele>321.5</ele><time>2026-04-19T09:30:15.918Z</time></trkpt><trkpt lat="44.8310283" lon="7.9791017"><ele>321.0</ele><time>2026-04-19T09:30:17.918Z</time></trkpt><trkpt lat="44.8312367" lon="7.9791833"><ele>320.5</ele><time>2026-04-19T09:30:20.918Z</time></trkpt><trkpt lat="44.831305" lon="7.9791967"><ele>320.0</ele><time>2026-04-19T09:30:21.919Z</time></trkpt><trkpt lat="44.83145" lon="7.979205"><ele>321.75</ele><time>2026-04-19T09:30:23.918Z</time></trkpt><trkpt lat="44.8315733" lon="7.979245"><ele>323.5</ele><time>2026-04-19T09:30:25.919Z</time></trkpt><trkpt lat="44.831635" lon="7.9792767"><ele>325.25</ele><time>2026-04-19T09:30:26.918Z</time></trkpt><trkpt lat="44.83178" lon="7.9793483"><ele>327.0</ele><time>2026-04-19T09:30:28.919Z</time></trkpt><trkpt lat="44.8319667" lon="7.9793567"><ele>327.0</ele><time>2026-04-19T09:30:30.918Z</time></trkpt><trkpt lat="44.83207" lon="7.9793517"><ele>327.0</ele><time>2026-04-19T09:30:31.918Z</time></trkpt><trkpt lat="44.8322883" lon="7.9793283"><ele>327.0</ele><time>2026-04-19T09:30:33.919Z</time></trkpt><trkpt lat="44.8324717" lon="7.97934"><ele>322.5</ele><time>2026-04-19T09:30:35.919Z</time></trkpt><trkpt lat="44.8328217" lon="7.9794367"><ele>318.0</ele><time>2026-04-19T09:30:38.918Z</time></trkpt><trkpt lat="44.8330533" lon="7.9795467"><ele>318.0</ele><time>2026-04-19T09:30:40.918Z</time></trkpt><trkpt lat="44.8331633" lon="7.9796017"><ele>318.0</ele><time>2026-04-19T09:30:41.919Z</time></trkpt><trkpt lat="44.8333683" lon="7.9796267"><ele>318.0</ele><time>2026-04-19T09:30:43.918Z</time></trkpt><trkpt lat="44.833565" lon="7.9796367"><ele>316.75</ele><time>2026-04-19T09:30:45.919Z</time></trkpt><trkpt lat="44.8337267" lon="7.9796933"><ele>315.5</ele><time>2026-04-19T09:30:47.919Z</time></trkpt><trkpt lat="44.833805" lon="7.9797133"><ele>314.25</ele><time>2026-04-19T09:30:48.918Z</time></trkpt><trkpt lat="44.8338783" lon="7.9797367"><ele>313.0</ele><time>2026-04-19T09:30:49.919Z</time></trkpt><trkpt lat="44.834005" lon="7.9798233"><ele>313.0</ele><time>2026-04-19T09:30:51.919Z</time></trkpt><trkpt lat="44.8341267" lon="7.9799567"><ele>313.0</ele><time>2026-04-19T09:30:53.918Z</time></trkpt><trkpt lat="44.8343083" lon="7.9800367"><ele>313.0</ele><time>2026-04-19T09:30:55.919Z</time></trkpt><trkpt lat="44.8343967" lon="7.98008"><ele>313.0</ele><time>2026-04-19T09:30:56.919Z</time></trkpt><trkpt lat="44.834495" lon="7.9801117"><ele>314.0</ele><time>2026-04-19T09:30:57.919Z</time></trkpt><trkpt lat="44.83459" lon="7.9801467"><ele>315.0</ele><time>2026-04-19T09:30:58.919Z</time></trkpt><trkpt lat="44.8346983" lon="7.9801767"><ele>316.0</ele><time>2026-04-19T09:30:59.919Z</time></trkpt><trkpt lat="44.8349267" lon="7.9802717"><ele>317.0</ele><time>2026-04-19T09:31:01.919Z</time></trkpt><trkpt lat="44.8351367" lon="7.980345"><ele>317.75</ele><time>2026-04-19T09:31:03.918Z</time></trkpt><trkpt lat="44.8352983" lon="7.9803367"><ele>318.5</ele><time>2026-04-19T09:31:05.919Z</time></trkpt><trkpt lat="44.8353767" lon="7.9802983"><ele>319.25</ele><time>2026-04-19T09:31:06.919Z</time></trkpt><trkpt lat="44.835525" lon="7.98018"><ele>320.0</ele><time>2026-04-19T09:31:08.919Z</time></trkpt><trkpt lat="44.835615" lon="7.9801367"><ele>320.0</ele><time>2026-04-19T09:31:09.918Z</time></trkpt><trkpt lat="44.8357233" lon="7.98011"><ele>320.0</ele><time>2026-04-19T09:31:10.919Z</time></trkpt><trkpt lat="44.8358417" lon="7.98009"><ele>320.0</ele><time>2026-04-19T09:31:11.919Z</time></trkpt><trkpt lat="44.8359717" lon="7.9800567"><ele>320.0</ele><time>2026-04-19T09:31:12.918Z</time></trkpt><trkpt lat="44.8360883" lon="7.98003"><ele>320.33333333333337</ele><time>2026-04-19T09:31:13.919Z</time></trkpt><trkpt lat="44.83631" lon="7.9800017"><ele>320.6666666666667</ele><time>2026-04-19T09:31:15.919Z</time></trkpt><trkpt lat="44.8365167" lon="7.9800217"><ele>321.0</ele><time>2026-04-19T09:31:17.918Z</time></trkpt><trkpt lat="44.8366083" lon="7.9800333"><ele>317.0</ele><time>2026-04-19T09:31:18.919Z</time></trkpt><trkpt lat="44.8367767" lon="7.9800117"><ele>313.0</ele><time>2026-04-19T09:31:20.918Z</time></trkpt><trkpt lat="44.8368567" lon="7.9799983"><ele>309.0</ele><time>2026-04-19T09:31:21.918Z</time></trkpt><trkpt lat="44.8369367" lon="7.9799817"><ele>305.0</ele><time>2026-04-19T09:31:22.919Z</time></trkpt><trkpt lat="44.83709" lon="7.9799867"><ele>304.0</ele><time>2026-04-19T09:31:24.919Z</time></trkpt><trkpt lat="44.8372367" lon="7.9800167"><ele>303.0</ele><time>2026-04-19T09:31:26.919Z</time></trkpt><trkpt lat="44.8373483" lon="7.9799633"><ele>302.0</ele><time>2026-04-19T09:31:28.919Z</time></trkpt><trkpt lat="44.83749" lon="7.979905"><ele>301.0</ele><time>2026-04-19T09:31:30.919Z</time></trkpt><trkpt lat="44.8375783" lon="7.97989"><ele>300.75</ele><time>2026-04-19T09:31:31.918Z</time></trkpt><trkpt lat="44.8376633" lon="7.9798833"><ele>300.5</ele><time>2026-04-19T09:31:32.918Z</time></trkpt><trkpt lat="44.83782" lon="7.9799033"><ele>300.25</ele><time>2026-04-19T09:31:34.918Z</time></trkpt><trkpt lat="44.8379867" lon="7.9799733"><ele>300.0</ele><time>2026-04-19T09:31:36.919Z</time></trkpt><trkpt lat="44.8380667" lon="7.980025"><ele>300.5</ele><time>2026-04-19T09:31:37.918Z</time></trkpt><trkpt lat="44.8381517" lon="7.9800867"><ele>301.0</ele><time>2026-04-19T09:31:38.918Z</time></trkpt><trkpt lat="44.8382267" lon="7.9801517"><ele>301.5</ele><time>2026-04-19T09:31:39.918Z</time></trkpt><trkpt lat="44.8382817" lon="7.980225"><ele>302.0</ele><time>2026-04-19T09:31:40.919Z</time></trkpt><trkpt lat="44.8383317" lon="7.9803"><ele>302.5</ele><time>2026-04-19T09:31:41.918Z</time></trkpt><trkpt lat="44.8383867" lon="7.980385"><ele>303.0</ele><time>2026-04-19T09:31:42.919Z</time></trkpt><trkpt lat="44.838505" lon="7.980545"><ele>299.6666666666667</ele><time>2026-04-19T09:31:44.918Z</time></trkpt><trkpt lat="44.83862" lon="7.9806783"><ele>296.33333333333337</ele><time>2026-04-19T09:31:46.918Z</time></trkpt><trkpt lat="44.83873" lon="7.9807817"><ele>293.0</ele><time>2026-04-19T09:31:48.919Z</time></trkpt><trkpt lat="44.8389033" lon="7.9807967"><ele>293.0</ele><time>2026-04-19T09:31:51.919Z</time></trkpt><trkpt lat="44.8390683" lon="7.9807817"><ele>293.0</ele><time>2026-04-19T09:31:53.918Z</time></trkpt><trkpt lat="44.839165" lon="7.9807617"><ele>293.0</ele><time>2026-04-19T09:31:54.918Z</time></trkpt><trkpt lat="44.839275" lon="7.980725"><ele>293.0</ele><time>2026-04-19T09:31:55.918Z</time></trkpt><trkpt lat="44.83946" lon="7.9806617"><ele>292.5</ele><time>2026-04-19T09:31:57.918Z</time></trkpt><trkpt lat="44.839635" lon="7.9806033"><ele>292.0</ele><time>2026-04-19T09:31:59.918Z</time></trkpt><trkpt lat="44.8397167" lon="7.9805667"><ele>291.5</ele><time>2026-04-19T09:32:00.918Z</time></trkpt><trkpt lat="44.8398017" lon="7.9805383"><ele>291.0</ele><time>2026-04-19T09:32:01.918Z</time></trkpt><trkpt lat="44.8399833" lon="7.980505"><ele>291.0</ele><time>2026-04-19T09:32:03.919Z</time></trkpt><trkpt lat="44.8400867" lon="7.9805033"><ele>291.0</ele><time>2026-04-19T09:32:04.919Z</time></trkpt><trkpt lat="44.840295" lon="7.9805533"><ele>291.0</ele><time>2026-04-19T09:32:06.919Z</time></trkpt><trkpt lat="44.8403967" lon="7.9805867"><ele>291.0</ele><time>2026-04-19T09:32:07.919Z</time></trkpt><trkpt lat="44.8406183" lon="7.9806183"><ele>290.6666666666667</ele><time>2026-04-19T09:32:09.919Z</time></trkpt><trkpt lat="44.840725" lon="7.9805983"><ele>290.33333333333337</ele><time>2026-04-19T09:32:10.918Z</time></trkpt><trkpt lat="44.8409083" lon="7.9804967"><ele>290.0</ele><time>2026-04-19T09:32:12.919Z</time></trkpt><trkpt lat="44.8410767" lon="7.9804383"><ele>288.75</ele><time>2026-04-19T09:32:14.918Z</time></trkpt><trkpt lat="44.84123" lon="7.9803683"><ele>287.5</ele><time>2026-04-19T09:32:16.918Z</time></trkpt><trkpt lat="44.841355" lon="7.9802533"><ele>286.25</ele><time>2026-04-19T09:32:18.919Z</time></trkpt><trkpt lat="44.8414383" lon="7.9801917"><ele>285.0</ele><time>2026-04-19T09:32:20.918Z</time></trkpt><trkpt lat="44.8414983" lon="7.98024"><ele>285.0</ele><time>2026-04-19T09:32:23.918Z</time></trkpt><trkpt lat="44.8414883" lon="7.980495"><ele>285.0</ele><time>2026-04-19T09:32:26.918Z</time></trkpt><trkpt lat="44.8414483" lon="7.98079"><ele>285.0</ele><time>2026-04-19T09:32:28.918Z</time></trkpt><trkpt lat="44.84143" lon="7.980925"><ele>288.6666666666667</ele><time>2026-04-19T09:32:29.919Z</time></trkpt><trkpt lat="44.8414033" lon="7.9810483"><ele>292.33333333333337</ele><time>2026-04-19T09:32:30.918Z</time></trkpt><trkpt lat="44.8413183" lon="7.9812867"><ele>296.0</ele><time>2026-04-19T09:32:32.919Z</time></trkpt><trkpt lat="44.8412083" lon="7.9815167"><ele>296.0</ele><time>2026-04-19T09:32:34.918Z</time></trkpt><trkpt lat="44.8411583" lon="7.98163"><ele>296.0</ele><time>2026-04-19T09:32:35.919Z</time></trkpt><trkpt lat="44.84112" lon="7.9817283"><ele>296.0</ele><time>2026-04-19T09:32:36.919Z</time></trkpt><trkpt lat="44.8410767" lon="7.9819117"><ele>296.0</ele><time>2026-04-19T09:32:38.919Z</time></trkpt><trkpt lat="44.8410383" lon="7.9821333"><ele>299.75</ele><time>2026-04-19T09:32:40.918Z</time></trkpt><trkpt lat="44.841015" lon="7.982255"><ele>303.5</ele><time>2026-04-19T09:32:41.919Z</time></trkpt><trkpt lat="44.8409833" lon="7.982505"><ele>307.25</ele><time>2026-04-19T09:32:43.919Z</time></trkpt><trkpt lat="44.8409683" lon="7.98273"><ele>311.0</ele><time>2026-04-19T09:32:45.919Z</time></trkpt><trkpt lat="44.8409733" lon="7.982885"><ele>313.4</ele><time>2026-04-19T09:32:47.919Z</time></trkpt><trkpt lat="44.8409867" lon="7.98302"><ele>315.8</ele><time>2026-04-19T09:32:50.918Z</time></trkpt><trkpt lat="44.841075" lon="7.9830467"><ele>318.2</ele><time>2026-04-19T09:32:54.918Z</time></trkpt><trkpt lat="44.841145" lon="7.98301"><ele>320.59999999999997</ele><time>2026-04-19T09:32:56.918Z</time></trkpt><trkpt lat="44.84122" lon="7.9829433"><ele>323.0</ele><time>2026-04-19T09:32:58.919Z</time></trkpt><trkpt lat="44.84136" lon="7.982915"><ele>323.0</ele><time>2026-04-19T09:33:01.918Z</time></trkpt><trkpt lat="44.8414333" lon="7.983015"><ele>323.0</ele><time>2026-04-19T09:33:03.918Z</time></trkpt><trkpt lat="44.84142" lon="7.9832017"><ele>323.0</ele><time>2026-04-19T09:33:06.919Z</time></trkpt><trkpt lat="44.8413383" lon="7.98332"><ele>323.0</ele><time>2026-04-19T09:33:08.918Z</time></trkpt><trkpt lat="44.84127" lon="7.983485"><ele>323.4</ele><time>2026-04-19T09:33:10.918Z</time></trkpt><trkpt lat="44.8412483" lon="7.983595"><ele>323.79999999999995</ele><time>2026-04-19T09:33:11.918Z</time></trkpt><trkpt lat="44.8412017" lon="7.9837817"><ele>324.2</ele><time>2026-04-19T09:33:13.918Z</time></trkpt><trkpt lat="44.8411183" lon="7.9838667"><ele>324.6</ele><time>2026-04-19T09:33:15.918Z</time></trkpt><trkpt lat="44.8410533" lon="7.9839717"><ele>325.0</ele><time>2026-04-19T09:33:17.917Z</time></trkpt><trkpt lat="44.840945" lon="7.9841067"><ele>323.25</ele><time>2026-04-19T09:33:20.917Z</time></trkpt><trkpt lat="44.8408583" lon="7.9842267"><ele>321.5</ele><time>2026-04-19T09:33:22.918Z</time></trkpt><trkpt lat="44.84077" lon="7.9844083"><ele>319.75</ele><time>2026-04-19T09:33:25.918Z</time></trkpt><trkpt lat="44.840645" lon="7.9845017"><ele>318.0</ele><time>2026-04-19T09:33:28.917Z</time></trkpt><trkpt lat="44.8405783" lon="7.98452"><ele>318.0</ele><time>2026-04-19T09:33:29.917Z</time></trkpt><trkpt lat="44.8404367" lon="7.9845383"><ele>318.0</ele><time>2026-04-19T09:33:31.917Z</time></trkpt><trkpt lat="44.8403017" lon="7.9845333"><ele>318.0</ele><time>2026-04-19T09:33:33.917Z</time></trkpt><trkpt lat="44.8400283" lon="7.9844917"><ele>321.0</ele><time>2026-04-19T09:33:36.918Z</time></trkpt><trkpt lat="44.83993" lon="7.9844917"><ele>324.0</ele><time>2026-04-19T09:33:37.918Z</time></trkpt><trkpt lat="44.8398367" lon="7.984495"><ele>327.0</ele><time>2026-04-19T09:33:38.918Z</time></trkpt><trkpt lat="44.839655" lon="7.9845067"><ele>330.0</ele><time>2026-04-19T09:33:40.918Z</time></trkpt><trkpt lat="44.8394733" lon="7.9845067"><ele>330.0</ele><time>2026-04-19T09:33:42.917Z</time></trkpt><trkpt lat="44.83938" lon="7.9845033"><ele>330.0</ele><time>2026-04-19T09:33:43.917Z</time></trkpt><trkpt lat="44.8391917" lon="7.9845033"><ele>330.0</ele><time>2026-04-19T09:33:45.918Z</time></trkpt><trkpt lat="44.8390233" lon="7.9845517"><ele>329.8</ele><time>2026-04-19T09:33:47.917Z</time></trkpt><trkpt lat="44.8389567" lon="7.98461"><ele>329.6</ele><time>2026-04-19T09:33:48.918Z</time></trkpt><trkpt lat="44.8388533" lon="7.9847733"><ele>329.4</ele><time>2026-04-19T09:33:50.917Z</time></trkpt><trkpt lat="44.83883" lon="7.98486"><ele>329.2</ele><time>2026-04-19T09:33:51.918Z</time></trkpt><trkpt lat="44.8388483" lon="7.984965"><ele>329.0</ele><time>2026-04-19T09:33:52.918Z</time></trkpt><trkpt lat="44.8388833" lon="7.98515"><ele>329.0</ele><time>2026-04-19T09:33:54.917Z</time></trkpt><trkpt lat="44.8388217" lon="7.9852817"><ele>329.0</ele><time>2026-04-19T09:33:56.917Z</time></trkpt><trkpt lat="44.8387667" lon="7.9853417"><ele>329.0</ele><time>2026-04-19T09:33:57.917Z</time></trkpt><trkpt lat="44.8386583" lon="7.9854433"><ele>329.0</ele><time>2026-04-19T09:33:59.917Z</time></trkpt><trkpt lat="44.83849" lon="7.9854817"><ele>334.25</ele><time>2026-04-19T09:34:02.917Z</time></trkpt><trkpt lat="44.8383283" lon="7.9855833"><ele>339.5</ele><time>2026-04-19T09:34:05.918Z</time></trkpt><trkpt lat="44.8382583" lon="7.9856533"><ele>344.75</ele><time>2026-04-19T09:34:06.918Z</time></trkpt><trkpt lat="44.838145" lon="7.985785"><ele>350.0</ele><time>2026-04-19T09:34:08.918Z</time></trkpt><trkpt lat="44.8380983" lon="7.9859417"><ele>350.0</ele><time>2026-04-19T09:34:10.917Z</time></trkpt><trkpt lat="44.8380783" lon="7.98604"><ele>350.0</ele><time>2026-04-19T09:34:11.918Z</time></trkpt><trkpt lat="44.8380583" lon="7.9861433"><ele>350.0</ele><time>2026-04-19T09:34:12.918Z</time></trkpt><trkpt lat="44.8380017" lon="7.9863617"><ele>350.0</ele><time>2026-04-19T09:34:14.918Z</time></trkpt><trkpt lat="44.8379617" lon="7.9864667"><ele>350.0</ele><time>2026-04-19T09:34:15.917Z</time></trkpt><trkpt lat="44.8379167" lon="7.98655"><ele>350.0</ele><time>2026-04-19T09:34:16.918Z</time></trkpt><trkpt lat="44.8378783" lon="7.9866233"><ele>350.0</ele><time>2026-04-19T09:34:17.917Z</time></trkpt><trkpt lat="44.8378717" lon="7.9867533"><ele>350.0</ele><time>2026-04-19T09:34:19.917Z</time></trkpt><trkpt lat="44.8380083" lon="7.9869133"><ele>350.0</ele><time>2026-04-19T09:34:21.918Z</time></trkpt><trkpt lat="44.8380883" lon="7.986995"><ele>350.0</ele><time>2026-04-19T09:34:22.917Z</time></trkpt><trkpt lat="44.8382483" lon="7.9871183"><ele>348.5</ele><time>2026-04-19T09:34:24.917Z</time></trkpt><trkpt lat="44.83839" lon="7.987175"><ele>347.0</ele><time>2026-04-19T09:34:26.917Z</time></trkpt><trkpt lat="44.838445" lon="7.9872317"><ele>345.5</ele><time>2026-04-19T09:34:27.917Z</time></trkpt><trkpt lat="44.838565" lon="7.9874033"><ele>344.0</ele><time>2026-04-19T09:34:29.917Z</time></trkpt><trkpt lat="44.8386133" lon="7.9874967"><ele>342.33333333333337</ele><time>2026-04-19T09:34:30.918Z</time></trkpt><trkpt lat="44.8386883" lon="7.9876717"><ele>340.6666666666667</ele><time>2026-04-19T09:34:32.917Z</time></trkpt><trkpt lat="44.8388" lon="7.9878333"><ele>339.0</ele><time>2026-04-19T09:34:35.918Z</time></trkpt><trkpt lat="44.8389067" lon="7.9879717"><ele>339.0</ele><time>2026-04-19T09:34:37.917Z</time></trkpt><trkpt lat="44.8389583" lon="7.9880483"><ele>339.0</ele><time>2026-04-19T09:34:38.917Z</time></trkpt><trkpt lat="44.8390217" lon="7.988115"><ele>339.0</ele><time>2026-04-19T09:34:39.918Z</time></trkpt><trkpt lat="44.8391417" lon="7.9882083"><ele>339.0</ele><time>2026-04-19T09:34:41.918Z</time></trkpt><trkpt lat="44.839265" lon="7.9882383"><ele>339.0</ele><time>2026-04-19T09:34:43.917Z</time></trkpt><trkpt lat="44.8393283" lon="7.9882433"><ele>338.25</ele><time>2026-04-19T09:34:44.917Z</time></trkpt><trkpt lat="44.8394367" lon="7.9882217"><ele>337.5</ele><time>2026-04-19T09:34:46.917Z</time></trkpt><trkpt lat="44.8395333" lon="7.9881883"><ele>336.75</ele><time>2026-04-19T09:34:48.918Z</time></trkpt><trkpt lat="44.839705" lon="7.98824"><ele>336.0</ele><time>2026-04-19T09:34:51.917Z</time></trkpt><trkpt lat="44.8398417" lon="7.988295"><ele>334.20000000000005</ele><time>2026-04-19T09:34:53.917Z</time></trkpt><trkpt lat="44.8399867" lon="7.9883517"><ele>332.40000000000003</ele><time>2026-04-19T09:34:55.917Z</time></trkpt><trkpt lat="44.8400667" lon="7.988395"><ele>330.6</ele><time>2026-04-19T09:34:56.917Z</time></trkpt><trkpt lat="44.840145" lon="7.9884367"><ele>328.8</ele><time>2026-04-19T09:34:57.917Z</time></trkpt><trkpt lat="44.8402233" lon="7.988465"><ele>327.0</ele><time>2026-04-19T09:34:58.918Z</time></trkpt><trkpt lat="44.84037" lon="7.9885083"><ele>326.20000000000005</ele><time>2026-04-19T09:35:00.917Z</time></trkpt><trkpt lat="44.8405033" lon="7.988505"><ele>325.4</ele><time>2026-04-19T09:35:02.918Z</time></trkpt><trkpt lat="44.8405717" lon="7.988485"><ele>324.6</ele><time>2026-04-19T09:35:03.917Z</time></trkpt><trkpt lat="44.840695" lon="7.98844"><ele>323.79999999999995</ele><time>2026-04-19T09:35:05.918Z</time></trkpt><trkpt lat="44.8408133" lon="7.98845"><ele>323.0</ele><time>2026-04-19T09:35:07.918Z</time></trkpt><trkpt lat="44.84094" lon="7.988525"><ele>322.25</ele><time>2026-04-19T09:35:09.918Z</time></trkpt><trkpt lat="44.8410983" lon="7.9885567"><ele>321.5</ele><time>2026-04-19T09:35:11.917Z</time></trkpt><trkpt lat="44.8411767" lon="7.9885567"><ele>320.75</ele><time>2026-04-19T09:35:12.917Z</time></trkpt><trkpt lat="44.8413183" lon="7.9885417"><ele>320.0</ele><time>2026-04-19T09:35:14.917Z</time></trkpt><trkpt lat="44.84139" lon="7.988535"><ele>320.0</ele><time>2026-04-19T09:35:15.917Z</time></trkpt><trkpt lat="44.84154" lon="7.9885483"><ele>320.0</ele><time>2026-04-19T09:35:17.918Z</time></trkpt><trkpt lat="44.841685" lon="7.9885633"><ele>320.0</ele><time>2026-04-19T09:35:19.917Z</time></trkpt><trkpt lat="44.841755" lon="7.9886017"><ele>320.0</ele><time>2026-04-19T09:35:20.917Z</time></trkpt><trkpt lat="44.8418283" lon="7.9886417"><ele>320.0</ele><time>2026-04-19T09:35:21.918Z</time></trkpt><trkpt lat="44.8419683" lon="7.9887267"><ele>323.0</ele><time>2026-04-19T09:35:23.917Z</time></trkpt><trkpt lat="44.8421867" lon="7.9887667"><ele>326.0</ele><time>2026-04-19T09:35:26.917Z</time></trkpt><trkpt lat="44.84232" lon="7.9886817"><ele>329.0</ele><time>2026-04-19T09:35:29.917Z</time></trkpt><trkpt lat="44.8424117" lon="7.98863"><ele>329.0</ele><time>2026-04-19T09:35:31.917Z</time></trkpt><trkpt lat="44.8424717" lon="7.9885967"><ele>329.0</ele><time>2026-04-19T09:35:32.917Z</time></trkpt><trkpt lat="44.8426433" lon="7.98853"><ele>329.0</ele><time>2026-04-19T09:35:35.918Z</time></trkpt><trkpt lat="44.842805" lon="7.988415"><ele>329.0</ele><time>2026-04-19T09:35:38.918Z</time></trkpt><trkpt lat="44.8429267" lon="7.9883383"><ele>327.79999999999995</ele><time>2026-04-19T09:35:40.917Z</time></trkpt><trkpt lat="44.8429933" lon="7.9882983"><ele>326.59999999999997</ele><time>2026-04-19T09:35:41.917Z</time></trkpt><trkpt lat="44.843055" lon="7.98826"><ele>325.4</ele><time>2026-04-19T09:35:42.917Z</time></trkpt><trkpt lat="44.8431867" lon="7.9881917"><ele>324.2</ele><time>2026-04-19T09:35:44.918Z</time></trkpt><trkpt lat="44.843345" lon="7.9882183"><ele>323.0</ele><time>2026-04-19T09:35:46.917Z</time></trkpt><trkpt lat="44.843415" lon="7.9882633"><ele>322.0</ele><time>2026-04-19T09:35:47.918Z</time></trkpt><trkpt lat="44.8434717" lon="7.988335"><ele>321.0</ele><time>2026-04-19T09:35:48.918Z</time></trkpt><trkpt lat="44.8435417" lon="7.988505"><ele>320.0</ele><time>2026-04-19T09:35:50.917Z</time></trkpt><trkpt lat="44.843555" lon="7.988695"><ele>319.0</ele><time>2026-04-19T09:35:52.917Z</time></trkpt><trkpt lat="44.8435467" lon="7.9887983"><ele>318.0</ele><time>2026-04-19T09:35:53.917Z</time></trkpt><trkpt lat="44.8435217" lon="7.9889983"><ele>319.0</ele><time>2026-04-19T09:35:55.918Z</time></trkpt><trkpt lat="44.8434383" lon="7.9891733"><ele>320.0</ele><time>2026-04-19T09:35:57.917Z</time></trkpt><trkpt lat="44.8433967" lon="7.9892567"><ele>321.0</ele><time>2026-04-19T09:35:58.917Z</time></trkpt><trkpt lat="44.8433517" lon="7.9893517"><ele>322.0</ele><time>2026-04-19T09:35:59.917Z</time></trkpt><trkpt lat="44.84332" lon="7.9894467"><ele>323.0</ele><time>2026-04-19T09:36:00.918Z</time></trkpt><trkpt lat="44.8432717" lon="7.9896717"><ele>320.4</ele><time>2026-04-19T09:36:02.917Z</time></trkpt><trkpt lat="44.8432467" lon="7.989895"><ele>317.79999999999995</ele><time>2026-04-19T09:36:04.917Z</time></trkpt><trkpt lat="44.8432183" lon="7.9899967"><ele>315.2</ele><time>2026-04-19T09:36:05.918Z</time></trkpt><trkpt lat="44.8431967" lon="7.9900933"><ele>312.6</ele><time>2026-04-19T09:36:06.918Z</time></trkpt><trkpt lat="44.84316" lon="7.9902633"><ele>310.0</ele><time>2026-04-19T09:36:08.917Z</time></trkpt><trkpt lat="44.8431817" lon="7.990395"><ele>310.0</ele><time>2026-04-19T09:36:11.917Z</time></trkpt><trkpt lat="44.8433833" lon="7.9902467"><ele>310.0</ele><time>2026-04-19T09:36:14.918Z</time></trkpt><trkpt lat="44.843475" lon="7.990175"><ele>310.0</ele><time>2026-04-19T09:36:15.918Z</time></trkpt><trkpt lat="44.84355" lon="7.9900967"><ele>310.0</ele><time>2026-04-19T09:36:16.917Z</time></trkpt><trkpt lat="44.8436117" lon="7.9900017"><ele>307.0</ele><time>2026-04-19T09:36:17.918Z</time></trkpt><trkpt lat="44.8437067" lon="7.98982"><ele>304.0</ele><time>2026-04-19T09:36:19.917Z</time></trkpt><trkpt lat="44.84376" lon="7.98974"><ele>301.0</ele><time>2026-04-19T09:36:20.918Z</time></trkpt><trkpt lat="44.843865" lon="7.9896067"><ele>298.0</ele><time>2026-04-19T09:36:22.917Z</time></trkpt><trkpt lat="44.8439183" lon="7.9895333"><ele>298.0</ele><time>2026-04-19T09:36:23.918Z</time></trkpt><trkpt lat="44.8439833" lon="7.9894817"><ele>298.0</ele><time>2026-04-19T09:36:24.917Z</time></trkpt><trkpt lat="44.84419" lon="7.9893267"><ele>298.0</ele><time>2026-04-19T09:36:27.918Z</time></trkpt><trkpt lat="44.844365" lon="7.9892983"><ele>296.0</ele><time>2026-04-19T09:36:29.918Z</time></trkpt><trkpt lat="44.8444683" lon="7.989305"><ele>294.0</ele><time>2026-04-19T09:36:30.918Z</time></trkpt><trkpt lat="44.8446617" lon="7.9893167"><ele>292.0</ele><time>2026-04-19T09:36:32.917Z</time></trkpt><trkpt lat="44.84489" lon="7.9892983"><ele>294.0</ele><time>2026-04-19T09:36:34.917Z</time></trkpt><trkpt lat="44.8451517" lon="7.9892567"><ele>296.0</ele><time>2026-04-19T09:36:36.918Z</time></trkpt><trkpt lat="44.8452683" lon="7.9892333"><ele>298.0</ele><time>2026-04-19T09:36:37.917Z</time></trkpt><trkpt lat="44.845375" lon="7.9891983"><ele>293.3333333333333</ele><time>2026-04-19T09:36:38.917Z</time></trkpt><trkpt lat="44.845585" lon="7.989095"><ele>288.6666666666667</ele><time>2026-04-19T09:36:40.917Z</time></trkpt><trkpt lat="44.8456783" lon="7.9890233"><ele>284.0</ele><time>2026-04-19T09:36:41.917Z</time></trkpt><trkpt lat="44.8458883" lon="7.9889017"><ele>282.33333333333337</ele><time>2026-04-19T09:36:43.918Z</time></trkpt><trkpt lat="44.8460567" lon="7.98875"><ele>280.6666666666667</ele><time>2026-04-19T09:36:45.918Z</time></trkpt><trkpt lat="44.846145" lon="7.9886633"><ele>279.0</ele><time>2026-04-19T09:36:46.918Z</time></trkpt><trkpt lat="44.846295" lon="7.9885033"><ele>279.0</ele><time>2026-04-19T09:36:48.918Z</time></trkpt><trkpt lat="44.8464167" lon="7.988375"><ele>279.0</ele><time>2026-04-19T09:36:50.918Z</time></trkpt><trkpt lat="44.8464833" lon="7.98833"><ele>279.0</ele><time>2026-04-19T09:36:52.917Z</time></trkpt><trkpt lat="44.84653" lon="7.98843"><ele>279.0</ele><time>2026-04-19T09:36:55.918Z</time></trkpt><trkpt lat="44.846585" lon="7.9886017"><ele>279.0</ele><time>2026-04-19T09:36:57.917Z</time></trkpt><trkpt lat="44.84668" lon="7.9888483"><ele>279.0</ele><time>2026-04-19T09:36:59.917Z</time></trkpt><trkpt lat="44.8467133" lon="7.988975"><ele>279.0</ele><time>2026-04-19T09:37:00.918Z</time></trkpt><trkpt lat="44.8468117" lon="7.9892483"><ele>279.0</ele><time>2026-04-19T09:37:02.917Z</time></trkpt><trkpt lat="44.84689" lon="7.9895"><ele>284.5</ele><time>2026-04-19T09:37:04.917Z</time></trkpt><trkpt lat="44.8469633" lon="7.9897083"><ele>290.0</ele><time>2026-04-19T09:37:06.918Z</time></trkpt><trkpt lat="44.8470117" lon="7.9898033"><ele>295.5</ele><time>2026-04-19T09:37:07.918Z</time></trkpt><trkpt lat="44.8470717" lon="7.98987"><ele>301.0</ele><time>2026-04-19T09:37:08.918Z</time></trkpt><trkpt lat="44.84716" lon="7.9896733"><ele>301.0</ele><time>2026-04-19T09:37:11.917Z</time></trkpt><trkpt lat="44.847145" lon="7.989405"><ele>301.0</ele><time>2026-04-19T09:37:13.917Z</time></trkpt><trkpt lat="44.84714" lon="7.9892717"><ele>301.0</ele><time>2026-04-19T09:37:14.918Z</time></trkpt><trkpt lat="44.8471533" lon="7.989165"><ele>301.0</ele><time>2026-04-19T09:37:15.918Z</time></trkpt><trkpt lat="44.84719" lon="7.9890883"><ele>301.0</ele><time>2026-04-19T09:37:16.918Z</time></trkpt><trkpt lat="44.8472433" lon="7.98904"><ele>301.0</ele><time>2026-04-19T09:37:17.917Z</time></trkpt><trkpt lat="44.8473583" lon="7.9890417"><ele>301.0</ele><time>2026-04-19T09:37:19.918Z</time></trkpt><trkpt lat="44.8474933" lon="7.98917"><ele>301.0</ele><time>2026-04-19T09:37:22.918Z</time></trkpt><trkpt lat="44.8474667" lon="7.989295"><ele>301.0</ele><time>2026-04-19T09:37:24.917Z</time></trkpt><trkpt lat="44.8474083" lon="7.9893933"><ele>301.0</ele><time>2026-04-19T09:37:25.917Z</time></trkpt><trkpt lat="44.8473883" lon="7.9895"><ele>301.0</ele><time>2026-04-19T09:37:26.918Z</time></trkpt><trkpt lat="44.8474" lon="7.9897483"><ele>301.0</ele><time>2026-04-19T09:37:28.918Z</time></trkpt><trkpt lat="44.8474717" lon="7.98992"><ele>301.0</ele><time>2026-04-19T09:37:30.918Z</time></trkpt><trkpt lat="44.8476" lon="7.9897833"><ele>304.75</ele><time>2026-04-19T09:37:33.918Z</time></trkpt><trkpt lat="44.8476983" lon="7.9896233"><ele>308.5</ele><time>2026-04-19T09:37:35.917Z</time></trkpt><trkpt lat="44.8477517" lon="7.9895633"><ele>312.25</ele><time>2026-04-19T09:37:36.917Z</time></trkpt><trkpt lat="44.8478233" lon="7.9895017"><ele>316.0</ele><time>2026-04-19T09:37:37.917Z</time></trkpt><trkpt lat="44.8479533" lon="7.9893767"><ele>316.0</ele><time>2026-04-19T09:37:39.917Z</time></trkpt><trkpt lat="44.84805" lon="7.9892833"><ele>316.0</ele><time>2026-04-19T09:37:41.917Z</time></trkpt><trkpt lat="44.848115" lon="7.9893117"><ele>316.0</ele><time>2026-04-19T09:37:43.917Z</time></trkpt><trkpt lat="44.8480567" lon="7.9894717"><ele>316.0</ele><time>2026-04-19T09:37:46.918Z</time></trkpt><trkpt lat="44.84797" lon="7.9896433"><ele>316.0</ele><time>2026-04-19T09:37:48.917Z</time></trkpt><trkpt lat="44.8479683" lon="7.98987"><ele>316.0</ele><time>2026-04-19T09:37:50.918Z</time></trkpt><trkpt lat="44.84799" lon="7.989995"><ele>316.0</ele><time>2026-04-19T09:37:51.917Z</time></trkpt><trkpt lat="44.848045" lon="7.9902333"><ele>316.0</ele><time>2026-04-19T09:37:53.917Z</time></trkpt><trkpt lat="44.8480667" lon="7.9904517"><ele>318.0</ele><time>2026-04-19T09:37:55.917Z</time></trkpt><trkpt lat="44.8480733" lon="7.9905433"><ele>320.0</ele><time>2026-04-19T09:37:56.918Z</time></trkpt><trkpt lat="44.84808" lon="7.9906367"><ele>322.0</ele><time>2026-04-19T09:37:57.917Z</time></trkpt><trkpt lat="44.8480917" lon="7.9907383"><ele>324.0</ele><time>2026-04-19T09:37:58.917Z</time></trkpt><trkpt lat="44.8481217" lon="7.9909617"><ele>326.0</ele><time>2026-04-19T09:38:00.918Z</time></trkpt><trkpt lat="44.8481667" lon="7.9912783"><ele>326.0</ele><time>2026-04-19T09:38:03.918Z</time></trkpt><trkpt lat="44.848175" lon="7.991375"><ele>326.0</ele><time>2026-04-19T09:38:04.918Z</time></trkpt><trkpt lat="44.8481767" lon="7.9915633"><ele>326.0</ele><time>2026-04-19T09:38:06.918Z</time></trkpt><trkpt lat="44.8480967" lon="7.9918217"><ele>326.0</ele><time>2026-04-19T09:38:09.917Z</time></trkpt><trkpt lat="44.8480383" lon="7.991975"><ele>323.33333333333337</ele><time>2026-04-19T09:38:11.917Z</time></trkpt><trkpt lat="44.8480067" lon="7.9921583"><ele>320.6666666666667</ele><time>2026-04-19T09:38:13.917Z</time></trkpt><trkpt lat="44.8480367" lon="7.99243"><ele>318.0</ele><time>2026-04-19T09:38:16.918Z</time></trkpt><trkpt lat="44.8480983" lon="7.9926483"><ele>317.25</ele><time>2026-04-19T09:38:18.917Z</time></trkpt><trkpt lat="44.8481417" lon="7.9927517"><ele>316.5</ele><time>2026-04-19T09:38:19.917Z</time></trkpt><trkpt lat="44.84819" lon="7.9929017"><ele>315.75</ele><time>2026-04-19T09:38:21.918Z</time></trkpt><trkpt lat="44.8482433" lon="7.9930567"><ele>315.0</ele><time>2026-04-19T09:38:26.917Z</time></trkpt><trkpt lat="44.8482817" lon="7.9928867"><ele>315.0</ele><time>2026-04-19T09:38:32.917Z</time></trkpt><trkpt lat="44.84831" lon="7.9927467"><ele>315.0</ele><time>2026-04-19T09:38:34.918Z</time></trkpt><trkpt lat="44.848295" lon="7.9925917"><ele>315.0</ele><time>2026-04-19T09:38:36.918Z</time></trkpt><trkpt lat="44.8482683" lon="7.992465"><ele>315.0</ele><time>2026-04-19T09:38:38.918Z</time></trkpt><trkpt lat="44.8482833" lon="7.9923483"><ele>315.0</ele><time>2026-04-19T09:38:40.917Z</time></trkpt><trkpt lat="44.848355" lon="7.99225"><ele>315.75</ele><time>2026-04-19T09:38:43.918Z</time></trkpt><trkpt lat="44.8484433" lon="7.9921783"><ele>316.5</ele><time>2026-04-19T09:38:45.917Z</time></trkpt><trkpt lat="44.8485233" lon="7.9921083"><ele>317.25</ele><time>2026-04-19T09:38:48.918Z</time></trkpt><trkpt lat="44.8486133" lon="7.99212"><ele>318.0</ele><time>2026-04-19T09:38:50.917Z</time></trkpt><trkpt lat="44.84879" lon="7.9921617"><ele>313.1666666666667</ele><time>2026-04-19T09:38:53.917Z</time></trkpt><trkpt lat="44.8488633" lon="7.99216"><ele>308.3333333333333</ele><time>2026-04-19T09:38:55.917Z</time></trkpt><trkpt lat="44.848975" lon="7.992185"><ele>303.5</ele><time>2026-04-19T09:38:59.918Z</time></trkpt><trkpt lat="44.8490317" lon="7.9922267"><ele>298.66666666666663</ele><time>2026-04-19T09:39:01.917Z</time></trkpt><trkpt lat="44.8490517" lon="7.9923417"><ele>293.8333333333333</ele><time>2026-04-19T09:39:04.918Z</time></trkpt><trkpt lat="44.8490967" lon="7.9924283"><ele>289.0</ele><time>2026-04-19T09:39:06.918Z</time></trkpt><trkpt lat="44.8491567" lon="7.99249"><ele>289.2</ele><time>2026-04-19T09:39:08.918Z</time></trkpt><trkpt lat="44.8492333" lon="7.9925383"><ele>289.4</ele><time>2026-04-19T09:39:11.917Z</time></trkpt><trkpt lat="44.8493133" lon="7.9926183"><ele>289.6</ele><time>2026-04-19T09:39:15.918Z</time></trkpt><trkpt lat="44.849425" lon="7.99269"><ele>289.8</ele><time>2026-04-19T09:39:18.917Z</time></trkpt><trkpt lat="44.8495017" lon="7.9927167"><ele>290.0</ele><time>2026-04-19T09:39:20.917Z</time></trkpt><trkpt lat="44.8495967" lon="7.99278"><ele>290.0</ele><time>2026-04-19T09:39:23.918Z</time></trkpt><trkpt lat="44.84968" lon="7.9927717"><ele>290.0</ele><time>2026-04-19T09:39:25.917Z</time></trkpt><trkpt lat="44.8497633" lon="7.9926983"><ele>290.0</ele><time>2026-04-19T09:39:27.917Z</time></trkpt><trkpt lat="44.84987" lon="7.99267"><ele>290.0</ele><time>2026-04-19T09:39:29.918Z</time></trkpt><trkpt lat="44.849995" lon="7.9926917"><ele>290.0</ele><time>2026-04-19T09:39:31.917Z</time></trkpt><trkpt lat="44.8501517" lon="7.99273"><ele>287.75</ele><time>2026-04-19T09:39:33.917Z</time></trkpt><trkpt lat="44.8503217" lon="7.9927933"><ele>285.5</ele><time>2026-04-19T09:39:35.917Z</time></trkpt><trkpt lat="44.8504" lon="7.9928283"><ele>283.25</ele><time>2026-04-19T09:39:36.918Z</time></trkpt><trkpt lat="44.8505467" lon="7.9929133"><ele>281.0</ele><time>2026-04-19T09:39:38.918Z</time></trkpt><trkpt lat="44.8506767" lon="7.9929883"><ele>281.0</ele><time>2026-04-19T09:39:40.918Z</time></trkpt><trkpt lat="44.8507933" lon="7.9930917"><ele>281.0</ele><time>2026-04-19T09:39:42.917Z</time></trkpt><trkpt lat="44.8508717" lon="7.993125"><ele>281.0</ele><time>2026-04-19T09:39:43.918Z</time></trkpt><trkpt lat="44.850965" lon="7.9931483"><ele>281.0</ele><time>2026-04-19T09:39:44.918Z</time></trkpt><trkpt lat="44.8511367" lon="7.9931833"><ele>279.25</ele><time>2026-04-19T09:39:46.917Z</time></trkpt><trkpt lat="44.851225" lon="7.9931867"><ele>277.5</ele><time>2026-04-19T09:39:47.918Z</time></trkpt><trkpt lat="44.8513883" lon="7.9932167"><ele>275.75</ele><time>2026-04-19T09:39:49.918Z</time></trkpt><trkpt lat="44.85155" lon="7.9932783"><ele>274.0</ele><time>2026-04-19T09:39:51.918Z</time></trkpt><trkpt lat="44.8516967" lon="7.9933633"><ele>274.0</ele><time>2026-04-19T09:39:53.917Z</time></trkpt><trkpt lat="44.8517617" lon="7.9934"><ele>274.0</ele><time>2026-04-19T09:39:54.918Z</time></trkpt><trkpt lat="44.851885" lon="7.99353"><ele>274.0</ele><time>2026-04-19T09:39:56.917Z</time></trkpt><trkpt lat="44.85192" lon="7.9936317"><ele>274.0</ele><time>2026-04-19T09:39:57.917Z</time></trkpt><trkpt lat="44.851955" lon="7.9937333"><ele>274.0</ele><time>2026-04-19T09:39:58.918Z</time></trkpt><trkpt lat="44.8520067" lon="7.9938983"><ele>270.75</ele><time>2026-04-19T09:40:00.917Z</time></trkpt><trkpt lat="44.8520933" lon="7.9940133"><ele>267.5</ele><time>2026-04-19T09:40:02.917Z</time></trkpt><trkpt lat="44.8522083" lon="7.9940917"><ele>264.25</ele><time>2026-04-19T09:40:04.918Z</time></trkpt><trkpt lat="44.8522817" lon="7.994115"><ele>261.0</ele><time>2026-04-19T09:40:05.918Z</time></trkpt><trkpt lat="44.852425" lon="7.99416"><ele>261.2</ele><time>2026-04-19T09:40:07.918Z</time></trkpt><trkpt lat="44.8524883" lon="7.9941933"><ele>261.40000000000003</ele><time>2026-04-19T09:40:08.917Z</time></trkpt><trkpt lat="44.85256" lon="7.9942267"><ele>261.6</ele><time>2026-04-19T09:40:09.918Z</time></trkpt><trkpt lat="44.8526333" lon="7.9942783"><ele>261.8</ele><time>2026-04-19T09:40:10.917Z</time></trkpt><trkpt lat="44.8527033" lon="7.9943467"><ele>262.0</ele><time>2026-04-19T09:40:11.918Z</time></trkpt><trkpt lat="44.85282" lon="7.9944967"><ele>262.0</ele><time>2026-04-19T09:40:13.918Z</time></trkpt><trkpt lat="44.8528717" lon="7.9945633"><ele>262.0</ele><time>2026-04-19T09:40:14.917Z</time></trkpt><trkpt lat="44.8529233" lon="7.994615"><ele>262.0</ele><time>2026-04-19T09:40:15.918Z</time></trkpt><trkpt lat="44.853045" lon="7.9947383"><ele>262.0</ele><time>2026-04-19T09:40:18.917Z</time></trkpt><trkpt lat="44.8531417" lon="7.9948183"><ele>262.0</ele><time>2026-04-19T09:40:20.918Z</time></trkpt><trkpt lat="44.8532067" lon="7.9948833"><ele>263.25</ele><time>2026-04-19T09:40:21.917Z</time></trkpt><trkpt lat="44.8533383" lon="7.9950533"><ele>264.5</ele><time>2026-04-19T09:40:23.917Z</time></trkpt><trkpt lat="44.853405" lon="7.9952533"><ele>265.75</ele><time>2026-04-19T09:40:25.917Z</time></trkpt><trkpt lat="44.853415" lon="7.9953717"><ele>267.0</ele><time>2026-04-19T09:40:26.918Z</time></trkpt><trkpt lat="44.8534417" lon="7.99559"><ele>266.25</ele><time>2026-04-19T09:40:28.917Z</time></trkpt><trkpt lat="44.85349" lon="7.995765"><ele>265.5</ele><time>2026-04-19T09:40:30.917Z</time></trkpt><trkpt lat="44.85357" lon="7.995955"><ele>264.75</ele><time>2026-04-19T09:40:32.917Z</time></trkpt><trkpt lat="44.853615" lon="7.99604"><ele>264.0</ele><time>2026-04-19T09:40:33.917Z</time></trkpt><trkpt lat="44.8537133" lon="7.9962733"><ele>262.0</ele><time>2026-04-19T09:40:36.917Z</time></trkpt><trkpt lat="44.8537717" lon="7.9964483"><ele>260.0</ele><time>2026-04-19T09:40:38.918Z</time></trkpt><trkpt lat="44.8538133" lon="7.9966467"><ele>258.0</ele><time>2026-04-19T09:40:40.917Z</time></trkpt><trkpt lat="44.85383" lon="7.9967567"><ele>256.0</ele><time>2026-04-19T09:40:41.918Z</time></trkpt><trkpt lat="44.8538883" lon="7.996995"><ele>255.5</ele><time>2026-04-19T09:40:43.917Z</time></trkpt><trkpt lat="44.8539183" lon="7.9971933"><ele>255.0</ele><time>2026-04-19T09:40:46.917Z</time></trkpt><trkpt lat="44.8538967" lon="7.99732"><ele>254.5</ele><time>2026-04-19T09:40:51.918Z</time></trkpt><trkpt lat="44.8537667" lon="7.9973183"><ele>254.0</ele><time>2026-04-19T09:40:54.917Z</time></trkpt><trkpt lat="44.853665" lon="7.99735"><ele>254.0</ele><time>2026-04-19T09:40:56.917Z</time></trkpt><trkpt lat="44.8535617" lon="7.9973917"><ele>254.0</ele><time>2026-04-19T09:40:57.917Z</time></trkpt><trkpt lat="44.8534" lon="7.997485"><ele>254.0</ele><time>2026-04-19T09:40:59.917Z</time></trkpt><trkpt lat="44.85324" lon="7.997595"><ele>259.75</ele><time>2026-04-19T09:41:01.918Z</time></trkpt><trkpt lat="44.8531483" lon="7.9976317"><ele>265.5</ele><time>2026-04-19T09:41:02.918Z</time></trkpt><trkpt lat="44.852985" lon="7.9976783"><ele>271.25</ele><time>2026-04-19T09:41:04.917Z</time></trkpt><trkpt lat="44.8528767" lon="7.9977233"><ele>277.0</ele><time>2026-04-19T09:41:06.918Z</time></trkpt><trkpt lat="44.8528083" lon="7.99784"><ele>277.0</ele><time>2026-04-19T09:41:08.918Z</time></trkpt><trkpt lat="44.85274" lon="7.99799"><ele>277.0</ele><time>2026-04-19T09:41:10.918Z</time></trkpt><trkpt lat="44.8526667" lon="7.9981467"><ele>277.0</ele><time>2026-04-19T09:41:12.917Z</time></trkpt><trkpt lat="44.8526333" lon="7.998235"><ele>277.0</ele><time>2026-04-19T09:41:13.918Z</time></trkpt><trkpt lat="44.8526" lon="7.9983783"><ele>277.0</ele><time>2026-04-19T09:41:15.917Z</time></trkpt><trkpt lat="44.852595" lon="7.998545"><ele>279.25</ele><time>2026-04-19T09:41:17.918Z</time></trkpt><trkpt lat="44.852595" lon="7.9986433"><ele>281.5</ele><time>2026-04-19T09:41:18.918Z</time></trkpt><trkpt lat="44.8525783" lon="7.9988583"><ele>283.75</ele><time>2026-04-19T09:41:20.917Z</time></trkpt><trkpt lat="44.852545" lon="7.9990817"><ele>286.0</ele><time>2026-04-19T09:41:22.918Z</time></trkpt><trkpt lat="44.85253" lon="7.9992517"><ele>287.5</ele><time>2026-04-19T09:41:24.917Z</time></trkpt><trkpt lat="44.8525083" lon="7.9995517"><ele>289.0</ele><time>2026-04-19T09:41:27.917Z</time></trkpt><trkpt lat="44.852495" lon="7.9997317"><ele>290.5</ele><time>2026-04-19T09:41:29.918Z</time></trkpt><trkpt lat="44.8525017" lon="7.99982"><ele>292.0</ele><time>2026-04-19T09:41:30.918Z</time></trkpt><trkpt lat="44.8525083" lon="7.9999617"><ele>292.0</ele><time>2026-04-19T09:41:32.917Z</time></trkpt><trkpt lat="44.8524283" lon="7.9999433"><ele>292.0</ele><time>2026-04-19T09:41:35.917Z</time></trkpt><trkpt lat="44.8522783" lon="7.9997867"><ele>292.0</ele><time>2026-04-19T09:41:38.918Z</time></trkpt><trkpt lat="44.8522283" lon="7.9997167"><ele>292.0</ele><time>2026-04-19T09:41:39.918Z</time></trkpt><trkpt lat="44.8521" lon="7.9995533"><ele>292.0</ele><time>2026-04-19T09:41:41.917Z</time></trkpt><trkpt lat="44.8519917" lon="7.9994267"><ele>292.0</ele><time>2026-04-19T09:41:43.917Z</time></trkpt><trkpt lat="44.851935" lon="7.9993583"><ele>292.0</ele><time>2026-04-19T09:41:44.917Z</time></trkpt><trkpt lat="44.8518267" lon="7.9992117"><ele>292.0</ele><time>2026-04-19T09:41:46.918Z</time></trkpt><trkpt lat="44.8517483" lon="7.9990567"><ele>290.75</ele><time>2026-04-19T09:41:48.918Z</time></trkpt><trkpt lat="44.8516817" lon="7.9988517"><ele>289.5</ele><time>2026-04-19T09:41:51.917Z</time></trkpt><trkpt lat="44.851605" lon="7.99878"><ele>288.25</ele><time>2026-04-19T09:41:54.917Z</time></trkpt><trkpt lat="44.8514933" lon="7.9987833"><ele>287.0</ele><time>2026-04-19T09:41:56.918Z</time></trkpt><trkpt lat="44.8513733" lon="7.9987533"><ele>287.0</ele><time>2026-04-19T09:41:58.918Z</time></trkpt><trkpt lat="44.8512617" lon="7.9986983"><ele>287.0</ele><time>2026-04-19T09:42:00.918Z</time></trkpt><trkpt lat="44.8511167" lon="7.9986167"><ele>287.0</ele><time>2026-04-19T09:42:03.918Z</time></trkpt><trkpt lat="44.8510167" lon="7.9986117"><ele>287.0</ele><time>2026-04-19T09:42:05.918Z</time></trkpt><trkpt lat="44.8509517" lon="7.9986383"><ele>287.0</ele><time>2026-04-19T09:42:07.917Z</time></trkpt><trkpt lat="44.8508467" lon="7.998685"><ele>287.25</ele><time>2026-04-19T09:42:10.918Z</time></trkpt><trkpt lat="44.850755" lon="7.9987583"><ele>287.5</ele><time>2026-04-19T09:42:12.917Z</time></trkpt><trkpt lat="44.8506567" lon="7.998975"><ele>287.75</ele><time>2026-04-19T09:42:14.918Z</time></trkpt><trkpt lat="44.8506183" lon="7.9991217"><ele>288.0</ele><time>2026-04-19T09:42:15.917Z</time></trkpt><trkpt lat="44.8505667" lon="7.99946"><ele>284.0</ele><time>2026-04-19T09:42:17.918Z</time></trkpt><trkpt lat="44.85053" lon="7.9997467"><ele>280.0</ele><time>2026-04-19T09:42:19.917Z</time></trkpt><trkpt lat="44.8505233" lon="7.99988"><ele>276.0</ele><time>2026-04-19T09:42:20.917Z</time></trkpt><trkpt lat="44.850535" lon="8.0001583"><ele>276.0</ele><time>2026-04-19T09:42:22.917Z</time></trkpt><trkpt lat="44.8505317" lon="8.0003983"><ele>276.0</ele><time>2026-04-19T09:42:24.917Z</time></trkpt><trkpt lat="44.8505317" lon="8.0005"><ele>276.0</ele><time>2026-04-19T09:42:25.917Z</time></trkpt><trkpt lat="44.850525" lon="8.000645"><ele>276.0</ele><time>2026-04-19T09:42:27.918Z</time></trkpt><trkpt lat="44.8505367" lon="8.000925"><ele>275.0</ele><time>2026-04-19T09:42:30.917Z</time></trkpt><trkpt lat="44.8505433" lon="8.0010417"><ele>274.0</ele><time>2026-04-19T09:42:31.917Z</time></trkpt><trkpt lat="44.85052" lon="8.0012467"><ele>273.0</ele><time>2026-04-19T09:42:33.918Z</time></trkpt><trkpt lat="44.8504217" lon="8.0013867"><ele>272.0</ele><time>2026-04-19T09:42:35.917Z</time></trkpt><trkpt lat="44.8502783" lon="8.0012433"><ele>272.0</ele><time>2026-04-19T09:42:38.918Z</time></trkpt><trkpt lat="44.8502033" lon="8.0010933"><ele>272.0</ele><time>2026-04-19T09:42:40.917Z</time></trkpt><trkpt lat="44.8501017" lon="8.0009867"><ele>272.0</ele><time>2026-04-19T09:42:42.918Z</time></trkpt><trkpt lat="44.850035" lon="8.0009517"><ele>272.0</ele><time>2026-04-19T09:42:43.918Z</time></trkpt><trkpt lat="44.849845" lon="8.0009467"><ele>273.33333333333337</ele><time>2026-04-19T09:42:45.918Z</time></trkpt><trkpt lat="44.849655" lon="8.0009717"><ele>274.6666666666667</ele><time>2026-04-19T09:42:47.917Z</time></trkpt><trkpt lat="44.8495683" lon="8.0009733"><ele>276.0</ele><time>2026-04-19T09:42:48.918Z</time></trkpt><trkpt lat="44.8493767" lon="8.00096"><ele>270.6666666666667</ele><time>2026-04-19T09:42:50.917Z</time></trkpt><trkpt lat="44.84918" lon="8.0009433"><ele>265.33333333333337</ele><time>2026-04-19T09:42:52.918Z</time></trkpt><trkpt lat="44.849085" lon="8.0009617"><ele>260.0</ele><time>2026-04-19T09:42:53.918Z</time></trkpt><trkpt lat="44.8489483" lon="8.0010717"><ele>260.0</ele><time>2026-04-19T09:42:55.917Z</time></trkpt><trkpt lat="44.8488717" lon="8.0012783"><ele>260.0</ele><time>2026-04-19T09:42:57.917Z</time></trkpt><trkpt lat="44.8488333" lon="8.0013883"><ele>260.0</ele><time>2026-04-19T09:42:58.917Z</time></trkpt><trkpt lat="44.84884" lon="8.0016083"><ele>260.0</ele><time>2026-04-19T09:43:00.918Z</time></trkpt><trkpt lat="44.8489017" lon="8.00168"><ele>259.25</ele><time>2026-04-19T09:43:01.918Z</time></trkpt><trkpt lat="44.8489733" lon="8.0017267"><ele>258.5</ele><time>2026-04-19T09:43:02.918Z</time></trkpt><trkpt lat="44.8491467" lon="8.0017217"><ele>257.75</ele><time>2026-04-19T09:43:04.917Z</time></trkpt><trkpt lat="44.8492267" lon="8.0017"><ele>257.0</ele><time>2026-04-19T09:43:05.917Z</time></trkpt><trkpt lat="44.849375" lon="8.0017"><ele>257.0</ele><time>2026-04-19T09:43:07.917Z</time></trkpt><trkpt lat="44.8494283" lon="8.0017483"><ele>257.0</ele><time>2026-04-19T09:43:08.917Z</time></trkpt><trkpt lat="44.8493417" lon="8.0020117"><ele>257.0</ele><time>2026-04-19T09:43:11.918Z</time></trkpt><trkpt lat="44.8492033" lon="8.0021667"><ele>257.0</ele><time>2026-04-19T09:43:13.917Z</time></trkpt><trkpt lat="44.8491567" lon="8.00226"><ele>250.0</ele><time>2026-04-19T09:43:14.918Z</time></trkpt><trkpt lat="44.849125" lon="8.0025133"><ele>243.0</ele><time>2026-04-19T09:43:16.917Z</time></trkpt><trkpt lat="44.84912" lon="8.0027883"><ele>236.0</ele><time>2026-04-19T09:43:18.918Z</time></trkpt><trkpt lat="44.8491117" lon="8.00292"><ele>236.0</ele><time>2026-04-19T09:43:19.917Z</time></trkpt><trkpt lat="44.8490917" lon="8.0031533"><ele>236.0</ele><time>2026-04-19T09:43:21.917Z</time></trkpt><trkpt lat="44.849085" lon="8.00332"><ele>236.0</ele><time>2026-04-19T09:43:23.917Z</time></trkpt><trkpt lat="44.8490933" lon="8.0034233"><ele>236.0</ele><time>2026-04-19T09:43:25.917Z</time></trkpt><trkpt lat="44.8491717" lon="8.0035317"><ele>235.33333333333334</ele><time>2026-04-19T09:43:27.917Z</time></trkpt><trkpt lat="44.84936" lon="8.0036617"><ele>234.66666666666669</ele><time>2026-04-19T09:43:29.917Z</time></trkpt><trkpt lat="44.849455" lon="8.0037083"><ele>234.0</ele><time>2026-04-19T09:43:30.917Z</time></trkpt><trkpt lat="44.8496217" lon="8.0038"><ele>234.0</ele><time>2026-04-19T09:43:32.918Z</time></trkpt><trkpt lat="44.8497833" lon="8.0038867"><ele>234.0</ele><time>2026-04-19T09:43:34.918Z</time></trkpt><trkpt lat="44.8499517" lon="8.0039733"><ele>234.0</ele><time>2026-04-19T09:43:36.917Z</time></trkpt><trkpt lat="44.8500317" lon="8.0040167"><ele>234.0</ele><time>2026-04-19T09:43:37.918Z</time></trkpt><trkpt lat="44.8501067" lon="8.0040567"><ele>234.5</ele><time>2026-04-19T09:43:38.917Z</time></trkpt><trkpt lat="44.8502267" lon="8.004135"><ele>235.0</ele><time>2026-04-19T09:43:40.918Z</time></trkpt><trkpt lat="44.8502383" lon="8.0042517"><ele>235.5</ele><time>2026-04-19T09:43:42.917Z</time></trkpt><trkpt lat="44.850035" lon="8.0043933"><ele>236.0</ele><time>2026-04-19T09:43:45.918Z</time></trkpt><trkpt lat="44.849825" lon="8.00454"><ele>236.66666666666669</ele><time>2026-04-19T09:43:47.918Z</time></trkpt><trkpt lat="44.8497283" lon="8.00463"><ele>237.33333333333331</ele><time>2026-04-19T09:43:48.917Z</time></trkpt><trkpt lat="44.8495467" lon="8.0048033"><ele>238.0</ele><time>2026-04-19T09:43:50.917Z</time></trkpt><trkpt lat="44.8493567" lon="8.0050083"><ele>241.0</ele><time>2026-04-19T09:43:52.918Z</time></trkpt><trkpt lat="44.8491733" lon="8.005205"><ele>244.0</ele><time>2026-04-19T09:43:54.918Z</time></trkpt><trkpt lat="44.8490983" lon="8.0053017"><ele>247.0</ele><time>2026-04-19T09:43:55.917Z</time></trkpt><trkpt lat="44.8489433" lon="8.0054933"><ele>247.0</ele><time>2026-04-19T09:43:57.917Z</time></trkpt><trkpt lat="44.8487867" lon="8.005655"><ele>247.0</ele><time>2026-04-19T09:43:59.918Z</time></trkpt><trkpt lat="44.8487183" lon="8.0057067"><ele>247.0</ele><time>2026-04-19T09:44:00.918Z</time></trkpt><trkpt lat="44.8486133" lon="8.0057483"><ele>247.0</ele><time>2026-04-19T09:44:02.918Z</time></trkpt><trkpt lat="44.848655" lon="8.005755"><ele>247.0</ele><time>2026-04-19T09:52:34.402Z</time></trkpt><trkpt lat="44.848575" lon="8.005785"><ele>246.99999999999997</ele><time>2026-04-19T09:52:49.92Z</time></trkpt><trkpt lat="44.8485067" lon="8.0058167"><ele>247.0</ele><time>2026-04-19T09:52:50.92Z</time></trkpt><trkpt lat="44.84844" lon="8.005855"><ele>247.0</ele><time>2026-04-19T09:52:51.919Z</time></trkpt><trkpt lat="44.8483567" lon="8.0058967"><ele>247.0</ele><time>2026-04-19T09:52:52.92Z</time></trkpt><trkpt lat="44.8482783" lon="8.0059383"><ele>246.99999999999997</ele><time>2026-04-19T09:52:53.92Z</time></trkpt><trkpt lat="44.8481933" lon="8.0059933"><ele>247.0</ele><time>2026-04-19T09:52:54.919Z</time></trkpt><trkpt lat="44.8481183" lon="8.006055"><ele>246.49999999999997</ele><time>2026-04-19T09:52:55.92Z</time></trkpt><trkpt lat="44.8480533" lon="8.0061283"><ele>246.0</ele><time>2026-04-19T09:52:56.919Z</time></trkpt><trkpt lat="44.847995" lon="8.0062133"><ele>245.5</ele><time>2026-04-19T09:52:57.919Z</time></trkpt><trkpt lat="44.8479417" lon="8.0063017"><ele>245.0</ele><time>2026-04-19T09:52:58.919Z</time></trkpt><trkpt lat="44.8478967" lon="8.0063983"><ele>244.49999999999997</ele><time>2026-04-19T09:52:59.919Z</time></trkpt><trkpt lat="44.8478533" lon="8.006505"><ele>244.0</ele><time>2026-04-19T09:53:00.919Z</time></trkpt><trkpt lat="44.847825" lon="8.0066183"><ele>245.33333333333331</ele><time>2026-04-19T09:53:01.92Z</time></trkpt><trkpt lat="44.8478" lon="8.0067433"><ele>246.66666666666666</ele><time>2026-04-19T09:53:02.919Z</time></trkpt><trkpt lat="44.847775" lon="8.0068733"><ele>248.0</ele><time>2026-04-19T09:53:03.919Z</time></trkpt><trkpt lat="44.8477417" lon="8.0069767"><ele>249.33333333333331</ele><time>2026-04-19T09:53:04.919Z</time></trkpt><trkpt lat="44.847715" lon="8.0070867"><ele>250.66666666666666</ele><time>2026-04-19T09:53:05.919Z</time></trkpt><trkpt lat="44.847695" lon="8.0072017"><ele>252.0</ele><time>2026-04-19T09:53:06.919Z</time></trkpt><trkpt lat="44.8476683" lon="8.007305"><ele>252.0</ele><time>2026-04-19T09:53:07.919Z</time></trkpt><trkpt lat="44.8476367" lon="8.0073917"><ele>252.0</ele><time>2026-04-19T09:53:08.92Z</time></trkpt><trkpt lat="44.8476067" lon="8.0074767"><ele>252.0</ele><time>2026-04-19T09:53:09.919Z</time></trkpt><trkpt lat="44.847575" lon="8.0075567"><ele>252.0</ele><time>2026-04-19T09:53:10.92Z</time></trkpt><trkpt lat="44.8475417" lon="8.0076783"><ele>252.0</ele><time>2026-04-19T09:53:12.919Z</time></trkpt><trkpt lat="44.8475917" lon="8.0077733"><ele>252.0</ele><time>2026-04-19T09:53:14.92Z</time></trkpt><trkpt lat="44.847645" lon="8.0078383"><ele>252.0</ele><time>2026-04-19T09:53:15.918Z</time></trkpt><trkpt lat="44.8477083" lon="8.0079033"><ele>253.5</ele><time>2026-04-19T09:53:16.918Z</time></trkpt><trkpt lat="44.8477733" lon="8.0079633"><ele>255.0</ele><time>2026-04-19T09:53:17.918Z</time></trkpt><trkpt lat="44.8478267" lon="8.0080283"><ele>256.5</ele><time>2026-04-19T09:53:18.918Z</time></trkpt><trkpt lat="44.8478767" lon="8.008115"><ele>258.0</ele><time>2026-04-19T09:53:19.919Z</time></trkpt><trkpt lat="44.847935" lon="8.0082217"><ele>259.5</ele><time>2026-04-19T09:53:20.919Z</time></trkpt><trkpt lat="44.8479867" lon="8.00833"><ele>261.0</ele><time>2026-04-19T09:53:21.919Z</time></trkpt><trkpt lat="44.8480217" lon="8.0084783"><ele>262.0</ele><time>2026-04-19T09:53:22.918Z</time></trkpt><trkpt lat="44.848065" lon="8.0086317"><ele>263.0</ele><time>2026-04-19T09:53:23.918Z</time></trkpt><trkpt lat="44.8481133" lon="8.0087833"><ele>264.0</ele><time>2026-04-19T09:53:24.919Z</time></trkpt><trkpt lat="44.848155" lon="8.0089067"><ele>265.0</ele><time>2026-04-19T09:53:25.918Z</time></trkpt><trkpt lat="44.8482733" lon="8.00893"><ele>265.0</ele><time>2026-04-19T09:53:27.918Z</time></trkpt><trkpt lat="44.8483283" lon="8.0088717"><ele>265.0</ele><time>2026-04-19T09:53:28.919Z</time></trkpt><trkpt lat="44.848375" lon="8.0087967"><ele>265.0</ele><time>2026-04-19T09:53:29.919Z</time></trkpt><trkpt lat="44.848425" lon="8.0087283"><ele>265.0</ele><time>2026-04-19T09:53:30.919Z</time></trkpt><trkpt lat="44.84851" lon="8.0086717"><ele>265.0</ele><time>2026-04-19T09:53:32.919Z</time></trkpt><trkpt lat="44.8485" lon="8.008915"><ele>269.6</ele><time>2026-04-19T09:53:36.918Z</time></trkpt><trkpt lat="44.8484917" lon="8.00906"><ele>274.2</ele><time>2026-04-19T09:53:37.918Z</time></trkpt><trkpt lat="44.8485283" lon="8.0091983"><ele>278.8</ele><time>2026-04-19T09:53:38.918Z</time></trkpt><trkpt lat="44.8485717" lon="8.00933"><ele>283.4</ele><time>2026-04-19T09:53:39.919Z</time></trkpt><trkpt lat="44.8486333" lon="8.0094483"><ele>288.0</ele><time>2026-04-19T09:53:40.919Z</time></trkpt><trkpt lat="44.848705" lon="8.0095417"><ele>288.00000000000006</ele><time>2026-04-19T09:53:41.918Z</time></trkpt><trkpt lat="44.848775" lon="8.00961"><ele>288.0</ele><time>2026-04-19T09:53:42.918Z</time></trkpt><trkpt lat="44.8488467" lon="8.0096083"><ele>288.0</ele><time>2026-04-19T09:53:43.919Z</time></trkpt><trkpt lat="44.8489133" lon="8.0095833"><ele>288.0</ele><time>2026-04-19T09:53:44.919Z</time></trkpt><trkpt lat="44.8489767" lon="8.0095383"><ele>288.0</ele><time>2026-04-19T09:53:45.918Z</time></trkpt><trkpt lat="44.849035" lon="8.00948"><ele>288.00000000000006</ele><time>2026-04-19T09:53:46.918Z</time></trkpt><trkpt lat="44.8490917" lon="8.0094183"><ele>288.0</ele><time>2026-04-19T09:53:47.919Z</time></trkpt><trkpt lat="44.84915" lon="8.009375"><ele>288.0</ele><time>2026-04-19T09:53:48.919Z</time></trkpt><trkpt lat="44.8492133" lon="8.0093417"><ele>288.0</ele><time>2026-04-19T09:53:49.918Z</time></trkpt><trkpt lat="44.8493267" lon="8.0093867"><ele>288.0</ele><time>2026-04-19T09:53:51.918Z</time></trkpt><trkpt lat="44.849385" lon="8.0094317"><ele>288.0</ele><time>2026-04-19T09:53:52.918Z</time></trkpt><trkpt lat="44.8494517" lon="8.0094617"><ele>288.0</ele><time>2026-04-19T09:53:53.918Z</time></trkpt><trkpt lat="44.84953" lon="8.0094783"><ele>288.0</ele><time>2026-04-19T09:53:54.918Z</time></trkpt><trkpt lat="44.8496183" lon="8.00947"><ele>288.3333333333333</ele><time>2026-04-19T09:53:55.919Z</time></trkpt><trkpt lat="44.84972" lon="8.0094417"><ele>288.6666666666667</ele><time>2026-04-19T09:53:56.919Z</time></trkpt><trkpt lat="44.8498" lon="8.0093767"><ele>289.0</ele><time>2026-04-19T09:53:57.919Z</time></trkpt><trkpt lat="44.8498617" lon="8.0092667"><ele>289.33333333333337</ele><time>2026-04-19T09:53:58.918Z</time></trkpt><trkpt lat="44.8499067" lon="8.0091733"><ele>289.6666666666667</ele><time>2026-04-19T09:53:59.918Z</time></trkpt><trkpt lat="44.849925" lon="8.0090883"><ele>290.0</ele><time>2026-04-19T09:54:00.918Z</time></trkpt><trkpt lat="44.849925" lon="8.0089733"><ele>290.0</ele><time>2026-04-19T09:54:02.918Z</time></trkpt><trkpt lat="44.8499133" lon="8.0088833"><ele>290.0</ele><time>2026-04-19T09:54:04.918Z</time></trkpt><trkpt lat="44.8499033" lon="8.0087433"><ele>290.0</ele><time>2026-04-19T09:54:06.919Z</time></trkpt><trkpt lat="44.8499483" lon="8.0085733"><ele>290.0</ele><time>2026-04-19T09:54:08.918Z</time></trkpt><trkpt lat="44.85" lon="8.0085133"><ele>290.0</ele><time>2026-04-19T09:54:09.918Z</time></trkpt><trkpt lat="44.8500717" lon="8.008495"><ele>290.0</ele><time>2026-04-19T09:54:10.919Z</time></trkpt><trkpt lat="44.85015" lon="8.0084883"><ele>290.0</ele><time>2026-04-19T09:54:11.919Z</time></trkpt><trkpt lat="44.8502433" lon="8.0084733"><ele>290.0</ele><time>2026-04-19T09:54:12.918Z</time></trkpt><trkpt lat="44.8503617" lon="8.008455"><ele>290.0</ele><time>2026-04-19T09:54:13.918Z</time></trkpt><trkpt lat="44.850455" lon="8.0084233"><ele>290.0</ele><time>2026-04-19T09:54:14.918Z</time></trkpt><trkpt lat="44.8505533" lon="8.0083983"><ele>290.0</ele><time>2026-04-19T09:54:15.919Z</time></trkpt><trkpt lat="44.8506517" lon="8.0083867"><ele>290.0</ele><time>2026-04-19T09:54:16.918Z</time></trkpt><trkpt lat="44.8507367" lon="8.0083683"><ele>290.0</ele><time>2026-04-19T09:54:17.919Z</time></trkpt><trkpt lat="44.8508333" lon="8.0083233"><ele>290.0</ele><time>2026-04-19T09:54:18.919Z</time></trkpt><trkpt lat="44.8509617" lon="8.0082517"><ele>290.0</ele><time>2026-04-19T09:54:19.918Z</time></trkpt><trkpt lat="44.8511017" lon="8.0081967"><ele>287.5</ele><time>2026-04-19T09:54:20.918Z</time></trkpt><trkpt lat="44.8512383" lon="8.0081383"><ele>285.0</ele><time>2026-04-19T09:54:21.919Z</time></trkpt><trkpt lat="44.8513733" lon="8.0080833"><ele>282.5</ele><time>2026-04-19T09:54:22.918Z</time></trkpt><trkpt lat="44.8515083" lon="8.0080233"><ele>280.0</ele><time>2026-04-19T09:54:23.918Z</time></trkpt><trkpt lat="44.851615" lon="8.007975"><ele>280.0</ele><time>2026-04-19T09:54:24.918Z</time></trkpt><trkpt lat="44.8517117" lon="8.00794"><ele>280.0</ele><time>2026-04-19T09:54:25.919Z</time></trkpt><trkpt lat="44.8517983" lon="8.007895"><ele>280.0</ele><time>2026-04-19T09:54:26.918Z</time></trkpt><trkpt lat="44.8518717" lon="8.0078833"><ele>280.0</ele><time>2026-04-19T09:54:27.919Z</time></trkpt><trkpt lat="44.8519517" lon="8.0079033"><ele>280.0</ele><time>2026-04-19T09:54:30.919Z</time></trkpt><trkpt lat="44.8520383" lon="8.00793"><ele>280.0</ele><time>2026-04-19T09:54:33.919Z</time></trkpt><trkpt lat="44.8521033" lon="8.0079533"><ele>279.0</ele><time>2026-04-19T09:54:37.919Z</time></trkpt><trkpt lat="44.85218" lon="8.0079783"><ele>278.0</ele><time>2026-04-19T09:54:39.918Z</time></trkpt><trkpt lat="44.8522517" lon="8.008"><ele>277.0</ele><time>2026-04-19T09:54:40.918Z</time></trkpt><trkpt lat="44.852315" lon="8.0080283"><ele>276.0</ele><time>2026-04-19T09:54:41.918Z</time></trkpt><trkpt lat="44.85238" lon="8.0080617"><ele>275.0</ele><time>2026-04-19T09:54:42.918Z</time></trkpt><trkpt lat="44.85244" lon="8.0080967"><ele>274.0</ele><time>2026-04-19T09:54:43.918Z</time></trkpt><trkpt lat="44.8525383" lon="8.008185"><ele>275.0</ele><time>2026-04-19T09:54:45.918Z</time></trkpt><trkpt lat="44.85264" lon="8.008285"><ele>276.0</ele><time>2026-04-19T09:54:47.919Z</time></trkpt><trkpt lat="44.85269" lon="8.008355"><ele>277.0</ele><time>2026-04-19T09:54:48.919Z</time></trkpt><trkpt lat="44.8527483" lon="8.0084333"><ele>278.0</ele><time>2026-04-19T09:54:49.918Z</time></trkpt><trkpt lat="44.852795" lon="8.0084933"><ele>279.0</ele><time>2026-04-19T09:54:50.918Z</time></trkpt><trkpt lat="44.8528667" lon="8.0085883"><ele>280.0</ele><time>2026-04-19T09:54:52.919Z</time></trkpt><trkpt lat="44.8529183" lon="8.0086433"><ele>280.0</ele><time>2026-04-19T09:54:54.918Z</time></trkpt><trkpt lat="44.85301" lon="8.008635"><ele>280.0</ele><time>2026-04-19T09:54:56.919Z</time></trkpt><trkpt lat="44.8530883" lon="8.0086467"><ele>280.0</ele><time>2026-04-19T09:54:57.918Z</time></trkpt><trkpt lat="44.8531833" lon="8.0086683"><ele>280.0</ele><time>2026-04-19T09:54:58.919Z</time></trkpt><trkpt lat="44.8532767" lon="8.0086867"><ele>280.0</ele><time>2026-04-19T09:54:59.919Z</time></trkpt><trkpt lat="44.853355" lon="8.0086933"><ele>280.0</ele><time>2026-04-19T09:55:00.919Z</time></trkpt><trkpt lat="44.8534567" lon="8.0086217"><ele>281.3333333333333</ele><time>2026-04-19T09:55:02.918Z</time></trkpt><trkpt lat="44.8535333" lon="8.0085133"><ele>282.66666666666663</ele><time>2026-04-19T09:55:04.918Z</time></trkpt><trkpt lat="44.8535517" lon="8.008425"><ele>284.0</ele><time>2026-04-19T09:55:06.919Z</time></trkpt><trkpt lat="44.8535867" lon="8.00835"><ele>285.3333333333333</ele><time>2026-04-19T09:55:08.918Z</time></trkpt><trkpt lat="44.85365" lon="8.0083083"><ele>286.6666666666667</ele><time>2026-04-19T09:55:10.918Z</time></trkpt><trkpt lat="44.8537367" lon="8.00824"><ele>288.0</ele><time>2026-04-19T09:55:12.919Z</time></trkpt><trkpt lat="44.85382" lon="8.0081133"><ele>288.0</ele><time>2026-04-19T09:55:14.918Z</time></trkpt><trkpt lat="44.853925" lon="8.008035"><ele>288.0</ele><time>2026-04-19T09:55:16.918Z</time></trkpt><trkpt lat="44.8539883" lon="8.0080117"><ele>288.0</ele><time>2026-04-19T09:55:18.919Z</time></trkpt><trkpt lat="44.8540283" lon="8.0080817"><ele>288.0</ele><time>2026-04-19T09:55:21.918Z</time></trkpt><trkpt lat="44.85405" lon="8.008205"><ele>288.0</ele><time>2026-04-19T09:55:23.919Z</time></trkpt><trkpt lat="44.8541183" lon="8.0083367"><ele>288.0</ele><time>2026-04-19T09:55:25.918Z</time></trkpt><trkpt lat="44.8541817" lon="8.0084317"><ele>288.0</ele><time>2026-04-19T09:55:27.918Z</time></trkpt><trkpt lat="44.85423" lon="8.008505"><ele>288.0</ele><time>2026-04-19T09:55:30.918Z</time></trkpt><trkpt lat="44.854265" lon="8.00861"><ele>288.0</ele><time>2026-04-19T09:55:32.919Z</time></trkpt><trkpt lat="44.8543483" lon="8.0086483"><ele>288.0</ele><time>2026-04-19T09:55:35.918Z</time></trkpt><trkpt lat="44.85442" lon="8.008605"><ele>288.0</ele><time>2026-04-19T09:55:38.919Z</time></trkpt><trkpt lat="44.8544933" lon="8.00856"><ele>284.5</ele><time>2026-04-19T09:55:41.918Z</time></trkpt><trkpt lat="44.854545" lon="8.0084817"><ele>281.0</ele><time>2026-04-19T09:55:44.918Z</time></trkpt><trkpt lat="44.8546167" lon="8.0084017"><ele>277.5</ele><time>2026-04-19T09:55:47.918Z</time></trkpt><trkpt lat="44.8546817" lon="8.0083717"><ele>274.0</ele><time>2026-04-19T09:55:49.918Z</time></trkpt><trkpt lat="44.8547567" lon="8.008355"><ele>270.5</ele><time>2026-04-19T09:55:53.919Z</time></trkpt><trkpt lat="44.854825" lon="8.00836"><ele>267.0</ele><time>2026-04-19T09:56:21.919Z</time></trkpt><trkpt lat="44.8549133" lon="8.008335"><ele>264.8</ele><time>2026-04-19T09:56:23.918Z</time></trkpt><trkpt lat="44.855015" lon="8.008295"><ele>262.6</ele><time>2026-04-19T09:56:25.918Z</time></trkpt><trkpt lat="44.8551217" lon="8.00822"><ele>260.40000000000003</ele><time>2026-04-19T09:56:27.918Z</time></trkpt><trkpt lat="44.855215" lon="8.00815"><ele>258.2</ele><time>2026-04-19T09:56:29.918Z</time></trkpt><trkpt lat="44.8552883" lon="8.0080933"><ele>256.0</ele><time>2026-04-19T09:56:32.918Z</time></trkpt><trkpt lat="44.8553483" lon="8.0079933"><ele>254.49999999999997</ele><time>2026-04-19T09:56:35.918Z</time></trkpt><trkpt lat="44.85539" lon="8.007925"><ele>253.0</ele><time>2026-04-19T09:56:38.918Z</time></trkpt><trkpt lat="44.8554283" lon="8.00784"><ele>251.5</ele><time>2026-04-19T09:56:41.918Z</time></trkpt><trkpt lat="44.8554667" lon="8.0077333"><ele>250.0</ele><time>2026-04-19T09:56:45.918Z</time></trkpt><trkpt lat="44.855505" lon="8.0076583"><ele>248.49999999999997</ele><time>2026-04-19T09:56:47.919Z</time></trkpt><trkpt lat="44.8555717" lon="8.0075617"><ele>247.0</ele><time>2026-04-19T09:56:49.918Z</time></trkpt><trkpt lat="44.8556367" lon="8.0074717"><ele>245.49999999999997</ele><time>2026-04-19T09:56:51.918Z</time></trkpt><trkpt lat="44.8557" lon="8.0073817"><ele>244.0</ele><time>2026-04-19T09:56:53.919Z</time></trkpt><trkpt lat="44.8557933" lon="8.0072767"><ele>242.5</ele><time>2026-04-19T09:56:55.918Z</time></trkpt><trkpt lat="44.8558417" lon="8.007215"><ele>241.0</ele><time>2026-04-19T09:56:56.918Z</time></trkpt><trkpt lat="44.8558967" lon="8.0071533"><ele>239.49999999999997</ele><time>2026-04-19T09:56:57.919Z</time></trkpt><trkpt lat="44.8559433" lon="8.007085"><ele>238.0</ele><time>2026-04-19T09:56:58.919Z</time></trkpt><trkpt lat="44.8559933" lon="8.0070267"><ele>236.4</ele><time>2026-04-19T09:56:59.918Z</time></trkpt><trkpt lat="44.8560883" lon="8.0069467"><ele>234.8</ele><time>2026-04-19T09:57:01.919Z</time></trkpt><trkpt lat="44.8561433" lon="8.00687"><ele>233.2</ele><time>2026-04-19T09:57:03.918Z</time></trkpt><trkpt lat="44.85618" lon="8.0069733"><ele>231.6</ele><time>2026-04-19T09:57:13.919Z</time></trkpt><trkpt lat="44.856175" lon="8.0071"><ele>230.0</ele><time>2026-04-19T09:57:15.918Z</time></trkpt><trkpt lat="44.8561733" lon="8.007265"><ele>230.0</ele><time>2026-04-19T09:57:17.918Z</time></trkpt><trkpt lat="44.8561683" lon="8.007455"><ele>230.0</ele><time>2026-04-19T09:57:19.918Z</time></trkpt><trkpt lat="44.856165" lon="8.0075767"><ele>230.0</ele><time>2026-04-19T09:57:21.918Z</time></trkpt><trkpt lat="44.856205" lon="8.0076683"><ele>230.0</ele><time>2026-04-19T09:57:31.918Z</time></trkpt><trkpt lat="44.8562217" lon="8.0078133"><ele>230.0</ele><time>2026-04-19T09:57:33.919Z</time></trkpt><trkpt lat="44.85623" lon="8.0079117"><ele>231.16666666666669</ele><time>2026-04-19T09:57:34.919Z</time></trkpt><trkpt lat="44.8562367" lon="8.0080233"><ele>232.33333333333334</ele><time>2026-04-19T09:57:35.918Z</time></trkpt><trkpt lat="44.8562393" lon="8.0081353"><ele>233.5</ele><time>2026-04-19T09:57:36.919Z</time></trkpt><trkpt lat="44.8562352" lon="8.0082586"><ele>234.66666666666669</ele><time>2026-04-19T09:57:37.918Z</time></trkpt><trkpt lat="44.8562321" lon="8.0083828"><ele>235.83333333333334</ele><time>2026-04-19T09:57:38.919Z</time></trkpt><trkpt lat="44.8562286" lon="8.0085149"><ele>237.0</ele><time>2026-04-19T09:57:39.918Z</time></trkpt><trkpt lat="44.8562241" lon="8.0086469"><ele>239.33333333333334</ele><time>2026-04-19T09:57:40.918Z</time></trkpt><trkpt lat="44.8562204" lon="8.0087732"><ele>241.66666666666669</ele><time>2026-04-19T09:57:41.918Z</time></trkpt><trkpt lat="44.8562244" lon="8.0088982"><ele>244.0</ele><time>2026-04-19T09:57:42.919Z</time></trkpt><trkpt lat="44.8562238" lon="8.00901"><ele>246.33333333333334</ele><time>2026-04-19T09:57:43.919Z</time></trkpt><trkpt lat="44.8562389" lon="8.0091459"><ele>248.66666666666669</ele><time>2026-04-19T09:57:45.919Z</time></trkpt><trkpt lat="44.8563147" lon="8.0091161"><ele>251.0</ele><time>2026-04-19T09:57:47.919Z</time></trkpt><trkpt lat="44.8563678" lon="8.0090543"><ele>251.0</ele><time>2026-04-19T09:57:48.918Z</time></trkpt><trkpt lat="44.8564257" lon="8.0089814"><ele>251.00000000000003</ele><time>2026-04-19T09:57:49.918Z</time></trkpt><trkpt lat="44.8564798" lon="8.0089118"><ele>251.00000000000003</ele><time>2026-04-19T09:57:50.919Z</time></trkpt><trkpt lat="44.8565541" lon="8.0087891"><ele>251.0</ele><time>2026-04-19T09:57:52.919Z</time></trkpt><trkpt lat="44.8566055" lon="8.0086683"><ele>251.0</ele><time>2026-04-19T09:57:54.918Z</time></trkpt><trkpt lat="44.8566976" lon="8.0085472"><ele>251.00000000000003</ele><time>2026-04-19T09:57:56.918Z</time></trkpt><trkpt lat="44.8567537" lon="8.0084864"><ele>251.0</ele><time>2026-04-19T09:57:57.918Z</time></trkpt><trkpt lat="44.8568034" lon="8.0084232"><ele>251.0</ele><time>2026-04-19T09:57:58.918Z</time></trkpt><trkpt lat="44.8568802" lon="8.0083001"><ele>251.0</ele><time>2026-04-19T09:58:00.919Z</time></trkpt><trkpt lat="44.8569397" lon="8.0082595"><ele>251.00000000000003</ele><time>2026-04-19T09:58:02.918Z</time></trkpt><trkpt lat="44.8569941" lon="8.0083316"><ele>251.0</ele><time>2026-04-19T09:58:05.919Z</time></trkpt><trkpt lat="44.8569858" lon="8.0084511"><ele>249.60000000000002</ele><time>2026-04-19T09:58:07.919Z</time></trkpt><trkpt lat="44.8569379" lon="8.008598"><ele>248.20000000000002</ele><time>2026-04-19T09:58:09.918Z</time></trkpt><trkpt lat="44.8569107" lon="8.008686"><ele>246.79999999999998</ele><time>2026-04-19T09:58:10.919Z</time></trkpt><trkpt lat="44.8568839" lon="8.0087759"><ele>245.39999999999998</ele><time>2026-04-19T09:58:11.918Z</time></trkpt><trkpt lat="44.8568562" lon="8.0088605"><ele>244.0</ele><time>2026-04-19T09:58:12.919Z</time></trkpt><trkpt lat="44.8567874" lon="8.009024"><ele>245.16666666666666</ele><time>2026-04-19T09:58:14.918Z</time></trkpt><trkpt lat="44.8567503" lon="8.0091208"><ele>246.33333333333331</ele><time>2026-04-19T09:58:15.919Z</time></trkpt><trkpt lat="44.8567233" lon="8.00922"><ele>247.5</ele><time>2026-04-19T09:58:16.918Z</time></trkpt><trkpt lat="44.8567117" lon="8.0093133"><ele>248.66666666666669</ele><time>2026-04-19T09:58:17.919Z</time></trkpt><trkpt lat="44.856705" lon="8.0094717"><ele>249.83333333333334</ele><time>2026-04-19T09:58:19.919Z</time></trkpt><trkpt lat="44.8567217" lon="8.009565"><ele>251.0</ele><time>2026-04-19T09:58:20.918Z</time></trkpt><trkpt lat="44.8567467" lon="8.009665"><ele>252.50000000000003</ele><time>2026-04-19T09:58:21.918Z</time></trkpt><trkpt lat="44.8567683" lon="8.0097617"><ele>254.0</ele><time>2026-04-19T09:58:22.919Z</time></trkpt><trkpt lat="44.856775" lon="8.0098633"><ele>255.5</ele><time>2026-04-19T09:58:23.919Z</time></trkpt><trkpt lat="44.8567717" lon="8.0099567"><ele>257.0</ele><time>2026-04-19T09:58:24.919Z</time></trkpt><trkpt lat="44.85674" lon="8.01012"><ele>258.5</ele><time>2026-04-19T09:58:26.919Z</time></trkpt><trkpt lat="44.8567067" lon="8.01021"><ele>260.0</ele><time>2026-04-19T09:58:27.918Z</time></trkpt><trkpt lat="44.8566883" lon="8.0102967"><ele>261.5714285714286</ele><time>2026-04-19T09:58:28.918Z</time></trkpt><trkpt lat="44.8566567" lon="8.010385"><ele>263.14285714285717</ele><time>2026-04-19T09:58:29.919Z</time></trkpt><trkpt lat="44.8566233" lon="8.010475"><ele>264.7142857142857</ele><time>2026-04-19T09:58:30.918Z</time></trkpt><trkpt lat="44.85659" lon="8.0105683"><ele>266.28571428571433</ele><time>2026-04-19T09:58:31.919Z</time></trkpt><trkpt lat="44.856565" lon="8.010655"><ele>267.8571428571429</ele><time>2026-04-19T09:58:32.918Z</time></trkpt><trkpt lat="44.8565383" lon="8.0107367"><ele>269.42857142857144</ele><time>2026-04-19T09:58:33.918Z</time></trkpt><trkpt lat="44.8565267" lon="8.010825"><ele>271.0</ele><time>2026-04-19T09:58:35.918Z</time></trkpt><trkpt lat="44.856565" lon="8.0109283"><ele>271.66666666666663</ele><time>2026-04-19T09:58:37.918Z</time></trkpt><trkpt lat="44.8566517" lon="8.0110783"><ele>272.3333333333333</ele><time>2026-04-19T09:58:39.918Z</time></trkpt><trkpt lat="44.8567017" lon="8.0111617"><ele>273.0</ele><time>2026-04-19T09:58:40.919Z</time></trkpt><trkpt lat="44.8567483" lon="8.0112483"><ele>273.6666666666667</ele><time>2026-04-19T09:58:41.918Z</time></trkpt><trkpt lat="44.8568" lon="8.011335"><ele>274.33333333333337</ele><time>2026-04-19T09:58:42.918Z</time></trkpt><trkpt lat="44.8568483" lon="8.01141"><ele>275.0</ele><time>2026-04-19T09:58:43.919Z</time></trkpt><trkpt lat="44.85689" lon="8.0114867"><ele>275.4</ele><time>2026-04-19T09:58:44.919Z</time></trkpt><trkpt lat="44.8569317" lon="8.0115567"><ele>275.8</ele><time>2026-04-19T09:58:45.918Z</time></trkpt><trkpt lat="44.8570267" lon="8.0116733"><ele>276.2</ele><time>2026-04-19T09:58:47.919Z</time></trkpt><trkpt lat="44.8571267" lon="8.0117133"><ele>276.6</ele><time>2026-04-19T09:58:49.918Z</time></trkpt><trkpt lat="44.8572417" lon="8.0117033"><ele>277.0</ele><time>2026-04-19T09:58:51.919Z</time></trkpt><trkpt lat="44.857365" lon="8.0116967"><ele>277.0</ele><time>2026-04-19T09:58:53.919Z</time></trkpt><trkpt lat="44.857475" lon="8.0116683"><ele>277.0</ele><time>2026-04-19T09:58:55.919Z</time></trkpt><trkpt lat="44.8575383" lon="8.0116467"><ele>277.0</ele><time>2026-04-19T09:58:56.919Z</time></trkpt><trkpt lat="44.8576033" lon="8.0116317"><ele>277.0</ele><time>2026-04-19T09:58:57.918Z</time></trkpt><trkpt lat="44.8577133" lon="8.0116217"><ele>277.0</ele><time>2026-04-19T09:58:59.919Z</time></trkpt><trkpt lat="44.85781" lon="8.0116567"><ele>273.4</ele><time>2026-04-19T09:59:01.919Z</time></trkpt><trkpt lat="44.8579233" lon="8.0116883"><ele>269.79999999999995</ele><time>2026-04-19T09:59:03.919Z</time></trkpt><trkpt lat="44.8580417" lon="8.01167"><ele>266.2</ele><time>2026-04-19T09:59:05.919Z</time></trkpt><trkpt lat="44.858115" lon="8.0116267"><ele>262.59999999999997</ele><time>2026-04-19T09:59:06.918Z</time></trkpt><trkpt lat="44.8581983" lon="8.0115733"><ele>259.0</ele><time>2026-04-19T09:59:07.918Z</time></trkpt><trkpt lat="44.858285" lon="8.01152"><ele>259.0</ele><time>2026-04-19T09:59:08.919Z</time></trkpt><trkpt lat="44.8583717" lon="8.011475"><ele>259.0</ele><time>2026-04-19T09:59:09.918Z</time></trkpt><trkpt lat="44.8584417" lon="8.0114483"><ele>259.0</ele><time>2026-04-19T09:59:10.918Z</time></trkpt><trkpt lat="44.8585117" lon="8.0114317"><ele>259.0</ele><time>2026-04-19T09:59:11.918Z</time></trkpt><trkpt lat="44.8585917" lon="8.011405"><ele>259.0</ele><time>2026-04-19T09:59:12.919Z</time></trkpt><trkpt lat="44.8586617" lon="8.0113783"><ele>259.0</ele><time>2026-04-19T09:59:13.919Z</time></trkpt><trkpt lat="44.85874" lon="8.0113417"><ele>256.8333333333333</ele><time>2026-04-19T09:59:14.919Z</time></trkpt><trkpt lat="44.8588167" lon="8.0113017"><ele>254.66666666666666</ele><time>2026-04-19T09:59:15.918Z</time></trkpt><trkpt lat="44.8588967" lon="8.011255"><ele>252.5</ele><time>2026-04-19T09:59:16.918Z</time></trkpt><trkpt lat="44.8589667" lon="8.011205"><ele>250.33333333333331</ele><time>2026-04-19T09:59:17.919Z</time></trkpt><trkpt lat="44.859035" lon="8.0110867"><ele>248.16666666666666</ele><time>2026-04-19T09:59:19.918Z</time></trkpt><trkpt lat="44.8590567" lon="8.0110033"><ele>246.0</ele><time>2026-04-19T09:59:20.918Z</time></trkpt><trkpt lat="44.859085" lon="8.0109133"><ele>246.0</ele><time>2026-04-19T09:59:21.918Z</time></trkpt><trkpt lat="44.8591167" lon="8.0108283"><ele>246.0</ele><time>2026-04-19T09:59:22.919Z</time></trkpt><trkpt lat="44.8591717" lon="8.0107483"><ele>246.0</ele><time>2026-04-19T09:59:23.918Z</time></trkpt><trkpt lat="44.85923" lon="8.01067"><ele>246.0</ele><time>2026-04-19T09:59:24.918Z</time></trkpt><trkpt lat="44.8592933" lon="8.0106033"><ele>246.0</ele><time>2026-04-19T09:59:25.918Z</time></trkpt><trkpt lat="44.8593533" lon="8.0105433"><ele>246.0</ele><time>2026-04-19T09:59:26.918Z</time></trkpt><trkpt lat="44.8593917" lon="8.01045"><ele>245.20000000000002</ele><time>2026-04-19T09:59:27.919Z</time></trkpt><trkpt lat="44.8594233" lon="8.0103583"><ele>244.40000000000003</ele><time>2026-04-19T09:59:28.918Z</time></trkpt><trkpt lat="44.8595133" lon="8.0102917"><ele>243.6</ele><time>2026-04-19T09:59:30.919Z</time></trkpt><trkpt lat="44.8595867" lon="8.0104567"><ele>242.8</ele><time>2026-04-19T09:59:32.919Z</time></trkpt><trkpt lat="44.85962" lon="8.0105983"><ele>242.0</ele><time>2026-04-19T09:59:33.918Z</time></trkpt><trkpt lat="44.85965" lon="8.0107617"><ele>240.6</ele><time>2026-04-19T09:59:34.919Z</time></trkpt><trkpt lat="44.8596833" lon="8.01091"><ele>239.2</ele><time>2026-04-19T09:59:35.918Z</time></trkpt><trkpt lat="44.8597117" lon="8.01104"><ele>237.8</ele><time>2026-04-19T09:59:36.919Z</time></trkpt><trkpt lat="44.8597333" lon="8.0111383"><ele>236.4</ele><time>2026-04-19T09:59:37.919Z</time></trkpt><trkpt lat="44.85973" lon="8.0112883"><ele>235.0</ele><time>2026-04-19T09:59:39.918Z</time></trkpt><trkpt lat="44.859675" lon="8.0114267"><ele>234.99999999999997</ele><time>2026-04-19T09:59:41.918Z</time></trkpt><trkpt lat="44.859635" lon="8.011505"><ele>235.0</ele><time>2026-04-19T09:59:43.918Z</time></trkpt><trkpt lat="44.8596383" lon="8.01161"><ele>235.0</ele><time>2026-04-19T09:59:46.919Z</time></trkpt><trkpt lat="44.8597017" lon="8.01169"><ele>235.0</ele><time>2026-04-19T09:59:48.918Z</time></trkpt><trkpt lat="44.85977" lon="8.0117333"><ele>234.99999999999997</ele><time>2026-04-19T09:59:49.919Z</time></trkpt><trkpt lat="44.8598583" lon="8.01178"><ele>235.0</ele><time>2026-04-19T09:59:50.919Z</time></trkpt><trkpt lat="44.859945" lon="8.0118333"><ele>234.75</ele><time>2026-04-19T09:59:51.918Z</time></trkpt><trkpt lat="44.8600483" lon="8.0118967"><ele>234.5</ele><time>2026-04-19T09:59:52.918Z</time></trkpt><trkpt lat="44.8601583" lon="8.0119683"><ele>234.25</ele><time>2026-04-19T09:59:53.918Z</time></trkpt><trkpt lat="44.8602767" lon="8.0120517"><ele>234.0</ele><time>2026-04-19T09:59:54.918Z</time></trkpt><trkpt lat="44.8603933" lon="8.01213"><ele>233.75</ele><time>2026-04-19T09:59:55.918Z</time></trkpt><trkpt lat="44.8605133" lon="8.0122183"><ele>233.5</ele><time>2026-04-19T09:59:56.918Z</time></trkpt><trkpt lat="44.8606183" lon="8.0122733"><ele>233.25</ele><time>2026-04-19T09:59:57.919Z</time></trkpt><trkpt lat="44.8607167" lon="8.0123033"><ele>233.0</ele><time>2026-04-19T09:59:58.918Z</time></trkpt><trkpt lat="44.8608233" lon="8.01233"><ele>233.0</ele><time>2026-04-19T09:59:59.919Z</time></trkpt><trkpt lat="44.8609283" lon="8.0123517"><ele>233.0</ele><time>2026-04-19T10:00:00.918Z</time></trkpt><trkpt lat="44.86103" lon="8.012375"><ele>233.0</ele><time>2026-04-19T10:00:01.918Z</time></trkpt><trkpt lat="44.861135" lon="8.0124033"><ele>233.0</ele><time>2026-04-19T10:00:02.918Z</time></trkpt><trkpt lat="44.8612383" lon="8.0124183"><ele>233.0</ele><time>2026-04-19T10:00:03.918Z</time></trkpt><trkpt lat="44.8613267" lon="8.0123983"><ele>234.66666666666669</ele><time>2026-04-19T10:00:04.919Z</time></trkpt><trkpt lat="44.8614033" lon="8.0123383"><ele>236.33333333333334</ele><time>2026-04-19T10:00:05.918Z</time></trkpt><trkpt lat="44.8614667" lon="8.01228"><ele>238.0</ele><time>2026-04-19T10:00:06.918Z</time></trkpt><trkpt lat="44.86153" lon="8.012245"><ele>239.66666666666669</ele><time>2026-04-19T10:00:07.918Z</time></trkpt><trkpt lat="44.861625" lon="8.0122717"><ele>241.33333333333334</ele><time>2026-04-19T10:00:08.919Z</time></trkpt><trkpt lat="44.8617367" lon="8.0123367"><ele>243.0</ele><time>2026-04-19T10:00:09.919Z</time></trkpt><trkpt lat="44.8618517" lon="8.0124033"><ele>243.60000000000002</ele><time>2026-04-19T10:00:10.919Z</time></trkpt><trkpt lat="44.8619667" lon="8.012455"><ele>244.20000000000002</ele><time>2026-04-19T10:00:11.918Z</time></trkpt><trkpt lat="44.862065" lon="8.01252"><ele>244.8</ele><time>2026-04-19T10:00:12.919Z</time></trkpt><trkpt lat="44.86215" lon="8.01259"><ele>245.4</ele><time>2026-04-19T10:00:13.919Z</time></trkpt><trkpt lat="44.862235" lon="8.0126683"><ele>246.0</ele><time>2026-04-19T10:00:14.919Z</time></trkpt><trkpt lat="44.86232" lon="8.0127517"><ele>246.33333333333334</ele><time>2026-04-19T10:00:15.918Z</time></trkpt><trkpt lat="44.8624017" lon="8.0128283"><ele>246.66666666666669</ele><time>2026-04-19T10:00:16.918Z</time></trkpt><trkpt lat="44.8624733" lon="8.0128983"><ele>247.0</ele><time>2026-04-19T10:00:17.919Z</time></trkpt><trkpt lat="44.8625483" lon="8.01295"><ele>247.33333333333334</ele><time>2026-04-19T10:00:18.918Z</time></trkpt><trkpt lat="44.8626317" lon="8.012975"><ele>247.66666666666669</ele><time>2026-04-19T10:00:19.918Z</time></trkpt><trkpt lat="44.8627217" lon="8.0129767"><ele>248.0</ele><time>2026-04-19T10:00:20.919Z</time></trkpt><trkpt lat="44.8628067" lon="8.01297"><ele>246.4</ele><time>2026-04-19T10:00:21.918Z</time></trkpt><trkpt lat="44.8628783" lon="8.0129567"><ele>244.8</ele><time>2026-04-19T10:00:22.918Z</time></trkpt><trkpt lat="44.8629567" lon="8.0129583"><ele>243.2</ele><time>2026-04-19T10:00:24.918Z</time></trkpt><trkpt lat="44.8630567" lon="8.01305"><ele>241.6</ele><time>2026-04-19T10:00:27.918Z</time></trkpt><trkpt lat="44.8631117" lon="8.0131467"><ele>240.0</ele><time>2026-04-19T10:00:28.918Z</time></trkpt><trkpt lat="44.8631667" lon="8.0132683"><ele>240.5</ele><time>2026-04-19T10:00:29.919Z</time></trkpt><trkpt lat="44.8632133" lon="8.0133933"><ele>241.0</ele><time>2026-04-19T10:00:30.919Z</time></trkpt><trkpt lat="44.8632517" lon="8.0135183"><ele>241.5</ele><time>2026-04-19T10:00:31.919Z</time></trkpt><trkpt lat="44.86328" lon="8.013625"><ele>242.0</ele><time>2026-04-19T10:00:32.918Z</time></trkpt><trkpt lat="44.8633067" lon="8.0137117"><ele>242.5</ele><time>2026-04-19T10:00:33.919Z</time></trkpt><trkpt lat="44.8633833" lon="8.0137967"><ele>243.0</ele><time>2026-04-19T10:00:35.918Z</time></trkpt><trkpt lat="44.863455" lon="8.0137833"><ele>241.0</ele><time>2026-04-19T10:00:38.918Z</time></trkpt><trkpt lat="44.86355" lon="8.0138567"><ele>239.0</ele><time>2026-04-19T10:00:41.918Z</time></trkpt><trkpt lat="44.8635867" lon="8.0139533"><ele>237.0</ele><time>2026-04-19T10:00:43.918Z</time></trkpt><trkpt lat="44.8636233" lon="8.0140317"><ele>235.0</ele><time>2026-04-19T10:00:45.918Z</time></trkpt><trkpt lat="44.863675" lon="8.01412"><ele>233.0</ele><time>2026-04-19T10:00:47.919Z</time></trkpt><trkpt lat="44.863745" lon="8.0141667"><ele>231.0</ele><time>2026-04-19T10:00:50.918Z</time></trkpt><trkpt lat="44.86383" lon="8.0141367"><ele>230.5</ele><time>2026-04-19T10:00:53.918Z</time></trkpt><trkpt lat="44.863925" lon="8.0141417"><ele>230.0</ele><time>2026-04-19T10:00:56.919Z</time></trkpt><trkpt lat="44.8639817" lon="8.0140883"><ele>229.5</ele><time>2026-04-19T10:00:58.919Z</time></trkpt><trkpt lat="44.8640533" lon="8.0140167"><ele>229.0</ele><time>2026-04-19T10:01:00.919Z</time></trkpt><trkpt lat="44.86412" lon="8.0139733"><ele>228.5</ele><time>2026-04-19T10:01:02.919Z</time></trkpt><trkpt lat="44.8641967" lon="8.013985"><ele>228.0</ele><time>2026-04-19T10:01:04.918Z</time></trkpt><trkpt lat="44.864245" lon="8.0140567"><ele>228.5</ele><time>2026-04-19T10:01:06.918Z</time></trkpt><trkpt lat="44.864275" lon="8.0141633"><ele>229.0</ele><time>2026-04-19T10:01:08.919Z</time></trkpt><trkpt lat="44.8642817" lon="8.01427"><ele>229.5</ele><time>2026-04-19T10:01:10.918Z</time></trkpt><trkpt lat="44.8643033" lon="8.0143817"><ele>230.0</ele><time>2026-04-19T10:01:12.918Z</time></trkpt><trkpt lat="44.864355" lon="8.0144667"><ele>230.5</ele><time>2026-04-19T10:01:14.918Z</time></trkpt><trkpt lat="44.8644433" lon="8.014525"><ele>231.0</ele><time>2026-04-19T10:01:16.918Z</time></trkpt><trkpt lat="44.8645233" lon="8.0145917"><ele>228.66666666666666</ele><time>2026-04-19T10:01:18.918Z</time></trkpt><trkpt lat="44.86461" lon="8.014675"><ele>226.33333333333331</ele><time>2026-04-19T10:01:20.919Z</time></trkpt><trkpt lat="44.8647083" lon="8.01469"><ele>224.0</ele><time>2026-04-19T10:01:22.919Z</time></trkpt><trkpt lat="44.8647783" lon="8.0146917"><ele>221.66666666666666</ele><time>2026-04-19T10:01:23.918Z</time></trkpt><trkpt lat="44.8648583" lon="8.0146917"><ele>219.33333333333331</ele><time>2026-04-19T10:01:24.919Z</time></trkpt><trkpt lat="44.8649278" lon="8.0146951"><ele>217.0</ele><time>2026-04-19T10:01:25.918Z</time></trkpt><trkpt lat="44.8650095" lon="8.0147161"><ele>217.0</ele><time>2026-04-19T10:01:27.919Z</time></trkpt><trkpt lat="44.8650996" lon="8.0148005"><ele>217.0</ele><time>2026-04-19T10:01:29.918Z</time></trkpt><trkpt lat="44.8651726" lon="8.0148471"><ele>217.0</ele><time>2026-04-19T10:01:30.919Z</time></trkpt><trkpt lat="44.865267" lon="8.0148739"><ele>217.0</ele><time>2026-04-19T10:01:31.919Z</time></trkpt><trkpt lat="44.8653661" lon="8.014882"><ele>217.0</ele><time>2026-04-19T10:01:32.919Z</time></trkpt><trkpt lat="44.8654456" lon="8.0148752"><ele>216.2</ele><time>2026-04-19T10:01:33.919Z</time></trkpt><trkpt lat="44.8655317" lon="8.0148675"><ele>215.39999999999998</ele><time>2026-04-19T10:01:35.918Z</time></trkpt><trkpt lat="44.8655685" lon="8.0147844"><ele>214.60000000000002</ele><time>2026-04-19T10:01:38.919Z</time></trkpt><trkpt lat="44.8656418" lon="8.0147404"><ele>213.8</ele><time>2026-04-19T10:01:41.918Z</time></trkpt><trkpt lat="44.8657421" lon="8.0148313"><ele>213.0</ele><time>2026-04-19T10:01:43.918Z</time></trkpt><trkpt lat="44.8658135" lon="8.0149216"><ele>213.0</ele><time>2026-04-19T10:01:45.918Z</time></trkpt><trkpt lat="44.8658766" lon="8.0149852"><ele>213.0</ele><time>2026-04-19T10:01:47.918Z</time></trkpt><trkpt lat="44.8659618" lon="8.0150552"><ele>213.0</ele><time>2026-04-19T10:01:54.919Z</time></trkpt><trkpt lat="44.8660009" lon="8.0151338"><ele>213.0</ele><time>2026-04-19T10:01:56.919Z</time></trkpt><trkpt lat="44.8660176" lon="8.0152781"><ele>213.0</ele><time>2026-04-19T10:01:58.918Z</time></trkpt><trkpt lat="44.8660436" lon="8.015432"><ele>212.8</ele><time>2026-04-19T10:02:00.918Z</time></trkpt><trkpt lat="44.8661129" lon="8.0155795"><ele>212.60000000000002</ele><time>2026-04-19T10:02:02.918Z</time></trkpt><trkpt lat="44.8661593" lon="8.0156544"><ele>212.39999999999998</ele><time>2026-04-19T10:02:03.918Z</time></trkpt><trkpt lat="44.8662094" lon="8.0157205"><ele>212.2</ele><time>2026-04-19T10:02:04.919Z</time></trkpt><trkpt lat="44.86627" lon="8.0157717"><ele>212.0</ele><time>2026-04-19T10:02:05.919Z</time></trkpt><trkpt lat="44.8663883" lon="8.0158283"><ele>212.00000000000003</ele><time>2026-04-19T10:02:07.919Z</time></trkpt><trkpt lat="44.8664633" lon="8.01585"><ele>212.0</ele><time>2026-04-19T10:02:08.919Z</time></trkpt><trkpt lat="44.8665267" lon="8.0158767"><ele>212.0</ele><time>2026-04-19T10:02:09.918Z</time></trkpt><trkpt lat="44.8665917" lon="8.0159033"><ele>212.0</ele><time>2026-04-19T10:02:10.919Z</time></trkpt><trkpt lat="44.8666867" lon="8.01592"><ele>212.00000000000003</ele><time>2026-04-19T10:02:12.919Z</time></trkpt><trkpt lat="44.8667533" lon="8.0159317"><ele>212.0</ele><time>2026-04-19T10:02:14.918Z</time></trkpt><trkpt lat="44.8668317" lon="8.0159417"><ele>211.50000000000003</ele><time>2026-04-19T10:02:16.918Z</time></trkpt><trkpt lat="44.8669117" lon="8.016005"><ele>211.0</ele><time>2026-04-19T10:02:18.919Z</time></trkpt><trkpt lat="44.867" lon="8.0160533"><ele>210.5</ele><time>2026-04-19T10:02:20.919Z</time></trkpt><trkpt lat="44.8670717" lon="8.0160433"><ele>210.0</ele><time>2026-04-19T10:02:22.919Z</time></trkpt><trkpt lat="44.8671533" lon="8.0159983"><ele>209.50000000000003</ele><time>2026-04-19T10:02:25.919Z</time></trkpt><trkpt lat="44.8672367" lon="8.0159717"><ele>209.0</ele><time>2026-04-19T10:02:27.918Z</time></trkpt><trkpt lat="44.8673367" lon="8.015975"><ele>209.00000000000003</ele><time>2026-04-19T10:02:29.919Z</time></trkpt><trkpt lat="44.8674083" lon="8.0159783"><ele>209.0</ele><time>2026-04-19T10:02:30.918Z</time></trkpt><trkpt lat="44.8674717" lon="8.0159833"><ele>209.0</ele><time>2026-04-19T10:02:31.919Z</time></trkpt><trkpt lat="44.8675367" lon="8.0160133"><ele>209.0</ele><time>2026-04-19T10:02:33.918Z</time></trkpt><trkpt lat="44.8675217" lon="8.0161433"><ele>209.00000000000003</ele><time>2026-04-19T10:02:36.919Z</time></trkpt><trkpt lat="44.8674533" lon="8.0162733"><ele>209.0</ele><time>2026-04-19T10:02:38.919Z</time></trkpt><trkpt lat="44.8674383" lon="8.0163933"><ele>209.0</ele><time>2026-04-19T10:02:40.919Z</time></trkpt><trkpt lat="44.86752" lon="8.0165"><ele>209.0</ele><time>2026-04-19T10:02:42.918Z</time></trkpt><trkpt lat="44.8675983" lon="8.0165417"><ele>209.0</ele><time>2026-04-19T10:02:43.918Z</time></trkpt><trkpt lat="44.8676933" lon="8.01658"><ele>209.0</ele><time>2026-04-19T10:02:44.919Z</time></trkpt><trkpt lat="44.8677933" lon="8.01661"><ele>209.0</ele><time>2026-04-19T10:02:45.918Z</time></trkpt><trkpt lat="44.8678833" lon="8.016625"><ele>209.0</ele><time>2026-04-19T10:02:46.918Z</time></trkpt><trkpt lat="44.86798" lon="8.016645"><ele>209.0</ele><time>2026-04-19T10:02:47.918Z</time></trkpt><trkpt lat="44.8680783" lon="8.016665"><ele>209.0</ele><time>2026-04-19T10:02:48.919Z</time></trkpt><trkpt lat="44.868185" lon="8.016675"><ele>209.0</ele><time>2026-04-19T10:02:49.918Z</time></trkpt><trkpt lat="44.8682867" lon="8.0166783"><ele>209.0</ele><time>2026-04-19T10:02:50.918Z</time></trkpt><trkpt lat="44.86839" lon="8.0166883"><ele>209.0</ele><time>2026-04-19T10:02:51.918Z</time></trkpt><trkpt lat="44.8684917" lon="8.0166983"><ele>209.0</ele><time>2026-04-19T10:02:52.918Z</time></trkpt><trkpt lat="44.868595" lon="8.0167017"><ele>209.0</ele><time>2026-04-19T10:02:53.919Z</time></trkpt><trkpt lat="44.8686967" lon="8.0167067"><ele>209.0</ele><time>2026-04-19T10:02:54.919Z</time></trkpt><trkpt lat="44.8687917" lon="8.016715"><ele>209.0</ele><time>2026-04-19T10:02:55.919Z</time></trkpt><trkpt lat="44.8688767" lon="8.0167233"><ele>209.00000000000003</ele><time>2026-04-19T10:02:56.919Z</time></trkpt><trkpt lat="44.8689567" lon="8.016735"><ele>209.0</ele><time>2026-04-19T10:02:57.918Z</time></trkpt><trkpt lat="44.869035" lon="8.016735"><ele>209.0</ele><time>2026-04-19T10:02:58.919Z</time></trkpt><trkpt lat="44.8691117" lon="8.0167433"><ele>209.0</ele><time>2026-04-19T10:02:59.919Z</time></trkpt><trkpt lat="44.8691767" lon="8.01675"><ele>209.00000000000003</ele><time>2026-04-19T10:03:00.918Z</time></trkpt><trkpt lat="44.8692767" lon="8.0167783"><ele>209.0</ele><time>2026-04-19T10:03:02.918Z</time></trkpt><trkpt lat="44.8693117" lon="8.0168767"><ele>208.79999999999998</ele><time>2026-04-19T10:03:04.919Z</time></trkpt><trkpt lat="44.8693267" lon="8.0169967"><ele>208.6</ele><time>2026-04-19T10:03:06.919Z</time></trkpt><trkpt lat="44.869325" lon="8.017115"><ele>208.4</ele><time>2026-04-19T10:03:08.918Z</time></trkpt><trkpt lat="44.869335" lon="8.0172567"><ele>208.2</ele><time>2026-04-19T10:03:10.918Z</time></trkpt><trkpt lat="44.8693533" lon="8.0174067"><ele>208.0</ele><time>2026-04-19T10:03:12.919Z</time></trkpt><trkpt lat="44.8693217" lon="8.01753"><ele>208.4</ele><time>2026-04-19T10:03:22.919Z</time></trkpt><trkpt lat="44.869275" lon="8.0176417"><ele>208.8</ele><time>2026-04-19T10:03:24.919Z</time></trkpt><trkpt lat="44.8692183" lon="8.0177383"><ele>209.2</ele><time>2026-04-19T10:03:26.918Z</time></trkpt><trkpt lat="44.8691567" lon="8.0177067"><ele>209.6</ele><time>2026-04-19T10:03:27.918Z</time></trkpt><trkpt lat="44.869065" lon="8.0176083"><ele>210.0</ele><time>2026-04-19T10:03:29.918Z</time></trkpt><trkpt lat="44.868975" lon="8.0175517"><ele>210.0</ele><time>2026-04-19T10:03:31.919Z</time></trkpt><trkpt lat="44.8688833" lon="8.0174933"><ele>210.0</ele><time>2026-04-19T10:03:33.919Z</time></trkpt><trkpt lat="44.8687983" lon="8.01752"><ele>210.0</ele><time>2026-04-19T10:03:35.919Z</time></trkpt><trkpt lat="44.8686867" lon="8.0175183"><ele>210.0</ele><time>2026-04-19T10:03:37.918Z</time></trkpt><trkpt lat="44.8686083" lon="8.0174733"><ele>210.0</ele><time>2026-04-19T10:03:38.918Z</time></trkpt><trkpt lat="44.8685333" lon="8.0174133"><ele>209.83333333333334</ele><time>2026-04-19T10:03:39.918Z</time></trkpt><trkpt lat="44.8684567" lon="8.0173433"><ele>209.66666666666669</ele><time>2026-04-19T10:03:40.918Z</time></trkpt><trkpt lat="44.86839" lon="8.0172783"><ele>209.5</ele><time>2026-04-19T10:03:41.919Z</time></trkpt><trkpt lat="44.8683233" lon="8.0172433"><ele>209.33333333333334</ele><time>2026-04-19T10:03:42.919Z</time></trkpt><trkpt lat="44.86825" lon="8.0172517"><ele>209.16666666666669</ele><time>2026-04-19T10:03:43.918Z</time></trkpt><trkpt lat="44.8681817" lon="8.017275"><ele>209.0</ele><time>2026-04-19T10:03:44.919Z</time></trkpt><trkpt lat="44.8681083" lon="8.0172917"><ele>209.00000000000003</ele><time>2026-04-19T10:03:45.919Z</time></trkpt><trkpt lat="44.8680433" lon="8.017305"><ele>209.0</ele><time>2026-04-19T10:03:46.918Z</time></trkpt><trkpt lat="44.8679717" lon="8.0173017"><ele>209.0</ele><time>2026-04-19T10:03:48.919Z</time></trkpt><trkpt lat="44.867975" lon="8.0172033"><ele>209.0</ele><time>2026-04-19T10:03:51.919Z</time></trkpt><trkpt lat="44.867945" lon="8.017125"><ele>209.00000000000003</ele><time>2026-04-19T10:03:53.918Z</time></trkpt><trkpt lat="44.8678717" lon="8.0170717"><ele>209.0</ele><time>2026-04-19T10:03:55.918Z</time></trkpt><trkpt lat="44.8677767" lon="8.01702"><ele>209.0</ele><time>2026-04-19T10:03:57.918Z</time></trkpt><trkpt lat="44.8676817" lon="8.0170017"><ele>209.0</ele><time>2026-04-19T10:03:59.919Z</time></trkpt><trkpt lat="44.8675933" lon="8.0169833"><ele>209.0</ele><time>2026-04-19T10:04:01.918Z</time></trkpt><trkpt lat="44.8675333" lon="8.01692"><ele>209.0</ele><time>2026-04-19T10:04:03.918Z</time></trkpt><trkpt lat="44.86746" lon="8.0168567"><ele>209.0</ele><time>2026-04-19T10:04:05.918Z</time></trkpt><trkpt lat="44.867345" lon="8.0168017"><ele>209.16666666666669</ele><time>2026-04-19T10:04:07.918Z</time></trkpt><trkpt lat="44.8672667" lon="8.01679"><ele>209.33333333333334</ele><time>2026-04-19T10:04:08.919Z</time></trkpt><trkpt lat="44.867175" lon="8.0167967"><ele>209.5</ele><time>2026-04-19T10:04:09.918Z</time></trkpt><trkpt lat="44.8670867" lon="8.0168017"><ele>209.66666666666669</ele><time>2026-04-19T10:04:10.919Z</time></trkpt><trkpt lat="44.8670233" lon="8.016805"><ele>209.83333333333334</ele><time>2026-04-19T10:04:11.919Z</time></trkpt><trkpt lat="44.8669233" lon="8.0167583"><ele>210.0</ele><time>2026-04-19T10:04:13.919Z</time></trkpt><trkpt lat="44.8668417" lon="8.01673"><ele>210.4</ele><time>2026-04-19T10:04:15.918Z</time></trkpt><trkpt lat="44.8667467" lon="8.016765"><ele>210.8</ele><time>2026-04-19T10:04:17.919Z</time></trkpt><trkpt lat="44.8666483" lon="8.01669"><ele>211.2</ele><time>2026-04-19T10:04:19.918Z</time></trkpt><trkpt lat="44.8666033" lon="8.0166117"><ele>211.6</ele><time>2026-04-19T10:04:20.918Z</time></trkpt><trkpt lat="44.8665567" lon="8.0165433"><ele>212.0</ele><time>2026-04-19T10:04:21.919Z</time></trkpt><trkpt lat="44.8664517" lon="8.0164583"><ele>212.0</ele><time>2026-04-19T10:04:23.918Z</time></trkpt><trkpt lat="44.8663367" lon="8.0164433"><ele>212.0</ele><time>2026-04-19T10:04:25.919Z</time></trkpt><trkpt lat="44.8662517" lon="8.01637"><ele>212.0</ele><time>2026-04-19T10:04:27.919Z</time></trkpt><trkpt lat="44.86617" lon="8.0162933"><ele>212.0</ele><time>2026-04-19T10:04:29.919Z</time></trkpt><trkpt lat="44.8660517" lon="8.0162467"><ele>212.0</ele><time>2026-04-19T10:04:31.918Z</time></trkpt><trkpt lat="44.865985" lon="8.016235"><ele>212.42857142857144</ele><time>2026-04-19T10:04:32.919Z</time></trkpt><trkpt lat="44.865915" lon="8.0162317"><ele>212.85714285714283</ele><time>2026-04-19T10:04:33.918Z</time></trkpt><trkpt lat="44.8658467" lon="8.016235"><ele>213.28571428571428</ele><time>2026-04-19T10:04:34.918Z</time></trkpt><trkpt lat="44.86578" lon="8.0162833"><ele>213.71428571428572</ele><time>2026-04-19T10:04:35.919Z</time></trkpt><trkpt lat="44.8657133" lon="8.0163533"><ele>214.14285714285717</ele><time>2026-04-19T10:04:36.919Z</time></trkpt><trkpt lat="44.8656617" lon="8.0164333"><ele>214.57142857142856</ele><time>2026-04-19T10:04:37.918Z</time></trkpt><trkpt lat="44.8656183" lon="8.01652"><ele>215.0</ele><time>2026-04-19T10:04:38.918Z</time></trkpt><trkpt lat="44.8655517" lon="8.016585"><ele>215.0</ele><time>2026-04-19T10:04:40.919Z</time></trkpt><trkpt lat="44.8654783" lon="8.0165317"><ele>215.0</ele><time>2026-04-19T10:04:42.919Z</time></trkpt><trkpt lat="44.8654167" lon="8.0164517"><ele>215.0</ele><time>2026-04-19T10:04:44.919Z</time></trkpt><trkpt lat="44.8653183" lon="8.016385"><ele>215.0</ele><time>2026-04-19T10:04:53.918Z</time></trkpt><trkpt lat="44.8652133" lon="8.01638"><ele>215.0</ele><time>2026-04-19T10:04:55.919Z</time></trkpt><trkpt lat="44.8651" lon="8.0164117"><ele>214.83333333333334</ele><time>2026-04-19T10:04:57.919Z</time></trkpt><trkpt lat="44.8650383" lon="8.01645"><ele>214.66666666666669</ele><time>2026-04-19T10:04:58.919Z</time></trkpt><trkpt lat="44.8649817" lon="8.0165067"><ele>214.5</ele><time>2026-04-19T10:04:59.919Z</time></trkpt><trkpt lat="44.8649167" lon="8.0166133"><ele>214.33333333333331</ele><time>2026-04-19T10:05:01.918Z</time></trkpt><trkpt lat="44.8648367" lon="8.0166283"><ele>214.16666666666666</ele><time>2026-04-19T10:05:04.918Z</time></trkpt><trkpt lat="44.8647417" lon="8.0166967"><ele>214.0</ele><time>2026-04-19T10:05:06.918Z</time></trkpt><trkpt lat="44.8646483" lon="8.0167733"><ele>213.99999999999997</ele><time>2026-04-19T10:05:08.919Z</time></trkpt><trkpt lat="44.8645633" lon="8.0167867"><ele>214.0</ele><time>2026-04-19T10:05:10.918Z</time></trkpt><trkpt lat="44.86449" lon="8.0167517"><ele>214.0</ele><time>2026-04-19T10:05:12.918Z</time></trkpt><trkpt lat="44.8644483" lon="8.0166783"><ele>214.0</ele><time>2026-04-19T10:05:14.918Z</time></trkpt><trkpt lat="44.8643917" lon="8.0166217"><ele>213.99999999999997</ele><time>2026-04-19T10:05:16.918Z</time></trkpt><trkpt lat="44.8643183" lon="8.0165833"><ele>214.0</ele><time>2026-04-19T10:05:18.918Z</time></trkpt><trkpt lat="44.8642367" lon="8.0165483"><ele>213.79999999999998</ele><time>2026-04-19T10:05:20.919Z</time></trkpt><trkpt lat="44.8641483" lon="8.0165633"><ele>213.59999999999997</ele><time>2026-04-19T10:05:22.918Z</time></trkpt><trkpt lat="44.86407" lon="8.0165933"><ele>213.4</ele><time>2026-04-19T10:05:24.919Z</time></trkpt><trkpt lat="44.8639633" lon="8.0166233"><ele>213.2</ele><time>2026-04-19T10:05:31.919Z</time></trkpt><trkpt lat="44.863825" lon="8.016585"><ele>213.0</ele><time>2026-04-19T10:06:16.918Z</time></trkpt><trkpt lat="44.8637567" lon="8.01659"><ele>212.99999999999997</ele><time>2026-04-19T10:06:34.919Z</time></trkpt><trkpt lat="44.863685" lon="8.0165817"><ele>213.0</ele><time>2026-04-19T10:06:36.918Z</time></trkpt><trkpt lat="44.8636017" lon="8.01656"><ele>213.0</ele><time>2026-04-19T10:06:38.918Z</time></trkpt><trkpt lat="44.863535" lon="8.0165117"><ele>213.0</ele><time>2026-04-19T10:06:40.918Z</time></trkpt><trkpt lat="44.8634717" lon="8.0164983"><ele>213.0</ele><time>2026-04-19T10:06:42.919Z</time></trkpt><trkpt lat="44.8633933" lon="8.0165233"><ele>212.99999999999997</ele><time>2026-04-19T10:06:44.919Z</time></trkpt><trkpt lat="44.8633283" lon="8.0165467"><ele>213.0</ele><time>2026-04-19T10:06:46.918Z</time></trkpt><trkpt lat="44.8632583" lon="8.016585"><ele>213.0</ele><time>2026-04-19T10:06:48.918Z</time></trkpt><trkpt lat="44.8631817" lon="8.0166117"><ele>213.0</ele><time>2026-04-19T10:06:50.918Z</time></trkpt><trkpt lat="44.86311" lon="8.0166333"><ele>213.0</ele><time>2026-04-19T10:06:52.918Z</time></trkpt><trkpt lat="44.8630183" lon="8.0166067"><ele>213.0</ele><time>2026-04-19T10:06:55.919Z</time></trkpt><trkpt lat="44.8629567" lon="8.0165517"><ele>213.0</ele><time>2026-04-19T10:06:57.919Z</time></trkpt><trkpt lat="44.8629083" lon="8.0164917"><ele>213.0</ele><time>2026-04-19T10:06:59.918Z</time></trkpt><trkpt lat="44.8628133" lon="8.0165267"><ele>213.0</ele><time>2026-04-19T10:07:02.918Z</time></trkpt><trkpt lat="44.8627167" lon="8.0166317"><ele>213.0</ele><time>2026-04-19T10:07:03.919Z</time></trkpt><trkpt lat="44.8626067" lon="8.0167267"><ele>213.0</ele><time>2026-04-19T10:07:04.918Z</time></trkpt><trkpt lat="44.862505" lon="8.0168083"><ele>213.0</ele><time>2026-04-19T10:07:05.919Z</time></trkpt><trkpt lat="44.8624133" lon="8.0169083"><ele>214.2</ele><time>2026-04-19T10:07:06.918Z</time></trkpt><trkpt lat="44.8623633" lon="8.0170017"><ele>215.4</ele><time>2026-04-19T10:07:07.918Z</time></trkpt><trkpt lat="44.862335" lon="8.01712"><ele>216.59999999999997</ele><time>2026-04-19T10:07:08.918Z</time></trkpt><trkpt lat="44.86231" lon="8.01726"><ele>217.79999999999998</ele><time>2026-04-19T10:07:09.917Z</time></trkpt><trkpt lat="44.86231" lon="8.0174133"><ele>219.0</ele><time>2026-04-19T10:07:10.917Z</time></trkpt><trkpt lat="44.8623183" lon="8.01756"><ele>220.2</ele><time>2026-04-19T10:07:11.918Z</time></trkpt><trkpt lat="44.8623333" lon="8.0176817"><ele>221.39999999999998</ele><time>2026-04-19T10:07:12.918Z</time></trkpt><trkpt lat="44.8623467" lon="8.0177967"><ele>222.6</ele><time>2026-04-19T10:07:13.918Z</time></trkpt><trkpt lat="44.86239" lon="8.017905"><ele>223.8</ele><time>2026-04-19T10:07:14.917Z</time></trkpt><trkpt lat="44.8624467" lon="8.0180183"><ele>225.0</ele><time>2026-04-19T10:07:15.917Z</time></trkpt><trkpt lat="44.8625333" lon="8.0181617"><ele>229.25</ele><time>2026-04-19T10:07:16.918Z</time></trkpt><trkpt lat="44.8626283" lon="8.0183367"><ele>233.5</ele><time>2026-04-19T10:07:17.917Z</time></trkpt><trkpt lat="44.8627033" lon="8.0184917"><ele>237.75</ele><time>2026-04-19T10:07:18.917Z</time></trkpt><trkpt lat="44.862765" lon="8.0186217"><ele>242.0</ele><time>2026-04-19T10:07:19.918Z</time></trkpt><trkpt lat="44.862805" lon="8.0187283"><ele>242.00000000000003</ele><time>2026-04-19T10:07:20.918Z</time></trkpt><trkpt lat="44.862835" lon="8.018825"><ele>242.0</ele><time>2026-04-19T10:07:21.918Z</time></trkpt><trkpt lat="44.8628467" lon="8.0189433"><ele>242.0</ele><time>2026-04-19T10:07:22.918Z</time></trkpt><trkpt lat="44.8628517" lon="8.019075"><ele>242.0</ele><time>2026-04-19T10:07:23.918Z</time></trkpt><trkpt lat="44.8628517" lon="8.0192033"><ele>242.00000000000003</ele><time>2026-04-19T10:07:24.918Z</time></trkpt><trkpt lat="44.8628367" lon="8.019325"><ele>242.0</ele><time>2026-04-19T10:07:25.917Z</time></trkpt><trkpt lat="44.8628133" lon="8.0194517"><ele>241.75</ele><time>2026-04-19T10:07:26.917Z</time></trkpt><trkpt lat="44.8627867" lon="8.0196067"><ele>241.5</ele><time>2026-04-19T10:07:27.917Z</time></trkpt><trkpt lat="44.8627633" lon="8.0197733"><ele>241.25</ele><time>2026-04-19T10:07:28.918Z</time></trkpt><trkpt lat="44.8627267" lon="8.0199283"><ele>241.0</ele><time>2026-04-19T10:07:29.917Z</time></trkpt><trkpt lat="44.8626867" lon="8.0200817"><ele>241.25</ele><time>2026-04-19T10:07:30.917Z</time></trkpt><trkpt lat="44.8626417" lon="8.0202283"><ele>241.5</ele><time>2026-04-19T10:07:31.917Z</time></trkpt><trkpt lat="44.862595" lon="8.0203833"><ele>241.75</ele><time>2026-04-19T10:07:32.918Z</time></trkpt><trkpt lat="44.8625483" lon="8.0205417"><ele>242.0</ele><time>2026-04-19T10:07:33.917Z</time></trkpt><trkpt lat="44.8625033" lon="8.0207083"><ele>242.8</ele><time>2026-04-19T10:07:34.917Z</time></trkpt><trkpt lat="44.8624917" lon="8.02087"><ele>243.6</ele><time>2026-04-19T10:07:35.918Z</time></trkpt><trkpt lat="44.8624667" lon="8.020985"><ele>244.40000000000003</ele><time>2026-04-19T10:07:36.918Z</time></trkpt><trkpt lat="44.86247" lon="8.0211083"><ele>245.20000000000002</ele><time>2026-04-19T10:07:37.917Z</time></trkpt><trkpt lat="44.86246" lon="8.0212817"><ele>246.0</ele><time>2026-04-19T10:07:39.917Z</time></trkpt><trkpt lat="44.8623833" lon="8.02136"><ele>246.0</ele><time>2026-04-19T10:07:41.917Z</time></trkpt><trkpt lat="44.862315" lon="8.0214767"><ele>246.00000000000003</ele><time>2026-04-19T10:07:43.918Z</time></trkpt><trkpt lat="44.8622767" lon="8.0216667"><ele>246.00000000000003</ele><time>2026-04-19T10:07:45.917Z</time></trkpt><trkpt lat="44.8622583" lon="8.021795"><ele>246.0</ele><time>2026-04-19T10:07:46.917Z</time></trkpt><trkpt lat="44.8622333" lon="8.0219067"><ele>246.0</ele><time>2026-04-19T10:07:47.917Z</time></trkpt><trkpt lat="44.8622133" lon="8.0220067"><ele>246.83333333333334</ele><time>2026-04-19T10:07:48.917Z</time></trkpt><trkpt lat="44.8622017" lon="8.0221017"><ele>247.66666666666669</ele><time>2026-04-19T10:07:49.917Z</time></trkpt><trkpt lat="44.8621833" lon="8.022275"><ele>248.5</ele><time>2026-04-19T10:07:51.917Z</time></trkpt><trkpt lat="44.8621983" lon="8.0223717"><ele>249.33333333333334</ele><time>2026-04-19T10:07:52.917Z</time></trkpt><trkpt lat="44.8622033" lon="8.022465"><ele>250.16666666666669</ele><time>2026-04-19T10:07:53.918Z</time></trkpt><trkpt lat="44.862195" lon="8.02256"><ele>251.0</ele><time>2026-04-19T10:07:54.917Z</time></trkpt><trkpt lat="44.8621717" lon="8.0226583"><ele>252.8</ele><time>2026-04-19T10:07:55.918Z</time></trkpt><trkpt lat="44.86214" lon="8.0227383"><ele>254.60000000000002</ele><time>2026-04-19T10:07:56.917Z</time></trkpt><trkpt lat="44.8620733" lon="8.0228583"><ele>256.4</ele><time>2026-04-19T10:07:58.918Z</time></trkpt><trkpt lat="44.86201" lon="8.0229533"><ele>258.2</ele><time>2026-04-19T10:08:00.918Z</time></trkpt><trkpt lat="44.8619517" lon="8.0230517"><ele>260.0</ele><time>2026-04-19T10:08:02.917Z</time></trkpt><trkpt lat="44.8618983" lon="8.0231783"><ele>260.0</ele><time>2026-04-19T10:08:04.917Z</time></trkpt><trkpt lat="44.8618767" lon="8.0233083"><ele>260.0</ele><time>2026-04-19T10:08:06.918Z</time></trkpt><trkpt lat="44.8618917" lon="8.0234517"><ele>260.0</ele><time>2026-04-19T10:08:08.918Z</time></trkpt><trkpt lat="44.8618833" lon="8.0236067"><ele>260.0</ele><time>2026-04-19T10:08:10.918Z</time></trkpt><trkpt lat="44.8618317" lon="8.0237133"><ele>260.0</ele><time>2026-04-19T10:08:12.917Z</time></trkpt><trkpt lat="44.8617233" lon="8.0237583"><ele>262.6</ele><time>2026-04-19T10:08:14.918Z</time></trkpt><trkpt lat="44.8616083" lon="8.0236967"><ele>265.2</ele><time>2026-04-19T10:08:15.917Z</time></trkpt><trkpt lat="44.8615217" lon="8.0236267"><ele>267.8</ele><time>2026-04-19T10:08:16.917Z</time></trkpt><trkpt lat="44.8614283" lon="8.02356"><ele>270.4</ele><time>2026-04-19T10:08:17.917Z</time></trkpt><trkpt lat="44.86137" lon="8.0234717"><ele>273.0</ele><time>2026-04-19T10:08:18.917Z</time></trkpt><trkpt lat="44.8613033" lon="8.0233783"><ele>271.8333333333333</ele><time>2026-04-19T10:08:19.917Z</time></trkpt><trkpt lat="44.86126" lon="8.0232717"><ele>270.6666666666667</ele><time>2026-04-19T10:08:20.918Z</time></trkpt><trkpt lat="44.8612033" lon="8.0232033"><ele>269.5</ele><time>2026-04-19T10:08:21.917Z</time></trkpt><trkpt lat="44.8611233" lon="8.0231633"><ele>268.33333333333337</ele><time>2026-04-19T10:08:22.917Z</time></trkpt><trkpt lat="44.86106" lon="8.0231283"><ele>267.1666666666667</ele><time>2026-04-19T10:08:23.917Z</time></trkpt><trkpt lat="44.8609583" lon="8.0231667"><ele>266.0</ele><time>2026-04-19T10:08:25.918Z</time></trkpt><trkpt lat="44.8609117" lon="8.023245"><ele>269.83333333333337</ele><time>2026-04-19T10:08:26.917Z</time></trkpt><trkpt lat="44.86085" lon="8.023325"><ele>273.6666666666667</ele><time>2026-04-19T10:08:27.917Z</time></trkpt><trkpt lat="44.8607883" lon="8.02342"><ele>277.5</ele><time>2026-04-19T10:08:28.917Z</time></trkpt><trkpt lat="44.8607367" lon="8.023505"><ele>281.3333333333333</ele><time>2026-04-19T10:08:29.918Z</time></trkpt><trkpt lat="44.860695" lon="8.0235917"><ele>285.16666666666663</ele><time>2026-04-19T10:08:30.917Z</time></trkpt><trkpt lat="44.860665" lon="8.0236717"><ele>289.0</ele><time>2026-04-19T10:08:31.917Z</time></trkpt><trkpt lat="44.86065" lon="8.0237583"><ele>289.0</ele><time>2026-04-19T10:08:32.918Z</time></trkpt><trkpt lat="44.8606183" lon="8.02385"><ele>289.0</ele><time>2026-04-19T10:08:33.918Z</time></trkpt><trkpt lat="44.8605817" lon="8.02393"><ele>289.0</ele><time>2026-04-19T10:08:34.918Z</time></trkpt><trkpt lat="44.8605433" lon="8.0240083"><ele>289.0</ele><time>2026-04-19T10:08:35.917Z</time></trkpt><trkpt lat="44.8605133" lon="8.02409"><ele>289.0</ele><time>2026-04-19T10:08:36.917Z</time></trkpt><trkpt lat="44.8605383" lon="8.024275"><ele>289.0</ele><time>2026-04-19T10:08:38.918Z</time></trkpt><trkpt lat="44.8605983" lon="8.02435"><ele>288.3333333333333</ele><time>2026-04-19T10:08:39.917Z</time></trkpt><trkpt lat="44.860655" lon="8.0244183"><ele>287.66666666666663</ele><time>2026-04-19T10:08:40.917Z</time></trkpt><trkpt lat="44.86071" lon="8.0244783"><ele>287.0</ele><time>2026-04-19T10:08:41.918Z</time></trkpt><trkpt lat="44.8607667" lon="8.0246483"><ele>286.3333333333333</ele><time>2026-04-19T10:08:43.918Z</time></trkpt><trkpt lat="44.8607583" lon="8.0247567"><ele>285.6666666666667</ele><time>2026-04-19T10:08:44.917Z</time></trkpt><trkpt lat="44.8607267" lon="8.0248717"><ele>285.0</ele><time>2026-04-19T10:08:45.917Z</time></trkpt><trkpt lat="44.8606767" lon="8.0249633"><ele>286.4</ele><time>2026-04-19T10:08:46.917Z</time></trkpt><trkpt lat="44.8606133" lon="8.0250467"><ele>287.8</ele><time>2026-04-19T10:08:47.917Z</time></trkpt><trkpt lat="44.860535" lon="8.0251383"><ele>289.2</ele><time>2026-04-19T10:08:48.918Z</time></trkpt><trkpt lat="44.8604617" lon="8.02523"><ele>290.6</ele><time>2026-04-19T10:08:49.917Z</time></trkpt><trkpt lat="44.8603883" lon="8.025325"><ele>292.0</ele><time>2026-04-19T10:08:50.918Z</time></trkpt><trkpt lat="44.8603217" lon="8.025415"><ele>292.0</ele><time>2026-04-19T10:08:51.918Z</time></trkpt><trkpt lat="44.8602583" lon="8.0254983"><ele>292.0</ele><time>2026-04-19T10:08:52.917Z</time></trkpt><trkpt lat="44.860195" lon="8.0255917"><ele>292.0</ele><time>2026-04-19T10:08:53.918Z</time></trkpt><trkpt lat="44.8601283" lon="8.02568"><ele>292.0</ele><time>2026-04-19T10:08:54.917Z</time></trkpt><trkpt lat="44.8600633" lon="8.025765"><ele>292.0</ele><time>2026-04-19T10:08:55.917Z</time></trkpt><trkpt lat="44.8600067" lon="8.0258417"><ele>292.0</ele><time>2026-04-19T10:08:56.917Z</time></trkpt><trkpt lat="44.85996" lon="8.02591"><ele>292.8</ele><time>2026-04-19T10:08:57.918Z</time></trkpt><trkpt lat="44.859875" lon="8.0259917"><ele>293.6</ele><time>2026-04-19T10:08:59.917Z</time></trkpt><trkpt lat="44.8597867" lon="8.0260483"><ele>294.40000000000003</ele><time>2026-04-19T10:09:01.917Z</time></trkpt><trkpt lat="44.8596833" lon="8.0261133"><ele>295.2</ele><time>2026-04-19T10:09:03.918Z</time></trkpt><trkpt lat="44.8596133" lon="8.0261683"><ele>296.0</ele><time>2026-04-19T10:09:04.918Z</time></trkpt><trkpt lat="44.8595267" lon="8.0262333"><ele>296.0</ele><time>2026-04-19T10:09:05.918Z</time></trkpt><trkpt lat="44.8594367" lon="8.0263067"><ele>296.0</ele><time>2026-04-19T10:09:06.918Z</time></trkpt><trkpt lat="44.85935" lon="8.02638"><ele>296.0</ele><time>2026-04-19T10:09:07.917Z</time></trkpt><trkpt lat="44.8592583" lon="8.026465"><ele>296.0</ele><time>2026-04-19T10:09:08.918Z</time></trkpt><trkpt lat="44.8591683" lon="8.02655"><ele>296.0</ele><time>2026-04-19T10:09:09.918Z</time></trkpt><trkpt lat="44.8590683" lon="8.0266317"><ele>296.75</ele><time>2026-04-19T10:09:10.918Z</time></trkpt><trkpt lat="44.858975" lon="8.0267083"><ele>297.5</ele><time>2026-04-19T10:09:11.918Z</time></trkpt><trkpt lat="44.8588717" lon="8.0267967"><ele>298.25</ele><time>2026-04-19T10:09:12.918Z</time></trkpt><trkpt lat="44.85877" lon="8.0268817"><ele>299.0</ele><time>2026-04-19T10:09:13.917Z</time></trkpt><trkpt lat="44.8586783" lon="8.0269783"><ele>299.0</ele><time>2026-04-19T10:09:14.918Z</time></trkpt><trkpt lat="44.8585933" lon="8.0270817"><ele>299.0</ele><time>2026-04-19T10:09:15.917Z</time></trkpt><trkpt lat="44.8585183" lon="8.0272"><ele>299.0</ele><time>2026-04-19T10:09:16.917Z</time></trkpt><trkpt lat="44.85844" lon="8.02731"><ele>299.0</ele><time>2026-04-19T10:09:17.918Z</time></trkpt><trkpt lat="44.8583617" lon="8.0274217"><ele>299.0</ele><time>2026-04-19T10:09:18.917Z</time></trkpt><trkpt lat="44.858285" lon="8.0275417"><ele>297.59999999999997</ele><time>2026-04-19T10:09:19.917Z</time></trkpt><trkpt lat="44.85821" lon="8.0276667"><ele>296.2</ele><time>2026-04-19T10:09:20.917Z</time></trkpt><trkpt lat="44.85813" lon="8.0277767"><ele>294.79999999999995</ele><time>2026-04-19T10:09:21.918Z</time></trkpt><trkpt lat="44.8580583" lon="8.0278683"><ele>293.4</ele><time>2026-04-19T10:09:22.917Z</time></trkpt><trkpt lat="44.8579883" lon="8.027935"><ele>292.0</ele><time>2026-04-19T10:09:23.917Z</time></trkpt><trkpt lat="44.8579133" lon="8.027975"><ele>292.0</ele><time>2026-04-19T10:09:24.918Z</time></trkpt><trkpt lat="44.8578367" lon="8.0279967"><ele>292.0</ele><time>2026-04-19T10:09:25.918Z</time></trkpt><trkpt lat="44.8577683" lon="8.0279983"><ele>292.0</ele><time>2026-04-19T10:09:26.917Z</time></trkpt><trkpt lat="44.8576567" lon="8.0279733"><ele>292.0</ele><time>2026-04-19T10:09:28.917Z</time></trkpt><trkpt lat="44.8576" lon="8.0279333"><ele>292.0</ele><time>2026-04-19T10:09:29.917Z</time></trkpt><trkpt lat="44.857535" lon="8.02786"><ele>292.0</ele><time>2026-04-19T10:09:30.917Z</time></trkpt><trkpt lat="44.8574467" lon="8.0277733"><ele>290.6</ele><time>2026-04-19T10:09:31.918Z</time></trkpt><trkpt lat="44.85735" lon="8.0276817"><ele>289.2</ele><time>2026-04-19T10:09:32.918Z</time></trkpt><trkpt lat="44.857255" lon="8.0275983"><ele>287.8</ele><time>2026-04-19T10:09:33.917Z</time></trkpt><trkpt lat="44.8571567" lon="8.02755"><ele>286.4</ele><time>2026-04-19T10:09:34.918Z</time></trkpt><trkpt lat="44.857065" lon="8.02752"><ele>285.0</ele><time>2026-04-19T10:09:35.918Z</time></trkpt><trkpt lat="44.8569883" lon="8.0274933"><ele>284.0</ele><time>2026-04-19T10:09:36.918Z</time></trkpt><trkpt lat="44.8568983" lon="8.0274333"><ele>283.0</ele><time>2026-04-19T10:09:38.918Z</time></trkpt><trkpt lat="44.8568817" lon="8.0273117"><ele>282.0</ele><time>2026-04-19T10:09:40.918Z</time></trkpt><trkpt lat="44.8568967" lon="8.02712"><ele>281.0</ele><time>2026-04-19T10:09:42.917Z</time></trkpt><trkpt lat="44.856905" lon="8.027"><ele>280.0</ele><time>2026-04-19T10:09:43.918Z</time></trkpt><trkpt lat="44.856925" lon="8.0268633"><ele>280.0</ele><time>2026-04-19T10:09:44.917Z</time></trkpt><trkpt lat="44.8569383" lon="8.0267283"><ele>280.0</ele><time>2026-04-19T10:09:45.918Z</time></trkpt><trkpt lat="44.85694" lon="8.02659"><ele>280.0</ele><time>2026-04-19T10:09:46.918Z</time></trkpt><trkpt lat="44.856945" lon="8.0264583"><ele>280.0</ele><time>2026-04-19T10:09:47.917Z</time></trkpt><trkpt lat="44.856935" lon="8.0263233"><ele>280.0</ele><time>2026-04-19T10:09:48.918Z</time></trkpt><trkpt lat="44.8569183" lon="8.026205"><ele>279.8333333333333</ele><time>2026-04-19T10:09:49.917Z</time></trkpt><trkpt lat="44.856895" lon="8.0260883"><ele>279.66666666666663</ele><time>2026-04-19T10:09:50.917Z</time></trkpt><trkpt lat="44.8568517" lon="8.0259767"><ele>279.5</ele><time>2026-04-19T10:09:51.917Z</time></trkpt><trkpt lat="44.8567933" lon="8.0258733"><ele>279.3333333333333</ele><time>2026-04-19T10:09:52.917Z</time></trkpt><trkpt lat="44.8567317" lon="8.0257883"><ele>279.1666666666667</ele><time>2026-04-19T10:09:53.917Z</time></trkpt><trkpt lat="44.8566567" lon="8.025715"><ele>279.0</ele><time>2026-04-19T10:09:54.918Z</time></trkpt><trkpt lat="44.8565883" lon="8.0256667"><ele>282.3333333333333</ele><time>2026-04-19T10:09:55.917Z</time></trkpt><trkpt lat="44.85652" lon="8.0256433"><ele>285.6666666666667</ele><time>2026-04-19T10:09:56.917Z</time></trkpt><trkpt lat="44.856455" lon="8.025635"><ele>289.0</ele><time>2026-04-19T10:09:57.918Z</time></trkpt><trkpt lat="44.8563883" lon="8.0256383"><ele>292.33333333333337</ele><time>2026-04-19T10:09:58.918Z</time></trkpt><trkpt lat="44.8563217" lon="8.0256483"><ele>295.6666666666667</ele><time>2026-04-19T10:09:59.917Z</time></trkpt><trkpt lat="44.8562017" lon="8.0256767"><ele>299.0</ele><time>2026-04-19T10:10:01.918Z</time></trkpt><trkpt lat="44.8561367" lon="8.0256883"><ele>299.0</ele><time>2026-04-19T10:10:02.918Z</time></trkpt><trkpt lat="44.8560617" lon="8.0257033"><ele>299.0</ele><time>2026-04-19T10:10:03.918Z</time></trkpt><trkpt lat="44.855985" lon="8.0257133"><ele>299.0</ele><time>2026-04-19T10:10:04.918Z</time></trkpt><trkpt lat="44.855915" lon="8.0257233"><ele>299.0</ele><time>2026-04-19T10:10:05.918Z</time></trkpt><trkpt lat="44.8557817" lon="8.02569"><ele>299.0</ele><time>2026-04-19T10:10:07.917Z</time></trkpt><trkpt lat="44.85571" lon="8.0256317"><ele>299.0</ele><time>2026-04-19T10:10:08.917Z</time></trkpt><trkpt lat="44.855635" lon="8.0255633"><ele>298.2</ele><time>2026-04-19T10:10:09.917Z</time></trkpt><trkpt lat="44.8555517" lon="8.0255017"><ele>297.4</ele><time>2026-04-19T10:10:10.918Z</time></trkpt><trkpt lat="44.8554567" lon="8.0254517"><ele>296.6</ele><time>2026-04-19T10:10:11.917Z</time></trkpt><trkpt lat="44.8553617" lon="8.0254067"><ele>295.8</ele><time>2026-04-19T10:10:12.917Z</time></trkpt><trkpt lat="44.8552683" lon="8.025365"><ele>295.0</ele><time>2026-04-19T10:10:13.918Z</time></trkpt><trkpt lat="44.8551667" lon="8.0253283"><ele>293.0</ele><time>2026-04-19T10:10:14.918Z</time></trkpt><trkpt lat="44.8550667" lon="8.0252933"><ele>291.0</ele><time>2026-04-19T10:10:15.918Z</time></trkpt><trkpt lat="44.8549767" lon="8.0252583"><ele>289.0</ele><time>2026-04-19T10:10:16.917Z</time></trkpt><trkpt lat="44.8548833" lon="8.0252267"><ele>287.0</ele><time>2026-04-19T10:10:17.917Z</time></trkpt><trkpt lat="44.8548" lon="8.0251917"><ele>285.0</ele><time>2026-04-19T10:10:18.918Z</time></trkpt><trkpt lat="44.8547283" lon="8.0251667"><ele>285.0</ele><time>2026-04-19T10:10:19.917Z</time></trkpt><trkpt lat="44.8546567" lon="8.025135"><ele>285.0</ele><time>2026-04-19T10:10:20.918Z</time></trkpt><trkpt lat="44.8545983" lon="8.025085"><ele>285.0</ele><time>2026-04-19T10:10:21.918Z</time></trkpt><trkpt lat="44.8545433" lon="8.0249983"><ele>285.0</ele><time>2026-04-19T10:10:22.917Z</time></trkpt><trkpt lat="44.8545033" lon="8.0248933"><ele>285.0</ele><time>2026-04-19T10:10:23.917Z</time></trkpt><trkpt lat="44.8544683" lon="8.0247783"><ele>285.0</ele><time>2026-04-19T10:10:24.917Z</time></trkpt><trkpt lat="44.8544283" lon="8.0246617"><ele>284.4</ele><time>2026-04-19T10:10:25.918Z</time></trkpt><trkpt lat="44.8543733" lon="8.0245567"><ele>283.8</ele><time>2026-04-19T10:10:26.917Z</time></trkpt><trkpt lat="44.8543" lon="8.0244617"><ele>283.2</ele><time>2026-04-19T10:10:27.918Z</time></trkpt><trkpt lat="44.8542083" lon="8.0243717"><ele>282.6</ele><time>2026-04-19T10:10:28.918Z</time></trkpt><trkpt lat="44.8541067" lon="8.0242933"><ele>282.0</ele><time>2026-04-19T10:10:29.918Z</time></trkpt><trkpt lat="44.8540117" lon="8.0242183"><ele>281.8</ele><time>2026-04-19T10:10:30.917Z</time></trkpt><trkpt lat="44.85392" lon="8.0241483"><ele>281.6</ele><time>2026-04-19T10:10:31.918Z</time></trkpt><trkpt lat="44.8538283" lon="8.024085"><ele>281.40000000000003</ele><time>2026-04-19T10:10:32.917Z</time></trkpt><trkpt lat="44.85374" lon="8.0240217"><ele>281.2</ele><time>2026-04-19T10:10:33.918Z</time></trkpt><trkpt lat="44.8536417" lon="8.0239617"><ele>281.0</ele><time>2026-04-19T10:10:34.917Z</time></trkpt><trkpt lat="44.8535433" lon="8.0238983"><ele>280.6</ele><time>2026-04-19T10:10:35.918Z</time></trkpt><trkpt lat="44.853455" lon="8.02382"><ele>280.20000000000005</ele><time>2026-04-19T10:10:36.917Z</time></trkpt><trkpt lat="44.85338" lon="8.023735"><ele>279.79999999999995</ele><time>2026-04-19T10:10:37.917Z</time></trkpt><trkpt lat="44.8533133" lon="8.023655"><ele>279.4</ele><time>2026-04-19T10:10:38.917Z</time></trkpt><trkpt lat="44.8532417" lon="8.0235733"><ele>279.0</ele><time>2026-04-19T10:10:39.917Z</time></trkpt><trkpt lat="44.85317" lon="8.02349"><ele>279.0</ele><time>2026-04-19T10:10:40.917Z</time></trkpt><trkpt lat="44.8530917" lon="8.0234017"><ele>279.0</ele><time>2026-04-19T10:10:41.917Z</time></trkpt><trkpt lat="44.853" lon="8.0233133"><ele>279.0</ele><time>2026-04-19T10:10:42.917Z</time></trkpt><trkpt lat="44.85291" lon="8.0232217"><ele>279.0</ele><time>2026-04-19T10:10:43.918Z</time></trkpt><trkpt lat="44.8528259" lon="8.0231315"><ele>279.0</ele><time>2026-04-19T10:10:44.918Z</time></trkpt><trkpt lat="44.8527427" lon="8.0230594"><ele>277.59999999999997</ele><time>2026-04-19T10:10:45.917Z</time></trkpt><trkpt lat="44.8526638" lon="8.0229993"><ele>276.2</ele><time>2026-04-19T10:10:46.917Z</time></trkpt><trkpt lat="44.8525944" lon="8.0229418"><ele>274.79999999999995</ele><time>2026-04-19T10:10:47.918Z</time></trkpt><trkpt lat="44.8525387" lon="8.0228834"><ele>273.4</ele><time>2026-04-19T10:10:48.917Z</time></trkpt><trkpt lat="44.8524982" lon="8.022734"><ele>272.0</ele><time>2026-04-19T10:10:50.918Z</time></trkpt><trkpt lat="44.8525433" lon="8.0225802"><ele>271.83333333333337</ele><time>2026-04-19T10:10:52.917Z</time></trkpt><trkpt lat="44.8526231" lon="8.0224537"><ele>271.6666666666667</ele><time>2026-04-19T10:10:54.917Z</time></trkpt><trkpt lat="44.8527002" lon="8.0223779"><ele>271.5</ele><time>2026-04-19T10:10:56.917Z</time></trkpt><trkpt lat="44.8527789" lon="8.022422"><ele>271.3333333333333</ele><time>2026-04-19T10:10:58.917Z</time></trkpt><trkpt lat="44.8528236" lon="8.0224862"><ele>271.16666666666663</ele><time>2026-04-19T10:10:59.917Z</time></trkpt><trkpt lat="44.8528655" lon="8.0225549"><ele>271.0</ele><time>2026-04-19T10:11:00.918Z</time></trkpt><trkpt lat="44.852923" lon="8.0226187"><ele>271.0</ele><time>2026-04-19T10:11:01.918Z</time></trkpt><trkpt lat="44.852985" lon="8.0226687"><ele>271.0</ele><time>2026-04-19T10:11:02.918Z</time></trkpt><trkpt lat="44.8530603" lon="8.0226989"><ele>271.0</ele><time>2026-04-19T10:11:03.918Z</time></trkpt><trkpt lat="44.8531347" lon="8.0227294"><ele>271.0</ele><time>2026-04-19T10:11:04.917Z</time></trkpt><trkpt lat="44.8531937" lon="8.0227604"><ele>271.0</ele><time>2026-04-19T10:11:05.917Z</time></trkpt><trkpt lat="44.8532628" lon="8.0227745"><ele>271.0</ele><time>2026-04-19T10:11:06.918Z</time></trkpt><trkpt lat="44.8533499" lon="8.0227715"><ele>271.0</ele><time>2026-04-19T10:11:07.918Z</time></trkpt><trkpt lat="44.8534452" lon="8.0227426"><ele>269.66666666666663</ele><time>2026-04-19T10:11:08.918Z</time></trkpt><trkpt lat="44.8535182" lon="8.0227142"><ele>268.3333333333333</ele><time>2026-04-19T10:11:09.918Z</time></trkpt><trkpt lat="44.8535807" lon="8.0226966"><ele>267.0</ele><time>2026-04-19T10:11:10.918Z</time></trkpt><trkpt lat="44.8536978" lon="8.0227059"><ele>265.6666666666667</ele><time>2026-04-19T10:11:12.917Z</time></trkpt><trkpt lat="44.8537619" lon="8.0227269"><ele>264.33333333333337</ele><time>2026-04-19T10:11:13.918Z</time></trkpt><trkpt lat="44.8538321" lon="8.0227431"><ele>263.0</ele><time>2026-04-19T10:11:14.917Z</time></trkpt><trkpt lat="44.8539038" lon="8.0227585"><ele>263.0</ele><time>2026-04-19T10:11:15.917Z</time></trkpt><trkpt lat="44.8539817" lon="8.0227589"><ele>263.0</ele><time>2026-04-19T10:11:16.918Z</time></trkpt><trkpt lat="44.8540776" lon="8.0227439"><ele>263.0</ele><time>2026-04-19T10:11:17.917Z</time></trkpt><trkpt lat="44.8541611" lon="8.0227205"><ele>263.0</ele><time>2026-04-19T10:11:18.918Z</time></trkpt><trkpt lat="44.8542378" lon="8.0227031"><ele>263.0</ele><time>2026-04-19T10:11:19.918Z</time></trkpt><trkpt lat="44.854316" lon="8.0226949"><ele>263.0</ele><time>2026-04-19T10:11:20.917Z</time></trkpt><trkpt lat="44.8543832" lon="8.0226853"><ele>262.33333333333337</ele><time>2026-04-19T10:11:21.917Z</time></trkpt><trkpt lat="44.8544617" lon="8.0226759"><ele>261.6666666666667</ele><time>2026-04-19T10:11:22.918Z</time></trkpt><trkpt lat="44.8545463" lon="8.022662"><ele>261.0</ele><time>2026-04-19T10:11:23.917Z</time></trkpt><trkpt lat="44.8546339" lon="8.0226367"><ele>260.3333333333333</ele><time>2026-04-19T10:11:24.918Z</time></trkpt><trkpt lat="44.8547251" lon="8.0226042"><ele>259.66666666666663</ele><time>2026-04-19T10:11:25.917Z</time></trkpt><trkpt lat="44.8548039" lon="8.0225856"><ele>259.0</ele><time>2026-04-19T10:11:26.917Z</time></trkpt><trkpt lat="44.8548867" lon="8.0225672"><ele>259.0</ele><time>2026-04-19T10:11:27.917Z</time></trkpt><trkpt lat="44.8549715" lon="8.0225271"><ele>259.0</ele><time>2026-04-19T10:11:28.917Z</time></trkpt><trkpt lat="44.855056" lon="8.0224616"><ele>259.0</ele><time>2026-04-19T10:11:29.918Z</time></trkpt><trkpt lat="44.8551325" lon="8.0223786"><ele>259.0</ele><time>2026-04-19T10:11:30.918Z</time></trkpt><trkpt lat="44.8552127" lon="8.0222837"><ele>259.0</ele><time>2026-04-19T10:11:31.917Z</time></trkpt><trkpt lat="44.8552867" lon="8.0221783"><ele>258.2</ele><time>2026-04-19T10:11:32.918Z</time></trkpt><trkpt lat="44.8553667" lon="8.022095"><ele>257.4</ele><time>2026-04-19T10:11:33.917Z</time></trkpt><trkpt lat="44.8554533" lon="8.0219933"><ele>256.6</ele><time>2026-04-19T10:11:34.918Z</time></trkpt><trkpt lat="44.8555283" lon="8.0218967"><ele>255.8</ele><time>2026-04-19T10:11:35.918Z</time></trkpt><trkpt lat="44.8556017" lon="8.0218017"><ele>255.0</ele><time>2026-04-19T10:11:36.917Z</time></trkpt><trkpt lat="44.8556683" lon="8.0217117"><ele>255.2</ele><time>2026-04-19T10:11:37.917Z</time></trkpt><trkpt lat="44.855735" lon="8.02161"><ele>255.4</ele><time>2026-04-19T10:11:38.918Z</time></trkpt><trkpt lat="44.855795" lon="8.0215083"><ele>255.60000000000002</ele><time>2026-04-19T10:11:39.917Z</time></trkpt><trkpt lat="44.8558533" lon="8.0214283"><ele>255.8</ele><time>2026-04-19T10:11:40.917Z</time></trkpt><trkpt lat="44.85591" lon="8.0213533"><ele>256.0</ele><time>2026-04-19T10:11:41.918Z</time></trkpt><trkpt lat="44.855995" lon="8.0212667"><ele>254.0</ele><time>2026-04-19T10:11:42.917Z</time></trkpt><trkpt lat="44.8560983" lon="8.021195"><ele>252.0</ele><time>2026-04-19T10:11:43.918Z</time></trkpt><trkpt lat="44.8561967" lon="8.02112"><ele>250.0</ele><time>2026-04-19T10:11:44.918Z</time></trkpt><trkpt lat="44.8562933" lon="8.0210533"><ele>248.0</ele><time>2026-04-19T10:11:45.917Z</time></trkpt><trkpt lat="44.8563933" lon="8.02097"><ele>248.0</ele><time>2026-04-19T10:11:46.918Z</time></trkpt><trkpt lat="44.8564933" lon="8.02086"><ele>248.0</ele><time>2026-04-19T10:11:47.917Z</time></trkpt><trkpt lat="44.8565983" lon="8.020755"><ele>248.0</ele><time>2026-04-19T10:11:48.918Z</time></trkpt><trkpt lat="44.856705" lon="8.0206717"><ele>248.0</ele><time>2026-04-19T10:11:49.918Z</time></trkpt><trkpt lat="44.85681" lon="8.0205883"><ele>247.5</ele><time>2026-04-19T10:11:50.917Z</time></trkpt><trkpt lat="44.85692" lon="8.0205267"><ele>247.0</ele><time>2026-04-19T10:11:51.917Z</time></trkpt><trkpt lat="44.85702" lon="8.0204783"><ele>246.5</ele><time>2026-04-19T10:11:52.917Z</time></trkpt><trkpt lat="44.8571333" lon="8.0204383"><ele>246.0</ele><time>2026-04-19T10:11:53.918Z</time></trkpt><trkpt lat="44.8572617" lon="8.0203917"><ele>246.0</ele><time>2026-04-19T10:11:54.918Z</time></trkpt><trkpt lat="44.8573967" lon="8.0203417"><ele>246.0</ele><time>2026-04-19T10:11:55.918Z</time></trkpt><trkpt lat="44.85751" lon="8.0202867"><ele>246.0</ele><time>2026-04-19T10:11:56.918Z</time></trkpt><trkpt lat="44.8576367" lon="8.02025"><ele>246.0</ele><time>2026-04-19T10:11:57.918Z</time></trkpt><trkpt lat="44.8577717" lon="8.0202367"><ele>245.75</ele><time>2026-04-19T10:11:58.917Z</time></trkpt><trkpt lat="44.8579167" lon="8.0202433"><ele>245.5</ele><time>2026-04-19T10:11:59.918Z</time></trkpt><trkpt lat="44.858055" lon="8.0202517"><ele>245.25</ele><time>2026-04-19T10:12:00.917Z</time></trkpt><trkpt lat="44.85819" lon="8.0202667"><ele>245.0</ele><time>2026-04-19T10:12:01.918Z</time></trkpt><trkpt lat="44.8583167" lon="8.02029"><ele>245.0</ele><time>2026-04-19T10:12:02.917Z</time></trkpt><trkpt lat="44.8584267" lon="8.0203183"><ele>245.0</ele><time>2026-04-19T10:12:03.917Z</time></trkpt><trkpt lat="44.8585067" lon="8.0203467"><ele>245.0</ele><time>2026-04-19T10:12:04.918Z</time></trkpt><trkpt lat="44.85858" lon="8.0203683"><ele>245.0</ele><time>2026-04-19T10:12:05.918Z</time></trkpt><trkpt lat="44.858645" lon="8.0203933"><ele>245.0</ele><time>2026-04-19T10:12:06.918Z</time></trkpt><trkpt lat="44.8587633" lon="8.020445"><ele>243.0</ele><time>2026-04-19T10:12:08.917Z</time></trkpt><trkpt lat="44.85887" lon="8.0204183"><ele>241.0</ele><time>2026-04-19T10:12:10.918Z</time></trkpt><trkpt lat="44.85896" lon="8.0203133"><ele>239.0</ele><time>2026-04-19T10:12:12.917Z</time></trkpt><trkpt lat="44.8590017" lon="8.0202417"><ele>237.0</ele><time>2026-04-19T10:12:13.917Z</time></trkpt><trkpt lat="44.8590867" lon="8.0201333"><ele>235.0</ele><time>2026-04-19T10:12:15.917Z</time></trkpt><trkpt lat="44.85915" lon="8.0199867"><ele>235.99999999999997</ele><time>2026-04-19T10:12:17.918Z</time></trkpt><trkpt lat="44.8591867" lon="8.0199033"><ele>237.0</ele><time>2026-04-19T10:12:18.917Z</time></trkpt><trkpt lat="44.8592383" lon="8.019825"><ele>238.0</ele><time>2026-04-19T10:12:19.917Z</time></trkpt><trkpt lat="44.8592833" lon="8.01975"><ele>239.0</ele><time>2026-04-19T10:12:20.917Z</time></trkpt><trkpt lat="44.8593417" lon="8.0196467"><ele>239.99999999999997</ele><time>2026-04-19T10:12:21.918Z</time></trkpt><trkpt lat="44.8594056" lon="8.0195319"><ele>241.0</ele><time>2026-04-19T10:12:22.918Z</time></trkpt><trkpt lat="44.8594738" lon="8.0194254"><ele>239.16666666666666</ele><time>2026-04-19T10:12:23.918Z</time></trkpt><trkpt lat="44.8595458" lon="8.0193144"><ele>237.33333333333331</ele><time>2026-04-19T10:12:24.917Z</time></trkpt><trkpt lat="44.8595953" lon="8.019215"><ele>235.5</ele><time>2026-04-19T10:12:25.917Z</time></trkpt><trkpt lat="44.8596301" lon="8.019127"><ele>233.66666666666669</ele><time>2026-04-19T10:12:26.918Z</time></trkpt><trkpt lat="44.8596485" lon="8.0190386"><ele>231.83333333333334</ele><time>2026-04-19T10:12:27.917Z</time></trkpt><trkpt lat="44.8596547" lon="8.0189384"><ele>230.0</ele><time>2026-04-19T10:12:28.917Z</time></trkpt><trkpt lat="44.8596556" lon="8.0188131"><ele>230.00000000000003</ele><time>2026-04-19T10:12:29.918Z</time></trkpt><trkpt lat="44.859666" lon="8.0186685"><ele>230.0</ele><time>2026-04-19T10:12:30.918Z</time></trkpt><trkpt lat="44.8596854" lon="8.0185415"><ele>230.0</ele><time>2026-04-19T10:12:31.918Z</time></trkpt><trkpt lat="44.8597088" lon="8.0184435"><ele>230.0</ele><time>2026-04-19T10:12:32.917Z</time></trkpt><trkpt lat="44.8597508" lon="8.018357"><ele>230.00000000000003</ele><time>2026-04-19T10:12:33.917Z</time></trkpt><trkpt lat="44.859814" lon="8.018274"><ele>230.0</ele><time>2026-04-19T10:12:34.918Z</time></trkpt><trkpt lat="44.8599012" lon="8.0181813"><ele>231.00000000000003</ele><time>2026-04-19T10:12:35.918Z</time></trkpt><trkpt lat="44.8599852" lon="8.0180884"><ele>232.0</ele><time>2026-04-19T10:12:36.918Z</time></trkpt><trkpt lat="44.8600479" lon="8.0179996"><ele>233.0</ele><time>2026-04-19T10:12:37.918Z</time></trkpt><trkpt lat="44.8600872" lon="8.0179213"><ele>234.0</ele><time>2026-04-19T10:12:38.918Z</time></trkpt><trkpt lat="44.8601133" lon="8.0177823"><ele>235.00000000000003</ele><time>2026-04-19T10:12:40.917Z</time></trkpt><trkpt lat="44.8601067" lon="8.0176927"><ele>236.0</ele><time>2026-04-19T10:12:41.918Z</time></trkpt><trkpt lat="44.8600706" lon="8.0175862"><ele>236.4</ele><time>2026-04-19T10:12:42.918Z</time></trkpt><trkpt lat="44.8600223" lon="8.0174616"><ele>236.8</ele><time>2026-04-19T10:12:43.918Z</time></trkpt><trkpt lat="44.8599689" lon="8.0173358"><ele>237.20000000000002</ele><time>2026-04-19T10:12:44.917Z</time></trkpt><trkpt lat="44.8598968" lon="8.0172297"><ele>237.60000000000002</ele><time>2026-04-19T10:12:45.918Z</time></trkpt><trkpt lat="44.8598246" lon="8.0171429"><ele>238.0</ele><time>2026-04-19T10:12:46.918Z</time></trkpt><trkpt lat="44.8597153" lon="8.0171174"><ele>238.0</ele><time>2026-04-19T10:12:47.917Z</time></trkpt><trkpt lat="44.8595974" lon="8.0171184"><ele>238.0</ele><time>2026-04-19T10:12:48.917Z</time></trkpt><trkpt lat="44.8594624" lon="8.0171477"><ele>238.0</ele><time>2026-04-19T10:12:49.917Z</time></trkpt><trkpt lat="44.8593268" lon="8.017203"><ele>238.0</ele><time>2026-04-19T10:12:50.917Z</time></trkpt><trkpt lat="44.8591904" lon="8.0172774"><ele>238.75</ele><time>2026-04-19T10:12:51.917Z</time></trkpt><trkpt lat="44.8590589" lon="8.0173542"><ele>239.5</ele><time>2026-04-19T10:12:52.917Z</time></trkpt><trkpt lat="44.8589206" lon="8.0174306"><ele>240.25</ele><time>2026-04-19T10:12:53.917Z</time></trkpt><trkpt lat="44.8587848" lon="8.0175094"><ele>241.0</ele><time>2026-04-19T10:12:54.917Z</time></trkpt><trkpt lat="44.8586705" lon="8.017588"><ele>241.99999999999997</ele><time>2026-04-19T10:12:55.917Z</time></trkpt><trkpt lat="44.8585795" lon="8.0176761"><ele>243.0</ele><time>2026-04-19T10:12:56.918Z</time></trkpt><trkpt lat="44.8585096" lon="8.017785"><ele>244.0</ele><time>2026-04-19T10:12:57.917Z</time></trkpt><trkpt lat="44.8584625" lon="8.0178801"><ele>245.0</ele><time>2026-04-19T10:12:58.918Z</time></trkpt><trkpt lat="44.8584283" lon="8.017955"><ele>245.99999999999997</ele><time>2026-04-19T10:12:59.918Z</time></trkpt><trkpt lat="44.8583481" lon="8.0179453"><ele>247.0</ele><time>2026-04-19T10:13:02.918Z</time></trkpt><trkpt lat="44.8582625" lon="8.0179168"><ele>248.0</ele><time>2026-04-19T10:13:04.918Z</time></trkpt><trkpt lat="44.8581761" lon="8.017891"><ele>249.0</ele><time>2026-04-19T10:13:06.918Z</time></trkpt><trkpt lat="44.8581474" lon="8.0177872"><ele>250.0</ele><time>2026-04-19T10:13:09.917Z</time></trkpt><trkpt lat="44.858185" lon="8.01768"><ele>251.0</ele><time>2026-04-19T10:13:11.918Z</time></trkpt><trkpt lat="44.8582067" lon="8.0175583"><ele>252.0</ele><time>2026-04-19T10:13:13.917Z</time></trkpt><trkpt lat="44.85823" lon="8.017405"><ele>252.0</ele><time>2026-04-19T10:13:15.917Z</time></trkpt><trkpt lat="44.8582733" lon="8.0172683"><ele>252.0</ele><time>2026-04-19T10:13:17.918Z</time></trkpt><trkpt lat="44.8583183" lon="8.0171483"><ele>252.0</ele><time>2026-04-19T10:13:19.918Z</time></trkpt><trkpt lat="44.85838" lon="8.01704"><ele>252.0</ele><time>2026-04-19T10:13:21.917Z</time></trkpt><trkpt lat="44.858465" lon="8.016975"><ele>252.0</ele><time>2026-04-19T10:13:23.917Z</time></trkpt><trkpt lat="44.8585583" lon="8.016905"><ele>250.6</ele><time>2026-04-19T10:13:26.918Z</time></trkpt><trkpt lat="44.858655" lon="8.0168367"><ele>249.2</ele><time>2026-04-19T10:13:28.917Z</time></trkpt><trkpt lat="44.858715" lon="8.016765"><ele>247.8</ele><time>2026-04-19T10:13:30.917Z</time></trkpt><trkpt lat="44.8587683" lon="8.0166083"><ele>246.4</ele><time>2026-04-19T10:13:32.917Z</time></trkpt><trkpt lat="44.8587717" lon="8.0164917"><ele>245.0</ele><time>2026-04-19T10:13:34.918Z</time></trkpt><trkpt lat="44.8587833" lon="8.0164"><ele>245.00000000000003</ele><time>2026-04-19T10:13:36.918Z</time></trkpt><trkpt lat="44.8588017" lon="8.0162917"><ele>245.0</ele><time>2026-04-19T10:13:39.918Z</time></trkpt><trkpt lat="44.8587633" lon="8.0162067"><ele>245.0</ele><time>2026-04-19T10:13:42.917Z</time></trkpt><trkpt lat="44.85869" lon="8.0162167"><ele>245.0</ele><time>2026-04-19T10:13:45.917Z</time></trkpt><trkpt lat="44.858615" lon="8.016185"><ele>245.00000000000003</ele><time>2026-04-19T10:13:48.918Z</time></trkpt><trkpt lat="44.8585417" lon="8.0161817"><ele>245.0</ele><time>2026-04-19T10:13:50.918Z</time></trkpt><trkpt lat="44.8584117" lon="8.0162033"><ele>246.50000000000003</ele><time>2026-04-19T10:13:52.917Z</time></trkpt><trkpt lat="44.8582967" lon="8.0161733"><ele>248.0</ele><time>2026-04-19T10:13:54.917Z</time></trkpt><trkpt lat="44.85819" lon="8.01612"><ele>249.5</ele><time>2026-04-19T10:13:56.917Z</time></trkpt><trkpt lat="44.85812" lon="8.0160767"><ele>251.0</ele><time>2026-04-19T10:13:57.918Z</time></trkpt><trkpt lat="44.8580567" lon="8.0160383"><ele>252.50000000000003</ele><time>2026-04-19T10:13:58.918Z</time></trkpt><trkpt lat="44.8579867" lon="8.0160283"><ele>254.0</ele><time>2026-04-19T10:13:59.918Z</time></trkpt><trkpt lat="44.8579183" lon="8.0160417"><ele>254.0</ele><time>2026-04-19T10:14:00.917Z</time></trkpt><trkpt lat="44.857822" lon="8.0160799"><ele>254.0</ele><time>2026-04-19T10:14:02.917Z</time></trkpt><trkpt lat="44.857788" lon="8.0159959"><ele>254.0</ele><time>2026-04-19T10:14:05.918Z</time></trkpt><trkpt lat="44.8577429" lon="8.0159129"><ele>254.0</ele><time>2026-04-19T10:14:08.918Z</time></trkpt><trkpt lat="44.8576823" lon="8.0158718"><ele>254.0</ele><time>2026-04-19T10:14:10.917Z</time></trkpt><trkpt lat="44.857627" lon="8.015821"><ele>254.0</ele><time>2026-04-19T10:14:12.917Z</time></trkpt><trkpt lat="44.8575686" lon="8.0157671"><ele>254.0</ele><time>2026-04-19T10:14:14.917Z</time></trkpt><trkpt lat="44.8575067" lon="8.015721"><ele>253.16666666666669</ele><time>2026-04-19T10:14:16.917Z</time></trkpt><trkpt lat="44.8574701" lon="8.0156299"><ele>252.33333333333334</ele><time>2026-04-19T10:14:19.917Z</time></trkpt><trkpt lat="44.8574766" lon="8.0155184"><ele>251.5</ele><time>2026-04-19T10:14:22.917Z</time></trkpt><trkpt lat="44.8574868" lon="8.0153945"><ele>250.66666666666669</ele><time>2026-04-19T10:14:24.918Z</time></trkpt><trkpt lat="44.8574864" lon="8.0152981"><ele>249.83333333333334</ele><time>2026-04-19T10:14:26.917Z</time></trkpt><trkpt lat="44.8574458" lon="8.0151849"><ele>249.0</ele><time>2026-04-19T10:14:29.917Z</time></trkpt><trkpt lat="44.8574342" lon="8.0150632"><ele>249.0</ele><time>2026-04-19T10:14:32.917Z</time></trkpt><trkpt lat="44.8573692" lon="8.015016"><ele>248.99999999999997</ele><time>2026-04-19T10:14:35.917Z</time></trkpt><trkpt lat="44.8572722" lon="8.014996"><ele>248.99999999999997</ele><time>2026-04-19T10:14:38.918Z</time></trkpt><trkpt lat="44.8571878" lon="8.0149296"><ele>249.0</ele><time>2026-04-19T10:14:40.917Z</time></trkpt><trkpt lat="44.8571215" lon="8.0148237"><ele>249.0</ele><time>2026-04-19T10:14:42.917Z</time></trkpt><trkpt lat="44.8570653" lon="8.0147197"><ele>246.66666666666666</ele><time>2026-04-19T10:14:44.917Z</time></trkpt><trkpt lat="44.8569999" lon="8.0146786"><ele>244.33333333333331</ele><time>2026-04-19T10:14:46.918Z</time></trkpt><trkpt lat="44.8569087" lon="8.0146939"><ele>242.0</ele><time>2026-04-19T10:14:48.917Z</time></trkpt><trkpt lat="44.8568183" lon="8.0146283"><ele>239.66666666666666</ele><time>2026-04-19T10:14:50.917Z</time></trkpt><trkpt lat="44.8567933" lon="8.0145467"><ele>237.33333333333331</ele><time>2026-04-19T10:14:52.918Z</time></trkpt><trkpt lat="44.8568467" lon="8.0144517"><ele>235.0</ele><time>2026-04-19T10:14:54.917Z</time></trkpt><trkpt lat="44.856905" lon="8.0143183"><ele>235.0</ele><time>2026-04-19T10:14:56.917Z</time></trkpt><trkpt lat="44.856965" lon="8.014195"><ele>235.0</ele><time>2026-04-19T10:14:58.917Z</time></trkpt><trkpt lat="44.8570267" lon="8.0140467"><ele>235.0</ele><time>2026-04-19T10:15:00.918Z</time></trkpt><trkpt lat="44.8570467" lon="8.01395"><ele>235.0</ele><time>2026-04-19T10:15:02.917Z</time></trkpt><trkpt lat="44.8569433" lon="8.0139817"><ele>235.0</ele><time>2026-04-19T10:15:06.918Z</time></trkpt><trkpt lat="44.8568883" lon="8.0140383"><ele>235.0</ele><time>2026-04-19T10:15:07.917Z</time></trkpt><trkpt lat="44.8568333" lon="8.0141"><ele>235.0</ele><time>2026-04-19T10:15:08.918Z</time></trkpt><trkpt lat="44.856765" lon="8.0141583"><ele>235.0</ele><time>2026-04-19T10:15:09.918Z</time></trkpt><trkpt lat="44.856645" lon="8.0142467"><ele>235.0</ele><time>2026-04-19T10:15:11.917Z</time></trkpt><trkpt lat="44.8565483" lon="8.0142883"><ele>235.0</ele><time>2026-04-19T10:15:12.918Z</time></trkpt><trkpt lat="44.8564367" lon="8.0143317"><ele>235.8</ele><time>2026-04-19T10:15:13.918Z</time></trkpt><trkpt lat="44.85634" lon="8.014375"><ele>236.6</ele><time>2026-04-19T10:15:14.918Z</time></trkpt><trkpt lat="44.85625" lon="8.0144167"><ele>237.39999999999998</ele><time>2026-04-19T10:15:15.917Z</time></trkpt><trkpt lat="44.8561583" lon="8.0144617"><ele>238.2</ele><time>2026-04-19T10:15:16.917Z</time></trkpt><trkpt lat="44.8560667" lon="8.0145067"><ele>239.0</ele><time>2026-04-19T10:15:17.917Z</time></trkpt><trkpt lat="44.8559533" lon="8.0145533"><ele>241.0</ele><time>2026-04-19T10:15:18.917Z</time></trkpt><trkpt lat="44.85585" lon="8.0145883"><ele>242.99999999999997</ele><time>2026-04-19T10:15:19.917Z</time></trkpt><trkpt lat="44.8557367" lon="8.014625"><ele>244.99999999999997</ele><time>2026-04-19T10:15:20.918Z</time></trkpt><trkpt lat="44.8556283" lon="8.0146617"><ele>247.0</ele><time>2026-04-19T10:15:21.918Z</time></trkpt><trkpt lat="44.85552" lon="8.014695"><ele>249.0</ele><time>2026-04-19T10:15:22.918Z</time></trkpt><trkpt lat="44.8554167" lon="8.0147267"><ele>249.0</ele><time>2026-04-19T10:15:23.917Z</time></trkpt><trkpt lat="44.85532" lon="8.0147533"><ele>248.99999999999997</ele><time>2026-04-19T10:15:24.918Z</time></trkpt><trkpt lat="44.8552233" lon="8.014775"><ele>248.99999999999997</ele><time>2026-04-19T10:15:25.917Z</time></trkpt><trkpt lat="44.8551333" lon="8.0148033"><ele>249.0</ele><time>2026-04-19T10:15:26.917Z</time></trkpt><trkpt lat="44.855055" lon="8.0148383"><ele>249.0</ele><time>2026-04-19T10:15:27.918Z</time></trkpt><trkpt lat="44.8549683" lon="8.0148783"><ele>248.33333333333334</ele><time>2026-04-19T10:15:28.918Z</time></trkpt><trkpt lat="44.85488" lon="8.0149317"><ele>247.66666666666669</ele><time>2026-04-19T10:15:29.917Z</time></trkpt><trkpt lat="44.854805" lon="8.01498"><ele>247.0</ele><time>2026-04-19T10:15:30.917Z</time></trkpt><trkpt lat="44.85474" lon="8.015025"><ele>246.33333333333334</ele><time>2026-04-19T10:15:31.917Z</time></trkpt><trkpt lat="44.8546733" lon="8.0150667"><ele>245.66666666666669</ele><time>2026-04-19T10:15:32.918Z</time></trkpt><trkpt lat="44.8545983" lon="8.0151033"><ele>245.0</ele><time>2026-04-19T10:15:33.917Z</time></trkpt><trkpt lat="44.8545167" lon="8.015135"><ele>246.8</ele><time>2026-04-19T10:15:34.917Z</time></trkpt><trkpt lat="44.8544267" lon="8.0151867"><ele>248.6</ele><time>2026-04-19T10:15:35.917Z</time></trkpt><trkpt lat="44.8543167" lon="8.015255"><ele>250.39999999999998</ele><time>2026-04-19T10:15:36.918Z</time></trkpt><trkpt lat="44.85422" lon="8.015325"><ele>252.2</ele><time>2026-04-19T10:15:37.917Z</time></trkpt><trkpt lat="44.85413" lon="8.0154083"><ele>254.0</ele><time>2026-04-19T10:15:38.917Z</time></trkpt><trkpt lat="44.85405" lon="8.0154867"><ele>254.00000000000003</ele><time>2026-04-19T10:15:39.917Z</time></trkpt><trkpt lat="44.853975" lon="8.0155583"><ele>254.0</ele><time>2026-04-19T10:15:40.917Z</time></trkpt><trkpt lat="44.853905" lon="8.0156367"><ele>254.0</ele><time>2026-04-19T10:15:41.918Z</time></trkpt><trkpt lat="44.85384" lon="8.0157117"><ele>254.0</ele><time>2026-04-19T10:15:42.917Z</time></trkpt><trkpt lat="44.8537733" lon="8.01578"><ele>254.00000000000003</ele><time>2026-04-19T10:15:43.917Z</time></trkpt><trkpt lat="44.8537067" lon="8.0158417"><ele>254.0</ele><time>2026-04-19T10:15:44.917Z</time></trkpt><trkpt lat="44.8536517" lon="8.01589"><ele>254.00000000000003</ele><time>2026-04-19T10:15:45.918Z</time></trkpt><trkpt lat="44.8535917" lon="8.0159367"><ele>254.0</ele><time>2026-04-19T10:15:47.918Z</time></trkpt><trkpt lat="44.85366" lon="8.01581"><ele>254.0</ele><time>2026-04-19T10:15:56.917Z</time></trkpt><trkpt lat="44.853745" lon="8.0156967"><ele>254.0</ele><time>2026-04-19T10:15:58.917Z</time></trkpt><trkpt lat="44.8538" lon="8.0156333"><ele>254.00000000000003</ele><time>2026-04-19T10:15:59.917Z</time></trkpt><trkpt lat="44.8538567" lon="8.0155683"><ele>254.0</ele><time>2026-04-19T10:16:00.917Z</time></trkpt><trkpt lat="44.853935" lon="8.015465"><ele>254.0</ele><time>2026-04-19T10:16:02.918Z</time></trkpt><trkpt lat="44.854015" lon="8.0153567"><ele>253.99999999999997</ele><time>2026-04-19T10:16:04.917Z</time></trkpt><trkpt lat="44.8540967" lon="8.0152383"><ele>253.99999999999997</ele><time>2026-04-19T10:16:06.917Z</time></trkpt><trkpt lat="44.85415" lon="8.0151833"><ele>254.0</ele><time>2026-04-19T10:16:07.918Z</time></trkpt><trkpt lat="44.854245" lon="8.0150783"><ele>254.0</ele><time>2026-04-19T10:16:09.917Z</time></trkpt><trkpt lat="44.85429" lon="8.01501"><ele>251.75</ele><time>2026-04-19T10:16:10.918Z</time></trkpt><trkpt lat="44.8543583" lon="8.0148917"><ele>249.5</ele><time>2026-04-19T10:16:12.918Z</time></trkpt><trkpt lat="44.8544267" lon="8.014785"><ele>247.25</ele><time>2026-04-19T10:16:14.918Z</time></trkpt><trkpt lat="44.85451" lon="8.014665"><ele>245.0</ele><time>2026-04-19T10:16:16.917Z</time></trkpt><trkpt lat="44.8545933" lon="8.01454"><ele>245.0</ele><time>2026-04-19T10:16:18.917Z</time></trkpt><trkpt lat="44.8546783" lon="8.014445"><ele>245.0</ele><time>2026-04-19T10:16:20.918Z</time></trkpt><trkpt lat="44.85477" lon="8.014385"><ele>245.0</ele><time>2026-04-19T10:16:22.918Z</time></trkpt><trkpt lat="44.8548633" lon="8.01431"><ele>245.0</ele><time>2026-04-19T10:16:24.918Z</time></trkpt><trkpt lat="44.854975" lon="8.0142617"><ele>245.0</ele><time>2026-04-19T10:16:26.917Z</time></trkpt><trkpt lat="44.8550783" lon="8.0141933"><ele>243.4</ele><time>2026-04-19T10:16:28.918Z</time></trkpt><trkpt lat="44.85517" lon="8.0141"><ele>241.8</ele><time>2026-04-19T10:16:30.918Z</time></trkpt><trkpt lat="44.8552283" lon="8.0139367"><ele>240.2</ele><time>2026-04-19T10:16:32.917Z</time></trkpt><trkpt lat="44.8552317" lon="8.0138333"><ele>238.6</ele><time>2026-04-19T10:16:33.918Z</time></trkpt><trkpt lat="44.8552217" lon="8.0137317"><ele>237.0</ele><time>2026-04-19T10:16:34.917Z</time></trkpt><trkpt lat="44.8551917" lon="8.01364"><ele>237.0</ele><time>2026-04-19T10:16:35.917Z</time></trkpt><trkpt lat="44.8551883" lon="8.01355"><ele>237.0</ele><time>2026-04-19T10:16:36.917Z</time></trkpt><trkpt lat="44.85521" lon="8.0134483"><ele>237.0</ele><time>2026-04-19T10:16:37.917Z</time></trkpt><trkpt lat="44.8552917" lon="8.0133367"><ele>237.0</ele><time>2026-04-19T10:16:38.918Z</time></trkpt><trkpt lat="44.8553817" lon="8.0132183"><ele>237.0</ele><time>2026-04-19T10:16:39.918Z</time></trkpt><trkpt lat="44.85547" lon="8.0131067"><ele>237.39999999999998</ele><time>2026-04-19T10:16:40.917Z</time></trkpt><trkpt lat="44.85555" lon="8.013005"><ele>237.79999999999998</ele><time>2026-04-19T10:16:41.918Z</time></trkpt><trkpt lat="44.8556167" lon="8.0129233"><ele>238.2</ele><time>2026-04-19T10:16:42.918Z</time></trkpt><trkpt lat="44.855665" lon="8.0128467"><ele>238.6</ele><time>2026-04-19T10:16:43.918Z</time></trkpt><trkpt lat="44.85575" lon="8.0127433"><ele>239.0</ele><time>2026-04-19T10:16:45.917Z</time></trkpt><trkpt lat="44.85581" lon="8.0126233"><ele>241.2</ele><time>2026-04-19T10:16:47.917Z</time></trkpt><trkpt lat="44.8558183" lon="8.0124717"><ele>243.39999999999998</ele><time>2026-04-19T10:16:49.917Z</time></trkpt><trkpt lat="44.8558067" lon="8.0123833"><ele>245.6</ele><time>2026-04-19T10:16:50.917Z</time></trkpt><trkpt lat="44.8557717" lon="8.0122867"><ele>247.8</ele><time>2026-04-19T10:16:51.918Z</time></trkpt><trkpt lat="44.8557083" lon="8.012175"><ele>250.0</ele><time>2026-04-19T10:16:52.917Z</time></trkpt><trkpt lat="44.85563" lon="8.012025"><ele>250.0</ele><time>2026-04-19T10:16:53.917Z</time></trkpt><trkpt lat="44.8555133" lon="8.01188"><ele>250.0</ele><time>2026-04-19T10:16:54.918Z</time></trkpt><trkpt lat="44.8554133" lon="8.011745"><ele>250.0</ele><time>2026-04-19T10:16:55.917Z</time></trkpt><trkpt lat="44.8553017" lon="8.0116183"><ele>250.0</ele><time>2026-04-19T10:16:56.917Z</time></trkpt><trkpt lat="44.8552017" lon="8.011495"><ele>250.4</ele><time>2026-04-19T10:16:57.917Z</time></trkpt><trkpt lat="44.855115" lon="8.011375"><ele>250.8</ele><time>2026-04-19T10:16:58.918Z</time></trkpt><trkpt lat="44.85504" lon="8.011255"><ele>251.2</ele><time>2026-04-19T10:16:59.918Z</time></trkpt><trkpt lat="44.8549617" lon="8.0111583"><ele>251.6</ele><time>2026-04-19T10:17:00.917Z</time></trkpt><trkpt lat="44.85487" lon="8.0110967"><ele>252.0</ele><time>2026-04-19T10:17:01.917Z</time></trkpt><trkpt lat="44.85476" lon="8.0110583"><ele>252.0</ele><time>2026-04-19T10:17:02.917Z</time></trkpt><trkpt lat="44.8546383" lon="8.0110367"><ele>252.0</ele><time>2026-04-19T10:17:03.917Z</time></trkpt><trkpt lat="44.8545133" lon="8.0110117"><ele>252.0</ele><time>2026-04-19T10:17:04.918Z</time></trkpt><trkpt lat="44.8543933" lon="8.0109767"><ele>252.0</ele><time>2026-04-19T10:17:05.917Z</time></trkpt><trkpt lat="44.854275" lon="8.010915"><ele>251.39999999999998</ele><time>2026-04-19T10:17:06.918Z</time></trkpt><trkpt lat="44.8541733" lon="8.0108433"><ele>250.79999999999998</ele><time>2026-04-19T10:17:07.917Z</time></trkpt><trkpt lat="44.8540783" lon="8.0107883"><ele>250.2</ele><time>2026-04-19T10:17:08.917Z</time></trkpt><trkpt lat="44.8539733" lon="8.010755"><ele>249.6</ele><time>2026-04-19T10:17:09.917Z</time></trkpt><trkpt lat="44.8538688" lon="8.0107176"><ele>249.0</ele><time>2026-04-19T10:17:10.918Z</time></trkpt><trkpt lat="44.8537567" lon="8.0106582"><ele>251.25</ele><time>2026-04-19T10:17:11.918Z</time></trkpt><trkpt lat="44.8536454" lon="8.0105751"><ele>253.5</ele><time>2026-04-19T10:17:12.917Z</time></trkpt><trkpt lat="44.8535436" lon="8.0104809"><ele>255.75</ele><time>2026-04-19T10:17:13.918Z</time></trkpt><trkpt lat="44.8534404" lon="8.0103849"><ele>258.0</ele><time>2026-04-19T10:17:14.918Z</time></trkpt><trkpt lat="44.8533338" lon="8.0103022"><ele>258.0</ele><time>2026-04-19T10:17:15.917Z</time></trkpt><trkpt lat="44.8532505" lon="8.0102395"><ele>258.0</ele><time>2026-04-19T10:17:16.918Z</time></trkpt><trkpt lat="44.8531753" lon="8.0101941"><ele>258.0</ele><time>2026-04-19T10:17:17.917Z</time></trkpt><trkpt lat="44.853111" lon="8.0102113"><ele>258.0</ele><time>2026-04-19T10:17:18.917Z</time></trkpt><trkpt lat="44.8530508" lon="8.0102624"><ele>258.0</ele><time>2026-04-19T10:17:19.918Z</time></trkpt><trkpt lat="44.8529968" lon="8.0103082"><ele>258.0</ele><time>2026-04-19T10:17:20.917Z</time></trkpt><trkpt lat="44.852901" lon="8.0103402"><ele>258.0</ele><time>2026-04-19T10:17:22.917Z</time></trkpt><trkpt lat="44.8528017" lon="8.0102962"><ele>258.0</ele><time>2026-04-19T10:17:24.917Z</time></trkpt><trkpt lat="44.8527347" lon="8.0102561"><ele>258.0</ele><time>2026-04-19T10:17:25.917Z</time></trkpt><trkpt lat="44.8526674" lon="8.0102124"><ele>258.0</ele><time>2026-04-19T10:17:26.917Z</time></trkpt><trkpt lat="44.8526112" lon="8.0101572"><ele>258.0</ele><time>2026-04-19T10:17:27.918Z</time></trkpt><trkpt lat="44.8525391" lon="8.0101042"><ele>258.0</ele><time>2026-04-19T10:17:28.918Z</time></trkpt><trkpt lat="44.8524679" lon="8.0100851"><ele>257.2</ele><time>2026-04-19T10:17:29.917Z</time></trkpt><trkpt lat="44.852361" lon="8.0101221"><ele>256.4</ele><time>2026-04-19T10:17:30.917Z</time></trkpt><trkpt lat="44.85226" lon="8.0101716"><ele>255.59999999999997</ele><time>2026-04-19T10:17:31.917Z</time></trkpt><trkpt lat="44.8521586" lon="8.0102191"><ele>254.79999999999998</ele><time>2026-04-19T10:17:32.918Z</time></trkpt><trkpt lat="44.8520577" lon="8.0102395"><ele>254.0</ele><time>2026-04-19T10:17:33.917Z</time></trkpt><trkpt lat="44.8519666" lon="8.0102447"><ele>254.0</ele><time>2026-04-19T10:17:34.917Z</time></trkpt><trkpt lat="44.8518668" lon="8.01026"><ele>253.99999999999997</ele><time>2026-04-19T10:17:35.918Z</time></trkpt><trkpt lat="44.8517692" lon="8.0103077"><ele>253.99999999999997</ele><time>2026-04-19T10:17:36.917Z</time></trkpt><trkpt lat="44.8516775" lon="8.0103636"><ele>254.0</ele><time>2026-04-19T10:17:37.917Z</time></trkpt><trkpt lat="44.8515878" lon="8.0104145"><ele>254.0</ele><time>2026-04-19T10:17:38.917Z</time></trkpt><trkpt lat="44.8514981" lon="8.0104503"><ele>253.79999999999998</ele><time>2026-04-19T10:17:39.918Z</time></trkpt><trkpt lat="44.8514127" lon="8.0104797"><ele>253.59999999999997</ele><time>2026-04-19T10:17:40.918Z</time></trkpt><trkpt lat="44.851316" lon="8.0105039"><ele>253.4</ele><time>2026-04-19T10:17:41.918Z</time></trkpt><trkpt lat="44.8512183" lon="8.0105279"><ele>253.2</ele><time>2026-04-19T10:17:42.918Z</time></trkpt><trkpt lat="44.8511246" lon="8.0105506"><ele>253.0</ele><time>2026-04-19T10:17:43.917Z</time></trkpt><trkpt lat="44.851024" lon="8.0105559"><ele>253.83333333333331</ele><time>2026-04-19T10:17:44.917Z</time></trkpt><trkpt lat="44.8509275" lon="8.0105598"><ele>254.66666666666666</ele><time>2026-04-19T10:17:45.918Z</time></trkpt><trkpt lat="44.8508406" lon="8.0105791"><ele>255.5</ele><time>2026-04-19T10:17:46.918Z</time></trkpt><trkpt lat="44.8507594" lon="8.0106024"><ele>256.3333333333333</ele><time>2026-04-19T10:17:47.917Z</time></trkpt><trkpt lat="44.8506826" lon="8.0106344"><ele>257.1666666666667</ele><time>2026-04-19T10:17:48.917Z</time></trkpt><trkpt lat="44.8506054" lon="8.0106868"><ele>258.0</ele><time>2026-04-19T10:17:49.917Z</time></trkpt><trkpt lat="44.8505313" lon="8.0107422"><ele>258.0</ele><time>2026-04-19T10:17:50.918Z</time></trkpt><trkpt lat="44.8504592" lon="8.0108016"><ele>258.0</ele><time>2026-04-19T10:17:51.917Z</time></trkpt><trkpt lat="44.8503913" lon="8.0108756"><ele>258.0</ele><time>2026-04-19T10:17:52.917Z</time></trkpt><trkpt lat="44.8503184" lon="8.01096"><ele>258.0</ele><time>2026-04-19T10:17:53.917Z</time></trkpt><trkpt lat="44.8502372" lon="8.0110311"><ele>258.0</ele><time>2026-04-19T10:17:54.917Z</time></trkpt><trkpt lat="44.8501615" lon="8.0110897"><ele>258.0</ele><time>2026-04-19T10:17:55.917Z</time></trkpt><trkpt lat="44.8500856" lon="8.0111352"><ele>258.3333333333333</ele><time>2026-04-19T10:17:56.917Z</time></trkpt><trkpt lat="44.850024" lon="8.0111941"><ele>258.6666666666667</ele><time>2026-04-19T10:17:57.917Z</time></trkpt><trkpt lat="44.8499833" lon="8.011285"><ele>259.0</ele><time>2026-04-19T10:17:58.918Z</time></trkpt><trkpt lat="44.8499517" lon="8.01137"><ele>259.33333333333337</ele><time>2026-04-19T10:17:59.918Z</time></trkpt><trkpt lat="44.8499267" lon="8.011475"><ele>259.6666666666667</ele><time>2026-04-19T10:18:00.918Z</time></trkpt><trkpt lat="44.8498917" lon="8.0115933"><ele>260.0</ele><time>2026-04-19T10:18:01.918Z</time></trkpt><trkpt lat="44.849855" lon="8.0117217"><ele>260.0</ele><time>2026-04-19T10:18:02.918Z</time></trkpt><trkpt lat="44.8498117" lon="8.011835"><ele>260.0</ele><time>2026-04-19T10:18:03.917Z</time></trkpt><trkpt lat="44.8497583" lon="8.0119183"><ele>260.0</ele><time>2026-04-19T10:18:04.918Z</time></trkpt><trkpt lat="44.8497283" lon="8.0120833"><ele>260.0</ele><time>2026-04-19T10:18:06.917Z</time></trkpt><trkpt lat="44.8497183" lon="8.0121767"><ele>260.0</ele><time>2026-04-19T10:18:07.918Z</time></trkpt><trkpt lat="44.8496867" lon="8.0122667"><ele>260.0</ele><time>2026-04-19T10:18:08.917Z</time></trkpt><trkpt lat="44.8496083" lon="8.0123917"><ele>260.0</ele><time>2026-04-19T10:18:10.918Z</time></trkpt><trkpt lat="44.849525" lon="8.0124133"><ele>260.0</ele><time>2026-04-19T10:18:11.918Z</time></trkpt><trkpt lat="44.84944" lon="8.0124317"><ele>260.0</ele><time>2026-04-19T10:18:12.918Z</time></trkpt><trkpt lat="44.8493633" lon="8.0124733"><ele>260.0</ele><time>2026-04-19T10:18:13.917Z</time></trkpt><trkpt lat="44.849305" lon="8.01257"><ele>260.0</ele><time>2026-04-19T10:18:14.917Z</time></trkpt><trkpt lat="44.8492517" lon="8.0126867"><ele>260.0</ele><time>2026-04-19T10:18:15.918Z</time></trkpt><trkpt lat="44.8491983" lon="8.0128017"><ele>261.6</ele><time>2026-04-19T10:18:16.918Z</time></trkpt><trkpt lat="44.8491233" lon="8.012915"><ele>263.2</ele><time>2026-04-19T10:18:17.917Z</time></trkpt><trkpt lat="44.8490517" lon="8.0130317"><ele>264.8</ele><time>2026-04-19T10:18:18.917Z</time></trkpt><trkpt lat="44.848985" lon="8.0131267"><ele>266.4</ele><time>2026-04-19T10:18:19.917Z</time></trkpt><trkpt lat="44.84891" lon="8.0132"><ele>268.0</ele><time>2026-04-19T10:18:20.918Z</time></trkpt><trkpt lat="44.84881" lon="8.0132833"><ele>268.16666666666663</ele><time>2026-04-19T10:18:21.918Z</time></trkpt><trkpt lat="44.8487333" lon="8.0133567"><ele>268.3333333333333</ele><time>2026-04-19T10:18:22.917Z</time></trkpt><trkpt lat="44.8486467" lon="8.0134167"><ele>268.5</ele><time>2026-04-19T10:18:23.918Z</time></trkpt><trkpt lat="44.8485567" lon="8.0134583"><ele>268.6666666666667</ele><time>2026-04-19T10:18:24.918Z</time></trkpt><trkpt lat="44.848485" lon="8.013505"><ele>268.83333333333337</ele><time>2026-04-19T10:18:25.918Z</time></trkpt><trkpt lat="44.8484267" lon="8.0135667"><ele>269.0</ele><time>2026-04-19T10:18:26.918Z</time></trkpt><trkpt lat="44.84835" lon="8.0136217"><ele>269.59999999999997</ele><time>2026-04-19T10:18:27.918Z</time></trkpt><trkpt lat="44.8482717" lon="8.013695"><ele>270.2</ele><time>2026-04-19T10:18:28.918Z</time></trkpt><trkpt lat="44.848185" lon="8.0137733"><ele>270.79999999999995</ele><time>2026-04-19T10:18:29.917Z</time></trkpt><trkpt lat="44.84809" lon="8.0138483"><ele>271.4</ele><time>2026-04-19T10:18:30.918Z</time></trkpt><trkpt lat="44.8479667" lon="8.0139117"><ele>272.0</ele><time>2026-04-19T10:18:31.917Z</time></trkpt><trkpt lat="44.8478767" lon="8.01398"><ele>272.0</ele><time>2026-04-19T10:18:32.917Z</time></trkpt><trkpt lat="44.8477883" lon="8.0140333"><ele>272.0</ele><time>2026-04-19T10:18:33.918Z</time></trkpt><trkpt lat="44.8477117" lon="8.01405"><ele>272.0</ele><time>2026-04-19T10:18:34.917Z</time></trkpt><trkpt lat="44.8476483" lon="8.0140467"><ele>272.0</ele><time>2026-04-19T10:18:35.918Z</time></trkpt><trkpt lat="44.8475167" lon="8.01408"><ele>272.0</ele><time>2026-04-19T10:18:37.917Z</time></trkpt><trkpt lat="44.8474383" lon="8.0141417"><ele>272.8</ele><time>2026-04-19T10:18:38.918Z</time></trkpt><trkpt lat="44.8473517" lon="8.0142033"><ele>273.6</ele><time>2026-04-19T10:18:39.917Z</time></trkpt><trkpt lat="44.84726" lon="8.014265"><ele>274.40000000000003</ele><time>2026-04-19T10:18:40.917Z</time></trkpt><trkpt lat="44.847165" lon="8.0143"><ele>275.2</ele><time>2026-04-19T10:18:41.918Z</time></trkpt><trkpt lat="44.8470783" lon="8.0143267"><ele>276.0</ele><time>2026-04-19T10:18:42.918Z</time></trkpt><trkpt lat="44.8470167" lon="8.0143717"><ele>276.0</ele><time>2026-04-19T10:18:43.917Z</time></trkpt><trkpt lat="44.846915" lon="8.0144667"><ele>276.0</ele><time>2026-04-19T10:18:45.918Z</time></trkpt><trkpt lat="44.8468617" lon="8.014525"><ele>276.0</ele><time>2026-04-19T10:18:46.918Z</time></trkpt><trkpt lat="44.8468017" lon="8.0145933"><ele>276.0</ele><time>2026-04-19T10:18:47.918Z</time></trkpt><trkpt lat="44.8467383" lon="8.0146733"><ele>276.0</ele><time>2026-04-19T10:18:48.917Z</time></trkpt><trkpt lat="44.84668" lon="8.0147517"><ele>276.0</ele><time>2026-04-19T10:18:49.918Z</time></trkpt><trkpt lat="44.8466267" lon="8.014825"><ele>276.8333333333333</ele><time>2026-04-19T10:18:50.917Z</time></trkpt><trkpt lat="44.8465717" lon="8.0148883"><ele>277.6666666666667</ele><time>2026-04-19T10:18:51.917Z</time></trkpt><trkpt lat="44.8465183" lon="8.0149533"><ele>278.5</ele><time>2026-04-19T10:18:52.917Z</time></trkpt><trkpt lat="44.8464267" lon="8.0150517"><ele>279.33333333333337</ele><time>2026-04-19T10:18:54.917Z</time></trkpt><trkpt lat="44.8463883" lon="8.0151467"><ele>280.1666666666667</ele><time>2026-04-19T10:19:01.917Z</time></trkpt><trkpt lat="44.8463267" lon="8.0152683"><ele>281.0</ele><time>2026-04-19T10:19:03.917Z</time></trkpt><trkpt lat="44.8462617" lon="8.0153333"><ele>281.0</ele><time>2026-04-19T10:19:04.917Z</time></trkpt><trkpt lat="44.8461817" lon="8.01541"><ele>281.0</ele><time>2026-04-19T10:19:05.917Z</time></trkpt><trkpt lat="44.8461033" lon="8.0154933"><ele>281.0</ele><time>2026-04-19T10:19:06.917Z</time></trkpt><trkpt lat="44.8460283" lon="8.0155767"><ele>281.0</ele><time>2026-04-19T10:19:07.917Z</time></trkpt><trkpt lat="44.845935" lon="8.015655"><ele>281.0</ele><time>2026-04-19T10:19:08.917Z</time></trkpt><trkpt lat="44.84584" lon="8.0157117"><ele>281.75</ele><time>2026-04-19T10:19:09.917Z</time></trkpt><trkpt lat="44.84574" lon="8.0157633"><ele>282.5</ele><time>2026-04-19T10:19:10.917Z</time></trkpt><trkpt lat="44.8456083" lon="8.0158067"><ele>283.25</ele><time>2026-04-19T10:19:11.917Z</time></trkpt><trkpt lat="44.8455067" lon="8.0158517"><ele>284.0</ele><time>2026-04-19T10:19:12.917Z</time></trkpt><trkpt lat="44.845405" lon="8.01586"><ele>284.0</ele><time>2026-04-19T10:19:13.918Z</time></trkpt><trkpt lat="44.8452917" lon="8.0158483"><ele>284.0</ele><time>2026-04-19T10:19:14.917Z</time></trkpt><trkpt lat="44.8451883" lon="8.015845"><ele>284.0</ele><time>2026-04-19T10:19:15.917Z</time></trkpt><trkpt lat="44.845085" lon="8.0158533"><ele>284.0</ele><time>2026-04-19T10:19:16.917Z</time></trkpt><trkpt lat="44.8449883" lon="8.0158733"><ele>284.0</ele><time>2026-04-19T10:19:17.917Z</time></trkpt><trkpt lat="44.844895" lon="8.015875"><ele>285.0</ele><time>2026-04-19T10:19:18.918Z</time></trkpt><trkpt lat="44.8447933" lon="8.015865"><ele>286.0</ele><time>2026-04-19T10:19:19.918Z</time></trkpt><trkpt lat="44.8446967" lon="8.0158333"><ele>287.0</ele><time>2026-04-19T10:19:20.918Z</time></trkpt><trkpt lat="44.8446033" lon="8.0157517"><ele>288.0</ele><time>2026-04-19T10:19:21.917Z</time></trkpt><trkpt lat="44.8445033" lon="8.015675"><ele>289.0</ele><time>2026-04-19T10:19:22.918Z</time></trkpt><trkpt lat="44.8444067" lon="8.0155933"><ele>290.59999999999997</ele><time>2026-04-19T10:19:23.918Z</time></trkpt><trkpt lat="44.8443" lon="8.0155383"><ele>292.2</ele><time>2026-04-19T10:19:24.918Z</time></trkpt><trkpt lat="44.8441983" lon="8.0154817"><ele>293.79999999999995</ele><time>2026-04-19T10:19:25.918Z</time></trkpt><trkpt lat="44.8441033" lon="8.015445"><ele>295.4</ele><time>2026-04-19T10:19:26.918Z</time></trkpt><trkpt lat="44.8440133" lon="8.0153983"><ele>297.0</ele><time>2026-04-19T10:19:27.917Z</time></trkpt><trkpt lat="44.8439367" lon="8.0153367"><ele>297.0</ele><time>2026-04-19T10:19:28.917Z</time></trkpt><trkpt lat="44.8438683" lon="8.015275"><ele>297.0</ele><time>2026-04-19T10:19:29.917Z</time></trkpt><trkpt lat="44.8438064" lon="8.0152251"><ele>297.0</ele><time>2026-04-19T10:19:30.917Z</time></trkpt><trkpt lat="44.8437004" lon="8.0151526"><ele>297.0</ele><time>2026-04-19T10:19:32.918Z</time></trkpt><trkpt lat="44.84357" lon="8.0151712"><ele>297.0</ele><time>2026-04-19T10:19:34.918Z</time></trkpt><trkpt lat="44.8434952" lon="8.0151826"><ele>297.5</ele><time>2026-04-19T10:19:35.918Z</time></trkpt><trkpt lat="44.8434192" lon="8.0151954"><ele>298.0</ele><time>2026-04-19T10:19:36.917Z</time></trkpt><trkpt lat="44.8433352" lon="8.0152082"><ele>298.5</ele><time>2026-04-19T10:19:37.918Z</time></trkpt><trkpt lat="44.8432513" lon="8.0152015"><ele>299.0</ele><time>2026-04-19T10:19:38.917Z</time></trkpt><trkpt lat="44.8431767" lon="8.0151367"><ele>299.5</ele><time>2026-04-19T10:19:39.917Z</time></trkpt><trkpt lat="44.843095" lon="8.0150485"><ele>300.0</ele><time>2026-04-19T10:19:40.918Z</time></trkpt><trkpt lat="44.8430049" lon="8.0149583"><ele>300.0</ele><time>2026-04-19T10:19:41.918Z</time></trkpt><trkpt lat="44.8429218" lon="8.0148713"><ele>300.0</ele><time>2026-04-19T10:19:42.918Z</time></trkpt><trkpt lat="44.8428537" lon="8.0148124"><ele>300.0</ele><time>2026-04-19T10:19:43.918Z</time></trkpt><trkpt lat="44.8427551" lon="8.0148249"><ele>300.0</ele><time>2026-04-19T10:19:45.917Z</time></trkpt><trkpt lat="44.8427228" lon="8.014925"><ele>300.0</ele><time>2026-04-19T10:19:46.918Z</time></trkpt><trkpt lat="44.8426965" lon="8.0150477"><ele>300.0</ele><time>2026-04-19T10:19:47.917Z</time></trkpt><trkpt lat="44.8426621" lon="8.0151534"><ele>300.0</ele><time>2026-04-19T10:19:48.918Z</time></trkpt><trkpt lat="44.8426412" lon="8.0152403"><ele>300.0</ele><time>2026-04-19T10:19:49.918Z</time></trkpt><trkpt lat="44.8426173" lon="8.015361"><ele>300.0</ele><time>2026-04-19T10:19:52.918Z</time></trkpt><trkpt lat="44.8426044" lon="8.01551"><ele>300.0</ele><time>2026-04-19T10:19:54.918Z</time></trkpt><trkpt lat="44.842611" lon="8.0156072"><ele>300.0</ele><time>2026-04-19T10:19:55.918Z</time></trkpt><trkpt lat="44.842624" lon="8.0157136"><ele>298.8333333333333</ele><time>2026-04-19T10:19:56.918Z</time></trkpt><trkpt lat="44.8426339" lon="8.0158238"><ele>297.6666666666667</ele><time>2026-04-19T10:19:57.917Z</time></trkpt><trkpt lat="44.8426433" lon="8.0159323"><ele>296.5</ele><time>2026-04-19T10:19:58.917Z</time></trkpt><trkpt lat="44.8426507" lon="8.0160426"><ele>295.33333333333337</ele><time>2026-04-19T10:19:59.918Z</time></trkpt><trkpt lat="44.8426556" lon="8.0161552"><ele>294.1666666666667</ele><time>2026-04-19T10:20:00.918Z</time></trkpt><trkpt lat="44.8426496" lon="8.0162659"><ele>293.0</ele><time>2026-04-19T10:20:01.918Z</time></trkpt><trkpt lat="44.8426271" lon="8.0163771"><ele>293.0</ele><time>2026-04-19T10:20:02.917Z</time></trkpt><trkpt lat="44.8425973" lon="8.0164911"><ele>293.0</ele><time>2026-04-19T10:20:03.918Z</time></trkpt><trkpt lat="44.8425652" lon="8.0166066"><ele>293.0</ele><time>2026-04-19T10:20:04.917Z</time></trkpt><trkpt lat="44.8425444" lon="8.0167222"><ele>293.0</ele><time>2026-04-19T10:20:05.918Z</time></trkpt><trkpt lat="44.8425464" lon="8.0168397"><ele>293.0</ele><time>2026-04-19T10:20:06.917Z</time></trkpt><trkpt lat="44.8425718" lon="8.0169605"><ele>293.0</ele><time>2026-04-19T10:20:07.918Z</time></trkpt><trkpt lat="44.8426115" lon="8.0170684"><ele>296.5</ele><time>2026-04-19T10:20:08.917Z</time></trkpt><trkpt lat="44.8426532" lon="8.0171675"><ele>300.0</ele><time>2026-04-19T10:20:09.917Z</time></trkpt><trkpt lat="44.8426967" lon="8.01726"><ele>303.5</ele><time>2026-04-19T10:20:10.917Z</time></trkpt><trkpt lat="44.8427267" lon="8.01734"><ele>307.0</ele><time>2026-04-19T10:20:11.917Z</time></trkpt><trkpt lat="44.8427617" lon="8.0174217"><ele>310.5</ele><time>2026-04-19T10:20:13.917Z</time></trkpt><trkpt lat="44.84281" lon="8.01755"><ele>314.0</ele><time>2026-04-19T10:20:16.917Z</time></trkpt><trkpt lat="44.84283" lon="8.0176567"><ele>314.0</ele><time>2026-04-19T10:20:19.918Z</time></trkpt><trkpt lat="44.8427667" lon="8.0176233"><ele>314.0</ele><time>2026-04-19T10:20:32.917Z</time></trkpt><trkpt lat="44.84271" lon="8.0175667"><ele>314.0</ele><time>2026-04-19T10:20:34.917Z</time></trkpt><trkpt lat="44.842645" lon="8.017485"><ele>314.0</ele><time>2026-04-19T10:20:36.918Z</time></trkpt><trkpt lat="44.842585" lon="8.017405"><ele>314.0</ele><time>2026-04-19T10:20:38.917Z</time></trkpt><trkpt lat="44.8425233" lon="8.0173467"><ele>314.0</ele><time>2026-04-19T10:20:40.917Z</time></trkpt><trkpt lat="44.8424433" lon="8.0172933"><ele>309.2</ele><time>2026-04-19T10:20:42.918Z</time></trkpt><trkpt lat="44.84236" lon="8.0172483"><ele>304.4</ele><time>2026-04-19T10:20:44.917Z</time></trkpt><trkpt lat="44.8422883" lon="8.0171733"><ele>299.6</ele><time>2026-04-19T10:20:46.917Z</time></trkpt><trkpt lat="44.8422133" lon="8.0170667"><ele>294.8</ele><time>2026-04-19T10:20:48.918Z</time></trkpt><trkpt lat="44.8421283" lon="8.0169483"><ele>290.0</ele><time>2026-04-19T10:20:50.918Z</time></trkpt><trkpt lat="44.842045" lon="8.0168333"><ele>290.0</ele><time>2026-04-19T10:20:52.918Z</time></trkpt><trkpt lat="44.84198" lon="8.016735"><ele>290.0</ele><time>2026-04-19T10:20:54.917Z</time></trkpt><trkpt lat="44.8419317" lon="8.0166117"><ele>290.0</ele><time>2026-04-19T10:20:56.918Z</time></trkpt><trkpt lat="44.8419" lon="8.0164617"><ele>290.0</ele><time>2026-04-19T10:20:58.917Z</time></trkpt><trkpt lat="44.8418433" lon="8.0163267"><ele>290.0</ele><time>2026-04-19T10:21:00.918Z</time></trkpt><trkpt lat="44.8417933" lon="8.0162583"><ele>284.5</ele><time>2026-04-19T10:21:01.918Z</time></trkpt><trkpt lat="44.8417417" lon="8.0161983"><ele>279.0</ele><time>2026-04-19T10:21:02.918Z</time></trkpt><trkpt lat="44.8416217" lon="8.0161467"><ele>273.5</ele><time>2026-04-19T10:21:04.918Z</time></trkpt><trkpt lat="44.8415583" lon="8.016145"><ele>268.0</ele><time>2026-04-19T10:21:05.917Z</time></trkpt><trkpt lat="44.8414933" lon="8.0161483"><ele>262.5</ele><time>2026-04-19T10:21:06.917Z</time></trkpt><trkpt lat="44.8414233" lon="8.016155"><ele>257.0</ele><time>2026-04-19T10:21:07.918Z</time></trkpt><trkpt lat="44.8413033" lon="8.016165"><ele>257.0</ele><time>2026-04-19T10:21:09.917Z</time></trkpt><trkpt lat="44.8412417" lon="8.016185"><ele>257.0</ele><time>2026-04-19T10:21:10.917Z</time></trkpt><trkpt lat="44.841165" lon="8.0162067"><ele>257.0</ele><time>2026-04-19T10:21:12.917Z</time></trkpt><trkpt lat="44.8410633" lon="8.0161933"><ele>257.0</ele><time>2026-04-19T10:21:15.917Z</time></trkpt><trkpt lat="44.8409817" lon="8.01617"><ele>257.0</ele><time>2026-04-19T10:21:17.917Z</time></trkpt><trkpt lat="44.841005" lon="8.01605"><ele>257.0</ele><time>2026-04-19T10:21:20.917Z</time></trkpt><trkpt lat="44.8410867" lon="8.0159617"><ele>257.0</ele><time>2026-04-19T10:21:22.918Z</time></trkpt><trkpt lat="44.8411217" lon="8.01585"><ele>257.0</ele><time>2026-04-19T10:21:24.918Z</time></trkpt><trkpt lat="44.84112" lon="8.0157233"><ele>257.0</ele><time>2026-04-19T10:21:26.918Z</time></trkpt><trkpt lat="44.8410467" lon="8.0155983"><ele>257.0</ele><time>2026-04-19T10:21:28.918Z</time></trkpt><trkpt lat="44.8409867" lon="8.0155633"><ele>257.0</ele><time>2026-04-19T10:21:29.917Z</time></trkpt><trkpt lat="44.84092" lon="8.0155567"><ele>257.0</ele><time>2026-04-19T10:21:30.918Z</time></trkpt><trkpt lat="44.8408283" lon="8.015675"><ele>255.6</ele><time>2026-04-19T10:21:32.917Z</time></trkpt><trkpt lat="44.84078" lon="8.015795"><ele>254.2</ele><time>2026-04-19T10:21:33.917Z</time></trkpt><trkpt lat="44.8407033" lon="8.0159383"><ele>252.8</ele><time>2026-04-19T10:21:34.918Z</time></trkpt><trkpt lat="44.840635" lon="8.01605"><ele>251.4</ele><time>2026-04-19T10:21:35.917Z</time></trkpt><trkpt lat="44.8405767" lon="8.0161517"><ele>250.0</ele><time>2026-04-19T10:21:36.917Z</time></trkpt><trkpt lat="44.8405283" lon="8.016255"><ele>246.99999999999997</ele><time>2026-04-19T10:21:37.917Z</time></trkpt><trkpt lat="44.8404833" lon="8.0163617"><ele>244.0</ele><time>2026-04-19T10:21:38.917Z</time></trkpt><trkpt lat="44.840435" lon="8.0164567"><ele>241.0</ele><time>2026-04-19T10:21:39.918Z</time></trkpt><trkpt lat="44.8403817" lon="8.01655"><ele>238.0</ele><time>2026-04-19T10:21:40.918Z</time></trkpt><trkpt lat="44.84032" lon="8.0166433"><ele>234.99999999999997</ele><time>2026-04-19T10:21:41.918Z</time></trkpt><trkpt lat="44.84026" lon="8.0167217"><ele>232.0</ele><time>2026-04-19T10:21:42.918Z</time></trkpt><trkpt lat="44.840195" lon="8.0167867"><ele>229.33333333333331</ele><time>2026-04-19T10:21:43.918Z</time></trkpt><trkpt lat="44.8401283" lon="8.016825"><ele>226.66666666666666</ele><time>2026-04-19T10:21:44.917Z</time></trkpt><trkpt lat="44.8400067" lon="8.0168433"><ele>224.0</ele><time>2026-04-19T10:21:46.917Z</time></trkpt><trkpt lat="44.8399317" lon="8.0168283"><ele>221.33333333333331</ele><time>2026-04-19T10:21:47.917Z</time></trkpt><trkpt lat="44.839845" lon="8.01681"><ele>218.66666666666666</ele><time>2026-04-19T10:21:48.917Z</time></trkpt><trkpt lat="44.839765" lon="8.0168017"><ele>216.0</ele><time>2026-04-19T10:21:49.917Z</time></trkpt><trkpt lat="44.8396817" lon="8.0168017"><ele>216.0</ele><time>2026-04-19T10:21:50.917Z</time></trkpt><trkpt lat="44.8395933" lon="8.0168033"><ele>216.0</ele><time>2026-04-19T10:21:51.917Z</time></trkpt><trkpt lat="44.8395083" lon="8.0168183"><ele>216.0</ele><time>2026-04-19T10:21:52.917Z</time></trkpt><trkpt lat="44.8394233" lon="8.0168183"><ele>216.0</ele><time>2026-04-19T10:21:53.917Z</time></trkpt><trkpt lat="44.8393517" lon="8.0168117"><ele>216.0</ele><time>2026-04-19T10:21:54.918Z</time></trkpt><trkpt lat="44.8392833" lon="8.0168117"><ele>216.0</ele><time>2026-04-19T10:21:55.917Z</time></trkpt><trkpt lat="44.8392067" lon="8.01683"><ele>214.8</ele><time>2026-04-19T10:21:56.918Z</time></trkpt><trkpt lat="44.839125" lon="8.01686"><ele>213.60000000000002</ele><time>2026-04-19T10:21:57.918Z</time></trkpt><trkpt lat="44.8390383" lon="8.0168967"><ele>212.4</ele><time>2026-04-19T10:21:58.917Z</time></trkpt><trkpt lat="44.8389483" lon="8.0169367"><ele>211.2</ele><time>2026-04-19T10:21:59.918Z</time></trkpt><trkpt lat="44.8388617" lon="8.0169733"><ele>210.0</ele><time>2026-04-19T10:22:00.917Z</time></trkpt><trkpt lat="44.8387683" lon="8.01701"><ele>210.0</ele><time>2026-04-19T10:22:01.917Z</time></trkpt><trkpt lat="44.83868" lon="8.0170433"><ele>210.0</ele><time>2026-04-19T10:22:02.917Z</time></trkpt><trkpt lat="44.838595" lon="8.0170783"><ele>210.0</ele><time>2026-04-19T10:22:03.918Z</time></trkpt><trkpt lat="44.8385117" lon="8.0171183"><ele>210.0</ele><time>2026-04-19T10:22:04.917Z</time></trkpt><trkpt lat="44.838425" lon="8.017155"><ele>210.0</ele><time>2026-04-19T10:22:05.917Z</time></trkpt><trkpt lat="44.8383333" lon="8.0171783"><ele>209.83333333333334</ele><time>2026-04-19T10:22:06.917Z</time></trkpt><trkpt lat="44.838245" lon="8.017195"><ele>209.66666666666669</ele><time>2026-04-19T10:22:07.918Z</time></trkpt><trkpt lat="44.8381617" lon="8.0172"><ele>209.5</ele><time>2026-04-19T10:22:08.918Z</time></trkpt><trkpt lat="44.8380783" lon="8.0172117"><ele>209.33333333333334</ele><time>2026-04-19T10:22:09.917Z</time></trkpt><trkpt lat="44.8379983" lon="8.0172283"><ele>209.16666666666669</ele><time>2026-04-19T10:22:10.918Z</time></trkpt><trkpt lat="44.83792" lon="8.0172467"><ele>209.0</ele><time>2026-04-19T10:22:11.917Z</time></trkpt><trkpt lat="44.83783" lon="8.0172717"><ele>209.00000000000003</ele><time>2026-04-19T10:22:13.917Z</time></trkpt><trkpt lat="44.8377667" lon="8.017275"><ele>209.0</ele><time>2026-04-19T10:22:17.917Z</time></trkpt><trkpt lat="44.8376817" lon="8.0172667"><ele>209.0</ele><time>2026-04-19T10:22:20.917Z</time></trkpt><trkpt lat="44.8376017" lon="8.0173333"><ele>209.0</ele><time>2026-04-19T10:22:22.918Z</time></trkpt><trkpt lat="44.8375517" lon="8.0173917"><ele>209.00000000000003</ele><time>2026-04-19T10:22:23.918Z</time></trkpt><trkpt lat="44.8374833" lon="8.0174617"><ele>209.0</ele><time>2026-04-19T10:22:24.917Z</time></trkpt><trkpt lat="44.837405" lon="8.0175283"><ele>207.39999999999998</ele><time>2026-04-19T10:22:25.918Z</time></trkpt><trkpt lat="44.8373167" lon="8.0176033"><ele>205.8</ele><time>2026-04-19T10:22:26.917Z</time></trkpt><trkpt lat="44.8372333" lon="8.017685"><ele>204.2</ele><time>2026-04-19T10:22:27.917Z</time></trkpt><trkpt lat="44.837155" lon="8.017775"><ele>202.60000000000002</ele><time>2026-04-19T10:22:28.917Z</time></trkpt><trkpt lat="44.83709" lon="8.01787"><ele>201.0</ele><time>2026-04-19T10:22:29.917Z</time></trkpt><trkpt lat="44.8370317" lon="8.0179517"><ele>201.0</ele><time>2026-04-19T10:22:30.917Z</time></trkpt><trkpt lat="44.8369667" lon="8.0180267"><ele>201.0</ele><time>2026-04-19T10:22:31.918Z</time></trkpt><trkpt lat="44.8368983" lon="8.0180883"><ele>201.0</ele><time>2026-04-19T10:22:32.917Z</time></trkpt><trkpt lat="44.8368217" lon="8.0181483"><ele>201.0</ele><time>2026-04-19T10:22:33.918Z</time></trkpt><trkpt lat="44.8367467" lon="8.0182067"><ele>201.0</ele><time>2026-04-19T10:22:34.918Z</time></trkpt><trkpt lat="44.8366717" lon="8.0182683"><ele>201.0</ele><time>2026-04-19T10:22:35.917Z</time></trkpt><trkpt lat="44.8366" lon="8.0183217"><ele>200.5</ele><time>2026-04-19T10:22:36.917Z</time></trkpt><trkpt lat="44.8365333" lon="8.0183817"><ele>200.0</ele><time>2026-04-19T10:22:37.917Z</time></trkpt><trkpt lat="44.8364733" lon="8.0184283"><ele>199.5</ele><time>2026-04-19T10:22:38.917Z</time></trkpt><trkpt lat="44.8364017" lon="8.018465"><ele>199.0</ele><time>2026-04-19T10:22:39.918Z</time></trkpt><trkpt lat="44.836325" lon="8.018485"><ele>198.5</ele><time>2026-04-19T10:22:40.918Z</time></trkpt><trkpt lat="44.8362467" lon="8.0184967"><ele>198.0</ele><time>2026-04-19T10:22:41.918Z</time></trkpt><trkpt lat="44.83617" lon="8.018525"><ele>198.0</ele><time>2026-04-19T10:22:42.917Z</time></trkpt><trkpt lat="44.83608" lon="8.0185583"><ele>198.0</ele><time>2026-04-19T10:22:43.918Z</time></trkpt><trkpt lat="44.835985" lon="8.0185817"><ele>198.0</ele><time>2026-04-19T10:22:44.917Z</time></trkpt><trkpt lat="44.8358867" lon="8.018595"><ele>198.0</ele><time>2026-04-19T10:22:45.918Z</time></trkpt><trkpt lat="44.8357933" lon="8.0186183"><ele>198.0</ele><time>2026-04-19T10:22:46.917Z</time></trkpt><trkpt lat="44.8356983" lon="8.01866"><ele>197.60000000000002</ele><time>2026-04-19T10:22:47.917Z</time></trkpt><trkpt lat="44.8356133" lon="8.0187217"><ele>197.20000000000002</ele><time>2026-04-19T10:22:48.917Z</time></trkpt><trkpt lat="44.8355367" lon="8.018805"><ele>196.8</ele><time>2026-04-19T10:22:49.918Z</time></trkpt><trkpt lat="44.8354667" lon="8.0188983"><ele>196.4</ele><time>2026-04-19T10:22:50.918Z</time></trkpt><trkpt lat="44.8354033" lon="8.0190017"><ele>196.0</ele><time>2026-04-19T10:22:51.917Z</time></trkpt><trkpt lat="44.83534" lon="8.0191067"><ele>195.60000000000002</ele><time>2026-04-19T10:22:52.917Z</time></trkpt><trkpt lat="44.835275" lon="8.019215"><ele>195.2</ele><time>2026-04-19T10:22:53.918Z</time></trkpt><trkpt lat="44.8352133" lon="8.0193317"><ele>194.8</ele><time>2026-04-19T10:22:54.918Z</time></trkpt><trkpt lat="44.8351567" lon="8.0194367"><ele>194.39999999999998</ele><time>2026-04-19T10:22:55.917Z</time></trkpt><trkpt lat="44.835105" lon="8.0195417"><ele>194.0</ele><time>2026-04-19T10:22:56.917Z</time></trkpt><trkpt lat="44.83505" lon="8.0196483"><ele>193.39999999999998</ele><time>2026-04-19T10:22:57.918Z</time></trkpt><trkpt lat="44.8350033" lon="8.0197583"><ele>192.8</ele><time>2026-04-19T10:22:58.918Z</time></trkpt><trkpt lat="44.8349583" lon="8.0198733"><ele>192.2</ele><time>2026-04-19T10:22:59.917Z</time></trkpt><trkpt lat="44.83491" lon="8.0199917"><ele>191.60000000000002</ele><time>2026-04-19T10:23:00.917Z</time></trkpt><trkpt lat="44.8348567" lon="8.020105"><ele>191.0</ele><time>2026-04-19T10:23:01.918Z</time></trkpt><trkpt lat="44.8348" lon="8.0202183"><ele>190.60000000000002</ele><time>2026-04-19T10:23:02.918Z</time></trkpt><trkpt lat="44.834745" lon="8.0203433"><ele>190.2</ele><time>2026-04-19T10:23:03.918Z</time></trkpt><trkpt lat="44.8347017" lon="8.0204533"><ele>189.8</ele><time>2026-04-19T10:23:04.917Z</time></trkpt><trkpt lat="44.8346583" lon="8.02055"><ele>189.39999999999998</ele><time>2026-04-19T10:23:05.918Z</time></trkpt><trkpt lat="44.8346233" lon="8.0206367"><ele>189.0</ele><time>2026-04-19T10:23:06.917Z</time></trkpt><trkpt lat="44.834575" lon="8.0207733"><ele>189.2</ele><time>2026-04-19T10:23:08.917Z</time></trkpt><trkpt lat="44.8345767" lon="8.020875"><ele>189.39999999999998</ele><time>2026-04-19T10:23:11.918Z</time></trkpt><trkpt lat="44.83466" lon="8.0209467"><ele>189.6</ele><time>2026-04-19T10:23:13.918Z</time></trkpt><trkpt lat="44.8347433" lon="8.02097"><ele>189.8</ele><time>2026-04-19T10:23:14.918Z</time></trkpt><trkpt lat="44.834845" lon="8.0210083"><ele>190.0</ele><time>2026-04-19T10:23:15.918Z</time></trkpt><trkpt lat="44.834955" lon="8.02107"><ele>190.0</ele><time>2026-04-19T10:23:16.918Z</time></trkpt><trkpt lat="44.8350533" lon="8.021155"><ele>190.0</ele><time>2026-04-19T10:23:17.917Z</time></trkpt><trkpt lat="44.835135" lon="8.0212667"><ele>190.0</ele><time>2026-04-19T10:23:18.917Z</time></trkpt><trkpt lat="44.83521" lon="8.0213883"><ele>190.0</ele><time>2026-04-19T10:23:19.918Z</time></trkpt><trkpt lat="44.8352767" lon="8.0215017"><ele>190.0</ele><time>2026-04-19T10:23:20.917Z</time></trkpt><trkpt lat="44.835335" lon="8.021605"><ele>191.4</ele><time>2026-04-19T10:23:21.918Z</time></trkpt><trkpt lat="44.8353833" lon="8.02168"><ele>192.8</ele><time>2026-04-19T10:23:22.917Z</time></trkpt><trkpt lat="44.8354" lon="8.0218167"><ele>194.2</ele><time>2026-04-19T10:23:24.917Z</time></trkpt><trkpt lat="44.8353133" lon="8.0219733"><ele>195.6</ele><time>2026-04-19T10:23:26.918Z</time></trkpt><trkpt lat="44.8352433" lon="8.0220567"><ele>197.0</ele><time>2026-04-19T10:23:27.917Z</time></trkpt><trkpt lat="44.8351983" lon="8.0221467"><ele>197.0</ele><time>2026-04-19T10:23:28.918Z</time></trkpt><trkpt lat="44.8351783" lon="8.0222383"><ele>197.0</ele><time>2026-04-19T10:23:29.918Z</time></trkpt><trkpt lat="44.8351967" lon="8.0223383"><ele>197.0</ele><time>2026-04-19T10:23:30.918Z</time></trkpt><trkpt lat="44.8352517" lon="8.0224617"><ele>197.0</ele><time>2026-04-19T10:23:31.918Z</time></trkpt><trkpt lat="44.8353333" lon="8.0226017"><ele>197.0</ele><time>2026-04-19T10:23:32.918Z</time></trkpt><trkpt lat="44.8354083" lon="8.02274"><ele>195.8</ele><time>2026-04-19T10:23:33.918Z</time></trkpt><trkpt lat="44.835485" lon="8.0228683"><ele>194.6</ele><time>2026-04-19T10:23:34.918Z</time></trkpt><trkpt lat="44.8355517" lon="8.0229917"><ele>193.4</ele><time>2026-04-19T10:23:35.918Z</time></trkpt><trkpt lat="44.8356067" lon="8.0231067"><ele>192.20000000000002</ele><time>2026-04-19T10:23:36.917Z</time></trkpt><trkpt lat="44.8356467" lon="8.0232183"><ele>191.0</ele><time>2026-04-19T10:23:37.917Z</time></trkpt><trkpt lat="44.835675" lon="8.023335"><ele>190.0</ele><time>2026-04-19T10:23:38.917Z</time></trkpt><trkpt lat="44.8356967" lon="8.0234617"><ele>189.0</ele><time>2026-04-19T10:23:39.918Z</time></trkpt><trkpt lat="44.8357067" lon="8.0236033"><ele>188.0</ele><time>2026-04-19T10:23:40.917Z</time></trkpt><trkpt lat="44.835705" lon="8.0237417"><ele>187.0</ele><time>2026-04-19T10:23:41.918Z</time></trkpt><trkpt lat="44.8356867" lon="8.023875"><ele>186.0</ele><time>2026-04-19T10:23:42.918Z</time></trkpt><trkpt lat="44.8356583" lon="8.02399"><ele>186.0</ele><time>2026-04-19T10:23:43.917Z</time></trkpt><trkpt lat="44.83563" lon="8.024095"><ele>186.0</ele><time>2026-04-19T10:23:44.918Z</time></trkpt><trkpt lat="44.835605" lon="8.0241867"><ele>186.0</ele><time>2026-04-19T10:23:45.917Z</time></trkpt><trkpt lat="44.8355783" lon="8.0242683"><ele>186.0</ele><time>2026-04-19T10:23:46.917Z</time></trkpt><trkpt lat="44.8354817" lon="8.0243833"><ele>186.0</ele><time>2026-04-19T10:23:48.917Z</time></trkpt><trkpt lat="44.8354083" lon="8.024455"><ele>186.0</ele><time>2026-04-19T10:23:49.918Z</time></trkpt><trkpt lat="44.8353383" lon="8.0245417"><ele>186.0</ele><time>2026-04-19T10:23:50.917Z</time></trkpt><trkpt lat="44.8352483" lon="8.0246317"><ele>186.0</ele><time>2026-04-19T10:23:51.917Z</time></trkpt><trkpt lat="44.8351667" lon="8.0247483"><ele>186.0</ele><time>2026-04-19T10:23:52.918Z</time></trkpt><trkpt lat="44.8350867" lon="8.024875"><ele>186.0</ele><time>2026-04-19T10:23:53.918Z</time></trkpt><trkpt lat="44.8349967" lon="8.025005"><ele>186.5</ele><time>2026-04-19T10:23:54.917Z</time></trkpt><trkpt lat="44.834915" lon="8.02514"><ele>187.0</ele><time>2026-04-19T10:23:55.917Z</time></trkpt><trkpt lat="44.834815" lon="8.02526"><ele>187.5</ele><time>2026-04-19T10:23:56.918Z</time></trkpt><trkpt lat="44.8347117" lon="8.02538"><ele>188.0</ele><time>2026-04-19T10:23:57.917Z</time></trkpt><trkpt lat="44.83461" lon="8.025505"><ele>188.0</ele><time>2026-04-19T10:23:58.917Z</time></trkpt><trkpt lat="44.8345133" lon="8.0256233"><ele>188.0</ele><time>2026-04-19T10:23:59.917Z</time></trkpt><trkpt lat="44.8344317" lon="8.0257233"><ele>188.0</ele><time>2026-04-19T10:24:00.918Z</time></trkpt><trkpt lat="44.834355" lon="8.0258167"><ele>188.0</ele><time>2026-04-19T10:24:01.918Z</time></trkpt><trkpt lat="44.834275" lon="8.025905"><ele>188.0</ele><time>2026-04-19T10:24:02.917Z</time></trkpt><trkpt lat="44.8341933" lon="8.0259733"><ele>189.8</ele><time>2026-04-19T10:24:03.918Z</time></trkpt><trkpt lat="44.8341117" lon="8.0260317"><ele>191.60000000000002</ele><time>2026-04-19T10:24:04.918Z</time></trkpt><trkpt lat="44.8340217" lon="8.0260883"><ele>193.39999999999998</ele><time>2026-04-19T10:24:05.917Z</time></trkpt><trkpt lat="44.8339283" lon="8.02614"><ele>195.2</ele><time>2026-04-19T10:24:06.917Z</time></trkpt><trkpt lat="44.8338433" lon="8.0261883"><ele>197.0</ele><time>2026-04-19T10:24:07.917Z</time></trkpt><trkpt lat="44.8337667" lon="8.02624"><ele>197.0</ele><time>2026-04-19T10:24:08.917Z</time></trkpt><trkpt lat="44.8336867" lon="8.0262883"><ele>197.0</ele><time>2026-04-19T10:24:09.918Z</time></trkpt><trkpt lat="44.833595" lon="8.026335"><ele>197.0</ele><time>2026-04-19T10:24:10.918Z</time></trkpt><trkpt lat="44.8335017" lon="8.02639"><ele>197.0</ele><time>2026-04-19T10:24:11.917Z</time></trkpt><trkpt lat="44.8334117" lon="8.0264333"><ele>197.0</ele><time>2026-04-19T10:24:12.917Z</time></trkpt><trkpt lat="44.83331" lon="8.0264783"><ele>197.6</ele><time>2026-04-19T10:24:13.917Z</time></trkpt><trkpt lat="44.83321" lon="8.0265267"><ele>198.2</ele><time>2026-04-19T10:24:14.917Z</time></trkpt><trkpt lat="44.8331167" lon="8.0265717"><ele>198.8</ele><time>2026-04-19T10:24:15.918Z</time></trkpt><trkpt lat="44.8330283" lon="8.0266217"><ele>199.4</ele><time>2026-04-19T10:24:16.917Z</time></trkpt><trkpt lat="44.8329333" lon="8.02667"><ele>200.0</ele><time>2026-04-19T10:24:17.917Z</time></trkpt><trkpt lat="44.8328483" lon="8.0267233"><ele>200.4</ele><time>2026-04-19T10:24:18.917Z</time></trkpt><trkpt lat="44.8327767" lon="8.0267917"><ele>200.8</ele><time>2026-04-19T10:24:19.918Z</time></trkpt><trkpt lat="44.83271" lon="8.026895"><ele>201.2</ele><time>2026-04-19T10:24:20.918Z</time></trkpt><trkpt lat="44.8326667" lon="8.0270233"><ele>201.6</ele><time>2026-04-19T10:24:21.917Z</time></trkpt><trkpt lat="44.83265" lon="8.02718"><ele>202.0</ele><time>2026-04-19T10:24:22.917Z</time></trkpt><trkpt lat="44.8326533" lon="8.0273433"><ele>202.16666666666666</ele><time>2026-04-19T10:24:23.917Z</time></trkpt><trkpt lat="44.832655" lon="8.0275033"><ele>202.33333333333331</ele><time>2026-04-19T10:24:24.918Z</time></trkpt><trkpt lat="44.8326533" lon="8.0276333"><ele>202.5</ele><time>2026-04-19T10:24:25.917Z</time></trkpt><trkpt lat="44.8326517" lon="8.0277467"><ele>202.66666666666669</ele><time>2026-04-19T10:24:27.917Z</time></trkpt><trkpt lat="44.8325717" lon="8.0277717"><ele>202.83333333333334</ele><time>2026-04-19T10:24:30.918Z</time></trkpt><trkpt lat="44.8325083" lon="8.027725"><ele>203.0</ele><time>2026-04-19T10:24:31.918Z</time></trkpt><trkpt lat="44.8324233" lon="8.0276517"><ele>205.0</ele><time>2026-04-19T10:24:32.918Z</time></trkpt><trkpt lat="44.8323383" lon="8.0275667"><ele>207.0</ele><time>2026-04-19T10:24:33.917Z</time></trkpt><trkpt lat="44.8322383" lon="8.0274683"><ele>209.0</ele><time>2026-04-19T10:24:34.918Z</time></trkpt><trkpt lat="44.83214" lon="8.0273733"><ele>211.0</ele><time>2026-04-19T10:24:35.918Z</time></trkpt><trkpt lat="44.832035" lon="8.027315"><ele>211.0</ele><time>2026-04-19T10:24:36.918Z</time></trkpt><trkpt lat="44.8319233" lon="8.027285"><ele>211.0</ele><time>2026-04-19T10:24:37.918Z</time></trkpt><trkpt lat="44.831825" lon="8.0272667"><ele>211.0</ele><time>2026-04-19T10:24:38.918Z</time></trkpt><trkpt lat="44.8317417" lon="8.027235"><ele>211.0</ele><time>2026-04-19T10:24:39.918Z</time></trkpt><trkpt lat="44.83168" lon="8.027165"><ele>211.0</ele><time>2026-04-19T10:24:40.917Z</time></trkpt><trkpt lat="44.83163" lon="8.027055"><ele>214.5</ele><time>2026-04-19T10:24:41.917Z</time></trkpt><trkpt lat="44.831575" lon="8.0269367"><ele>218.0</ele><time>2026-04-19T10:24:42.917Z</time></trkpt><trkpt lat="44.8314967" lon="8.0268233"><ele>221.5</ele><time>2026-04-19T10:24:43.918Z</time></trkpt><trkpt lat="44.8314" lon="8.0267183"><ele>225.0</ele><time>2026-04-19T10:24:44.918Z</time></trkpt><trkpt lat="44.83129" lon="8.0266133"><ele>225.0</ele><time>2026-04-19T10:24:45.917Z</time></trkpt><trkpt lat="44.8311733" lon="8.026505"><ele>225.0</ele><time>2026-04-19T10:24:46.917Z</time></trkpt><trkpt lat="44.83106" lon="8.02639"><ele>225.0</ele><time>2026-04-19T10:24:47.917Z</time></trkpt><trkpt lat="44.830965" lon="8.026295"><ele>225.0</ele><time>2026-04-19T10:24:48.917Z</time></trkpt><trkpt lat="44.830885" lon="8.0262033"><ele>228.0</ele><time>2026-04-19T10:24:49.917Z</time></trkpt><trkpt lat="44.8308033" lon="8.0261167"><ele>231.0</ele><time>2026-04-19T10:24:50.917Z</time></trkpt><trkpt lat="44.8307017" lon="8.02603"><ele>234.0</ele><time>2026-04-19T10:24:51.918Z</time></trkpt><trkpt lat="44.8305783" lon="8.0259517"><ele>237.0</ele><time>2026-04-19T10:24:52.918Z</time></trkpt><trkpt lat="44.8304367" lon="8.0258883"><ele>237.0</ele><time>2026-04-19T10:24:53.917Z</time></trkpt><trkpt lat="44.830275" lon="8.0258433"><ele>237.0</ele><time>2026-04-19T10:24:54.918Z</time></trkpt><trkpt lat="44.8301117" lon="8.0258017"><ele>237.0</ele><time>2026-04-19T10:24:55.917Z</time></trkpt><trkpt lat="44.8299617" lon="8.02576"><ele>235.75</ele><time>2026-04-19T10:24:56.917Z</time></trkpt><trkpt lat="44.8298217" lon="8.0257217"><ele>234.5</ele><time>2026-04-19T10:24:57.918Z</time></trkpt><trkpt lat="44.8296783" lon="8.025665"><ele>233.25</ele><time>2026-04-19T10:24:58.917Z</time></trkpt><trkpt lat="44.829535" lon="8.0256017"><ele>232.0</ele><time>2026-04-19T10:24:59.918Z</time></trkpt><trkpt lat="44.829385" lon="8.0255333"><ele>231.66666666666666</ele><time>2026-04-19T10:25:00.918Z</time></trkpt><trkpt lat="44.8292417" lon="8.0254717"><ele>231.33333333333331</ele><time>2026-04-19T10:25:01.917Z</time></trkpt><trkpt lat="44.8290833" lon="8.02543"><ele>231.0</ele><time>2026-04-19T10:25:02.917Z</time></trkpt><trkpt lat="44.8289283" lon="8.0254017"><ele>231.0</ele><time>2026-04-19T10:25:03.918Z</time></trkpt><trkpt lat="44.82877" lon="8.0253733"><ele>231.0</ele><time>2026-04-19T10:25:04.917Z</time></trkpt><trkpt lat="44.82861" lon="8.0253567"><ele>231.0</ele><time>2026-04-19T10:25:05.917Z</time></trkpt><trkpt lat="44.82845" lon="8.0253583"><ele>232.25</ele><time>2026-04-19T10:25:06.917Z</time></trkpt><trkpt lat="44.828305" lon="8.02538"><ele>233.5</ele><time>2026-04-19T10:25:07.918Z</time></trkpt><trkpt lat="44.82818" lon="8.0254083"><ele>234.75</ele><time>2026-04-19T10:25:08.918Z</time></trkpt><trkpt lat="44.828075" lon="8.0254583"><ele>236.0</ele><time>2026-04-19T10:25:09.917Z</time></trkpt><trkpt lat="44.827965" lon="8.0255383"><ele>236.0</ele><time>2026-04-19T10:25:10.918Z</time></trkpt><trkpt lat="44.827855" lon="8.0256517"><ele>236.0</ele><time>2026-04-19T10:25:11.917Z</time></trkpt><trkpt lat="44.8277483" lon="8.02579"><ele>236.0</ele><time>2026-04-19T10:25:12.918Z</time></trkpt><trkpt lat="44.8276433" lon="8.0259283"><ele>236.0</ele><time>2026-04-19T10:25:13.917Z</time></trkpt><trkpt lat="44.8275417" lon="8.02607"><ele>238.20000000000002</ele><time>2026-04-19T10:25:14.918Z</time></trkpt><trkpt lat="44.8274517" lon="8.0262"><ele>240.40000000000003</ele><time>2026-04-19T10:25:15.918Z</time></trkpt><trkpt lat="44.82739" lon="8.026315"><ele>242.6</ele><time>2026-04-19T10:25:16.917Z</time></trkpt><trkpt lat="44.8273517" lon="8.0263867"><ele>244.8</ele><time>2026-04-19T10:25:17.917Z</time></trkpt><trkpt lat="44.8272667" lon="8.0263883"><ele>247.0</ele><time>2026-04-19T10:25:19.918Z</time></trkpt><trkpt lat="44.8271983" lon="8.026365"><ele>247.0</ele><time>2026-04-19T10:25:20.918Z</time></trkpt><trkpt lat="44.8271017" lon="8.02633"><ele>247.0</ele><time>2026-04-19T10:25:21.917Z</time></trkpt><trkpt lat="44.826985" lon="8.0262783"><ele>247.0</ele><time>2026-04-19T10:25:22.917Z</time></trkpt><trkpt lat="44.826855" lon="8.02622"><ele>247.0</ele><time>2026-04-19T10:25:23.917Z</time></trkpt><trkpt lat="44.82673" lon="8.0261683"><ele>246.6</ele><time>2026-04-19T10:25:24.918Z</time></trkpt><trkpt lat="44.8266217" lon="8.0261133"><ele>246.2</ele><time>2026-04-19T10:25:25.917Z</time></trkpt><trkpt lat="44.82652" lon="8.0260583"><ele>245.8</ele><time>2026-04-19T10:25:26.918Z</time></trkpt><trkpt lat="44.8264167" lon="8.026015"><ele>245.4</ele><time>2026-04-19T10:25:27.917Z</time></trkpt><trkpt lat="44.8263167" lon="8.025965"><ele>245.0</ele><time>2026-04-19T10:25:28.917Z</time></trkpt><trkpt lat="44.826215" lon="8.0259183"><ele>245.0</ele><time>2026-04-19T10:25:29.917Z</time></trkpt><trkpt lat="44.8261183" lon="8.02587"><ele>245.0</ele><time>2026-04-19T10:25:30.918Z</time></trkpt><trkpt lat="44.82602" lon="8.02582"><ele>245.0</ele><time>2026-04-19T10:25:31.917Z</time></trkpt><trkpt lat="44.8259233" lon="8.025765"><ele>245.0</ele><time>2026-04-19T10:25:32.917Z</time></trkpt><trkpt lat="44.8258217" lon="8.025695"><ele>245.0</ele><time>2026-04-19T10:25:33.917Z</time></trkpt><trkpt lat="44.82572" lon="8.0256083"><ele>244.0</ele><time>2026-04-19T10:25:34.918Z</time></trkpt><trkpt lat="44.8256217" lon="8.0255217"><ele>243.0</ele><time>2026-04-19T10:25:35.917Z</time></trkpt><trkpt lat="44.8255217" lon="8.0254367"><ele>242.0</ele><time>2026-04-19T10:25:36.918Z</time></trkpt><trkpt lat="44.8254233" lon="8.0253533"><ele>241.0</ele><time>2026-04-19T10:25:37.918Z</time></trkpt><trkpt lat="44.8253267" lon="8.0252667"><ele>241.0</ele><time>2026-04-19T10:25:38.917Z</time></trkpt><trkpt lat="44.825225" lon="8.0251717"><ele>241.0</ele><time>2026-04-19T10:25:39.917Z</time></trkpt><trkpt lat="44.8251283" lon="8.025065"><ele>241.0</ele><time>2026-04-19T10:25:40.917Z</time></trkpt><trkpt lat="44.82503" lon="8.0249517"><ele>241.0</ele><time>2026-04-19T10:25:41.918Z</time></trkpt><trkpt lat="44.8249267" lon="8.02484"><ele>244.5</ele><time>2026-04-19T10:25:42.917Z</time></trkpt><trkpt lat="44.8248283" lon="8.02472"><ele>248.0</ele><time>2026-04-19T10:25:43.917Z</time></trkpt><trkpt lat="44.8247333" lon="8.0246033"><ele>251.5</ele><time>2026-04-19T10:25:44.917Z</time></trkpt><trkpt lat="44.824625" lon="8.02448"><ele>255.0</ele><time>2026-04-19T10:25:45.917Z</time></trkpt><trkpt lat="44.8245167" lon="8.02435"><ele>255.0</ele><time>2026-04-19T10:25:46.918Z</time></trkpt><trkpt lat="44.8244033" lon="8.024225"><ele>255.0</ele><time>2026-04-19T10:25:47.917Z</time></trkpt><trkpt lat="44.8242883" lon="8.0240967"><ele>255.0</ele><time>2026-04-19T10:25:48.918Z</time></trkpt><trkpt lat="44.8241717" lon="8.023965"><ele>255.0</ele><time>2026-04-19T10:25:49.917Z</time></trkpt><trkpt lat="44.82406" lon="8.02385"><ele>257.4</ele><time>2026-04-19T10:25:50.918Z</time></trkpt><trkpt lat="44.8239533" lon="8.0237483"><ele>259.8</ele><time>2026-04-19T10:25:51.917Z</time></trkpt><trkpt lat="44.8238583" lon="8.0236617"><ele>262.2</ele><time>2026-04-19T10:25:52.917Z</time></trkpt><trkpt lat="44.8237683" lon="8.0235917"><ele>264.6</ele><time>2026-04-19T10:25:53.918Z</time></trkpt><trkpt lat="44.823685" lon="8.0235133"><ele>267.0</ele><time>2026-04-19T10:25:54.918Z</time></trkpt><trkpt lat="44.8236133" lon="8.0234283"><ele>267.0</ele><time>2026-04-19T10:25:55.918Z</time></trkpt><trkpt lat="44.823545" lon="8.023355"><ele>267.0</ele><time>2026-04-19T10:25:56.917Z</time></trkpt><trkpt lat="44.823485" lon="8.02326"><ele>267.0</ele><time>2026-04-19T10:25:57.918Z</time></trkpt><trkpt lat="44.8234217" lon="8.02316"><ele>267.0</ele><time>2026-04-19T10:25:58.918Z</time></trkpt><trkpt lat="44.823355" lon="8.023055"><ele>267.0</ele><time>2026-04-19T10:25:59.917Z</time></trkpt><trkpt lat="44.82327" lon="8.022945"><ele>268.0</ele><time>2026-04-19T10:26:00.917Z</time></trkpt><trkpt lat="44.8231817" lon="8.022835"><ele>269.0</ele><time>2026-04-19T10:26:01.917Z</time></trkpt><trkpt lat="44.823095" lon="8.0227267"><ele>270.0</ele><time>2026-04-19T10:26:02.918Z</time></trkpt><trkpt lat="44.82301" lon="8.022615"><ele>271.0</ele><time>2026-04-19T10:26:03.918Z</time></trkpt><trkpt lat="44.82293" lon="8.0225017"><ele>269.8</ele><time>2026-04-19T10:26:04.918Z</time></trkpt><trkpt lat="44.8228533" lon="8.0223783"><ele>268.6</ele><time>2026-04-19T10:26:05.917Z</time></trkpt><trkpt lat="44.8227767" lon="8.0222683"><ele>267.4</ele><time>2026-04-19T10:26:06.918Z</time></trkpt><trkpt lat="44.8226917" lon="8.0221617"><ele>266.2</ele><time>2026-04-19T10:26:07.917Z</time></trkpt><trkpt lat="44.8226083" lon="8.0220617"><ele>265.0</ele><time>2026-04-19T10:26:08.918Z</time></trkpt><trkpt lat="44.822535" lon="8.0219533"><ele>267.6</ele><time>2026-04-19T10:26:09.918Z</time></trkpt><trkpt lat="44.8224733" lon="8.0218483"><ele>270.2</ele><time>2026-04-19T10:26:10.917Z</time></trkpt><trkpt lat="44.822415" lon="8.0217217"><ele>272.8</ele><time>2026-04-19T10:26:11.918Z</time></trkpt><trkpt lat="44.8223567" lon="8.021585"><ele>275.4</ele><time>2026-04-19T10:26:12.918Z</time></trkpt><trkpt lat="44.8222917" lon="8.021445"><ele>278.0</ele><time>2026-04-19T10:26:13.918Z</time></trkpt><trkpt lat="44.8222233" lon="8.0213117"><ele>278.2</ele><time>2026-04-19T10:26:14.917Z</time></trkpt><trkpt lat="44.8221467" lon="8.02119"><ele>278.4</ele><time>2026-04-19T10:26:15.918Z</time></trkpt><trkpt lat="44.8220683" lon="8.0210917"><ele>278.59999999999997</ele><time>2026-04-19T10:26:16.917Z</time></trkpt><trkpt lat="44.82198" lon="8.0210117"><ele>278.8</ele><time>2026-04-19T10:26:17.917Z</time></trkpt><trkpt lat="44.8218883" lon="8.0209367"><ele>279.0</ele><time>2026-04-19T10:26:18.918Z</time></trkpt><trkpt lat="44.8217883" lon="8.0208483"><ele>280.5</ele><time>2026-04-19T10:26:19.917Z</time></trkpt><trkpt lat="44.8216843" lon="8.0207614"><ele>282.0</ele><time>2026-04-19T10:26:20.917Z</time></trkpt><trkpt lat="44.8215802" lon="8.0206763"><ele>283.5</ele><time>2026-04-19T10:26:21.918Z</time></trkpt><trkpt lat="44.8214681" lon="8.020599"><ele>285.0</ele><time>2026-04-19T10:26:22.917Z</time></trkpt><trkpt lat="44.8213549" lon="8.0205245"><ele>285.0</ele><time>2026-04-19T10:26:23.918Z</time></trkpt><trkpt lat="44.8212439" lon="8.0204498"><ele>285.0</ele><time>2026-04-19T10:26:24.918Z</time></trkpt><trkpt lat="44.8211306" lon="8.0203753"><ele>285.0</ele><time>2026-04-19T10:26:25.918Z</time></trkpt><trkpt lat="44.8210182" lon="8.0202963"><ele>285.0</ele><time>2026-04-19T10:26:26.917Z</time></trkpt><trkpt lat="44.8209186" lon="8.0202035"><ele>282.8</ele><time>2026-04-19T10:26:27.917Z</time></trkpt><trkpt lat="44.8208435" lon="8.0201039"><ele>280.6</ele><time>2026-04-19T10:26:28.918Z</time></trkpt><trkpt lat="44.8207942" lon="8.0200349"><ele>278.4</ele><time>2026-04-19T10:26:29.917Z</time></trkpt><trkpt lat="44.8206821" lon="8.0200251"><ele>276.2</ele><time>2026-04-19T10:26:31.917Z</time></trkpt><trkpt lat="44.8205801" lon="8.0200583"><ele>274.0</ele><time>2026-04-19T10:26:32.917Z</time></trkpt><trkpt lat="44.8204467" lon="8.0200801"><ele>274.0</ele><time>2026-04-19T10:26:33.918Z</time></trkpt><trkpt lat="44.8203043" lon="8.0200959"><ele>274.0</ele><time>2026-04-19T10:26:34.917Z</time></trkpt><trkpt lat="44.8201704" lon="8.0201094"><ele>274.0</ele><time>2026-04-19T10:26:35.917Z</time></trkpt><trkpt lat="44.82003" lon="8.0201172"><ele>274.0</ele><time>2026-04-19T10:26:36.917Z</time></trkpt><trkpt lat="44.81989" lon="8.0201159"><ele>274.0</ele><time>2026-04-19T10:26:37.917Z</time></trkpt><trkpt lat="44.8197527" lon="8.0201254"><ele>274.0</ele><time>2026-04-19T10:26:38.918Z</time></trkpt><trkpt lat="44.819631" lon="8.0201325"><ele>274.0</ele><time>2026-04-19T10:26:39.918Z</time></trkpt><trkpt lat="44.8195145" lon="8.0201161"><ele>274.0</ele><time>2026-04-19T10:26:40.917Z</time></trkpt><trkpt lat="44.8193882" lon="8.0200792"><ele>274.0</ele><time>2026-04-19T10:26:41.918Z</time></trkpt><trkpt lat="44.8192639" lon="8.0200206"><ele>274.0</ele><time>2026-04-19T10:26:42.918Z</time></trkpt><trkpt lat="44.8191564" lon="8.0199588"><ele>274.0</ele><time>2026-04-19T10:26:43.917Z</time></trkpt><trkpt lat="44.8190569" lon="8.0198844"><ele>274.0</ele><time>2026-04-19T10:26:44.917Z</time></trkpt><trkpt lat="44.8189466" lon="8.0198072"><ele>273.75</ele><time>2026-04-19T10:26:45.917Z</time></trkpt><trkpt lat="44.8188284" lon="8.019724"><ele>273.5</ele><time>2026-04-19T10:26:46.917Z</time></trkpt><trkpt lat="44.81871" lon="8.0196461"><ele>273.25</ele><time>2026-04-19T10:26:47.917Z</time></trkpt><trkpt lat="44.8185937" lon="8.0195788"><ele>273.0</ele><time>2026-04-19T10:26:48.918Z</time></trkpt><trkpt lat="44.8184895" lon="8.0195176"><ele>273.0</ele><time>2026-04-19T10:26:49.917Z</time></trkpt><trkpt lat="44.8183997" lon="8.0194694"><ele>273.0</ele><time>2026-04-19T10:26:50.918Z</time></trkpt><trkpt lat="44.8183218" lon="8.0194257"><ele>273.0</ele><time>2026-04-19T10:26:51.917Z</time></trkpt><trkpt lat="44.8182511" lon="8.01939"><ele>273.0</ele><time>2026-04-19T10:26:52.918Z</time></trkpt><trkpt lat="44.818176" lon="8.019376"><ele>273.0</ele><time>2026-04-19T10:26:53.918Z</time></trkpt><trkpt lat="44.8180963" lon="8.0193767"><ele>273.0</ele><time>2026-04-19T10:26:54.918Z</time></trkpt><trkpt lat="44.8180187" lon="8.0193881"><ele>273.0</ele><time>2026-04-19T10:26:55.918Z</time></trkpt><trkpt lat="44.8179416" lon="8.0194101"><ele>273.0</ele><time>2026-04-19T10:26:56.918Z</time></trkpt><trkpt lat="44.8178658" lon="8.0194395"><ele>273.0</ele><time>2026-04-19T10:26:57.918Z</time></trkpt><trkpt lat="44.8177844" lon="8.0194703"><ele>273.0</ele><time>2026-04-19T10:26:58.918Z</time></trkpt><trkpt lat="44.8177038" lon="8.0195024"><ele>273.0</ele><time>2026-04-19T10:26:59.917Z</time></trkpt><trkpt lat="44.8176262" lon="8.019536"><ele>273.0</ele><time>2026-04-19T10:27:00.918Z</time></trkpt><trkpt lat="44.8175539" lon="8.0195743"><ele>273.6</ele><time>2026-04-19T10:27:01.917Z</time></trkpt><trkpt lat="44.8174893" lon="8.0196199"><ele>274.20000000000005</ele><time>2026-04-19T10:27:02.917Z</time></trkpt><trkpt lat="44.8174272" lon="8.0196958"><ele>274.8</ele><time>2026-04-19T10:27:03.918Z</time></trkpt><trkpt lat="44.8173679" lon="8.0197935"><ele>275.40000000000003</ele><time>2026-04-19T10:27:04.917Z</time></trkpt><trkpt lat="44.8173226" lon="8.0199146"><ele>276.0</ele><time>2026-04-19T10:27:05.917Z</time></trkpt><trkpt lat="44.8173047" lon="8.0200656"><ele>277.0</ele><time>2026-04-19T10:27:06.918Z</time></trkpt><trkpt lat="44.8173052" lon="8.0202261"><ele>278.0</ele><time>2026-04-19T10:27:07.918Z</time></trkpt><trkpt lat="44.8173183" lon="8.0203783"><ele>279.0</ele><time>2026-04-19T10:27:08.918Z</time></trkpt><trkpt lat="44.81733" lon="8.0205117"><ele>280.0</ele><time>2026-04-19T10:27:09.918Z</time></trkpt><trkpt lat="44.8173383" lon="8.0206183"><ele>281.0</ele><time>2026-04-19T10:27:10.918Z</time></trkpt><trkpt lat="44.8173417" lon="8.0207317"><ele>281.2</ele><time>2026-04-19T10:27:11.917Z</time></trkpt><trkpt lat="44.8173517" lon="8.0208533"><ele>281.40000000000003</ele><time>2026-04-19T10:27:12.917Z</time></trkpt><trkpt lat="44.8173683" lon="8.0209817"><ele>281.6</ele><time>2026-04-19T10:27:13.917Z</time></trkpt><trkpt lat="44.81738" lon="8.0211133"><ele>281.8</ele><time>2026-04-19T10:27:14.918Z</time></trkpt><trkpt lat="44.8173783" lon="8.021235"><ele>282.0</ele><time>2026-04-19T10:27:15.918Z</time></trkpt><trkpt lat="44.8173567" lon="8.02136"><ele>282.0</ele><time>2026-04-19T10:27:16.917Z</time></trkpt><trkpt lat="44.81732" lon="8.0214817"><ele>282.0</ele><time>2026-04-19T10:27:17.918Z</time></trkpt><trkpt lat="44.8172867" lon="8.0215933"><ele>282.0</ele><time>2026-04-19T10:27:18.917Z</time></trkpt><trkpt lat="44.8172733" lon="8.02169"><ele>282.0</ele><time>2026-04-19T10:27:19.917Z</time></trkpt><trkpt lat="44.8172767" lon="8.0218333"><ele>282.0</ele><time>2026-04-19T10:27:21.918Z</time></trkpt><trkpt lat="44.8172933" lon="8.0219267"><ele>282.0</ele><time>2026-04-19T10:27:23.917Z</time></trkpt><trkpt lat="44.8173083" lon="8.0220517"><ele>282.5</ele><time>2026-04-19T10:27:25.917Z</time></trkpt><trkpt lat="44.8173267" lon="8.0222117"><ele>283.0</ele><time>2026-04-19T10:27:27.917Z</time></trkpt><trkpt lat="44.8173233" lon="8.02231"><ele>283.5</ele><time>2026-04-19T10:27:28.917Z</time></trkpt><trkpt lat="44.8173083" lon="8.0224133"><ele>284.0</ele><time>2026-04-19T10:27:29.917Z</time></trkpt><trkpt lat="44.8172967" lon="8.0225067"><ele>284.5</ele><time>2026-04-19T10:27:30.917Z</time></trkpt><trkpt lat="44.8172867" lon="8.0226033"><ele>285.0</ele><time>2026-04-19T10:27:31.917Z</time></trkpt><trkpt lat="44.8172783" lon="8.0227"><ele>285.6666666666667</ele><time>2026-04-19T10:27:32.917Z</time></trkpt><trkpt lat="44.81726" lon="8.0227933"><ele>286.3333333333333</ele><time>2026-04-19T10:27:33.918Z</time></trkpt><trkpt lat="44.81724" lon="8.0229017"><ele>287.0</ele><time>2026-04-19T10:27:34.917Z</time></trkpt><trkpt lat="44.8172033" lon="8.02301"><ele>287.66666666666663</ele><time>2026-04-19T10:27:35.918Z</time></trkpt><trkpt lat="44.8171617" lon="8.023135"><ele>288.3333333333333</ele><time>2026-04-19T10:27:36.918Z</time></trkpt><trkpt lat="44.817125" lon="8.0232633"><ele>289.0</ele><time>2026-04-19T10:27:37.917Z</time></trkpt><trkpt lat="44.8170933" lon="8.0233783"><ele>290.3333333333333</ele><time>2026-04-19T10:27:38.918Z</time></trkpt><trkpt lat="44.8170617" lon="8.023495"><ele>291.66666666666663</ele><time>2026-04-19T10:27:39.918Z</time></trkpt><trkpt lat="44.8170383" lon="8.023605"><ele>293.0</ele><time>2026-04-19T10:27:40.917Z</time></trkpt><trkpt lat="44.817" lon="8.02371"><ele>294.3333333333333</ele><time>2026-04-19T10:27:41.918Z</time></trkpt><trkpt lat="44.81695" lon="8.02382"><ele>295.6666666666667</ele><time>2026-04-19T10:27:42.917Z</time></trkpt><trkpt lat="44.8168917" lon="8.0239317"><ele>297.0</ele><time>2026-04-19T10:27:43.917Z</time></trkpt><trkpt lat="44.8168367" lon="8.0240233"><ele>294.8333333333333</ele><time>2026-04-19T10:27:44.917Z</time></trkpt><trkpt lat="44.816785" lon="8.0241117"><ele>292.6666666666667</ele><time>2026-04-19T10:27:45.917Z</time></trkpt><trkpt lat="44.8167267" lon="8.0242033"><ele>290.5</ele><time>2026-04-19T10:27:46.918Z</time></trkpt><trkpt lat="44.8166667" lon="8.0243"><ele>288.33333333333337</ele><time>2026-04-19T10:27:47.917Z</time></trkpt><trkpt lat="44.81661" lon="8.0243933"><ele>286.1666666666667</ele><time>2026-04-19T10:27:48.918Z</time></trkpt><trkpt lat="44.8165617" lon="8.024485"><ele>284.0</ele><time>2026-04-19T10:27:49.917Z</time></trkpt><trkpt lat="44.8165267" lon="8.0245817"><ele>284.0</ele><time>2026-04-19T10:27:50.917Z</time></trkpt><trkpt lat="44.8165167" lon="8.0246867"><ele>284.0</ele><time>2026-04-19T10:27:51.918Z</time></trkpt><trkpt lat="44.8165133" lon="8.0247967"><ele>284.0</ele><time>2026-04-19T10:27:52.918Z</time></trkpt><trkpt lat="44.8165183" lon="8.024925"><ele>284.0</ele><time>2026-04-19T10:27:53.917Z</time></trkpt><trkpt lat="44.8165267" lon="8.0250417"><ele>284.0</ele><time>2026-04-19T10:27:54.917Z</time></trkpt><trkpt lat="44.816525" lon="8.02516"><ele>284.0</ele><time>2026-04-19T10:27:55.918Z</time></trkpt><trkpt lat="44.8165083" lon="8.0252717"><ele>284.59999999999997</ele><time>2026-04-19T10:27:56.918Z</time></trkpt><trkpt lat="44.816475" lon="8.0253933"><ele>285.2</ele><time>2026-04-19T10:27:57.917Z</time></trkpt><trkpt lat="44.816425" lon="8.025525"><ele>285.79999999999995</ele><time>2026-04-19T10:27:58.917Z</time></trkpt><trkpt lat="44.8163683" lon="8.0256533"><ele>286.4</ele><time>2026-04-19T10:27:59.917Z</time></trkpt><trkpt lat="44.8163133" lon="8.0257833"><ele>287.0</ele><time>2026-04-19T10:28:00.917Z</time></trkpt><trkpt lat="44.8162683" lon="8.0259"><ele>285.8</ele><time>2026-04-19T10:28:01.917Z</time></trkpt><trkpt lat="44.8162233" lon="8.026005"><ele>284.6</ele><time>2026-04-19T10:28:02.917Z</time></trkpt><trkpt lat="44.8161817" lon="8.0260967"><ele>283.40000000000003</ele><time>2026-04-19T10:28:03.917Z</time></trkpt><trkpt lat="44.8161133" lon="8.0261767"><ele>282.2</ele><time>2026-04-19T10:28:04.918Z</time></trkpt><trkpt lat="44.8160283" lon="8.0262667"><ele>281.0</ele><time>2026-04-19T10:28:05.918Z</time></trkpt><trkpt lat="44.8159167" lon="8.026335"><ele>276.75</ele><time>2026-04-19T10:28:06.917Z</time></trkpt><trkpt lat="44.8158017" lon="8.026415"><ele>272.5</ele><time>2026-04-19T10:28:07.917Z</time></trkpt><trkpt lat="44.81569" lon="8.0264917"><ele>268.25</ele><time>2026-04-19T10:28:08.918Z</time></trkpt><trkpt lat="44.8155767" lon="8.0265617"><ele>264.0</ele><time>2026-04-19T10:28:09.918Z</time></trkpt><trkpt lat="44.8154617" lon="8.0266317"><ele>264.59999999999997</ele><time>2026-04-19T10:28:10.918Z</time></trkpt><trkpt lat="44.81536" lon="8.0267033"><ele>265.2</ele><time>2026-04-19T10:28:11.918Z</time></trkpt><trkpt lat="44.8152633" lon="8.0267683"><ele>265.79999999999995</ele><time>2026-04-19T10:28:12.917Z</time></trkpt><trkpt lat="44.8151767" lon="8.0268267"><ele>266.4</ele><time>2026-04-19T10:28:13.918Z</time></trkpt><trkpt lat="44.8150983" lon="8.0268833"><ele>267.0</ele><time>2026-04-19T10:28:14.918Z</time></trkpt><trkpt lat="44.815035" lon="8.0269483"><ele>265.8333333333333</ele><time>2026-04-19T10:28:15.918Z</time></trkpt><trkpt lat="44.8149783" lon="8.02702"><ele>264.6666666666667</ele><time>2026-04-19T10:28:16.917Z</time></trkpt><trkpt lat="44.8149317" lon="8.027115"><ele>263.5</ele><time>2026-04-19T10:28:17.917Z</time></trkpt><trkpt lat="44.8149033" lon="8.02723"><ele>262.33333333333337</ele><time>2026-04-19T10:28:18.918Z</time></trkpt><trkpt lat="44.814905" lon="8.0273433"><ele>261.1666666666667</ele><time>2026-04-19T10:28:19.918Z</time></trkpt><trkpt lat="44.814915" lon="8.0274417"><ele>260.0</ele><time>2026-04-19T10:28:20.918Z</time></trkpt><trkpt lat="44.8149433" lon="8.0275833"><ele>259.33333333333337</ele><time>2026-04-19T10:28:22.917Z</time></trkpt><trkpt lat="44.8149683" lon="8.0276767"><ele>258.6666666666667</ele><time>2026-04-19T10:28:23.917Z</time></trkpt><trkpt lat="44.8149983" lon="8.0277817"><ele>258.0</ele><time>2026-04-19T10:28:24.917Z</time></trkpt><trkpt lat="44.815025" lon="8.02789"><ele>257.3333333333333</ele><time>2026-04-19T10:28:25.917Z</time></trkpt><trkpt lat="44.8150417" lon="8.027995"><ele>256.66666666666663</ele><time>2026-04-19T10:28:26.917Z</time></trkpt><trkpt lat="44.815055" lon="8.0281133"><ele>256.0</ele><time>2026-04-19T10:28:27.917Z</time></trkpt><trkpt lat="44.8150533" lon="8.02823"><ele>254.49999999999997</ele><time>2026-04-19T10:28:28.918Z</time></trkpt><trkpt lat="44.8150483" lon="8.0283483"><ele>253.0</ele><time>2026-04-19T10:28:29.917Z</time></trkpt><trkpt lat="44.815035" lon="8.0284767"><ele>251.5</ele><time>2026-04-19T10:28:30.917Z</time></trkpt><trkpt lat="44.8150317" lon="8.0285967"><ele>250.0</ele><time>2026-04-19T10:28:31.918Z</time></trkpt><trkpt lat="44.8150233" lon="8.0287117"><ele>248.49999999999997</ele><time>2026-04-19T10:28:32.918Z</time></trkpt><trkpt lat="44.8150233" lon="8.0288383"><ele>247.0</ele><time>2026-04-19T10:28:33.918Z</time></trkpt><trkpt lat="44.8150283" lon="8.02897"><ele>247.0</ele><time>2026-04-19T10:28:34.917Z</time></trkpt><trkpt lat="44.815035" lon="8.0291033"><ele>247.0</ele><time>2026-04-19T10:28:35.917Z</time></trkpt><trkpt lat="44.8150467" lon="8.0292267"><ele>247.0</ele><time>2026-04-19T10:28:36.916Z</time></trkpt><trkpt lat="44.815055" lon="8.0293533"><ele>247.0</ele><time>2026-04-19T10:28:37.916Z</time></trkpt><trkpt lat="44.8150617" lon="8.0294867"><ele>247.0</ele><time>2026-04-19T10:28:38.917Z</time></trkpt><trkpt lat="44.8150617" lon="8.029635"><ele>247.0</ele><time>2026-04-19T10:28:39.917Z</time></trkpt><trkpt lat="44.815065" lon="8.0297917"><ele>247.0</ele><time>2026-04-19T10:28:40.916Z</time></trkpt><trkpt lat="44.8150667" lon="8.0299483"><ele>247.0</ele><time>2026-04-19T10:28:41.916Z</time></trkpt><trkpt lat="44.8150667" lon="8.030105"><ele>247.0</ele><time>2026-04-19T10:28:42.916Z</time></trkpt><trkpt lat="44.8150733" lon="8.0302567"><ele>247.0</ele><time>2026-04-19T10:28:43.917Z</time></trkpt><trkpt lat="44.8150733" lon="8.0304"><ele>247.0</ele><time>2026-04-19T10:28:44.916Z</time></trkpt><trkpt lat="44.8150733" lon="8.0305417"><ele>247.0</ele><time>2026-04-19T10:28:45.916Z</time></trkpt><trkpt lat="44.8150717" lon="8.0306833"><ele>247.0</ele><time>2026-04-19T10:28:46.917Z</time></trkpt><trkpt lat="44.81507" lon="8.0308267"><ele>247.0</ele><time>2026-04-19T10:28:47.916Z</time></trkpt><trkpt lat="44.8150658" lon="8.0309686"><ele>247.0</ele><time>2026-04-19T10:28:48.916Z</time></trkpt><trkpt lat="44.81507" lon="8.0311083"><ele>247.0</ele><time>2026-04-19T10:28:49.917Z</time></trkpt><trkpt lat="44.8150858" lon="8.0312558"><ele>247.0</ele><time>2026-04-19T10:28:50.917Z</time></trkpt><trkpt lat="44.8151078" lon="8.0314167"><ele>247.0</ele><time>2026-04-19T10:28:51.916Z</time></trkpt><trkpt lat="44.8151449" lon="8.0315728"><ele>247.0</ele><time>2026-04-19T10:28:52.916Z</time></trkpt><trkpt lat="44.8152071" lon="8.0317097"><ele>244.25</ele><time>2026-04-19T10:28:53.917Z</time></trkpt><trkpt lat="44.8152866" lon="8.0318364"><ele>241.5</ele><time>2026-04-19T10:28:54.917Z</time></trkpt><trkpt lat="44.8153697" lon="8.0319595"><ele>238.75</ele><time>2026-04-19T10:28:55.916Z</time></trkpt><trkpt lat="44.8154487" lon="8.0320792"><ele>236.0</ele><time>2026-04-19T10:28:56.917Z</time></trkpt><trkpt lat="44.8155287" lon="8.0321956"><ele>236.0</ele><time>2026-04-19T10:28:57.916Z</time></trkpt><trkpt lat="44.8155992" lon="8.0323129"><ele>236.0</ele><time>2026-04-19T10:28:58.916Z</time></trkpt><trkpt lat="44.8156553" lon="8.0324446"><ele>236.0</ele><time>2026-04-19T10:28:59.916Z</time></trkpt><trkpt lat="44.8156992" lon="8.0325952"><ele>236.0</ele><time>2026-04-19T10:29:00.916Z</time></trkpt><trkpt lat="44.8157319" lon="8.0327605"><ele>236.0</ele><time>2026-04-19T10:29:01.916Z</time></trkpt><trkpt lat="44.8157599" lon="8.0329234"><ele>236.0</ele><time>2026-04-19T10:29:02.916Z</time></trkpt><trkpt lat="44.8157907" lon="8.0330894"><ele>236.0</ele><time>2026-04-19T10:29:03.916Z</time></trkpt><trkpt lat="44.8158306" lon="8.0332561"><ele>236.0</ele><time>2026-04-19T10:29:04.916Z</time></trkpt><trkpt lat="44.8158699" lon="8.0334102"><ele>235.0</ele><time>2026-04-19T10:29:05.917Z</time></trkpt><trkpt lat="44.8159094" lon="8.0335687"><ele>234.0</ele><time>2026-04-19T10:29:06.917Z</time></trkpt><trkpt lat="44.8159492" lon="8.0337337"><ele>233.0</ele><time>2026-04-19T10:29:07.916Z</time></trkpt><trkpt lat="44.8159805" lon="8.0338928"><ele>232.0</ele><time>2026-04-19T10:29:08.916Z</time></trkpt><trkpt lat="44.8160063" lon="8.0340505"><ele>229.5</ele><time>2026-04-19T10:29:09.917Z</time></trkpt><trkpt lat="44.8160328" lon="8.0342116"><ele>227.0</ele><time>2026-04-19T10:29:10.916Z</time></trkpt><trkpt lat="44.8160613" lon="8.0343763"><ele>224.5</ele><time>2026-04-19T10:29:11.917Z</time></trkpt><trkpt lat="44.8160874" lon="8.0345467"><ele>222.0</ele><time>2026-04-19T10:29:12.917Z</time></trkpt><trkpt lat="44.8161053" lon="8.0347145"><ele>222.0</ele><time>2026-04-19T10:29:13.917Z</time></trkpt><trkpt lat="44.8161209" lon="8.0348844"><ele>222.0</ele><time>2026-04-19T10:29:14.917Z</time></trkpt><trkpt lat="44.8161342" lon="8.0350557"><ele>222.0</ele><time>2026-04-19T10:29:15.917Z</time></trkpt><trkpt lat="44.8161509" lon="8.0352265"><ele>222.0</ele><time>2026-04-19T10:29:16.916Z</time></trkpt><trkpt lat="44.816167" lon="8.0353897"><ele>221.8</ele><time>2026-04-19T10:29:17.916Z</time></trkpt><trkpt lat="44.8161873" lon="8.0355428"><ele>221.6</ele><time>2026-04-19T10:29:18.917Z</time></trkpt><trkpt lat="44.8162067" lon="8.0356768"><ele>221.40000000000003</ele><time>2026-04-19T10:29:19.916Z</time></trkpt><trkpt lat="44.8162196" lon="8.0357753"><ele>221.20000000000002</ele><time>2026-04-19T10:29:20.916Z</time></trkpt><trkpt lat="44.8162299" lon="8.0358634"><ele>221.0</ele><time>2026-04-19T10:29:21.916Z</time></trkpt><trkpt lat="44.8162078" lon="8.0360375"><ele>220.16666666666669</ele><time>2026-04-19T10:29:23.917Z</time></trkpt><trkpt lat="44.8161675" lon="8.0361178"><ele>219.33333333333334</ele><time>2026-04-19T10:29:24.916Z</time></trkpt><trkpt lat="44.8161085" lon="8.0361896"><ele>218.5</ele><time>2026-04-19T10:29:25.917Z</time></trkpt><trkpt lat="44.8160362" lon="8.0362512"><ele>217.66666666666669</ele><time>2026-04-19T10:29:26.916Z</time></trkpt><trkpt lat="44.8159584" lon="8.0362931"><ele>216.83333333333334</ele><time>2026-04-19T10:29:27.917Z</time></trkpt><trkpt lat="44.8158871" lon="8.036332"><ele>216.0</ele><time>2026-04-19T10:29:28.916Z</time></trkpt><trkpt lat="44.8158037" lon="8.0364362"><ele>215.33333333333334</ele><time>2026-04-19T10:29:30.916Z</time></trkpt><trkpt lat="44.8158499" lon="8.0365801"><ele>214.66666666666669</ele><time>2026-04-19T10:29:32.917Z</time></trkpt><trkpt lat="44.8159204" lon="8.0366329"><ele>214.0</ele><time>2026-04-19T10:29:33.916Z</time></trkpt><trkpt lat="44.8159999" lon="8.0366721"><ele>213.33333333333334</ele><time>2026-04-19T10:29:34.916Z</time></trkpt><trkpt lat="44.816074" lon="8.0367077"><ele>212.66666666666669</ele><time>2026-04-19T10:29:35.916Z</time></trkpt><trkpt lat="44.8161349" lon="8.0367455"><ele>212.0</ele><time>2026-04-19T10:29:36.917Z</time></trkpt><trkpt lat="44.8161891" lon="8.0367971"><ele>212.0</ele><time>2026-04-19T10:29:37.916Z</time></trkpt><trkpt lat="44.8162256" lon="8.0368772"><ele>212.0</ele><time>2026-04-19T10:29:38.917Z</time></trkpt><trkpt lat="44.8162302" lon="8.0370003"><ele>212.0</ele><time>2026-04-19T10:29:39.917Z</time></trkpt><trkpt lat="44.8162131" lon="8.0371555"><ele>212.0</ele><time>2026-04-19T10:29:40.917Z</time></trkpt><trkpt lat="44.8161926" lon="8.0373121"><ele>212.0</ele><time>2026-04-19T10:29:41.917Z</time></trkpt><trkpt lat="44.8161706" lon="8.0374691"><ele>211.0</ele><time>2026-04-19T10:29:42.917Z</time></trkpt><trkpt lat="44.816152" lon="8.0376258"><ele>210.0</ele><time>2026-04-19T10:29:43.916Z</time></trkpt><trkpt lat="44.816144" lon="8.0377768"><ele>209.0</ele><time>2026-04-19T10:29:44.916Z</time></trkpt><trkpt lat="44.8161344" lon="8.0379207"><ele>208.0</ele><time>2026-04-19T10:29:45.916Z</time></trkpt><trkpt lat="44.8161242" lon="8.0380589"><ele>207.0</ele><time>2026-04-19T10:29:46.916Z</time></trkpt><trkpt lat="44.8161129" lon="8.038196"><ele>205.6</ele><time>2026-04-19T10:29:47.917Z</time></trkpt><trkpt lat="44.8161014" lon="8.0383316"><ele>204.2</ele><time>2026-04-19T10:29:48.917Z</time></trkpt><trkpt lat="44.8160945" lon="8.0384693"><ele>202.8</ele><time>2026-04-19T10:29:49.917Z</time></trkpt><trkpt lat="44.8160991" lon="8.0386173"><ele>201.4</ele><time>2026-04-19T10:29:50.917Z</time></trkpt><trkpt lat="44.8161169" lon="8.0387714"><ele>200.0</ele><time>2026-04-19T10:29:51.916Z</time></trkpt><trkpt lat="44.8161419" lon="8.0389201"><ele>200.0</ele><time>2026-04-19T10:29:52.917Z</time></trkpt><trkpt lat="44.816165" lon="8.0390682"><ele>200.0</ele><time>2026-04-19T10:29:53.917Z</time></trkpt><trkpt lat="44.8161779" lon="8.0392164"><ele>200.0</ele><time>2026-04-19T10:29:54.916Z</time></trkpt><trkpt lat="44.816177" lon="8.0393673"><ele>200.0</ele><time>2026-04-19T10:29:55.916Z</time></trkpt><trkpt lat="44.8161567" lon="8.0395087"><ele>200.0</ele><time>2026-04-19T10:29:56.916Z</time></trkpt><trkpt lat="44.8161238" lon="8.0396448"><ele>199.16666666666669</ele><time>2026-04-19T10:29:57.916Z</time></trkpt><trkpt lat="44.816086" lon="8.0397721"><ele>198.33333333333334</ele><time>2026-04-19T10:29:58.916Z</time></trkpt><trkpt lat="44.8160523" lon="8.0398925"><ele>197.5</ele><time>2026-04-19T10:29:59.917Z</time></trkpt><trkpt lat="44.8160226" lon="8.0399965"><ele>196.66666666666669</ele><time>2026-04-19T10:30:00.916Z</time></trkpt><trkpt lat="44.8159817" lon="8.0400791"><ele>195.83333333333334</ele><time>2026-04-19T10:30:01.917Z</time></trkpt><trkpt lat="44.8159197" lon="8.0401323"><ele>195.0</ele><time>2026-04-19T10:30:02.917Z</time></trkpt><trkpt lat="44.8158399" lon="8.0401641"><ele>193.0</ele><time>2026-04-19T10:30:03.916Z</time></trkpt><trkpt lat="44.8157523" lon="8.0401874"><ele>191.0</ele><time>2026-04-19T10:30:04.916Z</time></trkpt><trkpt lat="44.8156728" lon="8.0402131"><ele>189.0</ele><time>2026-04-19T10:30:05.916Z</time></trkpt><trkpt lat="44.8156015" lon="8.0402398"><ele>187.0</ele><time>2026-04-19T10:30:06.916Z</time></trkpt><trkpt lat="44.8155079" lon="8.0403008"><ele>185.0</ele><time>2026-04-19T10:30:08.916Z</time></trkpt><trkpt lat="44.8154728" lon="8.0404231"><ele>183.0</ele><time>2026-04-19T10:30:10.916Z</time></trkpt><trkpt lat="44.8154714" lon="8.0405317"><ele>183.0</ele><time>2026-04-19T10:30:11.917Z</time></trkpt><trkpt lat="44.8154861" lon="8.0406665"><ele>183.0</ele><time>2026-04-19T10:30:12.916Z</time></trkpt><trkpt lat="44.815516" lon="8.0408248"><ele>183.0</ele><time>2026-04-19T10:30:13.916Z</time></trkpt><trkpt lat="44.8155479" lon="8.0409832"><ele>183.0</ele><time>2026-04-19T10:30:14.917Z</time></trkpt><trkpt lat="44.8155792" lon="8.0411367"><ele>183.0</ele><time>2026-04-19T10:30:15.916Z</time></trkpt><trkpt lat="44.8156067" lon="8.0412848"><ele>182.0</ele><time>2026-04-19T10:30:16.916Z</time></trkpt><trkpt lat="44.8156336" lon="8.0414394"><ele>181.0</ele><time>2026-04-19T10:30:17.916Z</time></trkpt><trkpt lat="44.8156656" lon="8.0415845"><ele>180.0</ele><time>2026-04-19T10:30:18.917Z</time></trkpt><trkpt lat="44.815713" lon="8.0417197"><ele>179.0</ele><time>2026-04-19T10:30:19.917Z</time></trkpt><trkpt lat="44.8157654" lon="8.0418401"><ele>178.0</ele><time>2026-04-19T10:30:20.917Z</time></trkpt><trkpt lat="44.815823" lon="8.0419462"><ele>177.83333333333334</ele><time>2026-04-19T10:30:21.916Z</time></trkpt><trkpt lat="44.8158797" lon="8.042048"><ele>177.66666666666669</ele><time>2026-04-19T10:30:22.917Z</time></trkpt><trkpt lat="44.8159274" lon="8.0421471"><ele>177.5</ele><time>2026-04-19T10:30:23.916Z</time></trkpt><trkpt lat="44.81596" lon="8.0422453"><ele>177.33333333333334</ele><time>2026-04-19T10:30:24.917Z</time></trkpt><trkpt lat="44.8159727" lon="8.0423471"><ele>177.16666666666666</ele><time>2026-04-19T10:30:25.916Z</time></trkpt><trkpt lat="44.8159638" lon="8.042442"><ele>177.0</ele><time>2026-04-19T10:30:26.917Z</time></trkpt><trkpt lat="44.8159383" lon="8.0425377"><ele>175.8</ele><time>2026-04-19T10:30:27.916Z</time></trkpt><trkpt lat="44.8158983" lon="8.042619"><ele>174.6</ele><time>2026-04-19T10:30:28.917Z</time></trkpt><trkpt lat="44.8158368" lon="8.0426992"><ele>173.4</ele><time>2026-04-19T10:30:29.916Z</time></trkpt><trkpt lat="44.8157687" lon="8.0427885"><ele>172.20000000000002</ele><time>2026-04-19T10:30:30.916Z</time></trkpt><trkpt lat="44.8156909" lon="8.0428896"><ele>171.0</ele><time>2026-04-19T10:30:31.917Z</time></trkpt><trkpt lat="44.8156084" lon="8.0430104"><ele>171.0</ele><time>2026-04-19T10:30:32.916Z</time></trkpt><trkpt lat="44.8155294" lon="8.0431505"><ele>171.0</ele><time>2026-04-19T10:30:33.916Z</time></trkpt><trkpt lat="44.8154549" lon="8.043306"><ele>171.0</ele><time>2026-04-19T10:30:34.916Z</time></trkpt><trkpt lat="44.8153873" lon="8.0434706"><ele>171.0</ele><time>2026-04-19T10:30:35.916Z</time></trkpt><trkpt lat="44.815332" lon="8.0436399"><ele>171.20000000000002</ele><time>2026-04-19T10:30:36.916Z</time></trkpt><trkpt lat="44.8152848" lon="8.0437982"><ele>171.4</ele><time>2026-04-19T10:30:37.917Z</time></trkpt><trkpt lat="44.8152417" lon="8.0439405"><ele>171.6</ele><time>2026-04-19T10:30:38.916Z</time></trkpt><trkpt lat="44.815203" lon="8.0440662"><ele>171.8</ele><time>2026-04-19T10:30:39.917Z</time></trkpt><trkpt lat="44.8151719" lon="8.0441724"><ele>172.0</ele><time>2026-04-19T10:30:40.916Z</time></trkpt><trkpt lat="44.8151431" lon="8.0442563"><ele>172.2</ele><time>2026-04-19T10:30:41.917Z</time></trkpt><trkpt lat="44.8151077" lon="8.0443517"><ele>172.39999999999998</ele><time>2026-04-19T10:30:43.917Z</time></trkpt><trkpt lat="44.8151594" lon="8.0444795"><ele>172.60000000000002</ele><time>2026-04-19T10:30:46.916Z</time></trkpt><trkpt lat="44.8152282" lon="8.0445504"><ele>172.8</ele><time>2026-04-19T10:30:47.916Z</time></trkpt><trkpt lat="44.8153207" lon="8.0446386"><ele>173.0</ele><time>2026-04-19T10:30:48.916Z</time></trkpt><trkpt lat="44.8154228" lon="8.0447408"><ele>173.0</ele><time>2026-04-19T10:30:49.916Z</time></trkpt><trkpt lat="44.8155267" lon="8.0448629"><ele>173.0</ele><time>2026-04-19T10:30:50.916Z</time></trkpt><trkpt lat="44.8156233" lon="8.0449972"><ele>173.0</ele><time>2026-04-19T10:30:51.916Z</time></trkpt><trkpt lat="44.8157209" lon="8.0451382"><ele>173.0</ele><time>2026-04-19T10:30:52.917Z</time></trkpt><trkpt lat="44.815826" lon="8.0452817"><ele>173.0</ele><time>2026-04-19T10:30:53.917Z</time></trkpt><trkpt lat="44.8159303" lon="8.0454151"><ele>173.0</ele><time>2026-04-19T10:30:54.916Z</time></trkpt><trkpt lat="44.8160374" lon="8.0455493"><ele>173.0</ele><time>2026-04-19T10:30:55.916Z</time></trkpt><trkpt lat="44.8161374" lon="8.0456861"><ele>173.0</ele><time>2026-04-19T10:30:56.917Z</time></trkpt><trkpt lat="44.81623" lon="8.0458366"><ele>173.0</ele><time>2026-04-19T10:30:57.916Z</time></trkpt><trkpt lat="44.8163155" lon="8.0459952"><ele>173.0</ele><time>2026-04-19T10:30:58.917Z</time></trkpt><trkpt lat="44.8163934" lon="8.0461636"><ele>173.0</ele><time>2026-04-19T10:30:59.916Z</time></trkpt><trkpt lat="44.8164695" lon="8.0463374"><ele>173.0</ele><time>2026-04-19T10:31:00.917Z</time></trkpt><trkpt lat="44.8165568" lon="8.0465102"><ele>172.75</ele><time>2026-04-19T10:31:01.917Z</time></trkpt><trkpt lat="44.8166432" lon="8.0466825"><ele>172.5</ele><time>2026-04-19T10:31:02.917Z</time></trkpt><trkpt lat="44.8167356" lon="8.046838"><ele>172.25</ele><time>2026-04-19T10:31:03.916Z</time></trkpt><trkpt lat="44.8168333" lon="8.0469837"><ele>172.0</ele><time>2026-04-19T10:31:04.916Z</time></trkpt><trkpt lat="44.8169359" lon="8.0471244"><ele>172.0</ele><time>2026-04-19T10:31:05.916Z</time></trkpt><trkpt lat="44.8170371" lon="8.0472555"><ele>172.0</ele><time>2026-04-19T10:31:06.916Z</time></trkpt><trkpt lat="44.8171329" lon="8.0473851"><ele>172.0</ele><time>2026-04-19T10:31:07.916Z</time></trkpt><trkpt lat="44.8172317" lon="8.047515"><ele>172.0</ele><time>2026-04-19T10:31:08.917Z</time></trkpt><trkpt lat="44.8173328" lon="8.0476515"><ele>171.25</ele><time>2026-04-19T10:31:09.916Z</time></trkpt><trkpt lat="44.8174309" lon="8.0477988"><ele>170.5</ele><time>2026-04-19T10:31:10.917Z</time></trkpt><trkpt lat="44.8175328" lon="8.0479411"><ele>169.75</ele><time>2026-04-19T10:31:11.917Z</time></trkpt><trkpt lat="44.8176356" lon="8.0480736"><ele>169.0</ele><time>2026-04-19T10:31:12.916Z</time></trkpt><trkpt lat="44.8177334" lon="8.048211"><ele>170.0</ele><time>2026-04-19T10:31:13.917Z</time></trkpt><trkpt lat="44.8178264" lon="8.0483574"><ele>171.0</ele><time>2026-04-19T10:31:14.916Z</time></trkpt><trkpt lat="44.8179183" lon="8.0485056"><ele>172.0</ele><time>2026-04-19T10:31:15.916Z</time></trkpt><trkpt lat="44.8180108" lon="8.0486564"><ele>173.0</ele><time>2026-04-19T10:31:16.917Z</time></trkpt><trkpt lat="44.818102" lon="8.0488063"><ele>173.0</ele><time>2026-04-19T10:31:17.916Z</time></trkpt><trkpt lat="44.8181872" lon="8.0489589"><ele>173.0</ele><time>2026-04-19T10:31:18.917Z</time></trkpt><trkpt lat="44.8182764" lon="8.0491066"><ele>173.0</ele><time>2026-04-19T10:31:19.916Z</time></trkpt><trkpt lat="44.8183573" lon="8.0492433"><ele>173.0</ele><time>2026-04-19T10:31:20.917Z</time></trkpt><trkpt lat="44.8184347" lon="8.0493691"><ele>173.2</ele><time>2026-04-19T10:31:21.917Z</time></trkpt><trkpt lat="44.8185075" lon="8.0494841"><ele>173.4</ele><time>2026-04-19T10:31:22.917Z</time></trkpt><trkpt lat="44.8185818" lon="8.0495955"><ele>173.6</ele><time>2026-04-19T10:31:23.916Z</time></trkpt><trkpt lat="44.8186631" lon="8.0497044"><ele>173.79999999999998</ele><time>2026-04-19T10:31:24.917Z</time></trkpt><trkpt lat="44.8187426" lon="8.0498059"><ele>174.0</ele><time>2026-04-19T10:31:25.916Z</time></trkpt><trkpt lat="44.8188219" lon="8.0499021"><ele>173.66666666666666</ele><time>2026-04-19T10:31:26.917Z</time></trkpt><trkpt lat="44.8189002" lon="8.0499844"><ele>173.33333333333334</ele><time>2026-04-19T10:31:27.917Z</time></trkpt><trkpt lat="44.818967" lon="8.0500699"><ele>173.0</ele><time>2026-04-19T10:31:28.916Z</time></trkpt><trkpt lat="44.819024" lon="8.0501608"><ele>172.66666666666669</ele><time>2026-04-19T10:31:29.917Z</time></trkpt><trkpt lat="44.8190535" lon="8.0502632"><ele>172.33333333333334</ele><time>2026-04-19T10:31:30.917Z</time></trkpt><trkpt lat="44.8190629" lon="8.050384"><ele>172.0</ele><time>2026-04-19T10:31:31.916Z</time></trkpt><trkpt lat="44.8190771" lon="8.0505143"><ele>172.0</ele><time>2026-04-19T10:31:32.917Z</time></trkpt><trkpt lat="44.8191048" lon="8.0506336"><ele>172.0</ele><time>2026-04-19T10:31:33.917Z</time></trkpt><trkpt lat="44.819128" lon="8.0507409"><ele>172.0</ele><time>2026-04-19T10:31:34.917Z</time></trkpt><trkpt lat="44.819134" lon="8.0508473"><ele>172.0</ele><time>2026-04-19T10:31:35.916Z</time></trkpt><trkpt lat="44.8191163" lon="8.0509553"><ele>172.0</ele><time>2026-04-19T10:31:36.916Z</time></trkpt><trkpt lat="44.8190711" lon="8.051077"><ele>172.0</ele><time>2026-04-19T10:31:37.917Z</time></trkpt><trkpt lat="44.8190106" lon="8.0511959"><ele>171.39999999999998</ele><time>2026-04-19T10:31:38.916Z</time></trkpt><trkpt lat="44.8189593" lon="8.0513133"><ele>170.79999999999998</ele><time>2026-04-19T10:31:39.917Z</time></trkpt><trkpt lat="44.818916" lon="8.0514321"><ele>170.2</ele><time>2026-04-19T10:31:40.917Z</time></trkpt><trkpt lat="44.8188886" lon="8.0515509"><ele>169.6</ele><time>2026-04-19T10:31:41.917Z</time></trkpt><trkpt lat="44.8188717" lon="8.0516693"><ele>169.0</ele><time>2026-04-19T10:31:42.916Z</time></trkpt><trkpt lat="44.818855" lon="8.0518101"><ele>168.5</ele><time>2026-04-19T10:31:43.917Z</time></trkpt><trkpt lat="44.8188395" lon="8.0519654"><ele>168.0</ele><time>2026-04-19T10:31:44.917Z</time></trkpt><trkpt lat="44.8188282" lon="8.0521284"><ele>167.5</ele><time>2026-04-19T10:31:45.917Z</time></trkpt><trkpt lat="44.8188188" lon="8.0522934"><ele>167.0</ele><time>2026-04-19T10:31:46.916Z</time></trkpt><trkpt lat="44.8188049" lon="8.0524553"><ele>166.5</ele><time>2026-04-19T10:31:47.917Z</time></trkpt><trkpt lat="44.8187911" lon="8.0526242"><ele>166.0</ele><time>2026-04-19T10:31:48.916Z</time></trkpt><trkpt lat="44.81878" lon="8.0527954"><ele>165.5</ele><time>2026-04-19T10:31:49.917Z</time></trkpt><trkpt lat="44.8187751" lon="8.052957"><ele>165.0</ele><time>2026-04-19T10:31:50.916Z</time></trkpt><trkpt lat="44.8187685" lon="8.0531088"><ele>165.0</ele><time>2026-04-19T10:31:51.916Z</time></trkpt><trkpt lat="44.8187736" lon="8.0532599"><ele>165.0</ele><time>2026-04-19T10:31:52.917Z</time></trkpt><trkpt lat="44.8187944" lon="8.0534091"><ele>165.0</ele><time>2026-04-19T10:31:53.916Z</time></trkpt><trkpt lat="44.8188195" lon="8.0535607"><ele>165.0</ele><time>2026-04-19T10:31:54.917Z</time></trkpt><trkpt lat="44.8188473" lon="8.053707"><ele>165.0</ele><time>2026-04-19T10:31:55.916Z</time></trkpt><trkpt lat="44.8188744" lon="8.0538472"><ele>164.6</ele><time>2026-04-19T10:31:56.917Z</time></trkpt><trkpt lat="44.8189045" lon="8.0539841"><ele>164.2</ele><time>2026-04-19T10:31:57.916Z</time></trkpt><trkpt lat="44.8189366" lon="8.0541237"><ele>163.8</ele><time>2026-04-19T10:31:58.916Z</time></trkpt><trkpt lat="44.8189727" lon="8.0542724"><ele>163.4</ele><time>2026-04-19T10:31:59.916Z</time></trkpt><trkpt lat="44.8190137" lon="8.0544195"><ele>163.0</ele><time>2026-04-19T10:32:00.916Z</time></trkpt><trkpt lat="44.8190643" lon="8.0545719"><ele>163.25</ele><time>2026-04-19T10:32:01.916Z</time></trkpt><trkpt lat="44.8191261" lon="8.0547369"><ele>163.5</ele><time>2026-04-19T10:32:02.916Z</time></trkpt><trkpt lat="44.8191978" lon="8.0549051"><ele>163.75</ele><time>2026-04-19T10:32:03.916Z</time></trkpt><trkpt lat="44.8192638" lon="8.0550577"><ele>164.0</ele><time>2026-04-19T10:32:04.917Z</time></trkpt><trkpt lat="44.8193246" lon="8.0552057"><ele>164.0</ele><time>2026-04-19T10:32:05.916Z</time></trkpt><trkpt lat="44.8193781" lon="8.0553447"><ele>164.0</ele><time>2026-04-19T10:32:06.917Z</time></trkpt><trkpt lat="44.8194276" lon="8.0554713"><ele>164.0</ele><time>2026-04-19T10:32:07.916Z</time></trkpt><trkpt lat="44.8194773" lon="8.055594"><ele>164.0</ele><time>2026-04-19T10:32:08.916Z</time></trkpt><trkpt lat="44.8195263" lon="8.0557115"><ele>164.0</ele><time>2026-04-19T10:32:09.916Z</time></trkpt><trkpt lat="44.8195739" lon="8.0558196"><ele>163.6</ele><time>2026-04-19T10:32:10.917Z</time></trkpt><trkpt lat="44.8196202" lon="8.0559299"><ele>163.2</ele><time>2026-04-19T10:32:11.916Z</time></trkpt><trkpt lat="44.8196681" lon="8.0560474"><ele>162.79999999999998</ele><time>2026-04-19T10:32:12.916Z</time></trkpt><trkpt lat="44.8197165" lon="8.0561684"><ele>162.39999999999998</ele><time>2026-04-19T10:32:13.917Z</time></trkpt><trkpt lat="44.8197635" lon="8.05629"><ele>162.0</ele><time>2026-04-19T10:32:14.916Z</time></trkpt><trkpt lat="44.8198056" lon="8.0564063"><ele>162.0</ele><time>2026-04-19T10:32:15.917Z</time></trkpt><trkpt lat="44.8198473" lon="8.0565198"><ele>162.0</ele><time>2026-04-19T10:32:16.916Z</time></trkpt><trkpt lat="44.8198856" lon="8.0566214"><ele>162.0</ele><time>2026-04-19T10:32:17.917Z</time></trkpt><trkpt lat="44.8199239" lon="8.0567168"><ele>162.0</ele><time>2026-04-19T10:32:18.917Z</time></trkpt><trkpt lat="44.8199605" lon="8.0568028"><ele>162.0</ele><time>2026-04-19T10:32:19.916Z</time></trkpt><trkpt lat="44.8200029" lon="8.0569442"><ele>162.0</ele><time>2026-04-19T10:32:21.916Z</time></trkpt><trkpt lat="44.820011" lon="8.0570357"><ele>162.0</ele><time>2026-04-19T10:32:23.916Z</time></trkpt><trkpt lat="44.8200648" lon="8.0569832"><ele>162.0</ele><time>2026-04-19T10:32:27.916Z</time></trkpt><trkpt lat="44.820005" lon="8.0568133"><ele>162.0</ele><time>2026-04-19T10:32:46.916Z</time></trkpt><trkpt lat="44.8199533" lon="8.0566917"><ele>162.0</ele><time>2026-04-19T10:32:47.916Z</time></trkpt><trkpt lat="44.8198933" lon="8.0565433"><ele>162.0</ele><time>2026-04-19T10:32:48.917Z</time></trkpt><trkpt lat="44.81981" lon="8.0563667"><ele>162.0</ele><time>2026-04-19T10:32:49.916Z</time></trkpt><trkpt lat="44.8197233" lon="8.0561683"><ele>162.0</ele><time>2026-04-19T10:32:50.917Z</time></trkpt><trkpt lat="44.8196433" lon="8.05597"><ele>162.0</ele><time>2026-04-19T10:32:51.917Z</time></trkpt><trkpt lat="44.819575" lon="8.0558017"><ele>161.75</ele><time>2026-04-19T10:32:52.917Z</time></trkpt><trkpt lat="44.8195083" lon="8.0556267"><ele>161.5</ele><time>2026-04-19T10:32:53.916Z</time></trkpt><trkpt lat="44.81944" lon="8.0554567"><ele>161.25</ele><time>2026-04-19T10:32:54.917Z</time></trkpt><trkpt lat="44.8193733" lon="8.0552833"><ele>161.0</ele><time>2026-04-19T10:32:55.917Z</time></trkpt><trkpt lat="44.8193067" lon="8.0551083"><ele>161.0</ele><time>2026-04-19T10:32:56.917Z</time></trkpt><trkpt lat="44.8192417" lon="8.0549467"><ele>161.0</ele><time>2026-04-19T10:32:57.916Z</time></trkpt><trkpt lat="44.8191833" lon="8.0547917"><ele>161.0</ele><time>2026-04-19T10:32:58.916Z</time></trkpt><trkpt lat="44.819115" lon="8.0546233"><ele>161.0</ele><time>2026-04-19T10:32:59.916Z</time></trkpt><trkpt lat="44.8190533" lon="8.0544433"><ele>161.0</ele><time>2026-04-19T10:33:00.917Z</time></trkpt><trkpt lat="44.818995" lon="8.0542567"><ele>161.0</ele><time>2026-04-19T10:33:01.916Z</time></trkpt><trkpt lat="44.8189467" lon="8.0540633"><ele>161.0</ele><time>2026-04-19T10:33:02.917Z</time></trkpt><trkpt lat="44.8189033" lon="8.0538733"><ele>161.0</ele><time>2026-04-19T10:33:03.917Z</time></trkpt><trkpt lat="44.8188667" lon="8.05369"><ele>161.5</ele><time>2026-04-19T10:33:04.917Z</time></trkpt><trkpt lat="44.8188367" lon="8.053515"><ele>162.0</ele><time>2026-04-19T10:33:05.916Z</time></trkpt><trkpt lat="44.8188117" lon="8.0533383"><ele>162.5</ele><time>2026-04-19T10:33:06.917Z</time></trkpt><trkpt lat="44.8188067" lon="8.0531667"><ele>163.0</ele><time>2026-04-19T10:33:07.917Z</time></trkpt><trkpt lat="44.8188083" lon="8.0529733"><ele>163.5</ele><time>2026-04-19T10:33:08.917Z</time></trkpt><trkpt lat="44.8188167" lon="8.0527733"><ele>164.0</ele><time>2026-04-19T10:33:09.917Z</time></trkpt><trkpt lat="44.8188267" lon="8.05258"><ele>164.5</ele><time>2026-04-19T10:33:10.917Z</time></trkpt><trkpt lat="44.8188417" lon="8.052395"><ele>165.0</ele><time>2026-04-19T10:33:11.917Z</time></trkpt><trkpt lat="44.8188567" lon="8.05222"><ele>165.4</ele><time>2026-04-19T10:33:12.916Z</time></trkpt><trkpt lat="44.8188767" lon="8.0520617"><ele>165.8</ele><time>2026-04-19T10:33:13.916Z</time></trkpt><trkpt lat="44.8188967" lon="8.0519117"><ele>166.2</ele><time>2026-04-19T10:33:14.916Z</time></trkpt><trkpt lat="44.81891" lon="8.051765"><ele>166.6</ele><time>2026-04-19T10:33:15.916Z</time></trkpt><trkpt lat="44.8189233" lon="8.0516317"><ele>167.0</ele><time>2026-04-19T10:33:16.917Z</time></trkpt><trkpt lat="44.8189383" lon="8.05151"><ele>167.33333333333331</ele><time>2026-04-19T10:33:17.916Z</time></trkpt><trkpt lat="44.8189617" lon="8.0513933"><ele>167.66666666666666</ele><time>2026-04-19T10:33:18.916Z</time></trkpt><trkpt lat="44.819" lon="8.0512933"><ele>168.0</ele><time>2026-04-19T10:33:19.916Z</time></trkpt><trkpt lat="44.8190433" lon="8.0511817"><ele>168.33333333333334</ele><time>2026-04-19T10:33:20.916Z</time></trkpt><trkpt lat="44.819095" lon="8.05108"><ele>168.66666666666669</ele><time>2026-04-19T10:33:21.917Z</time></trkpt><trkpt lat="44.8191367" lon="8.0510017"><ele>169.0</ele><time>2026-04-19T10:33:22.917Z</time></trkpt><trkpt lat="44.8191733" lon="8.0509283"><ele>169.0</ele><time>2026-04-19T10:33:23.916Z</time></trkpt><trkpt lat="44.8192133" lon="8.05082"><ele>169.0</ele><time>2026-04-19T10:33:25.916Z</time></trkpt><trkpt lat="44.8192467" lon="8.0506817"><ele>169.0</ele><time>2026-04-19T10:33:32.916Z</time></trkpt><trkpt lat="44.8192717" lon="8.0505817"><ele>169.0</ele><time>2026-04-19T10:33:33.916Z</time></trkpt><trkpt lat="44.81928" lon="8.0504667"><ele>169.0</ele><time>2026-04-19T10:33:34.917Z</time></trkpt><trkpt lat="44.81926" lon="8.0503517"><ele>169.0</ele><time>2026-04-19T10:33:35.916Z</time></trkpt><trkpt lat="44.8191917" lon="8.050245"><ele>170.0</ele><time>2026-04-19T10:33:36.916Z</time></trkpt><trkpt lat="44.8190983" lon="8.0501367"><ele>171.0</ele><time>2026-04-19T10:33:37.916Z</time></trkpt><trkpt lat="44.8189667" lon="8.05001"><ele>172.0</ele><time>2026-04-19T10:33:38.916Z</time></trkpt><trkpt lat="44.8188283" lon="8.049865"><ele>171.66666666666669</ele><time>2026-04-19T10:33:39.916Z</time></trkpt><trkpt lat="44.8186917" lon="8.0497017"><ele>171.33333333333334</ele><time>2026-04-19T10:33:40.916Z</time></trkpt><trkpt lat="44.8185633" lon="8.0495133"><ele>171.0</ele><time>2026-04-19T10:33:41.916Z</time></trkpt><trkpt lat="44.818445" lon="8.0493183"><ele>171.66666666666666</ele><time>2026-04-19T10:33:42.917Z</time></trkpt><trkpt lat="44.8183217" lon="8.049115"><ele>172.33333333333331</ele><time>2026-04-19T10:33:43.916Z</time></trkpt><trkpt lat="44.8182017" lon="8.0489167"><ele>173.0</ele><time>2026-04-19T10:33:44.916Z</time></trkpt><trkpt lat="44.8180883" lon="8.0487267"><ele>173.0</ele><time>2026-04-19T10:33:45.916Z</time></trkpt><trkpt lat="44.81798" lon="8.0485467"><ele>173.0</ele><time>2026-04-19T10:33:46.916Z</time></trkpt><trkpt lat="44.8178667" lon="8.0483733"><ele>173.0</ele><time>2026-04-19T10:33:47.917Z</time></trkpt><trkpt lat="44.8177617" lon="8.048215"><ele>171.66666666666666</ele><time>2026-04-19T10:33:48.917Z</time></trkpt><trkpt lat="44.8176467" lon="8.0480433"><ele>170.33333333333334</ele><time>2026-04-19T10:33:49.917Z</time></trkpt><trkpt lat="44.81753" lon="8.0478817"><ele>169.0</ele><time>2026-04-19T10:33:50.917Z</time></trkpt><trkpt lat="44.81741" lon="8.047715"><ele>169.0</ele><time>2026-04-19T10:33:51.916Z</time></trkpt><trkpt lat="44.8172817" lon="8.0475383"><ele>169.0</ele><time>2026-04-19T10:33:52.917Z</time></trkpt><trkpt lat="44.8171583" lon="8.04736"><ele>169.0</ele><time>2026-04-19T10:33:53.916Z</time></trkpt><trkpt lat="44.81703" lon="8.04718"><ele>169.66666666666669</ele><time>2026-04-19T10:33:54.916Z</time></trkpt><trkpt lat="44.8169017" lon="8.0469967"><ele>170.33333333333334</ele><time>2026-04-19T10:33:55.916Z</time></trkpt><trkpt lat="44.8167867" lon="8.0468083"><ele>171.0</ele><time>2026-04-19T10:33:56.916Z</time></trkpt><trkpt lat="44.8166817" lon="8.0466117"><ele>171.66666666666666</ele><time>2026-04-19T10:33:57.916Z</time></trkpt><trkpt lat="44.8165767" lon="8.0464183"><ele>172.33333333333331</ele><time>2026-04-19T10:33:58.916Z</time></trkpt><trkpt lat="44.8164717" lon="8.0462117"><ele>173.0</ele><time>2026-04-19T10:33:59.917Z</time></trkpt><trkpt lat="44.8163717" lon="8.0460117"><ele>173.0</ele><time>2026-04-19T10:34:00.917Z</time></trkpt><trkpt lat="44.81626" lon="8.04582"><ele>173.0</ele><time>2026-04-19T10:34:01.917Z</time></trkpt><trkpt lat="44.81614" lon="8.0456367"><ele>173.0</ele><time>2026-04-19T10:34:02.917Z</time></trkpt><trkpt lat="44.816015" lon="8.045465"><ele>172.0</ele><time>2026-04-19T10:34:03.916Z</time></trkpt><trkpt lat="44.8158933" lon="8.0453"><ele>171.0</ele><time>2026-04-19T10:34:04.917Z</time></trkpt><trkpt lat="44.81577" lon="8.04514"><ele>170.0</ele><time>2026-04-19T10:34:05.916Z</time></trkpt><trkpt lat="44.8156483" lon="8.0449717"><ele>171.0</ele><time>2026-04-19T10:34:06.916Z</time></trkpt><trkpt lat="44.81552" lon="8.0448083"><ele>172.0</ele><time>2026-04-19T10:34:07.916Z</time></trkpt><trkpt lat="44.815395" lon="8.0446517"><ele>173.0</ele><time>2026-04-19T10:34:08.916Z</time></trkpt><trkpt lat="44.8152567" lon="8.0445083"><ele>171.33333333333331</ele><time>2026-04-19T10:34:09.917Z</time></trkpt><trkpt lat="44.8151017" lon="8.0443817"><ele>169.66666666666666</ele><time>2026-04-19T10:34:10.916Z</time></trkpt><trkpt lat="44.8149467" lon="8.0442617"><ele>168.0</ele><time>2026-04-19T10:34:11.916Z</time></trkpt><trkpt lat="44.8147917" lon="8.044145"><ele>169.0</ele><time>2026-04-19T10:34:12.916Z</time></trkpt><trkpt lat="44.81464" lon="8.0440167"><ele>170.0</ele><time>2026-04-19T10:34:13.917Z</time></trkpt><trkpt lat="44.8144967" lon="8.0438717"><ele>171.0</ele><time>2026-04-19T10:34:14.916Z</time></trkpt><trkpt lat="44.81436" lon="8.0436933"><ele>170.33333333333334</ele><time>2026-04-19T10:34:15.917Z</time></trkpt><trkpt lat="44.814235" lon="8.0434983"><ele>169.66666666666669</ele><time>2026-04-19T10:34:16.917Z</time></trkpt><trkpt lat="44.8141283" lon="8.0433133"><ele>169.0</ele><time>2026-04-19T10:34:17.917Z</time></trkpt><trkpt lat="44.8140083" lon="8.0431283"><ele>170.33333333333334</ele><time>2026-04-19T10:34:18.916Z</time></trkpt><trkpt lat="44.8138967" lon="8.04294"><ele>171.66666666666666</ele><time>2026-04-19T10:34:19.917Z</time></trkpt><trkpt lat="44.81378" lon="8.0427567"><ele>173.0</ele><time>2026-04-19T10:34:20.917Z</time></trkpt><trkpt lat="44.813655" lon="8.04259"><ele>172.66666666666666</ele><time>2026-04-19T10:34:21.916Z</time></trkpt><trkpt lat="44.813505" lon="8.0424567"><ele>172.33333333333334</ele><time>2026-04-19T10:34:22.916Z</time></trkpt><trkpt lat="44.8133533" lon="8.042335"><ele>172.0</ele><time>2026-04-19T10:34:23.916Z</time></trkpt><trkpt lat="44.8132033" lon="8.042225"><ele>172.0</ele><time>2026-04-19T10:34:24.917Z</time></trkpt><trkpt lat="44.813055" lon="8.0421183"><ele>172.0</ele><time>2026-04-19T10:34:25.917Z</time></trkpt><trkpt lat="44.8129167" lon="8.0419883"><ele>172.0</ele><time>2026-04-19T10:34:26.917Z</time></trkpt><trkpt lat="44.8127683" lon="8.0418417"><ele>172.66666666666669</ele><time>2026-04-19T10:34:27.917Z</time></trkpt><trkpt lat="44.8126217" lon="8.041685"><ele>173.33333333333334</ele><time>2026-04-19T10:34:28.917Z</time></trkpt><trkpt lat="44.8124883" lon="8.041535"><ele>174.0</ele><time>2026-04-19T10:34:29.917Z</time></trkpt><trkpt lat="44.8123617" lon="8.0413883"><ele>174.0</ele><time>2026-04-19T10:34:30.916Z</time></trkpt><trkpt lat="44.8122317" lon="8.0412467"><ele>174.0</ele><time>2026-04-19T10:34:31.917Z</time></trkpt><trkpt lat="44.8121017" lon="8.041105"><ele>174.0</ele><time>2026-04-19T10:34:32.916Z</time></trkpt><trkpt lat="44.8119767" lon="8.040965"><ele>174.0</ele><time>2026-04-19T10:34:33.917Z</time></trkpt><trkpt lat="44.8118367" lon="8.04082"><ele>174.0</ele><time>2026-04-19T10:34:34.916Z</time></trkpt><trkpt lat="44.811705" lon="8.0406683"><ele>174.0</ele><time>2026-04-19T10:34:35.917Z</time></trkpt><trkpt lat="44.8115717" lon="8.04052"><ele>173.33333333333334</ele><time>2026-04-19T10:34:36.916Z</time></trkpt><trkpt lat="44.81144" lon="8.040365"><ele>172.66666666666669</ele><time>2026-04-19T10:34:37.917Z</time></trkpt><trkpt lat="44.8113033" lon="8.04021"><ele>172.0</ele><time>2026-04-19T10:34:38.916Z</time></trkpt><trkpt lat="44.8111617" lon="8.040055"><ele>171.33333333333334</ele><time>2026-04-19T10:34:39.917Z</time></trkpt><trkpt lat="44.8110267" lon="8.0399083"><ele>170.66666666666666</ele><time>2026-04-19T10:34:40.916Z</time></trkpt><trkpt lat="44.810905" lon="8.0397567"><ele>170.0</ele><time>2026-04-19T10:34:41.916Z</time></trkpt><trkpt lat="44.810785" lon="8.0395717"><ele>170.0</ele><time>2026-04-19T10:34:42.917Z</time></trkpt><trkpt lat="44.8106817" lon="8.039355"><ele>170.0</ele><time>2026-04-19T10:34:43.916Z</time></trkpt><trkpt lat="44.8106017" lon="8.0391067"><ele>170.0</ele><time>2026-04-19T10:34:44.917Z</time></trkpt><trkpt lat="44.810545" lon="8.0388617"><ele>171.0</ele><time>2026-04-19T10:34:45.916Z</time></trkpt><trkpt lat="44.810495" lon="8.0386233"><ele>172.0</ele><time>2026-04-19T10:34:46.916Z</time></trkpt><trkpt lat="44.8104367" lon="8.0384067"><ele>173.0</ele><time>2026-04-19T10:34:47.917Z</time></trkpt><trkpt lat="44.81036" lon="8.038195"><ele>172.0</ele><time>2026-04-19T10:34:48.917Z</time></trkpt><trkpt lat="44.8102583" lon="8.037985"><ele>171.0</ele><time>2026-04-19T10:34:49.916Z</time></trkpt><trkpt lat="44.810145" lon="8.0377833"><ele>170.0</ele><time>2026-04-19T10:34:50.916Z</time></trkpt><trkpt lat="44.8100217" lon="8.0375867"><ele>172.66666666666666</ele><time>2026-04-19T10:34:51.916Z</time></trkpt><trkpt lat="44.809895" lon="8.0373983"><ele>175.33333333333334</ele><time>2026-04-19T10:34:52.916Z</time></trkpt><trkpt lat="44.8097667" lon="8.03722"><ele>178.0</ele><time>2026-04-19T10:34:53.916Z</time></trkpt><trkpt lat="44.8096333" lon="8.0370433"><ele>178.0</ele><time>2026-04-19T10:34:54.917Z</time></trkpt><trkpt lat="44.809505" lon="8.0368683"><ele>178.0</ele><time>2026-04-19T10:34:55.916Z</time></trkpt><trkpt lat="44.8093817" lon="8.0366983"><ele>178.0</ele><time>2026-04-19T10:34:56.916Z</time></trkpt><trkpt lat="44.809255" lon="8.0365333"><ele>177.66666666666669</ele><time>2026-04-19T10:34:57.916Z</time></trkpt><trkpt lat="44.809135" lon="8.03636"><ele>177.33333333333334</ele><time>2026-04-19T10:34:58.916Z</time></trkpt><trkpt lat="44.8090067" lon="8.0361833"><ele>177.0</ele><time>2026-04-19T10:34:59.916Z</time></trkpt><trkpt lat="44.8088917" lon="8.0360033"><ele>178.33333333333334</ele><time>2026-04-19T10:35:00.917Z</time></trkpt><trkpt lat="44.8087817" lon="8.0358033"><ele>179.66666666666669</ele><time>2026-04-19T10:35:01.916Z</time></trkpt><trkpt lat="44.8086833" lon="8.035595"><ele>181.0</ele><time>2026-04-19T10:35:02.917Z</time></trkpt><trkpt lat="44.8085933" lon="8.0353767"><ele>181.0</ele><time>2026-04-19T10:35:03.916Z</time></trkpt><trkpt lat="44.8085117" lon="8.0351383"><ele>181.0</ele><time>2026-04-19T10:35:04.917Z</time></trkpt><trkpt lat="44.808425" lon="8.0349017"><ele>181.0</ele><time>2026-04-19T10:35:05.916Z</time></trkpt><trkpt lat="44.80834" lon="8.034675"><ele>181.0</ele><time>2026-04-19T10:35:06.916Z</time></trkpt><trkpt lat="44.8082417" lon="8.0344533"><ele>181.0</ele><time>2026-04-19T10:35:07.916Z</time></trkpt><trkpt lat="44.8081417" lon="8.0342467"><ele>181.0</ele><time>2026-04-19T10:35:08.916Z</time></trkpt><trkpt lat="44.8080217" lon="8.0340517"><ele>181.0</ele><time>2026-04-19T10:35:09.916Z</time></trkpt><trkpt lat="44.8079" lon="8.0338683"><ele>181.0</ele><time>2026-04-19T10:35:10.916Z</time></trkpt><trkpt lat="44.8077783" lon="8.0337"><ele>181.0</ele><time>2026-04-19T10:35:11.917Z</time></trkpt><trkpt lat="44.8076483" lon="8.03353"><ele>181.0</ele><time>2026-04-19T10:35:12.916Z</time></trkpt><trkpt lat="44.8075133" lon="8.0333583"><ele>181.0</ele><time>2026-04-19T10:35:13.916Z</time></trkpt><trkpt lat="44.8073767" lon="8.033195"><ele>181.0</ele><time>2026-04-19T10:35:14.916Z</time></trkpt><trkpt lat="44.8072467" lon="8.0330333"><ele>181.0</ele><time>2026-04-19T10:35:15.916Z</time></trkpt><trkpt lat="44.807115" lon="8.0328733"><ele>181.0</ele><time>2026-04-19T10:35:16.917Z</time></trkpt><trkpt lat="44.806985" lon="8.03272"><ele>181.0</ele><time>2026-04-19T10:35:17.917Z</time></trkpt><trkpt lat="44.8068567" lon="8.0325933"><ele>180.5</ele><time>2026-04-19T10:35:18.917Z</time></trkpt><trkpt lat="44.8067383" lon="8.0324883"><ele>180.0</ele><time>2026-04-19T10:35:19.916Z</time></trkpt><trkpt lat="44.8066233" lon="8.032395"><ele>179.5</ele><time>2026-04-19T10:35:20.917Z</time></trkpt><trkpt lat="44.8065133" lon="8.0323217"><ele>179.0</ele><time>2026-04-19T10:35:21.917Z</time></trkpt><trkpt lat="44.8064233" lon="8.032225"><ele>179.0</ele><time>2026-04-19T10:35:22.916Z</time></trkpt><trkpt lat="44.8063433" lon="8.0320933"><ele>179.0</ele><time>2026-04-19T10:35:23.917Z</time></trkpt><trkpt lat="44.8062717" lon="8.0319633"><ele>179.0</ele><time>2026-04-19T10:35:24.916Z</time></trkpt><trkpt lat="44.8061917" lon="8.031855"><ele>179.0</ele><time>2026-04-19T10:35:25.917Z</time></trkpt><trkpt lat="44.806105" lon="8.0317317"><ele>179.0</ele><time>2026-04-19T10:35:26.917Z</time></trkpt><trkpt lat="44.8060467" lon="8.031555"><ele>179.0</ele><time>2026-04-19T10:35:27.916Z</time></trkpt><trkpt lat="44.8059733" lon="8.0313617"><ele>179.0</ele><time>2026-04-19T10:35:28.916Z</time></trkpt><trkpt lat="44.8059183" lon="8.03117"><ele>179.0</ele><time>2026-04-19T10:35:29.916Z</time></trkpt><trkpt lat="44.80587" lon="8.0309567"><ele>178.66666666666666</ele><time>2026-04-19T10:35:30.916Z</time></trkpt><trkpt lat="44.805825" lon="8.0307317"><ele>178.33333333333334</ele><time>2026-04-19T10:35:31.916Z</time></trkpt><trkpt lat="44.8058033" lon="8.0305033"><ele>178.0</ele><time>2026-04-19T10:35:32.917Z</time></trkpt><trkpt lat="44.8057917" lon="8.030265"><ele>178.0</ele><time>2026-04-19T10:35:33.916Z</time></trkpt><trkpt lat="44.8058" lon="8.0300167"><ele>178.0</ele><time>2026-04-19T10:35:34.917Z</time></trkpt><trkpt lat="44.8058133" lon="8.0297733"><ele>178.0</ele><time>2026-04-19T10:35:35.916Z</time></trkpt><trkpt lat="44.8058267" lon="8.0295267"><ele>178.33333333333334</ele><time>2026-04-19T10:35:36.916Z</time></trkpt><trkpt lat="44.80584" lon="8.0292783"><ele>178.66666666666666</ele><time>2026-04-19T10:35:37.917Z</time></trkpt><trkpt lat="44.805845" lon="8.029035"><ele>179.0</ele><time>2026-04-19T10:35:38.916Z</time></trkpt><trkpt lat="44.8058467" lon="8.0288033"><ele>179.0</ele><time>2026-04-19T10:35:39.917Z</time></trkpt><trkpt lat="44.8058583" lon="8.028565"><ele>179.0</ele><time>2026-04-19T10:35:40.916Z</time></trkpt><trkpt lat="44.8058633" lon="8.0283267"><ele>179.0</ele><time>2026-04-19T10:35:41.917Z</time></trkpt><trkpt lat="44.8058717" lon="8.02809"><ele>179.0</ele><time>2026-04-19T10:35:42.917Z</time></trkpt><trkpt lat="44.8058817" lon="8.027845"><ele>179.0</ele><time>2026-04-19T10:35:43.917Z</time></trkpt><trkpt lat="44.80589" lon="8.0275933"><ele>179.0</ele><time>2026-04-19T10:35:44.916Z</time></trkpt><trkpt lat="44.8058933" lon="8.027355"><ele>179.0</ele><time>2026-04-19T10:35:45.916Z</time></trkpt><trkpt lat="44.80589" lon="8.02712"><ele>179.0</ele><time>2026-04-19T10:35:46.917Z</time></trkpt><trkpt lat="44.8058783" lon="8.0268717"><ele>179.0</ele><time>2026-04-19T10:35:47.917Z</time></trkpt><trkpt lat="44.8058883" lon="8.0266267"><ele>179.0</ele><time>2026-04-19T10:35:48.916Z</time></trkpt><trkpt lat="44.8058767" lon="8.0263767"><ele>179.0</ele><time>2026-04-19T10:35:49.916Z</time></trkpt><trkpt lat="44.8058617" lon="8.0261333"><ele>179.0</ele><time>2026-04-19T10:35:50.916Z</time></trkpt><trkpt lat="44.8058283" lon="8.0258867"><ele>180.0</ele><time>2026-04-19T10:35:51.916Z</time></trkpt><trkpt lat="44.805795" lon="8.025635"><ele>181.0</ele><time>2026-04-19T10:35:52.916Z</time></trkpt><trkpt lat="44.8057717" lon="8.0253933"><ele>182.0</ele><time>2026-04-19T10:35:53.916Z</time></trkpt><trkpt lat="44.8057467" lon="8.0251567"><ele>182.25</ele><time>2026-04-19T10:35:54.917Z</time></trkpt><trkpt lat="44.8057183" lon="8.0249367"><ele>182.5</ele><time>2026-04-19T10:35:55.916Z</time></trkpt><trkpt lat="44.8056917" lon="8.0247283"><ele>182.75</ele><time>2026-04-19T10:35:56.916Z</time></trkpt><trkpt lat="44.8056617" lon="8.024535"><ele>183.0</ele><time>2026-04-19T10:35:57.916Z</time></trkpt><trkpt lat="44.805625" lon="8.0243617"><ele>183.0</ele><time>2026-04-19T10:35:58.916Z</time></trkpt><trkpt lat="44.8055967" lon="8.0242"><ele>183.0</ele><time>2026-04-19T10:35:59.916Z</time></trkpt><trkpt lat="44.8055733" lon="8.0240817"><ele>183.0</ele><time>2026-04-19T10:36:00.916Z</time></trkpt><trkpt lat="44.805555" lon="8.0239967"><ele>183.0</ele><time>2026-04-19T10:36:01.917Z</time></trkpt><trkpt lat="44.80554" lon="8.0239033"><ele>183.0</ele><time>2026-04-19T10:36:03.916Z</time></trkpt><trkpt lat="44.80549" lon="8.0237933"><ele>183.0</ele><time>2026-04-19T10:36:59.916Z</time></trkpt><trkpt lat="44.80544" lon="8.0236833"><ele>183.5</ele><time>2026-04-19T10:37:00.916Z</time></trkpt><trkpt lat="44.805385" lon="8.0235483"><ele>184.0</ele><time>2026-04-19T10:37:01.917Z</time></trkpt><trkpt lat="44.80533" lon="8.0234067"><ele>184.5</ele><time>2026-04-19T10:37:02.916Z</time></trkpt><trkpt lat="44.8052783" lon="8.02325"><ele>185.0</ele><time>2026-04-19T10:37:03.917Z</time></trkpt><trkpt lat="44.805225" lon="8.023085"><ele>185.75</ele><time>2026-04-19T10:37:04.917Z</time></trkpt><trkpt lat="44.8051583" lon="8.0229133"><ele>186.5</ele><time>2026-04-19T10:37:05.917Z</time></trkpt><trkpt lat="44.8050783" lon="8.0227583"><ele>187.25</ele><time>2026-04-19T10:37:06.916Z</time></trkpt><trkpt lat="44.804975" lon="8.022595"><ele>188.0</ele><time>2026-04-19T10:37:07.916Z</time></trkpt><trkpt lat="44.8048567" lon="8.02246"><ele>188.0</ele><time>2026-04-19T10:37:08.917Z</time></trkpt><trkpt lat="44.804745" lon="8.0223167"><ele>188.0</ele><time>2026-04-19T10:37:09.916Z</time></trkpt><trkpt lat="44.8046283" lon="8.0221833"><ele>188.0</ele><time>2026-04-19T10:37:10.917Z</time></trkpt><trkpt lat="44.8045133" lon="8.0220533"><ele>188.0</ele><time>2026-04-19T10:37:11.916Z</time></trkpt><trkpt lat="44.8043933" lon="8.0219417"><ele>186.0</ele><time>2026-04-19T10:37:12.916Z</time></trkpt><trkpt lat="44.804275" lon="8.0218133"><ele>184.0</ele><time>2026-04-19T10:37:13.916Z</time></trkpt><trkpt lat="44.8041533" lon="8.0216967"><ele>182.0</ele><time>2026-04-19T10:37:14.917Z</time></trkpt><trkpt lat="44.8040217" lon="8.0215767"><ele>182.0</ele><time>2026-04-19T10:37:15.916Z</time></trkpt><trkpt lat="44.8038917" lon="8.02145"><ele>182.0</ele><time>2026-04-19T10:37:16.917Z</time></trkpt><trkpt lat="44.8037651" lon="8.0213241"><ele>182.0</ele><time>2026-04-19T10:37:17.916Z</time></trkpt><trkpt lat="44.8036431" lon="8.0212001"><ele>182.0</ele><time>2026-04-19T10:37:18.916Z</time></trkpt><trkpt lat="44.8035355" lon="8.0210662"><ele>182.0</ele><time>2026-04-19T10:37:19.917Z</time></trkpt><trkpt lat="44.803447" lon="8.0209262"><ele>182.0</ele><time>2026-04-19T10:37:20.916Z</time></trkpt><trkpt lat="44.8033698" lon="8.0207854"><ele>182.0</ele><time>2026-04-19T10:37:21.917Z</time></trkpt><trkpt lat="44.8033076" lon="8.0206514"><ele>182.5</ele><time>2026-04-19T10:37:22.916Z</time></trkpt><trkpt lat="44.8032399" lon="8.020519"><ele>183.0</ele><time>2026-04-19T10:37:23.917Z</time></trkpt><trkpt lat="44.8031621" lon="8.020373"><ele>183.5</ele><time>2026-04-19T10:37:24.916Z</time></trkpt><trkpt lat="44.8030855" lon="8.0202073"><ele>184.0</ele><time>2026-04-19T10:37:25.917Z</time></trkpt><trkpt lat="44.803009" lon="8.0200143"><ele>185.0</ele><time>2026-04-19T10:37:26.916Z</time></trkpt><trkpt lat="44.8029238" lon="8.0198044"><ele>186.0</ele><time>2026-04-19T10:37:27.917Z</time></trkpt><trkpt lat="44.8028305" lon="8.0195914"><ele>187.0</ele><time>2026-04-19T10:37:28.916Z</time></trkpt><trkpt lat="44.8027448" lon="8.0193838"><ele>185.33333333333334</ele><time>2026-04-19T10:37:29.916Z</time></trkpt><trkpt lat="44.8026599" lon="8.0191776"><ele>183.66666666666666</ele><time>2026-04-19T10:37:30.917Z</time></trkpt><trkpt lat="44.8025802" lon="8.0189751"><ele>182.0</ele><time>2026-04-19T10:37:31.917Z</time></trkpt><trkpt lat="44.8024975" lon="8.0187765"><ele>181.66666666666666</ele><time>2026-04-19T10:37:32.917Z</time></trkpt><trkpt lat="44.8024196" lon="8.0185748"><ele>181.33333333333334</ele><time>2026-04-19T10:37:33.916Z</time></trkpt><trkpt lat="44.8023353" lon="8.0183708"><ele>181.0</ele><time>2026-04-19T10:37:34.916Z</time></trkpt><trkpt lat="44.8022453" lon="8.0181615"><ele>182.0</ele><time>2026-04-19T10:37:35.916Z</time></trkpt><trkpt lat="44.8021598" lon="8.0179566"><ele>183.0</ele><time>2026-04-19T10:37:36.916Z</time></trkpt><trkpt lat="44.8020667" lon="8.0177589"><ele>184.0</ele><time>2026-04-19T10:37:37.916Z</time></trkpt><trkpt lat="44.8019806" lon="8.0175702"><ele>185.0</ele><time>2026-04-19T10:37:38.916Z</time></trkpt><trkpt lat="44.8018957" lon="8.0173926"><ele>186.0</ele><time>2026-04-19T10:37:39.916Z</time></trkpt><trkpt lat="44.8018056" lon="8.0172123"><ele>187.0</ele><time>2026-04-19T10:37:40.916Z</time></trkpt><trkpt lat="44.8017023" lon="8.0170424"><ele>186.66666666666669</ele><time>2026-04-19T10:37:41.917Z</time></trkpt><trkpt lat="44.8015931" lon="8.0168814"><ele>186.33333333333334</ele><time>2026-04-19T10:37:42.916Z</time></trkpt><trkpt lat="44.8014792" lon="8.0167294"><ele>186.0</ele><time>2026-04-19T10:37:43.917Z</time></trkpt><trkpt lat="44.8013624" lon="8.0165864"><ele>186.0</ele><time>2026-04-19T10:37:44.916Z</time></trkpt><trkpt lat="44.8012506" lon="8.0164453"><ele>186.0</ele><time>2026-04-19T10:37:45.917Z</time></trkpt><trkpt lat="44.8011472" lon="8.0163126"><ele>186.0</ele><time>2026-04-19T10:37:46.917Z</time></trkpt><trkpt lat="44.8010413" lon="8.0161807"><ele>186.0</ele><time>2026-04-19T10:37:47.917Z</time></trkpt><trkpt lat="44.800928" lon="8.0160414"><ele>184.66666666666666</ele><time>2026-04-19T10:37:48.916Z</time></trkpt><trkpt lat="44.8008139" lon="8.0158997"><ele>183.33333333333331</ele><time>2026-04-19T10:37:49.917Z</time></trkpt><trkpt lat="44.8006954" lon="8.0157538"><ele>182.0</ele><time>2026-04-19T10:37:50.916Z</time></trkpt><trkpt lat="44.8005835" lon="8.015608"><ele>184.66666666666666</ele><time>2026-04-19T10:37:51.916Z</time></trkpt><trkpt lat="44.8004776" lon="8.0154564"><ele>187.33333333333334</ele><time>2026-04-19T10:37:52.916Z</time></trkpt><trkpt lat="44.8003772" lon="8.0152882"><ele>190.0</ele><time>2026-04-19T10:37:53.916Z</time></trkpt><trkpt lat="44.8002964" lon="8.015106"><ele>192.0</ele><time>2026-04-19T10:37:54.916Z</time></trkpt><trkpt lat="44.8002346" lon="8.0149159"><ele>194.0</ele><time>2026-04-19T10:37:55.917Z</time></trkpt><trkpt lat="44.8001885" lon="8.0147121"><ele>196.0</ele><time>2026-04-19T10:37:56.916Z</time></trkpt><trkpt lat="44.8001633" lon="8.0144977"><ele>191.0</ele><time>2026-04-19T10:37:57.916Z</time></trkpt><trkpt lat="44.8001548" lon="8.0142787"><ele>186.0</ele><time>2026-04-19T10:37:58.916Z</time></trkpt><trkpt lat="44.8001517" lon="8.0140659"><ele>181.0</ele><time>2026-04-19T10:37:59.917Z</time></trkpt><trkpt lat="44.8001532" lon="8.0138524"><ele>181.0</ele><time>2026-04-19T10:38:00.916Z</time></trkpt><trkpt lat="44.8001552" lon="8.0136449"><ele>181.0</ele><time>2026-04-19T10:38:01.916Z</time></trkpt><trkpt lat="44.8001589" lon="8.0134288"><ele>181.0</ele><time>2026-04-19T10:38:02.916Z</time></trkpt><trkpt lat="44.8001639" lon="8.0132083"><ele>180.66666666666669</ele><time>2026-04-19T10:38:03.917Z</time></trkpt><trkpt lat="44.8001625" lon="8.0129941"><ele>180.33333333333334</ele><time>2026-04-19T10:38:04.917Z</time></trkpt><trkpt lat="44.800162" lon="8.0127779"><ele>180.0</ele><time>2026-04-19T10:38:05.916Z</time></trkpt><trkpt lat="44.8001615" lon="8.0125597"><ele>187.0</ele><time>2026-04-19T10:38:06.917Z</time></trkpt><trkpt lat="44.8001769" lon="8.0123488"><ele>194.0</ele><time>2026-04-19T10:38:07.916Z</time></trkpt><trkpt lat="44.8001822" lon="8.0121268"><ele>201.0</ele><time>2026-04-19T10:38:08.917Z</time></trkpt><trkpt lat="44.8001883" lon="8.0119027"><ele>201.0</ele><time>2026-04-19T10:38:09.917Z</time></trkpt><trkpt lat="44.8001917" lon="8.011673"><ele>201.0</ele><time>2026-04-19T10:38:10.916Z</time></trkpt><trkpt lat="44.8001851" lon="8.0114439"><ele>201.0</ele><time>2026-04-19T10:38:11.916Z</time></trkpt><trkpt lat="44.8001812" lon="8.0112189"><ele>201.0</ele><time>2026-04-19T10:38:12.917Z</time></trkpt><trkpt lat="44.8001794" lon="8.0110032"><ele>201.0</ele><time>2026-04-19T10:38:13.916Z</time></trkpt><trkpt lat="44.8001711" lon="8.0107856"><ele>201.0</ele><time>2026-04-19T10:38:14.916Z</time></trkpt><trkpt lat="44.8001588" lon="8.0105573"><ele>195.66666666666666</ele><time>2026-04-19T10:38:15.916Z</time></trkpt><trkpt lat="44.8001461" lon="8.0103285"><ele>190.33333333333331</ele><time>2026-04-19T10:38:16.917Z</time></trkpt><trkpt lat="44.8001263" lon="8.0101023"><ele>185.0</ele><time>2026-04-19T10:38:17.916Z</time></trkpt><trkpt lat="44.8001098" lon="8.0098813"><ele>185.0</ele><time>2026-04-19T10:38:18.916Z</time></trkpt><trkpt lat="44.8000877" lon="8.0096514"><ele>185.0</ele><time>2026-04-19T10:38:19.917Z</time></trkpt><trkpt lat="44.8000651" lon="8.0094274"><ele>185.0</ele><time>2026-04-19T10:38:20.916Z</time></trkpt><trkpt lat="44.8000386" lon="8.0092041"><ele>186.0</ele><time>2026-04-19T10:38:21.917Z</time></trkpt><trkpt lat="44.8000083" lon="8.0089789"><ele>187.0</ele><time>2026-04-19T10:38:22.916Z</time></trkpt><trkpt lat="44.7999603" lon="8.0087573"><ele>188.0</ele><time>2026-04-19T10:38:23.916Z</time></trkpt><trkpt lat="44.7999063" lon="8.0085368"><ele>188.66666666666666</ele><time>2026-04-19T10:38:24.916Z</time></trkpt><trkpt lat="44.7998561" lon="8.0083222"><ele>189.33333333333334</ele><time>2026-04-19T10:38:25.917Z</time></trkpt><trkpt lat="44.7998071" lon="8.0081053"><ele>190.0</ele><time>2026-04-19T10:38:26.916Z</time></trkpt><trkpt lat="44.7997602" lon="8.0078906"><ele>190.0</ele><time>2026-04-19T10:38:27.917Z</time></trkpt><trkpt lat="44.7997108" lon="8.0076743"><ele>190.0</ele><time>2026-04-19T10:38:28.916Z</time></trkpt><trkpt lat="44.7996686" lon="8.0074674"><ele>190.0</ele><time>2026-04-19T10:38:29.916Z</time></trkpt><trkpt lat="44.7996278" lon="8.0072648"><ele>190.25</ele><time>2026-04-19T10:38:30.916Z</time></trkpt><trkpt lat="44.7995886" lon="8.0070649"><ele>190.5</ele><time>2026-04-19T10:38:31.916Z</time></trkpt><trkpt lat="44.7995358" lon="8.0068695"><ele>190.75</ele><time>2026-04-19T10:38:32.916Z</time></trkpt><trkpt lat="44.7994845" lon="8.006668"><ele>191.0</ele><time>2026-04-19T10:38:33.916Z</time></trkpt><trkpt lat="44.7994353" lon="8.006467"><ele>191.5</ele><time>2026-04-19T10:38:34.916Z</time></trkpt><trkpt lat="44.7993947" lon="8.0062721"><ele>192.0</ele><time>2026-04-19T10:38:35.916Z</time></trkpt><trkpt lat="44.799355" lon="8.006081"><ele>192.5</ele><time>2026-04-19T10:38:36.916Z</time></trkpt><trkpt lat="44.7993141" lon="8.0058903"><ele>193.0</ele><time>2026-04-19T10:38:37.917Z</time></trkpt><trkpt lat="44.7992717" lon="8.005709"><ele>191.25</ele><time>2026-04-19T10:38:38.917Z</time></trkpt><trkpt lat="44.7992289" lon="8.0055354"><ele>189.5</ele><time>2026-04-19T10:38:39.917Z</time></trkpt><trkpt lat="44.7991884" lon="8.0053623"><ele>187.75</ele><time>2026-04-19T10:38:40.916Z</time></trkpt><trkpt lat="44.7991524" lon="8.005192"><ele>186.0</ele><time>2026-04-19T10:38:41.916Z</time></trkpt><trkpt lat="44.7991158" lon="8.0050291"><ele>186.25</ele><time>2026-04-19T10:38:42.917Z</time></trkpt><trkpt lat="44.7990808" lon="8.0048715"><ele>186.5</ele><time>2026-04-19T10:38:43.917Z</time></trkpt><trkpt lat="44.7990464" lon="8.0047176"><ele>186.75</ele><time>2026-04-19T10:38:44.917Z</time></trkpt><trkpt lat="44.7990088" lon="8.0045602"><ele>187.0</ele><time>2026-04-19T10:38:45.916Z</time></trkpt><trkpt lat="44.7989744" lon="8.0043981"><ele>187.0</ele><time>2026-04-19T10:38:46.916Z</time></trkpt><trkpt lat="44.7989411" lon="8.0042393"><ele>187.0</ele><time>2026-04-19T10:38:47.916Z</time></trkpt><trkpt lat="44.7989137" lon="8.0040873"><ele>187.0</ele><time>2026-04-19T10:38:48.917Z</time></trkpt><trkpt lat="44.7988881" lon="8.0039381"><ele>187.0</ele><time>2026-04-19T10:38:49.916Z</time></trkpt><trkpt lat="44.7988645" lon="8.0037911"><ele>187.0</ele><time>2026-04-19T10:38:50.917Z</time></trkpt><trkpt lat="44.7988391" lon="8.0036519"><ele>187.16666666666669</ele><time>2026-04-19T10:38:51.917Z</time></trkpt><trkpt lat="44.7988105" lon="8.0035246"><ele>187.33333333333334</ele><time>2026-04-19T10:38:52.917Z</time></trkpt><trkpt lat="44.798783" lon="8.0034088"><ele>187.5</ele><time>2026-04-19T10:38:53.916Z</time></trkpt><trkpt lat="44.79876" lon="8.003306"><ele>187.66666666666666</ele><time>2026-04-19T10:38:54.916Z</time></trkpt><trkpt lat="44.7987424" lon="8.0032052"><ele>187.83333333333331</ele><time>2026-04-19T10:38:55.916Z</time></trkpt><trkpt lat="44.79873" lon="8.0031038"><ele>188.0</ele><time>2026-04-19T10:38:56.916Z</time></trkpt><trkpt lat="44.7987139" lon="8.0030008"><ele>188.5</ele><time>2026-04-19T10:38:57.917Z</time></trkpt><trkpt lat="44.7986922" lon="8.0028778"><ele>189.0</ele><time>2026-04-19T10:38:58.916Z</time></trkpt><trkpt lat="44.7986646" lon="8.0027364"><ele>189.5</ele><time>2026-04-19T10:38:59.917Z</time></trkpt><trkpt lat="44.7986328" lon="8.0025716"><ele>190.0</ele><time>2026-04-19T10:39:00.916Z</time></trkpt><trkpt lat="44.7985864" lon="8.0023729"><ele>190.0</ele><time>2026-04-19T10:39:01.917Z</time></trkpt><trkpt lat="44.7985366" lon="8.0021406"><ele>190.0</ele><time>2026-04-19T10:39:02.917Z</time></trkpt><trkpt lat="44.798483" lon="8.0018783"><ele>190.0</ele><time>2026-04-19T10:39:03.917Z</time></trkpt><trkpt lat="44.7984285" lon="8.0015971"><ele>189.33333333333334</ele><time>2026-04-19T10:39:04.917Z</time></trkpt><trkpt lat="44.7983789" lon="8.0013116"><ele>188.66666666666666</ele><time>2026-04-19T10:39:05.916Z</time></trkpt><trkpt lat="44.7983336" lon="8.0010421"><ele>188.0</ele><time>2026-04-19T10:39:06.916Z</time></trkpt><trkpt lat="44.7982934" lon="8.0007938"><ele>188.0</ele><time>2026-04-19T10:39:07.916Z</time></trkpt><trkpt lat="44.7982554" lon="8.0005664"><ele>188.0</ele><time>2026-04-19T10:39:08.916Z</time></trkpt><trkpt lat="44.7982148" lon="8.0003603"><ele>188.0</ele><time>2026-04-19T10:39:09.916Z</time></trkpt><trkpt lat="44.7981768" lon="8.0001765"><ele>188.0</ele><time>2026-04-19T10:39:10.916Z</time></trkpt><trkpt lat="44.7981399" lon="8.0000169"><ele>188.0</ele><time>2026-04-19T10:39:11.917Z</time></trkpt><trkpt lat="44.7981049" lon="7.9998694"><ele>188.0</ele><time>2026-04-19T10:39:12.917Z</time></trkpt><trkpt lat="44.7980672" lon="7.9997238"><ele>188.0</ele><time>2026-04-19T10:39:13.916Z</time></trkpt><trkpt lat="44.7980334" lon="7.9995756"><ele>188.0</ele><time>2026-04-19T10:39:14.917Z</time></trkpt><trkpt lat="44.798001" lon="7.9994112"><ele>188.0</ele><time>2026-04-19T10:39:15.916Z</time></trkpt><trkpt lat="44.7979763" lon="7.9992199"><ele>188.0</ele><time>2026-04-19T10:39:16.916Z</time></trkpt><trkpt lat="44.7979485" lon="7.9990152"><ele>188.0</ele><time>2026-04-19T10:39:17.917Z</time></trkpt><trkpt lat="44.7979169" lon="7.9988006"><ele>188.33333333333331</ele><time>2026-04-19T10:39:18.917Z</time></trkpt><trkpt lat="44.7978804" lon="7.9985733"><ele>188.66666666666666</ele><time>2026-04-19T10:39:19.917Z</time></trkpt><trkpt lat="44.7978398" lon="7.9983529"><ele>189.0</ele><time>2026-04-19T10:39:20.917Z</time></trkpt><trkpt lat="44.7977998" lon="7.9981388"><ele>189.0</ele><time>2026-04-19T10:39:21.917Z</time></trkpt><trkpt lat="44.7977602" lon="7.9979356"><ele>189.0</ele><time>2026-04-19T10:39:22.916Z</time></trkpt><trkpt lat="44.7977234" lon="7.9977415"><ele>189.0</ele><time>2026-04-19T10:39:23.917Z</time></trkpt><trkpt lat="44.797689" lon="7.9975661"><ele>189.0</ele><time>2026-04-19T10:39:24.917Z</time></trkpt><trkpt lat="44.797658" lon="7.9974208"><ele>188.83333333333334</ele><time>2026-04-19T10:39:25.916Z</time></trkpt><trkpt lat="44.7976435" lon="7.9972972"><ele>188.66666666666666</ele><time>2026-04-19T10:39:26.916Z</time></trkpt><trkpt lat="44.797647" lon="7.9971853"><ele>188.5</ele><time>2026-04-19T10:39:27.916Z</time></trkpt><trkpt lat="44.7976492" lon="7.9970808"><ele>188.33333333333331</ele><time>2026-04-19T10:39:28.916Z</time></trkpt><trkpt lat="44.7976372" lon="7.9969703"><ele>188.16666666666666</ele><time>2026-04-19T10:39:29.916Z</time></trkpt><trkpt lat="44.7976041" lon="7.996851"><ele>188.0</ele><time>2026-04-19T10:39:30.917Z</time></trkpt><trkpt lat="44.7975581" lon="7.9967119"><ele>188.25</ele><time>2026-04-19T10:39:31.917Z</time></trkpt><trkpt lat="44.7975043" lon="7.996536"><ele>188.5</ele><time>2026-04-19T10:39:32.916Z</time></trkpt><trkpt lat="44.7974587" lon="7.9963422"><ele>188.75</ele><time>2026-04-19T10:39:33.917Z</time></trkpt><trkpt lat="44.7974199" lon="7.9961604"><ele>189.0</ele><time>2026-04-19T10:39:34.916Z</time></trkpt><trkpt lat="44.7973832" lon="7.9959938"><ele>189.0</ele><time>2026-04-19T10:39:35.915Z</time></trkpt><trkpt lat="44.7973528" lon="7.995836"><ele>189.0</ele><time>2026-04-19T10:39:36.915Z</time></trkpt><trkpt lat="44.7973234" lon="7.9956959"><ele>189.0</ele><time>2026-04-19T10:39:37.916Z</time></trkpt><trkpt lat="44.7972977" lon="7.9955773"><ele>189.0</ele><time>2026-04-19T10:39:38.916Z</time></trkpt><trkpt lat="44.7972766" lon="7.9954773"><ele>189.0</ele><time>2026-04-19T10:39:39.916Z</time></trkpt><trkpt lat="44.7972374" lon="7.9953272"><ele>189.0</ele><time>2026-04-19T10:39:41.916Z</time></trkpt><trkpt lat="44.7972193" lon="7.9952421"><ele>189.0</ele><time>2026-04-19T10:39:43.916Z</time></trkpt><trkpt lat="44.7971904" lon="7.9951441"><ele>189.0</ele><time>2026-04-19T10:39:48.915Z</time></trkpt><trkpt lat="44.7971615" lon="7.9949859"><ele>189.0</ele><time>2026-04-19T10:39:50.915Z</time></trkpt><trkpt lat="44.797144" lon="7.9948824"><ele>189.0</ele><time>2026-04-19T10:39:51.915Z</time></trkpt><trkpt lat="44.7971223" lon="7.9947513"><ele>189.0</ele><time>2026-04-19T10:39:52.915Z</time></trkpt><trkpt lat="44.797086" lon="7.9945904"><ele>189.39999999999998</ele><time>2026-04-19T10:39:53.915Z</time></trkpt><trkpt lat="44.7970472" lon="7.9944245"><ele>189.8</ele><time>2026-04-19T10:39:54.916Z</time></trkpt><trkpt lat="44.7970138" lon="7.994272"><ele>190.2</ele><time>2026-04-19T10:39:55.915Z</time></trkpt><trkpt lat="44.7969792" lon="7.9941269"><ele>190.60000000000002</ele><time>2026-04-19T10:39:56.916Z</time></trkpt><trkpt lat="44.7969468" lon="7.9939948"><ele>191.0</ele><time>2026-04-19T10:39:57.915Z</time></trkpt><trkpt lat="44.7969187" lon="7.9938657"><ele>191.20000000000002</ele><time>2026-04-19T10:39:58.915Z</time></trkpt><trkpt lat="44.7968959" lon="7.9937465"><ele>191.4</ele><time>2026-04-19T10:39:59.915Z</time></trkpt><trkpt lat="44.7968778" lon="7.993638"><ele>191.6</ele><time>2026-04-19T10:40:00.915Z</time></trkpt><trkpt lat="44.7968629" lon="7.9935415"><ele>191.8</ele><time>2026-04-19T10:40:01.916Z</time></trkpt><trkpt lat="44.7968523" lon="7.9933925"><ele>192.0</ele><time>2026-04-19T10:40:03.916Z</time></trkpt><trkpt lat="44.7969362" lon="7.9932913"><ele>192.25</ele><time>2026-04-19T10:40:05.915Z</time></trkpt><trkpt lat="44.7970233" lon="7.9932676"><ele>192.5</ele><time>2026-04-19T10:40:06.916Z</time></trkpt><trkpt lat="44.7971303" lon="7.993244"><ele>192.75</ele><time>2026-04-19T10:40:07.916Z</time></trkpt><trkpt lat="44.7972557" lon="7.9932154"><ele>193.0</ele><time>2026-04-19T10:40:08.915Z</time></trkpt><trkpt lat="44.7973895" lon="7.9931873"><ele>193.0</ele><time>2026-04-19T10:40:09.916Z</time></trkpt><trkpt lat="44.797517" lon="7.9931615"><ele>193.0</ele><time>2026-04-19T10:40:10.915Z</time></trkpt><trkpt lat="44.7976312" lon="7.9931176"><ele>193.0</ele><time>2026-04-19T10:40:11.916Z</time></trkpt><trkpt lat="44.7977214" lon="7.9930486"><ele>193.0</ele><time>2026-04-19T10:40:12.916Z</time></trkpt><trkpt lat="44.7977997" lon="7.9929633"><ele>193.0</ele><time>2026-04-19T10:40:13.916Z</time></trkpt><trkpt lat="44.7978349" lon="7.9928387"><ele>193.25</ele><time>2026-04-19T10:40:14.915Z</time></trkpt><trkpt lat="44.7978314" lon="7.9926706"><ele>193.5</ele><time>2026-04-19T10:40:15.916Z</time></trkpt><trkpt lat="44.7977996" lon="7.9924819"><ele>193.75</ele><time>2026-04-19T10:40:16.916Z</time></trkpt><trkpt lat="44.7977662" lon="7.9922843"><ele>194.0</ele><time>2026-04-19T10:40:17.916Z</time></trkpt><trkpt lat="44.7977421" lon="7.9920825"><ele>195.5</ele><time>2026-04-19T10:40:18.916Z</time></trkpt><trkpt lat="44.7977225" lon="7.9918818"><ele>197.0</ele><time>2026-04-19T10:40:19.915Z</time></trkpt><trkpt lat="44.7977144" lon="7.9916955"><ele>198.5</ele><time>2026-04-19T10:40:20.916Z</time></trkpt><trkpt lat="44.7977156" lon="7.991511"><ele>200.0</ele><time>2026-04-19T10:40:21.915Z</time></trkpt><trkpt lat="44.7977162" lon="7.9913228"><ele>201.5</ele><time>2026-04-19T10:40:22.916Z</time></trkpt><trkpt lat="44.797724" lon="7.9911395"><ele>203.0</ele><time>2026-04-19T10:40:23.915Z</time></trkpt><trkpt lat="44.797731" lon="7.9909677"><ele>204.5</ele><time>2026-04-19T10:40:24.915Z</time></trkpt><trkpt lat="44.7977354" lon="7.9908026"><ele>206.0</ele><time>2026-04-19T10:40:25.916Z</time></trkpt><trkpt lat="44.7977402" lon="7.990644"><ele>206.4</ele><time>2026-04-19T10:40:26.915Z</time></trkpt><trkpt lat="44.7977434" lon="7.9904998"><ele>206.8</ele><time>2026-04-19T10:40:27.915Z</time></trkpt><trkpt lat="44.7977365" lon="7.9903709"><ele>207.20000000000002</ele><time>2026-04-19T10:40:28.915Z</time></trkpt><trkpt lat="44.7977165" lon="7.990254"><ele>207.60000000000002</ele><time>2026-04-19T10:40:29.915Z</time></trkpt><trkpt lat="44.7976536" lon="7.9901527"><ele>208.0</ele><time>2026-04-19T10:40:30.916Z</time></trkpt><trkpt lat="44.7975586" lon="7.9900986"><ele>206.66666666666666</ele><time>2026-04-19T10:40:31.915Z</time></trkpt><trkpt lat="44.7974689" lon="7.9900517"><ele>205.33333333333331</ele><time>2026-04-19T10:40:32.915Z</time></trkpt><trkpt lat="44.7973886" lon="7.9900018"><ele>204.0</ele><time>2026-04-19T10:40:33.915Z</time></trkpt><trkpt lat="44.7973149" lon="7.9899571"><ele>202.66666666666669</ele><time>2026-04-19T10:40:34.915Z</time></trkpt><trkpt lat="44.7972525" lon="7.9899244"><ele>201.33333333333334</ele><time>2026-04-19T10:40:35.916Z</time></trkpt><trkpt lat="44.7971675" lon="7.9899038"><ele>200.0</ele><time>2026-04-19T10:40:37.915Z</time></trkpt><trkpt lat="44.7972027" lon="7.9897833"><ele>199.8</ele><time>2026-04-19T10:40:42.915Z</time></trkpt><trkpt lat="44.7972621" lon="7.9897218"><ele>199.6</ele><time>2026-04-19T10:40:43.915Z</time></trkpt><trkpt lat="44.7973339" lon="7.9896508"><ele>199.39999999999998</ele><time>2026-04-19T10:40:44.915Z</time></trkpt><trkpt lat="44.7974204" lon="7.9895613"><ele>199.2</ele><time>2026-04-19T10:40:45.915Z</time></trkpt><trkpt lat="44.7975221" lon="7.9894506"><ele>199.0</ele><time>2026-04-19T10:40:46.915Z</time></trkpt><trkpt lat="44.7976319" lon="7.9893253"><ele>199.75</ele><time>2026-04-19T10:40:47.915Z</time></trkpt><trkpt lat="44.7977335" lon="7.9891946"><ele>200.5</ele><time>2026-04-19T10:40:48.916Z</time></trkpt><trkpt lat="44.7978331" lon="7.9890529"><ele>201.25</ele><time>2026-04-19T10:40:49.915Z</time></trkpt><trkpt lat="44.797923" lon="7.988898"><ele>202.0</ele><time>2026-04-19T10:40:50.916Z</time></trkpt><trkpt lat="44.7979967" lon="7.988729"><ele>202.0</ele><time>2026-04-19T10:40:51.916Z</time></trkpt><trkpt lat="44.798039" lon="7.9885502"><ele>202.0</ele><time>2026-04-19T10:40:52.916Z</time></trkpt><trkpt lat="44.7980665" lon="7.9883675"><ele>202.0</ele><time>2026-04-19T10:40:53.916Z</time></trkpt><trkpt lat="44.7980941" lon="7.9881999"><ele>202.0</ele><time>2026-04-19T10:40:54.915Z</time></trkpt><trkpt lat="44.7981213" lon="7.9880457"><ele>201.0</ele><time>2026-04-19T10:40:55.915Z</time></trkpt><trkpt lat="44.7981512" lon="7.9879019"><ele>200.0</ele><time>2026-04-19T10:40:56.916Z</time></trkpt><trkpt lat="44.7981974" lon="7.9877469"><ele>199.0</ele><time>2026-04-19T10:40:57.916Z</time></trkpt><trkpt lat="44.7982601" lon="7.9875561"><ele>198.0</ele><time>2026-04-19T10:40:58.916Z</time></trkpt><trkpt lat="44.7983382" lon="7.9873488"><ele>198.0</ele><time>2026-04-19T10:40:59.915Z</time></trkpt><trkpt lat="44.7984206" lon="7.9871393"><ele>198.0</ele><time>2026-04-19T10:41:00.916Z</time></trkpt><trkpt lat="44.7985021" lon="7.986926"><ele>198.0</ele><time>2026-04-19T10:41:01.915Z</time></trkpt><trkpt lat="44.7985849" lon="7.9867166"><ele>201.0</ele><time>2026-04-19T10:41:02.915Z</time></trkpt><trkpt lat="44.7986647" lon="7.9865139"><ele>204.0</ele><time>2026-04-19T10:41:03.916Z</time></trkpt><trkpt lat="44.7987458" lon="7.9863188"><ele>207.0</ele><time>2026-04-19T10:41:04.915Z</time></trkpt><trkpt lat="44.7988277" lon="7.9861255"><ele>207.0</ele><time>2026-04-19T10:41:05.915Z</time></trkpt><trkpt lat="44.7989076" lon="7.985936"><ele>207.0</ele><time>2026-04-19T10:41:06.915Z</time></trkpt><trkpt lat="44.7989851" lon="7.9857561"><ele>207.0</ele><time>2026-04-19T10:41:07.915Z</time></trkpt><trkpt lat="44.7990565" lon="7.9855781"><ele>205.5</ele><time>2026-04-19T10:41:08.916Z</time></trkpt><trkpt lat="44.799129" lon="7.9853966"><ele>204.0</ele><time>2026-04-19T10:41:09.915Z</time></trkpt><trkpt lat="44.7992047" lon="7.9852161"><ele>202.5</ele><time>2026-04-19T10:41:10.916Z</time></trkpt><trkpt lat="44.7992755" lon="7.9850452"><ele>201.0</ele><time>2026-04-19T10:41:11.916Z</time></trkpt><trkpt lat="44.7993422" lon="7.9848752"><ele>205.33333333333331</ele><time>2026-04-19T10:41:12.916Z</time></trkpt><trkpt lat="44.7994091" lon="7.9847007"><ele>209.66666666666666</ele><time>2026-04-19T10:41:13.916Z</time></trkpt><trkpt lat="44.7994788" lon="7.9845157"><ele>214.0</ele><time>2026-04-19T10:41:14.915Z</time></trkpt><trkpt lat="44.7995571" lon="7.984315"><ele>212.0</ele><time>2026-04-19T10:41:15.915Z</time></trkpt><trkpt lat="44.7996422" lon="7.9841075"><ele>210.0</ele><time>2026-04-19T10:41:16.915Z</time></trkpt><trkpt lat="44.7997248" lon="7.9839044"><ele>208.0</ele><time>2026-04-19T10:41:17.916Z</time></trkpt><trkpt lat="44.7998012" lon="7.9837111"><ele>208.0</ele><time>2026-04-19T10:41:18.915Z</time></trkpt><trkpt lat="44.7998791" lon="7.9835243"><ele>208.0</ele><time>2026-04-19T10:41:19.916Z</time></trkpt><trkpt lat="44.7999584" lon="7.9833383"><ele>208.0</ele><time>2026-04-19T10:41:20.915Z</time></trkpt><trkpt lat="44.8000413" lon="7.983152"><ele>206.33333333333331</ele><time>2026-04-19T10:41:21.915Z</time></trkpt><trkpt lat="44.800136" lon="7.9829722"><ele>204.66666666666669</ele><time>2026-04-19T10:41:22.916Z</time></trkpt><trkpt lat="44.8002347" lon="7.9828014"><ele>203.0</ele><time>2026-04-19T10:41:23.915Z</time></trkpt><trkpt lat="44.8003395" lon="7.9826345"><ele>203.66666666666669</ele><time>2026-04-19T10:41:24.915Z</time></trkpt><trkpt lat="44.8004474" lon="7.9824667"><ele>204.33333333333331</ele><time>2026-04-19T10:41:25.916Z</time></trkpt><trkpt lat="44.8005608" lon="7.9823019"><ele>205.0</ele><time>2026-04-19T10:41:26.915Z</time></trkpt><trkpt lat="44.8006755" lon="7.9821368"><ele>205.0</ele><time>2026-04-19T10:41:27.915Z</time></trkpt><trkpt lat="44.8007961" lon="7.9819753"><ele>205.0</ele><time>2026-04-19T10:41:28.915Z</time></trkpt><trkpt lat="44.800919" lon="7.9818095"><ele>205.0</ele><time>2026-04-19T10:41:29.915Z</time></trkpt><trkpt lat="44.8010407" lon="7.9816516"><ele>207.0</ele><time>2026-04-19T10:41:30.916Z</time></trkpt><trkpt lat="44.8011558" lon="7.9814952"><ele>209.0</ele><time>2026-04-19T10:41:31.915Z</time></trkpt><trkpt lat="44.8012685" lon="7.9813472"><ele>211.0</ele><time>2026-04-19T10:41:32.916Z</time></trkpt><trkpt lat="44.8013767" lon="7.98121"><ele>211.0</ele><time>2026-04-19T10:41:33.915Z</time></trkpt><trkpt lat="44.8014716" lon="7.9810763"><ele>211.0</ele><time>2026-04-19T10:41:34.916Z</time></trkpt><trkpt lat="44.8015615" lon="7.9809471"><ele>211.0</ele><time>2026-04-19T10:41:35.915Z</time></trkpt><trkpt lat="44.8016467" lon="7.9808217"><ele>211.0</ele><time>2026-04-19T10:41:36.916Z</time></trkpt><trkpt lat="44.8017381" lon="7.980686"><ele>210.66666666666666</ele><time>2026-04-19T10:41:37.915Z</time></trkpt><trkpt lat="44.8018407" lon="7.9805408"><ele>210.33333333333331</ele><time>2026-04-19T10:41:38.916Z</time></trkpt><trkpt lat="44.8019487" lon="7.9803801"><ele>210.0</ele><time>2026-04-19T10:41:39.915Z</time></trkpt><trkpt lat="44.802053" lon="7.9802097"><ele>210.0</ele><time>2026-04-19T10:41:40.915Z</time></trkpt><trkpt lat="44.8021561" lon="7.9800372"><ele>210.0</ele><time>2026-04-19T10:41:41.916Z</time></trkpt><trkpt lat="44.8022558" lon="7.9798565"><ele>210.0</ele><time>2026-04-19T10:41:42.916Z</time></trkpt><trkpt lat="44.8023457" lon="7.9796792"><ele>207.33333333333331</ele><time>2026-04-19T10:41:43.916Z</time></trkpt><trkpt lat="44.8024349" lon="7.9795093"><ele>204.66666666666666</ele><time>2026-04-19T10:41:44.915Z</time></trkpt><trkpt lat="44.8025265" lon="7.9793309"><ele>202.0</ele><time>2026-04-19T10:41:45.915Z</time></trkpt><trkpt lat="44.8026206" lon="7.979143"><ele>201.66666666666666</ele><time>2026-04-19T10:41:46.915Z</time></trkpt><trkpt lat="44.8027172" lon="7.9789549"><ele>201.33333333333331</ele><time>2026-04-19T10:41:47.915Z</time></trkpt><trkpt lat="44.8028212" lon="7.9787729"><ele>201.0</ele><time>2026-04-19T10:41:48.916Z</time></trkpt><trkpt lat="44.8029261" lon="7.9785906"><ele>201.0</ele><time>2026-04-19T10:41:49.916Z</time></trkpt><trkpt lat="44.8030271" lon="7.9784001"><ele>201.0</ele><time>2026-04-19T10:41:50.915Z</time></trkpt><trkpt lat="44.8031321" lon="7.9782017"><ele>201.0</ele><time>2026-04-19T10:41:51.915Z</time></trkpt><trkpt lat="44.8032382" lon="7.9780045"><ele>201.33333333333331</ele><time>2026-04-19T10:41:52.915Z</time></trkpt><trkpt lat="44.8033403" lon="7.9778073"><ele>201.66666666666666</ele><time>2026-04-19T10:41:53.915Z</time></trkpt><trkpt lat="44.8034415" lon="7.9776174"><ele>202.0</ele><time>2026-04-19T10:41:54.916Z</time></trkpt><trkpt lat="44.8035467" lon="7.9774183"><ele>203.66666666666666</ele><time>2026-04-19T10:41:55.916Z</time></trkpt><trkpt lat="44.8036617" lon="7.9772167"><ele>205.33333333333331</ele><time>2026-04-19T10:41:56.915Z</time></trkpt><trkpt lat="44.8037633" lon="7.9770167"><ele>207.0</ele><time>2026-04-19T10:41:57.915Z</time></trkpt><trkpt lat="44.8038633" lon="7.9768283"><ele>208.66666666666669</ele><time>2026-04-19T10:41:58.915Z</time></trkpt><trkpt lat="44.8039483" lon="7.9766283"><ele>210.33333333333334</ele><time>2026-04-19T10:41:59.915Z</time></trkpt><trkpt lat="44.804025" lon="7.976435"><ele>212.0</ele><time>2026-04-19T10:42:00.915Z</time></trkpt><trkpt lat="44.804105" lon="7.9762483"><ele>212.0</ele><time>2026-04-19T10:42:01.915Z</time></trkpt><trkpt lat="44.8042033" lon="7.9760567"><ele>212.0</ele><time>2026-04-19T10:42:02.915Z</time></trkpt><trkpt lat="44.8043183" lon="7.9758867"><ele>212.0</ele><time>2026-04-19T10:42:03.916Z</time></trkpt><trkpt lat="44.8044417" lon="7.9757233"><ele>216.66666666666669</ele><time>2026-04-19T10:42:04.915Z</time></trkpt><trkpt lat="44.80457" lon="7.975575"><ele>221.33333333333331</ele><time>2026-04-19T10:42:05.916Z</time></trkpt><trkpt lat="44.8046933" lon="7.9754283"><ele>226.0</ele><time>2026-04-19T10:42:06.915Z</time></trkpt><trkpt lat="44.8048267" lon="7.9752883"><ele>226.0</ele><time>2026-04-19T10:42:07.916Z</time></trkpt><trkpt lat="44.804975" lon="7.975165"><ele>226.0</ele><time>2026-04-19T10:42:08.916Z</time></trkpt><trkpt lat="44.8051283" lon="7.97505"><ele>226.0</ele><time>2026-04-19T10:42:09.915Z</time></trkpt><trkpt lat="44.80529" lon="7.9749367"><ele>224.66666666666666</ele><time>2026-04-19T10:42:10.916Z</time></trkpt><trkpt lat="44.8054533" lon="7.974825"><ele>223.33333333333331</ele><time>2026-04-19T10:42:11.915Z</time></trkpt><trkpt lat="44.8056183" lon="7.9747233"><ele>222.0</ele><time>2026-04-19T10:42:12.915Z</time></trkpt><trkpt lat="44.8057717" lon="7.97462"><ele>222.0</ele><time>2026-04-19T10:42:13.915Z</time></trkpt><trkpt lat="44.80593" lon="7.9745117"><ele>222.0</ele><time>2026-04-19T10:42:14.915Z</time></trkpt><trkpt lat="44.80608" lon="7.974415"><ele>222.0</ele><time>2026-04-19T10:42:15.915Z</time></trkpt><trkpt lat="44.8062267" lon="7.974325"><ele>219.66666666666669</ele><time>2026-04-19T10:42:16.916Z</time></trkpt><trkpt lat="44.8063683" lon="7.97423"><ele>217.33333333333334</ele><time>2026-04-19T10:42:17.915Z</time></trkpt><trkpt lat="44.8065067" lon="7.974135"><ele>215.0</ele><time>2026-04-19T10:42:18.915Z</time></trkpt><trkpt lat="44.8066417" lon="7.974035"><ele>215.0</ele><time>2026-04-19T10:42:19.916Z</time></trkpt><trkpt lat="44.80677" lon="7.9739183"><ele>215.0</ele><time>2026-04-19T10:42:20.915Z</time></trkpt><trkpt lat="44.8068667" lon="7.9737567"><ele>215.0</ele><time>2026-04-19T10:42:21.916Z</time></trkpt><trkpt lat="44.8069267" lon="7.9735667"><ele>219.0</ele><time>2026-04-19T10:42:22.915Z</time></trkpt><trkpt lat="44.8069533" lon="7.9733417"><ele>223.0</ele><time>2026-04-19T10:42:23.915Z</time></trkpt><trkpt lat="44.80696" lon="7.9731083"><ele>227.0</ele><time>2026-04-19T10:42:24.915Z</time></trkpt><trkpt lat="44.806965" lon="7.9728567"><ele>227.0</ele><time>2026-04-19T10:42:25.916Z</time></trkpt><trkpt lat="44.8069583" lon="7.9726017"><ele>227.0</ele><time>2026-04-19T10:42:26.916Z</time></trkpt><trkpt lat="44.806965" lon="7.9723467"><ele>227.0</ele><time>2026-04-19T10:42:27.915Z</time></trkpt><trkpt lat="44.8069717" lon="7.9720983"><ele>226.66666666666669</ele><time>2026-04-19T10:42:28.916Z</time></trkpt><trkpt lat="44.8069717" lon="7.9718517"><ele>226.33333333333331</ele><time>2026-04-19T10:42:29.915Z</time></trkpt><trkpt lat="44.8069783" lon="7.9716"><ele>226.0</ele><time>2026-04-19T10:42:30.916Z</time></trkpt><trkpt lat="44.8069783" lon="7.971355"><ele>223.66666666666666</ele><time>2026-04-19T10:42:31.916Z</time></trkpt><trkpt lat="44.8069683" lon="7.9711117"><ele>221.33333333333331</ele><time>2026-04-19T10:42:32.916Z</time></trkpt><trkpt lat="44.8069333" lon="7.9708833"><ele>219.0</ele><time>2026-04-19T10:42:33.916Z</time></trkpt><trkpt lat="44.8068817" lon="7.9706733"><ele>217.0</ele><time>2026-04-19T10:42:34.916Z</time></trkpt><trkpt lat="44.8068417" lon="7.9704833"><ele>215.0</ele><time>2026-04-19T10:42:35.915Z</time></trkpt><trkpt lat="44.8068" lon="7.9703017"><ele>213.0</ele><time>2026-04-19T10:42:36.916Z</time></trkpt><trkpt lat="44.8067867" lon="7.9701433"><ele>211.0</ele><time>2026-04-19T10:42:37.915Z</time></trkpt><trkpt lat="44.8068033" lon="7.969995"><ele>211.60000000000002</ele><time>2026-04-19T10:42:38.915Z</time></trkpt><trkpt lat="44.8068517" lon="7.9698717"><ele>212.2</ele><time>2026-04-19T10:42:39.916Z</time></trkpt><trkpt lat="44.8069383" lon="7.9697983"><ele>212.79999999999998</ele><time>2026-04-19T10:42:40.915Z</time></trkpt><trkpt lat="44.807045" lon="7.9697683"><ele>213.39999999999998</ele><time>2026-04-19T10:42:41.916Z</time></trkpt><trkpt lat="44.80717" lon="7.96979"><ele>214.0</ele><time>2026-04-19T10:42:42.915Z</time></trkpt><trkpt lat="44.8073133" lon="7.9698333"><ele>214.0</ele><time>2026-04-19T10:42:43.915Z</time></trkpt><trkpt lat="44.8074667" lon="7.96989"><ele>214.0</ele><time>2026-04-19T10:42:44.915Z</time></trkpt><trkpt lat="44.8076283" lon="7.969945"><ele>214.0</ele><time>2026-04-19T10:42:45.915Z</time></trkpt><trkpt lat="44.8077967" lon="7.9699933"><ele>215.0</ele><time>2026-04-19T10:42:46.916Z</time></trkpt><trkpt lat="44.80797" lon="7.9700333"><ele>216.0</ele><time>2026-04-19T10:42:47.916Z</time></trkpt><trkpt lat="44.80814" lon="7.970075"><ele>217.0</ele><time>2026-04-19T10:42:48.915Z</time></trkpt><trkpt lat="44.8083117" lon="7.9700767"><ele>217.0</ele><time>2026-04-19T10:42:49.915Z</time></trkpt><trkpt lat="44.80848" lon="7.97005"><ele>217.0</ele><time>2026-04-19T10:42:50.916Z</time></trkpt><trkpt lat="44.8086367" lon="7.9700017"><ele>217.0</ele><time>2026-04-19T10:42:51.916Z</time></trkpt><trkpt lat="44.8087783" lon="7.9699583"><ele>218.75</ele><time>2026-04-19T10:42:52.915Z</time></trkpt><trkpt lat="44.80891" lon="7.969915"><ele>220.5</ele><time>2026-04-19T10:42:53.916Z</time></trkpt><trkpt lat="44.8090233" lon="7.969855"><ele>222.25</ele><time>2026-04-19T10:42:54.915Z</time></trkpt><trkpt lat="44.809105" lon="7.9697583"><ele>224.0</ele><time>2026-04-19T10:42:55.916Z</time></trkpt><trkpt lat="44.80915" lon="7.9696317"><ele>224.0</ele><time>2026-04-19T10:42:56.915Z</time></trkpt><trkpt lat="44.8091517" lon="7.9694717"><ele>224.0</ele><time>2026-04-19T10:42:57.916Z</time></trkpt><trkpt lat="44.8091067" lon="7.9693"><ele>224.0</ele><time>2026-04-19T10:42:58.916Z</time></trkpt><trkpt lat="44.809025" lon="7.969125"><ele>224.0</ele><time>2026-04-19T10:42:59.915Z</time></trkpt><trkpt lat="44.8089317" lon="7.9689417"><ele>227.0</ele><time>2026-04-19T10:43:00.915Z</time></trkpt><trkpt lat="44.808845" lon="7.9687433"><ele>230.0</ele><time>2026-04-19T10:43:01.916Z</time></trkpt><trkpt lat="44.8087633" lon="7.9685383"><ele>233.0</ele><time>2026-04-19T10:43:02.916Z</time></trkpt><trkpt lat="44.808675" lon="7.9683433"><ele>232.0</ele><time>2026-04-19T10:43:03.915Z</time></trkpt><trkpt lat="44.808575" lon="7.968165"><ele>231.0</ele><time>2026-04-19T10:43:04.915Z</time></trkpt><trkpt lat="44.80846" lon="7.9680083"><ele>230.0</ele><time>2026-04-19T10:43:05.916Z</time></trkpt><trkpt lat="44.80834" lon="7.9678933"><ele>230.0</ele><time>2026-04-19T10:43:06.915Z</time></trkpt><trkpt lat="44.808225" lon="7.9677783"><ele>230.0</ele><time>2026-04-19T10:43:07.916Z</time></trkpt><trkpt lat="44.8081333" lon="7.9676667"><ele>230.0</ele><time>2026-04-19T10:43:08.915Z</time></trkpt><trkpt lat="44.80807" lon="7.9675317"><ele>230.0</ele><time>2026-04-19T10:43:09.915Z</time></trkpt><trkpt lat="44.8080533" lon="7.9673833"><ele>233.0</ele><time>2026-04-19T10:43:10.915Z</time></trkpt><trkpt lat="44.8080683" lon="7.9672133"><ele>236.0</ele><time>2026-04-19T10:43:11.916Z</time></trkpt><trkpt lat="44.8081167" lon="7.96703"><ele>239.0</ele><time>2026-04-19T10:43:12.916Z</time></trkpt><trkpt lat="44.8081833" lon="7.9668433"><ele>242.0</ele><time>2026-04-19T10:43:13.916Z</time></trkpt><trkpt lat="44.8082583" lon="7.966665"><ele>242.25</ele><time>2026-04-19T10:43:14.915Z</time></trkpt><trkpt lat="44.8083417" lon="7.96651"><ele>242.5</ele><time>2026-04-19T10:43:15.916Z</time></trkpt><trkpt lat="44.80845" lon="7.9663917"><ele>242.75</ele><time>2026-04-19T10:43:16.915Z</time></trkpt><trkpt lat="44.8085883" lon="7.9663017"><ele>243.0</ele><time>2026-04-19T10:43:17.916Z</time></trkpt><trkpt lat="44.8087283" lon="7.9662283"><ele>246.0</ele><time>2026-04-19T10:43:18.915Z</time></trkpt><trkpt lat="44.8088517" lon="7.966145"><ele>249.0</ele><time>2026-04-19T10:43:19.916Z</time></trkpt><trkpt lat="44.80894" lon="7.9660267"><ele>252.0</ele><time>2026-04-19T10:43:20.915Z</time></trkpt><trkpt lat="44.8089717" lon="7.9658983"><ele>255.0</ele><time>2026-04-19T10:43:21.916Z</time></trkpt><trkpt lat="44.8089533" lon="7.9657867"><ele>258.0</ele><time>2026-04-19T10:43:22.915Z</time></trkpt><trkpt lat="44.8088833" lon="7.9657167"><ele>258.0</ele><time>2026-04-19T10:43:23.916Z</time></trkpt><trkpt lat="44.80879" lon="7.9656717"><ele>258.0</ele><time>2026-04-19T10:43:24.915Z</time></trkpt><trkpt lat="44.8086583" lon="7.9656683"><ele>258.0</ele><time>2026-04-19T10:43:25.916Z</time></trkpt><trkpt lat="44.8085133" lon="7.965685"><ele>258.0</ele><time>2026-04-19T10:43:26.915Z</time></trkpt><trkpt lat="44.8083617" lon="7.9657"><ele>254.33333333333331</ele><time>2026-04-19T10:43:27.915Z</time></trkpt><trkpt lat="44.8082017" lon="7.9657033"><ele>250.66666666666666</ele><time>2026-04-19T10:43:28.915Z</time></trkpt><trkpt lat="44.808035" lon="7.965715"><ele>247.0</ele><time>2026-04-19T10:43:29.916Z</time></trkpt><trkpt lat="44.8078683" lon="7.96574"><ele>247.0</ele><time>2026-04-19T10:43:30.916Z</time></trkpt><trkpt lat="44.8077233" lon="7.965795"><ele>247.0</ele><time>2026-04-19T10:43:31.915Z</time></trkpt><trkpt lat="44.8076017" lon="7.9658733"><ele>247.0</ele><time>2026-04-19T10:43:32.915Z</time></trkpt><trkpt lat="44.8074883" lon="7.9659733"><ele>247.0</ele><time>2026-04-19T10:43:33.915Z</time></trkpt><trkpt lat="44.8073817" lon="7.9660633"><ele>246.83333333333331</ele><time>2026-04-19T10:43:34.915Z</time></trkpt><trkpt lat="44.8072804" lon="7.9661343"><ele>246.66666666666666</ele><time>2026-04-19T10:43:35.915Z</time></trkpt><trkpt lat="44.80719" lon="7.9661704"><ele>246.5</ele><time>2026-04-19T10:43:36.916Z</time></trkpt><trkpt lat="44.8071102" lon="7.9661535"><ele>246.33333333333331</ele><time>2026-04-19T10:43:37.916Z</time></trkpt><trkpt lat="44.8070681" lon="7.9660791"><ele>246.16666666666666</ele><time>2026-04-19T10:43:38.915Z</time></trkpt><trkpt lat="44.8070908" lon="7.9659622"><ele>246.0</ele><time>2026-04-19T10:43:39.915Z</time></trkpt><trkpt lat="44.8071566" lon="7.9658377"><ele>246.0</ele><time>2026-04-19T10:43:40.916Z</time></trkpt><trkpt lat="44.8072538" lon="7.9657296"><ele>246.0</ele><time>2026-04-19T10:43:41.916Z</time></trkpt><trkpt lat="44.8073855" lon="7.9656245"><ele>246.0</ele><time>2026-04-19T10:43:42.916Z</time></trkpt><trkpt lat="44.8075304" lon="7.9655218"><ele>246.0</ele><time>2026-04-19T10:43:43.916Z</time></trkpt><trkpt lat="44.8076826" lon="7.9654206"><ele>246.33333333333331</ele><time>2026-04-19T10:43:44.915Z</time></trkpt><trkpt lat="44.8078326" lon="7.9653276"><ele>246.66666666666666</ele><time>2026-04-19T10:43:45.916Z</time></trkpt><trkpt lat="44.8079843" lon="7.9652321"><ele>247.0</ele><time>2026-04-19T10:43:46.915Z</time></trkpt><trkpt lat="44.8081331" lon="7.9651284"><ele>250.33333333333331</ele><time>2026-04-19T10:43:47.916Z</time></trkpt><trkpt lat="44.8082695" lon="7.9649964"><ele>253.66666666666669</ele><time>2026-04-19T10:43:48.916Z</time></trkpt><trkpt lat="44.8083896" lon="7.9648208"><ele>257.0</ele><time>2026-04-19T10:43:49.916Z</time></trkpt><trkpt lat="44.8084917" lon="7.9646129"><ele>261.0</ele><time>2026-04-19T10:43:50.916Z</time></trkpt><trkpt lat="44.808591" lon="7.9644054"><ele>265.0</ele><time>2026-04-19T10:43:51.916Z</time></trkpt><trkpt lat="44.8086943" lon="7.9642073"><ele>269.0</ele><time>2026-04-19T10:43:52.916Z</time></trkpt><trkpt lat="44.8088043" lon="7.9640241"><ele>270.0</ele><time>2026-04-19T10:43:53.916Z</time></trkpt><trkpt lat="44.808927" lon="7.9638425"><ele>271.0</ele><time>2026-04-19T10:43:54.916Z</time></trkpt><trkpt lat="44.8090452" lon="7.963677"><ele>272.0</ele><time>2026-04-19T10:43:55.915Z</time></trkpt><trkpt lat="44.8091487" lon="7.9635348"><ele>272.0</ele><time>2026-04-19T10:43:56.915Z</time></trkpt><trkpt lat="44.8092494" lon="7.9634216"><ele>272.0</ele><time>2026-04-19T10:43:57.916Z</time></trkpt><trkpt lat="44.8093609" lon="7.9633472"><ele>272.0</ele><time>2026-04-19T10:43:58.916Z</time></trkpt><trkpt lat="44.8094879" lon="7.9633176"><ele>272.0</ele><time>2026-04-19T10:43:59.915Z</time></trkpt><trkpt lat="44.8096297" lon="7.9633262"><ele>276.0</ele><time>2026-04-19T10:44:00.916Z</time></trkpt><trkpt lat="44.809787" lon="7.963367"><ele>280.0</ele><time>2026-04-19T10:44:01.916Z</time></trkpt><trkpt lat="44.8099541" lon="7.9634327"><ele>284.0</ele><time>2026-04-19T10:44:02.915Z</time></trkpt><trkpt lat="44.8101226" lon="7.9634911"><ele>289.0</ele><time>2026-04-19T10:44:03.916Z</time></trkpt><trkpt lat="44.8103003" lon="7.963542"><ele>294.0</ele><time>2026-04-19T10:44:04.916Z</time></trkpt><trkpt lat="44.8104767" lon="7.9635924"><ele>299.0</ele><time>2026-04-19T10:44:05.915Z</time></trkpt><trkpt lat="44.8106417" lon="7.9636465"><ele>299.0</ele><time>2026-04-19T10:44:06.915Z</time></trkpt><trkpt lat="44.8107895" lon="7.9636912"><ele>299.0</ele><time>2026-04-19T10:44:07.915Z</time></trkpt><trkpt lat="44.8109269" lon="7.9637278"><ele>299.0</ele><time>2026-04-19T10:44:08.916Z</time></trkpt><trkpt lat="44.8110537" lon="7.9637537"><ele>299.0</ele><time>2026-04-19T10:44:09.915Z</time></trkpt><trkpt lat="44.8111717" lon="7.9637476"><ele>301.4</ele><time>2026-04-19T10:44:10.915Z</time></trkpt><trkpt lat="44.8112697" lon="7.9637038"><ele>303.79999999999995</ele><time>2026-04-19T10:44:11.915Z</time></trkpt><trkpt lat="44.811349" lon="7.9636451"><ele>306.20000000000005</ele><time>2026-04-19T10:44:12.916Z</time></trkpt><trkpt lat="44.8113821" lon="7.9635124"><ele>308.6</ele><time>2026-04-19T10:44:13.915Z</time></trkpt><trkpt lat="44.811376" lon="7.9633397"><ele>311.0</ele><time>2026-04-19T10:44:14.915Z</time></trkpt><trkpt lat="44.8113352" lon="7.9631711"><ele>311.0</ele><time>2026-04-19T10:44:15.916Z</time></trkpt><trkpt lat="44.8112685" lon="7.9629942"><ele>311.0</ele><time>2026-04-19T10:44:16.916Z</time></trkpt><trkpt lat="44.811183" lon="7.9628099"><ele>311.0</ele><time>2026-04-19T10:44:17.915Z</time></trkpt><trkpt lat="44.8110923" lon="7.9626217"><ele>312.33333333333337</ele><time>2026-04-19T10:44:18.915Z</time></trkpt><trkpt lat="44.8110083" lon="7.9624306"><ele>313.6666666666667</ele><time>2026-04-19T10:44:19.916Z</time></trkpt><trkpt lat="44.8109332" lon="7.9622351"><ele>315.0</ele><time>2026-04-19T10:44:20.916Z</time></trkpt><trkpt lat="44.8108854" lon="7.9620369"><ele>309.25</ele><time>2026-04-19T10:44:21.915Z</time></trkpt><trkpt lat="44.8108622" lon="7.9618445"><ele>303.5</ele><time>2026-04-19T10:44:22.916Z</time></trkpt><trkpt lat="44.8108721" lon="7.9616703"><ele>297.75</ele><time>2026-04-19T10:44:23.915Z</time></trkpt><trkpt lat="44.8109067" lon="7.961505"><ele>292.0</ele><time>2026-04-19T10:44:24.916Z</time></trkpt><trkpt lat="44.8109616" lon="7.9613339"><ele>297.5</ele><time>2026-04-19T10:44:25.915Z</time></trkpt><trkpt lat="44.8110371" lon="7.9611659"><ele>303.0</ele><time>2026-04-19T10:44:26.915Z</time></trkpt><trkpt lat="44.8111292" lon="7.9610214"><ele>308.5</ele><time>2026-04-19T10:44:27.915Z</time></trkpt><trkpt lat="44.8112106" lon="7.9608897"><ele>314.0</ele><time>2026-04-19T10:44:28.915Z</time></trkpt><trkpt lat="44.8112856" lon="7.9607945"><ele>314.0</ele><time>2026-04-19T10:44:29.916Z</time></trkpt><trkpt lat="44.8113565" lon="7.9607388"><ele>314.0</ele><time>2026-04-19T10:44:30.915Z</time></trkpt><trkpt lat="44.8114656" lon="7.9608128"><ele>314.0</ele><time>2026-04-19T10:44:32.916Z</time></trkpt><trkpt lat="44.8114719" lon="7.960927"><ele>314.0</ele><time>2026-04-19T10:44:33.915Z</time></trkpt><trkpt lat="44.8114456" lon="7.9610568"><ele>314.0</ele><time>2026-04-19T10:44:34.916Z</time></trkpt><trkpt lat="44.8113911" lon="7.9611872"><ele>314.25</ele><time>2026-04-19T10:44:35.916Z</time></trkpt><trkpt lat="44.8113202" lon="7.9613309"><ele>314.5</ele><time>2026-04-19T10:44:36.915Z</time></trkpt><trkpt lat="44.8112485" lon="7.961478"><ele>314.75</ele><time>2026-04-19T10:44:37.915Z</time></trkpt><trkpt lat="44.811192" lon="7.9616214"><ele>315.0</ele><time>2026-04-19T10:44:38.915Z</time></trkpt><trkpt lat="44.8111713" lon="7.9617808"><ele>315.0</ele><time>2026-04-19T10:44:39.915Z</time></trkpt><trkpt lat="44.8111743" lon="7.9619695"><ele>315.0</ele><time>2026-04-19T10:44:40.915Z</time></trkpt><trkpt lat="44.8112088" lon="7.9621615"><ele>315.0</ele><time>2026-04-19T10:44:41.916Z</time></trkpt><trkpt lat="44.8112726" lon="7.9623462"><ele>315.0</ele><time>2026-04-19T10:44:42.916Z</time></trkpt><trkpt lat="44.8113516" lon="7.9625026"><ele>315.0</ele><time>2026-04-19T10:44:43.916Z</time></trkpt><trkpt lat="44.8114391" lon="7.9626172"><ele>315.0</ele><time>2026-04-19T10:44:44.915Z</time></trkpt><trkpt lat="44.8115325" lon="7.962672"><ele>315.0</ele><time>2026-04-19T10:44:45.916Z</time></trkpt><trkpt lat="44.8116321" lon="7.962659"><ele>315.0</ele><time>2026-04-19T10:44:46.915Z</time></trkpt><trkpt lat="44.8117316" lon="7.9625987"><ele>315.0</ele><time>2026-04-19T10:44:47.916Z</time></trkpt><trkpt lat="44.8118156" lon="7.9624753"><ele>317.75</ele><time>2026-04-19T10:44:48.915Z</time></trkpt><trkpt lat="44.8118658" lon="7.9623174"><ele>320.5</ele><time>2026-04-19T10:44:49.915Z</time></trkpt><trkpt lat="44.8119072" lon="7.9621378"><ele>323.25</ele><time>2026-04-19T10:44:50.915Z</time></trkpt><trkpt lat="44.8119436" lon="7.9619569"><ele>326.0</ele><time>2026-04-19T10:44:51.915Z</time></trkpt><trkpt lat="44.8119776" lon="7.9617884"><ele>325.20000000000005</ele><time>2026-04-19T10:44:52.915Z</time></trkpt><trkpt lat="44.8120101" lon="7.9616402"><ele>324.40000000000003</ele><time>2026-04-19T10:44:53.915Z</time></trkpt><trkpt lat="44.812041" lon="7.9615048"><ele>323.6</ele><time>2026-04-19T10:44:54.916Z</time></trkpt><trkpt lat="44.8120892" lon="7.9613898"><ele>322.8</ele><time>2026-04-19T10:44:55.916Z</time></trkpt><trkpt lat="44.8121542" lon="7.9612882"><ele>322.0</ele><time>2026-04-19T10:44:56.915Z</time></trkpt><trkpt lat="44.8122261" lon="7.9611911"><ele>322.0</ele><time>2026-04-19T10:44:57.916Z</time></trkpt><trkpt lat="44.8122945" lon="7.9610982"><ele>322.0</ele><time>2026-04-19T10:44:58.915Z</time></trkpt><trkpt lat="44.8123623" lon="7.961013"><ele>322.0</ele><time>2026-04-19T10:44:59.915Z</time></trkpt><trkpt lat="44.8124349" lon="7.9609403"><ele>322.0</ele><time>2026-04-19T10:45:00.916Z</time></trkpt><trkpt lat="44.8125097" lon="7.9608758"><ele>322.0</ele><time>2026-04-19T10:45:01.916Z</time></trkpt><trkpt lat="44.8125812" lon="7.9608174"><ele>322.0</ele><time>2026-04-19T10:45:02.915Z</time></trkpt><trkpt lat="44.8126484" lon="7.9607578"><ele>321.40000000000003</ele><time>2026-04-19T10:45:03.916Z</time></trkpt><trkpt lat="44.8127132" lon="7.9606824"><ele>320.8</ele><time>2026-04-19T10:45:04.915Z</time></trkpt><trkpt lat="44.8127717" lon="7.9605743"><ele>320.2</ele><time>2026-04-19T10:45:05.915Z</time></trkpt><trkpt lat="44.8127998" lon="7.9604347"><ele>319.6</ele><time>2026-04-19T10:45:06.916Z</time></trkpt><trkpt lat="44.8128168" lon="7.9602671"><ele>319.0</ele><time>2026-04-19T10:45:07.915Z</time></trkpt><trkpt lat="44.8128326" lon="7.9600896"><ele>319.0</ele><time>2026-04-19T10:45:08.915Z</time></trkpt><trkpt lat="44.8128558" lon="7.9599135"><ele>319.0</ele><time>2026-04-19T10:45:09.915Z</time></trkpt><trkpt lat="44.8128894" lon="7.9597371"><ele>319.0</ele><time>2026-04-19T10:45:10.915Z</time></trkpt><trkpt lat="44.8129319" lon="7.9595588"><ele>319.0</ele><time>2026-04-19T10:45:11.915Z</time></trkpt><trkpt lat="44.8129781" lon="7.9593848"><ele>319.0</ele><time>2026-04-19T10:45:12.915Z</time></trkpt><trkpt lat="44.8130211" lon="7.9592167"><ele>319.0</ele><time>2026-04-19T10:45:13.915Z</time></trkpt><trkpt lat="44.8130614" lon="7.9590556"><ele>319.0</ele><time>2026-04-19T10:45:14.915Z</time></trkpt><trkpt lat="44.8131054" lon="7.9589092"><ele>319.0</ele><time>2026-04-19T10:45:15.915Z</time></trkpt><trkpt lat="44.8131515" lon="7.9587671"><ele>318.8</ele><time>2026-04-19T10:45:16.915Z</time></trkpt><trkpt lat="44.8132042" lon="7.9586334"><ele>318.59999999999997</ele><time>2026-04-19T10:45:17.915Z</time></trkpt><trkpt lat="44.8132574" lon="7.958509"><ele>318.4</ele><time>2026-04-19T10:45:18.916Z</time></trkpt><trkpt lat="44.8133125" lon="7.9583981"><ele>318.2</ele><time>2026-04-19T10:45:19.915Z</time></trkpt><trkpt lat="44.8133674" lon="7.9582957"><ele>318.0</ele><time>2026-04-19T10:45:20.915Z</time></trkpt><trkpt lat="44.8134301" lon="7.9581874"><ele>317.0</ele><time>2026-04-19T10:45:21.915Z</time></trkpt><trkpt lat="44.8135054" lon="7.9580645"><ele>316.0</ele><time>2026-04-19T10:45:22.915Z</time></trkpt><trkpt lat="44.8135901" lon="7.9579247"><ele>315.0</ele><time>2026-04-19T10:45:23.915Z</time></trkpt><trkpt lat="44.8136817" lon="7.95777"><ele>314.0</ele><time>2026-04-19T10:45:24.915Z</time></trkpt><trkpt lat="44.8137734" lon="7.9576077"><ele>313.33333333333337</ele><time>2026-04-19T10:45:25.916Z</time></trkpt><trkpt lat="44.8138682" lon="7.95744"><ele>312.6666666666667</ele><time>2026-04-19T10:45:26.916Z</time></trkpt><trkpt lat="44.813962" lon="7.9572746"><ele>312.0</ele><time>2026-04-19T10:45:27.916Z</time></trkpt><trkpt lat="44.8140586" lon="7.9571129"><ele>312.0</ele><time>2026-04-19T10:45:28.915Z</time></trkpt><trkpt lat="44.8141572" lon="7.9569445"><ele>312.0</ele><time>2026-04-19T10:45:29.915Z</time></trkpt><trkpt lat="44.8142507" lon="7.9567815"><ele>312.0</ele><time>2026-04-19T10:45:30.915Z</time></trkpt><trkpt lat="44.8143383" lon="7.95663"><ele>312.0</ele><time>2026-04-19T10:45:31.915Z</time></trkpt><trkpt lat="44.8144157" lon="7.956494"><ele>311.8333333333333</ele><time>2026-04-19T10:45:32.916Z</time></trkpt><trkpt lat="44.8144852" lon="7.9563788"><ele>311.6666666666667</ele><time>2026-04-19T10:45:33.915Z</time></trkpt><trkpt lat="44.8145413" lon="7.9562859"><ele>311.5</ele><time>2026-04-19T10:45:34.916Z</time></trkpt><trkpt lat="44.8145908" lon="7.9562062"><ele>311.33333333333337</ele><time>2026-04-19T10:45:35.916Z</time></trkpt><trkpt lat="44.8146402" lon="7.9561387"><ele>311.1666666666667</ele><time>2026-04-19T10:45:36.915Z</time></trkpt><trkpt lat="44.8147" lon="7.9560721"><ele>311.0</ele><time>2026-04-19T10:45:37.916Z</time></trkpt><trkpt lat="44.8147628" lon="7.9559742"><ele>310.75</ele><time>2026-04-19T10:45:38.915Z</time></trkpt><trkpt lat="44.8148316" lon="7.9558335"><ele>310.5</ele><time>2026-04-19T10:45:39.916Z</time></trkpt><trkpt lat="44.8149175" lon="7.9556744"><ele>310.25</ele><time>2026-04-19T10:45:40.916Z</time></trkpt><trkpt lat="44.8150142" lon="7.9555016"><ele>310.0</ele><time>2026-04-19T10:45:41.915Z</time></trkpt><trkpt lat="44.8151249" lon="7.9553264"><ele>309.66666666666663</ele><time>2026-04-19T10:45:42.915Z</time></trkpt><trkpt lat="44.8152416" lon="7.9551464"><ele>309.3333333333333</ele><time>2026-04-19T10:45:43.915Z</time></trkpt><trkpt lat="44.8153812" lon="7.9549932"><ele>309.0</ele><time>2026-04-19T10:45:44.916Z</time></trkpt><trkpt lat="44.8155184" lon="7.954843"><ele>309.0</ele><time>2026-04-19T10:45:45.915Z</time></trkpt><trkpt lat="44.8156579" lon="7.9547011"><ele>309.0</ele><time>2026-04-19T10:45:46.916Z</time></trkpt><trkpt lat="44.8157973" lon="7.954564"><ele>309.0</ele><time>2026-04-19T10:45:47.915Z</time></trkpt><trkpt lat="44.8159373" lon="7.9544347"><ele>308.3333333333333</ele><time>2026-04-19T10:45:48.916Z</time></trkpt><trkpt lat="44.8160737" lon="7.9543062"><ele>307.66666666666663</ele><time>2026-04-19T10:45:49.916Z</time></trkpt><trkpt lat="44.8162089" lon="7.9541784"><ele>307.0</ele><time>2026-04-19T10:45:50.916Z</time></trkpt><trkpt lat="44.8163453" lon="7.9540504"><ele>306.3333333333333</ele><time>2026-04-19T10:45:51.915Z</time></trkpt><trkpt lat="44.816488" lon="7.9539234"><ele>305.6666666666667</ele><time>2026-04-19T10:45:52.915Z</time></trkpt><trkpt lat="44.8166265" lon="7.953792"><ele>305.0</ele><time>2026-04-19T10:45:53.916Z</time></trkpt><trkpt lat="44.8167668" lon="7.9536601"><ele>305.0</ele><time>2026-04-19T10:45:54.915Z</time></trkpt><trkpt lat="44.81691" lon="7.9535296"><ele>305.0</ele><time>2026-04-19T10:45:55.916Z</time></trkpt><trkpt lat="44.817055" lon="7.9533895"><ele>305.0</ele><time>2026-04-19T10:45:56.915Z</time></trkpt><trkpt lat="44.8172003" lon="7.9532515"><ele>304.6666666666667</ele><time>2026-04-19T10:45:57.916Z</time></trkpt><trkpt lat="44.8173393" lon="7.9531196"><ele>304.3333333333333</ele><time>2026-04-19T10:45:58.916Z</time></trkpt><trkpt lat="44.8174786" lon="7.9529882"><ele>304.0</ele><time>2026-04-19T10:45:59.915Z</time></trkpt><trkpt lat="44.8176156" lon="7.9528641"><ele>304.3333333333333</ele><time>2026-04-19T10:46:00.915Z</time></trkpt><trkpt lat="44.8177496" lon="7.9527396"><ele>304.6666666666667</ele><time>2026-04-19T10:46:01.916Z</time></trkpt><trkpt lat="44.8178917" lon="7.9526233"><ele>305.0</ele><time>2026-04-19T10:46:02.916Z</time></trkpt><trkpt lat="44.8180233" lon="7.9525033"><ele>304.33333333333337</ele><time>2026-04-19T10:46:03.915Z</time></trkpt><trkpt lat="44.8181467" lon="7.9523717"><ele>303.6666666666667</ele><time>2026-04-19T10:46:04.915Z</time></trkpt><trkpt lat="44.8182783" lon="7.9522367"><ele>303.0</ele><time>2026-04-19T10:46:05.916Z</time></trkpt><trkpt lat="44.8184017" lon="7.9521117"><ele>303.6666666666667</ele><time>2026-04-19T10:46:06.915Z</time></trkpt><trkpt lat="44.818535" lon="7.9519833"><ele>304.33333333333337</ele><time>2026-04-19T10:46:07.915Z</time></trkpt><trkpt lat="44.8186667" lon="7.951845"><ele>305.0</ele><time>2026-04-19T10:46:08.915Z</time></trkpt><trkpt lat="44.8187917" lon="7.9517217"><ele>304.6666666666667</ele><time>2026-04-19T10:46:09.915Z</time></trkpt><trkpt lat="44.818925" lon="7.9516017"><ele>304.3333333333333</ele><time>2026-04-19T10:46:10.916Z</time></trkpt><trkpt lat="44.819055" lon="7.9514833"><ele>304.0</ele><time>2026-04-19T10:46:11.915Z</time></trkpt><trkpt lat="44.819195" lon="7.9513617"><ele>304.0</ele><time>2026-04-19T10:46:12.916Z</time></trkpt><trkpt lat="44.8193333" lon="7.951235"><ele>304.0</ele><time>2026-04-19T10:46:13.916Z</time></trkpt><trkpt lat="44.8194717" lon="7.95111"><ele>304.0</ele><time>2026-04-19T10:46:14.915Z</time></trkpt><trkpt lat="44.8196033" lon="7.9509833"><ele>303.5</ele><time>2026-04-19T10:46:15.916Z</time></trkpt><trkpt lat="44.8197233" lon="7.950865"><ele>303.0</ele><time>2026-04-19T10:46:16.915Z</time></trkpt><trkpt lat="44.819845" lon="7.9507517"><ele>302.5</ele><time>2026-04-19T10:46:17.915Z</time></trkpt><trkpt lat="44.81996" lon="7.9506433"><ele>302.0</ele><time>2026-04-19T10:46:18.916Z</time></trkpt><trkpt lat="44.820075" lon="7.950535"><ele>302.25</ele><time>2026-04-19T10:46:19.916Z</time></trkpt><trkpt lat="44.8201883" lon="7.950425"><ele>302.5</ele><time>2026-04-19T10:46:20.916Z</time></trkpt><trkpt lat="44.8202933" lon="7.95032"><ele>302.75</ele><time>2026-04-19T10:46:21.916Z</time></trkpt><trkpt lat="44.8203883" lon="7.950205"><ele>303.0</ele><time>2026-04-19T10:46:22.915Z</time></trkpt><trkpt lat="44.82047" lon="7.9500933"><ele>302.5</ele><time>2026-04-19T10:46:23.915Z</time></trkpt><trkpt lat="44.8205383" lon="7.9499917"><ele>302.0</ele><time>2026-04-19T10:46:24.915Z</time></trkpt><trkpt lat="44.8206033" lon="7.94991"><ele>301.5</ele><time>2026-04-19T10:46:25.916Z</time></trkpt><trkpt lat="44.8206783" lon="7.9498533"><ele>301.0</ele><time>2026-04-19T10:46:26.915Z</time></trkpt><trkpt lat="44.82075" lon="7.9498583"><ele>300.5</ele><time>2026-04-19T10:46:27.916Z</time></trkpt><trkpt lat="44.8208133" lon="7.9499033"><ele>300.0</ele><time>2026-04-19T10:46:28.916Z</time></trkpt><trkpt lat="44.8208683" lon="7.9499833"><ele>300.0</ele><time>2026-04-19T10:46:29.915Z</time></trkpt><trkpt lat="44.8209167" lon="7.9500567"><ele>300.0</ele><time>2026-04-19T10:46:30.915Z</time></trkpt><trkpt lat="44.8209767" lon="7.950115"><ele>300.0</ele><time>2026-04-19T10:46:31.916Z</time></trkpt><trkpt lat="44.8210567" lon="7.9501733"><ele>300.0</ele><time>2026-04-19T10:46:32.915Z</time></trkpt><trkpt lat="44.821135" lon="7.950235"><ele>300.0</ele><time>2026-04-19T10:46:33.916Z</time></trkpt><trkpt lat="44.8212217" lon="7.95031"><ele>300.0</ele><time>2026-04-19T10:46:34.915Z</time></trkpt><trkpt lat="44.82132" lon="7.9504033"><ele>300.0</ele><time>2026-04-19T10:46:35.915Z</time></trkpt><trkpt lat="44.8214283" lon="7.9505167"><ele>300.0</ele><time>2026-04-19T10:46:36.915Z</time></trkpt><trkpt lat="44.8215183" lon="7.95063"><ele>300.0</ele><time>2026-04-19T10:46:37.915Z</time></trkpt><trkpt lat="44.821615" lon="7.9507433"><ele>300.0</ele><time>2026-04-19T10:46:38.915Z</time></trkpt><trkpt lat="44.8217167" lon="7.9508483"><ele>300.5</ele><time>2026-04-19T10:46:39.916Z</time></trkpt><trkpt lat="44.8218117" lon="7.9509467"><ele>301.0</ele><time>2026-04-19T10:46:40.915Z</time></trkpt><trkpt lat="44.8219033" lon="7.9510517"><ele>301.5</ele><time>2026-04-19T10:46:41.916Z</time></trkpt><trkpt lat="44.821995" lon="7.9511533"><ele>302.0</ele><time>2026-04-19T10:46:42.915Z</time></trkpt><trkpt lat="44.8220867" lon="7.9512533"><ele>302.0</ele><time>2026-04-19T10:46:43.916Z</time></trkpt><trkpt lat="44.8221733" lon="7.9513533"><ele>302.0</ele><time>2026-04-19T10:46:44.916Z</time></trkpt><trkpt lat="44.8222617" lon="7.95145"><ele>302.0</ele><time>2026-04-19T10:46:45.916Z</time></trkpt><trkpt lat="44.8223667" lon="7.95155"><ele>302.0</ele><time>2026-04-19T10:46:46.915Z</time></trkpt><trkpt lat="44.8224633" lon="7.9516517"><ele>302.0</ele><time>2026-04-19T10:46:47.915Z</time></trkpt><trkpt lat="44.8225533" lon="7.951745"><ele>302.0</ele><time>2026-04-19T10:46:48.915Z</time></trkpt><trkpt lat="44.8226417" lon="7.9518367"><ele>302.0</ele><time>2026-04-19T10:46:49.915Z</time></trkpt><trkpt lat="44.822725" lon="7.9519333"><ele>302.0</ele><time>2026-04-19T10:46:50.915Z</time></trkpt><trkpt lat="44.82281" lon="7.9520367"><ele>302.0</ele><time>2026-04-19T10:46:51.916Z</time></trkpt><trkpt lat="44.822892" lon="7.9521433"><ele>302.0</ele><time>2026-04-19T10:46:52.916Z</time></trkpt><trkpt lat="44.8229714" lon="7.9522609"><ele>302.0</ele><time>2026-04-19T10:46:53.916Z</time></trkpt><trkpt lat="44.8230504" lon="7.9523884"><ele>302.0</ele><time>2026-04-19T10:46:54.915Z</time></trkpt><trkpt lat="44.8231323" lon="7.9525369"><ele>302.0</ele><time>2026-04-19T10:46:55.916Z</time></trkpt><trkpt lat="44.8232179" lon="7.9527065"><ele>302.6666666666667</ele><time>2026-04-19T10:46:56.915Z</time></trkpt><trkpt lat="44.8232998" lon="7.9528995"><ele>303.3333333333333</ele><time>2026-04-19T10:46:57.915Z</time></trkpt><trkpt lat="44.823378" lon="7.9531149"><ele>304.0</ele><time>2026-04-19T10:46:58.915Z</time></trkpt><trkpt lat="44.8234611" lon="7.953342"><ele>304.0</ele><time>2026-04-19T10:46:59.916Z</time></trkpt><trkpt lat="44.8235405" lon="7.9535617"><ele>304.0</ele><time>2026-04-19T10:47:00.915Z</time></trkpt><trkpt lat="44.82362" lon="7.9537743"><ele>304.0</ele><time>2026-04-19T10:47:01.916Z</time></trkpt><trkpt lat="44.8237055" lon="7.9539809"><ele>304.0</ele><time>2026-04-19T10:47:02.916Z</time></trkpt><trkpt lat="44.8237851" lon="7.9541824"><ele>304.0</ele><time>2026-04-19T10:47:03.915Z</time></trkpt><trkpt lat="44.8238598" lon="7.9543752"><ele>304.0</ele><time>2026-04-19T10:47:04.916Z</time></trkpt><trkpt lat="44.8239302" lon="7.9545592"><ele>304.0</ele><time>2026-04-19T10:47:05.915Z</time></trkpt><trkpt lat="44.8240029" lon="7.9547383"><ele>304.0</ele><time>2026-04-19T10:47:06.916Z</time></trkpt><trkpt lat="44.8240659" lon="7.9549104"><ele>304.0</ele><time>2026-04-19T10:47:07.915Z</time></trkpt><trkpt lat="44.8241285" lon="7.9550893"><ele>304.0</ele><time>2026-04-19T10:47:08.915Z</time></trkpt><trkpt lat="44.8241949" lon="7.9552823"><ele>304.25</ele><time>2026-04-19T10:47:09.915Z</time></trkpt><trkpt lat="44.8242583" lon="7.9554661"><ele>304.5</ele><time>2026-04-19T10:47:10.916Z</time></trkpt><trkpt lat="44.8243159" lon="7.9556352"><ele>304.75</ele><time>2026-04-19T10:47:11.916Z</time></trkpt><trkpt lat="44.8243661" lon="7.9557955"><ele>305.0</ele><time>2026-04-19T10:47:12.915Z</time></trkpt><trkpt lat="44.8244107" lon="7.9559445"><ele>305.8</ele><time>2026-04-19T10:47:13.915Z</time></trkpt><trkpt lat="44.8244534" lon="7.956087"><ele>306.6</ele><time>2026-04-19T10:47:14.916Z</time></trkpt><trkpt lat="44.8244979" lon="7.9562166"><ele>307.4</ele><time>2026-04-19T10:47:15.916Z</time></trkpt><trkpt lat="44.8245388" lon="7.956338"><ele>308.2</ele><time>2026-04-19T10:47:16.916Z</time></trkpt><trkpt lat="44.8245738" lon="7.9564523"><ele>309.0</ele><time>2026-04-19T10:47:17.915Z</time></trkpt><trkpt lat="44.8246081" lon="7.9565642"><ele>309.0</ele><time>2026-04-19T10:47:18.916Z</time></trkpt><trkpt lat="44.8246313" lon="7.9566702"><ele>309.0</ele><time>2026-04-19T10:47:19.915Z</time></trkpt><trkpt lat="44.8246395" lon="7.9567701"><ele>309.0</ele><time>2026-04-19T10:47:20.916Z</time></trkpt><trkpt lat="44.8246398" lon="7.9569234"><ele>309.0</ele><time>2026-04-19T10:47:22.916Z</time></trkpt><trkpt lat="44.82469" lon="7.9570124"><ele>309.0</ele><time>2026-04-19T10:47:24.916Z</time></trkpt><trkpt lat="44.8247849" lon="7.9569871"><ele>309.0</ele><time>2026-04-19T10:47:26.916Z</time></trkpt><trkpt lat="44.8248497" lon="7.9569304"><ele>309.0</ele><time>2026-04-19T10:47:27.915Z</time></trkpt><trkpt lat="44.8249246" lon="7.9568614"><ele>309.0</ele><time>2026-04-19T10:47:28.916Z</time></trkpt><trkpt lat="44.8250004" lon="7.9567917"><ele>309.0</ele><time>2026-04-19T10:47:29.915Z</time></trkpt><trkpt lat="44.825067" lon="7.9567308"><ele>309.0</ele><time>2026-04-19T10:47:30.915Z</time></trkpt><trkpt lat="44.825126" lon="7.9566864"><ele>309.0</ele><time>2026-04-19T10:47:31.915Z</time></trkpt><trkpt lat="44.8252372" lon="7.9566777"><ele>309.0</ele><time>2026-04-19T10:47:33.915Z</time></trkpt><trkpt lat="44.8253403" lon="7.956802"><ele>308.8</ele><time>2026-04-19T10:47:35.916Z</time></trkpt><trkpt lat="44.8253763" lon="7.9568832"><ele>308.59999999999997</ele><time>2026-04-19T10:47:36.915Z</time></trkpt><trkpt lat="44.8254351" lon="7.9570317"><ele>308.4</ele><time>2026-04-19T10:47:38.915Z</time></trkpt><trkpt lat="44.8254796" lon="7.9571251"><ele>308.2</ele><time>2026-04-19T10:47:39.916Z</time></trkpt><trkpt lat="44.825539" lon="7.9572436"><ele>308.0</ele><time>2026-04-19T10:47:40.916Z</time></trkpt><trkpt lat="44.8256088" lon="7.9573865"><ele>308.0</ele><time>2026-04-19T10:47:41.915Z</time></trkpt><trkpt lat="44.8256764" lon="7.9575477"><ele>308.0</ele><time>2026-04-19T10:47:42.916Z</time></trkpt><trkpt lat="44.8257421" lon="7.957719"><ele>308.0</ele><time>2026-04-19T10:47:43.915Z</time></trkpt><trkpt lat="44.8258088" lon="7.9578838"><ele>308.0</ele><time>2026-04-19T10:47:44.916Z</time></trkpt><trkpt lat="44.8258611" lon="7.958029"><ele>308.0</ele><time>2026-04-19T10:47:45.916Z</time></trkpt><trkpt lat="44.825905" lon="7.9581725"><ele>308.0</ele><time>2026-04-19T10:47:46.915Z</time></trkpt><trkpt lat="44.8259424" lon="7.9583248"><ele>308.0</ele><time>2026-04-19T10:47:47.916Z</time></trkpt><trkpt lat="44.8259616" lon="7.9584809"><ele>308.0</ele><time>2026-04-19T10:47:48.915Z</time></trkpt><trkpt lat="44.8259639" lon="7.958641"><ele>308.0</ele><time>2026-04-19T10:47:49.916Z</time></trkpt><trkpt lat="44.8259544" lon="7.9587945"><ele>308.0</ele><time>2026-04-19T10:47:50.915Z</time></trkpt><trkpt lat="44.8259454" lon="7.9589434"><ele>308.0</ele><time>2026-04-19T10:47:51.916Z</time></trkpt><trkpt lat="44.825957" lon="7.9591015"><ele>308.0</ele><time>2026-04-19T10:47:52.916Z</time></trkpt><trkpt lat="44.8259895" lon="7.9592618"><ele>308.0</ele><time>2026-04-19T10:47:53.916Z</time></trkpt><trkpt lat="44.8260371" lon="7.9594358"><ele>308.0</ele><time>2026-04-19T10:47:54.916Z</time></trkpt><trkpt lat="44.8261031" lon="7.9596151"><ele>308.0</ele><time>2026-04-19T10:47:55.915Z</time></trkpt><trkpt lat="44.8261853" lon="7.9597984"><ele>308.0</ele><time>2026-04-19T10:47:56.916Z</time></trkpt><trkpt lat="44.8262752" lon="7.9599814"><ele>308.5</ele><time>2026-04-19T10:47:57.915Z</time></trkpt><trkpt lat="44.8263524" lon="7.9601493"><ele>309.0</ele><time>2026-04-19T10:47:58.916Z</time></trkpt><trkpt lat="44.8264174" lon="7.9603174"><ele>309.5</ele><time>2026-04-19T10:47:59.915Z</time></trkpt><trkpt lat="44.8264648" lon="7.960501"><ele>310.0</ele><time>2026-04-19T10:48:00.915Z</time></trkpt><trkpt lat="44.8264893" lon="7.9606889"><ele>310.0</ele><time>2026-04-19T10:48:01.916Z</time></trkpt><trkpt lat="44.8264997" lon="7.9608754"><ele>310.0</ele><time>2026-04-19T10:48:02.916Z</time></trkpt><trkpt lat="44.8264919" lon="7.9610731"><ele>310.0</ele><time>2026-04-19T10:48:03.916Z</time></trkpt><trkpt lat="44.8264718" lon="7.9612805"><ele>310.0</ele><time>2026-04-19T10:48:04.916Z</time></trkpt><trkpt lat="44.8264412" lon="7.9614775"><ele>310.0</ele><time>2026-04-19T10:48:05.916Z</time></trkpt><trkpt lat="44.8264118" lon="7.9616722"><ele>310.0</ele><time>2026-04-19T10:48:06.915Z</time></trkpt><trkpt lat="44.8263967" lon="7.9618686"><ele>310.0</ele><time>2026-04-19T10:48:07.915Z</time></trkpt><trkpt lat="44.8264007" lon="7.9620709"><ele>310.0</ele><time>2026-04-19T10:48:08.916Z</time></trkpt><trkpt lat="44.8264375" lon="7.9622703"><ele>310.25</ele><time>2026-04-19T10:48:09.915Z</time></trkpt><trkpt lat="44.826492" lon="7.96246"><ele>310.5</ele><time>2026-04-19T10:48:10.916Z</time></trkpt><trkpt lat="44.826535" lon="7.9626356"><ele>310.75</ele><time>2026-04-19T10:48:11.916Z</time></trkpt><trkpt lat="44.8265477" lon="7.9628114"><ele>311.0</ele><time>2026-04-19T10:48:12.916Z</time></trkpt><trkpt lat="44.8265276" lon="7.9629989"><ele>311.6666666666667</ele><time>2026-04-19T10:48:13.916Z</time></trkpt><trkpt lat="44.8264914" lon="7.9631986"><ele>312.3333333333333</ele><time>2026-04-19T10:48:14.915Z</time></trkpt><trkpt lat="44.826455" lon="7.9634167"><ele>313.0</ele><time>2026-04-19T10:48:15.915Z</time></trkpt><trkpt lat="44.8264334" lon="7.9636326"><ele>313.5</ele><time>2026-04-19T10:48:16.916Z</time></trkpt><trkpt lat="44.8264119" lon="7.9638344"><ele>314.0</ele><time>2026-04-19T10:48:17.915Z</time></trkpt><trkpt lat="44.8263905" lon="7.9640205"><ele>314.5</ele><time>2026-04-19T10:48:18.916Z</time></trkpt><trkpt lat="44.8263634" lon="7.9641888"><ele>315.0</ele><time>2026-04-19T10:48:19.915Z</time></trkpt><trkpt lat="44.8263369" lon="7.9643506"><ele>315.2</ele><time>2026-04-19T10:48:20.915Z</time></trkpt><trkpt lat="44.8263306" lon="7.9645036"><ele>315.4</ele><time>2026-04-19T10:48:21.916Z</time></trkpt><trkpt lat="44.8263505" lon="7.9646449"><ele>315.6</ele><time>2026-04-19T10:48:22.915Z</time></trkpt><trkpt lat="44.8263949" lon="7.9647792"><ele>315.8</ele><time>2026-04-19T10:48:23.916Z</time></trkpt><trkpt lat="44.8264539" lon="7.9649146"><ele>316.0</ele><time>2026-04-19T10:48:24.915Z</time></trkpt><trkpt lat="44.8265193" lon="7.9650506"><ele>316.75</ele><time>2026-04-19T10:48:25.916Z</time></trkpt><trkpt lat="44.8265865" lon="7.9651877"><ele>317.5</ele><time>2026-04-19T10:48:26.916Z</time></trkpt><trkpt lat="44.8266378" lon="7.965356"><ele>318.25</ele><time>2026-04-19T10:48:27.915Z</time></trkpt><trkpt lat="44.8266739" lon="7.9655401"><ele>319.0</ele><time>2026-04-19T10:48:28.916Z</time></trkpt><trkpt lat="44.8266992" lon="7.9657174"><ele>319.0</ele><time>2026-04-19T10:48:29.916Z</time></trkpt><trkpt lat="44.8267234" lon="7.9658723"><ele>319.0</ele><time>2026-04-19T10:48:30.915Z</time></trkpt><trkpt lat="44.826743" lon="7.9660211"><ele>319.0</ele><time>2026-04-19T10:48:31.915Z</time></trkpt><trkpt lat="44.8267626" lon="7.9661736"><ele>319.0</ele><time>2026-04-19T10:48:32.916Z</time></trkpt><trkpt lat="44.8267937" lon="7.966323"><ele>319.0</ele><time>2026-04-19T10:48:33.916Z</time></trkpt><trkpt lat="44.8268292" lon="7.9664498"><ele>319.79999999999995</ele><time>2026-04-19T10:48:34.915Z</time></trkpt><trkpt lat="44.8268535" lon="7.9665443"><ele>320.59999999999997</ele><time>2026-04-19T10:48:35.915Z</time></trkpt><trkpt lat="44.8268585" lon="7.96668"><ele>321.4</ele><time>2026-04-19T10:48:37.916Z</time></trkpt><trkpt lat="44.8268635" lon="7.9667764"><ele>322.2</ele><time>2026-04-19T10:48:38.915Z</time></trkpt><trkpt lat="44.8268874" lon="7.9669065"><ele>323.0</ele><time>2026-04-19T10:48:39.915Z</time></trkpt><trkpt lat="44.8269187" lon="7.9670787"><ele>323.0</ele><time>2026-04-19T10:48:40.915Z</time></trkpt><trkpt lat="44.8269508" lon="7.9672778"><ele>323.0</ele><time>2026-04-19T10:48:41.915Z</time></trkpt><trkpt lat="44.826981" lon="7.9674847"><ele>323.0</ele><time>2026-04-19T10:48:42.915Z</time></trkpt><trkpt lat="44.8270105" lon="7.9676982"><ele>323.0</ele><time>2026-04-19T10:48:43.915Z</time></trkpt><trkpt lat="44.8270415" lon="7.9679062"><ele>323.25</ele><time>2026-04-19T10:48:44.916Z</time></trkpt><trkpt lat="44.827069" lon="7.968107"><ele>323.5</ele><time>2026-04-19T10:48:45.915Z</time></trkpt><trkpt lat="44.8270962" lon="7.9683116"><ele>323.75</ele><time>2026-04-19T10:48:46.916Z</time></trkpt><trkpt lat="44.8271249" lon="7.9685285"><ele>324.0</ele><time>2026-04-19T10:48:47.916Z</time></trkpt><trkpt lat="44.8271535" lon="7.9687433"><ele>324.0</ele><time>2026-04-19T10:48:48.915Z</time></trkpt><trkpt lat="44.8271821" lon="7.9689544"><ele>324.0</ele><time>2026-04-19T10:48:49.915Z</time></trkpt><trkpt lat="44.8272107" lon="7.9691621"><ele>324.0</ele><time>2026-04-19T10:48:50.915Z</time></trkpt><trkpt lat="44.8272421" lon="7.9693691"><ele>324.0</ele><time>2026-04-19T10:48:51.916Z</time></trkpt><trkpt lat="44.8272658" lon="7.9695733"><ele>324.0</ele><time>2026-04-19T10:48:52.915Z</time></trkpt><trkpt lat="44.8272774" lon="7.9697779"><ele>324.0</ele><time>2026-04-19T10:48:53.916Z</time></trkpt><trkpt lat="44.8272849" lon="7.9699888"><ele>324.0</ele><time>2026-04-19T10:48:54.915Z</time></trkpt><trkpt lat="44.8272822" lon="7.9702008"><ele>324.0</ele><time>2026-04-19T10:48:55.915Z</time></trkpt><trkpt lat="44.8272742" lon="7.9704163"><ele>324.0</ele><time>2026-04-19T10:48:56.916Z</time></trkpt><trkpt lat="44.8272582" lon="7.9706262"><ele>324.0</ele><time>2026-04-19T10:48:57.915Z</time></trkpt><trkpt lat="44.8272383" lon="7.9708313"><ele>326.6666666666667</ele><time>2026-04-19T10:48:58.916Z</time></trkpt><trkpt lat="44.827221" lon="7.971047"><ele>329.33333333333337</ele><time>2026-04-19T10:48:59.916Z</time></trkpt><trkpt lat="44.8272041" lon="7.9712638"><ele>332.0</ele><time>2026-04-19T10:49:00.915Z</time></trkpt><trkpt lat="44.8271864" lon="7.9714809"><ele>332.0</ele><time>2026-04-19T10:49:01.916Z</time></trkpt><trkpt lat="44.8271678" lon="7.9716886"><ele>332.0</ele><time>2026-04-19T10:49:02.916Z</time></trkpt><trkpt lat="44.8271396" lon="7.9718963"><ele>332.0</ele><time>2026-04-19T10:49:03.916Z</time></trkpt><trkpt lat="44.8270982" lon="7.9721091"><ele>333.0</ele><time>2026-04-19T10:49:04.916Z</time></trkpt><trkpt lat="44.8270497" lon="7.9723198"><ele>334.0</ele><time>2026-04-19T10:49:05.916Z</time></trkpt><trkpt lat="44.8269947" lon="7.9725342"><ele>335.0</ele><time>2026-04-19T10:49:06.916Z</time></trkpt><trkpt lat="44.8269391" lon="7.9727428"><ele>335.0</ele><time>2026-04-19T10:49:07.916Z</time></trkpt><trkpt lat="44.8268888" lon="7.9729441"><ele>335.0</ele><time>2026-04-19T10:49:08.915Z</time></trkpt><trkpt lat="44.8268498" lon="7.9731434"><ele>335.0</ele><time>2026-04-19T10:49:09.916Z</time></trkpt><trkpt lat="44.8268284" lon="7.9733447"><ele>335.0</ele><time>2026-04-19T10:49:10.915Z</time></trkpt><trkpt lat="44.826834" lon="7.9735394"><ele>336.25</ele><time>2026-04-19T10:49:11.916Z</time></trkpt><trkpt lat="44.8268666" lon="7.9737344"><ele>337.5</ele><time>2026-04-19T10:49:12.916Z</time></trkpt><trkpt lat="44.8269187" lon="7.9739337"><ele>338.75</ele><time>2026-04-19T10:49:13.916Z</time></trkpt><trkpt lat="44.8269856" lon="7.9741248"><ele>340.0</ele><time>2026-04-19T10:49:14.915Z</time></trkpt><trkpt lat="44.8270467" lon="7.9743004"><ele>340.2</ele><time>2026-04-19T10:49:15.916Z</time></trkpt><trkpt lat="44.8270956" lon="7.9744618"><ele>340.4</ele><time>2026-04-19T10:49:16.916Z</time></trkpt><trkpt lat="44.8271288" lon="7.9746051"><ele>340.6</ele><time>2026-04-19T10:49:17.916Z</time></trkpt><trkpt lat="44.8271491" lon="7.9747263"><ele>340.8</ele><time>2026-04-19T10:49:18.916Z</time></trkpt><trkpt lat="44.8271616" lon="7.9748377"><ele>341.0</ele><time>2026-04-19T10:49:19.915Z</time></trkpt><trkpt lat="44.827172" lon="7.9749309"><ele>342.1666666666667</ele><time>2026-04-19T10:49:20.915Z</time></trkpt><trkpt lat="44.8272275" lon="7.9750595"><ele>343.33333333333337</ele><time>2026-04-19T10:49:22.915Z</time></trkpt><trkpt lat="44.8272861" lon="7.9751111"><ele>344.5</ele><time>2026-04-19T10:49:23.916Z</time></trkpt><trkpt lat="44.8273555" lon="7.9751706"><ele>345.6666666666667</ele><time>2026-04-19T10:49:24.915Z</time></trkpt><trkpt lat="44.8274152" lon="7.9752256"><ele>346.8333333333333</ele><time>2026-04-19T10:49:25.915Z</time></trkpt><trkpt lat="44.8274763" lon="7.9752607"><ele>348.0</ele><time>2026-04-19T10:49:26.914Z</time></trkpt><trkpt lat="44.8275423" lon="7.9752757"><ele>348.0</ele><time>2026-04-19T10:49:27.914Z</time></trkpt><trkpt lat="44.8276083" lon="7.9752702"><ele>348.0</ele><time>2026-04-19T10:49:28.914Z</time></trkpt><trkpt lat="44.82767" lon="7.9752293"><ele>348.0</ele><time>2026-04-19T10:49:29.914Z</time></trkpt><trkpt lat="44.827719" lon="7.9751126"><ele>348.0</ele><time>2026-04-19T10:49:30.915Z</time></trkpt><trkpt lat="44.82776" lon="7.9749438"><ele>348.0</ele><time>2026-04-19T10:49:31.915Z</time></trkpt><trkpt lat="44.8277916" lon="7.9747638"><ele>346.25</ele><time>2026-04-19T10:49:32.914Z</time></trkpt><trkpt lat="44.827815" lon="7.9745712"><ele>344.5</ele><time>2026-04-19T10:49:33.915Z</time></trkpt><trkpt lat="44.8278297" lon="7.9743874"><ele>342.75</ele><time>2026-04-19T10:49:34.914Z</time></trkpt><trkpt lat="44.8278468" lon="7.9742172"><ele>341.0</ele><time>2026-04-19T10:49:35.914Z</time></trkpt><trkpt lat="44.8278679" lon="7.9740732"><ele>341.0</ele><time>2026-04-19T10:49:36.914Z</time></trkpt><trkpt lat="44.8279062" lon="7.9739465"><ele>341.0</ele><time>2026-04-19T10:49:37.915Z</time></trkpt><trkpt lat="44.8279703" lon="7.973815"><ele>341.0</ele><time>2026-04-19T10:49:38.915Z</time></trkpt><trkpt lat="44.8280481" lon="7.9736817"><ele>341.0</ele><time>2026-04-19T10:49:39.915Z</time></trkpt><trkpt lat="44.8281314" lon="7.9735668"><ele>341.0</ele><time>2026-04-19T10:49:40.915Z</time></trkpt><trkpt lat="44.8282242" lon="7.9734866"><ele>341.0</ele><time>2026-04-19T10:49:41.915Z</time></trkpt><trkpt lat="44.8283104" lon="7.9734227"><ele>341.0</ele><time>2026-04-19T10:49:42.914Z</time></trkpt><trkpt lat="44.8283777" lon="7.9733634"><ele>341.0</ele><time>2026-04-19T10:49:43.914Z</time></trkpt><trkpt lat="44.8284199" lon="7.9732916"><ele>341.0</ele><time>2026-04-19T10:49:44.914Z</time></trkpt><trkpt lat="44.8284514" lon="7.9732022"><ele>341.0</ele><time>2026-04-19T10:49:45.914Z</time></trkpt><trkpt lat="44.8284852" lon="7.9731144"><ele>342.0</ele><time>2026-04-19T10:49:46.914Z</time></trkpt><trkpt lat="44.8285338" lon="7.9730466"><ele>343.0</ele><time>2026-04-19T10:49:47.914Z</time></trkpt><trkpt lat="44.8285984" lon="7.9730026"><ele>344.0</ele><time>2026-04-19T10:49:48.914Z</time></trkpt><trkpt lat="44.8286742" lon="7.9729676"><ele>345.0</ele><time>2026-04-19T10:49:49.914Z</time></trkpt><trkpt lat="44.8287483" lon="7.9729219"><ele>346.0</ele><time>2026-04-19T10:49:50.915Z</time></trkpt><trkpt lat="44.8288114" lon="7.9728428"><ele>347.0</ele><time>2026-04-19T10:49:51.915Z</time></trkpt><trkpt lat="44.82886" lon="7.97273"><ele>347.0</ele><time>2026-04-19T10:49:52.914Z</time></trkpt><trkpt lat="44.8288933" lon="7.9725933"><ele>347.0</ele><time>2026-04-19T10:49:53.915Z</time></trkpt><trkpt lat="44.8289233" lon="7.9724467"><ele>347.0</ele><time>2026-04-19T10:49:54.914Z</time></trkpt><trkpt lat="44.8289667" lon="7.9723317"><ele>347.0</ele><time>2026-04-19T10:49:55.915Z</time></trkpt><trkpt lat="44.8290183" lon="7.9722333"><ele>347.0</ele><time>2026-04-19T10:49:56.914Z</time></trkpt><trkpt lat="44.8290833" lon="7.9721417"><ele>346.6</ele><time>2026-04-19T10:49:57.915Z</time></trkpt><trkpt lat="44.82915" lon="7.972055"><ele>346.20000000000005</ele><time>2026-04-19T10:49:58.914Z</time></trkpt><trkpt lat="44.8292217" lon="7.9719733"><ele>345.8</ele><time>2026-04-19T10:49:59.915Z</time></trkpt><trkpt lat="44.8292867" lon="7.9718833"><ele>345.4</ele><time>2026-04-19T10:50:00.915Z</time></trkpt><trkpt lat="44.8293517" lon="7.9718"><ele>345.0</ele><time>2026-04-19T10:50:01.914Z</time></trkpt><trkpt lat="44.8294233" lon="7.9717267"><ele>347.3333333333333</ele><time>2026-04-19T10:50:02.914Z</time></trkpt><trkpt lat="44.8294917" lon="7.9716583"><ele>349.6666666666667</ele><time>2026-04-19T10:50:03.915Z</time></trkpt><trkpt lat="44.8295617" lon="7.9715883"><ele>352.0</ele><time>2026-04-19T10:50:04.914Z</time></trkpt><trkpt lat="44.829625" lon="7.97151"><ele>354.33333333333337</ele><time>2026-04-19T10:50:05.915Z</time></trkpt><trkpt lat="44.8296883" lon="7.9714383"><ele>356.6666666666667</ele><time>2026-04-19T10:50:06.915Z</time></trkpt><trkpt lat="44.8297483" lon="7.971375"><ele>359.0</ele><time>2026-04-19T10:50:07.914Z</time></trkpt><trkpt lat="44.8298083" lon="7.971305"><ele>359.0</ele><time>2026-04-19T10:50:08.915Z</time></trkpt><trkpt lat="44.829865" lon="7.9712333"><ele>359.0</ele><time>2026-04-19T10:50:09.915Z</time></trkpt><trkpt lat="44.829925" lon="7.97117"><ele>359.0</ele><time>2026-04-19T10:50:10.914Z</time></trkpt><trkpt lat="44.8299833" lon="7.9711017"><ele>359.0</ele><time>2026-04-19T10:50:11.914Z</time></trkpt><trkpt lat="44.8300433" lon="7.9710383"><ele>359.0</ele><time>2026-04-19T10:50:12.914Z</time></trkpt><trkpt lat="44.8300933" lon="7.970975"><ele>359.0</ele><time>2026-04-19T10:50:13.914Z</time></trkpt><trkpt lat="44.830155" lon="7.9709083"><ele>359.0</ele><time>2026-04-19T10:50:14.914Z</time></trkpt><trkpt lat="44.830205" lon="7.970845"><ele>359.1666666666667</ele><time>2026-04-19T10:50:15.915Z</time></trkpt><trkpt lat="44.8302617" lon="7.97078"><ele>359.33333333333337</ele><time>2026-04-19T10:50:16.915Z</time></trkpt><trkpt lat="44.8303217" lon="7.9707017"><ele>359.5</ele><time>2026-04-19T10:50:17.914Z</time></trkpt><trkpt lat="44.8303933" lon="7.9706233"><ele>359.6666666666667</ele><time>2026-04-19T10:50:18.914Z</time></trkpt><trkpt lat="44.8304667" lon="7.9705367"><ele>359.8333333333333</ele><time>2026-04-19T10:50:19.914Z</time></trkpt><trkpt lat="44.8305317" lon="7.9704417"><ele>360.0</ele><time>2026-04-19T10:50:20.914Z</time></trkpt><trkpt lat="44.8305883" lon="7.9703517"><ele>360.0</ele><time>2026-04-19T10:50:21.915Z</time></trkpt><trkpt lat="44.830645" lon="7.970275"><ele>360.0</ele><time>2026-04-19T10:50:22.915Z</time></trkpt><trkpt lat="44.8307017" lon="7.97021"><ele>360.0</ele><time>2026-04-19T10:50:23.915Z</time></trkpt><trkpt lat="44.8307533" lon="7.97003"><ele>360.0</ele><time>2026-04-19T10:50:25.915Z</time></trkpt><trkpt lat="44.8307567" lon="7.9699133"><ele>360.0</ele><time>2026-04-19T10:50:26.915Z</time></trkpt><trkpt lat="44.8307583" lon="7.9697767"><ele>360.6</ele><time>2026-04-19T10:50:27.914Z</time></trkpt><trkpt lat="44.83076" lon="7.96962"><ele>361.2</ele><time>2026-04-19T10:50:28.915Z</time></trkpt><trkpt lat="44.830765" lon="7.9694533"><ele>361.79999999999995</ele><time>2026-04-19T10:50:29.914Z</time></trkpt><trkpt lat="44.8307617" lon="7.9692983"><ele>362.4</ele><time>2026-04-19T10:50:30.914Z</time></trkpt><trkpt lat="44.830765" lon="7.9691633"><ele>363.0</ele><time>2026-04-19T10:50:31.914Z</time></trkpt><trkpt lat="44.8307683" lon="7.969045"><ele>363.0</ele><time>2026-04-19T10:50:32.915Z</time></trkpt><trkpt lat="44.830785" lon="7.9689317"><ele>363.0</ele><time>2026-04-19T10:50:33.915Z</time></trkpt><trkpt lat="44.8308017" lon="7.9688"><ele>363.0</ele><time>2026-04-19T10:50:34.914Z</time></trkpt><trkpt lat="44.83082" lon="7.968665"><ele>363.0</ele><time>2026-04-19T10:50:35.914Z</time></trkpt><trkpt lat="44.8308317" lon="7.9685317"><ele>363.0</ele><time>2026-04-19T10:50:36.914Z</time></trkpt><trkpt lat="44.8308433" lon="7.9684133"><ele>362.1666666666667</ele><time>2026-04-19T10:50:37.914Z</time></trkpt><trkpt lat="44.8308617" lon="7.96831"><ele>361.3333333333333</ele><time>2026-04-19T10:50:38.915Z</time></trkpt><trkpt lat="44.8308933" lon="7.96822"><ele>360.5</ele><time>2026-04-19T10:50:39.915Z</time></trkpt><trkpt lat="44.8309517" lon="7.968135"><ele>359.66666666666663</ele><time>2026-04-19T10:50:40.915Z</time></trkpt><trkpt lat="44.8310267" lon="7.9680517"><ele>358.8333333333333</ele><time>2026-04-19T10:50:41.915Z</time></trkpt><trkpt lat="44.8311067" lon="7.9679633"><ele>358.0</ele><time>2026-04-19T10:50:42.915Z</time></trkpt><trkpt lat="44.83117" lon="7.96785"><ele>356.0</ele><time>2026-04-19T10:50:43.914Z</time></trkpt><trkpt lat="44.83123" lon="7.967715"><ele>354.0</ele><time>2026-04-19T10:50:44.915Z</time></trkpt><trkpt lat="44.831275" lon="7.9675817"><ele>352.0</ele><time>2026-04-19T10:50:45.914Z</time></trkpt><trkpt lat="44.8313233" lon="7.9674633"><ele>350.0</ele><time>2026-04-19T10:50:46.914Z</time></trkpt><trkpt lat="44.83138" lon="7.9673633"><ele>348.0</ele><time>2026-04-19T10:50:47.914Z</time></trkpt><trkpt lat="44.83145" lon="7.9672667"><ele>347.59999999999997</ele><time>2026-04-19T10:50:48.914Z</time></trkpt><trkpt lat="44.83153" lon="7.9671733"><ele>347.2</ele><time>2026-04-19T10:50:49.914Z</time></trkpt><trkpt lat="44.8315883" lon="7.9670617"><ele>346.8</ele><time>2026-04-19T10:50:50.914Z</time></trkpt><trkpt lat="44.831625" lon="7.9669267"><ele>346.4</ele><time>2026-04-19T10:50:51.914Z</time></trkpt><trkpt lat="44.8316483" lon="7.9667767"><ele>346.0</ele><time>2026-04-19T10:50:52.914Z</time></trkpt><trkpt lat="44.831665" lon="7.9666017"><ele>347.25</ele><time>2026-04-19T10:50:53.915Z</time></trkpt><trkpt lat="44.8316733" lon="7.9663983"><ele>348.5</ele><time>2026-04-19T10:50:54.914Z</time></trkpt><trkpt lat="44.831675" lon="7.9661983"><ele>349.75</ele><time>2026-04-19T10:50:55.914Z</time></trkpt><trkpt lat="44.8316767" lon="7.9660017"><ele>351.0</ele><time>2026-04-19T10:50:56.914Z</time></trkpt><trkpt lat="44.8316767" lon="7.9657933"><ele>351.75</ele><time>2026-04-19T10:50:57.915Z</time></trkpt><trkpt lat="44.8316717" lon="7.9656017"><ele>352.5</ele><time>2026-04-19T10:50:58.914Z</time></trkpt><trkpt lat="44.8316583" lon="7.9654217"><ele>353.25</ele><time>2026-04-19T10:50:59.915Z</time></trkpt><trkpt lat="44.8316383" lon="7.9652483"><ele>354.0</ele><time>2026-04-19T10:51:00.914Z</time></trkpt><trkpt lat="44.8316017" lon="7.965075"><ele>354.0</ele><time>2026-04-19T10:51:01.915Z</time></trkpt><trkpt lat="44.8315533" lon="7.9649167"><ele>354.0</ele><time>2026-04-19T10:51:02.914Z</time></trkpt><trkpt lat="44.8315167" lon="7.9647833"><ele>354.0</ele><time>2026-04-19T10:51:03.914Z</time></trkpt><trkpt lat="44.8315033" lon="7.96464"><ele>354.0</ele><time>2026-04-19T10:51:04.915Z</time></trkpt><trkpt lat="44.83151" lon="7.9644967"><ele>354.0</ele><time>2026-04-19T10:51:05.914Z</time></trkpt><trkpt lat="44.8315383" lon="7.9643467"><ele>354.0</ele><time>2026-04-19T10:51:06.914Z</time></trkpt><trkpt lat="44.8315767" lon="7.964205"><ele>354.0</ele><time>2026-04-19T10:51:07.914Z</time></trkpt><trkpt lat="44.8316017" lon="7.9640633"><ele>354.0</ele><time>2026-04-19T10:51:08.915Z</time></trkpt><trkpt lat="44.8316267" lon="7.963935"><ele>354.0</ele><time>2026-04-19T10:51:09.915Z</time></trkpt><trkpt lat="44.8316717" lon="7.9638133"><ele>354.0</ele><time>2026-04-19T10:51:10.914Z</time></trkpt><trkpt lat="44.831745" lon="7.9636783"><ele>352.0</ele><time>2026-04-19T10:51:11.914Z</time></trkpt><trkpt lat="44.8318233" lon="7.96351"><ele>350.0</ele><time>2026-04-19T10:51:12.914Z</time></trkpt><trkpt lat="44.83189" lon="7.963325"><ele>348.0</ele><time>2026-04-19T10:51:13.914Z</time></trkpt><trkpt lat="44.8319433" lon="7.9631383"><ele>346.0</ele><time>2026-04-19T10:51:14.915Z</time></trkpt><trkpt lat="44.83198" lon="7.9629383"><ele>346.0</ele><time>2026-04-19T10:51:15.914Z</time></trkpt><trkpt lat="44.8320117" lon="7.96275"><ele>346.0</ele><time>2026-04-19T10:51:16.914Z</time></trkpt><trkpt lat="44.8320483" lon="7.9625733"><ele>346.0</ele><time>2026-04-19T10:51:17.915Z</time></trkpt><trkpt lat="44.8320717" lon="7.9624017"><ele>346.0</ele><time>2026-04-19T10:51:18.914Z</time></trkpt><trkpt lat="44.832095" lon="7.96224"><ele>346.0</ele><time>2026-04-19T10:51:19.914Z</time></trkpt><trkpt lat="44.83212" lon="7.96208"><ele>346.0</ele><time>2026-04-19T10:51:20.914Z</time></trkpt><trkpt lat="44.8321467" lon="7.9619167"><ele>346.0</ele><time>2026-04-19T10:51:21.915Z</time></trkpt><trkpt lat="44.832175" lon="7.9617633"><ele>346.0</ele><time>2026-04-19T10:51:22.915Z</time></trkpt><trkpt lat="44.8322017" lon="7.9616133"><ele>346.0</ele><time>2026-04-19T10:51:23.915Z</time></trkpt><trkpt lat="44.832225" lon="7.9614667"><ele>346.0</ele><time>2026-04-19T10:51:24.915Z</time></trkpt><trkpt lat="44.8322467" lon="7.9613217"><ele>346.0</ele><time>2026-04-19T10:51:25.914Z</time></trkpt><trkpt lat="44.8322683" lon="7.9611867"><ele>346.0</ele><time>2026-04-19T10:51:26.915Z</time></trkpt><trkpt lat="44.832295" lon="7.96106"><ele>346.0</ele><time>2026-04-19T10:51:27.915Z</time></trkpt><trkpt lat="44.8323283" lon="7.9609283"><ele>346.0</ele><time>2026-04-19T10:51:28.915Z</time></trkpt><trkpt lat="44.832365" lon="7.9608033"><ele>346.0</ele><time>2026-04-19T10:51:29.914Z</time></trkpt><trkpt lat="44.8324217" lon="7.9606883"><ele>346.0</ele><time>2026-04-19T10:51:30.914Z</time></trkpt><trkpt lat="44.83248" lon="7.9605917"><ele>346.0</ele><time>2026-04-19T10:51:31.914Z</time></trkpt><trkpt lat="44.8325267" lon="7.960495"><ele>346.0</ele><time>2026-04-19T10:51:32.915Z</time></trkpt><trkpt lat="44.8325783" lon="7.960405"><ele>344.16666666666663</ele><time>2026-04-19T10:51:33.914Z</time></trkpt><trkpt lat="44.8326467" lon="7.9603333"><ele>342.3333333333333</ele><time>2026-04-19T10:51:34.915Z</time></trkpt><trkpt lat="44.832725" lon="7.96027"><ele>340.5</ele><time>2026-04-19T10:51:35.914Z</time></trkpt><trkpt lat="44.8328067" lon="7.960215"><ele>338.6666666666667</ele><time>2026-04-19T10:51:36.914Z</time></trkpt><trkpt lat="44.8328867" lon="7.9601633"><ele>336.83333333333337</ele><time>2026-04-19T10:51:37.914Z</time></trkpt><trkpt lat="44.8329583" lon="7.9601333"><ele>335.0</ele><time>2026-04-19T10:51:38.914Z</time></trkpt><trkpt lat="44.8330217" lon="7.9601067"><ele>335.0</ele><time>2026-04-19T10:51:39.914Z</time></trkpt><trkpt lat="44.8330867" lon="7.9600883"><ele>335.0</ele><time>2026-04-19T10:51:40.915Z</time></trkpt><trkpt lat="44.8332" lon="7.9600017"><ele>335.0</ele><time>2026-04-19T10:51:42.914Z</time></trkpt><trkpt lat="44.833255" lon="7.9599167"><ele>335.0</ele><time>2026-04-19T10:51:43.915Z</time></trkpt><trkpt lat="44.8333133" lon="7.9597883"><ele>335.0</ele><time>2026-04-19T10:51:44.914Z</time></trkpt><trkpt lat="44.83338" lon="7.959635"><ele>337.75</ele><time>2026-04-19T10:51:45.914Z</time></trkpt><trkpt lat="44.8334517" lon="7.959465"><ele>340.5</ele><time>2026-04-19T10:51:46.914Z</time></trkpt><trkpt lat="44.8335333" lon="7.9592933"><ele>343.25</ele><time>2026-04-19T10:51:47.914Z</time></trkpt><trkpt lat="44.8336067" lon="7.9591117"><ele>346.0</ele><time>2026-04-19T10:51:48.915Z</time></trkpt><trkpt lat="44.833685" lon="7.95893"><ele>346.3333333333333</ele><time>2026-04-19T10:51:49.914Z</time></trkpt><trkpt lat="44.83377" lon="7.9587433"><ele>346.6666666666667</ele><time>2026-04-19T10:51:50.914Z</time></trkpt><trkpt lat="44.8338683" lon="7.95855"><ele>347.0</ele><time>2026-04-19T10:51:51.914Z</time></trkpt><trkpt lat="44.8339783" lon="7.9583783"><ele>348.0</ele><time>2026-04-19T10:51:52.914Z</time></trkpt><trkpt lat="44.8340833" lon="7.9582083"><ele>349.0</ele><time>2026-04-19T10:51:53.915Z</time></trkpt><trkpt lat="44.8341817" lon="7.9580317"><ele>350.0</ele><time>2026-04-19T10:51:54.914Z</time></trkpt><trkpt lat="44.83427" lon="7.9578483"><ele>347.75</ele><time>2026-04-19T10:51:55.915Z</time></trkpt><trkpt lat="44.8343433" lon="7.95766"><ele>345.5</ele><time>2026-04-19T10:51:56.915Z</time></trkpt><trkpt lat="44.8344117" lon="7.9574783"><ele>343.25</ele><time>2026-04-19T10:51:57.915Z</time></trkpt><trkpt lat="44.83448" lon="7.9572933"><ele>341.0</ele><time>2026-04-19T10:51:58.914Z</time></trkpt><trkpt lat="44.83457" lon="7.95712"><ele>341.0</ele><time>2026-04-19T10:51:59.915Z</time></trkpt><trkpt lat="44.8346833" lon="7.95696"><ele>341.0</ele><time>2026-04-19T10:52:00.914Z</time></trkpt><trkpt lat="44.83482" lon="7.9568233"><ele>341.0</ele><time>2026-04-19T10:52:01.914Z</time></trkpt><trkpt lat="44.8349517" lon="7.9567083"><ele>344.33333333333337</ele><time>2026-04-19T10:52:02.914Z</time></trkpt><trkpt lat="44.8350933" lon="7.9565983"><ele>347.6666666666667</ele><time>2026-04-19T10:52:03.914Z</time></trkpt><trkpt lat="44.8352333" lon="7.9564967"><ele>351.0</ele><time>2026-04-19T10:52:04.914Z</time></trkpt><trkpt lat="44.835375" lon="7.9564183"><ele>351.0</ele><time>2026-04-19T10:52:05.915Z</time></trkpt><trkpt lat="44.8355217" lon="7.9563767"><ele>351.0</ele><time>2026-04-19T10:52:06.914Z</time></trkpt><trkpt lat="44.8356783" lon="7.9563583"><ele>351.0</ele><time>2026-04-19T10:52:07.915Z</time></trkpt><trkpt lat="44.8358417" lon="7.9563433"><ele>352.0</ele><time>2026-04-19T10:52:08.915Z</time></trkpt><trkpt lat="44.8359983" lon="7.956325"><ele>353.0</ele><time>2026-04-19T10:52:09.914Z</time></trkpt><trkpt lat="44.836145" lon="7.956315"><ele>354.0</ele><time>2026-04-19T10:52:10.915Z</time></trkpt><trkpt lat="44.83628" lon="7.9563"><ele>355.0</ele><time>2026-04-19T10:52:11.915Z</time></trkpt><trkpt lat="44.8363933" lon="7.9562867"><ele>355.0</ele><time>2026-04-19T10:52:12.915Z</time></trkpt><trkpt lat="44.8365" lon="7.9562683"><ele>355.0</ele><time>2026-04-19T10:52:13.914Z</time></trkpt><trkpt lat="44.8366" lon="7.9562567"><ele>355.0</ele><time>2026-04-19T10:52:14.914Z</time></trkpt><trkpt lat="44.8367133" lon="7.956245"><ele>355.0</ele><time>2026-04-19T10:52:15.914Z</time></trkpt><trkpt lat="44.8368467" lon="7.95624"><ele>356.75</ele><time>2026-04-19T10:52:16.914Z</time></trkpt><trkpt lat="44.8369867" lon="7.956245"><ele>358.5</ele><time>2026-04-19T10:52:17.915Z</time></trkpt><trkpt lat="44.8371367" lon="7.9562483"><ele>360.25</ele><time>2026-04-19T10:52:18.915Z</time></trkpt><trkpt lat="44.8372767" lon="7.9562483"><ele>362.0</ele><time>2026-04-19T10:52:19.914Z</time></trkpt><trkpt lat="44.8374083" lon="7.9562567"><ele>362.0</ele><time>2026-04-19T10:52:20.914Z</time></trkpt><trkpt lat="44.8375383" lon="7.9562617"><ele>362.0</ele><time>2026-04-19T10:52:21.914Z</time></trkpt><trkpt lat="44.83766" lon="7.956265"><ele>362.0</ele><time>2026-04-19T10:52:22.914Z</time></trkpt><trkpt lat="44.8377867" lon="7.95623"><ele>362.0</ele><time>2026-04-19T10:52:23.915Z</time></trkpt><trkpt lat="44.8379017" lon="7.9561633"><ele>361.5</ele><time>2026-04-19T10:52:24.914Z</time></trkpt><trkpt lat="44.8380133" lon="7.9560583"><ele>361.0</ele><time>2026-04-19T10:52:25.914Z</time></trkpt><trkpt lat="44.8381233" lon="7.9559117"><ele>360.5</ele><time>2026-04-19T10:52:26.915Z</time></trkpt><trkpt lat="44.83824" lon="7.955755"><ele>360.0</ele><time>2026-04-19T10:52:27.914Z</time></trkpt><trkpt lat="44.838355" lon="7.9556017"><ele>360.75</ele><time>2026-04-19T10:52:28.914Z</time></trkpt><trkpt lat="44.838465" lon="7.9554483"><ele>361.5</ele><time>2026-04-19T10:52:29.915Z</time></trkpt><trkpt lat="44.8385683" lon="7.95531"><ele>362.25</ele><time>2026-04-19T10:52:30.914Z</time></trkpt><trkpt lat="44.8386733" lon="7.9551633"><ele>363.0</ele><time>2026-04-19T10:52:31.914Z</time></trkpt><trkpt lat="44.838785" lon="7.9550083"><ele>364.0</ele><time>2026-04-19T10:52:32.914Z</time></trkpt><trkpt lat="44.838895" lon="7.9548583"><ele>365.0</ele><time>2026-04-19T10:52:33.915Z</time></trkpt><trkpt lat="44.839" lon="7.95472"><ele>366.0</ele><time>2026-04-19T10:52:34.915Z</time></trkpt><trkpt lat="44.8391083" lon="7.954585"><ele>367.0</ele><time>2026-04-19T10:52:35.914Z</time></trkpt><trkpt lat="44.8392133" lon="7.954455"><ele>366.75</ele><time>2026-04-19T10:52:36.914Z</time></trkpt><trkpt lat="44.8393183" lon="7.9543283"><ele>366.5</ele><time>2026-04-19T10:52:37.914Z</time></trkpt><trkpt lat="44.839425" lon="7.9542117"><ele>366.25</ele><time>2026-04-19T10:52:38.915Z</time></trkpt><trkpt lat="44.8395217" lon="7.95411"><ele>366.0</ele><time>2026-04-19T10:52:39.914Z</time></trkpt><trkpt lat="44.83961" lon="7.9540217"><ele>366.0</ele><time>2026-04-19T10:52:40.914Z</time></trkpt><trkpt lat="44.8396983" lon="7.9539417"><ele>366.0</ele><time>2026-04-19T10:52:41.915Z</time></trkpt><trkpt lat="44.8397783" lon="7.9538567"><ele>366.0</ele><time>2026-04-19T10:52:42.914Z</time></trkpt><trkpt lat="44.839835" lon="7.9537867"><ele>366.0</ele><time>2026-04-19T10:52:43.914Z</time></trkpt><trkpt lat="44.8398967" lon="7.9537217"><ele>366.0</ele><time>2026-04-19T10:52:44.915Z</time></trkpt><trkpt lat="44.83993" lon="7.9536433"><ele>366.0</ele><time>2026-04-19T10:52:45.915Z</time></trkpt><trkpt lat="44.8399433" lon="7.9535533"><ele>366.0</ele><time>2026-04-19T10:52:46.915Z</time></trkpt><trkpt lat="44.8398983" lon="7.9534433"><ele>366.0</ele><time>2026-04-19T10:52:47.915Z</time></trkpt><trkpt lat="44.8398233" lon="7.9533233"><ele>366.0</ele><time>2026-04-19T10:52:48.915Z</time></trkpt><trkpt lat="44.8397417" lon="7.9531883"><ele>366.0</ele><time>2026-04-19T10:52:49.914Z</time></trkpt><trkpt lat="44.83967" lon="7.953045"><ele>365.75</ele><time>2026-04-19T10:52:50.914Z</time></trkpt><trkpt lat="44.8396117" lon="7.9528933"><ele>365.5</ele><time>2026-04-19T10:52:51.914Z</time></trkpt><trkpt lat="44.8395667" lon="7.95273"><ele>365.25</ele><time>2026-04-19T10:52:52.914Z</time></trkpt><trkpt lat="44.8395333" lon="7.9525467"><ele>365.0</ele><time>2026-04-19T10:52:53.914Z</time></trkpt><trkpt lat="44.839515" lon="7.9523517"><ele>364.5</ele><time>2026-04-19T10:52:54.914Z</time></trkpt><trkpt lat="44.8395083" lon="7.9521667"><ele>364.0</ele><time>2026-04-19T10:52:55.915Z</time></trkpt><trkpt lat="44.8394967" lon="7.951995"><ele>363.5</ele><time>2026-04-19T10:52:56.914Z</time></trkpt><trkpt lat="44.8394567" lon="7.951835"><ele>363.0</ele><time>2026-04-19T10:52:57.915Z</time></trkpt><trkpt lat="44.8393683" lon="7.951705"><ele>362.25</ele><time>2026-04-19T10:52:58.915Z</time></trkpt><trkpt lat="44.83926" lon="7.9515717"><ele>361.5</ele><time>2026-04-19T10:52:59.914Z</time></trkpt><trkpt lat="44.8391583" lon="7.9514383"><ele>360.75</ele><time>2026-04-19T10:53:00.915Z</time></trkpt><trkpt lat="44.83907" lon="7.9513"><ele>360.0</ele><time>2026-04-19T10:53:01.914Z</time></trkpt><trkpt lat="44.83901" lon="7.9511417"><ele>360.0</ele><time>2026-04-19T10:53:02.914Z</time></trkpt><trkpt lat="44.8389867" lon="7.9509583"><ele>360.0</ele><time>2026-04-19T10:53:03.914Z</time></trkpt><trkpt lat="44.83897" lon="7.9507467"><ele>360.0</ele><time>2026-04-19T10:53:04.914Z</time></trkpt><trkpt lat="44.8389617" lon="7.9505367"><ele>360.0</ele><time>2026-04-19T10:53:05.914Z</time></trkpt><trkpt lat="44.8389383" lon="7.95034"><ele>360.3333333333333</ele><time>2026-04-19T10:53:06.915Z</time></trkpt><trkpt lat="44.8388817" lon="7.9501517"><ele>360.66666666666663</ele><time>2026-04-19T10:53:07.914Z</time></trkpt><trkpt lat="44.838815" lon="7.9499583"><ele>361.0</ele><time>2026-04-19T10:53:08.914Z</time></trkpt><trkpt lat="44.8387417" lon="7.9497617"><ele>361.0</ele><time>2026-04-19T10:53:09.915Z</time></trkpt><trkpt lat="44.8386617" lon="7.9495723"><ele>361.0</ele><time>2026-04-19T10:53:10.915Z</time></trkpt><trkpt lat="44.8385755" lon="7.9493974"><ele>361.0</ele><time>2026-04-19T10:53:11.915Z</time></trkpt><trkpt lat="44.8384903" lon="7.9492232"><ele>360.3333333333333</ele><time>2026-04-19T10:53:12.914Z</time></trkpt><trkpt lat="44.8384071" lon="7.9490389"><ele>359.6666666666667</ele><time>2026-04-19T10:53:13.914Z</time></trkpt><trkpt lat="44.8383311" lon="7.9488519"><ele>359.0</ele><time>2026-04-19T10:53:14.914Z</time></trkpt><trkpt lat="44.8382643" lon="7.948663"><ele>359.0</ele><time>2026-04-19T10:53:15.914Z</time></trkpt><trkpt lat="44.838203" lon="7.9484687"><ele>359.0</ele><time>2026-04-19T10:53:16.914Z</time></trkpt><trkpt lat="44.8381427" lon="7.9482728"><ele>359.0</ele><time>2026-04-19T10:53:17.915Z</time></trkpt><trkpt lat="44.8380834" lon="7.9480723"><ele>358.0</ele><time>2026-04-19T10:53:18.915Z</time></trkpt><trkpt lat="44.8380316" lon="7.947867"><ele>357.0</ele><time>2026-04-19T10:53:19.915Z</time></trkpt><trkpt lat="44.8380022" lon="7.9476563"><ele>356.0</ele><time>2026-04-19T10:53:20.914Z</time></trkpt><trkpt lat="44.8380025" lon="7.9474401"><ele>355.33333333333337</ele><time>2026-04-19T10:53:21.914Z</time></trkpt><trkpt lat="44.8380351" lon="7.9472215"><ele>354.6666666666667</ele><time>2026-04-19T10:53:22.915Z</time></trkpt><trkpt lat="44.8381015" lon="7.9470164"><ele>354.0</ele><time>2026-04-19T10:53:23.914Z</time></trkpt><trkpt lat="44.8381876" lon="7.9468226"><ele>354.6666666666667</ele><time>2026-04-19T10:53:24.915Z</time></trkpt><trkpt lat="44.8382875" lon="7.9466361"><ele>355.33333333333337</ele><time>2026-04-19T10:53:25.914Z</time></trkpt><trkpt lat="44.8383999" lon="7.946467"><ele>356.0</ele><time>2026-04-19T10:53:26.915Z</time></trkpt><trkpt lat="44.8385231" lon="7.9463084"><ele>356.0</ele><time>2026-04-19T10:53:27.914Z</time></trkpt><trkpt lat="44.838645" lon="7.9461637"><ele>356.0</ele><time>2026-04-19T10:53:28.915Z</time></trkpt><trkpt lat="44.8387557" lon="7.9460269"><ele>356.0</ele><time>2026-04-19T10:53:29.914Z</time></trkpt><trkpt lat="44.8388554" lon="7.9458947"><ele>356.0</ele><time>2026-04-19T10:53:30.914Z</time></trkpt><trkpt lat="44.838957" lon="7.9457748"><ele>356.0</ele><time>2026-04-19T10:53:31.915Z</time></trkpt><trkpt lat="44.8390676" lon="7.945674"><ele>356.0</ele><time>2026-04-19T10:53:32.915Z</time></trkpt><trkpt lat="44.8391914" lon="7.9456009"><ele>356.0</ele><time>2026-04-19T10:53:33.915Z</time></trkpt><trkpt lat="44.8393198" lon="7.9455612"><ele>356.0</ele><time>2026-04-19T10:53:34.915Z</time></trkpt><trkpt lat="44.8394426" lon="7.9455293"><ele>355.5</ele><time>2026-04-19T10:53:35.915Z</time></trkpt><trkpt lat="44.8395507" lon="7.9454784"><ele>355.0</ele><time>2026-04-19T10:53:36.915Z</time></trkpt><trkpt lat="44.8396493" lon="7.9453826"><ele>354.5</ele><time>2026-04-19T10:53:37.915Z</time></trkpt><trkpt lat="44.8397431" lon="7.9452526"><ele>354.0</ele><time>2026-04-19T10:53:38.914Z</time></trkpt><trkpt lat="44.8398306" lon="7.9450857"><ele>354.0</ele><time>2026-04-19T10:53:39.915Z</time></trkpt><trkpt lat="44.8399286" lon="7.9448921"><ele>354.0</ele><time>2026-04-19T10:53:40.915Z</time></trkpt><trkpt lat="44.8400383" lon="7.9446824"><ele>354.0</ele><time>2026-04-19T10:53:41.914Z</time></trkpt><trkpt lat="44.8401565" lon="7.9444703"><ele>352.6666666666667</ele><time>2026-04-19T10:53:42.914Z</time></trkpt><trkpt lat="44.8402744" lon="7.9442534"><ele>351.33333333333337</ele><time>2026-04-19T10:53:43.915Z</time></trkpt><trkpt lat="44.8403788" lon="7.944037"><ele>350.0</ele><time>2026-04-19T10:53:44.915Z</time></trkpt><trkpt lat="44.8404597" lon="7.9438488"><ele>349.5</ele><time>2026-04-19T10:53:45.915Z</time></trkpt><trkpt lat="44.8405278" lon="7.9436933"><ele>349.0</ele><time>2026-04-19T10:53:46.915Z</time></trkpt><trkpt lat="44.8406098" lon="7.9435747"><ele>348.5</ele><time>2026-04-19T10:53:47.915Z</time></trkpt><trkpt lat="44.8407222" lon="7.9434768"><ele>348.0</ele><time>2026-04-19T10:53:48.915Z</time></trkpt><trkpt lat="44.8408591" lon="7.9433938"><ele>348.0</ele><time>2026-04-19T10:53:49.915Z</time></trkpt><trkpt lat="44.8410167" lon="7.9433283"><ele>348.0</ele><time>2026-04-19T10:53:50.914Z</time></trkpt><trkpt lat="44.8411583" lon="7.9432683"><ele>348.0</ele><time>2026-04-19T10:53:51.915Z</time></trkpt><trkpt lat="44.8412783" lon="7.9431967"><ele>348.0</ele><time>2026-04-19T10:53:52.914Z</time></trkpt><trkpt lat="44.8413783" lon="7.9430967"><ele>348.0</ele><time>2026-04-19T10:53:53.915Z</time></trkpt><trkpt lat="44.8414517" lon="7.9429617"><ele>348.0</ele><time>2026-04-19T10:53:54.915Z</time></trkpt><trkpt lat="44.841515" lon="7.94279"><ele>348.0</ele><time>2026-04-19T10:53:55.915Z</time></trkpt><trkpt lat="44.8415633" lon="7.9426167"><ele>348.0</ele><time>2026-04-19T10:53:56.915Z</time></trkpt><trkpt lat="44.841625" lon="7.9424567"><ele>348.0</ele><time>2026-04-19T10:53:57.914Z</time></trkpt><trkpt lat="44.84169" lon="7.9423383"><ele>348.0</ele><time>2026-04-19T10:53:58.914Z</time></trkpt><trkpt lat="44.8417817" lon="7.94226"><ele>348.0</ele><time>2026-04-19T10:53:59.915Z</time></trkpt><trkpt lat="44.8419083" lon="7.9421933"><ele>348.0</ele><time>2026-04-19T10:54:00.915Z</time></trkpt><trkpt lat="44.8420483" lon="7.942145"><ele>347.5</ele><time>2026-04-19T10:54:01.914Z</time></trkpt><trkpt lat="44.8421767" lon="7.9420817"><ele>347.0</ele><time>2026-04-19T10:54:02.915Z</time></trkpt><trkpt lat="44.8423" lon="7.9419933"><ele>346.5</ele><time>2026-04-19T10:54:03.915Z</time></trkpt><trkpt lat="44.842425" lon="7.9418667"><ele>346.0</ele><time>2026-04-19T10:54:04.914Z</time></trkpt><trkpt lat="44.84255" lon="7.9417183"><ele>347.3333333333333</ele><time>2026-04-19T10:54:05.914Z</time></trkpt><trkpt lat="44.842675" lon="7.9415683"><ele>348.6666666666667</ele><time>2026-04-19T10:54:06.914Z</time></trkpt><trkpt lat="44.84281" lon="7.9414233"><ele>350.0</ele><time>2026-04-19T10:54:07.915Z</time></trkpt><trkpt lat="44.8429617" lon="7.9413017"><ele>350.0</ele><time>2026-04-19T10:54:08.914Z</time></trkpt><trkpt lat="44.843105" lon="7.941195"><ele>350.0</ele><time>2026-04-19T10:54:09.915Z</time></trkpt><trkpt lat="44.843235" lon="7.94111"><ele>350.0</ele><time>2026-04-19T10:54:10.914Z</time></trkpt><trkpt lat="44.8433417" lon="7.9410283"><ele>350.0</ele><time>2026-04-19T10:54:11.915Z</time></trkpt><trkpt lat="44.84343" lon="7.94092"><ele>349.8</ele><time>2026-04-19T10:54:12.915Z</time></trkpt><trkpt lat="44.8435" lon="7.940805"><ele>349.6</ele><time>2026-04-19T10:54:13.914Z</time></trkpt><trkpt lat="44.8435467" lon="7.9406733"><ele>349.4</ele><time>2026-04-19T10:54:14.914Z</time></trkpt><trkpt lat="44.843555" lon="7.9405433"><ele>349.2</ele><time>2026-04-19T10:54:15.914Z</time></trkpt><trkpt lat="44.84354" lon="7.9404333"><ele>349.0</ele><time>2026-04-19T10:54:16.915Z</time></trkpt><trkpt lat="44.8434967" lon="7.94033"><ele>348.75</ele><time>2026-04-19T10:54:17.914Z</time></trkpt><trkpt lat="44.8434167" lon="7.9402217"><ele>348.5</ele><time>2026-04-19T10:54:18.915Z</time></trkpt><trkpt lat="44.84333" lon="7.9401083"><ele>348.25</ele><time>2026-04-19T10:54:19.914Z</time></trkpt><trkpt lat="44.8432683" lon="7.9399817"><ele>348.0</ele><time>2026-04-19T10:54:20.914Z</time></trkpt><trkpt lat="44.843235" lon="7.9398167"><ele>347.75</ele><time>2026-04-19T10:54:21.915Z</time></trkpt><trkpt lat="44.843215" lon="7.93962"><ele>347.5</ele><time>2026-04-19T10:54:22.914Z</time></trkpt><trkpt lat="44.8432017" lon="7.9394167"><ele>347.25</ele><time>2026-04-19T10:54:23.915Z</time></trkpt><trkpt lat="44.843185" lon="7.93921"><ele>347.0</ele><time>2026-04-19T10:54:24.915Z</time></trkpt><trkpt lat="44.8431433" lon="7.938995"><ele>347.0</ele><time>2026-04-19T10:54:25.915Z</time></trkpt><trkpt lat="44.843075" lon="7.9387733"><ele>347.0</ele><time>2026-04-19T10:54:26.914Z</time></trkpt><trkpt lat="44.8430017" lon="7.9385583"><ele>347.0</ele><time>2026-04-19T10:54:27.914Z</time></trkpt><trkpt lat="44.8429417" lon="7.9383467"><ele>347.75</ele><time>2026-04-19T10:54:28.914Z</time></trkpt><trkpt lat="44.84289" lon="7.9381517"><ele>348.5</ele><time>2026-04-19T10:54:29.914Z</time></trkpt><trkpt lat="44.8428533" lon="7.9379567"><ele>349.25</ele><time>2026-04-19T10:54:30.914Z</time></trkpt><trkpt lat="44.84283" lon="7.9377767"><ele>350.0</ele><time>2026-04-19T10:54:31.914Z</time></trkpt><trkpt lat="44.8428233" lon="7.9375867"><ele>348.6666666666667</ele><time>2026-04-19T10:54:32.915Z</time></trkpt><trkpt lat="44.84284" lon="7.93738"><ele>347.3333333333333</ele><time>2026-04-19T10:54:33.914Z</time></trkpt><trkpt lat="44.8428667" lon="7.937165"><ele>346.0</ele><time>2026-04-19T10:54:34.915Z</time></trkpt><trkpt lat="44.84288" lon="7.9369367"><ele>346.3333333333333</ele><time>2026-04-19T10:54:35.914Z</time></trkpt><trkpt lat="44.842875" lon="7.9366883"><ele>346.6666666666667</ele><time>2026-04-19T10:54:36.914Z</time></trkpt><trkpt lat="44.8428783" lon="7.9364517"><ele>347.0</ele><time>2026-04-19T10:54:37.914Z</time></trkpt><trkpt lat="44.8428667" lon="7.93624"><ele>347.0</ele><time>2026-04-19T10:54:38.914Z</time></trkpt><trkpt lat="44.84286" lon="7.93601"><ele>347.0</ele><time>2026-04-19T10:54:39.915Z</time></trkpt><trkpt lat="44.842855" lon="7.93575"><ele>347.0</ele><time>2026-04-19T10:54:40.914Z</time></trkpt><trkpt lat="44.8428483" lon="7.93549"><ele>346.75</ele><time>2026-04-19T10:54:41.915Z</time></trkpt><trkpt lat="44.8428467" lon="7.935265"><ele>346.5</ele><time>2026-04-19T10:54:42.914Z</time></trkpt><trkpt lat="44.842835" lon="7.9350683"><ele>346.25</ele><time>2026-04-19T10:54:43.914Z</time></trkpt><trkpt lat="44.8427983" lon="7.9348883"><ele>346.0</ele><time>2026-04-19T10:54:44.915Z</time></trkpt><trkpt lat="44.8427367" lon="7.934725"><ele>346.0</ele><time>2026-04-19T10:54:45.915Z</time></trkpt><trkpt lat="44.8426517" lon="7.9345867"><ele>346.0</ele><time>2026-04-19T10:54:46.914Z</time></trkpt><trkpt lat="44.8425817" lon="7.934465"><ele>346.0</ele><time>2026-04-19T10:54:47.915Z</time></trkpt><trkpt lat="44.8425433" lon="7.9343383"><ele>346.0</ele><time>2026-04-19T10:54:48.915Z</time></trkpt><trkpt lat="44.8425217" lon="7.9342"><ele>346.0</ele><time>2026-04-19T10:54:49.914Z</time></trkpt><trkpt lat="44.8425333" lon="7.9340417"><ele>346.25</ele><time>2026-04-19T10:54:50.915Z</time></trkpt><trkpt lat="44.8425633" lon="7.9338833"><ele>346.5</ele><time>2026-04-19T10:54:51.915Z</time></trkpt><trkpt lat="44.8426233" lon="7.9337267"><ele>346.75</ele><time>2026-04-19T10:54:52.914Z</time></trkpt><trkpt lat="44.842705" lon="7.9335667"><ele>347.0</ele><time>2026-04-19T10:54:53.915Z</time></trkpt><trkpt lat="44.84281" lon="7.9334033"><ele>346.33333333333337</ele><time>2026-04-19T10:54:54.915Z</time></trkpt><trkpt lat="44.8429333" lon="7.9332283"><ele>345.6666666666667</ele><time>2026-04-19T10:54:55.915Z</time></trkpt><trkpt lat="44.8430683" lon="7.9330467"><ele>345.0</ele><time>2026-04-19T10:54:56.914Z</time></trkpt><trkpt lat="44.8432183" lon="7.9328667"><ele>345.0</ele><time>2026-04-19T10:54:57.914Z</time></trkpt><trkpt lat="44.84336" lon="7.93268"><ele>345.0</ele><time>2026-04-19T10:54:58.914Z</time></trkpt><trkpt lat="44.8435067" lon="7.9325017"><ele>345.0</ele><time>2026-04-19T10:54:59.915Z</time></trkpt><trkpt lat="44.84365" lon="7.9323317"><ele>343.6666666666667</ele><time>2026-04-19T10:55:00.915Z</time></trkpt><trkpt lat="44.84379" lon="7.9321483"><ele>342.33333333333337</ele><time>2026-04-19T10:55:01.914Z</time></trkpt><trkpt lat="44.8439367" lon="7.9319767"><ele>341.0</ele><time>2026-04-19T10:55:02.914Z</time></trkpt><trkpt lat="44.8440833" lon="7.93181"><ele>341.6666666666667</ele><time>2026-04-19T10:55:03.915Z</time></trkpt><trkpt lat="44.8442283" lon="7.9316433"><ele>342.3333333333333</ele><time>2026-04-19T10:55:04.914Z</time></trkpt><trkpt lat="44.8443683" lon="7.931475"><ele>343.0</ele><time>2026-04-19T10:55:05.914Z</time></trkpt><trkpt lat="44.844505" lon="7.931315"><ele>342.5</ele><time>2026-04-19T10:55:06.914Z</time></trkpt><trkpt lat="44.8446383" lon="7.93116"><ele>342.0</ele><time>2026-04-19T10:55:07.915Z</time></trkpt><trkpt lat="44.84475" lon="7.93103"><ele>341.5</ele><time>2026-04-19T10:55:08.915Z</time></trkpt><trkpt lat="44.84485" lon="7.9309183"><ele>341.0</ele><time>2026-04-19T10:55:09.914Z</time></trkpt><trkpt lat="44.8449367" lon="7.9308167"><ele>341.0</ele><time>2026-04-19T10:55:10.914Z</time></trkpt><trkpt lat="44.8449983" lon="7.93072"><ele>341.0</ele><time>2026-04-19T10:55:11.914Z</time></trkpt><trkpt lat="44.84504" lon="7.9306217"><ele>341.0</ele><time>2026-04-19T10:55:12.914Z</time></trkpt><trkpt lat="44.8450533" lon="7.9304867"><ele>341.0</ele><time>2026-04-19T10:55:13.914Z</time></trkpt><trkpt lat="44.8450133" lon="7.93033"><ele>341.0</ele><time>2026-04-19T10:55:14.915Z</time></trkpt><trkpt lat="44.844955" lon="7.9301633"><ele>340.5</ele><time>2026-04-19T10:55:15.915Z</time></trkpt><trkpt lat="44.8448867" lon="7.929995"><ele>340.0</ele><time>2026-04-19T10:55:16.914Z</time></trkpt><trkpt lat="44.8448233" lon="7.9298283"><ele>339.5</ele><time>2026-04-19T10:55:17.915Z</time></trkpt><trkpt lat="44.84476" lon="7.929695"><ele>339.0</ele><time>2026-04-19T10:55:18.914Z</time></trkpt><trkpt lat="44.8447167" lon="7.9295817"><ele>339.0</ele><time>2026-04-19T10:55:19.915Z</time></trkpt><trkpt lat="44.84468" lon="7.9294817"><ele>339.0</ele><time>2026-04-19T10:55:20.914Z</time></trkpt><trkpt lat="44.8446467" lon="7.9294017"><ele>339.0</ele><time>2026-04-19T10:55:21.914Z</time></trkpt><trkpt lat="44.844595" lon="7.9292767"><ele>339.0</ele><time>2026-04-19T10:55:23.914Z</time></trkpt><trkpt lat="44.8445633" lon="7.929185"><ele>339.0</ele><time>2026-04-19T10:55:25.915Z</time></trkpt><trkpt lat="44.8445267" lon="7.9290833"><ele>339.0</ele><time>2026-04-19T10:55:27.914Z</time></trkpt><trkpt lat="44.8444633" lon="7.9289367"><ele>338.4</ele><time>2026-04-19T10:55:29.914Z</time></trkpt><trkpt lat="44.8444302" lon="7.928845"><ele>337.79999999999995</ele><time>2026-04-19T10:55:30.915Z</time></trkpt><trkpt lat="44.8443824" lon="7.9287395"><ele>337.20000000000005</ele><time>2026-04-19T10:55:31.914Z</time></trkpt><trkpt lat="44.8443051" lon="7.9286128"><ele>336.6</ele><time>2026-04-19T10:55:32.914Z</time></trkpt><trkpt lat="44.8441887" lon="7.9284616"><ele>336.0</ele><time>2026-04-19T10:55:33.915Z</time></trkpt><trkpt lat="44.8440685" lon="7.9282929"><ele>335.0</ele><time>2026-04-19T10:55:34.915Z</time></trkpt><trkpt lat="44.8439523" lon="7.9281143"><ele>334.0</ele><time>2026-04-19T10:55:35.915Z</time></trkpt><trkpt lat="44.843841" lon="7.9279529"><ele>333.0</ele><time>2026-04-19T10:55:36.914Z</time></trkpt><trkpt lat="44.8437286" lon="7.9278031"><ele>333.0</ele><time>2026-04-19T10:55:37.914Z</time></trkpt><trkpt lat="44.8436228" lon="7.9276766"><ele>333.0</ele><time>2026-04-19T10:55:38.914Z</time></trkpt><trkpt lat="44.8435396" lon="7.9275436"><ele>333.0</ele><time>2026-04-19T10:55:39.915Z</time></trkpt><trkpt lat="44.8434876" lon="7.9273997"><ele>333.0</ele><time>2026-04-19T10:55:40.914Z</time></trkpt><trkpt lat="44.8434623" lon="7.9272309"><ele>332.25</ele><time>2026-04-19T10:55:41.914Z</time></trkpt><trkpt lat="44.8434586" lon="7.927026"><ele>331.5</ele><time>2026-04-19T10:55:42.914Z</time></trkpt><trkpt lat="44.8434715" lon="7.9268072"><ele>330.75</ele><time>2026-04-19T10:55:43.914Z</time></trkpt><trkpt lat="44.8434839" lon="7.9266056"><ele>330.0</ele><time>2026-04-19T10:55:44.915Z</time></trkpt><trkpt lat="44.843484" lon="7.9264136"><ele>329.5</ele><time>2026-04-19T10:55:45.915Z</time></trkpt><trkpt lat="44.843463" lon="7.9262186"><ele>329.0</ele><time>2026-04-19T10:55:46.914Z</time></trkpt><trkpt lat="44.8434202" lon="7.9260193"><ele>328.5</ele><time>2026-04-19T10:55:47.914Z</time></trkpt><trkpt lat="44.8433565" lon="7.9258295"><ele>328.0</ele><time>2026-04-19T10:55:48.915Z</time></trkpt><trkpt lat="44.8432744" lon="7.9256644"><ele>326.25</ele><time>2026-04-19T10:55:49.914Z</time></trkpt><trkpt lat="44.8431681" lon="7.9255271"><ele>324.5</ele><time>2026-04-19T10:55:50.915Z</time></trkpt><trkpt lat="44.8430456" lon="7.9254044"><ele>322.75</ele><time>2026-04-19T10:55:51.915Z</time></trkpt><trkpt lat="44.8429301" lon="7.9252929"><ele>321.0</ele><time>2026-04-19T10:55:52.915Z</time></trkpt><trkpt lat="44.8428328" lon="7.9251772"><ele>320.6</ele><time>2026-04-19T10:55:53.915Z</time></trkpt><trkpt lat="44.8427641" lon="7.9250528"><ele>320.20000000000005</ele><time>2026-04-19T10:55:54.915Z</time></trkpt><trkpt lat="44.8427243" lon="7.9249253"><ele>319.79999999999995</ele><time>2026-04-19T10:55:55.915Z</time></trkpt><trkpt lat="44.8427013" lon="7.9247948"><ele>319.4</ele><time>2026-04-19T10:55:56.914Z</time></trkpt><trkpt lat="44.8426985" lon="7.9246657"><ele>319.0</ele><time>2026-04-19T10:55:57.914Z</time></trkpt><trkpt lat="44.8427302" lon="7.9245321"><ele>319.0</ele><time>2026-04-19T10:55:58.915Z</time></trkpt><trkpt lat="44.8427951" lon="7.9243909"><ele>319.0</ele><time>2026-04-19T10:55:59.915Z</time></trkpt><trkpt lat="44.8428816" lon="7.9242272"><ele>319.0</ele><time>2026-04-19T10:56:00.914Z</time></trkpt><trkpt lat="44.84296" lon="7.9240444"><ele>319.0</ele><time>2026-04-19T10:56:01.915Z</time></trkpt><trkpt lat="44.8430291" lon="7.92385"><ele>319.3333333333333</ele><time>2026-04-19T10:56:02.914Z</time></trkpt><trkpt lat="44.843076" lon="7.9236502"><ele>319.6666666666667</ele><time>2026-04-19T10:56:03.915Z</time></trkpt><trkpt lat="44.8431014" lon="7.9234363"><ele>320.0</ele><time>2026-04-19T10:56:04.915Z</time></trkpt><trkpt lat="44.8431091" lon="7.923207"><ele>320.6666666666667</ele><time>2026-04-19T10:56:05.915Z</time></trkpt><trkpt lat="44.8431037" lon="7.9229854"><ele>321.3333333333333</ele><time>2026-04-19T10:56:06.915Z</time></trkpt><trkpt lat="44.8430952" lon="7.9227712"><ele>322.0</ele><time>2026-04-19T10:56:07.914Z</time></trkpt><trkpt lat="44.8430879" lon="7.9225653"><ele>322.75</ele><time>2026-04-19T10:56:08.915Z</time></trkpt><trkpt lat="44.8431033" lon="7.9223702"><ele>323.5</ele><time>2026-04-19T10:56:09.915Z</time></trkpt><trkpt lat="44.8431429" lon="7.9221839"><ele>324.25</ele><time>2026-04-19T10:56:10.915Z</time></trkpt><trkpt lat="44.8432077" lon="7.9220138"><ele>325.0</ele><time>2026-04-19T10:56:11.914Z</time></trkpt><trkpt lat="44.8433089" lon="7.9218692"><ele>325.0</ele><time>2026-04-19T10:56:12.915Z</time></trkpt><trkpt lat="44.8434295" lon="7.9217267"><ele>325.0</ele><time>2026-04-19T10:56:13.914Z</time></trkpt><trkpt lat="44.8435584" lon="7.9215808"><ele>325.0</ele><time>2026-04-19T10:56:14.915Z</time></trkpt><trkpt lat="44.8436927" lon="7.9214353"><ele>325.3333333333333</ele><time>2026-04-19T10:56:15.914Z</time></trkpt><trkpt lat="44.8438341" lon="7.9212808"><ele>325.6666666666667</ele><time>2026-04-19T10:56:16.914Z</time></trkpt><trkpt lat="44.843974" lon="7.9211205"><ele>326.0</ele><time>2026-04-19T10:56:17.915Z</time></trkpt><trkpt lat="44.844115" lon="7.9209617"><ele>325.0</ele><time>2026-04-19T10:56:18.915Z</time></trkpt><trkpt lat="44.84424" lon="7.92081"><ele>324.0</ele><time>2026-04-19T10:56:19.914Z</time></trkpt><trkpt lat="44.8443617" lon="7.92068"><ele>323.0</ele><time>2026-04-19T10:56:20.914Z</time></trkpt><trkpt lat="44.8444783" lon="7.9205467"><ele>322.75</ele><time>2026-04-19T10:56:21.914Z</time></trkpt><trkpt lat="44.8445917" lon="7.920415"><ele>322.5</ele><time>2026-04-19T10:56:22.915Z</time></trkpt><trkpt lat="44.844695" lon="7.9202883"><ele>322.25</ele><time>2026-04-19T10:56:23.915Z</time></trkpt><trkpt lat="44.8448017" lon="7.9201683"><ele>322.0</ele><time>2026-04-19T10:56:24.915Z</time></trkpt><trkpt lat="44.8449117" lon="7.920045"><ele>322.0</ele><time>2026-04-19T10:56:25.914Z</time></trkpt><trkpt lat="44.845035" lon="7.919905"><ele>322.0</ele><time>2026-04-19T10:56:26.915Z</time></trkpt><trkpt lat="44.84516" lon="7.9197683"><ele>322.0</ele><time>2026-04-19T10:56:27.914Z</time></trkpt><trkpt lat="44.8452867" lon="7.919625"><ele>322.3333333333333</ele><time>2026-04-19T10:56:28.915Z</time></trkpt><trkpt lat="44.8454083" lon="7.9194883"><ele>322.6666666666667</ele><time>2026-04-19T10:56:29.914Z</time></trkpt><trkpt lat="44.8455267" lon="7.9193517"><ele>323.0</ele><time>2026-04-19T10:56:30.914Z</time></trkpt><trkpt lat="44.845635" lon="7.9192"><ele>323.0</ele><time>2026-04-19T10:56:31.914Z</time></trkpt><trkpt lat="44.8457483" lon="7.9190417"><ele>323.0</ele><time>2026-04-19T10:56:32.915Z</time></trkpt><trkpt lat="44.8458433" lon="7.9188567"><ele>323.0</ele><time>2026-04-19T10:56:33.915Z</time></trkpt><trkpt lat="44.845935" lon="7.9186533"><ele>320.33333333333337</ele><time>2026-04-19T10:56:34.914Z</time></trkpt><trkpt lat="44.8460217" lon="7.9184367"><ele>317.6666666666667</ele><time>2026-04-19T10:56:35.914Z</time></trkpt><trkpt lat="44.8461067" lon="7.9182383"><ele>315.0</ele><time>2026-04-19T10:56:36.915Z</time></trkpt><trkpt lat="44.8461933" lon="7.918045"><ele>315.0</ele><time>2026-04-19T10:56:37.914Z</time></trkpt><trkpt lat="44.8462783" lon="7.9178533"><ele>315.0</ele><time>2026-04-19T10:56:38.914Z</time></trkpt><trkpt lat="44.846365" lon="7.9176633"><ele>315.0</ele><time>2026-04-19T10:56:39.915Z</time></trkpt><trkpt lat="44.846445" lon="7.9174817"><ele>315.5</ele><time>2026-04-19T10:56:40.914Z</time></trkpt><trkpt lat="44.8465183" lon="7.91731"><ele>316.0</ele><time>2026-04-19T10:56:41.914Z</time></trkpt><trkpt lat="44.84659" lon="7.9171533"><ele>316.5</ele><time>2026-04-19T10:56:42.915Z</time></trkpt><trkpt lat="44.8466767" lon="7.9170133"><ele>317.0</ele><time>2026-04-19T10:56:43.915Z</time></trkpt><trkpt lat="44.8467817" lon="7.91691"><ele>316.4</ele><time>2026-04-19T10:56:44.914Z</time></trkpt><trkpt lat="44.8468917" lon="7.916835"><ele>315.79999999999995</ele><time>2026-04-19T10:56:45.914Z</time></trkpt><trkpt lat="44.8470017" lon="7.91677"><ele>315.2</ele><time>2026-04-19T10:56:46.914Z</time></trkpt><trkpt lat="44.847095" lon="7.9167083"><ele>314.59999999999997</ele><time>2026-04-19T10:56:47.915Z</time></trkpt><trkpt lat="44.8471767" lon="7.91665"><ele>314.0</ele><time>2026-04-19T10:56:48.914Z</time></trkpt><trkpt lat="44.8472317" lon="7.9165967"><ele>314.0</ele><time>2026-04-19T10:56:49.914Z</time></trkpt><trkpt lat="44.847265" lon="7.9165117"><ele>314.0</ele><time>2026-04-19T10:56:50.915Z</time></trkpt><trkpt lat="44.84729" lon="7.9164017"><ele>314.0</ele><time>2026-04-19T10:56:51.915Z</time></trkpt><trkpt lat="44.847305" lon="7.9162533"><ele>314.0</ele><time>2026-04-19T10:56:52.915Z</time></trkpt><trkpt lat="44.8473133" lon="7.9160867"><ele>314.0</ele><time>2026-04-19T10:56:53.914Z</time></trkpt><trkpt lat="44.847345" lon="7.9158933"><ele>314.0</ele><time>2026-04-19T10:56:54.914Z</time></trkpt><trkpt lat="44.8473917" lon="7.9156883"><ele>314.0</ele><time>2026-04-19T10:56:55.914Z</time></trkpt><trkpt lat="44.8474483" lon="7.915475"><ele>314.0</ele><time>2026-04-19T10:56:56.914Z</time></trkpt><trkpt lat="44.8475117" lon="7.915275"><ele>314.0</ele><time>2026-04-19T10:56:57.914Z</time></trkpt><trkpt lat="44.8475683" lon="7.915095"><ele>314.0</ele><time>2026-04-19T10:56:58.915Z</time></trkpt><trkpt lat="44.84763" lon="7.9149417"><ele>314.0</ele><time>2026-04-19T10:56:59.914Z</time></trkpt><trkpt lat="44.8477183" lon="7.914815"><ele>314.0</ele><time>2026-04-19T10:57:00.914Z</time></trkpt><trkpt lat="44.84785" lon="7.914705"><ele>313.0</ele><time>2026-04-19T10:57:01.914Z</time></trkpt><trkpt lat="44.848005" lon="7.91464"><ele>312.0</ele><time>2026-04-19T10:57:02.915Z</time></trkpt><trkpt lat="44.84817" lon="7.9145767"><ele>311.0</ele><time>2026-04-19T10:57:03.915Z</time></trkpt><trkpt lat="44.8483417" lon="7.9145"><ele>309.0</ele><time>2026-04-19T10:57:04.915Z</time></trkpt><trkpt lat="44.8485017" lon="7.91443"><ele>307.0</ele><time>2026-04-19T10:57:05.915Z</time></trkpt><trkpt lat="44.84865" lon="7.9143683"><ele>305.0</ele><time>2026-04-19T10:57:06.914Z</time></trkpt><trkpt lat="44.8487833" lon="7.914315"><ele>305.0</ele><time>2026-04-19T10:57:07.915Z</time></trkpt><trkpt lat="44.8489117" lon="7.9142617"><ele>305.0</ele><time>2026-04-19T10:57:08.915Z</time></trkpt><trkpt lat="44.849035" lon="7.9141983"><ele>305.0</ele><time>2026-04-19T10:57:09.914Z</time></trkpt><trkpt lat="44.8491483" lon="7.9141333"><ele>305.0</ele><time>2026-04-19T10:57:10.915Z</time></trkpt><trkpt lat="44.8492467" lon="7.9140433"><ele>304.75</ele><time>2026-04-19T10:57:11.915Z</time></trkpt><trkpt lat="44.8493283" lon="7.9139083"><ele>304.5</ele><time>2026-04-19T10:57:12.914Z</time></trkpt><trkpt lat="44.8493967" lon="7.9137267"><ele>304.25</ele><time>2026-04-19T10:57:13.914Z</time></trkpt><trkpt lat="44.84946" lon="7.9135217"><ele>304.0</ele><time>2026-04-19T10:57:14.914Z</time></trkpt><trkpt lat="44.84953" lon="7.913325"><ele>304.0</ele><time>2026-04-19T10:57:15.914Z</time></trkpt><trkpt lat="44.8495967" lon="7.9131383"><ele>304.0</ele><time>2026-04-19T10:57:16.914Z</time></trkpt><trkpt lat="44.8496567" lon="7.9129583"><ele>304.0</ele><time>2026-04-19T10:57:17.915Z</time></trkpt><trkpt lat="44.8497117" lon="7.912795"><ele>304.0</ele><time>2026-04-19T10:57:18.914Z</time></trkpt><trkpt lat="44.8497533" lon="7.9126567"><ele>303.4</ele><time>2026-04-19T10:57:19.914Z</time></trkpt><trkpt lat="44.8497933" lon="7.9125333"><ele>302.79999999999995</ele><time>2026-04-19T10:57:20.914Z</time></trkpt><trkpt lat="44.84983" lon="7.91241"><ele>302.20000000000005</ele><time>2026-04-19T10:57:21.914Z</time></trkpt><trkpt lat="44.8498617" lon="7.91229"><ele>301.6</ele><time>2026-04-19T10:57:22.915Z</time></trkpt><trkpt lat="44.8498967" lon="7.9121717"><ele>301.0</ele><time>2026-04-19T10:57:23.915Z</time></trkpt><trkpt lat="44.849945" lon="7.912065"><ele>301.0</ele><time>2026-04-19T10:57:24.915Z</time></trkpt><trkpt lat="44.8499983" lon="7.9119733"><ele>301.0</ele><time>2026-04-19T10:57:25.914Z</time></trkpt><trkpt lat="44.850055" lon="7.9118783"><ele>301.0</ele><time>2026-04-19T10:57:26.914Z</time></trkpt><trkpt lat="44.850105" lon="7.911785"><ele>301.0</ele><time>2026-04-19T10:57:27.914Z</time></trkpt><trkpt lat="44.8501583" lon="7.9117"><ele>301.0</ele><time>2026-04-19T10:57:28.915Z</time></trkpt><trkpt lat="44.8502167" lon="7.911615"><ele>301.0</ele><time>2026-04-19T10:57:29.914Z</time></trkpt><trkpt lat="44.8502883" lon="7.911555"><ele>299.8333333333333</ele><time>2026-04-19T10:57:30.914Z</time></trkpt><trkpt lat="44.8503783" lon="7.9115233"><ele>298.66666666666663</ele><time>2026-04-19T10:57:31.915Z</time></trkpt><trkpt lat="44.8504717" lon="7.911515"><ele>297.5</ele><time>2026-04-19T10:57:32.915Z</time></trkpt><trkpt lat="44.85056" lon="7.91151"><ele>296.3333333333333</ele><time>2026-04-19T10:57:33.914Z</time></trkpt><trkpt lat="44.8506383" lon="7.9115217"><ele>295.1666666666667</ele><time>2026-04-19T10:57:34.914Z</time></trkpt><trkpt lat="44.8507083" lon="7.91153"><ele>294.0</ele><time>2026-04-19T10:57:35.914Z</time></trkpt><trkpt lat="44.85078" lon="7.91154"><ele>294.0</ele><time>2026-04-19T10:57:36.915Z</time></trkpt><trkpt lat="44.85085" lon="7.9115383"><ele>294.0</ele><time>2026-04-19T10:57:37.914Z</time></trkpt><trkpt lat="44.8509167" lon="7.9115317"><ele>294.0</ele><time>2026-04-19T10:57:38.915Z</time></trkpt><trkpt lat="44.8509983" lon="7.911515"><ele>294.0</ele><time>2026-04-19T10:57:40.914Z</time></trkpt><trkpt lat="44.8510617" lon="7.9114517"><ele>294.0</ele><time>2026-04-19T10:57:43.914Z</time></trkpt><trkpt lat="44.8509967" lon="7.91148"><ele>294.0</ele><time>2026-04-19T10:58:47.914Z</time></trkpt><trkpt lat="44.85099" lon="7.9115817"><ele>294.0</ele><time>2026-04-19T10:58:50.915Z</time></trkpt><trkpt lat="44.851075" lon="7.9116383"><ele>292.4</ele><time>2026-04-19T10:58:57.915Z</time></trkpt><trkpt lat="44.8511883" lon="7.9116783"><ele>290.79999999999995</ele><time>2026-04-19T10:58:59.914Z</time></trkpt><trkpt lat="44.85127" lon="7.9117067"><ele>289.20000000000005</ele><time>2026-04-19T10:59:00.914Z</time></trkpt><trkpt lat="44.85137" lon="7.911735"><ele>287.6</ele><time>2026-04-19T10:59:01.914Z</time></trkpt><trkpt lat="44.85149" lon="7.911755"><ele>286.0</ele><time>2026-04-19T10:59:02.915Z</time></trkpt><trkpt lat="44.8516233" lon="7.9117767"><ele>286.0</ele><time>2026-04-19T10:59:03.915Z</time></trkpt><trkpt lat="44.8517667" lon="7.9118033"><ele>286.0</ele><time>2026-04-19T10:59:04.915Z</time></trkpt><trkpt lat="44.8519083" lon="7.9118367"><ele>286.0</ele><time>2026-04-19T10:59:05.915Z</time></trkpt><trkpt lat="44.8520483" lon="7.9118667"><ele>286.0</ele><time>2026-04-19T10:59:06.915Z</time></trkpt><trkpt lat="44.8521867" lon="7.9118967"><ele>286.25</ele><time>2026-04-19T10:59:07.915Z</time></trkpt><trkpt lat="44.8523283" lon="7.91192"><ele>286.5</ele><time>2026-04-19T10:59:08.915Z</time></trkpt><trkpt lat="44.852465" lon="7.9119483"><ele>286.75</ele><time>2026-04-19T10:59:09.915Z</time></trkpt><trkpt lat="44.8526033" lon="7.9119717"><ele>287.0</ele><time>2026-04-19T10:59:10.915Z</time></trkpt><trkpt lat="44.8527383" lon="7.9120033"><ele>288.25</ele><time>2026-04-19T10:59:11.914Z</time></trkpt><trkpt lat="44.8528583" lon="7.9120483"><ele>289.5</ele><time>2026-04-19T10:59:12.914Z</time></trkpt><trkpt lat="44.852965" lon="7.91212"><ele>290.75</ele><time>2026-04-19T10:59:13.914Z</time></trkpt><trkpt lat="44.85306" lon="7.9122267"><ele>292.0</ele><time>2026-04-19T10:59:14.914Z</time></trkpt><trkpt lat="44.8531383" lon="7.9123667"><ele>292.0</ele><time>2026-04-19T10:59:15.914Z</time></trkpt><trkpt lat="44.8531817" lon="7.9125333"><ele>292.0</ele><time>2026-04-19T10:59:16.915Z</time></trkpt><trkpt lat="44.85319" lon="7.9127183"><ele>292.0</ele><time>2026-04-19T10:59:17.914Z</time></trkpt><trkpt lat="44.8531833" lon="7.9129083"><ele>292.0</ele><time>2026-04-19T10:59:18.914Z</time></trkpt><trkpt lat="44.8531767" lon="7.9130933"><ele>292.2</ele><time>2026-04-19T10:59:19.914Z</time></trkpt><trkpt lat="44.8531717" lon="7.9132717"><ele>292.4</ele><time>2026-04-19T10:59:20.915Z</time></trkpt><trkpt lat="44.8531667" lon="7.9134383"><ele>292.6</ele><time>2026-04-19T10:59:21.915Z</time></trkpt><trkpt lat="44.8531683" lon="7.9135817"><ele>292.8</ele><time>2026-04-19T10:59:22.915Z</time></trkpt><trkpt lat="44.8531683" lon="7.913715"><ele>293.0</ele><time>2026-04-19T10:59:23.914Z</time></trkpt><trkpt lat="44.85317" lon="7.9138233"><ele>293.4</ele><time>2026-04-19T10:59:24.914Z</time></trkpt><trkpt lat="44.85322" lon="7.9139183"><ele>293.8</ele><time>2026-04-19T10:59:26.915Z</time></trkpt><trkpt lat="44.85329" lon="7.9139017"><ele>294.2</ele><time>2026-04-19T10:59:29.914Z</time></trkpt><trkpt lat="44.8533417" lon="7.9138083"><ele>294.6</ele><time>2026-04-19T10:59:32.915Z</time></trkpt><trkpt lat="44.8534283" lon="7.9136367"><ele>295.0</ele><time>2026-04-19T10:59:34.914Z</time></trkpt><trkpt lat="44.8534967" lon="7.91353"><ele>295.6</ele><time>2026-04-19T10:59:35.915Z</time></trkpt><trkpt lat="44.8535583" lon="7.9134233"><ele>296.2</ele><time>2026-04-19T10:59:36.914Z</time></trkpt><trkpt lat="44.8536383" lon="7.9133267"><ele>296.8</ele><time>2026-04-19T10:59:37.914Z</time></trkpt><trkpt lat="44.8537217" lon="7.91324"><ele>297.4</ele><time>2026-04-19T10:59:38.914Z</time></trkpt><trkpt lat="44.85381" lon="7.913165"><ele>298.0</ele><time>2026-04-19T10:59:39.915Z</time></trkpt><trkpt lat="44.8538983" lon="7.9130933"><ele>296.6</ele><time>2026-04-19T10:59:40.914Z</time></trkpt><trkpt lat="44.8539917" lon="7.91302"><ele>295.20000000000005</ele><time>2026-04-19T10:59:41.914Z</time></trkpt><trkpt lat="44.8540717" lon="7.9129233"><ele>293.8</ele><time>2026-04-19T10:59:42.915Z</time></trkpt><trkpt lat="44.8541283" lon="7.9128017"><ele>292.40000000000003</ele><time>2026-04-19T10:59:43.914Z</time></trkpt><trkpt lat="44.8541633" lon="7.9126467"><ele>291.0</ele><time>2026-04-19T10:59:44.915Z</time></trkpt><trkpt lat="44.85419" lon="7.9124633"><ele>290.25</ele><time>2026-04-19T10:59:45.914Z</time></trkpt><trkpt lat="44.8542133" lon="7.9122767"><ele>289.5</ele><time>2026-04-19T10:59:46.915Z</time></trkpt><trkpt lat="44.854235" lon="7.9121083"><ele>288.75</ele><time>2026-04-19T10:59:47.914Z</time></trkpt><trkpt lat="44.854265" lon="7.9119517"><ele>288.0</ele><time>2026-04-19T10:59:48.914Z</time></trkpt><trkpt lat="44.8543" lon="7.911815"><ele>288.75</ele><time>2026-04-19T10:59:49.915Z</time></trkpt><trkpt lat="44.8543467" lon="7.91168"><ele>289.5</ele><time>2026-04-19T10:59:50.914Z</time></trkpt><trkpt lat="44.8544" lon="7.9115267"><ele>290.25</ele><time>2026-04-19T10:59:51.915Z</time></trkpt><trkpt lat="44.854465" lon="7.9113683"><ele>291.0</ele><time>2026-04-19T10:59:52.915Z</time></trkpt><trkpt lat="44.8545433" lon="7.91121"><ele>291.0</ele><time>2026-04-19T10:59:53.914Z</time></trkpt><trkpt lat="44.8546183" lon="7.911055"><ele>291.0</ele><time>2026-04-19T10:59:54.914Z</time></trkpt><trkpt lat="44.8546883" lon="7.9109133"><ele>291.0</ele><time>2026-04-19T10:59:55.915Z</time></trkpt><trkpt lat="44.8547517" lon="7.9107817"><ele>291.0</ele><time>2026-04-19T10:59:56.915Z</time></trkpt><trkpt lat="44.85481" lon="7.9106667"><ele>290.5</ele><time>2026-04-19T10:59:57.915Z</time></trkpt><trkpt lat="44.85487" lon="7.9105583"><ele>290.0</ele><time>2026-04-19T10:59:58.915Z</time></trkpt><trkpt lat="44.8549283" lon="7.910455"><ele>289.5</ele><time>2026-04-19T10:59:59.915Z</time></trkpt><trkpt lat="44.8549833" lon="7.910345"><ele>289.0</ele><time>2026-04-19T11:00:00.915Z</time></trkpt><trkpt lat="44.85502" lon="7.91027"><ele>288.5</ele><time>2026-04-19T11:00:01.915Z</time></trkpt><trkpt lat="44.855085" lon="7.91017"><ele>288.0</ele><time>2026-04-19T11:00:03.914Z</time></trkpt><trkpt lat="44.8551617" lon="7.91018"><ele>288.0</ele><time>2026-04-19T11:00:05.914Z</time></trkpt><trkpt lat="44.8552367" lon="7.91026"><ele>288.0</ele><time>2026-04-19T11:00:07.915Z</time></trkpt><trkpt lat="44.8553633" lon="7.9103783"><ele>288.0</ele><time>2026-04-19T11:00:09.914Z</time></trkpt><trkpt lat="44.855455" lon="7.9104783"><ele>288.0</ele><time>2026-04-19T11:00:10.914Z</time></trkpt><trkpt lat="44.855555" lon="7.9105783"><ele>288.0</ele><time>2026-04-19T11:00:11.914Z</time></trkpt><trkpt lat="44.8556667" lon="7.9106883"><ele>288.0</ele><time>2026-04-19T11:00:12.915Z</time></trkpt><trkpt lat="44.85578" lon="7.9107967"><ele>288.0</ele><time>2026-04-19T11:00:13.914Z</time></trkpt><trkpt lat="44.8558933" lon="7.910895"><ele>288.0</ele><time>2026-04-19T11:00:14.914Z</time></trkpt><trkpt lat="44.855995" lon="7.9109767"><ele>289.0</ele><time>2026-04-19T11:00:15.914Z</time></trkpt><trkpt lat="44.85608" lon="7.9110483"><ele>290.0</ele><time>2026-04-19T11:00:16.915Z</time></trkpt><trkpt lat="44.85614" lon="7.9110883"><ele>291.0</ele><time>2026-04-19T11:00:17.914Z</time></trkpt><trkpt lat="44.85621" lon="7.9110733"><ele>292.0</ele><time>2026-04-19T11:00:19.915Z</time></trkpt><trkpt lat="44.85624" lon="7.9109867"><ele>293.0</ele><time>2026-04-19T11:00:20.915Z</time></trkpt><trkpt lat="44.856265" lon="7.91088"><ele>294.0</ele><time>2026-04-19T11:00:21.914Z</time></trkpt><trkpt lat="44.8562917" lon="7.9107617"><ele>294.3333333333333</ele><time>2026-04-19T11:00:22.915Z</time></trkpt><trkpt lat="44.8563083" lon="7.9106483"><ele>294.6666666666667</ele><time>2026-04-19T11:00:23.914Z</time></trkpt><trkpt lat="44.8563283" lon="7.910545"><ele>295.0</ele><time>2026-04-19T11:00:24.914Z</time></trkpt><trkpt lat="44.8563533" lon="7.9104133"><ele>295.33333333333337</ele><time>2026-04-19T11:00:26.914Z</time></trkpt><trkpt lat="44.8563983" lon="7.910325"><ele>295.6666666666667</ele><time>2026-04-19T11:00:29.915Z</time></trkpt><trkpt lat="44.85648" lon="7.9102533"><ele>296.0</ele><time>2026-04-19T11:00:31.915Z</time></trkpt><trkpt lat="44.85654" lon="7.9102233"><ele>296.0</ele><time>2026-04-19T11:00:32.915Z</time></trkpt><trkpt lat="44.8566017" lon="7.9101867"><ele>296.0</ele><time>2026-04-19T11:00:33.915Z</time></trkpt><trkpt lat="44.8566717" lon="7.9101383"><ele>296.0</ele><time>2026-04-19T11:00:34.914Z</time></trkpt><trkpt lat="44.856745" lon="7.9100767"><ele>296.0</ele><time>2026-04-19T11:00:35.914Z</time></trkpt><trkpt lat="44.8568117" lon="7.91"><ele>296.0</ele><time>2026-04-19T11:00:36.915Z</time></trkpt><trkpt lat="44.8568767" lon="7.9099233"><ele>296.0</ele><time>2026-04-19T11:00:37.914Z</time></trkpt><trkpt lat="44.8569583" lon="7.90985"><ele>298.6666666666667</ele><time>2026-04-19T11:00:38.915Z</time></trkpt><trkpt lat="44.8570467" lon="7.9098017"><ele>301.33333333333337</ele><time>2026-04-19T11:00:39.915Z</time></trkpt><trkpt lat="44.85713" lon="7.9097817"><ele>304.0</ele><time>2026-04-19T11:00:40.914Z</time></trkpt><trkpt lat="44.8572067" lon="7.909785"><ele>306.6666666666667</ele><time>2026-04-19T11:00:41.915Z</time></trkpt><trkpt lat="44.8572783" lon="7.9098083"><ele>309.3333333333333</ele><time>2026-04-19T11:00:42.915Z</time></trkpt><trkpt lat="44.8573433" lon="7.909865"><ele>312.0</ele><time>2026-04-19T11:00:43.914Z</time></trkpt><trkpt lat="44.8574167" lon="7.9099567"><ele>312.0</ele><time>2026-04-19T11:00:44.915Z</time></trkpt><trkpt lat="44.8574867" lon="7.9100667"><ele>312.0</ele><time>2026-04-19T11:00:45.915Z</time></trkpt><trkpt lat="44.8575633" lon="7.9101683"><ele>312.0</ele><time>2026-04-19T11:00:46.915Z</time></trkpt><trkpt lat="44.857645" lon="7.9102433"><ele>312.0</ele><time>2026-04-19T11:00:47.914Z</time></trkpt><trkpt lat="44.857725" lon="7.9103"><ele>312.0</ele><time>2026-04-19T11:00:48.915Z</time></trkpt><trkpt lat="44.8578" lon="7.9103433"><ele>312.0</ele><time>2026-04-19T11:00:49.914Z</time></trkpt><trkpt lat="44.8578683" lon="7.91039"><ele>312.0</ele><time>2026-04-19T11:00:50.915Z</time></trkpt><trkpt lat="44.8579617" lon="7.9104567"><ele>312.0</ele><time>2026-04-19T11:00:52.915Z</time></trkpt><trkpt lat="44.8580467" lon="7.9104267"><ele>312.0</ele><time>2026-04-19T11:00:56.914Z</time></trkpt><trkpt lat="44.8580883" lon="7.910335"><ele>312.0</ele><time>2026-04-19T11:00:57.914Z</time></trkpt><trkpt lat="44.858145" lon="7.91021"><ele>312.0</ele><time>2026-04-19T11:00:58.914Z</time></trkpt><trkpt lat="44.8582217" lon="7.910085"><ele>312.0</ele><time>2026-04-19T11:00:59.913Z</time></trkpt><trkpt lat="44.8583217" lon="7.90995"><ele>312.0</ele><time>2026-04-19T11:01:00.914Z</time></trkpt><trkpt lat="44.8584383" lon="7.90981"><ele>312.0</ele><time>2026-04-19T11:01:01.913Z</time></trkpt><trkpt lat="44.8585583" lon="7.9096633"><ele>311.3333333333333</ele><time>2026-04-19T11:01:02.914Z</time></trkpt><trkpt lat="44.858675" lon="7.9095183"><ele>310.66666666666663</ele><time>2026-04-19T11:01:03.914Z</time></trkpt><trkpt lat="44.8588017" lon="7.9093717"><ele>310.0</ele><time>2026-04-19T11:01:04.913Z</time></trkpt><trkpt lat="44.858935" lon="7.90923"><ele>310.0</ele><time>2026-04-19T11:01:05.913Z</time></trkpt><trkpt lat="44.8590617" lon="7.9090833"><ele>310.0</ele><time>2026-04-19T11:01:06.914Z</time></trkpt><trkpt lat="44.8591867" lon="7.9089367"><ele>310.0</ele><time>2026-04-19T11:01:07.914Z</time></trkpt><trkpt lat="44.859305" lon="7.908795"><ele>309.75</ele><time>2026-04-19T11:01:08.914Z</time></trkpt><trkpt lat="44.8594133" lon="7.9086683"><ele>309.5</ele><time>2026-04-19T11:01:09.913Z</time></trkpt><trkpt lat="44.8595183" lon="7.90854"><ele>309.25</ele><time>2026-04-19T11:01:10.913Z</time></trkpt><trkpt lat="44.85962" lon="7.9084217"><ele>309.0</ele><time>2026-04-19T11:01:11.914Z</time></trkpt><trkpt lat="44.8597167" lon="7.908305"><ele>308.8</ele><time>2026-04-19T11:01:12.914Z</time></trkpt><trkpt lat="44.85981" lon="7.9082"><ele>308.59999999999997</ele><time>2026-04-19T11:01:13.913Z</time></trkpt><trkpt lat="44.8598917" lon="7.908105"><ele>308.4</ele><time>2026-04-19T11:01:14.914Z</time></trkpt><trkpt lat="44.8599733" lon="7.9080233"><ele>308.2</ele><time>2026-04-19T11:01:15.913Z</time></trkpt><trkpt lat="44.86006" lon="7.90799"><ele>308.0</ele><time>2026-04-19T11:01:16.913Z</time></trkpt><trkpt lat="44.8601533" lon="7.9079967"><ele>308.0</ele><time>2026-04-19T11:01:17.913Z</time></trkpt><trkpt lat="44.86026" lon="7.9080283"><ele>308.0</ele><time>2026-04-19T11:01:18.913Z</time></trkpt><trkpt lat="44.860375" lon="7.908065"><ele>308.0</ele><time>2026-04-19T11:01:19.913Z</time></trkpt><trkpt lat="44.8605" lon="7.9080667"><ele>308.0</ele><time>2026-04-19T11:01:20.914Z</time></trkpt><trkpt lat="44.8606333" lon="7.9080483"><ele>308.0</ele><time>2026-04-19T11:01:21.914Z</time></trkpt><trkpt lat="44.860755" lon="7.9080233"><ele>308.0</ele><time>2026-04-19T11:01:22.913Z</time></trkpt><trkpt lat="44.8608667" lon="7.9079983"><ele>308.0</ele><time>2026-04-19T11:01:23.913Z</time></trkpt><trkpt lat="44.8609717" lon="7.9079733"><ele>308.0</ele><time>2026-04-19T11:01:24.913Z</time></trkpt><trkpt lat="44.8610767" lon="7.907955"><ele>308.0</ele><time>2026-04-19T11:01:25.914Z</time></trkpt><trkpt lat="44.8611683" lon="7.9079333"><ele>307.8</ele><time>2026-04-19T11:01:26.914Z</time></trkpt><trkpt lat="44.8612517" lon="7.90791"><ele>307.6</ele><time>2026-04-19T11:01:27.914Z</time></trkpt><trkpt lat="44.8613467" lon="7.9078817"><ele>307.4</ele><time>2026-04-19T11:01:28.913Z</time></trkpt><trkpt lat="44.861455" lon="7.9078567"><ele>307.2</ele><time>2026-04-19T11:01:29.914Z</time></trkpt><trkpt lat="44.861575" lon="7.9078133"><ele>307.0</ele><time>2026-04-19T11:01:30.913Z</time></trkpt><trkpt lat="44.861675" lon="7.9077833"><ele>307.0</ele><time>2026-04-19T11:01:31.914Z</time></trkpt><trkpt lat="44.8617767" lon="7.90774"><ele>307.0</ele><time>2026-04-19T11:01:32.914Z</time></trkpt><trkpt lat="44.861875" lon="7.9076917"><ele>307.0</ele><time>2026-04-19T11:01:33.913Z</time></trkpt><trkpt lat="44.86199" lon="7.9076467"><ele>307.0</ele><time>2026-04-19T11:01:34.913Z</time></trkpt><trkpt lat="44.8621333" lon="7.9076083"><ele>306.66666666666663</ele><time>2026-04-19T11:01:35.914Z</time></trkpt><trkpt lat="44.8622833" lon="7.9075833"><ele>306.3333333333333</ele><time>2026-04-19T11:01:36.913Z</time></trkpt><trkpt lat="44.8624517" lon="7.9075733"><ele>306.0</ele><time>2026-04-19T11:01:37.914Z</time></trkpt><trkpt lat="44.8626133" lon="7.9075667"><ele>304.6666666666667</ele><time>2026-04-19T11:01:38.914Z</time></trkpt><trkpt lat="44.86278" lon="7.9075383"><ele>303.33333333333337</ele><time>2026-04-19T11:01:39.914Z</time></trkpt><trkpt lat="44.8629433" lon="7.90749"><ele>302.0</ele><time>2026-04-19T11:01:40.913Z</time></trkpt><trkpt lat="44.8630883" lon="7.9074367"><ele>302.0</ele><time>2026-04-19T11:01:41.914Z</time></trkpt><trkpt lat="44.8632483" lon="7.907335"><ele>302.0</ele><time>2026-04-19T11:01:42.914Z</time></trkpt><trkpt lat="44.8634" lon="7.907195"><ele>302.0</ele><time>2026-04-19T11:01:43.914Z</time></trkpt><trkpt lat="44.863545" lon="7.9070417"><ele>300.6666666666667</ele><time>2026-04-19T11:01:44.913Z</time></trkpt><trkpt lat="44.863685" lon="7.90689"><ele>299.3333333333333</ele><time>2026-04-19T11:01:45.914Z</time></trkpt><trkpt lat="44.8638233" lon="7.9067433"><ele>298.0</ele><time>2026-04-19T11:01:46.914Z</time></trkpt><trkpt lat="44.8639467" lon="7.906605"><ele>298.0</ele><time>2026-04-19T11:01:47.914Z</time></trkpt><trkpt lat="44.8640633" lon="7.9064783"><ele>298.0</ele><time>2026-04-19T11:01:48.914Z</time></trkpt><trkpt lat="44.86418" lon="7.9063417"><ele>298.0</ele><time>2026-04-19T11:01:49.914Z</time></trkpt><trkpt lat="44.8642833" lon="7.9061667"><ele>297.0</ele><time>2026-04-19T11:01:50.914Z</time></trkpt><trkpt lat="44.86438" lon="7.90596"><ele>296.0</ele><time>2026-04-19T11:01:51.914Z</time></trkpt><trkpt lat="44.8644717" lon="7.9057517"><ele>295.0</ele><time>2026-04-19T11:01:52.914Z</time></trkpt><trkpt lat="44.864555" lon="7.905545"><ele>297.0</ele><time>2026-04-19T11:01:53.914Z</time></trkpt><trkpt lat="44.8646367" lon="7.9053283"><ele>299.0</ele><time>2026-04-19T11:01:54.913Z</time></trkpt><trkpt lat="44.8647133" lon="7.9051017"><ele>301.0</ele><time>2026-04-19T11:01:55.913Z</time></trkpt><trkpt lat="44.8647817" lon="7.9048833"><ele>301.3333333333333</ele><time>2026-04-19T11:01:56.914Z</time></trkpt><trkpt lat="44.86485" lon="7.904665"><ele>301.6666666666667</ele><time>2026-04-19T11:01:57.913Z</time></trkpt><trkpt lat="44.86493" lon="7.9044533"><ele>302.0</ele><time>2026-04-19T11:01:58.913Z</time></trkpt><trkpt lat="44.8650117" lon="7.9042517"><ele>302.0</ele><time>2026-04-19T11:01:59.914Z</time></trkpt><trkpt lat="44.8650883" lon="7.9040517"><ele>302.0</ele><time>2026-04-19T11:02:00.914Z</time></trkpt><trkpt lat="44.8651567" lon="7.9038517"><ele>302.0</ele><time>2026-04-19T11:02:01.914Z</time></trkpt><trkpt lat="44.8652167" lon="7.9036517"><ele>302.0</ele><time>2026-04-19T11:02:02.914Z</time></trkpt><trkpt lat="44.8652767" lon="7.9034733"><ele>302.0</ele><time>2026-04-19T11:02:03.913Z</time></trkpt><trkpt lat="44.8653317" lon="7.9033133"><ele>302.0</ele><time>2026-04-19T11:02:04.913Z</time></trkpt><trkpt lat="44.8653767" lon="7.9031767"><ele>302.0</ele><time>2026-04-19T11:02:05.913Z</time></trkpt><trkpt lat="44.86542" lon="7.90306"><ele>302.25</ele><time>2026-04-19T11:02:06.913Z</time></trkpt><trkpt lat="44.86548" lon="7.9029617"><ele>302.5</ele><time>2026-04-19T11:02:07.914Z</time></trkpt><trkpt lat="44.8655583" lon="7.90287"><ele>302.75</ele><time>2026-04-19T11:02:08.913Z</time></trkpt><trkpt lat="44.8656617" lon="7.9027783"><ele>303.0</ele><time>2026-04-19T11:02:09.913Z</time></trkpt><trkpt lat="44.8657933" lon="7.90269"><ele>303.0</ele><time>2026-04-19T11:02:10.913Z</time></trkpt><trkpt lat="44.86592" lon="7.9026083"><ele>303.0</ele><time>2026-04-19T11:02:11.914Z</time></trkpt><trkpt lat="44.8660333" lon="7.9025367"><ele>303.0</ele><time>2026-04-19T11:02:12.913Z</time></trkpt><trkpt lat="44.86614" lon="7.9024417"><ele>303.0</ele><time>2026-04-19T11:02:13.913Z</time></trkpt><trkpt lat="44.8662267" lon="7.9023033"><ele>302.5</ele><time>2026-04-19T11:02:14.913Z</time></trkpt><trkpt lat="44.8663033" lon="7.902145"><ele>302.0</ele><time>2026-04-19T11:02:15.914Z</time></trkpt><trkpt lat="44.8663717" lon="7.901985"><ele>301.5</ele><time>2026-04-19T11:02:16.913Z</time></trkpt><trkpt lat="44.8664283" lon="7.9018267"><ele>301.0</ele><time>2026-04-19T11:02:17.914Z</time></trkpt><trkpt lat="44.8664867" lon="7.9016817"><ele>301.0</ele><time>2026-04-19T11:02:18.914Z</time></trkpt><trkpt lat="44.86655" lon="7.9015517"><ele>301.0</ele><time>2026-04-19T11:02:19.914Z</time></trkpt><trkpt lat="44.8666233" lon="7.9014317"><ele>301.0</ele><time>2026-04-19T11:02:20.913Z</time></trkpt><trkpt lat="44.8667083" lon="7.9013267"><ele>301.0</ele><time>2026-04-19T11:02:21.913Z</time></trkpt><trkpt lat="44.8668117" lon="7.9012367"><ele>301.25</ele><time>2026-04-19T11:02:22.913Z</time></trkpt><trkpt lat="44.8669233" lon="7.90116"><ele>301.5</ele><time>2026-04-19T11:02:23.913Z</time></trkpt><trkpt lat="44.86704" lon="7.9011083"><ele>301.75</ele><time>2026-04-19T11:02:24.914Z</time></trkpt><trkpt lat="44.86714" lon="7.9010583"><ele>302.0</ele><time>2026-04-19T11:02:25.913Z</time></trkpt><trkpt lat="44.867235" lon="7.9009933"><ele>302.0</ele><time>2026-04-19T11:02:26.914Z</time></trkpt><trkpt lat="44.8673133" lon="7.9009167"><ele>302.0</ele><time>2026-04-19T11:02:27.914Z</time></trkpt><trkpt lat="44.8673867" lon="7.90083"><ele>302.0</ele><time>2026-04-19T11:02:28.913Z</time></trkpt><trkpt lat="44.867445" lon="7.9007533"><ele>302.0</ele><time>2026-04-19T11:02:29.913Z</time></trkpt><trkpt lat="44.867485" lon="7.9006783"><ele>302.0</ele><time>2026-04-19T11:02:30.913Z</time></trkpt><trkpt lat="44.8675117" lon="7.9005783"><ele>302.0</ele><time>2026-04-19T11:02:31.914Z</time></trkpt><trkpt lat="44.8675383" lon="7.9004583"><ele>301.75</ele><time>2026-04-19T11:02:32.913Z</time></trkpt><trkpt lat="44.8675667" lon="7.9003217"><ele>301.5</ele><time>2026-04-19T11:02:33.913Z</time></trkpt><trkpt lat="44.8676067" lon="7.9001683"><ele>301.25</ele><time>2026-04-19T11:02:34.913Z</time></trkpt><trkpt lat="44.86765" lon="7.9000033"><ele>301.0</ele><time>2026-04-19T11:02:35.914Z</time></trkpt><trkpt lat="44.8676817" lon="7.8998267"><ele>301.0</ele><time>2026-04-19T11:02:36.913Z</time></trkpt><trkpt lat="44.8677" lon="7.89965"><ele>301.0</ele><time>2026-04-19T11:02:37.913Z</time></trkpt><trkpt lat="44.8677067" lon="7.899495"><ele>301.0</ele><time>2026-04-19T11:02:38.914Z</time></trkpt><trkpt lat="44.8677083" lon="7.89935"><ele>301.0</ele><time>2026-04-19T11:02:39.914Z</time></trkpt><trkpt lat="44.867715" lon="7.89921"><ele>301.0</ele><time>2026-04-19T11:02:40.913Z</time></trkpt><trkpt lat="44.867745" lon="7.8990667"><ele>300.66666666666663</ele><time>2026-04-19T11:02:41.913Z</time></trkpt><trkpt lat="44.8677867" lon="7.89893"><ele>300.3333333333333</ele><time>2026-04-19T11:02:42.914Z</time></trkpt><trkpt lat="44.86784" lon="7.8988083"><ele>300.0</ele><time>2026-04-19T11:02:43.913Z</time></trkpt><trkpt lat="44.8678833" lon="7.89871"><ele>299.6666666666667</ele><time>2026-04-19T11:02:44.913Z</time></trkpt><trkpt lat="44.8679267" lon="7.898625"><ele>299.33333333333337</ele><time>2026-04-19T11:02:45.913Z</time></trkpt><trkpt lat="44.8679667" lon="7.8985483"><ele>299.0</ele><time>2026-04-19T11:02:46.914Z</time></trkpt><trkpt lat="44.8680683" lon="7.8984817"><ele>299.0</ele><time>2026-04-19T11:02:48.914Z</time></trkpt><trkpt lat="44.8681317" lon="7.8984967"><ele>299.0</ele><time>2026-04-19T11:02:49.913Z</time></trkpt><trkpt lat="44.868205" lon="7.898545"><ele>299.0</ele><time>2026-04-19T11:02:50.914Z</time></trkpt><trkpt lat="44.868285" lon="7.898605"><ele>299.0</ele><time>2026-04-19T11:02:51.914Z</time></trkpt><trkpt lat="44.8683567" lon="7.8986683"><ele>299.0</ele><time>2026-04-19T11:02:52.914Z</time></trkpt><trkpt lat="44.8684333" lon="7.8987267"><ele>299.0</ele><time>2026-04-19T11:02:53.914Z</time></trkpt><trkpt lat="44.8685057" lon="7.8987826"><ele>298.83333333333337</ele><time>2026-04-19T11:02:54.914Z</time></trkpt><trkpt lat="44.868578" lon="7.8988331"><ele>298.6666666666667</ele><time>2026-04-19T11:02:55.913Z</time></trkpt><trkpt lat="44.8686483" lon="7.8988854"><ele>298.5</ele><time>2026-04-19T11:02:56.914Z</time></trkpt><trkpt lat="44.8687147" lon="7.8989575"><ele>298.3333333333333</ele><time>2026-04-19T11:02:57.914Z</time></trkpt><trkpt lat="44.8687811" lon="7.899049"><ele>298.16666666666663</ele><time>2026-04-19T11:02:58.914Z</time></trkpt><trkpt lat="44.8688367" lon="7.8991568"><ele>298.0</ele><time>2026-04-19T11:02:59.913Z</time></trkpt><trkpt lat="44.8688831" lon="7.8992675"><ele>298.0</ele><time>2026-04-19T11:03:00.914Z</time></trkpt><trkpt lat="44.868925" lon="7.8993759"><ele>298.0</ele><time>2026-04-19T11:03:01.914Z</time></trkpt><trkpt lat="44.8689736" lon="7.8994636"><ele>298.0</ele><time>2026-04-19T11:03:02.913Z</time></trkpt><trkpt lat="44.8690318" lon="7.8995309"><ele>298.0</ele><time>2026-04-19T11:03:03.913Z</time></trkpt><trkpt lat="44.8690998" lon="7.8995847"><ele>298.0</ele><time>2026-04-19T11:03:04.913Z</time></trkpt><trkpt lat="44.8691722" lon="7.8996253"><ele>298.0</ele><time>2026-04-19T11:03:05.913Z</time></trkpt><trkpt lat="44.869246" lon="7.8996471"><ele>297.3333333333333</ele><time>2026-04-19T11:03:06.913Z</time></trkpt><trkpt lat="44.869319" lon="7.8996632"><ele>296.66666666666663</ele><time>2026-04-19T11:03:07.914Z</time></trkpt><trkpt lat="44.8693898" lon="7.8996644"><ele>296.0</ele><time>2026-04-19T11:03:08.913Z</time></trkpt><trkpt lat="44.8694529" lon="7.8996554"><ele>295.3333333333333</ele><time>2026-04-19T11:03:09.914Z</time></trkpt><trkpt lat="44.869561" lon="7.8996359"><ele>294.6666666666667</ele><time>2026-04-19T11:03:11.913Z</time></trkpt><trkpt lat="44.8696531" lon="7.8995984"><ele>294.0</ele><time>2026-04-19T11:03:13.913Z</time></trkpt><trkpt lat="44.8697361" lon="7.8995491"><ele>294.0</ele><time>2026-04-19T11:03:15.914Z</time></trkpt><trkpt lat="44.8698418" lon="7.8994904"><ele>294.0</ele><time>2026-04-19T11:03:35.913Z</time></trkpt><trkpt lat="44.8699098" lon="7.8994544"><ele>294.0</ele><time>2026-04-19T11:03:36.914Z</time></trkpt><trkpt lat="44.8699738" lon="7.8994177"><ele>294.0</ele><time>2026-04-19T11:03:37.913Z</time></trkpt><trkpt lat="44.8700343" lon="7.8993855"><ele>294.0</ele><time>2026-04-19T11:03:38.913Z</time></trkpt><trkpt lat="44.8701398" lon="7.899384"><ele>294.0</ele><time>2026-04-19T11:03:40.914Z</time></trkpt><trkpt lat="44.8702033" lon="7.8994333"><ele>294.0</ele><time>2026-04-19T11:03:42.914Z</time></trkpt><trkpt lat="44.8702017" lon="7.89954"><ele>294.0</ele><time>2026-04-19T11:13:20.913Z</time></trkpt><trkpt lat="44.8701433" lon="7.899485"><ele>294.0</ele><time>2026-04-19T11:13:22.913Z</time></trkpt><trkpt lat="44.8700867" lon="7.8993967"><ele>294.0</ele><time>2026-04-19T11:13:24.912Z</time></trkpt><trkpt lat="44.8699933" lon="7.899395"><ele>294.0</ele><time>2026-04-19T11:13:26.913Z</time></trkpt><trkpt lat="44.869885" lon="7.899455"><ele>294.0</ele><time>2026-04-19T11:13:28.913Z</time></trkpt><trkpt lat="44.8698183" lon="7.8994867"><ele>294.0</ele><time>2026-04-19T11:13:30.913Z</time></trkpt></trkseg></trk></gpx>